<?xml version="1.0" encoding="UTF-8" standalone="no" ?>
<gpx xmlns="http://www.topografix.com/GPX/1/1" xmlns:xsi="http://www.w3.org/2001/XMLSchema-instance" xsi:schemaLocation="http://www.topografix.com/GPX/1/1 http://www.topografix.com/GPX/1/1/gpx.xsd" version="1.1" creator="VisuGPX - https://www.visugpx.com">
  <metadata>
    <name>proget</name>
    <desc><![CDATA[coublevitaine ?]]></desc>
  </metadata>
  <trk>
    <name><![CDATA[--Coublevie-- OR-6099676:coublevitaine 110]]></name>
    <trkseg>
      <trkpt lat="45.35467" lon="5.61294">
        <ele>317</ele>
        <time>2016-05-18T14:15:21Z</time>
      </trkpt>
      <trkpt lat="45.35476" lon="5.61305">
        <ele>316</ele>
        <time>2016-05-18T14:17:21Z</time>
      </trkpt>
      <trkpt lat="45.35486" lon="5.61319">
        <ele>316</ele>
        <time>2016-05-18T14:19:21Z</time>
      </trkpt>
      <trkpt lat="45.35492" lon="5.61333">
        <ele>315</ele>
        <time>2016-05-18T14:21:21Z</time>
      </trkpt>
      <trkpt lat="45.35492" lon="5.61333">
        <ele>315</ele>
        <time>2016-05-18T14:23:21Z</time>
      </trkpt>
      <trkpt lat="45.35487" lon="5.61359">
        <ele>317</ele>
        <time>2016-05-18T14:25:21Z</time>
      </trkpt>
      <trkpt lat="45.35483" lon="5.61377">
        <ele>318</ele>
        <time>2016-05-18T14:27:21Z</time>
      </trkpt>
      <trkpt lat="45.35481" lon="5.61386">
        <ele>319</ele>
        <time>2016-05-18T14:29:21Z</time>
      </trkpt>
      <trkpt lat="45.35473" lon="5.61429">
        <ele>321</ele>
        <time>2016-05-18T14:31:21Z</time>
      </trkpt>
      <trkpt lat="45.3547" lon="5.61441">
        <ele>322</ele>
        <time>2016-05-18T14:33:21Z</time>
      </trkpt>
      <trkpt lat="45.35465" lon="5.61468">
        <ele>324</ele>
        <time>2016-05-18T14:35:21Z</time>
      </trkpt>
      <trkpt lat="45.35463" lon="5.61476">
        <ele>325</ele>
        <time>2016-05-18T14:37:21Z</time>
      </trkpt>
      <trkpt lat="45.35462" lon="5.61495">
        <ele>326</ele>
        <time>2016-05-18T14:39:21Z</time>
      </trkpt>
      <trkpt lat="45.35461" lon="5.61506">
        <ele>327</ele>
        <time>2016-05-18T14:41:21Z</time>
      </trkpt>
      <trkpt lat="45.35463" lon="5.61514">
        <ele>328</ele>
        <time>2016-05-18T14:43:21Z</time>
      </trkpt>
      <trkpt lat="45.35465" lon="5.6152">
        <ele>329</ele>
        <time>2016-05-18T14:45:21Z</time>
      </trkpt>
      <trkpt lat="45.35468" lon="5.61524">
        <ele>329</ele>
        <time>2016-05-18T14:47:21Z</time>
      </trkpt>
      <trkpt lat="45.35471" lon="5.61527">
        <ele>330</ele>
        <time>2016-05-18T14:49:21Z</time>
      </trkpt>
      <trkpt lat="45.35475" lon="5.61531">
        <ele>330</ele>
        <time>2016-05-18T14:51:21Z</time>
      </trkpt>
      <trkpt lat="45.35479" lon="5.61532">
        <ele>331</ele>
        <time>2016-05-18T14:53:21Z</time>
      </trkpt>
      <trkpt lat="45.35481" lon="5.61532">
        <ele>331</ele>
        <time>2016-05-18T14:55:21Z</time>
      </trkpt>
      <trkpt lat="45.35486" lon="5.6153">
        <ele>331</ele>
        <time>2016-05-18T14:57:21Z</time>
      </trkpt>
      <trkpt lat="45.355" lon="5.61523">
        <ele>331</ele>
        <time>2016-05-18T14:59:21Z</time>
      </trkpt>
      <trkpt lat="45.35514" lon="5.61517">
        <ele>330</ele>
        <time>2016-05-18T15:01:21Z</time>
      </trkpt>
      <trkpt lat="45.35521" lon="5.61516">
        <ele>330</ele>
        <time>2016-05-18T15:03:21Z</time>
      </trkpt>
      <trkpt lat="45.35527" lon="5.61517">
        <ele>330</ele>
        <time>2016-05-18T15:05:21Z</time>
      </trkpt>
      <trkpt lat="45.35549" lon="5.61521">
        <ele>329</ele>
        <time>2016-05-18T15:07:21Z</time>
      </trkpt>
      <trkpt lat="45.35558" lon="5.61525">
        <ele>330</ele>
        <time>2016-05-18T15:09:21Z</time>
      </trkpt>
      <trkpt lat="45.35566" lon="5.61529">
        <ele>330</ele>
        <time>2016-05-18T15:11:21Z</time>
      </trkpt>
      <trkpt lat="45.3557" lon="5.61533">
        <ele>330</ele>
        <time>2016-05-18T15:13:21Z</time>
      </trkpt>
      <trkpt lat="45.35589" lon="5.61552">
        <ele>332</ele>
        <time>2016-05-18T15:15:21Z</time>
      </trkpt>
      <trkpt lat="45.35602" lon="5.61569">
        <ele>333</ele>
        <time>2016-05-18T15:17:21Z</time>
      </trkpt>
      <trkpt lat="45.35605" lon="5.61576">
        <ele>334</ele>
        <time>2016-05-18T15:19:21Z</time>
      </trkpt>
      <trkpt lat="45.35607" lon="5.61582">
        <ele>335</ele>
        <time>2016-05-18T15:21:21Z</time>
      </trkpt>
      <trkpt lat="45.35608" lon="5.61589">
        <ele>335</ele>
        <time>2016-05-18T15:23:21Z</time>
      </trkpt>
      <trkpt lat="45.35608" lon="5.61596">
        <ele>336</ele>
        <time>2016-05-18T15:25:21Z</time>
      </trkpt>
      <trkpt lat="45.35608" lon="5.61606">
        <ele>337</ele>
        <time>2016-05-18T15:27:21Z</time>
      </trkpt>
      <trkpt lat="45.35604" lon="5.61624">
        <ele>339</ele>
        <time>2016-05-18T15:29:21Z</time>
      </trkpt>
      <trkpt lat="45.35601" lon="5.6163">
        <ele>340</ele>
        <time>2016-05-18T15:31:21Z</time>
      </trkpt>
      <trkpt lat="45.35598" lon="5.61634">
        <ele>341</ele>
        <time>2016-05-18T15:33:21Z</time>
      </trkpt>
      <trkpt lat="45.35593" lon="5.61638">
        <ele>341</ele>
        <time>2016-05-18T15:35:21Z</time>
      </trkpt>
      <trkpt lat="45.35581" lon="5.61645">
        <ele>343</ele>
        <time>2016-05-18T15:37:21Z</time>
      </trkpt>
      <trkpt lat="45.35564" lon="5.61657">
        <ele>344</ele>
        <time>2016-05-18T15:39:21Z</time>
      </trkpt>
      <trkpt lat="45.35558" lon="5.61664">
        <ele>345</ele>
        <time>2016-05-18T15:41:21Z</time>
      </trkpt>
      <trkpt lat="45.35556" lon="5.61665">
        <ele>345</ele>
        <time>2016-05-18T15:43:21Z</time>
      </trkpt>
      <trkpt lat="45.35554" lon="5.61672">
        <ele>345</ele>
        <time>2016-05-18T15:45:21Z</time>
      </trkpt>
      <trkpt lat="45.35554" lon="5.61675">
        <ele>345</ele>
        <time>2016-05-18T15:47:21Z</time>
      </trkpt>
      <trkpt lat="45.35553" lon="5.61678">
        <ele>345</ele>
        <time>2016-05-18T15:49:21Z</time>
      </trkpt>
      <trkpt lat="45.35552" lon="5.61683">
        <ele>345</ele>
        <time>2016-05-18T15:51:21Z</time>
      </trkpt>
      <trkpt lat="45.35554" lon="5.61694">
        <ele>345</ele>
        <time>2016-05-18T15:53:21Z</time>
      </trkpt>
      <trkpt lat="45.35561" lon="5.61717">
        <ele>345</ele>
        <time>2016-05-18T15:55:21Z</time>
      </trkpt>
      <trkpt lat="45.35568" lon="5.61735">
        <ele>344</ele>
        <time>2016-05-18T15:57:21Z</time>
      </trkpt>
      <trkpt lat="45.35572" lon="5.61747">
        <ele>344</ele>
        <time>2016-05-18T15:59:21Z</time>
      </trkpt>
      <trkpt lat="45.35571" lon="5.6175">
        <ele>344</ele>
        <time>2016-05-18T16:01:21Z</time>
      </trkpt>
      <trkpt lat="45.35571" lon="5.61761">
        <ele>344</ele>
        <time>2016-05-18T16:03:21Z</time>
      </trkpt>
      <trkpt lat="45.35573" lon="5.61765">
        <ele>344</ele>
        <time>2016-05-18T16:05:21Z</time>
      </trkpt>
      <trkpt lat="45.35576" lon="5.61778">
        <ele>344</ele>
        <time>2016-05-18T16:07:21Z</time>
      </trkpt>
      <trkpt lat="45.35578" lon="5.61796">
        <ele>344</ele>
        <time>2016-05-18T16:09:21Z</time>
      </trkpt>
      <trkpt lat="45.35579" lon="5.618">
        <ele>344</ele>
        <time>2016-05-18T16:11:21Z</time>
      </trkpt>
      <trkpt lat="45.35581" lon="5.61809">
        <ele>344</ele>
        <time>2016-05-18T16:13:21Z</time>
      </trkpt>
      <trkpt lat="45.35584" lon="5.6186">
        <ele>345</ele>
        <time>2016-05-18T16:15:21Z</time>
      </trkpt>
      <trkpt lat="45.35584" lon="5.61874">
        <ele>346</ele>
        <time>2016-05-18T16:17:21Z</time>
      </trkpt>
      <trkpt lat="45.35582" lon="5.61911">
        <ele>348</ele>
        <time>2016-05-18T16:19:21Z</time>
      </trkpt>
      <trkpt lat="45.35581" lon="5.61967">
        <ele>349</ele>
        <time>2016-05-18T16:21:21Z</time>
      </trkpt>
      <trkpt lat="45.35582" lon="5.6199">
        <ele>349</ele>
        <time>2016-05-18T16:23:21Z</time>
      </trkpt>
      <trkpt lat="45.35582" lon="5.61998">
        <ele>349</ele>
        <time>2016-05-18T16:25:21Z</time>
      </trkpt>
      <trkpt lat="45.35584" lon="5.62009">
        <ele>350</ele>
        <time>2016-05-18T16:27:21Z</time>
      </trkpt>
      <trkpt lat="45.3559" lon="5.6204">
        <ele>352</ele>
        <time>2016-05-18T16:29:21Z</time>
      </trkpt>
      <trkpt lat="45.35599" lon="5.62079">
        <ele>355</ele>
        <time>2016-05-18T16:31:21Z</time>
      </trkpt>
      <trkpt lat="45.35605" lon="5.62094">
        <ele>355</ele>
        <time>2016-05-18T16:33:21Z</time>
      </trkpt>
      <trkpt lat="45.3561" lon="5.62107">
        <ele>355</ele>
        <time>2016-05-18T16:35:21Z</time>
      </trkpt>
      <trkpt lat="45.35625" lon="5.6213">
        <ele>356</ele>
        <time>2016-05-18T16:37:21Z</time>
      </trkpt>
      <trkpt lat="45.35638" lon="5.62145">
        <ele>356</ele>
        <time>2016-05-18T16:39:21Z</time>
      </trkpt>
      <trkpt lat="45.35645" lon="5.62154">
        <ele>356</ele>
        <time>2016-05-18T16:41:21Z</time>
      </trkpt>
      <trkpt lat="45.35659" lon="5.62167">
        <ele>356</ele>
        <time>2016-05-18T16:43:21Z</time>
      </trkpt>
      <trkpt lat="45.35667" lon="5.62171">
        <ele>357</ele>
        <time>2016-05-18T16:45:21Z</time>
      </trkpt>
      <trkpt lat="45.35677" lon="5.62175">
        <ele>357</ele>
        <time>2016-05-18T16:47:21Z</time>
      </trkpt>
      <trkpt lat="45.35683" lon="5.62177">
        <ele>358</ele>
        <time>2016-05-18T16:49:21Z</time>
      </trkpt>
      <trkpt lat="45.35743" lon="5.62184">
        <ele>360</ele>
        <time>2016-05-18T16:51:21Z</time>
      </trkpt>
      <trkpt lat="45.35752" lon="5.62186">
        <ele>361</ele>
        <time>2016-05-18T16:53:21Z</time>
      </trkpt>
      <trkpt lat="45.35767" lon="5.62195">
        <ele>362</ele>
        <time>2016-05-18T16:55:21Z</time>
      </trkpt>
      <trkpt lat="45.35794" lon="5.62218">
        <ele>363</ele>
        <time>2016-05-18T16:57:21Z</time>
      </trkpt>
      <trkpt lat="45.35806" lon="5.6223">
        <ele>364</ele>
        <time>2016-05-18T16:59:21Z</time>
      </trkpt>
      <trkpt lat="45.35825" lon="5.62247">
        <ele>365</ele>
        <time>2016-05-18T17:01:21Z</time>
      </trkpt>
      <trkpt lat="45.35847" lon="5.62265">
        <ele>366</ele>
        <time>2016-05-18T17:03:21Z</time>
      </trkpt>
      <trkpt lat="45.35858" lon="5.62273">
        <ele>367</ele>
        <time>2016-05-18T17:05:21Z</time>
      </trkpt>
      <trkpt lat="45.35868" lon="5.62278">
        <ele>368</ele>
        <time>2016-05-18T17:07:21Z</time>
      </trkpt>
      <trkpt lat="45.35876" lon="5.62281">
        <ele>368</ele>
        <time>2016-05-18T17:09:21Z</time>
      </trkpt>
      <trkpt lat="45.35888" lon="5.62283">
        <ele>369</ele>
        <time>2016-05-18T17:11:21Z</time>
      </trkpt>
      <trkpt lat="45.3591" lon="5.62285">
        <ele>370</ele>
        <time>2016-05-18T17:13:21Z</time>
      </trkpt>
      <trkpt lat="45.35922" lon="5.62286">
        <ele>371</ele>
        <time>2016-05-18T17:15:21Z</time>
      </trkpt>
      <trkpt lat="45.3593" lon="5.62285">
        <ele>371</ele>
        <time>2016-05-18T17:17:21Z</time>
      </trkpt>
      <trkpt lat="45.35949" lon="5.62282">
        <ele>373</ele>
        <time>2016-05-18T17:19:21Z</time>
      </trkpt>
      <trkpt lat="45.35978" lon="5.62272">
        <ele>375</ele>
        <time>2016-05-18T17:21:21Z</time>
      </trkpt>
      <trkpt lat="45.35995" lon="5.62264">
        <ele>376</ele>
        <time>2016-05-18T17:23:21Z</time>
      </trkpt>
      <trkpt lat="45.36022" lon="5.62251">
        <ele>377</ele>
        <time>2016-05-18T17:25:21Z</time>
      </trkpt>
      <trkpt lat="45.361" lon="5.62217">
        <ele>382</ele>
        <time>2016-05-18T17:27:21Z</time>
      </trkpt>
      <trkpt lat="45.3615" lon="5.62193">
        <ele>387</ele>
        <time>2016-05-18T17:29:21Z</time>
      </trkpt>
      <trkpt lat="45.36164" lon="5.62187">
        <ele>387</ele>
        <time>2016-05-18T17:31:21Z</time>
      </trkpt>
      <trkpt lat="45.36185" lon="5.62184">
        <ele>389</ele>
        <time>2016-05-18T17:33:21Z</time>
      </trkpt>
      <trkpt lat="45.36203" lon="5.62184">
        <ele>391</ele>
        <time>2016-05-18T17:35:21Z</time>
      </trkpt>
      <trkpt lat="45.36219" lon="5.62182">
        <ele>393</ele>
        <time>2016-05-18T17:37:21Z</time>
      </trkpt>
      <trkpt lat="45.36237" lon="5.62176">
        <ele>393</ele>
        <time>2016-05-18T17:39:21Z</time>
      </trkpt>
      <trkpt lat="45.36261" lon="5.62165">
        <ele>393</ele>
        <time>2016-05-18T17:41:21Z</time>
      </trkpt>
      <trkpt lat="45.36276" lon="5.62159">
        <ele>394</ele>
        <time>2016-05-18T17:43:21Z</time>
      </trkpt>
      <trkpt lat="45.36287" lon="5.62158">
        <ele>395</ele>
        <time>2016-05-18T17:45:21Z</time>
      </trkpt>
      <trkpt lat="45.36315" lon="5.62158">
        <ele>397</ele>
        <time>2016-05-18T17:47:21Z</time>
      </trkpt>
      <trkpt lat="45.36332" lon="5.62158">
        <ele>399</ele>
        <time>2016-05-18T17:49:21Z</time>
      </trkpt>
      <trkpt lat="45.36355" lon="5.62154">
        <ele>401</ele>
        <time>2016-05-18T17:51:21Z</time>
      </trkpt>
      <trkpt lat="45.36371" lon="5.62147">
        <ele>402</ele>
        <time>2016-05-18T17:53:21Z</time>
      </trkpt>
      <trkpt lat="45.36387" lon="5.62138">
        <ele>402</ele>
        <time>2016-05-18T17:55:21Z</time>
      </trkpt>
      <trkpt lat="45.364" lon="5.62128">
        <ele>401</ele>
        <time>2016-05-18T17:57:21Z</time>
      </trkpt>
      <trkpt lat="45.36404" lon="5.62125">
        <ele>401</ele>
        <time>2016-05-18T17:59:21Z</time>
      </trkpt>
      <trkpt lat="45.36407" lon="5.62123">
        <ele>400</ele>
        <time>2016-05-18T18:01:21Z</time>
      </trkpt>
      <trkpt lat="45.36411" lon="5.62121">
        <ele>400</ele>
        <time>2016-05-18T18:03:21Z</time>
      </trkpt>
      <trkpt lat="45.36421" lon="5.62118">
        <ele>400</ele>
        <time>2016-05-18T18:05:21Z</time>
      </trkpt>
      <trkpt lat="45.36471" lon="5.62112">
        <ele>403</ele>
        <time>2016-05-18T18:07:21Z</time>
      </trkpt>
      <trkpt lat="45.36492" lon="5.6211">
        <ele>404</ele>
        <time>2016-05-18T18:09:21Z</time>
      </trkpt>
      <trkpt lat="45.36495" lon="5.62112">
        <ele>405</ele>
        <time>2016-05-18T18:11:21Z</time>
      </trkpt>
      <trkpt lat="45.36504" lon="5.62115">
        <ele>406</ele>
        <time>2016-05-18T18:13:21Z</time>
      </trkpt>
      <trkpt lat="45.36515" lon="5.62119">
        <ele>407</ele>
        <time>2016-05-18T18:15:21Z</time>
      </trkpt>
      <trkpt lat="45.36523" lon="5.62121">
        <ele>407</ele>
        <time>2016-05-18T18:17:21Z</time>
      </trkpt>
      <trkpt lat="45.36523" lon="5.62121">
        <ele>407</ele>
        <time>2016-05-18T18:19:21Z</time>
      </trkpt>
      <trkpt lat="45.36526" lon="5.62131">
        <ele>408</ele>
        <time>2016-05-18T18:21:21Z</time>
      </trkpt>
      <trkpt lat="45.36527" lon="5.62134">
        <ele>409</ele>
        <time>2016-05-18T18:23:21Z</time>
      </trkpt>
      <trkpt lat="45.36529" lon="5.62139">
        <ele>409</ele>
        <time>2016-05-18T18:25:21Z</time>
      </trkpt>
      <trkpt lat="45.36532" lon="5.62143">
        <ele>409</ele>
        <time>2016-05-18T18:27:21Z</time>
      </trkpt>
      <trkpt lat="45.36538" lon="5.62152">
        <ele>410</ele>
        <time>2016-05-18T18:29:21Z</time>
      </trkpt>
      <trkpt lat="45.36541" lon="5.62155">
        <ele>410</ele>
        <time>2016-05-18T18:31:21Z</time>
      </trkpt>
      <trkpt lat="45.36545" lon="5.62161">
        <ele>411</ele>
        <time>2016-05-18T18:33:21Z</time>
      </trkpt>
      <trkpt lat="45.36552" lon="5.62168">
        <ele>411</ele>
        <time>2016-05-18T18:35:21Z</time>
      </trkpt>
      <trkpt lat="45.36562" lon="5.62178">
        <ele>411</ele>
        <time>2016-05-18T18:37:21Z</time>
      </trkpt>
      <trkpt lat="45.36569" lon="5.62186">
        <ele>411</ele>
        <time>2016-05-18T18:39:21Z</time>
      </trkpt>
      <trkpt lat="45.36579" lon="5.62198">
        <ele>412</ele>
        <time>2016-05-18T18:41:21Z</time>
      </trkpt>
      <trkpt lat="45.36586" lon="5.62207">
        <ele>412</ele>
        <time>2016-05-18T18:43:21Z</time>
      </trkpt>
      <trkpt lat="45.36593" lon="5.62215">
        <ele>412</ele>
        <time>2016-05-18T18:45:21Z</time>
      </trkpt>
      <trkpt lat="45.36597" lon="5.62221">
        <ele>412</ele>
        <time>2016-05-18T18:47:21Z</time>
      </trkpt>
      <trkpt lat="45.36606" lon="5.62237">
        <ele>411</ele>
        <time>2016-05-18T18:49:21Z</time>
      </trkpt>
      <trkpt lat="45.36611" lon="5.62248">
        <ele>411</ele>
        <time>2016-05-18T18:51:21Z</time>
      </trkpt>
      <trkpt lat="45.36618" lon="5.62263">
        <ele>410</ele>
        <time>2016-05-18T18:53:21Z</time>
      </trkpt>
      <trkpt lat="45.36619" lon="5.62267">
        <ele>410</ele>
        <time>2016-05-18T18:55:21Z</time>
      </trkpt>
      <trkpt lat="45.36624" lon="5.6228">
        <ele>409</ele>
        <time>2016-05-18T18:57:21Z</time>
      </trkpt>
      <trkpt lat="45.3663" lon="5.62297">
        <ele>408</ele>
        <time>2016-05-18T18:59:21Z</time>
      </trkpt>
      <trkpt lat="45.36635" lon="5.62315">
        <ele>407</ele>
        <time>2016-05-18T19:01:21Z</time>
      </trkpt>
      <trkpt lat="45.36641" lon="5.62332">
        <ele>406</ele>
        <time>2016-05-18T19:03:21Z</time>
      </trkpt>
      <trkpt lat="45.36646" lon="5.62349">
        <ele>405</ele>
        <time>2016-05-18T19:05:21Z</time>
      </trkpt>
      <trkpt lat="45.36651" lon="5.62366">
        <ele>404</ele>
        <time>2016-05-18T19:07:21Z</time>
      </trkpt>
      <trkpt lat="45.36656" lon="5.62382">
        <ele>402</ele>
        <time>2016-05-18T19:09:21Z</time>
      </trkpt>
      <trkpt lat="45.36659" lon="5.6239">
        <ele>402</ele>
        <time>2016-05-18T19:11:21Z</time>
      </trkpt>
      <trkpt lat="45.3666" lon="5.62394">
        <ele>402</ele>
        <time>2016-05-18T19:13:21Z</time>
      </trkpt>
      <trkpt lat="45.36668" lon="5.62412">
        <ele>400</ele>
        <time>2016-05-18T19:15:21Z</time>
      </trkpt>
      <trkpt lat="45.36674" lon="5.62441">
        <ele>399</ele>
        <time>2016-05-18T19:17:21Z</time>
      </trkpt>
      <trkpt lat="45.36675" lon="5.62447">
        <ele>399</ele>
        <time>2016-05-18T19:19:21Z</time>
      </trkpt>
      <trkpt lat="45.36676" lon="5.62457">
        <ele>399</ele>
        <time>2016-05-18T19:21:21Z</time>
      </trkpt>
      <trkpt lat="45.36678" lon="5.62473">
        <ele>398</ele>
        <time>2016-05-18T19:23:21Z</time>
      </trkpt>
      <trkpt lat="45.3668" lon="5.62492">
        <ele>398</ele>
        <time>2016-05-18T19:25:21Z</time>
      </trkpt>
      <trkpt lat="45.36682" lon="5.62522">
        <ele>397</ele>
        <time>2016-05-18T19:27:21Z</time>
      </trkpt>
      <trkpt lat="45.36685" lon="5.6256">
        <ele>396</ele>
        <time>2016-05-18T19:29:21Z</time>
      </trkpt>
      <trkpt lat="45.36686" lon="5.62571">
        <ele>395</ele>
        <time>2016-05-18T19:31:21Z</time>
      </trkpt>
      <trkpt lat="45.36687" lon="5.62583">
        <ele>395</ele>
        <time>2016-05-18T19:33:21Z</time>
      </trkpt>
      <trkpt lat="45.36697" lon="5.62699">
        <ele>393</ele>
        <time>2016-05-18T19:35:21Z</time>
      </trkpt>
      <trkpt lat="45.36698" lon="5.62712">
        <ele>393</ele>
        <time>2016-05-18T19:37:21Z</time>
      </trkpt>
      <trkpt lat="45.3671" lon="5.62843">
        <ele>395</ele>
        <time>2016-05-18T19:39:21Z</time>
      </trkpt>
      <trkpt lat="45.36714" lon="5.62896">
        <ele>395</ele>
        <time>2016-05-18T19:41:21Z</time>
      </trkpt>
      <trkpt lat="45.36715" lon="5.62904">
        <ele>396</ele>
        <time>2016-05-18T19:43:21Z</time>
      </trkpt>
      <trkpt lat="45.3672" lon="5.62966">
        <ele>398</ele>
        <time>2016-05-18T19:45:21Z</time>
      </trkpt>
      <trkpt lat="45.3672" lon="5.62966">
        <ele>398</ele>
        <time>2016-05-18T19:47:21Z</time>
      </trkpt>
      <trkpt lat="45.36714" lon="5.62969">
        <ele>398</ele>
        <time>2016-05-18T19:49:21Z</time>
      </trkpt>
      <trkpt lat="45.36709" lon="5.62977">
        <ele>398</ele>
        <time>2016-05-18T19:51:21Z</time>
      </trkpt>
      <trkpt lat="45.36695" lon="5.63004">
        <ele>400</ele>
        <time>2016-05-18T19:53:21Z</time>
      </trkpt>
      <trkpt lat="45.3667" lon="5.63051">
        <ele>403</ele>
        <time>2016-05-18T19:55:21Z</time>
      </trkpt>
      <trkpt lat="45.3664" lon="5.63114">
        <ele>403</ele>
        <time>2016-05-18T19:57:21Z</time>
      </trkpt>
      <trkpt lat="45.36632" lon="5.63131">
        <ele>402</ele>
        <time>2016-05-18T19:59:21Z</time>
      </trkpt>
      <trkpt lat="45.36624" lon="5.63148">
        <ele>402</ele>
        <time>2016-05-18T20:01:21Z</time>
      </trkpt>
      <trkpt lat="45.36612" lon="5.63187">
        <ele>402</ele>
        <time>2016-05-18T20:03:21Z</time>
      </trkpt>
      <trkpt lat="45.36602" lon="5.63219">
        <ele>402</ele>
        <time>2016-05-18T20:05:21Z</time>
      </trkpt>
      <trkpt lat="45.36589" lon="5.63253">
        <ele>403</ele>
        <time>2016-05-18T20:07:21Z</time>
      </trkpt>
      <trkpt lat="45.36575" lon="5.63284">
        <ele>403</ele>
        <time>2016-05-18T20:09:21Z</time>
      </trkpt>
      <trkpt lat="45.36573" lon="5.63295">
        <ele>404</ele>
        <time>2016-05-18T20:11:21Z</time>
      </trkpt>
      <trkpt lat="45.3657" lon="5.63315">
        <ele>404</ele>
        <time>2016-05-18T20:13:21Z</time>
      </trkpt>
      <trkpt lat="45.36565" lon="5.63351">
        <ele>404</ele>
        <time>2016-05-18T20:15:21Z</time>
      </trkpt>
      <trkpt lat="45.36562" lon="5.6337">
        <ele>404</ele>
        <time>2016-05-18T20:17:21Z</time>
      </trkpt>
      <trkpt lat="45.36562" lon="5.6337">
        <ele>404</ele>
        <time>2016-05-18T20:19:21Z</time>
      </trkpt>
      <trkpt lat="45.36556" lon="5.63368">
        <ele>403</ele>
        <time>2016-05-18T20:21:21Z</time>
      </trkpt>
      <trkpt lat="45.36546" lon="5.63364">
        <ele>403</ele>
        <time>2016-05-18T20:23:21Z</time>
      </trkpt>
      <trkpt lat="45.36529" lon="5.6336">
        <ele>402</ele>
        <time>2016-05-18T20:25:21Z</time>
      </trkpt>
      <trkpt lat="45.36512" lon="5.6336">
        <ele>400</ele>
        <time>2016-05-18T20:27:21Z</time>
      </trkpt>
      <trkpt lat="45.36493" lon="5.63362">
        <ele>399</ele>
        <time>2016-05-18T20:29:21Z</time>
      </trkpt>
      <trkpt lat="45.36488" lon="5.63362">
        <ele>399</ele>
        <time>2016-05-18T20:31:21Z</time>
      </trkpt>
      <trkpt lat="45.36486" lon="5.63362">
        <ele>399</ele>
        <time>2016-05-18T20:33:21Z</time>
      </trkpt>
      <trkpt lat="45.36466" lon="5.63363">
        <ele>399</ele>
        <time>2016-05-18T20:35:21Z</time>
      </trkpt>
      <trkpt lat="45.36438" lon="5.63366">
        <ele>398</ele>
        <time>2016-05-18T20:37:21Z</time>
      </trkpt>
      <trkpt lat="45.3641" lon="5.63369">
        <ele>399</ele>
        <time>2016-05-18T20:39:21Z</time>
      </trkpt>
      <trkpt lat="45.36391" lon="5.63372">
        <ele>403</ele>
        <time>2016-05-18T20:41:21Z</time>
      </trkpt>
      <trkpt lat="45.3638" lon="5.63375">
        <ele>405</ele>
        <time>2016-05-18T20:43:21Z</time>
      </trkpt>
      <trkpt lat="45.36371" lon="5.63378">
        <ele>406</ele>
        <time>2016-05-18T20:45:21Z</time>
      </trkpt>
      <trkpt lat="45.36367" lon="5.63393">
        <ele>407</ele>
        <time>2016-05-18T20:47:21Z</time>
      </trkpt>
      <trkpt lat="45.36367" lon="5.63404">
        <ele>407</ele>
        <time>2016-05-18T20:49:21Z</time>
      </trkpt>
      <trkpt lat="45.36369" lon="5.63414">
        <ele>407</ele>
        <time>2016-05-18T20:51:21Z</time>
      </trkpt>
      <trkpt lat="45.36376" lon="5.63434">
        <ele>407</ele>
        <time>2016-05-18T20:53:21Z</time>
      </trkpt>
      <trkpt lat="45.3638" lon="5.63443">
        <ele>407</ele>
        <time>2016-05-18T20:55:21Z</time>
      </trkpt>
      <trkpt lat="45.36383" lon="5.63453">
        <ele>407</ele>
        <time>2016-05-18T20:57:21Z</time>
      </trkpt>
      <trkpt lat="45.36387" lon="5.63472">
        <ele>407</ele>
        <time>2016-05-18T20:59:21Z</time>
      </trkpt>
      <trkpt lat="45.3639" lon="5.63489">
        <ele>408</ele>
        <time>2016-05-18T21:01:21Z</time>
      </trkpt>
      <trkpt lat="45.36392" lon="5.63515">
        <ele>408</ele>
        <time>2016-05-18T21:03:21Z</time>
      </trkpt>
      <trkpt lat="45.36394" lon="5.63542">
        <ele>408</ele>
        <time>2016-05-18T21:05:21Z</time>
      </trkpt>
      <trkpt lat="45.36397" lon="5.63559">
        <ele>408</ele>
        <time>2016-05-18T21:07:21Z</time>
      </trkpt>
      <trkpt lat="45.36401" lon="5.63577">
        <ele>407</ele>
        <time>2016-05-18T21:09:21Z</time>
      </trkpt>
      <trkpt lat="45.36407" lon="5.63594">
        <ele>406</ele>
        <time>2016-05-18T21:11:21Z</time>
      </trkpt>
      <trkpt lat="45.36413" lon="5.6361">
        <ele>405</ele>
        <time>2016-05-18T21:13:21Z</time>
      </trkpt>
      <trkpt lat="45.36423" lon="5.63627">
        <ele>405</ele>
        <time>2016-05-18T21:15:21Z</time>
      </trkpt>
      <trkpt lat="45.36437" lon="5.63654">
        <ele>405</ele>
        <time>2016-05-18T21:17:21Z</time>
      </trkpt>
      <trkpt lat="45.36452" lon="5.63682">
        <ele>405</ele>
        <time>2016-05-18T21:19:21Z</time>
      </trkpt>
      <trkpt lat="45.36468" lon="5.63714">
        <ele>405</ele>
        <time>2016-05-18T21:21:21Z</time>
      </trkpt>
      <trkpt lat="45.36474" lon="5.63727">
        <ele>405</ele>
        <time>2016-05-18T21:23:21Z</time>
      </trkpt>
      <trkpt lat="45.36485" lon="5.63752">
        <ele>405</ele>
        <time>2016-05-18T21:25:21Z</time>
      </trkpt>
      <trkpt lat="45.36496" lon="5.63779">
        <ele>404</ele>
        <time>2016-05-18T21:27:21Z</time>
      </trkpt>
      <trkpt lat="45.36507" lon="5.63802">
        <ele>404</ele>
        <time>2016-05-18T21:29:21Z</time>
      </trkpt>
      <trkpt lat="45.3652" lon="5.63827">
        <ele>403</ele>
        <time>2016-05-18T21:31:21Z</time>
      </trkpt>
      <trkpt lat="45.36535" lon="5.63855">
        <ele>404</ele>
        <time>2016-05-18T21:33:21Z</time>
      </trkpt>
      <trkpt lat="45.36549" lon="5.63886">
        <ele>405</ele>
        <time>2016-05-18T21:35:21Z</time>
      </trkpt>
      <trkpt lat="45.36558" lon="5.63912">
        <ele>405</ele>
        <time>2016-05-18T21:37:21Z</time>
      </trkpt>
      <trkpt lat="45.36568" lon="5.63943">
        <ele>408</ele>
        <time>2016-05-18T21:39:21Z</time>
      </trkpt>
      <trkpt lat="45.36578" lon="5.63979">
        <ele>411</ele>
        <time>2016-05-18T21:41:21Z</time>
      </trkpt>
      <trkpt lat="45.36588" lon="5.64007">
        <ele>413</ele>
        <time>2016-05-18T21:43:21Z</time>
      </trkpt>
      <trkpt lat="45.366" lon="5.64036">
        <ele>416</ele>
        <time>2016-05-18T21:45:21Z</time>
      </trkpt>
      <trkpt lat="45.36612" lon="5.64072">
        <ele>417</ele>
        <time>2016-05-18T21:47:21Z</time>
      </trkpt>
      <trkpt lat="45.36618" lon="5.64095">
        <ele>418</ele>
        <time>2016-05-18T21:49:21Z</time>
      </trkpt>
      <trkpt lat="45.3662" lon="5.6411">
        <ele>419</ele>
        <time>2016-05-18T21:51:21Z</time>
      </trkpt>
      <trkpt lat="45.3662" lon="5.64132">
        <ele>422</ele>
        <time>2016-05-18T21:53:21Z</time>
      </trkpt>
      <trkpt lat="45.36621" lon="5.64152">
        <ele>424</ele>
        <time>2016-05-18T21:55:21Z</time>
      </trkpt>
      <trkpt lat="45.36626" lon="5.64181">
        <ele>425</ele>
        <time>2016-05-18T21:57:21Z</time>
      </trkpt>
      <trkpt lat="45.36635" lon="5.6423">
        <ele>427</ele>
        <time>2016-05-18T21:59:21Z</time>
      </trkpt>
      <trkpt lat="45.36644" lon="5.64272">
        <ele>428</ele>
        <time>2016-05-18T22:01:21Z</time>
      </trkpt>
      <trkpt lat="45.36651" lon="5.64294">
        <ele>428</ele>
        <time>2016-05-18T22:03:21Z</time>
      </trkpt>
      <trkpt lat="45.36658" lon="5.64309">
        <ele>426</ele>
        <time>2016-05-18T22:05:21Z</time>
      </trkpt>
      <trkpt lat="45.36664" lon="5.64319">
        <ele>424</ele>
        <time>2016-05-18T22:07:21Z</time>
      </trkpt>
      <trkpt lat="45.36675" lon="5.64333">
        <ele>424</ele>
        <time>2016-05-18T22:09:21Z</time>
      </trkpt>
      <trkpt lat="45.36687" lon="5.64344">
        <ele>423</ele>
        <time>2016-05-18T22:11:21Z</time>
      </trkpt>
      <trkpt lat="45.36701" lon="5.64356">
        <ele>422</ele>
        <time>2016-05-18T22:13:21Z</time>
      </trkpt>
      <trkpt lat="45.36715" lon="5.6437">
        <ele>421</ele>
        <time>2016-05-18T22:15:21Z</time>
      </trkpt>
      <trkpt lat="45.36728" lon="5.64386">
        <ele>420</ele>
        <time>2016-05-18T22:17:21Z</time>
      </trkpt>
      <trkpt lat="45.3674" lon="5.64405">
        <ele>420</ele>
        <time>2016-05-18T22:19:21Z</time>
      </trkpt>
      <trkpt lat="45.36749" lon="5.6442">
        <ele>419</ele>
        <time>2016-05-18T22:21:21Z</time>
      </trkpt>
      <trkpt lat="45.36754" lon="5.64433">
        <ele>420</ele>
        <time>2016-05-18T22:23:21Z</time>
      </trkpt>
      <trkpt lat="45.36757" lon="5.64439">
        <ele>420</ele>
        <time>2016-05-18T22:25:21Z</time>
      </trkpt>
      <trkpt lat="45.36759" lon="5.64446">
        <ele>420</ele>
        <time>2016-05-18T22:27:21Z</time>
      </trkpt>
      <trkpt lat="45.36768" lon="5.64466">
        <ele>420</ele>
        <time>2016-05-18T22:29:21Z</time>
      </trkpt>
      <trkpt lat="45.36778" lon="5.64488">
        <ele>420</ele>
        <time>2016-05-18T22:31:21Z</time>
      </trkpt>
      <trkpt lat="45.36787" lon="5.64501">
        <ele>420</ele>
        <time>2016-05-18T22:33:21Z</time>
      </trkpt>
      <trkpt lat="45.36798" lon="5.64512">
        <ele>421</ele>
        <time>2016-05-18T22:35:21Z</time>
      </trkpt>
      <trkpt lat="45.36815" lon="5.64526">
        <ele>421</ele>
        <time>2016-05-18T22:37:21Z</time>
      </trkpt>
      <trkpt lat="45.36838" lon="5.64544">
        <ele>419</ele>
        <time>2016-05-18T22:39:21Z</time>
      </trkpt>
      <trkpt lat="45.36859" lon="5.6456">
        <ele>420</ele>
        <time>2016-05-18T22:41:21Z</time>
      </trkpt>
      <trkpt lat="45.36873" lon="5.64572">
        <ele>420</ele>
        <time>2016-05-18T22:43:21Z</time>
      </trkpt>
      <trkpt lat="45.36885" lon="5.64584">
        <ele>421</ele>
        <time>2016-05-18T22:45:21Z</time>
      </trkpt>
      <trkpt lat="45.369" lon="5.64599">
        <ele>421</ele>
        <time>2016-05-18T22:47:21Z</time>
      </trkpt>
      <trkpt lat="45.36912" lon="5.64614">
        <ele>421</ele>
        <time>2016-05-18T22:49:21Z</time>
      </trkpt>
      <trkpt lat="45.36924" lon="5.64628">
        <ele>421</ele>
        <time>2016-05-18T22:51:21Z</time>
      </trkpt>
      <trkpt lat="45.36936" lon="5.64642">
        <ele>421</ele>
        <time>2016-05-18T22:53:21Z</time>
      </trkpt>
      <trkpt lat="45.36945" lon="5.64652">
        <ele>422</ele>
        <time>2016-05-18T22:55:21Z</time>
      </trkpt>
      <trkpt lat="45.36958" lon="5.64662">
        <ele>422</ele>
        <time>2016-05-18T22:57:21Z</time>
      </trkpt>
      <trkpt lat="45.36975" lon="5.64672">
        <ele>422</ele>
        <time>2016-05-18T22:59:21Z</time>
      </trkpt>
      <trkpt lat="45.36981" lon="5.64676">
        <ele>422</ele>
        <time>2016-05-18T23:01:21Z</time>
      </trkpt>
      <trkpt lat="45.3699" lon="5.64682">
        <ele>423</ele>
        <time>2016-05-18T23:03:21Z</time>
      </trkpt>
      <trkpt lat="45.37002" lon="5.6469">
        <ele>423</ele>
        <time>2016-05-18T23:05:21Z</time>
      </trkpt>
      <trkpt lat="45.3701" lon="5.64696">
        <ele>423</ele>
        <time>2016-05-18T23:07:21Z</time>
      </trkpt>
      <trkpt lat="45.37014" lon="5.647">
        <ele>424</ele>
        <time>2016-05-18T23:09:21Z</time>
      </trkpt>
      <trkpt lat="45.37017" lon="5.64702">
        <ele>424</ele>
        <time>2016-05-18T23:11:21Z</time>
      </trkpt>
      <trkpt lat="45.37025" lon="5.64711">
        <ele>425</ele>
        <time>2016-05-18T23:13:21Z</time>
      </trkpt>
      <trkpt lat="45.37033" lon="5.64722">
        <ele>426</ele>
        <time>2016-05-18T23:15:21Z</time>
      </trkpt>
      <trkpt lat="45.37036" lon="5.64727">
        <ele>427</ele>
        <time>2016-05-18T23:17:21Z</time>
      </trkpt>
      <trkpt lat="45.37039" lon="5.64733">
        <ele>428</ele>
        <time>2016-05-18T23:19:21Z</time>
      </trkpt>
      <trkpt lat="45.37046" lon="5.6474">
        <ele>428</ele>
        <time>2016-05-18T23:21:21Z</time>
      </trkpt>
      <trkpt lat="45.3706" lon="5.64754">
        <ele>430</ele>
        <time>2016-05-18T23:23:21Z</time>
      </trkpt>
      <trkpt lat="45.37074" lon="5.64766">
        <ele>431</ele>
        <time>2016-05-18T23:25:21Z</time>
      </trkpt>
      <trkpt lat="45.37085" lon="5.64778">
        <ele>431</ele>
        <time>2016-05-18T23:27:21Z</time>
      </trkpt>
      <trkpt lat="45.37101" lon="5.64797">
        <ele>432</ele>
        <time>2016-05-18T23:29:21Z</time>
      </trkpt>
      <trkpt lat="45.37115" lon="5.64813">
        <ele>432</ele>
        <time>2016-05-18T23:31:21Z</time>
      </trkpt>
      <trkpt lat="45.37127" lon="5.6483">
        <ele>432</ele>
        <time>2016-05-18T23:33:21Z</time>
      </trkpt>
      <trkpt lat="45.37134" lon="5.6484">
        <ele>432</ele>
        <time>2016-05-18T23:35:21Z</time>
      </trkpt>
      <trkpt lat="45.37134" lon="5.64841">
        <ele>432</ele>
        <time>2016-05-18T23:37:21Z</time>
      </trkpt>
      <trkpt lat="45.37139" lon="5.64851">
        <ele>432</ele>
        <time>2016-05-18T23:39:21Z</time>
      </trkpt>
      <trkpt lat="45.37142" lon="5.64857">
        <ele>432</ele>
        <time>2016-05-18T23:41:21Z</time>
      </trkpt>
      <trkpt lat="45.37158" lon="5.64885">
        <ele>432</ele>
        <time>2016-05-18T23:43:21Z</time>
      </trkpt>
      <trkpt lat="45.37162" lon="5.64894">
        <ele>432</ele>
        <time>2016-05-18T23:45:21Z</time>
      </trkpt>
      <trkpt lat="45.37179" lon="5.64925">
        <ele>433</ele>
        <time>2016-05-18T23:47:21Z</time>
      </trkpt>
      <trkpt lat="45.37189" lon="5.64951">
        <ele>433</ele>
        <time>2016-05-18T23:49:21Z</time>
      </trkpt>
      <trkpt lat="45.37207" lon="5.65001">
        <ele>433</ele>
        <time>2016-05-18T23:51:21Z</time>
      </trkpt>
      <trkpt lat="45.37215" lon="5.65025">
        <ele>433</ele>
        <time>2016-05-18T23:53:21Z</time>
      </trkpt>
      <trkpt lat="45.3722" lon="5.65034">
        <ele>433</ele>
        <time>2016-05-18T23:55:21Z</time>
      </trkpt>
      <trkpt lat="45.37227" lon="5.65044">
        <ele>433</ele>
        <time>2016-05-18T23:57:21Z</time>
      </trkpt>
      <trkpt lat="45.37235" lon="5.65051">
        <ele>433</ele>
        <time>2016-05-18T23:59:21Z</time>
      </trkpt>
      <trkpt lat="45.37243" lon="5.65062">
        <ele>432</ele>
        <time>2016-05-19T00:01:21Z</time>
      </trkpt>
      <trkpt lat="45.37249" lon="5.65074">
        <ele>432</ele>
        <time>2016-05-19T00:03:21Z</time>
      </trkpt>
      <trkpt lat="45.37254" lon="5.65088">
        <ele>432</ele>
        <time>2016-05-19T00:05:21Z</time>
      </trkpt>
      <trkpt lat="45.3726" lon="5.65111">
        <ele>431</ele>
        <time>2016-05-19T00:07:21Z</time>
      </trkpt>
      <trkpt lat="45.37272" lon="5.65155">
        <ele>431</ele>
        <time>2016-05-19T00:09:21Z</time>
      </trkpt>
      <trkpt lat="45.37277" lon="5.65186">
        <ele>431</ele>
        <time>2016-05-19T00:11:21Z</time>
      </trkpt>
      <trkpt lat="45.37282" lon="5.65211">
        <ele>431</ele>
        <time>2016-05-19T00:13:21Z</time>
      </trkpt>
      <trkpt lat="45.37284" lon="5.65216">
        <ele>431</ele>
        <time>2016-05-19T00:15:21Z</time>
      </trkpt>
      <trkpt lat="45.37288" lon="5.65231">
        <ele>431</ele>
        <time>2016-05-19T00:17:21Z</time>
      </trkpt>
      <trkpt lat="45.37305" lon="5.65286">
        <ele>432</ele>
        <time>2016-05-19T00:19:21Z</time>
      </trkpt>
      <trkpt lat="45.37316" lon="5.65323">
        <ele>434</ele>
        <time>2016-05-19T00:21:21Z</time>
      </trkpt>
      <trkpt lat="45.37322" lon="5.65346">
        <ele>436</ele>
        <time>2016-05-19T00:23:21Z</time>
      </trkpt>
      <trkpt lat="45.37326" lon="5.65367">
        <ele>437</ele>
        <time>2016-05-19T00:25:21Z</time>
      </trkpt>
      <trkpt lat="45.37332" lon="5.65399">
        <ele>438</ele>
        <time>2016-05-19T00:27:21Z</time>
      </trkpt>
      <trkpt lat="45.37338" lon="5.65432">
        <ele>438</ele>
        <time>2016-05-19T00:29:21Z</time>
      </trkpt>
      <trkpt lat="45.37343" lon="5.65461">
        <ele>436</ele>
        <time>2016-05-19T00:31:21Z</time>
      </trkpt>
      <trkpt lat="45.37347" lon="5.65495">
        <ele>435</ele>
        <time>2016-05-19T00:33:21Z</time>
      </trkpt>
      <trkpt lat="45.3735" lon="5.65528">
        <ele>436</ele>
        <time>2016-05-19T00:35:21Z</time>
      </trkpt>
      <trkpt lat="45.37354" lon="5.65554">
        <ele>437</ele>
        <time>2016-05-19T00:37:21Z</time>
      </trkpt>
      <trkpt lat="45.3736" lon="5.6558">
        <ele>437</ele>
        <time>2016-05-19T00:39:21Z</time>
      </trkpt>
      <trkpt lat="45.37368" lon="5.65618">
        <ele>437</ele>
        <time>2016-05-19T00:41:21Z</time>
      </trkpt>
      <trkpt lat="45.37377" lon="5.65658">
        <ele>437</ele>
        <time>2016-05-19T00:43:21Z</time>
      </trkpt>
      <trkpt lat="45.37383" lon="5.65686">
        <ele>438</ele>
        <time>2016-05-19T00:45:21Z</time>
      </trkpt>
      <trkpt lat="45.37386" lon="5.65695">
        <ele>439</ele>
        <time>2016-05-19T00:47:21Z</time>
      </trkpt>
      <trkpt lat="45.3739" lon="5.65701">
        <ele>438</ele>
        <time>2016-05-19T00:49:21Z</time>
      </trkpt>
      <trkpt lat="45.37393" lon="5.65705">
        <ele>438</ele>
        <time>2016-05-19T00:51:21Z</time>
      </trkpt>
      <trkpt lat="45.37396" lon="5.65707">
        <ele>437</ele>
        <time>2016-05-19T00:53:21Z</time>
      </trkpt>
      <trkpt lat="45.374" lon="5.65708">
        <ele>436</ele>
        <time>2016-05-19T00:55:21Z</time>
      </trkpt>
      <trkpt lat="45.374" lon="5.65708">
        <ele>436</ele>
        <time>2016-05-19T00:57:21Z</time>
      </trkpt>
      <trkpt lat="45.37396" lon="5.65721">
        <ele>440</ele>
        <time>2016-05-19T00:59:21Z</time>
      </trkpt>
      <trkpt lat="45.37394" lon="5.65725">
        <ele>442</ele>
        <time>2016-05-19T01:01:21Z</time>
      </trkpt>
      <trkpt lat="45.3739" lon="5.65731">
        <ele>444</ele>
        <time>2016-05-19T01:03:21Z</time>
      </trkpt>
      <trkpt lat="45.37387" lon="5.65736">
        <ele>446</ele>
        <time>2016-05-19T01:05:21Z</time>
      </trkpt>
      <trkpt lat="45.37382" lon="5.65746">
        <ele>449</ele>
        <time>2016-05-19T01:07:21Z</time>
      </trkpt>
      <trkpt lat="45.37379" lon="5.65752">
        <ele>451</ele>
        <time>2016-05-19T01:09:21Z</time>
      </trkpt>
      <trkpt lat="45.37376" lon="5.65759">
        <ele>452</ele>
        <time>2016-05-19T01:11:21Z</time>
      </trkpt>
      <trkpt lat="45.37374" lon="5.65767">
        <ele>453</ele>
        <time>2016-05-19T01:13:21Z</time>
      </trkpt>
      <trkpt lat="45.37371" lon="5.65775">
        <ele>454</ele>
        <time>2016-05-19T01:15:21Z</time>
      </trkpt>
      <trkpt lat="45.37367" lon="5.65786">
        <ele>454</ele>
        <time>2016-05-19T01:17:21Z</time>
      </trkpt>
      <trkpt lat="45.37363" lon="5.658">
        <ele>455</ele>
        <time>2016-05-19T01:19:21Z</time>
      </trkpt>
      <trkpt lat="45.37359" lon="5.65814">
        <ele>454</ele>
        <time>2016-05-19T01:21:21Z</time>
      </trkpt>
      <trkpt lat="45.37357" lon="5.65822">
        <ele>454</ele>
        <time>2016-05-19T01:23:21Z</time>
      </trkpt>
      <trkpt lat="45.37355" lon="5.65831">
        <ele>453</ele>
        <time>2016-05-19T01:25:21Z</time>
      </trkpt>
      <trkpt lat="45.37352" lon="5.65842">
        <ele>453</ele>
        <time>2016-05-19T01:27:21Z</time>
      </trkpt>
      <trkpt lat="45.37348" lon="5.65851">
        <ele>454</ele>
        <time>2016-05-19T01:29:21Z</time>
      </trkpt>
      <trkpt lat="45.37345" lon="5.6586">
        <ele>454</ele>
        <time>2016-05-19T01:31:21Z</time>
      </trkpt>
      <trkpt lat="45.37342" lon="5.6587">
        <ele>455</ele>
        <time>2016-05-19T01:33:21Z</time>
      </trkpt>
      <trkpt lat="45.37338" lon="5.65878">
        <ele>455</ele>
        <time>2016-05-19T01:35:21Z</time>
      </trkpt>
      <trkpt lat="45.37333" lon="5.65887">
        <ele>454</ele>
        <time>2016-05-19T01:37:21Z</time>
      </trkpt>
      <trkpt lat="45.37328" lon="5.65894">
        <ele>456</ele>
        <time>2016-05-19T01:39:21Z</time>
      </trkpt>
      <trkpt lat="45.37321" lon="5.65905">
        <ele>456</ele>
        <time>2016-05-19T01:41:21Z</time>
      </trkpt>
      <trkpt lat="45.37312" lon="5.65916">
        <ele>456</ele>
        <time>2016-05-19T01:43:21Z</time>
      </trkpt>
      <trkpt lat="45.37292" lon="5.65934">
        <ele>458</ele>
        <time>2016-05-19T01:45:21Z</time>
      </trkpt>
      <trkpt lat="45.37285" lon="5.6594">
        <ele>459</ele>
        <time>2016-05-19T01:47:21Z</time>
      </trkpt>
      <trkpt lat="45.37278" lon="5.65944">
        <ele>459</ele>
        <time>2016-05-19T01:49:21Z</time>
      </trkpt>
      <trkpt lat="45.37264" lon="5.65949">
        <ele>457</ele>
        <time>2016-05-19T01:51:21Z</time>
      </trkpt>
      <trkpt lat="45.37256" lon="5.65953">
        <ele>456</ele>
        <time>2016-05-19T01:53:21Z</time>
      </trkpt>
      <trkpt lat="45.37234" lon="5.65957">
        <ele>455</ele>
        <time>2016-05-19T01:55:21Z</time>
      </trkpt>
      <trkpt lat="45.37201" lon="5.65963">
        <ele>454</ele>
        <time>2016-05-19T01:57:21Z</time>
      </trkpt>
      <trkpt lat="45.37175" lon="5.65965">
        <ele>454</ele>
        <time>2016-05-19T01:59:21Z</time>
      </trkpt>
      <trkpt lat="45.37157" lon="5.65966">
        <ele>453</ele>
        <time>2016-05-19T02:01:21Z</time>
      </trkpt>
      <trkpt lat="45.37126" lon="5.65967">
        <ele>450</ele>
        <time>2016-05-19T02:03:21Z</time>
      </trkpt>
      <trkpt lat="45.37105" lon="5.65969">
        <ele>448</ele>
        <time>2016-05-19T02:05:21Z</time>
      </trkpt>
      <trkpt lat="45.37092" lon="5.65973">
        <ele>447</ele>
        <time>2016-05-19T02:07:21Z</time>
      </trkpt>
      <trkpt lat="45.37083" lon="5.65975">
        <ele>446</ele>
        <time>2016-05-19T02:09:21Z</time>
      </trkpt>
      <trkpt lat="45.37076" lon="5.65979">
        <ele>447</ele>
        <time>2016-05-19T02:11:21Z</time>
      </trkpt>
      <trkpt lat="45.37072" lon="5.65982">
        <ele>447</ele>
        <time>2016-05-19T02:13:21Z</time>
      </trkpt>
      <trkpt lat="45.37067" lon="5.65988">
        <ele>448</ele>
        <time>2016-05-19T02:15:21Z</time>
      </trkpt>
      <trkpt lat="45.37057" lon="5.66001">
        <ele>448</ele>
        <time>2016-05-19T02:17:21Z</time>
      </trkpt>
      <trkpt lat="45.37048" lon="5.66015">
        <ele>450</ele>
        <time>2016-05-19T02:19:21Z</time>
      </trkpt>
      <trkpt lat="45.37036" lon="5.66035">
        <ele>454</ele>
        <time>2016-05-19T02:21:21Z</time>
      </trkpt>
      <trkpt lat="45.37029" lon="5.66049">
        <ele>457</ele>
        <time>2016-05-19T02:23:21Z</time>
      </trkpt>
      <trkpt lat="45.37023" lon="5.66058">
        <ele>459</ele>
        <time>2016-05-19T02:25:21Z</time>
      </trkpt>
      <trkpt lat="45.37017" lon="5.66069">
        <ele>462</ele>
        <time>2016-05-19T02:27:21Z</time>
      </trkpt>
      <trkpt lat="45.37013" lon="5.66078">
        <ele>464</ele>
        <time>2016-05-19T02:29:21Z</time>
      </trkpt>
      <trkpt lat="45.37009" lon="5.66088">
        <ele>465</ele>
        <time>2016-05-19T02:31:21Z</time>
      </trkpt>
      <trkpt lat="45.37004" lon="5.66103">
        <ele>465</ele>
        <time>2016-05-19T02:33:21Z</time>
      </trkpt>
      <trkpt lat="45.36994" lon="5.66133">
        <ele>469</ele>
        <time>2016-05-19T02:35:21Z</time>
      </trkpt>
      <trkpt lat="45.36974" lon="5.66187">
        <ele>474</ele>
        <time>2016-05-19T02:37:21Z</time>
      </trkpt>
      <trkpt lat="45.36955" lon="5.66238">
        <ele>478</ele>
        <time>2016-05-19T02:39:21Z</time>
      </trkpt>
      <trkpt lat="45.36944" lon="5.66276">
        <ele>481</ele>
        <time>2016-05-19T02:41:21Z</time>
      </trkpt>
      <trkpt lat="45.36933" lon="5.66312">
        <ele>481</ele>
        <time>2016-05-19T02:43:21Z</time>
      </trkpt>
      <trkpt lat="45.36928" lon="5.66325">
        <ele>481</ele>
        <time>2016-05-19T02:45:21Z</time>
      </trkpt>
      <trkpt lat="45.36922" lon="5.66336">
        <ele>481</ele>
        <time>2016-05-19T02:47:21Z</time>
      </trkpt>
      <trkpt lat="45.36914" lon="5.66347">
        <ele>481</ele>
        <time>2016-05-19T02:49:21Z</time>
      </trkpt>
      <trkpt lat="45.36909" lon="5.66354">
        <ele>483</ele>
        <time>2016-05-19T02:51:21Z</time>
      </trkpt>
      <trkpt lat="45.36901" lon="5.66366">
        <ele>484</ele>
        <time>2016-05-19T02:53:21Z</time>
      </trkpt>
      <trkpt lat="45.36898" lon="5.6637">
        <ele>485</ele>
        <time>2016-05-19T02:55:21Z</time>
      </trkpt>
      <trkpt lat="45.36898" lon="5.6637">
        <ele>485</ele>
        <time>2016-05-19T02:57:21Z</time>
      </trkpt>
      <trkpt lat="45.36893" lon="5.6638">
        <ele>484</ele>
        <time>2016-05-19T02:59:21Z</time>
      </trkpt>
      <trkpt lat="45.36889" lon="5.66389">
        <ele>483</ele>
        <time>2016-05-19T03:01:21Z</time>
      </trkpt>
      <trkpt lat="45.36885" lon="5.66397">
        <ele>482</ele>
        <time>2016-05-19T03:03:21Z</time>
      </trkpt>
      <trkpt lat="45.36866" lon="5.66423">
        <ele>480</ele>
        <time>2016-05-19T03:05:21Z</time>
      </trkpt>
      <trkpt lat="45.36866" lon="5.66423">
        <ele>480</ele>
        <time>2016-05-19T03:07:21Z</time>
      </trkpt>
      <trkpt lat="45.36841" lon="5.66403">
        <ele>485</ele>
        <time>2016-05-19T03:09:21Z</time>
      </trkpt>
      <trkpt lat="45.36815" lon="5.66375">
        <ele>518</ele>
        <time>2016-05-19T03:11:21Z</time>
      </trkpt>
      <trkpt lat="45.3679" lon="5.66352">
        <ele>570</ele>
        <time>2016-05-19T03:13:21Z</time>
      </trkpt>
      <trkpt lat="45.36781" lon="5.66343">
        <ele>594</ele>
        <time>2016-05-19T03:15:21Z</time>
      </trkpt>
      <trkpt lat="45.36766" lon="5.66333">
        <ele>631</ele>
        <time>2016-05-19T03:17:21Z</time>
      </trkpt>
      <trkpt lat="45.36755" lon="5.66329">
        <ele>649</ele>
        <time>2016-05-19T03:19:21Z</time>
      </trkpt>
      <trkpt lat="45.36739" lon="5.66328">
        <ele>653</ele>
        <time>2016-05-19T03:21:21Z</time>
      </trkpt>
      <trkpt lat="45.36724" lon="5.66332">
        <ele>650</ele>
        <time>2016-05-19T03:23:21Z</time>
      </trkpt>
      <trkpt lat="45.36707" lon="5.66342">
        <ele>632</ele>
        <time>2016-05-19T03:25:21Z</time>
      </trkpt>
      <trkpt lat="45.36675" lon="5.66362">
        <ele>599</ele>
        <time>2016-05-19T03:27:21Z</time>
      </trkpt>
      <trkpt lat="45.36594" lon="5.66407">
        <ele>611</ele>
        <time>2016-05-19T03:29:21Z</time>
      </trkpt>
      <trkpt lat="45.36529" lon="5.66451">
        <ele>607</ele>
        <time>2016-05-19T03:31:21Z</time>
      </trkpt>
      <trkpt lat="45.36515" lon="5.66459">
        <ele>612</ele>
        <time>2016-05-19T03:33:21Z</time>
      </trkpt>
      <trkpt lat="45.36502" lon="5.66464">
        <ele>619</ele>
        <time>2016-05-19T03:35:21Z</time>
      </trkpt>
      <trkpt lat="45.36491" lon="5.66467">
        <ele>622</ele>
        <time>2016-05-19T03:37:21Z</time>
      </trkpt>
      <trkpt lat="45.36472" lon="5.66474">
        <ele>624</ele>
        <time>2016-05-19T03:39:21Z</time>
      </trkpt>
      <trkpt lat="45.36463" lon="5.66478">
        <ele>625</ele>
        <time>2016-05-19T03:41:21Z</time>
      </trkpt>
      <trkpt lat="45.36458" lon="5.66482">
        <ele>625</ele>
        <time>2016-05-19T03:43:21Z</time>
      </trkpt>
      <trkpt lat="45.36451" lon="5.66489">
        <ele>625</ele>
        <time>2016-05-19T03:45:21Z</time>
      </trkpt>
      <trkpt lat="45.36383" lon="5.66588">
        <ele>544</ele>
        <time>2016-05-19T03:47:21Z</time>
      </trkpt>
      <trkpt lat="45.36362" lon="5.66621">
        <ele>530</ele>
        <time>2016-05-19T03:49:21Z</time>
      </trkpt>
      <trkpt lat="45.36349" lon="5.66635">
        <ele>521</ele>
        <time>2016-05-19T03:51:21Z</time>
      </trkpt>
      <trkpt lat="45.36341" lon="5.66643">
        <ele>515</ele>
        <time>2016-05-19T03:53:21Z</time>
      </trkpt>
      <trkpt lat="45.3633" lon="5.66653">
        <ele>509</ele>
        <time>2016-05-19T03:55:21Z</time>
      </trkpt>
      <trkpt lat="45.36319" lon="5.66659">
        <ele>511</ele>
        <time>2016-05-19T03:57:21Z</time>
      </trkpt>
      <trkpt lat="45.36302" lon="5.66661">
        <ele>519</ele>
        <time>2016-05-19T03:59:21Z</time>
      </trkpt>
      <trkpt lat="45.36279" lon="5.66661">
        <ele>530</ele>
        <time>2016-05-19T04:01:21Z</time>
      </trkpt>
      <trkpt lat="45.36261" lon="5.66661">
        <ele>539</ele>
        <time>2016-05-19T04:03:21Z</time>
      </trkpt>
      <trkpt lat="45.36246" lon="5.66663">
        <ele>545</ele>
        <time>2016-05-19T04:05:21Z</time>
      </trkpt>
      <trkpt lat="45.36235" lon="5.6667">
        <ele>550</ele>
        <time>2016-05-19T04:07:21Z</time>
      </trkpt>
      <trkpt lat="45.36228" lon="5.66676">
        <ele>554</ele>
        <time>2016-05-19T04:09:21Z</time>
      </trkpt>
      <trkpt lat="45.36223" lon="5.6668">
        <ele>556</ele>
        <time>2016-05-19T04:11:21Z</time>
      </trkpt>
      <trkpt lat="45.36218" lon="5.66687">
        <ele>558</ele>
        <time>2016-05-19T04:13:21Z</time>
      </trkpt>
      <trkpt lat="45.36214" lon="5.66695">
        <ele>559</ele>
        <time>2016-05-19T04:15:21Z</time>
      </trkpt>
      <trkpt lat="45.36213" lon="5.66696">
        <ele>559</ele>
        <time>2016-05-19T04:17:21Z</time>
      </trkpt>
      <trkpt lat="45.36209" lon="5.66706">
        <ele>559</ele>
        <time>2016-05-19T04:19:21Z</time>
      </trkpt>
      <trkpt lat="45.36206" lon="5.66716">
        <ele>558</ele>
        <time>2016-05-19T04:21:21Z</time>
      </trkpt>
      <trkpt lat="45.36204" lon="5.66725">
        <ele>557</ele>
        <time>2016-05-19T04:23:21Z</time>
      </trkpt>
      <trkpt lat="45.36202" lon="5.66735">
        <ele>555</ele>
        <time>2016-05-19T04:25:21Z</time>
      </trkpt>
      <trkpt lat="45.36204" lon="5.66805">
        <ele>540</ele>
        <time>2016-05-19T04:27:21Z</time>
      </trkpt>
      <trkpt lat="45.36207" lon="5.6694">
        <ele>514</ele>
        <time>2016-05-19T04:29:21Z</time>
      </trkpt>
      <trkpt lat="45.36207" lon="5.6695">
        <ele>514</ele>
        <time>2016-05-19T04:31:21Z</time>
      </trkpt>
      <trkpt lat="45.36206" lon="5.66958">
        <ele>513</ele>
        <time>2016-05-19T04:33:21Z</time>
      </trkpt>
      <trkpt lat="45.36205" lon="5.66966">
        <ele>513</ele>
        <time>2016-05-19T04:35:21Z</time>
      </trkpt>
      <trkpt lat="45.36203" lon="5.66975">
        <ele>511</ele>
        <time>2016-05-19T04:37:21Z</time>
      </trkpt>
      <trkpt lat="45.362" lon="5.66984">
        <ele>510</ele>
        <time>2016-05-19T04:39:21Z</time>
      </trkpt>
      <trkpt lat="45.36197" lon="5.66991">
        <ele>508</ele>
        <time>2016-05-19T04:41:21Z</time>
      </trkpt>
      <trkpt lat="45.36193" lon="5.66999">
        <ele>505</ele>
        <time>2016-05-19T04:43:21Z</time>
      </trkpt>
      <trkpt lat="45.36187" lon="5.67008">
        <ele>503</ele>
        <time>2016-05-19T04:45:21Z</time>
      </trkpt>
      <trkpt lat="45.36184" lon="5.67012">
        <ele>502</ele>
        <time>2016-05-19T04:47:21Z</time>
      </trkpt>
      <trkpt lat="45.36181" lon="5.67015">
        <ele>501</ele>
        <time>2016-05-19T04:49:21Z</time>
      </trkpt>
      <trkpt lat="45.36174" lon="5.67021">
        <ele>499</ele>
        <time>2016-05-19T04:51:21Z</time>
      </trkpt>
      <trkpt lat="45.36166" lon="5.67028">
        <ele>496</ele>
        <time>2016-05-19T04:53:21Z</time>
      </trkpt>
      <trkpt lat="45.36151" lon="5.67043">
        <ele>503</ele>
        <time>2016-05-19T04:55:21Z</time>
      </trkpt>
      <trkpt lat="45.36141" lon="5.67056">
        <ele>507</ele>
        <time>2016-05-19T04:57:21Z</time>
      </trkpt>
      <trkpt lat="45.36131" lon="5.67072">
        <ele>509</ele>
        <time>2016-05-19T04:59:21Z</time>
      </trkpt>
      <trkpt lat="45.36117" lon="5.67102">
        <ele>510</ele>
        <time>2016-05-19T05:01:21Z</time>
      </trkpt>
      <trkpt lat="45.36072" lon="5.67205">
        <ele>496</ele>
        <time>2016-05-19T05:03:21Z</time>
      </trkpt>
      <trkpt lat="45.36061" lon="5.67231">
        <ele>492</ele>
        <time>2016-05-19T05:05:21Z</time>
      </trkpt>
      <trkpt lat="45.36058" lon="5.67239">
        <ele>491</ele>
        <time>2016-05-19T05:07:21Z</time>
      </trkpt>
      <trkpt lat="45.36057" lon="5.67246">
        <ele>489</ele>
        <time>2016-05-19T05:09:21Z</time>
      </trkpt>
      <trkpt lat="45.36056" lon="5.67256">
        <ele>488</ele>
        <time>2016-05-19T05:11:21Z</time>
      </trkpt>
      <trkpt lat="45.36056" lon="5.67265">
        <ele>487</ele>
        <time>2016-05-19T05:13:21Z</time>
      </trkpt>
      <trkpt lat="45.36056" lon="5.67274">
        <ele>486</ele>
        <time>2016-05-19T05:15:21Z</time>
      </trkpt>
      <trkpt lat="45.36056" lon="5.67285">
        <ele>485</ele>
        <time>2016-05-19T05:17:21Z</time>
      </trkpt>
      <trkpt lat="45.36057" lon="5.67295">
        <ele>484</ele>
        <time>2016-05-19T05:19:21Z</time>
      </trkpt>
      <trkpt lat="45.36059" lon="5.67303">
        <ele>483</ele>
        <time>2016-05-19T05:21:21Z</time>
      </trkpt>
      <trkpt lat="45.3606" lon="5.67309">
        <ele>482</ele>
        <time>2016-05-19T05:23:21Z</time>
      </trkpt>
      <trkpt lat="45.36062" lon="5.67316">
        <ele>482</ele>
        <time>2016-05-19T05:25:21Z</time>
      </trkpt>
      <trkpt lat="45.36064" lon="5.67321">
        <ele>481</ele>
        <time>2016-05-19T05:27:21Z</time>
      </trkpt>
      <trkpt lat="45.36067" lon="5.67326">
        <ele>481</ele>
        <time>2016-05-19T05:29:21Z</time>
      </trkpt>
      <trkpt lat="45.3607" lon="5.67331">
        <ele>480</ele>
        <time>2016-05-19T05:31:21Z</time>
      </trkpt>
      <trkpt lat="45.36074" lon="5.67336">
        <ele>479</ele>
        <time>2016-05-19T05:33:21Z</time>
      </trkpt>
      <trkpt lat="45.36077" lon="5.6734">
        <ele>478</ele>
        <time>2016-05-19T05:35:21Z</time>
      </trkpt>
      <trkpt lat="45.36085" lon="5.67348">
        <ele>477</ele>
        <time>2016-05-19T05:37:21Z</time>
      </trkpt>
      <trkpt lat="45.36104" lon="5.67365">
        <ele>479</ele>
        <time>2016-05-19T05:39:21Z</time>
      </trkpt>
      <trkpt lat="45.36122" lon="5.67383">
        <ele>479</ele>
        <time>2016-05-19T05:41:21Z</time>
      </trkpt>
      <trkpt lat="45.36141" lon="5.67403">
        <ele>479</ele>
        <time>2016-05-19T05:43:21Z</time>
      </trkpt>
      <trkpt lat="45.36144" lon="5.67408">
        <ele>478</ele>
        <time>2016-05-19T05:45:21Z</time>
      </trkpt>
      <trkpt lat="45.36149" lon="5.67418">
        <ele>477</ele>
        <time>2016-05-19T05:47:21Z</time>
      </trkpt>
      <trkpt lat="45.36157" lon="5.67435">
        <ele>474</ele>
        <time>2016-05-19T05:49:21Z</time>
      </trkpt>
      <trkpt lat="45.36164" lon="5.67445">
        <ele>472</ele>
        <time>2016-05-19T05:51:21Z</time>
      </trkpt>
      <trkpt lat="45.36168" lon="5.67451">
        <ele>471</ele>
        <time>2016-05-19T05:53:21Z</time>
      </trkpt>
      <trkpt lat="45.36171" lon="5.67454">
        <ele>470</ele>
        <time>2016-05-19T05:55:21Z</time>
      </trkpt>
      <trkpt lat="45.3618" lon="5.67463">
        <ele>469</ele>
        <time>2016-05-19T05:57:21Z</time>
      </trkpt>
      <trkpt lat="45.36187" lon="5.67469">
        <ele>468</ele>
        <time>2016-05-19T05:59:21Z</time>
      </trkpt>
      <trkpt lat="45.36193" lon="5.67475">
        <ele>467</ele>
        <time>2016-05-19T06:01:21Z</time>
      </trkpt>
      <trkpt lat="45.36201" lon="5.6748">
        <ele>467</ele>
        <time>2016-05-19T06:03:21Z</time>
      </trkpt>
      <trkpt lat="45.36208" lon="5.67482">
        <ele>467</ele>
        <time>2016-05-19T06:05:21Z</time>
      </trkpt>
      <trkpt lat="45.36216" lon="5.67484">
        <ele>468</ele>
        <time>2016-05-19T06:07:21Z</time>
      </trkpt>
      <trkpt lat="45.36225" lon="5.67487">
        <ele>468</ele>
        <time>2016-05-19T06:09:21Z</time>
      </trkpt>
      <trkpt lat="45.36232" lon="5.67489">
        <ele>469</ele>
        <time>2016-05-19T06:11:21Z</time>
      </trkpt>
      <trkpt lat="45.36247" lon="5.67494">
        <ele>469</ele>
        <time>2016-05-19T06:13:21Z</time>
      </trkpt>
      <trkpt lat="45.36255" lon="5.67496">
        <ele>470</ele>
        <time>2016-05-19T06:15:21Z</time>
      </trkpt>
      <trkpt lat="45.36259" lon="5.67498">
        <ele>470</ele>
        <time>2016-05-19T06:17:21Z</time>
      </trkpt>
      <trkpt lat="45.36261" lon="5.675">
        <ele>469</ele>
        <time>2016-05-19T06:19:21Z</time>
      </trkpt>
      <trkpt lat="45.36268" lon="5.67505">
        <ele>469</ele>
        <time>2016-05-19T06:21:21Z</time>
      </trkpt>
      <trkpt lat="45.36275" lon="5.6751">
        <ele>469</ele>
        <time>2016-05-19T06:23:21Z</time>
      </trkpt>
      <trkpt lat="45.36281" lon="5.67516">
        <ele>469</ele>
        <time>2016-05-19T06:25:21Z</time>
      </trkpt>
      <trkpt lat="45.36287" lon="5.67523">
        <ele>468</ele>
        <time>2016-05-19T06:27:21Z</time>
      </trkpt>
      <trkpt lat="45.36293" lon="5.67531">
        <ele>467</ele>
        <time>2016-05-19T06:29:21Z</time>
      </trkpt>
      <trkpt lat="45.36298" lon="5.67538">
        <ele>466</ele>
        <time>2016-05-19T06:31:21Z</time>
      </trkpt>
      <trkpt lat="45.36304" lon="5.67545">
        <ele>465</ele>
        <time>2016-05-19T06:33:21Z</time>
      </trkpt>
      <trkpt lat="45.3631" lon="5.67552">
        <ele>464</ele>
        <time>2016-05-19T06:35:21Z</time>
      </trkpt>
      <trkpt lat="45.36316" lon="5.67558">
        <ele>463</ele>
        <time>2016-05-19T06:37:21Z</time>
      </trkpt>
      <trkpt lat="45.36322" lon="5.67565">
        <ele>462</ele>
        <time>2016-05-19T06:39:21Z</time>
      </trkpt>
      <trkpt lat="45.36327" lon="5.67571">
        <ele>461</ele>
        <time>2016-05-19T06:41:21Z</time>
      </trkpt>
      <trkpt lat="45.36333" lon="5.67577">
        <ele>460</ele>
        <time>2016-05-19T06:43:21Z</time>
      </trkpt>
      <trkpt lat="45.36338" lon="5.67583">
        <ele>459</ele>
        <time>2016-05-19T06:45:21Z</time>
      </trkpt>
      <trkpt lat="45.36344" lon="5.67589">
        <ele>459</ele>
        <time>2016-05-19T06:47:21Z</time>
      </trkpt>
      <trkpt lat="45.36348" lon="5.67596">
        <ele>458</ele>
        <time>2016-05-19T06:49:21Z</time>
      </trkpt>
      <trkpt lat="45.3635" lon="5.676">
        <ele>457</ele>
        <time>2016-05-19T06:51:21Z</time>
      </trkpt>
      <trkpt lat="45.36352" lon="5.67604">
        <ele>457</ele>
        <time>2016-05-19T06:53:21Z</time>
      </trkpt>
      <trkpt lat="45.36353" lon="5.67607">
        <ele>456</ele>
        <time>2016-05-19T06:55:21Z</time>
      </trkpt>
      <trkpt lat="45.36355" lon="5.67611">
        <ele>455</ele>
        <time>2016-05-19T06:57:21Z</time>
      </trkpt>
      <trkpt lat="45.36356" lon="5.67618">
        <ele>454</ele>
        <time>2016-05-19T06:59:21Z</time>
      </trkpt>
      <trkpt lat="45.36357" lon="5.67623">
        <ele>453</ele>
        <time>2016-05-19T07:01:21Z</time>
      </trkpt>
      <trkpt lat="45.36358" lon="5.67634">
        <ele>451</ele>
        <time>2016-05-19T07:03:21Z</time>
      </trkpt>
      <trkpt lat="45.36358" lon="5.67644">
        <ele>448</ele>
        <time>2016-05-19T07:05:21Z</time>
      </trkpt>
      <trkpt lat="45.36357" lon="5.67655">
        <ele>446</ele>
        <time>2016-05-19T07:07:21Z</time>
      </trkpt>
      <trkpt lat="45.36356" lon="5.67667">
        <ele>443</ele>
        <time>2016-05-19T07:09:21Z</time>
      </trkpt>
      <trkpt lat="45.36354" lon="5.6768">
        <ele>442</ele>
        <time>2016-05-19T07:11:21Z</time>
      </trkpt>
      <trkpt lat="45.3635" lon="5.67695">
        <ele>441</ele>
        <time>2016-05-19T07:13:21Z</time>
      </trkpt>
      <trkpt lat="45.3632" lon="5.67807">
        <ele>440</ele>
        <time>2016-05-19T07:15:21Z</time>
      </trkpt>
      <trkpt lat="45.36318" lon="5.67812">
        <ele>441</ele>
        <time>2016-05-19T07:17:21Z</time>
      </trkpt>
      <trkpt lat="45.36315" lon="5.67819">
        <ele>441</ele>
        <time>2016-05-19T07:19:21Z</time>
      </trkpt>
      <trkpt lat="45.36286" lon="5.67918">
        <ele>442</ele>
        <time>2016-05-19T07:21:21Z</time>
      </trkpt>
      <trkpt lat="45.36278" lon="5.67954">
        <ele>442</ele>
        <time>2016-05-19T07:23:21Z</time>
      </trkpt>
      <trkpt lat="45.36277" lon="5.6796">
        <ele>442</ele>
        <time>2016-05-19T07:25:21Z</time>
      </trkpt>
      <trkpt lat="45.36276" lon="5.67963">
        <ele>442</ele>
        <time>2016-05-19T07:27:21Z</time>
      </trkpt>
      <trkpt lat="45.36276" lon="5.67968">
        <ele>442</ele>
        <time>2016-05-19T07:29:21Z</time>
      </trkpt>
      <trkpt lat="45.36276" lon="5.67974">
        <ele>441</ele>
        <time>2016-05-19T07:31:21Z</time>
      </trkpt>
      <trkpt lat="45.36276" lon="5.6798">
        <ele>441</ele>
        <time>2016-05-19T07:33:21Z</time>
      </trkpt>
      <trkpt lat="45.36276" lon="5.67983">
        <ele>441</ele>
        <time>2016-05-19T07:35:21Z</time>
      </trkpt>
      <trkpt lat="45.36277" lon="5.67987">
        <ele>441</ele>
        <time>2016-05-19T07:37:21Z</time>
      </trkpt>
      <trkpt lat="45.36278" lon="5.67994">
        <ele>441</ele>
        <time>2016-05-19T07:39:21Z</time>
      </trkpt>
      <trkpt lat="45.36279" lon="5.68001">
        <ele>441</ele>
        <time>2016-05-19T07:41:21Z</time>
      </trkpt>
      <trkpt lat="45.36284" lon="5.68016">
        <ele>441</ele>
        <time>2016-05-19T07:43:21Z</time>
      </trkpt>
      <trkpt lat="45.36292" lon="5.68039">
        <ele>441</ele>
        <time>2016-05-19T07:45:21Z</time>
      </trkpt>
      <trkpt lat="45.36306" lon="5.68076">
        <ele>442</ele>
        <time>2016-05-19T07:47:21Z</time>
      </trkpt>
      <trkpt lat="45.36311" lon="5.68088">
        <ele>442</ele>
        <time>2016-05-19T07:49:21Z</time>
      </trkpt>
      <trkpt lat="45.36315" lon="5.68095">
        <ele>442</ele>
        <time>2016-05-19T07:51:21Z</time>
      </trkpt>
      <trkpt lat="45.36324" lon="5.6812">
        <ele>441</ele>
        <time>2016-05-19T07:53:21Z</time>
      </trkpt>
      <trkpt lat="45.36329" lon="5.68129">
        <ele>441</ele>
        <time>2016-05-19T07:55:21Z</time>
      </trkpt>
      <trkpt lat="45.36333" lon="5.68139">
        <ele>441</ele>
        <time>2016-05-19T07:57:21Z</time>
      </trkpt>
      <trkpt lat="45.36338" lon="5.68148">
        <ele>440</ele>
        <time>2016-05-19T07:59:21Z</time>
      </trkpt>
      <trkpt lat="45.3634" lon="5.68153">
        <ele>440</ele>
        <time>2016-05-19T08:01:21Z</time>
      </trkpt>
      <trkpt lat="45.36343" lon="5.68157">
        <ele>440</ele>
        <time>2016-05-19T08:03:21Z</time>
      </trkpt>
      <trkpt lat="45.36346" lon="5.68162">
        <ele>440</ele>
        <time>2016-05-19T08:05:21Z</time>
      </trkpt>
      <trkpt lat="45.36348" lon="5.68166">
        <ele>440</ele>
        <time>2016-05-19T08:07:21Z</time>
      </trkpt>
      <trkpt lat="45.36354" lon="5.68174">
        <ele>439</ele>
        <time>2016-05-19T08:09:21Z</time>
      </trkpt>
      <trkpt lat="45.3636" lon="5.68182">
        <ele>439</ele>
        <time>2016-05-19T08:11:21Z</time>
      </trkpt>
      <trkpt lat="45.36367" lon="5.68189">
        <ele>439</ele>
        <time>2016-05-19T08:13:21Z</time>
      </trkpt>
      <trkpt lat="45.36373" lon="5.68196">
        <ele>439</ele>
        <time>2016-05-19T08:15:21Z</time>
      </trkpt>
      <trkpt lat="45.36386" lon="5.6821">
        <ele>438</ele>
        <time>2016-05-19T08:17:21Z</time>
      </trkpt>
      <trkpt lat="45.36406" lon="5.68231">
        <ele>438</ele>
        <time>2016-05-19T08:19:21Z</time>
      </trkpt>
      <trkpt lat="45.36426" lon="5.68252">
        <ele>437</ele>
        <time>2016-05-19T08:21:21Z</time>
      </trkpt>
      <trkpt lat="45.36451" lon="5.68279">
        <ele>435</ele>
        <time>2016-05-19T08:23:21Z</time>
      </trkpt>
      <trkpt lat="45.36457" lon="5.68285">
        <ele>435</ele>
        <time>2016-05-19T08:25:21Z</time>
      </trkpt>
      <trkpt lat="45.36463" lon="5.68292">
        <ele>435</ele>
        <time>2016-05-19T08:27:21Z</time>
      </trkpt>
      <trkpt lat="45.3648" lon="5.6831">
        <ele>434</ele>
        <time>2016-05-19T08:29:21Z</time>
      </trkpt>
      <trkpt lat="45.36502" lon="5.68334">
        <ele>434</ele>
        <time>2016-05-19T08:31:21Z</time>
      </trkpt>
      <trkpt lat="45.36534" lon="5.68367">
        <ele>432</ele>
        <time>2016-05-19T08:33:21Z</time>
      </trkpt>
      <trkpt lat="45.36553" lon="5.68388">
        <ele>432</ele>
        <time>2016-05-19T08:35:21Z</time>
      </trkpt>
      <trkpt lat="45.36597" lon="5.68435">
        <ele>431</ele>
        <time>2016-05-19T08:37:21Z</time>
      </trkpt>
      <trkpt lat="45.36643" lon="5.68485">
        <ele>428</ele>
        <time>2016-05-19T08:39:21Z</time>
      </trkpt>
      <trkpt lat="45.36653" lon="5.68496">
        <ele>427</ele>
        <time>2016-05-19T08:41:21Z</time>
      </trkpt>
      <trkpt lat="45.36666" lon="5.68511">
        <ele>427</ele>
        <time>2016-05-19T08:43:21Z</time>
      </trkpt>
      <trkpt lat="45.36681" lon="5.68527">
        <ele>426</ele>
        <time>2016-05-19T08:45:21Z</time>
      </trkpt>
      <trkpt lat="45.36689" lon="5.68535">
        <ele>425</ele>
        <time>2016-05-19T08:47:21Z</time>
      </trkpt>
      <trkpt lat="45.36697" lon="5.68543">
        <ele>425</ele>
        <time>2016-05-19T08:49:21Z</time>
      </trkpt>
      <trkpt lat="45.36708" lon="5.68552">
        <ele>425</ele>
        <time>2016-05-19T08:51:21Z</time>
      </trkpt>
      <trkpt lat="45.36726" lon="5.68564">
        <ele>424</ele>
        <time>2016-05-19T08:53:21Z</time>
      </trkpt>
      <trkpt lat="45.36734" lon="5.68568">
        <ele>424</ele>
        <time>2016-05-19T08:55:21Z</time>
      </trkpt>
      <trkpt lat="45.36744" lon="5.68572">
        <ele>424</ele>
        <time>2016-05-19T08:57:21Z</time>
      </trkpt>
      <trkpt lat="45.36772" lon="5.68583">
        <ele>424</ele>
        <time>2016-05-19T08:59:21Z</time>
      </trkpt>
      <trkpt lat="45.36788" lon="5.68591">
        <ele>424</ele>
        <time>2016-05-19T09:01:21Z</time>
      </trkpt>
      <trkpt lat="45.36801" lon="5.68599">
        <ele>423</ele>
        <time>2016-05-19T09:03:21Z</time>
      </trkpt>
      <trkpt lat="45.36831" lon="5.68622">
        <ele>422</ele>
        <time>2016-05-19T09:05:21Z</time>
      </trkpt>
      <trkpt lat="45.36923" lon="5.68694">
        <ele>418</ele>
        <time>2016-05-19T09:07:21Z</time>
      </trkpt>
      <trkpt lat="45.36974" lon="5.68734">
        <ele>418</ele>
        <time>2016-05-19T09:09:21Z</time>
      </trkpt>
      <trkpt lat="45.36986" lon="5.68745">
        <ele>417</ele>
        <time>2016-05-19T09:11:21Z</time>
      </trkpt>
      <trkpt lat="45.36994" lon="5.68752">
        <ele>417</ele>
        <time>2016-05-19T09:13:21Z</time>
      </trkpt>
      <trkpt lat="45.37001" lon="5.68759">
        <ele>417</ele>
        <time>2016-05-19T09:15:21Z</time>
      </trkpt>
      <trkpt lat="45.37009" lon="5.68766">
        <ele>417</ele>
        <time>2016-05-19T09:17:21Z</time>
      </trkpt>
      <trkpt lat="45.37017" lon="5.68774">
        <ele>416</ele>
        <time>2016-05-19T09:19:21Z</time>
      </trkpt>
      <trkpt lat="45.37025" lon="5.68782">
        <ele>416</ele>
        <time>2016-05-19T09:21:21Z</time>
      </trkpt>
      <trkpt lat="45.37032" lon="5.6879">
        <ele>415</ele>
        <time>2016-05-19T09:23:21Z</time>
      </trkpt>
      <trkpt lat="45.3704" lon="5.68799">
        <ele>415</ele>
        <time>2016-05-19T09:25:21Z</time>
      </trkpt>
      <trkpt lat="45.37048" lon="5.68808">
        <ele>414</ele>
        <time>2016-05-19T09:27:21Z</time>
      </trkpt>
      <trkpt lat="45.37056" lon="5.68817">
        <ele>414</ele>
        <time>2016-05-19T09:29:21Z</time>
      </trkpt>
      <trkpt lat="45.37064" lon="5.68827">
        <ele>413</ele>
        <time>2016-05-19T09:31:21Z</time>
      </trkpt>
      <trkpt lat="45.37071" lon="5.68837">
        <ele>413</ele>
        <time>2016-05-19T09:33:21Z</time>
      </trkpt>
      <trkpt lat="45.37078" lon="5.68847">
        <ele>412</ele>
        <time>2016-05-19T09:35:21Z</time>
      </trkpt>
      <trkpt lat="45.37085" lon="5.68858">
        <ele>412</ele>
        <time>2016-05-19T09:37:21Z</time>
      </trkpt>
      <trkpt lat="45.37092" lon="5.68869">
        <ele>412</ele>
        <time>2016-05-19T09:39:21Z</time>
      </trkpt>
      <trkpt lat="45.37105" lon="5.68894">
        <ele>411</ele>
        <time>2016-05-19T09:41:21Z</time>
      </trkpt>
      <trkpt lat="45.3711" lon="5.68903">
        <ele>411</ele>
        <time>2016-05-19T09:43:21Z</time>
      </trkpt>
      <trkpt lat="45.37116" lon="5.68915">
        <ele>411</ele>
        <time>2016-05-19T09:45:21Z</time>
      </trkpt>
      <trkpt lat="45.37122" lon="5.68928">
        <ele>411</ele>
        <time>2016-05-19T09:47:21Z</time>
      </trkpt>
      <trkpt lat="45.3714" lon="5.68964">
        <ele>410</ele>
        <time>2016-05-19T09:49:21Z</time>
      </trkpt>
      <trkpt lat="45.37146" lon="5.68977">
        <ele>410</ele>
        <time>2016-05-19T09:51:21Z</time>
      </trkpt>
      <trkpt lat="45.37151" lon="5.6899">
        <ele>410</ele>
        <time>2016-05-19T09:53:21Z</time>
      </trkpt>
      <trkpt lat="45.37155" lon="5.69003">
        <ele>409</ele>
        <time>2016-05-19T09:55:21Z</time>
      </trkpt>
      <trkpt lat="45.37159" lon="5.69016">
        <ele>409</ele>
        <time>2016-05-19T09:57:21Z</time>
      </trkpt>
      <trkpt lat="45.37163" lon="5.69031">
        <ele>409</ele>
        <time>2016-05-19T09:59:21Z</time>
      </trkpt>
      <trkpt lat="45.37164" lon="5.69034">
        <ele>409</ele>
        <time>2016-05-19T10:01:21Z</time>
      </trkpt>
      <trkpt lat="45.37167" lon="5.69052">
        <ele>408</ele>
        <time>2016-05-19T10:03:21Z</time>
      </trkpt>
      <trkpt lat="45.37169" lon="5.69064">
        <ele>408</ele>
        <time>2016-05-19T10:05:21Z</time>
      </trkpt>
      <trkpt lat="45.3717" lon="5.69075">
        <ele>408</ele>
        <time>2016-05-19T10:07:21Z</time>
      </trkpt>
      <trkpt lat="45.37171" lon="5.69086">
        <ele>408</ele>
        <time>2016-05-19T10:09:21Z</time>
      </trkpt>
      <trkpt lat="45.37172" lon="5.69097">
        <ele>408</ele>
        <time>2016-05-19T10:11:21Z</time>
      </trkpt>
      <trkpt lat="45.37173" lon="5.69108">
        <ele>408</ele>
        <time>2016-05-19T10:13:21Z</time>
      </trkpt>
      <trkpt lat="45.37173" lon="5.69119">
        <ele>408</ele>
        <time>2016-05-19T10:15:21Z</time>
      </trkpt>
      <trkpt lat="45.37173" lon="5.6913">
        <ele>408</ele>
        <time>2016-05-19T10:17:21Z</time>
      </trkpt>
      <trkpt lat="45.37173" lon="5.69151">
        <ele>407</ele>
        <time>2016-05-19T10:19:21Z</time>
      </trkpt>
      <trkpt lat="45.37173" lon="5.69164">
        <ele>407</ele>
        <time>2016-05-19T10:21:21Z</time>
      </trkpt>
      <trkpt lat="45.37173" lon="5.69187">
        <ele>408</ele>
        <time>2016-05-19T10:23:21Z</time>
      </trkpt>
      <trkpt lat="45.37174" lon="5.69199">
        <ele>409</ele>
        <time>2016-05-19T10:25:21Z</time>
      </trkpt>
      <trkpt lat="45.37174" lon="5.69211">
        <ele>410</ele>
        <time>2016-05-19T10:27:21Z</time>
      </trkpt>
      <trkpt lat="45.37175" lon="5.69222">
        <ele>410</ele>
        <time>2016-05-19T10:29:21Z</time>
      </trkpt>
      <trkpt lat="45.37176" lon="5.69234">
        <ele>411</ele>
        <time>2016-05-19T10:31:21Z</time>
      </trkpt>
      <trkpt lat="45.37178" lon="5.69245">
        <ele>411</ele>
        <time>2016-05-19T10:33:21Z</time>
      </trkpt>
      <trkpt lat="45.3718" lon="5.69257">
        <ele>412</ele>
        <time>2016-05-19T10:35:21Z</time>
      </trkpt>
      <trkpt lat="45.37183" lon="5.69268">
        <ele>412</ele>
        <time>2016-05-19T10:37:21Z</time>
      </trkpt>
      <trkpt lat="45.37186" lon="5.69279">
        <ele>412</ele>
        <time>2016-05-19T10:39:21Z</time>
      </trkpt>
      <trkpt lat="45.37189" lon="5.6929">
        <ele>412</ele>
        <time>2016-05-19T10:41:21Z</time>
      </trkpt>
      <trkpt lat="45.37192" lon="5.693">
        <ele>412</ele>
        <time>2016-05-19T10:43:21Z</time>
      </trkpt>
      <trkpt lat="45.37201" lon="5.69325">
        <ele>412</ele>
        <time>2016-05-19T10:45:21Z</time>
      </trkpt>
      <trkpt lat="45.3721" lon="5.6935">
        <ele>412</ele>
        <time>2016-05-19T10:47:21Z</time>
      </trkpt>
      <trkpt lat="45.37223" lon="5.69381">
        <ele>411</ele>
        <time>2016-05-19T10:49:21Z</time>
      </trkpt>
      <trkpt lat="45.37232" lon="5.69402">
        <ele>410</ele>
        <time>2016-05-19T10:51:21Z</time>
      </trkpt>
      <trkpt lat="45.37241" lon="5.69422">
        <ele>410</ele>
        <time>2016-05-19T10:53:21Z</time>
      </trkpt>
      <trkpt lat="45.37246" lon="5.69431">
        <ele>410</ele>
        <time>2016-05-19T10:55:21Z</time>
      </trkpt>
      <trkpt lat="45.37266" lon="5.69467">
        <ele>411</ele>
        <time>2016-05-19T10:57:21Z</time>
      </trkpt>
      <trkpt lat="45.37292" lon="5.69512">
        <ele>412</ele>
        <time>2016-05-19T10:59:21Z</time>
      </trkpt>
      <trkpt lat="45.37297" lon="5.69524">
        <ele>412</ele>
        <time>2016-05-19T11:01:21Z</time>
      </trkpt>
      <trkpt lat="45.373" lon="5.6953">
        <ele>412</ele>
        <time>2016-05-19T11:03:21Z</time>
      </trkpt>
      <trkpt lat="45.37329" lon="5.69586">
        <ele>412</ele>
        <time>2016-05-19T11:05:21Z</time>
      </trkpt>
      <trkpt lat="45.37346" lon="5.69616">
        <ele>412</ele>
        <time>2016-05-19T11:07:21Z</time>
      </trkpt>
      <trkpt lat="45.37359" lon="5.69635">
        <ele>413</ele>
        <time>2016-05-19T11:09:21Z</time>
      </trkpt>
      <trkpt lat="45.3737" lon="5.69649">
        <ele>414</ele>
        <time>2016-05-19T11:11:21Z</time>
      </trkpt>
      <trkpt lat="45.37387" lon="5.69666">
        <ele>415</ele>
        <time>2016-05-19T11:13:21Z</time>
      </trkpt>
      <trkpt lat="45.374" lon="5.69675">
        <ele>415</ele>
        <time>2016-05-19T11:15:21Z</time>
      </trkpt>
      <trkpt lat="45.37403" lon="5.69678">
        <ele>415</ele>
        <time>2016-05-19T11:17:21Z</time>
      </trkpt>
      <trkpt lat="45.37409" lon="5.69682">
        <ele>415</ele>
        <time>2016-05-19T11:19:21Z</time>
      </trkpt>
      <trkpt lat="45.37414" lon="5.69685">
        <ele>415</ele>
        <time>2016-05-19T11:21:21Z</time>
      </trkpt>
      <trkpt lat="45.37424" lon="5.69691">
        <ele>415</ele>
        <time>2016-05-19T11:23:21Z</time>
      </trkpt>
      <trkpt lat="45.3743" lon="5.69693">
        <ele>415</ele>
        <time>2016-05-19T11:25:21Z</time>
      </trkpt>
      <trkpt lat="45.3744" lon="5.69697">
        <ele>415</ele>
        <time>2016-05-19T11:27:21Z</time>
      </trkpt>
      <trkpt lat="45.37458" lon="5.69703">
        <ele>416</ele>
        <time>2016-05-19T11:29:21Z</time>
      </trkpt>
      <trkpt lat="45.37486" lon="5.69708">
        <ele>416</ele>
        <time>2016-05-19T11:31:21Z</time>
      </trkpt>
      <trkpt lat="45.37494" lon="5.69709">
        <ele>416</ele>
        <time>2016-05-19T11:33:21Z</time>
      </trkpt>
      <trkpt lat="45.37495" lon="5.69709">
        <ele>416</ele>
        <time>2016-05-19T11:35:21Z</time>
      </trkpt>
      <trkpt lat="45.37499" lon="5.69709">
        <ele>416</ele>
        <time>2016-05-19T11:37:21Z</time>
      </trkpt>
      <trkpt lat="45.37513" lon="5.69715">
        <ele>416</ele>
        <time>2016-05-19T11:39:21Z</time>
      </trkpt>
      <trkpt lat="45.37537" lon="5.69726">
        <ele>417</ele>
        <time>2016-05-19T11:41:21Z</time>
      </trkpt>
      <trkpt lat="45.37585" lon="5.69753">
        <ele>419</ele>
        <time>2016-05-19T11:43:21Z</time>
      </trkpt>
      <trkpt lat="45.37595" lon="5.69759">
        <ele>419</ele>
        <time>2016-05-19T11:45:21Z</time>
      </trkpt>
      <trkpt lat="45.376" lon="5.69762">
        <ele>419</ele>
        <time>2016-05-19T11:47:21Z</time>
      </trkpt>
      <trkpt lat="45.37621" lon="5.69772">
        <ele>418</ele>
        <time>2016-05-19T11:49:21Z</time>
      </trkpt>
      <trkpt lat="45.37647" lon="5.69785">
        <ele>417</ele>
        <time>2016-05-19T11:51:21Z</time>
      </trkpt>
      <trkpt lat="45.37676" lon="5.69803">
        <ele>416</ele>
        <time>2016-05-19T11:53:21Z</time>
      </trkpt>
      <trkpt lat="45.37698" lon="5.69818">
        <ele>415</ele>
        <time>2016-05-19T11:55:21Z</time>
      </trkpt>
      <trkpt lat="45.37702" lon="5.69822">
        <ele>415</ele>
        <time>2016-05-19T11:57:21Z</time>
      </trkpt>
      <trkpt lat="45.37713" lon="5.6983">
        <ele>414</ele>
        <time>2016-05-19T11:59:21Z</time>
      </trkpt>
      <trkpt lat="45.37719" lon="5.69837">
        <ele>414</ele>
        <time>2016-05-19T12:01:21Z</time>
      </trkpt>
      <trkpt lat="45.37722" lon="5.6984">
        <ele>414</ele>
        <time>2016-05-19T12:03:21Z</time>
      </trkpt>
      <trkpt lat="45.37735" lon="5.69854">
        <ele>414</ele>
        <time>2016-05-19T12:05:21Z</time>
      </trkpt>
      <trkpt lat="45.37739" lon="5.6986">
        <ele>413</ele>
        <time>2016-05-19T12:07:21Z</time>
      </trkpt>
      <trkpt lat="45.37761" lon="5.69893">
        <ele>413</ele>
        <time>2016-05-19T12:09:21Z</time>
      </trkpt>
      <trkpt lat="45.37776" lon="5.69917">
        <ele>413</ele>
        <time>2016-05-19T12:11:21Z</time>
      </trkpt>
      <trkpt lat="45.37796" lon="5.69953">
        <ele>413</ele>
        <time>2016-05-19T12:13:21Z</time>
      </trkpt>
      <trkpt lat="45.37824" lon="5.7">
        <ele>411</ele>
        <time>2016-05-19T12:15:21Z</time>
      </trkpt>
      <trkpt lat="45.37859" lon="5.7006">
        <ele>410</ele>
        <time>2016-05-19T12:17:21Z</time>
      </trkpt>
      <trkpt lat="45.37862" lon="5.70067">
        <ele>410</ele>
        <time>2016-05-19T12:19:21Z</time>
      </trkpt>
      <trkpt lat="45.37867" lon="5.70076">
        <ele>409</ele>
        <time>2016-05-19T12:21:21Z</time>
      </trkpt>
      <trkpt lat="45.37881" lon="5.70102">
        <ele>409</ele>
        <time>2016-05-19T12:23:21Z</time>
      </trkpt>
      <trkpt lat="45.37894" lon="5.70127">
        <ele>409</ele>
        <time>2016-05-19T12:25:21Z</time>
      </trkpt>
      <trkpt lat="45.37896" lon="5.7013">
        <ele>409</ele>
        <time>2016-05-19T12:27:21Z</time>
      </trkpt>
      <trkpt lat="45.37908" lon="5.70152">
        <ele>408</ele>
        <time>2016-05-19T12:29:21Z</time>
      </trkpt>
      <trkpt lat="45.3791" lon="5.70156">
        <ele>408</ele>
        <time>2016-05-19T12:31:21Z</time>
      </trkpt>
      <trkpt lat="45.37912" lon="5.70161">
        <ele>408</ele>
        <time>2016-05-19T12:33:21Z</time>
      </trkpt>
      <trkpt lat="45.37922" lon="5.70184">
        <ele>408</ele>
        <time>2016-05-19T12:35:21Z</time>
      </trkpt>
      <trkpt lat="45.37929" lon="5.70202">
        <ele>407</ele>
        <time>2016-05-19T12:37:21Z</time>
      </trkpt>
      <trkpt lat="45.37931" lon="5.70208">
        <ele>407</ele>
        <time>2016-05-19T12:39:21Z</time>
      </trkpt>
      <trkpt lat="45.37936" lon="5.70216">
        <ele>407</ele>
        <time>2016-05-19T12:41:21Z</time>
      </trkpt>
      <trkpt lat="45.37941" lon="5.70236">
        <ele>407</ele>
        <time>2016-05-19T12:43:21Z</time>
      </trkpt>
      <trkpt lat="45.37944" lon="5.70252">
        <ele>406</ele>
        <time>2016-05-19T12:45:21Z</time>
      </trkpt>
      <trkpt lat="45.37946" lon="5.7026">
        <ele>406</ele>
        <time>2016-05-19T12:47:21Z</time>
      </trkpt>
      <trkpt lat="45.37951" lon="5.70287">
        <ele>406</ele>
        <time>2016-05-19T12:49:21Z</time>
      </trkpt>
      <trkpt lat="45.37955" lon="5.70305">
        <ele>405</ele>
        <time>2016-05-19T12:51:21Z</time>
      </trkpt>
      <trkpt lat="45.37957" lon="5.70314">
        <ele>405</ele>
        <time>2016-05-19T12:53:21Z</time>
      </trkpt>
      <trkpt lat="45.37962" lon="5.70333">
        <ele>405</ele>
        <time>2016-05-19T12:55:21Z</time>
      </trkpt>
      <trkpt lat="45.37973" lon="5.70364">
        <ele>405</ele>
        <time>2016-05-19T12:57:21Z</time>
      </trkpt>
      <trkpt lat="45.37983" lon="5.70388">
        <ele>405</ele>
        <time>2016-05-19T12:59:21Z</time>
      </trkpt>
      <trkpt lat="45.37997" lon="5.7042">
        <ele>404</ele>
        <time>2016-05-19T13:01:21Z</time>
      </trkpt>
      <trkpt lat="45.38024" lon="5.70479">
        <ele>407</ele>
        <time>2016-05-19T13:03:21Z</time>
      </trkpt>
      <trkpt lat="45.3805" lon="5.70533">
        <ele>409</ele>
        <time>2016-05-19T13:05:21Z</time>
      </trkpt>
      <trkpt lat="45.38074" lon="5.70587">
        <ele>407</ele>
        <time>2016-05-19T13:07:21Z</time>
      </trkpt>
      <trkpt lat="45.38096" lon="5.70634">
        <ele>416</ele>
        <time>2016-05-19T13:09:21Z</time>
      </trkpt>
      <trkpt lat="45.38113" lon="5.70669">
        <ele>419</ele>
        <time>2016-05-19T13:11:21Z</time>
      </trkpt>
      <trkpt lat="45.38123" lon="5.70686">
        <ele>420</ele>
        <time>2016-05-19T13:13:21Z</time>
      </trkpt>
      <trkpt lat="45.38132" lon="5.70699">
        <ele>420</ele>
        <time>2016-05-19T13:15:21Z</time>
      </trkpt>
      <trkpt lat="45.38138" lon="5.70706">
        <ele>419</ele>
        <time>2016-05-19T13:17:21Z</time>
      </trkpt>
      <trkpt lat="45.38142" lon="5.70711">
        <ele>419</ele>
        <time>2016-05-19T13:19:21Z</time>
      </trkpt>
      <trkpt lat="45.38149" lon="5.70719">
        <ele>418</ele>
        <time>2016-05-19T13:21:21Z</time>
      </trkpt>
      <trkpt lat="45.38161" lon="5.70731">
        <ele>416</ele>
        <time>2016-05-19T13:23:21Z</time>
      </trkpt>
      <trkpt lat="45.38165" lon="5.70735">
        <ele>415</ele>
        <time>2016-05-19T13:25:21Z</time>
      </trkpt>
      <trkpt lat="45.38184" lon="5.70754">
        <ele>415</ele>
        <time>2016-05-19T13:27:21Z</time>
      </trkpt>
      <trkpt lat="45.38196" lon="5.70765">
        <ele>415</ele>
        <time>2016-05-19T13:29:21Z</time>
      </trkpt>
      <trkpt lat="45.38206" lon="5.70777">
        <ele>414</ele>
        <time>2016-05-19T13:31:21Z</time>
      </trkpt>
      <trkpt lat="45.38221" lon="5.70798">
        <ele>413</ele>
        <time>2016-05-19T13:33:21Z</time>
      </trkpt>
      <trkpt lat="45.38229" lon="5.70811">
        <ele>411</ele>
        <time>2016-05-19T13:35:21Z</time>
      </trkpt>
      <trkpt lat="45.38235" lon="5.70822">
        <ele>409</ele>
        <time>2016-05-19T13:37:21Z</time>
      </trkpt>
      <trkpt lat="45.38242" lon="5.70834">
        <ele>407</ele>
        <time>2016-05-19T13:39:21Z</time>
      </trkpt>
      <trkpt lat="45.38254" lon="5.70856">
        <ele>406</ele>
        <time>2016-05-19T13:41:21Z</time>
      </trkpt>
      <trkpt lat="45.38272" lon="5.70892">
        <ele>408</ele>
        <time>2016-05-19T13:43:21Z</time>
      </trkpt>
      <trkpt lat="45.3829" lon="5.70928">
        <ele>408</ele>
        <time>2016-05-19T13:45:21Z</time>
      </trkpt>
      <trkpt lat="45.38358" lon="5.71068">
        <ele>406</ele>
        <time>2016-05-19T13:47:21Z</time>
      </trkpt>
      <trkpt lat="45.38481" lon="5.71318">
        <ele>405</ele>
        <time>2016-05-19T13:49:21Z</time>
      </trkpt>
      <trkpt lat="45.38585" lon="5.71527">
        <ele>401</ele>
        <time>2016-05-19T13:51:21Z</time>
      </trkpt>
      <trkpt lat="45.38596" lon="5.71547">
        <ele>402</ele>
        <time>2016-05-19T13:53:21Z</time>
      </trkpt>
      <trkpt lat="45.38596" lon="5.71554">
        <ele>402</ele>
        <time>2016-05-19T13:55:21Z</time>
      </trkpt>
      <trkpt lat="45.38636" lon="5.71637">
        <ele>401</ele>
        <time>2016-05-19T13:57:21Z</time>
      </trkpt>
      <trkpt lat="45.38653" lon="5.71669">
        <ele>400</ele>
        <time>2016-05-19T13:59:21Z</time>
      </trkpt>
      <trkpt lat="45.38657" lon="5.71678">
        <ele>400</ele>
        <time>2016-05-19T14:01:21Z</time>
      </trkpt>
      <trkpt lat="45.38676" lon="5.71717">
        <ele>401</ele>
        <time>2016-05-19T14:03:21Z</time>
      </trkpt>
      <trkpt lat="45.38694" lon="5.71752">
        <ele>402</ele>
        <time>2016-05-19T14:05:21Z</time>
      </trkpt>
      <trkpt lat="45.38711" lon="5.71783">
        <ele>402</ele>
        <time>2016-05-19T14:07:21Z</time>
      </trkpt>
      <trkpt lat="45.38715" lon="5.71786">
        <ele>403</ele>
        <time>2016-05-19T14:09:21Z</time>
      </trkpt>
      <trkpt lat="45.38727" lon="5.71811">
        <ele>403</ele>
        <time>2016-05-19T14:11:21Z</time>
      </trkpt>
      <trkpt lat="45.38759" lon="5.7188">
        <ele>403</ele>
        <time>2016-05-19T14:13:21Z</time>
      </trkpt>
      <trkpt lat="45.38778" lon="5.71926">
        <ele>404</ele>
        <time>2016-05-19T14:15:21Z</time>
      </trkpt>
      <trkpt lat="45.3879" lon="5.71958">
        <ele>405</ele>
        <time>2016-05-19T14:17:21Z</time>
      </trkpt>
      <trkpt lat="45.38799" lon="5.71985">
        <ele>405</ele>
        <time>2016-05-19T14:19:21Z</time>
      </trkpt>
      <trkpt lat="45.38812" lon="5.72029">
        <ele>406</ele>
        <time>2016-05-19T14:21:21Z</time>
      </trkpt>
      <trkpt lat="45.38819" lon="5.72057">
        <ele>406</ele>
        <time>2016-05-19T14:23:21Z</time>
      </trkpt>
      <trkpt lat="45.38824" lon="5.72079">
        <ele>406</ele>
        <time>2016-05-19T14:25:21Z</time>
      </trkpt>
      <trkpt lat="45.38833" lon="5.7212">
        <ele>406</ele>
        <time>2016-05-19T14:27:21Z</time>
      </trkpt>
      <trkpt lat="45.38838" lon="5.7215">
        <ele>405</ele>
        <time>2016-05-19T14:29:21Z</time>
      </trkpt>
      <trkpt lat="45.38847" lon="5.72204">
        <ele>406</ele>
        <time>2016-05-19T14:31:21Z</time>
      </trkpt>
      <trkpt lat="45.38855" lon="5.72283">
        <ele>408</ele>
        <time>2016-05-19T14:33:21Z</time>
      </trkpt>
      <trkpt lat="45.38857" lon="5.72317">
        <ele>409</ele>
        <time>2016-05-19T14:35:21Z</time>
      </trkpt>
      <trkpt lat="45.38857" lon="5.72374">
        <ele>410</ele>
        <time>2016-05-19T14:37:21Z</time>
      </trkpt>
      <trkpt lat="45.38857" lon="5.72389">
        <ele>410</ele>
        <time>2016-05-19T14:39:21Z</time>
      </trkpt>
      <trkpt lat="45.38857" lon="5.72394">
        <ele>410</ele>
        <time>2016-05-19T14:41:21Z</time>
      </trkpt>
      <trkpt lat="45.38857" lon="5.72425">
        <ele>410</ele>
        <time>2016-05-19T14:43:21Z</time>
      </trkpt>
      <trkpt lat="45.38857" lon="5.7244">
        <ele>409</ele>
        <time>2016-05-19T14:45:21Z</time>
      </trkpt>
      <trkpt lat="45.38849" lon="5.72524">
        <ele>409</ele>
        <time>2016-05-19T14:47:21Z</time>
      </trkpt>
      <trkpt lat="45.3882" lon="5.72729">
        <ele>411</ele>
        <time>2016-05-19T14:49:21Z</time>
      </trkpt>
      <trkpt lat="45.38808" lon="5.72816">
        <ele>413</ele>
        <time>2016-05-19T14:51:21Z</time>
      </trkpt>
      <trkpt lat="45.38783" lon="5.72978">
        <ele>415</ele>
        <time>2016-05-19T14:53:21Z</time>
      </trkpt>
      <trkpt lat="45.38781" lon="5.72995">
        <ele>415</ele>
        <time>2016-05-19T14:55:21Z</time>
      </trkpt>
      <trkpt lat="45.38774" lon="5.73037">
        <ele>415</ele>
        <time>2016-05-19T14:57:21Z</time>
      </trkpt>
      <trkpt lat="45.38769" lon="5.73072">
        <ele>414</ele>
        <time>2016-05-19T14:59:21Z</time>
      </trkpt>
      <trkpt lat="45.38767" lon="5.73093">
        <ele>414</ele>
        <time>2016-05-19T15:01:21Z</time>
      </trkpt>
      <trkpt lat="45.38761" lon="5.73132">
        <ele>415</ele>
        <time>2016-05-19T15:03:21Z</time>
      </trkpt>
      <trkpt lat="45.3876" lon="5.73138">
        <ele>415</ele>
        <time>2016-05-19T15:05:21Z</time>
      </trkpt>
      <trkpt lat="45.3876" lon="5.73141">
        <ele>415</ele>
        <time>2016-05-19T15:07:21Z</time>
      </trkpt>
      <trkpt lat="45.38757" lon="5.73161">
        <ele>415</ele>
        <time>2016-05-19T15:09:21Z</time>
      </trkpt>
      <trkpt lat="45.38754" lon="5.7318">
        <ele>415</ele>
        <time>2016-05-19T15:11:21Z</time>
      </trkpt>
      <trkpt lat="45.38742" lon="5.73269">
        <ele>420</ele>
        <time>2016-05-19T15:13:21Z</time>
      </trkpt>
      <trkpt lat="45.38735" lon="5.7332">
        <ele>424</ele>
        <time>2016-05-19T15:15:21Z</time>
      </trkpt>
      <trkpt lat="45.38734" lon="5.73327">
        <ele>425</ele>
        <time>2016-05-19T15:17:21Z</time>
      </trkpt>
      <trkpt lat="45.38733" lon="5.73333">
        <ele>425</ele>
        <time>2016-05-19T15:19:21Z</time>
      </trkpt>
      <trkpt lat="45.38731" lon="5.73342">
        <ele>426</ele>
        <time>2016-05-19T15:21:21Z</time>
      </trkpt>
      <trkpt lat="45.38728" lon="5.7336">
        <ele>428</ele>
        <time>2016-05-19T15:23:21Z</time>
      </trkpt>
      <trkpt lat="45.38706" lon="5.73413">
        <ele>433</ele>
        <time>2016-05-19T15:25:21Z</time>
      </trkpt>
      <trkpt lat="45.38703" lon="5.73423">
        <ele>433</ele>
        <time>2016-05-19T15:27:21Z</time>
      </trkpt>
      <trkpt lat="45.38702" lon="5.7343">
        <ele>432</ele>
        <time>2016-05-19T15:29:21Z</time>
      </trkpt>
      <trkpt lat="45.38701" lon="5.73445">
        <ele>430</ele>
        <time>2016-05-19T15:31:21Z</time>
      </trkpt>
      <trkpt lat="45.387" lon="5.73471">
        <ele>427</ele>
        <time>2016-05-19T15:33:21Z</time>
      </trkpt>
      <trkpt lat="45.387" lon="5.7349">
        <ele>424</ele>
        <time>2016-05-19T15:35:21Z</time>
      </trkpt>
      <trkpt lat="45.38699" lon="5.73502">
        <ele>423</ele>
        <time>2016-05-19T15:37:21Z</time>
      </trkpt>
      <trkpt lat="45.38699" lon="5.73571">
        <ele>419</ele>
        <time>2016-05-19T15:39:21Z</time>
      </trkpt>
      <trkpt lat="45.38699" lon="5.73571">
        <ele>419</ele>
        <time>2016-05-19T15:41:21Z</time>
      </trkpt>
      <trkpt lat="45.38669" lon="5.73574">
        <ele>420</ele>
        <time>2016-05-19T15:43:21Z</time>
      </trkpt>
      <trkpt lat="45.3864" lon="5.73574">
        <ele>422</ele>
        <time>2016-05-19T15:45:21Z</time>
      </trkpt>
      <trkpt lat="45.38615" lon="5.73575">
        <ele>423</ele>
        <time>2016-05-19T15:47:21Z</time>
      </trkpt>
      <trkpt lat="45.38606" lon="5.73573">
        <ele>423</ele>
        <time>2016-05-19T15:49:21Z</time>
      </trkpt>
      <trkpt lat="45.38604" lon="5.73572">
        <ele>424</ele>
        <time>2016-05-19T15:51:21Z</time>
      </trkpt>
      <trkpt lat="45.38592" lon="5.73563">
        <ele>426</ele>
        <time>2016-05-19T15:53:21Z</time>
      </trkpt>
      <trkpt lat="45.38589" lon="5.73562">
        <ele>427</ele>
        <time>2016-05-19T15:55:21Z</time>
      </trkpt>
      <trkpt lat="45.38578" lon="5.73556">
        <ele>429</ele>
        <time>2016-05-19T15:57:21Z</time>
      </trkpt>
      <trkpt lat="45.38568" lon="5.73552">
        <ele>430</ele>
        <time>2016-05-19T15:59:21Z</time>
      </trkpt>
      <trkpt lat="45.38559" lon="5.73548">
        <ele>432</ele>
        <time>2016-05-19T16:01:21Z</time>
      </trkpt>
      <trkpt lat="45.38556" lon="5.73547">
        <ele>433</ele>
        <time>2016-05-19T16:03:21Z</time>
      </trkpt>
      <trkpt lat="45.38534" lon="5.73534">
        <ele>438</ele>
        <time>2016-05-19T16:05:21Z</time>
      </trkpt>
      <trkpt lat="45.38522" lon="5.73528">
        <ele>441</ele>
        <time>2016-05-19T16:07:21Z</time>
      </trkpt>
      <trkpt lat="45.38514" lon="5.73525">
        <ele>442</ele>
        <time>2016-05-19T16:09:21Z</time>
      </trkpt>
      <trkpt lat="45.38503" lon="5.73521">
        <ele>445</ele>
        <time>2016-05-19T16:11:21Z</time>
      </trkpt>
      <trkpt lat="45.38495" lon="5.7352">
        <ele>445</ele>
        <time>2016-05-19T16:13:21Z</time>
      </trkpt>
      <trkpt lat="45.38472" lon="5.73518">
        <ele>445</ele>
        <time>2016-05-19T16:15:21Z</time>
      </trkpt>
      <trkpt lat="45.38449" lon="5.7352">
        <ele>443</ele>
        <time>2016-05-19T16:17:21Z</time>
      </trkpt>
      <trkpt lat="45.38417" lon="5.73522">
        <ele>442</ele>
        <time>2016-05-19T16:19:21Z</time>
      </trkpt>
      <trkpt lat="45.38388" lon="5.7352">
        <ele>442</ele>
        <time>2016-05-19T16:21:21Z</time>
      </trkpt>
      <trkpt lat="45.38359" lon="5.73518">
        <ele>442</ele>
        <time>2016-05-19T16:23:21Z</time>
      </trkpt>
      <trkpt lat="45.38331" lon="5.7352">
        <ele>441</ele>
        <time>2016-05-19T16:25:21Z</time>
      </trkpt>
      <trkpt lat="45.38293" lon="5.73524">
        <ele>444</ele>
        <time>2016-05-19T16:27:21Z</time>
      </trkpt>
      <trkpt lat="45.38266" lon="5.73528">
        <ele>445</ele>
        <time>2016-05-19T16:29:21Z</time>
      </trkpt>
      <trkpt lat="45.38245" lon="5.73534">
        <ele>444</ele>
        <time>2016-05-19T16:31:21Z</time>
      </trkpt>
      <trkpt lat="45.3823" lon="5.73539">
        <ele>445</ele>
        <time>2016-05-19T16:33:21Z</time>
      </trkpt>
      <trkpt lat="45.38213" lon="5.73547">
        <ele>446</ele>
        <time>2016-05-19T16:35:21Z</time>
      </trkpt>
      <trkpt lat="45.38192" lon="5.73557">
        <ele>447</ele>
        <time>2016-05-19T16:37:21Z</time>
      </trkpt>
      <trkpt lat="45.38173" lon="5.73566">
        <ele>449</ele>
        <time>2016-05-19T16:39:21Z</time>
      </trkpt>
      <trkpt lat="45.38149" lon="5.73579">
        <ele>451</ele>
        <time>2016-05-19T16:41:21Z</time>
      </trkpt>
      <trkpt lat="45.38127" lon="5.73598">
        <ele>452</ele>
        <time>2016-05-19T16:43:21Z</time>
      </trkpt>
      <trkpt lat="45.38117" lon="5.73609">
        <ele>452</ele>
        <time>2016-05-19T16:45:21Z</time>
      </trkpt>
      <trkpt lat="45.38108" lon="5.73621">
        <ele>451</ele>
        <time>2016-05-19T16:47:21Z</time>
      </trkpt>
      <trkpt lat="45.38097" lon="5.73637">
        <ele>448</ele>
        <time>2016-05-19T16:49:21Z</time>
      </trkpt>
      <trkpt lat="45.38076" lon="5.73673">
        <ele>443</ele>
        <time>2016-05-19T16:51:21Z</time>
      </trkpt>
      <trkpt lat="45.38062" lon="5.73704">
        <ele>445</ele>
        <time>2016-05-19T16:53:21Z</time>
      </trkpt>
      <trkpt lat="45.38049" lon="5.73732">
        <ele>446</ele>
        <time>2016-05-19T16:55:21Z</time>
      </trkpt>
      <trkpt lat="45.38044" lon="5.73742">
        <ele>447</ele>
        <time>2016-05-19T16:57:21Z</time>
      </trkpt>
      <trkpt lat="45.38029" lon="5.73769">
        <ele>449</ele>
        <time>2016-05-19T16:59:21Z</time>
      </trkpt>
      <trkpt lat="45.38008" lon="5.73798">
        <ele>449</ele>
        <time>2016-05-19T17:01:21Z</time>
      </trkpt>
      <trkpt lat="45.37989" lon="5.73824">
        <ele>449</ele>
        <time>2016-05-19T17:03:21Z</time>
      </trkpt>
      <trkpt lat="45.37977" lon="5.73843">
        <ele>453</ele>
        <time>2016-05-19T17:05:21Z</time>
      </trkpt>
      <trkpt lat="45.3797" lon="5.73857">
        <ele>456</ele>
        <time>2016-05-19T17:07:21Z</time>
      </trkpt>
      <trkpt lat="45.37964" lon="5.73873">
        <ele>458</ele>
        <time>2016-05-19T17:09:21Z</time>
      </trkpt>
      <trkpt lat="45.37958" lon="5.73896">
        <ele>459</ele>
        <time>2016-05-19T17:11:21Z</time>
      </trkpt>
      <trkpt lat="45.37951" lon="5.73924">
        <ele>460</ele>
        <time>2016-05-19T17:13:21Z</time>
      </trkpt>
      <trkpt lat="45.37946" lon="5.73945">
        <ele>461</ele>
        <time>2016-05-19T17:15:21Z</time>
      </trkpt>
      <trkpt lat="45.37943" lon="5.73955">
        <ele>461</ele>
        <time>2016-05-19T17:17:21Z</time>
      </trkpt>
      <trkpt lat="45.37939" lon="5.73966">
        <ele>460</ele>
        <time>2016-05-19T17:19:21Z</time>
      </trkpt>
      <trkpt lat="45.37927" lon="5.7399">
        <ele>458</ele>
        <time>2016-05-19T17:21:21Z</time>
      </trkpt>
      <trkpt lat="45.37916" lon="5.74012">
        <ele>455</ele>
        <time>2016-05-19T17:23:21Z</time>
      </trkpt>
      <trkpt lat="45.37905" lon="5.74033">
        <ele>458</ele>
        <time>2016-05-19T17:25:21Z</time>
      </trkpt>
      <trkpt lat="45.37893" lon="5.7406">
        <ele>461</ele>
        <time>2016-05-19T17:27:21Z</time>
      </trkpt>
      <trkpt lat="45.37881" lon="5.74092">
        <ele>465</ele>
        <time>2016-05-19T17:29:21Z</time>
      </trkpt>
      <trkpt lat="45.3787" lon="5.74135">
        <ele>467</ele>
        <time>2016-05-19T17:31:21Z</time>
      </trkpt>
      <trkpt lat="45.37866" lon="5.74165">
        <ele>467</ele>
        <time>2016-05-19T17:33:21Z</time>
      </trkpt>
      <trkpt lat="45.37867" lon="5.74182">
        <ele>466</ele>
        <time>2016-05-19T17:35:21Z</time>
      </trkpt>
      <trkpt lat="45.37871" lon="5.74207">
        <ele>462</ele>
        <time>2016-05-19T17:37:21Z</time>
      </trkpt>
      <trkpt lat="45.37875" lon="5.74222">
        <ele>459</ele>
        <time>2016-05-19T17:39:21Z</time>
      </trkpt>
      <trkpt lat="45.37878" lon="5.7423">
        <ele>458</ele>
        <time>2016-05-19T17:41:21Z</time>
      </trkpt>
      <trkpt lat="45.37891" lon="5.74259">
        <ele>450</ele>
        <time>2016-05-19T17:43:21Z</time>
      </trkpt>
      <trkpt lat="45.37914" lon="5.74301">
        <ele>437</ele>
        <time>2016-05-19T17:45:21Z</time>
      </trkpt>
      <trkpt lat="45.37956" lon="5.7438">
        <ele>445</ele>
        <time>2016-05-19T17:47:21Z</time>
      </trkpt>
      <trkpt lat="45.3796" lon="5.74388">
        <ele>445</ele>
        <time>2016-05-19T17:49:21Z</time>
      </trkpt>
      <trkpt lat="45.37968" lon="5.74403">
        <ele>446</ele>
        <time>2016-05-19T17:51:21Z</time>
      </trkpt>
      <trkpt lat="45.37972" lon="5.7442">
        <ele>447</ele>
        <time>2016-05-19T17:53:21Z</time>
      </trkpt>
      <trkpt lat="45.37974" lon="5.74437">
        <ele>449</ele>
        <time>2016-05-19T17:55:21Z</time>
      </trkpt>
      <trkpt lat="45.37974" lon="5.74455">
        <ele>451</ele>
        <time>2016-05-19T17:57:21Z</time>
      </trkpt>
      <trkpt lat="45.3797" lon="5.74477">
        <ele>454</ele>
        <time>2016-05-19T17:59:21Z</time>
      </trkpt>
      <trkpt lat="45.37966" lon="5.74502">
        <ele>457</ele>
        <time>2016-05-19T18:01:21Z</time>
      </trkpt>
      <trkpt lat="45.37966" lon="5.74518">
        <ele>458</ele>
        <time>2016-05-19T18:03:21Z</time>
      </trkpt>
      <trkpt lat="45.37968" lon="5.74537">
        <ele>459</ele>
        <time>2016-05-19T18:05:21Z</time>
      </trkpt>
      <trkpt lat="45.37986" lon="5.74632">
        <ele>458</ele>
        <time>2016-05-19T18:07:21Z</time>
      </trkpt>
      <trkpt lat="45.37986" lon="5.74648">
        <ele>457</ele>
        <time>2016-05-19T18:09:21Z</time>
      </trkpt>
      <trkpt lat="45.37983" lon="5.7466">
        <ele>457</ele>
        <time>2016-05-19T18:11:21Z</time>
      </trkpt>
      <trkpt lat="45.3798" lon="5.74666">
        <ele>457</ele>
        <time>2016-05-19T18:13:21Z</time>
      </trkpt>
      <trkpt lat="45.37975" lon="5.74676">
        <ele>457</ele>
        <time>2016-05-19T18:15:21Z</time>
      </trkpt>
      <trkpt lat="45.37965" lon="5.74687">
        <ele>458</ele>
        <time>2016-05-19T18:17:21Z</time>
      </trkpt>
      <trkpt lat="45.37955" lon="5.74697">
        <ele>458</ele>
        <time>2016-05-19T18:19:21Z</time>
      </trkpt>
      <trkpt lat="45.37946" lon="5.74703">
        <ele>458</ele>
        <time>2016-05-19T18:21:21Z</time>
      </trkpt>
      <trkpt lat="45.37938" lon="5.74708">
        <ele>458</ele>
        <time>2016-05-19T18:23:21Z</time>
      </trkpt>
      <trkpt lat="45.37929" lon="5.74712">
        <ele>457</ele>
        <time>2016-05-19T18:25:21Z</time>
      </trkpt>
      <trkpt lat="45.37913" lon="5.74718">
        <ele>456</ele>
        <time>2016-05-19T18:27:21Z</time>
      </trkpt>
      <trkpt lat="45.37902" lon="5.7472">
        <ele>455</ele>
        <time>2016-05-19T18:29:21Z</time>
      </trkpt>
      <trkpt lat="45.37887" lon="5.74722">
        <ele>455</ele>
        <time>2016-05-19T18:31:21Z</time>
      </trkpt>
      <trkpt lat="45.37867" lon="5.74724">
        <ele>455</ele>
        <time>2016-05-19T18:33:21Z</time>
      </trkpt>
      <trkpt lat="45.37849" lon="5.74725">
        <ele>455</ele>
        <time>2016-05-19T18:35:21Z</time>
      </trkpt>
      <trkpt lat="45.37834" lon="5.74727">
        <ele>454</ele>
        <time>2016-05-19T18:37:21Z</time>
      </trkpt>
      <trkpt lat="45.37823" lon="5.74729">
        <ele>458</ele>
        <time>2016-05-19T18:39:21Z</time>
      </trkpt>
      <trkpt lat="45.37816" lon="5.74731">
        <ele>460</ele>
        <time>2016-05-19T18:41:21Z</time>
      </trkpt>
      <trkpt lat="45.37808" lon="5.74734">
        <ele>462</ele>
        <time>2016-05-19T18:43:21Z</time>
      </trkpt>
      <trkpt lat="45.37801" lon="5.74738">
        <ele>463</ele>
        <time>2016-05-19T18:45:21Z</time>
      </trkpt>
      <trkpt lat="45.37793" lon="5.74743">
        <ele>465</ele>
        <time>2016-05-19T18:47:21Z</time>
      </trkpt>
      <trkpt lat="45.37784" lon="5.74748">
        <ele>467</ele>
        <time>2016-05-19T18:49:21Z</time>
      </trkpt>
      <trkpt lat="45.3778" lon="5.74752">
        <ele>468</ele>
        <time>2016-05-19T18:51:21Z</time>
      </trkpt>
      <trkpt lat="45.37771" lon="5.74759">
        <ele>471</ele>
        <time>2016-05-19T18:53:21Z</time>
      </trkpt>
      <trkpt lat="45.37766" lon="5.74763">
        <ele>473</ele>
        <time>2016-05-19T18:55:21Z</time>
      </trkpt>
      <trkpt lat="45.37747" lon="5.74775">
        <ele>479</ele>
        <time>2016-05-19T18:57:21Z</time>
      </trkpt>
      <trkpt lat="45.3773" lon="5.74785">
        <ele>488</ele>
        <time>2016-05-19T18:59:21Z</time>
      </trkpt>
      <trkpt lat="45.37714" lon="5.74791">
        <ele>496</ele>
        <time>2016-05-19T19:01:21Z</time>
      </trkpt>
      <trkpt lat="45.377" lon="5.74796">
        <ele>502</ele>
        <time>2016-05-19T19:03:21Z</time>
      </trkpt>
      <trkpt lat="45.37686" lon="5.74799">
        <ele>509</ele>
        <time>2016-05-19T19:05:21Z</time>
      </trkpt>
      <trkpt lat="45.37665" lon="5.74803">
        <ele>517</ele>
        <time>2016-05-19T19:07:21Z</time>
      </trkpt>
      <trkpt lat="45.37644" lon="5.74809">
        <ele>519</ele>
        <time>2016-05-19T19:09:21Z</time>
      </trkpt>
      <trkpt lat="45.37624" lon="5.74814">
        <ele>520</ele>
        <time>2016-05-19T19:11:21Z</time>
      </trkpt>
      <trkpt lat="45.3761" lon="5.74821">
        <ele>519</ele>
        <time>2016-05-19T19:13:21Z</time>
      </trkpt>
      <trkpt lat="45.37591" lon="5.74835">
        <ele>516</ele>
        <time>2016-05-19T19:15:21Z</time>
      </trkpt>
      <trkpt lat="45.37578" lon="5.74848">
        <ele>515</ele>
        <time>2016-05-19T19:17:21Z</time>
      </trkpt>
      <trkpt lat="45.37566" lon="5.74863">
        <ele>514</ele>
        <time>2016-05-19T19:19:21Z</time>
      </trkpt>
      <trkpt lat="45.37536" lon="5.74904">
        <ele>506</ele>
        <time>2016-05-19T19:21:21Z</time>
      </trkpt>
      <trkpt lat="45.37528" lon="5.74914">
        <ele>503</ele>
        <time>2016-05-19T19:23:21Z</time>
      </trkpt>
      <trkpt lat="45.37509" lon="5.74939">
        <ele>500</ele>
        <time>2016-05-19T19:25:21Z</time>
      </trkpt>
      <trkpt lat="45.37498" lon="5.74955">
        <ele>496</ele>
        <time>2016-05-19T19:27:21Z</time>
      </trkpt>
      <trkpt lat="45.37488" lon="5.74969">
        <ele>496</ele>
        <time>2016-05-19T19:29:21Z</time>
      </trkpt>
      <trkpt lat="45.37479" lon="5.74983">
        <ele>494</ele>
        <time>2016-05-19T19:31:21Z</time>
      </trkpt>
      <trkpt lat="45.37474" lon="5.74989">
        <ele>494</ele>
        <time>2016-05-19T19:33:21Z</time>
      </trkpt>
      <trkpt lat="45.37468" lon="5.74994">
        <ele>494</ele>
        <time>2016-05-19T19:35:21Z</time>
      </trkpt>
      <trkpt lat="45.37462" lon="5.74998">
        <ele>494</ele>
        <time>2016-05-19T19:37:21Z</time>
      </trkpt>
      <trkpt lat="45.37457" lon="5.75">
        <ele>494</ele>
        <time>2016-05-19T19:39:21Z</time>
      </trkpt>
      <trkpt lat="45.37449" lon="5.75003">
        <ele>497</ele>
        <time>2016-05-19T19:41:21Z</time>
      </trkpt>
      <trkpt lat="45.37442" lon="5.75003">
        <ele>498</ele>
        <time>2016-05-19T19:43:21Z</time>
      </trkpt>
      <trkpt lat="45.37434" lon="5.75005">
        <ele>500</ele>
        <time>2016-05-19T19:45:21Z</time>
      </trkpt>
      <trkpt lat="45.37417" lon="5.75008">
        <ele>503</ele>
        <time>2016-05-19T19:47:21Z</time>
      </trkpt>
      <trkpt lat="45.37409" lon="5.7501">
        <ele>503</ele>
        <time>2016-05-19T19:49:21Z</time>
      </trkpt>
      <trkpt lat="45.374" lon="5.75013">
        <ele>504</ele>
        <time>2016-05-19T19:51:21Z</time>
      </trkpt>
      <trkpt lat="45.37382" lon="5.75018">
        <ele>504</ele>
        <time>2016-05-19T19:53:21Z</time>
      </trkpt>
      <trkpt lat="45.37366" lon="5.75021">
        <ele>505</ele>
        <time>2016-05-19T19:55:21Z</time>
      </trkpt>
      <trkpt lat="45.37357" lon="5.75022">
        <ele>505</ele>
        <time>2016-05-19T19:57:21Z</time>
      </trkpt>
      <trkpt lat="45.37349" lon="5.75022">
        <ele>505</ele>
        <time>2016-05-19T19:59:21Z</time>
      </trkpt>
      <trkpt lat="45.3734" lon="5.75019">
        <ele>505</ele>
        <time>2016-05-19T20:01:21Z</time>
      </trkpt>
      <trkpt lat="45.37332" lon="5.75016">
        <ele>505</ele>
        <time>2016-05-19T20:03:21Z</time>
      </trkpt>
      <trkpt lat="45.37324" lon="5.75011">
        <ele>503</ele>
        <time>2016-05-19T20:05:21Z</time>
      </trkpt>
      <trkpt lat="45.37317" lon="5.75006">
        <ele>501</ele>
        <time>2016-05-19T20:07:21Z</time>
      </trkpt>
      <trkpt lat="45.37309" lon="5.75002">
        <ele>500</ele>
        <time>2016-05-19T20:09:21Z</time>
      </trkpt>
      <trkpt lat="45.37301" lon="5.74998">
        <ele>500</ele>
        <time>2016-05-19T20:11:21Z</time>
      </trkpt>
      <trkpt lat="45.37294" lon="5.74995">
        <ele>501</ele>
        <time>2016-05-19T20:13:21Z</time>
      </trkpt>
      <trkpt lat="45.37279" lon="5.74993">
        <ele>501</ele>
        <time>2016-05-19T20:15:21Z</time>
      </trkpt>
      <trkpt lat="45.37261" lon="5.74993">
        <ele>499</ele>
        <time>2016-05-19T20:17:21Z</time>
      </trkpt>
      <trkpt lat="45.37216" lon="5.74999">
        <ele>490</ele>
        <time>2016-05-19T20:19:21Z</time>
      </trkpt>
      <trkpt lat="45.372" lon="5.75">
        <ele>487</ele>
        <time>2016-05-19T20:21:21Z</time>
      </trkpt>
      <trkpt lat="45.37186" lon="5.74998">
        <ele>486</ele>
        <time>2016-05-19T20:23:21Z</time>
      </trkpt>
      <trkpt lat="45.37172" lon="5.74993">
        <ele>487</ele>
        <time>2016-05-19T20:25:21Z</time>
      </trkpt>
      <trkpt lat="45.37148" lon="5.74983">
        <ele>491</ele>
        <time>2016-05-19T20:27:21Z</time>
      </trkpt>
      <trkpt lat="45.37122" lon="5.74968">
        <ele>496</ele>
        <time>2016-05-19T20:29:21Z</time>
      </trkpt>
      <trkpt lat="45.37111" lon="5.74957">
        <ele>499</ele>
        <time>2016-05-19T20:31:21Z</time>
      </trkpt>
      <trkpt lat="45.371" lon="5.74944">
        <ele>502</ele>
        <time>2016-05-19T20:33:21Z</time>
      </trkpt>
      <trkpt lat="45.37087" lon="5.74924">
        <ele>505</ele>
        <time>2016-05-19T20:35:21Z</time>
      </trkpt>
      <trkpt lat="45.37079" lon="5.74912">
        <ele>509</ele>
        <time>2016-05-19T20:37:21Z</time>
      </trkpt>
      <trkpt lat="45.37074" lon="5.74908">
        <ele>511</ele>
        <time>2016-05-19T20:39:21Z</time>
      </trkpt>
      <trkpt lat="45.37066" lon="5.74902">
        <ele>514</ele>
        <time>2016-05-19T20:41:21Z</time>
      </trkpt>
      <trkpt lat="45.37058" lon="5.74898">
        <ele>517</ele>
        <time>2016-05-19T20:43:21Z</time>
      </trkpt>
      <trkpt lat="45.37052" lon="5.74896">
        <ele>518</ele>
        <time>2016-05-19T20:45:21Z</time>
      </trkpt>
      <trkpt lat="45.37048" lon="5.74895">
        <ele>519</ele>
        <time>2016-05-19T20:47:21Z</time>
      </trkpt>
      <trkpt lat="45.37045" lon="5.74895">
        <ele>519</ele>
        <time>2016-05-19T20:49:21Z</time>
      </trkpt>
      <trkpt lat="45.37035" lon="5.74896">
        <ele>519</ele>
        <time>2016-05-19T20:51:21Z</time>
      </trkpt>
      <trkpt lat="45.37024" lon="5.74899">
        <ele>518</ele>
        <time>2016-05-19T20:53:21Z</time>
      </trkpt>
      <trkpt lat="45.36956" lon="5.74923">
        <ele>514</ele>
        <time>2016-05-19T20:55:21Z</time>
      </trkpt>
      <trkpt lat="45.36936" lon="5.74931">
        <ele>515</ele>
        <time>2016-05-19T20:57:21Z</time>
      </trkpt>
      <trkpt lat="45.36909" lon="5.7494">
        <ele>518</ele>
        <time>2016-05-19T20:59:21Z</time>
      </trkpt>
      <trkpt lat="45.36884" lon="5.74947">
        <ele>522</ele>
        <time>2016-05-19T21:01:21Z</time>
      </trkpt>
      <trkpt lat="45.3687" lon="5.74951">
        <ele>524</ele>
        <time>2016-05-19T21:03:21Z</time>
      </trkpt>
      <trkpt lat="45.36852" lon="5.74956">
        <ele>526</ele>
        <time>2016-05-19T21:05:21Z</time>
      </trkpt>
      <trkpt lat="45.36834" lon="5.74963">
        <ele>526</ele>
        <time>2016-05-19T21:07:21Z</time>
      </trkpt>
      <trkpt lat="45.36822" lon="5.74969">
        <ele>527</ele>
        <time>2016-05-19T21:09:21Z</time>
      </trkpt>
      <trkpt lat="45.36812" lon="5.74975">
        <ele>528</ele>
        <time>2016-05-19T21:11:21Z</time>
      </trkpt>
      <trkpt lat="45.36801" lon="5.74982">
        <ele>528</ele>
        <time>2016-05-19T21:13:21Z</time>
      </trkpt>
      <trkpt lat="45.36785" lon="5.74992">
        <ele>527</ele>
        <time>2016-05-19T21:15:21Z</time>
      </trkpt>
      <trkpt lat="45.36765" lon="5.75007">
        <ele>529</ele>
        <time>2016-05-19T21:17:21Z</time>
      </trkpt>
      <trkpt lat="45.36749" lon="5.75019">
        <ele>532</ele>
        <time>2016-05-19T21:19:21Z</time>
      </trkpt>
      <trkpt lat="45.36739" lon="5.75027">
        <ele>532</ele>
        <time>2016-05-19T21:21:21Z</time>
      </trkpt>
      <trkpt lat="45.36734" lon="5.75031">
        <ele>532</ele>
        <time>2016-05-19T21:23:21Z</time>
      </trkpt>
      <trkpt lat="45.36729" lon="5.75036">
        <ele>532</ele>
        <time>2016-05-19T21:25:21Z</time>
      </trkpt>
      <trkpt lat="45.36725" lon="5.75041">
        <ele>532</ele>
        <time>2016-05-19T21:27:21Z</time>
      </trkpt>
      <trkpt lat="45.3672" lon="5.75046">
        <ele>531</ele>
        <time>2016-05-19T21:29:21Z</time>
      </trkpt>
      <trkpt lat="45.36715" lon="5.75051">
        <ele>530</ele>
        <time>2016-05-19T21:31:21Z</time>
      </trkpt>
      <trkpt lat="45.36711" lon="5.75056">
        <ele>530</ele>
        <time>2016-05-19T21:33:21Z</time>
      </trkpt>
      <trkpt lat="45.36706" lon="5.7506">
        <ele>529</ele>
        <time>2016-05-19T21:35:21Z</time>
      </trkpt>
      <trkpt lat="45.36701" lon="5.75063">
        <ele>528</ele>
        <time>2016-05-19T21:37:21Z</time>
      </trkpt>
      <trkpt lat="45.36695" lon="5.75065">
        <ele>528</ele>
        <time>2016-05-19T21:39:21Z</time>
      </trkpt>
      <trkpt lat="45.36689" lon="5.75066">
        <ele>527</ele>
        <time>2016-05-19T21:41:21Z</time>
      </trkpt>
      <trkpt lat="45.36683" lon="5.75066">
        <ele>527</ele>
        <time>2016-05-19T21:43:21Z</time>
      </trkpt>
      <trkpt lat="45.36665" lon="5.75065">
        <ele>527</ele>
        <time>2016-05-19T21:45:21Z</time>
      </trkpt>
      <trkpt lat="45.36653" lon="5.75064">
        <ele>533</ele>
        <time>2016-05-19T21:47:21Z</time>
      </trkpt>
      <trkpt lat="45.36642" lon="5.75064">
        <ele>539</ele>
        <time>2016-05-19T21:49:21Z</time>
      </trkpt>
      <trkpt lat="45.36636" lon="5.75064">
        <ele>542</ele>
        <time>2016-05-19T21:51:21Z</time>
      </trkpt>
      <trkpt lat="45.36631" lon="5.75066">
        <ele>544</ele>
        <time>2016-05-19T21:53:21Z</time>
      </trkpt>
      <trkpt lat="45.36626" lon="5.75067">
        <ele>546</ele>
        <time>2016-05-19T21:55:21Z</time>
      </trkpt>
      <trkpt lat="45.36622" lon="5.75069">
        <ele>547</ele>
        <time>2016-05-19T21:57:21Z</time>
      </trkpt>
      <trkpt lat="45.36616" lon="5.75073">
        <ele>549</ele>
        <time>2016-05-19T21:59:21Z</time>
      </trkpt>
      <trkpt lat="45.36612" lon="5.75076">
        <ele>549</ele>
        <time>2016-05-19T22:01:21Z</time>
      </trkpt>
      <trkpt lat="45.36603" lon="5.75085">
        <ele>550</ele>
        <time>2016-05-19T22:03:21Z</time>
      </trkpt>
      <trkpt lat="45.36594" lon="5.75095">
        <ele>549</ele>
        <time>2016-05-19T22:05:21Z</time>
      </trkpt>
      <trkpt lat="45.36583" lon="5.75111">
        <ele>543</ele>
        <time>2016-05-19T22:07:21Z</time>
      </trkpt>
      <trkpt lat="45.36577" lon="5.75124">
        <ele>539</ele>
        <time>2016-05-19T22:09:21Z</time>
      </trkpt>
      <trkpt lat="45.36572" lon="5.75136">
        <ele>534</ele>
        <time>2016-05-19T22:11:21Z</time>
      </trkpt>
      <trkpt lat="45.36567" lon="5.75149">
        <ele>529</ele>
        <time>2016-05-19T22:13:21Z</time>
      </trkpt>
      <trkpt lat="45.36564" lon="5.75161">
        <ele>524</ele>
        <time>2016-05-19T22:15:21Z</time>
      </trkpt>
      <trkpt lat="45.36559" lon="5.7518">
        <ele>523</ele>
        <time>2016-05-19T22:17:21Z</time>
      </trkpt>
      <trkpt lat="45.36555" lon="5.75196">
        <ele>525</ele>
        <time>2016-05-19T22:19:21Z</time>
      </trkpt>
      <trkpt lat="45.36551" lon="5.75211">
        <ele>527</ele>
        <time>2016-05-19T22:21:21Z</time>
      </trkpt>
      <trkpt lat="45.36543" lon="5.75239">
        <ele>527</ele>
        <time>2016-05-19T22:23:21Z</time>
      </trkpt>
      <trkpt lat="45.36541" lon="5.75246">
        <ele>527</ele>
        <time>2016-05-19T22:25:21Z</time>
      </trkpt>
      <trkpt lat="45.36538" lon="5.75253">
        <ele>527</ele>
        <time>2016-05-19T22:27:21Z</time>
      </trkpt>
      <trkpt lat="45.36535" lon="5.75259">
        <ele>528</ele>
        <time>2016-05-19T22:29:21Z</time>
      </trkpt>
      <trkpt lat="45.36532" lon="5.75263">
        <ele>528</ele>
        <time>2016-05-19T22:31:21Z</time>
      </trkpt>
      <trkpt lat="45.3653" lon="5.75266">
        <ele>528</ele>
        <time>2016-05-19T22:33:21Z</time>
      </trkpt>
      <trkpt lat="45.36522" lon="5.75275">
        <ele>528</ele>
        <time>2016-05-19T22:35:21Z</time>
      </trkpt>
      <trkpt lat="45.36518" lon="5.75279">
        <ele>528</ele>
        <time>2016-05-19T22:37:21Z</time>
      </trkpt>
      <trkpt lat="45.36514" lon="5.75283">
        <ele>528</ele>
        <time>2016-05-19T22:39:21Z</time>
      </trkpt>
      <trkpt lat="45.36507" lon="5.75288">
        <ele>526</ele>
        <time>2016-05-19T22:41:21Z</time>
      </trkpt>
      <trkpt lat="45.36499" lon="5.75291">
        <ele>525</ele>
        <time>2016-05-19T22:43:21Z</time>
      </trkpt>
      <trkpt lat="45.36491" lon="5.75293">
        <ele>526</ele>
        <time>2016-05-19T22:45:21Z</time>
      </trkpt>
      <trkpt lat="45.36479" lon="5.75294">
        <ele>528</ele>
        <time>2016-05-19T22:47:21Z</time>
      </trkpt>
      <trkpt lat="45.3647" lon="5.75295">
        <ele>529</ele>
        <time>2016-05-19T22:49:21Z</time>
      </trkpt>
      <trkpt lat="45.36461" lon="5.75297">
        <ele>530</ele>
        <time>2016-05-19T22:51:21Z</time>
      </trkpt>
      <trkpt lat="45.36454" lon="5.75301">
        <ele>530</ele>
        <time>2016-05-19T22:53:21Z</time>
      </trkpt>
      <trkpt lat="45.36451" lon="5.75302">
        <ele>530</ele>
        <time>2016-05-19T22:55:21Z</time>
      </trkpt>
      <trkpt lat="45.36445" lon="5.75307">
        <ele>528</ele>
        <time>2016-05-19T22:57:21Z</time>
      </trkpt>
      <trkpt lat="45.36439" lon="5.75312">
        <ele>527</ele>
        <time>2016-05-19T22:59:21Z</time>
      </trkpt>
      <trkpt lat="45.36429" lon="5.7532">
        <ele>524</ele>
        <time>2016-05-19T23:01:21Z</time>
      </trkpt>
      <trkpt lat="45.36422" lon="5.75325">
        <ele>521</ele>
        <time>2016-05-19T23:03:21Z</time>
      </trkpt>
      <trkpt lat="45.36414" lon="5.75328">
        <ele>521</ele>
        <time>2016-05-19T23:05:21Z</time>
      </trkpt>
      <trkpt lat="45.36406" lon="5.75331">
        <ele>521</ele>
        <time>2016-05-19T23:07:21Z</time>
      </trkpt>
      <trkpt lat="45.36397" lon="5.75335">
        <ele>522</ele>
        <time>2016-05-19T23:09:21Z</time>
      </trkpt>
      <trkpt lat="45.36393" lon="5.75339">
        <ele>522</ele>
        <time>2016-05-19T23:11:21Z</time>
      </trkpt>
      <trkpt lat="45.36384" lon="5.75347">
        <ele>523</ele>
        <time>2016-05-19T23:13:21Z</time>
      </trkpt>
      <trkpt lat="45.36377" lon="5.75357">
        <ele>523</ele>
        <time>2016-05-19T23:15:21Z</time>
      </trkpt>
      <trkpt lat="45.36364" lon="5.75375">
        <ele>521</ele>
        <time>2016-05-19T23:17:21Z</time>
      </trkpt>
      <trkpt lat="45.36356" lon="5.75386">
        <ele>519</ele>
        <time>2016-05-19T23:19:21Z</time>
      </trkpt>
      <trkpt lat="45.36348" lon="5.75393">
        <ele>518</ele>
        <time>2016-05-19T23:21:21Z</time>
      </trkpt>
      <trkpt lat="45.36343" lon="5.75395">
        <ele>518</ele>
        <time>2016-05-19T23:23:21Z</time>
      </trkpt>
      <trkpt lat="45.36338" lon="5.75396">
        <ele>518</ele>
        <time>2016-05-19T23:25:21Z</time>
      </trkpt>
      <trkpt lat="45.36332" lon="5.75396">
        <ele>518</ele>
        <time>2016-05-19T23:27:21Z</time>
      </trkpt>
      <trkpt lat="45.36327" lon="5.75395">
        <ele>519</ele>
        <time>2016-05-19T23:29:21Z</time>
      </trkpt>
      <trkpt lat="45.36315" lon="5.75392">
        <ele>523</ele>
        <time>2016-05-19T23:31:21Z</time>
      </trkpt>
      <trkpt lat="45.36308" lon="5.75391">
        <ele>524</ele>
        <time>2016-05-19T23:33:21Z</time>
      </trkpt>
      <trkpt lat="45.36301" lon="5.7539">
        <ele>526</ele>
        <time>2016-05-19T23:35:21Z</time>
      </trkpt>
      <trkpt lat="45.36294" lon="5.75388">
        <ele>528</ele>
        <time>2016-05-19T23:37:21Z</time>
      </trkpt>
      <trkpt lat="45.36287" lon="5.75387">
        <ele>530</ele>
        <time>2016-05-19T23:39:21Z</time>
      </trkpt>
      <trkpt lat="45.36274" lon="5.75387">
        <ele>532</ele>
        <time>2016-05-19T23:41:21Z</time>
      </trkpt>
      <trkpt lat="45.3626" lon="5.7539">
        <ele>534</ele>
        <time>2016-05-19T23:43:21Z</time>
      </trkpt>
      <trkpt lat="45.36247" lon="5.75394">
        <ele>534</ele>
        <time>2016-05-19T23:45:21Z</time>
      </trkpt>
      <trkpt lat="45.36238" lon="5.75397">
        <ele>532</ele>
        <time>2016-05-19T23:47:21Z</time>
      </trkpt>
      <trkpt lat="45.36218" lon="5.75406">
        <ele>528</ele>
        <time>2016-05-19T23:49:21Z</time>
      </trkpt>
      <trkpt lat="45.36203" lon="5.75411">
        <ele>525</ele>
        <time>2016-05-19T23:51:21Z</time>
      </trkpt>
      <trkpt lat="45.36188" lon="5.75415">
        <ele>523</ele>
        <time>2016-05-19T23:53:21Z</time>
      </trkpt>
      <trkpt lat="45.36182" lon="5.75416">
        <ele>522</ele>
        <time>2016-05-19T23:55:21Z</time>
      </trkpt>
      <trkpt lat="45.36176" lon="5.75415">
        <ele>523</ele>
        <time>2016-05-19T23:57:21Z</time>
      </trkpt>
      <trkpt lat="45.3617" lon="5.75414">
        <ele>523</ele>
        <time>2016-05-19T23:59:21Z</time>
      </trkpt>
      <trkpt lat="45.36164" lon="5.75413">
        <ele>524</ele>
        <time>2016-05-20T00:01:21Z</time>
      </trkpt>
      <trkpt lat="45.36157" lon="5.75411">
        <ele>525</ele>
        <time>2016-05-20T00:03:21Z</time>
      </trkpt>
      <trkpt lat="45.36151" lon="5.75408">
        <ele>526</ele>
        <time>2016-05-20T00:05:21Z</time>
      </trkpt>
      <trkpt lat="45.36144" lon="5.75407">
        <ele>527</ele>
        <time>2016-05-20T00:07:21Z</time>
      </trkpt>
      <trkpt lat="45.36132" lon="5.75404">
        <ele>528</ele>
        <time>2016-05-20T00:09:21Z</time>
      </trkpt>
      <trkpt lat="45.36126" lon="5.75404">
        <ele>528</ele>
        <time>2016-05-20T00:11:21Z</time>
      </trkpt>
      <trkpt lat="45.36115" lon="5.75403">
        <ele>529</ele>
        <time>2016-05-20T00:13:21Z</time>
      </trkpt>
      <trkpt lat="45.36105" lon="5.75404">
        <ele>529</ele>
        <time>2016-05-20T00:15:21Z</time>
      </trkpt>
      <trkpt lat="45.361" lon="5.75406">
        <ele>528</ele>
        <time>2016-05-20T00:17:21Z</time>
      </trkpt>
      <trkpt lat="45.36092" lon="5.75408">
        <ele>527</ele>
        <time>2016-05-20T00:19:21Z</time>
      </trkpt>
      <trkpt lat="45.36083" lon="5.75413">
        <ele>526</ele>
        <time>2016-05-20T00:21:21Z</time>
      </trkpt>
      <trkpt lat="45.36071" lon="5.75419">
        <ele>527</ele>
        <time>2016-05-20T00:23:21Z</time>
      </trkpt>
      <trkpt lat="45.36061" lon="5.75423">
        <ele>530</ele>
        <time>2016-05-20T00:25:21Z</time>
      </trkpt>
      <trkpt lat="45.3605" lon="5.75425">
        <ele>533</ele>
        <time>2016-05-20T00:27:21Z</time>
      </trkpt>
      <trkpt lat="45.36038" lon="5.75427">
        <ele>536</ele>
        <time>2016-05-20T00:29:21Z</time>
      </trkpt>
      <trkpt lat="45.36025" lon="5.75429">
        <ele>539</ele>
        <time>2016-05-20T00:31:21Z</time>
      </trkpt>
      <trkpt lat="45.36011" lon="5.75435">
        <ele>542</ele>
        <time>2016-05-20T00:33:21Z</time>
      </trkpt>
      <trkpt lat="45.36004" lon="5.75439">
        <ele>543</ele>
        <time>2016-05-20T00:35:21Z</time>
      </trkpt>
      <trkpt lat="45.35998" lon="5.75443">
        <ele>544</ele>
        <time>2016-05-20T00:37:21Z</time>
      </trkpt>
      <trkpt lat="45.35986" lon="5.75452">
        <ele>548</ele>
        <time>2016-05-20T00:39:21Z</time>
      </trkpt>
      <trkpt lat="45.35969" lon="5.75464">
        <ele>551</ele>
        <time>2016-05-20T00:41:21Z</time>
      </trkpt>
      <trkpt lat="45.35955" lon="5.75476">
        <ele>550</ele>
        <time>2016-05-20T00:43:21Z</time>
      </trkpt>
      <trkpt lat="45.35936" lon="5.75492">
        <ele>547</ele>
        <time>2016-05-20T00:45:21Z</time>
      </trkpt>
      <trkpt lat="45.35919" lon="5.75504">
        <ele>545</ele>
        <time>2016-05-20T00:47:21Z</time>
      </trkpt>
      <trkpt lat="45.35886" lon="5.75529">
        <ele>559</ele>
        <time>2016-05-20T00:49:21Z</time>
      </trkpt>
      <trkpt lat="45.35875" lon="5.75536">
        <ele>563</ele>
        <time>2016-05-20T00:51:21Z</time>
      </trkpt>
      <trkpt lat="45.3586" lon="5.75548">
        <ele>567</ele>
        <time>2016-05-20T00:53:21Z</time>
      </trkpt>
      <trkpt lat="45.35851" lon="5.75556">
        <ele>569</ele>
        <time>2016-05-20T00:55:21Z</time>
      </trkpt>
      <trkpt lat="45.35838" lon="5.75572">
        <ele>568</ele>
        <time>2016-05-20T00:57:21Z</time>
      </trkpt>
      <trkpt lat="45.35831" lon="5.75583">
        <ele>566</ele>
        <time>2016-05-20T00:59:21Z</time>
      </trkpt>
      <trkpt lat="45.3582" lon="5.75602">
        <ele>566</ele>
        <time>2016-05-20T01:01:21Z</time>
      </trkpt>
      <trkpt lat="45.35815" lon="5.75614">
        <ele>565</ele>
        <time>2016-05-20T01:03:21Z</time>
      </trkpt>
      <trkpt lat="45.35805" lon="5.75632">
        <ele>563</ele>
        <time>2016-05-20T01:05:21Z</time>
      </trkpt>
      <trkpt lat="45.35798" lon="5.75642">
        <ele>562</ele>
        <time>2016-05-20T01:07:21Z</time>
      </trkpt>
      <trkpt lat="45.3579" lon="5.75651">
        <ele>561</ele>
        <time>2016-05-20T01:09:21Z</time>
      </trkpt>
      <trkpt lat="45.35781" lon="5.75657">
        <ele>561</ele>
        <time>2016-05-20T01:11:21Z</time>
      </trkpt>
      <trkpt lat="45.35772" lon="5.75659">
        <ele>561</ele>
        <time>2016-05-20T01:13:21Z</time>
      </trkpt>
      <trkpt lat="45.35766" lon="5.75659">
        <ele>562</ele>
        <time>2016-05-20T01:15:21Z</time>
      </trkpt>
      <trkpt lat="45.35761" lon="5.75657">
        <ele>563</ele>
        <time>2016-05-20T01:17:21Z</time>
      </trkpt>
      <trkpt lat="45.35753" lon="5.75653">
        <ele>565</ele>
        <time>2016-05-20T01:19:21Z</time>
      </trkpt>
      <trkpt lat="45.35738" lon="5.75647">
        <ele>570</ele>
        <time>2016-05-20T01:21:21Z</time>
      </trkpt>
      <trkpt lat="45.35731" lon="5.75644">
        <ele>572</ele>
        <time>2016-05-20T01:23:21Z</time>
      </trkpt>
      <trkpt lat="45.35719" lon="5.75642">
        <ele>574</ele>
        <time>2016-05-20T01:25:21Z</time>
      </trkpt>
      <trkpt lat="45.35714" lon="5.75643">
        <ele>575</ele>
        <time>2016-05-20T01:27:21Z</time>
      </trkpt>
      <trkpt lat="45.3571" lon="5.75643">
        <ele>575</ele>
        <time>2016-05-20T01:29:21Z</time>
      </trkpt>
      <trkpt lat="45.35704" lon="5.75644">
        <ele>576</ele>
        <time>2016-05-20T01:31:21Z</time>
      </trkpt>
      <trkpt lat="45.35681" lon="5.75655">
        <ele>576</ele>
        <time>2016-05-20T01:33:21Z</time>
      </trkpt>
      <trkpt lat="45.35652" lon="5.75662">
        <ele>578</ele>
        <time>2016-05-20T01:35:21Z</time>
      </trkpt>
      <trkpt lat="45.35622" lon="5.7567">
        <ele>581</ele>
        <time>2016-05-20T01:37:21Z</time>
      </trkpt>
      <trkpt lat="45.35618" lon="5.75672">
        <ele>581</ele>
        <time>2016-05-20T01:39:21Z</time>
      </trkpt>
      <trkpt lat="45.35614" lon="5.75673">
        <ele>582</ele>
        <time>2016-05-20T01:41:21Z</time>
      </trkpt>
      <trkpt lat="45.35604" lon="5.75678">
        <ele>583</ele>
        <time>2016-05-20T01:43:21Z</time>
      </trkpt>
      <trkpt lat="45.35595" lon="5.7568">
        <ele>583</ele>
        <time>2016-05-20T01:45:21Z</time>
      </trkpt>
      <trkpt lat="45.35586" lon="5.75681">
        <ele>584</ele>
        <time>2016-05-20T01:47:21Z</time>
      </trkpt>
      <trkpt lat="45.3558" lon="5.75681">
        <ele>584</ele>
        <time>2016-05-20T01:49:21Z</time>
      </trkpt>
      <trkpt lat="45.35576" lon="5.75679">
        <ele>585</ele>
        <time>2016-05-20T01:51:21Z</time>
      </trkpt>
      <trkpt lat="45.35571" lon="5.75677">
        <ele>585</ele>
        <time>2016-05-20T01:53:21Z</time>
      </trkpt>
      <trkpt lat="45.35562" lon="5.75672">
        <ele>585</ele>
        <time>2016-05-20T01:55:21Z</time>
      </trkpt>
      <trkpt lat="45.35554" lon="5.75666">
        <ele>586</ele>
        <time>2016-05-20T01:57:21Z</time>
      </trkpt>
      <trkpt lat="45.35545" lon="5.75662">
        <ele>590</ele>
        <time>2016-05-20T01:59:21Z</time>
      </trkpt>
      <trkpt lat="45.35536" lon="5.75659">
        <ele>592</ele>
        <time>2016-05-20T02:01:21Z</time>
      </trkpt>
      <trkpt lat="45.35532" lon="5.75657">
        <ele>594</ele>
        <time>2016-05-20T02:03:21Z</time>
      </trkpt>
      <trkpt lat="45.35527" lon="5.75657">
        <ele>594</ele>
        <time>2016-05-20T02:05:21Z</time>
      </trkpt>
      <trkpt lat="45.35517" lon="5.75656">
        <ele>595</ele>
        <time>2016-05-20T02:07:21Z</time>
      </trkpt>
      <trkpt lat="45.35507" lon="5.75657">
        <ele>595</ele>
        <time>2016-05-20T02:09:21Z</time>
      </trkpt>
      <trkpt lat="45.35498" lon="5.75661">
        <ele>591</ele>
        <time>2016-05-20T02:11:21Z</time>
      </trkpt>
      <trkpt lat="45.35489" lon="5.75666">
        <ele>589</ele>
        <time>2016-05-20T02:13:21Z</time>
      </trkpt>
      <trkpt lat="45.35482" lon="5.75673">
        <ele>589</ele>
        <time>2016-05-20T02:15:21Z</time>
      </trkpt>
      <trkpt lat="45.35478" lon="5.75678">
        <ele>590</ele>
        <time>2016-05-20T02:17:21Z</time>
      </trkpt>
      <trkpt lat="45.35472" lon="5.75688">
        <ele>590</ele>
        <time>2016-05-20T02:19:21Z</time>
      </trkpt>
      <trkpt lat="45.35467" lon="5.75699">
        <ele>589</ele>
        <time>2016-05-20T02:21:21Z</time>
      </trkpt>
      <trkpt lat="45.35464" lon="5.7571">
        <ele>587</ele>
        <time>2016-05-20T02:23:21Z</time>
      </trkpt>
      <trkpt lat="45.35461" lon="5.75728">
        <ele>583</ele>
        <time>2016-05-20T02:25:21Z</time>
      </trkpt>
      <trkpt lat="45.35459" lon="5.75751">
        <ele>578</ele>
        <time>2016-05-20T02:27:21Z</time>
      </trkpt>
      <trkpt lat="45.35456" lon="5.75767">
        <ele>586</ele>
        <time>2016-05-20T02:29:21Z</time>
      </trkpt>
      <trkpt lat="45.35451" lon="5.75779">
        <ele>592</ele>
        <time>2016-05-20T02:31:21Z</time>
      </trkpt>
      <trkpt lat="45.35448" lon="5.75786">
        <ele>595</ele>
        <time>2016-05-20T02:33:21Z</time>
      </trkpt>
      <trkpt lat="45.35444" lon="5.7579">
        <ele>597</ele>
        <time>2016-05-20T02:35:21Z</time>
      </trkpt>
      <trkpt lat="45.3544" lon="5.75795">
        <ele>599</ele>
        <time>2016-05-20T02:37:21Z</time>
      </trkpt>
      <trkpt lat="45.35431" lon="5.75803">
        <ele>601</ele>
        <time>2016-05-20T02:39:21Z</time>
      </trkpt>
      <trkpt lat="45.35416" lon="5.75816">
        <ele>604</ele>
        <time>2016-05-20T02:41:21Z</time>
      </trkpt>
      <trkpt lat="45.35403" lon="5.75833">
        <ele>605</ele>
        <time>2016-05-20T02:43:21Z</time>
      </trkpt>
      <trkpt lat="45.35393" lon="5.75847">
        <ele>608</ele>
        <time>2016-05-20T02:45:21Z</time>
      </trkpt>
      <trkpt lat="45.35384" lon="5.75857">
        <ele>609</ele>
        <time>2016-05-20T02:47:21Z</time>
      </trkpt>
      <trkpt lat="45.35379" lon="5.75863">
        <ele>610</ele>
        <time>2016-05-20T02:49:21Z</time>
      </trkpt>
      <trkpt lat="45.35369" lon="5.75871">
        <ele>610</ele>
        <time>2016-05-20T02:51:21Z</time>
      </trkpt>
      <trkpt lat="45.35364" lon="5.75875">
        <ele>610</ele>
        <time>2016-05-20T02:53:21Z</time>
      </trkpt>
      <trkpt lat="45.35354" lon="5.75879">
        <ele>609</ele>
        <time>2016-05-20T02:55:21Z</time>
      </trkpt>
      <trkpt lat="45.35343" lon="5.75883">
        <ele>606</ele>
        <time>2016-05-20T02:57:21Z</time>
      </trkpt>
      <trkpt lat="45.35328" lon="5.75888">
        <ele>604</ele>
        <time>2016-05-20T02:59:21Z</time>
      </trkpt>
      <trkpt lat="45.35319" lon="5.75893">
        <ele>604</ele>
        <time>2016-05-20T03:01:21Z</time>
      </trkpt>
      <trkpt lat="45.35309" lon="5.759">
        <ele>605</ele>
        <time>2016-05-20T03:03:21Z</time>
      </trkpt>
      <trkpt lat="45.35304" lon="5.75906">
        <ele>605</ele>
        <time>2016-05-20T03:05:21Z</time>
      </trkpt>
      <trkpt lat="45.35295" lon="5.75918">
        <ele>607</ele>
        <time>2016-05-20T03:07:21Z</time>
      </trkpt>
      <trkpt lat="45.3528" lon="5.75939">
        <ele>610</ele>
        <time>2016-05-20T03:09:21Z</time>
      </trkpt>
      <trkpt lat="45.35266" lon="5.75968">
        <ele>613</ele>
        <time>2016-05-20T03:11:21Z</time>
      </trkpt>
      <trkpt lat="45.35251" lon="5.76">
        <ele>614</ele>
        <time>2016-05-20T03:13:21Z</time>
      </trkpt>
      <trkpt lat="45.35239" lon="5.76022">
        <ele>618</ele>
        <time>2016-05-20T03:15:21Z</time>
      </trkpt>
      <trkpt lat="45.35226" lon="5.76043">
        <ele>621</ele>
        <time>2016-05-20T03:17:21Z</time>
      </trkpt>
      <trkpt lat="45.35199" lon="5.76086">
        <ele>627</ele>
        <time>2016-05-20T03:19:21Z</time>
      </trkpt>
      <trkpt lat="45.35193" lon="5.76098">
        <ele>627</ele>
        <time>2016-05-20T03:21:21Z</time>
      </trkpt>
      <trkpt lat="45.35181" lon="5.76121">
        <ele>626</ele>
        <time>2016-05-20T03:23:21Z</time>
      </trkpt>
      <trkpt lat="45.35176" lon="5.76134">
        <ele>625</ele>
        <time>2016-05-20T03:25:21Z</time>
      </trkpt>
      <trkpt lat="45.35168" lon="5.76156">
        <ele>623</ele>
        <time>2016-05-20T03:27:21Z</time>
      </trkpt>
      <trkpt lat="45.35165" lon="5.76168">
        <ele>623</ele>
        <time>2016-05-20T03:29:21Z</time>
      </trkpt>
      <trkpt lat="45.35163" lon="5.7618">
        <ele>623</ele>
        <time>2016-05-20T03:31:21Z</time>
      </trkpt>
      <trkpt lat="45.35162" lon="5.76192">
        <ele>624</ele>
        <time>2016-05-20T03:33:21Z</time>
      </trkpt>
      <trkpt lat="45.35162" lon="5.76205">
        <ele>624</ele>
        <time>2016-05-20T03:35:21Z</time>
      </trkpt>
      <trkpt lat="45.35162" lon="5.76217">
        <ele>625</ele>
        <time>2016-05-20T03:37:21Z</time>
      </trkpt>
      <trkpt lat="45.35164" lon="5.76228">
        <ele>626</ele>
        <time>2016-05-20T03:39:21Z</time>
      </trkpt>
      <trkpt lat="45.35166" lon="5.76238">
        <ele>627</ele>
        <time>2016-05-20T03:41:21Z</time>
      </trkpt>
      <trkpt lat="45.35168" lon="5.7625">
        <ele>629</ele>
        <time>2016-05-20T03:43:21Z</time>
      </trkpt>
      <trkpt lat="45.35172" lon="5.76259">
        <ele>630</ele>
        <time>2016-05-20T03:45:21Z</time>
      </trkpt>
      <trkpt lat="45.35176" lon="5.7627">
        <ele>631</ele>
        <time>2016-05-20T03:47:21Z</time>
      </trkpt>
      <trkpt lat="45.35183" lon="5.76288">
        <ele>633</ele>
        <time>2016-05-20T03:49:21Z</time>
      </trkpt>
      <trkpt lat="45.35189" lon="5.76307">
        <ele>635</ele>
        <time>2016-05-20T03:51:21Z</time>
      </trkpt>
      <trkpt lat="45.35191" lon="5.76319">
        <ele>635</ele>
        <time>2016-05-20T03:53:21Z</time>
      </trkpt>
      <trkpt lat="45.35195" lon="5.76339">
        <ele>636</ele>
        <time>2016-05-20T03:55:21Z</time>
      </trkpt>
      <trkpt lat="45.35197" lon="5.7635">
        <ele>638</ele>
        <time>2016-05-20T03:57:21Z</time>
      </trkpt>
      <trkpt lat="45.35201" lon="5.76373">
        <ele>642</ele>
        <time>2016-05-20T03:59:21Z</time>
      </trkpt>
      <trkpt lat="45.35202" lon="5.76383">
        <ele>643</ele>
        <time>2016-05-20T04:01:21Z</time>
      </trkpt>
      <trkpt lat="45.35203" lon="5.76394">
        <ele>644</ele>
        <time>2016-05-20T04:03:21Z</time>
      </trkpt>
      <trkpt lat="45.35203" lon="5.76405">
        <ele>645</ele>
        <time>2016-05-20T04:05:21Z</time>
      </trkpt>
      <trkpt lat="45.35202" lon="5.76417">
        <ele>645</ele>
        <time>2016-05-20T04:07:21Z</time>
      </trkpt>
      <trkpt lat="45.352" lon="5.76428">
        <ele>649</ele>
        <time>2016-05-20T04:09:21Z</time>
      </trkpt>
      <trkpt lat="45.35197" lon="5.76451">
        <ele>656</ele>
        <time>2016-05-20T04:11:21Z</time>
      </trkpt>
      <trkpt lat="45.35193" lon="5.7647">
        <ele>661</ele>
        <time>2016-05-20T04:13:21Z</time>
      </trkpt>
      <trkpt lat="45.35184" lon="5.76496">
        <ele>663</ele>
        <time>2016-05-20T04:15:21Z</time>
      </trkpt>
      <trkpt lat="45.35171" lon="5.76524">
        <ele>658</ele>
        <time>2016-05-20T04:17:21Z</time>
      </trkpt>
      <trkpt lat="45.35161" lon="5.76544">
        <ele>657</ele>
        <time>2016-05-20T04:19:21Z</time>
      </trkpt>
      <trkpt lat="45.35149" lon="5.76561">
        <ele>656</ele>
        <time>2016-05-20T04:21:21Z</time>
      </trkpt>
      <trkpt lat="45.35135" lon="5.76575">
        <ele>654</ele>
        <time>2016-05-20T04:23:21Z</time>
      </trkpt>
      <trkpt lat="45.35121" lon="5.76589">
        <ele>652</ele>
        <time>2016-05-20T04:25:21Z</time>
      </trkpt>
      <trkpt lat="45.3511" lon="5.76605">
        <ele>652</ele>
        <time>2016-05-20T04:27:21Z</time>
      </trkpt>
      <trkpt lat="45.35099" lon="5.76624">
        <ele>650</ele>
        <time>2016-05-20T04:29:21Z</time>
      </trkpt>
      <trkpt lat="45.3509" lon="5.76646">
        <ele>645</ele>
        <time>2016-05-20T04:31:21Z</time>
      </trkpt>
      <trkpt lat="45.35082" lon="5.76669">
        <ele>644</ele>
        <time>2016-05-20T04:33:21Z</time>
      </trkpt>
      <trkpt lat="45.35076" lon="5.7669">
        <ele>671</ele>
        <time>2016-05-20T04:35:21Z</time>
      </trkpt>
      <trkpt lat="45.35069" lon="5.76713">
        <ele>698</ele>
        <time>2016-05-20T04:37:21Z</time>
      </trkpt>
      <trkpt lat="45.35062" lon="5.76736">
        <ele>719</ele>
        <time>2016-05-20T04:39:21Z</time>
      </trkpt>
      <trkpt lat="45.35053" lon="5.76768">
        <ele>739</ele>
        <time>2016-05-20T04:41:21Z</time>
      </trkpt>
      <trkpt lat="45.35047" lon="5.76789">
        <ele>747</ele>
        <time>2016-05-20T04:43:21Z</time>
      </trkpt>
      <trkpt lat="45.35038" lon="5.76819">
        <ele>757</ele>
        <time>2016-05-20T04:45:21Z</time>
      </trkpt>
      <trkpt lat="45.35031" lon="5.76838">
        <ele>758</ele>
        <time>2016-05-20T04:47:21Z</time>
      </trkpt>
      <trkpt lat="45.35026" lon="5.76857">
        <ele>753</ele>
        <time>2016-05-20T04:49:21Z</time>
      </trkpt>
      <trkpt lat="45.35024" lon="5.76867">
        <ele>751</ele>
        <time>2016-05-20T04:51:21Z</time>
      </trkpt>
      <trkpt lat="45.35023" lon="5.76877">
        <ele>750</ele>
        <time>2016-05-20T04:53:21Z</time>
      </trkpt>
      <trkpt lat="45.35022" lon="5.76885">
        <ele>748</ele>
        <time>2016-05-20T04:55:21Z</time>
      </trkpt>
      <trkpt lat="45.35022" lon="5.76894">
        <ele>748</ele>
        <time>2016-05-20T04:57:21Z</time>
      </trkpt>
      <trkpt lat="45.35023" lon="5.76914">
        <ele>747</ele>
        <time>2016-05-20T04:59:21Z</time>
      </trkpt>
      <trkpt lat="45.35022" lon="5.76925">
        <ele>749</ele>
        <time>2016-05-20T05:01:21Z</time>
      </trkpt>
      <trkpt lat="45.35021" lon="5.76933">
        <ele>751</ele>
        <time>2016-05-20T05:03:21Z</time>
      </trkpt>
      <trkpt lat="45.35019" lon="5.76941">
        <ele>752</ele>
        <time>2016-05-20T05:05:21Z</time>
      </trkpt>
      <trkpt lat="45.35016" lon="5.76949">
        <ele>753</ele>
        <time>2016-05-20T05:07:21Z</time>
      </trkpt>
      <trkpt lat="45.3501" lon="5.76975">
        <ele>758</ele>
        <time>2016-05-20T05:09:21Z</time>
      </trkpt>
      <trkpt lat="45.35003" lon="5.77008">
        <ele>760</ele>
        <time>2016-05-20T05:11:21Z</time>
      </trkpt>
      <trkpt lat="45.34999" lon="5.77023">
        <ele>757</ele>
        <time>2016-05-20T05:13:21Z</time>
      </trkpt>
      <trkpt lat="45.34995" lon="5.77038">
        <ele>757</ele>
        <time>2016-05-20T05:15:21Z</time>
      </trkpt>
      <trkpt lat="45.34991" lon="5.77055">
        <ele>757</ele>
        <time>2016-05-20T05:17:21Z</time>
      </trkpt>
      <trkpt lat="45.34991" lon="5.77069">
        <ele>756</ele>
        <time>2016-05-20T05:19:21Z</time>
      </trkpt>
      <trkpt lat="45.34991" lon="5.77077">
        <ele>755</ele>
        <time>2016-05-20T05:21:21Z</time>
      </trkpt>
      <trkpt lat="45.34992" lon="5.77085">
        <ele>754</ele>
        <time>2016-05-20T05:23:21Z</time>
      </trkpt>
      <trkpt lat="45.34995" lon="5.77103">
        <ele>750</ele>
        <time>2016-05-20T05:25:21Z</time>
      </trkpt>
      <trkpt lat="45.34997" lon="5.77124">
        <ele>746</ele>
        <time>2016-05-20T05:27:21Z</time>
      </trkpt>
      <trkpt lat="45.35" lon="5.77144">
        <ele>741</ele>
        <time>2016-05-20T05:29:21Z</time>
      </trkpt>
      <trkpt lat="45.35004" lon="5.7718">
        <ele>738</ele>
        <time>2016-05-20T05:31:21Z</time>
      </trkpt>
      <trkpt lat="45.35007" lon="5.77206">
        <ele>736</ele>
        <time>2016-05-20T05:33:21Z</time>
      </trkpt>
      <trkpt lat="45.35012" lon="5.77226">
        <ele>736</ele>
        <time>2016-05-20T05:35:21Z</time>
      </trkpt>
      <trkpt lat="45.35019" lon="5.77251">
        <ele>735</ele>
        <time>2016-05-20T05:37:21Z</time>
      </trkpt>
      <trkpt lat="45.35029" lon="5.77281">
        <ele>732</ele>
        <time>2016-05-20T05:39:21Z</time>
      </trkpt>
      <trkpt lat="45.35037" lon="5.77315">
        <ele>726</ele>
        <time>2016-05-20T05:41:21Z</time>
      </trkpt>
      <trkpt lat="45.35042" lon="5.7735">
        <ele>721</ele>
        <time>2016-05-20T05:43:21Z</time>
      </trkpt>
      <trkpt lat="45.35045" lon="5.77382">
        <ele>718</ele>
        <time>2016-05-20T05:45:21Z</time>
      </trkpt>
      <trkpt lat="45.35045" lon="5.77402">
        <ele>716</ele>
        <time>2016-05-20T05:47:21Z</time>
      </trkpt>
      <trkpt lat="45.35044" lon="5.77409">
        <ele>714</ele>
        <time>2016-05-20T05:49:21Z</time>
      </trkpt>
      <trkpt lat="45.35042" lon="5.77427">
        <ele>715</ele>
        <time>2016-05-20T05:51:21Z</time>
      </trkpt>
      <trkpt lat="45.3504" lon="5.77434">
        <ele>715</ele>
        <time>2016-05-20T05:53:21Z</time>
      </trkpt>
      <trkpt lat="45.35035" lon="5.77462">
        <ele>719</ele>
        <time>2016-05-20T05:55:21Z</time>
      </trkpt>
      <trkpt lat="45.35023" lon="5.7751">
        <ele>722</ele>
        <time>2016-05-20T05:57:21Z</time>
      </trkpt>
      <trkpt lat="45.35011" lon="5.77558">
        <ele>729</ele>
        <time>2016-05-20T05:59:21Z</time>
      </trkpt>
      <trkpt lat="45.35008" lon="5.77568">
        <ele>730</ele>
        <time>2016-05-20T06:01:21Z</time>
      </trkpt>
      <trkpt lat="45.35005" lon="5.7758">
        <ele>731</ele>
        <time>2016-05-20T06:03:21Z</time>
      </trkpt>
      <trkpt lat="45.35" lon="5.77603">
        <ele>731</ele>
        <time>2016-05-20T06:05:21Z</time>
      </trkpt>
      <trkpt lat="45.34993" lon="5.77634">
        <ele>734</ele>
        <time>2016-05-20T06:07:21Z</time>
      </trkpt>
      <trkpt lat="45.3499" lon="5.77653">
        <ele>736</ele>
        <time>2016-05-20T06:09:21Z</time>
      </trkpt>
      <trkpt lat="45.34985" lon="5.77696">
        <ele>740</ele>
        <time>2016-05-20T06:11:21Z</time>
      </trkpt>
      <trkpt lat="45.34983" lon="5.77717">
        <ele>742</ele>
        <time>2016-05-20T06:13:21Z</time>
      </trkpt>
      <trkpt lat="45.34981" lon="5.77728">
        <ele>742</ele>
        <time>2016-05-20T06:15:21Z</time>
      </trkpt>
      <trkpt lat="45.34979" lon="5.77737">
        <ele>742</ele>
        <time>2016-05-20T06:17:21Z</time>
      </trkpt>
      <trkpt lat="45.34973" lon="5.77754">
        <ele>741</ele>
        <time>2016-05-20T06:19:21Z</time>
      </trkpt>
      <trkpt lat="45.34965" lon="5.77772">
        <ele>741</ele>
        <time>2016-05-20T06:21:21Z</time>
      </trkpt>
      <trkpt lat="45.34963" lon="5.77779">
        <ele>741</ele>
        <time>2016-05-20T06:23:21Z</time>
      </trkpt>
      <trkpt lat="45.34961" lon="5.77784">
        <ele>741</ele>
        <time>2016-05-20T06:25:21Z</time>
      </trkpt>
      <trkpt lat="45.3496" lon="5.7779">
        <ele>742</ele>
        <time>2016-05-20T06:27:21Z</time>
      </trkpt>
      <trkpt lat="45.34959" lon="5.77793">
        <ele>742</ele>
        <time>2016-05-20T06:29:21Z</time>
      </trkpt>
      <trkpt lat="45.34957" lon="5.77803">
        <ele>743</ele>
        <time>2016-05-20T06:31:21Z</time>
      </trkpt>
      <trkpt lat="45.34952" lon="5.77834">
        <ele>746</ele>
        <time>2016-05-20T06:33:21Z</time>
      </trkpt>
      <trkpt lat="45.34949" lon="5.77863">
        <ele>760</ele>
        <time>2016-05-20T06:35:21Z</time>
      </trkpt>
      <trkpt lat="45.34942" lon="5.77889">
        <ele>765</ele>
        <time>2016-05-20T06:37:21Z</time>
      </trkpt>
      <trkpt lat="45.34939" lon="5.77897">
        <ele>765</ele>
        <time>2016-05-20T06:39:21Z</time>
      </trkpt>
      <trkpt lat="45.34932" lon="5.77911">
        <ele>761</ele>
        <time>2016-05-20T06:41:21Z</time>
      </trkpt>
      <trkpt lat="45.34924" lon="5.77919">
        <ele>751</ele>
        <time>2016-05-20T06:43:21Z</time>
      </trkpt>
      <trkpt lat="45.34915" lon="5.77926">
        <ele>742</ele>
        <time>2016-05-20T06:45:21Z</time>
      </trkpt>
      <trkpt lat="45.34909" lon="5.77936">
        <ele>745</ele>
        <time>2016-05-20T06:47:21Z</time>
      </trkpt>
      <trkpt lat="45.34906" lon="5.77947">
        <ele>747</ele>
        <time>2016-05-20T06:49:21Z</time>
      </trkpt>
      <trkpt lat="45.34903" lon="5.77962">
        <ele>749</ele>
        <time>2016-05-20T06:51:21Z</time>
      </trkpt>
      <trkpt lat="45.349" lon="5.7798">
        <ele>750</ele>
        <time>2016-05-20T06:53:21Z</time>
      </trkpt>
      <trkpt lat="45.34896" lon="5.77997">
        <ele>750</ele>
        <time>2016-05-20T06:55:21Z</time>
      </trkpt>
      <trkpt lat="45.34892" lon="5.78011">
        <ele>750</ele>
        <time>2016-05-20T06:57:21Z</time>
      </trkpt>
      <trkpt lat="45.34889" lon="5.78022">
        <ele>751</ele>
        <time>2016-05-20T06:59:21Z</time>
      </trkpt>
      <trkpt lat="45.34886" lon="5.78041">
        <ele>753</ele>
        <time>2016-05-20T07:01:21Z</time>
      </trkpt>
      <trkpt lat="45.34883" lon="5.78058">
        <ele>755</ele>
        <time>2016-05-20T07:03:21Z</time>
      </trkpt>
      <trkpt lat="45.34882" lon="5.78074">
        <ele>757</ele>
        <time>2016-05-20T07:05:21Z</time>
      </trkpt>
      <trkpt lat="45.34882" lon="5.78092">
        <ele>757</ele>
        <time>2016-05-20T07:07:21Z</time>
      </trkpt>
      <trkpt lat="45.34878" lon="5.78109">
        <ele>752</ele>
        <time>2016-05-20T07:09:21Z</time>
      </trkpt>
      <trkpt lat="45.34876" lon="5.78117">
        <ele>750</ele>
        <time>2016-05-20T07:11:21Z</time>
      </trkpt>
      <trkpt lat="45.34875" lon="5.78124">
        <ele>749</ele>
        <time>2016-05-20T07:13:21Z</time>
      </trkpt>
      <trkpt lat="45.34874" lon="5.7813">
        <ele>748</ele>
        <time>2016-05-20T07:15:21Z</time>
      </trkpt>
      <trkpt lat="45.34874" lon="5.78138">
        <ele>746</ele>
        <time>2016-05-20T07:17:21Z</time>
      </trkpt>
      <trkpt lat="45.34874" lon="5.78146">
        <ele>745</ele>
        <time>2016-05-20T07:19:21Z</time>
      </trkpt>
      <trkpt lat="45.34876" lon="5.78155">
        <ele>745</ele>
        <time>2016-05-20T07:21:21Z</time>
      </trkpt>
      <trkpt lat="45.34878" lon="5.78162">
        <ele>744</ele>
        <time>2016-05-20T07:23:21Z</time>
      </trkpt>
      <trkpt lat="45.34881" lon="5.78168">
        <ele>744</ele>
        <time>2016-05-20T07:25:21Z</time>
      </trkpt>
      <trkpt lat="45.34889" lon="5.78176">
        <ele>745</ele>
        <time>2016-05-20T07:27:21Z</time>
      </trkpt>
      <trkpt lat="45.34898" lon="5.78185">
        <ele>745</ele>
        <time>2016-05-20T07:29:21Z</time>
      </trkpt>
      <trkpt lat="45.34914" lon="5.78193">
        <ele>747</ele>
        <time>2016-05-20T07:31:21Z</time>
      </trkpt>
      <trkpt lat="45.34939" lon="5.78202">
        <ele>759</ele>
        <time>2016-05-20T07:33:21Z</time>
      </trkpt>
      <trkpt lat="45.3495" lon="5.78205">
        <ele>765</ele>
        <time>2016-05-20T07:35:21Z</time>
      </trkpt>
      <trkpt lat="45.34967" lon="5.7821">
        <ele>774</ele>
        <time>2016-05-20T07:37:21Z</time>
      </trkpt>
      <trkpt lat="45.34976" lon="5.78215">
        <ele>778</ele>
        <time>2016-05-20T07:39:21Z</time>
      </trkpt>
      <trkpt lat="45.34987" lon="5.78224">
        <ele>781</ele>
        <time>2016-05-20T07:41:21Z</time>
      </trkpt>
      <trkpt lat="45.34995" lon="5.78232">
        <ele>783</ele>
        <time>2016-05-20T07:43:21Z</time>
      </trkpt>
      <trkpt lat="45.35001" lon="5.78243">
        <ele>782</ele>
        <time>2016-05-20T07:45:21Z</time>
      </trkpt>
      <trkpt lat="45.35005" lon="5.78254">
        <ele>780</ele>
        <time>2016-05-20T07:47:21Z</time>
      </trkpt>
      <trkpt lat="45.35007" lon="5.78266">
        <ele>779</ele>
        <time>2016-05-20T07:49:21Z</time>
      </trkpt>
      <trkpt lat="45.35009" lon="5.78279">
        <ele>777</ele>
        <time>2016-05-20T07:51:21Z</time>
      </trkpt>
      <trkpt lat="45.35008" lon="5.78301">
        <ele>772</ele>
        <time>2016-05-20T07:53:21Z</time>
      </trkpt>
      <trkpt lat="45.35009" lon="5.78317">
        <ele>770</ele>
        <time>2016-05-20T07:55:21Z</time>
      </trkpt>
      <trkpt lat="45.35012" lon="5.7833">
        <ele>769</ele>
        <time>2016-05-20T07:57:21Z</time>
      </trkpt>
      <trkpt lat="45.35019" lon="5.78348">
        <ele>773</ele>
        <time>2016-05-20T07:59:21Z</time>
      </trkpt>
      <trkpt lat="45.35023" lon="5.78362">
        <ele>776</ele>
        <time>2016-05-20T08:01:21Z</time>
      </trkpt>
      <trkpt lat="45.3503" lon="5.78381">
        <ele>780</ele>
        <time>2016-05-20T08:03:21Z</time>
      </trkpt>
      <trkpt lat="45.35034" lon="5.78397">
        <ele>782</ele>
        <time>2016-05-20T08:05:21Z</time>
      </trkpt>
      <trkpt lat="45.35037" lon="5.78408">
        <ele>784</ele>
        <time>2016-05-20T08:07:21Z</time>
      </trkpt>
      <trkpt lat="45.35043" lon="5.78427">
        <ele>787</ele>
        <time>2016-05-20T08:09:21Z</time>
      </trkpt>
      <trkpt lat="45.35048" lon="5.78437">
        <ele>789</ele>
        <time>2016-05-20T08:11:21Z</time>
      </trkpt>
      <trkpt lat="45.3505" lon="5.78442">
        <ele>789</ele>
        <time>2016-05-20T08:13:21Z</time>
      </trkpt>
      <trkpt lat="45.35053" lon="5.78447">
        <ele>790</ele>
        <time>2016-05-20T08:15:21Z</time>
      </trkpt>
      <trkpt lat="45.35061" lon="5.78458">
        <ele>791</ele>
        <time>2016-05-20T08:17:21Z</time>
      </trkpt>
      <trkpt lat="45.35066" lon="5.78465">
        <ele>791</ele>
        <time>2016-05-20T08:19:21Z</time>
      </trkpt>
      <trkpt lat="45.3507" lon="5.78474">
        <ele>790</ele>
        <time>2016-05-20T08:21:21Z</time>
      </trkpt>
      <trkpt lat="45.3507" lon="5.78474">
        <ele>790</ele>
        <time>2016-05-20T08:23:21Z</time>
      </trkpt>
      <trkpt lat="45.3507" lon="5.78481">
        <ele>789</ele>
        <time>2016-05-20T08:25:21Z</time>
      </trkpt>
      <trkpt lat="45.35069" lon="5.78486">
        <ele>788</ele>
        <time>2016-05-20T08:27:21Z</time>
      </trkpt>
      <trkpt lat="45.35065" lon="5.78495">
        <ele>787</ele>
        <time>2016-05-20T08:29:21Z</time>
      </trkpt>
      <trkpt lat="45.35062" lon="5.78499">
        <ele>786</ele>
        <time>2016-05-20T08:31:21Z</time>
      </trkpt>
      <trkpt lat="45.3506" lon="5.78503">
        <ele>787</ele>
        <time>2016-05-20T08:33:21Z</time>
      </trkpt>
      <trkpt lat="45.35056" lon="5.78507">
        <ele>788</ele>
        <time>2016-05-20T08:35:21Z</time>
      </trkpt>
      <trkpt lat="45.35052" lon="5.78509">
        <ele>788</ele>
        <time>2016-05-20T08:37:21Z</time>
      </trkpt>
      <trkpt lat="45.35047" lon="5.78512">
        <ele>789</ele>
        <time>2016-05-20T08:39:21Z</time>
      </trkpt>
      <trkpt lat="45.35041" lon="5.78514">
        <ele>790</ele>
        <time>2016-05-20T08:41:21Z</time>
      </trkpt>
      <trkpt lat="45.35032" lon="5.78513">
        <ele>791</ele>
        <time>2016-05-20T08:43:21Z</time>
      </trkpt>
      <trkpt lat="45.35021" lon="5.78508">
        <ele>790</ele>
        <time>2016-05-20T08:45:21Z</time>
      </trkpt>
      <trkpt lat="45.35015" lon="5.78504">
        <ele>789</ele>
        <time>2016-05-20T08:47:21Z</time>
      </trkpt>
      <trkpt lat="45.35004" lon="5.78495">
        <ele>788</ele>
        <time>2016-05-20T08:49:21Z</time>
      </trkpt>
      <trkpt lat="45.34987" lon="5.78479">
        <ele>785</ele>
        <time>2016-05-20T08:51:21Z</time>
      </trkpt>
      <trkpt lat="45.3497" lon="5.78461">
        <ele>784</ele>
        <time>2016-05-20T08:53:21Z</time>
      </trkpt>
      <trkpt lat="45.3495" lon="5.78434">
        <ele>780</ele>
        <time>2016-05-20T08:55:21Z</time>
      </trkpt>
      <trkpt lat="45.34939" lon="5.78411">
        <ele>775</ele>
        <time>2016-05-20T08:57:21Z</time>
      </trkpt>
      <trkpt lat="45.34932" lon="5.78399">
        <ele>772</ele>
        <time>2016-05-20T08:59:21Z</time>
      </trkpt>
      <trkpt lat="45.34929" lon="5.78393">
        <ele>771</ele>
        <time>2016-05-20T09:01:21Z</time>
      </trkpt>
      <trkpt lat="45.34925" lon="5.78388">
        <ele>770</ele>
        <time>2016-05-20T09:03:21Z</time>
      </trkpt>
      <trkpt lat="45.34921" lon="5.78384">
        <ele>769</ele>
        <time>2016-05-20T09:05:21Z</time>
      </trkpt>
      <trkpt lat="45.34916" lon="5.78381">
        <ele>768</ele>
        <time>2016-05-20T09:07:21Z</time>
      </trkpt>
      <trkpt lat="45.34906" lon="5.7838">
        <ele>766</ele>
        <time>2016-05-20T09:09:21Z</time>
      </trkpt>
      <trkpt lat="45.34898" lon="5.78383">
        <ele>765</ele>
        <time>2016-05-20T09:11:21Z</time>
      </trkpt>
      <trkpt lat="45.34893" lon="5.78389">
        <ele>767</ele>
        <time>2016-05-20T09:13:21Z</time>
      </trkpt>
      <trkpt lat="45.34885" lon="5.78399">
        <ele>769</ele>
        <time>2016-05-20T09:15:21Z</time>
      </trkpt>
      <trkpt lat="45.34873" lon="5.78419">
        <ele>773</ele>
        <time>2016-05-20T09:17:21Z</time>
      </trkpt>
      <trkpt lat="45.34863" lon="5.78432">
        <ele>773</ele>
        <time>2016-05-20T09:19:21Z</time>
      </trkpt>
      <trkpt lat="45.34853" lon="5.78444">
        <ele>772</ele>
        <time>2016-05-20T09:21:21Z</time>
      </trkpt>
      <trkpt lat="45.34844" lon="5.78458">
        <ele>771</ele>
        <time>2016-05-20T09:23:21Z</time>
      </trkpt>
      <trkpt lat="45.34837" lon="5.78473">
        <ele>771</ele>
        <time>2016-05-20T09:25:21Z</time>
      </trkpt>
      <trkpt lat="45.3483" lon="5.78491">
        <ele>770</ele>
        <time>2016-05-20T09:27:21Z</time>
      </trkpt>
      <trkpt lat="45.34823" lon="5.78509">
        <ele>770</ele>
        <time>2016-05-20T09:29:21Z</time>
      </trkpt>
      <trkpt lat="45.3482" lon="5.78519">
        <ele>769</ele>
        <time>2016-05-20T09:31:21Z</time>
      </trkpt>
      <trkpt lat="45.34815" lon="5.78539">
        <ele>769</ele>
        <time>2016-05-20T09:33:21Z</time>
      </trkpt>
      <trkpt lat="45.3481" lon="5.7856">
        <ele>768</ele>
        <time>2016-05-20T09:35:21Z</time>
      </trkpt>
      <trkpt lat="45.34808" lon="5.7857">
        <ele>768</ele>
        <time>2016-05-20T09:37:21Z</time>
      </trkpt>
      <trkpt lat="45.34805" lon="5.78593">
        <ele>769</ele>
        <time>2016-05-20T09:39:21Z</time>
      </trkpt>
      <trkpt lat="45.34803" lon="5.78604">
        <ele>770</ele>
        <time>2016-05-20T09:41:21Z</time>
      </trkpt>
      <trkpt lat="45.34799" lon="5.78626">
        <ele>770</ele>
        <time>2016-05-20T09:43:21Z</time>
      </trkpt>
      <trkpt lat="45.34796" lon="5.7865">
        <ele>772</ele>
        <time>2016-05-20T09:45:21Z</time>
      </trkpt>
      <trkpt lat="45.34795" lon="5.78661">
        <ele>772</ele>
        <time>2016-05-20T09:47:21Z</time>
      </trkpt>
      <trkpt lat="45.34794" lon="5.78673">
        <ele>773</ele>
        <time>2016-05-20T09:49:21Z</time>
      </trkpt>
      <trkpt lat="45.34793" lon="5.78697">
        <ele>774</ele>
        <time>2016-05-20T09:51:21Z</time>
      </trkpt>
      <trkpt lat="45.34793" lon="5.78709">
        <ele>774</ele>
        <time>2016-05-20T09:53:21Z</time>
      </trkpt>
      <trkpt lat="45.34794" lon="5.78733">
        <ele>776</ele>
        <time>2016-05-20T09:55:21Z</time>
      </trkpt>
      <trkpt lat="45.34794" lon="5.78756">
        <ele>776</ele>
        <time>2016-05-20T09:57:21Z</time>
      </trkpt>
      <trkpt lat="45.34794" lon="5.78777">
        <ele>776</ele>
        <time>2016-05-20T09:59:21Z</time>
      </trkpt>
      <trkpt lat="45.34795" lon="5.78798">
        <ele>776</ele>
        <time>2016-05-20T10:01:21Z</time>
      </trkpt>
      <trkpt lat="45.34795" lon="5.78808">
        <ele>776</ele>
        <time>2016-05-20T10:03:21Z</time>
      </trkpt>
      <trkpt lat="45.34796" lon="5.78818">
        <ele>776</ele>
        <time>2016-05-20T10:05:21Z</time>
      </trkpt>
      <trkpt lat="45.34798" lon="5.78827">
        <ele>777</ele>
        <time>2016-05-20T10:07:21Z</time>
      </trkpt>
      <trkpt lat="45.348" lon="5.78837">
        <ele>777</ele>
        <time>2016-05-20T10:09:21Z</time>
      </trkpt>
      <trkpt lat="45.34805" lon="5.78856">
        <ele>780</ele>
        <time>2016-05-20T10:11:21Z</time>
      </trkpt>
      <trkpt lat="45.34811" lon="5.78876">
        <ele>783</ele>
        <time>2016-05-20T10:13:21Z</time>
      </trkpt>
      <trkpt lat="45.34816" lon="5.78895">
        <ele>786</ele>
        <time>2016-05-20T10:15:21Z</time>
      </trkpt>
      <trkpt lat="45.34822" lon="5.78914">
        <ele>790</ele>
        <time>2016-05-20T10:17:21Z</time>
      </trkpt>
      <trkpt lat="45.34828" lon="5.78934">
        <ele>792</ele>
        <time>2016-05-20T10:19:21Z</time>
      </trkpt>
      <trkpt lat="45.34834" lon="5.78953">
        <ele>794</ele>
        <time>2016-05-20T10:21:21Z</time>
      </trkpt>
      <trkpt lat="45.34837" lon="5.78964">
        <ele>794</ele>
        <time>2016-05-20T10:23:21Z</time>
      </trkpt>
      <trkpt lat="45.34843" lon="5.78981">
        <ele>796</ele>
        <time>2016-05-20T10:25:21Z</time>
      </trkpt>
      <trkpt lat="45.34846" lon="5.78989">
        <ele>797</ele>
        <time>2016-05-20T10:27:21Z</time>
      </trkpt>
      <trkpt lat="45.34848" lon="5.78999">
        <ele>797</ele>
        <time>2016-05-20T10:29:21Z</time>
      </trkpt>
      <trkpt lat="45.3485" lon="5.79008">
        <ele>798</ele>
        <time>2016-05-20T10:31:21Z</time>
      </trkpt>
      <trkpt lat="45.34851" lon="5.79018">
        <ele>799</ele>
        <time>2016-05-20T10:33:21Z</time>
      </trkpt>
      <trkpt lat="45.34851" lon="5.79028">
        <ele>799</ele>
        <time>2016-05-20T10:35:21Z</time>
      </trkpt>
      <trkpt lat="45.34849" lon="5.79037">
        <ele>798</ele>
        <time>2016-05-20T10:37:21Z</time>
      </trkpt>
      <trkpt lat="45.34848" lon="5.79046">
        <ele>798</ele>
        <time>2016-05-20T10:39:21Z</time>
      </trkpt>
      <trkpt lat="45.34845" lon="5.79056">
        <ele>797</ele>
        <time>2016-05-20T10:41:21Z</time>
      </trkpt>
      <trkpt lat="45.34842" lon="5.79065">
        <ele>795</ele>
        <time>2016-05-20T10:43:21Z</time>
      </trkpt>
      <trkpt lat="45.34838" lon="5.79075">
        <ele>793</ele>
        <time>2016-05-20T10:45:21Z</time>
      </trkpt>
      <trkpt lat="45.34834" lon="5.79084">
        <ele>792</ele>
        <time>2016-05-20T10:47:21Z</time>
      </trkpt>
      <trkpt lat="45.34829" lon="5.79092">
        <ele>792</ele>
        <time>2016-05-20T10:49:21Z</time>
      </trkpt>
      <trkpt lat="45.34823" lon="5.79101">
        <ele>793</ele>
        <time>2016-05-20T10:51:21Z</time>
      </trkpt>
      <trkpt lat="45.34816" lon="5.79108">
        <ele>793</ele>
        <time>2016-05-20T10:53:21Z</time>
      </trkpt>
      <trkpt lat="45.3481" lon="5.79115">
        <ele>793</ele>
        <time>2016-05-20T10:55:21Z</time>
      </trkpt>
      <trkpt lat="45.34802" lon="5.79123">
        <ele>793</ele>
        <time>2016-05-20T10:57:21Z</time>
      </trkpt>
      <trkpt lat="45.34795" lon="5.7913">
        <ele>793</ele>
        <time>2016-05-20T10:59:21Z</time>
      </trkpt>
      <trkpt lat="45.34781" lon="5.79146">
        <ele>794</ele>
        <time>2016-05-20T11:01:21Z</time>
      </trkpt>
      <trkpt lat="45.34774" lon="5.79153">
        <ele>794</ele>
        <time>2016-05-20T11:03:21Z</time>
      </trkpt>
      <trkpt lat="45.3476" lon="5.79166">
        <ele>793</ele>
        <time>2016-05-20T11:05:21Z</time>
      </trkpt>
      <trkpt lat="45.34753" lon="5.79172">
        <ele>793</ele>
        <time>2016-05-20T11:07:21Z</time>
      </trkpt>
      <trkpt lat="45.34745" lon="5.79178">
        <ele>792</ele>
        <time>2016-05-20T11:09:21Z</time>
      </trkpt>
      <trkpt lat="45.34739" lon="5.79183">
        <ele>791</ele>
        <time>2016-05-20T11:11:21Z</time>
      </trkpt>
      <trkpt lat="45.34732" lon="5.7919">
        <ele>790</ele>
        <time>2016-05-20T11:13:21Z</time>
      </trkpt>
      <trkpt lat="45.34726" lon="5.79198">
        <ele>790</ele>
        <time>2016-05-20T11:15:21Z</time>
      </trkpt>
      <trkpt lat="45.34721" lon="5.79206">
        <ele>790</ele>
        <time>2016-05-20T11:17:21Z</time>
      </trkpt>
      <trkpt lat="45.34715" lon="5.79216">
        <ele>789</ele>
        <time>2016-05-20T11:19:21Z</time>
      </trkpt>
      <trkpt lat="45.3471" lon="5.79226">
        <ele>789</ele>
        <time>2016-05-20T11:21:21Z</time>
      </trkpt>
      <trkpt lat="45.34706" lon="5.79237">
        <ele>790</ele>
        <time>2016-05-20T11:23:21Z</time>
      </trkpt>
      <trkpt lat="45.34703" lon="5.79248">
        <ele>790</ele>
        <time>2016-05-20T11:25:21Z</time>
      </trkpt>
      <trkpt lat="45.34701" lon="5.79259">
        <ele>791</ele>
        <time>2016-05-20T11:27:21Z</time>
      </trkpt>
      <trkpt lat="45.34699" lon="5.79271">
        <ele>791</ele>
        <time>2016-05-20T11:29:21Z</time>
      </trkpt>
      <trkpt lat="45.34697" lon="5.79282">
        <ele>791</ele>
        <time>2016-05-20T11:31:21Z</time>
      </trkpt>
      <trkpt lat="45.34696" lon="5.79293">
        <ele>792</ele>
        <time>2016-05-20T11:33:21Z</time>
      </trkpt>
      <trkpt lat="45.34694" lon="5.79306">
        <ele>792</ele>
        <time>2016-05-20T11:35:21Z</time>
      </trkpt>
      <trkpt lat="45.34691" lon="5.79316">
        <ele>791</ele>
        <time>2016-05-20T11:37:21Z</time>
      </trkpt>
      <trkpt lat="45.34684" lon="5.79335">
        <ele>790</ele>
        <time>2016-05-20T11:39:21Z</time>
      </trkpt>
      <trkpt lat="45.34676" lon="5.79353">
        <ele>786</ele>
        <time>2016-05-20T11:41:21Z</time>
      </trkpt>
      <trkpt lat="45.34672" lon="5.79362">
        <ele>784</ele>
        <time>2016-05-20T11:43:21Z</time>
      </trkpt>
      <trkpt lat="45.3467" lon="5.79372">
        <ele>783</ele>
        <time>2016-05-20T11:45:21Z</time>
      </trkpt>
      <trkpt lat="45.34667" lon="5.79391">
        <ele>783</ele>
        <time>2016-05-20T11:47:21Z</time>
      </trkpt>
      <trkpt lat="45.34666" lon="5.794">
        <ele>783</ele>
        <time>2016-05-20T11:49:21Z</time>
      </trkpt>
      <trkpt lat="45.34666" lon="5.7941">
        <ele>783</ele>
        <time>2016-05-20T11:51:21Z</time>
      </trkpt>
      <trkpt lat="45.34667" lon="5.79417">
        <ele>784</ele>
        <time>2016-05-20T11:53:21Z</time>
      </trkpt>
      <trkpt lat="45.34664" lon="5.79438">
        <ele>792</ele>
        <time>2016-05-20T11:55:21Z</time>
      </trkpt>
      <trkpt lat="45.34662" lon="5.79457">
        <ele>799</ele>
        <time>2016-05-20T11:57:21Z</time>
      </trkpt>
      <trkpt lat="45.3466" lon="5.7947">
        <ele>803</ele>
        <time>2016-05-20T11:59:21Z</time>
      </trkpt>
      <trkpt lat="45.34655" lon="5.79483">
        <ele>805</ele>
        <time>2016-05-20T12:01:21Z</time>
      </trkpt>
      <trkpt lat="45.34647" lon="5.79495">
        <ele>804</ele>
        <time>2016-05-20T12:03:21Z</time>
      </trkpt>
      <trkpt lat="45.34637" lon="5.79502">
        <ele>799</ele>
        <time>2016-05-20T12:05:21Z</time>
      </trkpt>
      <trkpt lat="45.34627" lon="5.7951">
        <ele>795</ele>
        <time>2016-05-20T12:07:21Z</time>
      </trkpt>
      <trkpt lat="45.34623" lon="5.79516">
        <ele>794</ele>
        <time>2016-05-20T12:09:21Z</time>
      </trkpt>
      <trkpt lat="45.34619" lon="5.79522">
        <ele>794</ele>
        <time>2016-05-20T12:11:21Z</time>
      </trkpt>
      <trkpt lat="45.34612" lon="5.79535">
        <ele>793</ele>
        <time>2016-05-20T12:13:21Z</time>
      </trkpt>
      <trkpt lat="45.34606" lon="5.79548">
        <ele>793</ele>
        <time>2016-05-20T12:15:21Z</time>
      </trkpt>
      <trkpt lat="45.34602" lon="5.79556">
        <ele>792</ele>
        <time>2016-05-20T12:17:21Z</time>
      </trkpt>
      <trkpt lat="45.34595" lon="5.7957">
        <ele>792</ele>
        <time>2016-05-20T12:19:21Z</time>
      </trkpt>
      <trkpt lat="45.34588" lon="5.79586">
        <ele>792</ele>
        <time>2016-05-20T12:21:21Z</time>
      </trkpt>
      <trkpt lat="45.34578" lon="5.7961">
        <ele>794</ele>
        <time>2016-05-20T12:23:21Z</time>
      </trkpt>
      <trkpt lat="45.34572" lon="5.7963">
        <ele>797</ele>
        <time>2016-05-20T12:25:21Z</time>
      </trkpt>
      <trkpt lat="45.34566" lon="5.79648">
        <ele>799</ele>
        <time>2016-05-20T12:27:21Z</time>
      </trkpt>
      <trkpt lat="45.34557" lon="5.79677">
        <ele>802</ele>
        <time>2016-05-20T12:29:21Z</time>
      </trkpt>
      <trkpt lat="45.34554" lon="5.79687">
        <ele>802</ele>
        <time>2016-05-20T12:31:21Z</time>
      </trkpt>
      <trkpt lat="45.34549" lon="5.79706">
        <ele>803</ele>
        <time>2016-05-20T12:33:21Z</time>
      </trkpt>
      <trkpt lat="45.34546" lon="5.79716">
        <ele>803</ele>
        <time>2016-05-20T12:35:21Z</time>
      </trkpt>
      <trkpt lat="45.3454" lon="5.79735">
        <ele>802</ele>
        <time>2016-05-20T12:37:21Z</time>
      </trkpt>
      <trkpt lat="45.34538" lon="5.79744">
        <ele>802</ele>
        <time>2016-05-20T12:39:21Z</time>
      </trkpt>
      <trkpt lat="45.34535" lon="5.79753">
        <ele>801</ele>
        <time>2016-05-20T12:41:21Z</time>
      </trkpt>
      <trkpt lat="45.34531" lon="5.79762">
        <ele>802</ele>
        <time>2016-05-20T12:43:21Z</time>
      </trkpt>
      <trkpt lat="45.34523" lon="5.79778">
        <ele>801</ele>
        <time>2016-05-20T12:45:21Z</time>
      </trkpt>
      <trkpt lat="45.34514" lon="5.79791">
        <ele>799</ele>
        <time>2016-05-20T12:47:21Z</time>
      </trkpt>
      <trkpt lat="45.34509" lon="5.79798">
        <ele>797</ele>
        <time>2016-05-20T12:49:21Z</time>
      </trkpt>
      <trkpt lat="45.34494" lon="5.79814">
        <ele>795</ele>
        <time>2016-05-20T12:51:21Z</time>
      </trkpt>
      <trkpt lat="45.34447" lon="5.79872">
        <ele>812</ele>
        <time>2016-05-20T12:53:21Z</time>
      </trkpt>
      <trkpt lat="45.34436" lon="5.79885">
        <ele>813</ele>
        <time>2016-05-20T12:55:21Z</time>
      </trkpt>
      <trkpt lat="45.34431" lon="5.79891">
        <ele>813</ele>
        <time>2016-05-20T12:57:21Z</time>
      </trkpt>
      <trkpt lat="45.34425" lon="5.79899">
        <ele>812</ele>
        <time>2016-05-20T12:59:21Z</time>
      </trkpt>
      <trkpt lat="45.34422" lon="5.79904">
        <ele>812</ele>
        <time>2016-05-20T13:01:21Z</time>
      </trkpt>
      <trkpt lat="45.3442" lon="5.79909">
        <ele>812</ele>
        <time>2016-05-20T13:03:21Z</time>
      </trkpt>
      <trkpt lat="45.34417" lon="5.79917">
        <ele>812</ele>
        <time>2016-05-20T13:05:21Z</time>
      </trkpt>
      <trkpt lat="45.34416" lon="5.79924">
        <ele>817</ele>
        <time>2016-05-20T13:07:21Z</time>
      </trkpt>
      <trkpt lat="45.34411" lon="5.79944">
        <ele>831</ele>
        <time>2016-05-20T13:09:21Z</time>
      </trkpt>
      <trkpt lat="45.3441" lon="5.79954">
        <ele>837</ele>
        <time>2016-05-20T13:11:21Z</time>
      </trkpt>
      <trkpt lat="45.34408" lon="5.79968">
        <ele>845</ele>
        <time>2016-05-20T13:13:21Z</time>
      </trkpt>
      <trkpt lat="45.34408" lon="5.79984">
        <ele>852</ele>
        <time>2016-05-20T13:15:21Z</time>
      </trkpt>
      <trkpt lat="45.34408" lon="5.80009">
        <ele>855</ele>
        <time>2016-05-20T13:17:21Z</time>
      </trkpt>
      <trkpt lat="45.3441" lon="5.80034">
        <ele>844</ele>
        <time>2016-05-20T13:19:21Z</time>
      </trkpt>
      <trkpt lat="45.3441" lon="5.8005">
        <ele>837</ele>
        <time>2016-05-20T13:21:21Z</time>
      </trkpt>
      <trkpt lat="45.34409" lon="5.80058">
        <ele>834</ele>
        <time>2016-05-20T13:23:21Z</time>
      </trkpt>
      <trkpt lat="45.34406" lon="5.80065">
        <ele>832</ele>
        <time>2016-05-20T13:25:21Z</time>
      </trkpt>
      <trkpt lat="45.34403" lon="5.80071">
        <ele>830</ele>
        <time>2016-05-20T13:27:21Z</time>
      </trkpt>
      <trkpt lat="45.34395" lon="5.80082">
        <ele>827</ele>
        <time>2016-05-20T13:29:21Z</time>
      </trkpt>
      <trkpt lat="45.34392" lon="5.80087">
        <ele>827</ele>
        <time>2016-05-20T13:31:21Z</time>
      </trkpt>
      <trkpt lat="45.3439" lon="5.8009">
        <ele>827</ele>
        <time>2016-05-20T13:33:21Z</time>
      </trkpt>
      <trkpt lat="45.34387" lon="5.80095">
        <ele>826</ele>
        <time>2016-05-20T13:35:21Z</time>
      </trkpt>
      <trkpt lat="45.34385" lon="5.80099">
        <ele>825</ele>
        <time>2016-05-20T13:37:21Z</time>
      </trkpt>
      <trkpt lat="45.34383" lon="5.80105">
        <ele>824</ele>
        <time>2016-05-20T13:39:21Z</time>
      </trkpt>
      <trkpt lat="45.34382" lon="5.80109">
        <ele>824</ele>
        <time>2016-05-20T13:41:21Z</time>
      </trkpt>
      <trkpt lat="45.34381" lon="5.80116">
        <ele>822</ele>
        <time>2016-05-20T13:43:21Z</time>
      </trkpt>
      <trkpt lat="45.3438" lon="5.80122">
        <ele>821</ele>
        <time>2016-05-20T13:45:21Z</time>
      </trkpt>
      <trkpt lat="45.34378" lon="5.80134">
        <ele>818</ele>
        <time>2016-05-20T13:47:21Z</time>
      </trkpt>
      <trkpt lat="45.34377" lon="5.80149">
        <ele>815</ele>
        <time>2016-05-20T13:49:21Z</time>
      </trkpt>
      <trkpt lat="45.34375" lon="5.80163">
        <ele>811</ele>
        <time>2016-05-20T13:51:21Z</time>
      </trkpt>
      <trkpt lat="45.34372" lon="5.80177">
        <ele>811</ele>
        <time>2016-05-20T13:53:21Z</time>
      </trkpt>
      <trkpt lat="45.34371" lon="5.80184">
        <ele>811</ele>
        <time>2016-05-20T13:55:21Z</time>
      </trkpt>
      <trkpt lat="45.34368" lon="5.80191">
        <ele>811</ele>
        <time>2016-05-20T13:57:21Z</time>
      </trkpt>
      <trkpt lat="45.34365" lon="5.80196">
        <ele>811</ele>
        <time>2016-05-20T13:59:21Z</time>
      </trkpt>
      <trkpt lat="45.34359" lon="5.80206">
        <ele>811</ele>
        <time>2016-05-20T14:01:21Z</time>
      </trkpt>
      <trkpt lat="45.3435" lon="5.80215">
        <ele>811</ele>
        <time>2016-05-20T14:03:21Z</time>
      </trkpt>
      <trkpt lat="45.34342" lon="5.80224">
        <ele>810</ele>
        <time>2016-05-20T14:05:21Z</time>
      </trkpt>
      <trkpt lat="45.34334" lon="5.80235">
        <ele>808</ele>
        <time>2016-05-20T14:07:21Z</time>
      </trkpt>
      <trkpt lat="45.34326" lon="5.80246">
        <ele>809</ele>
        <time>2016-05-20T14:09:21Z</time>
      </trkpt>
      <trkpt lat="45.34319" lon="5.80259">
        <ele>812</ele>
        <time>2016-05-20T14:11:21Z</time>
      </trkpt>
      <trkpt lat="45.34312" lon="5.8027">
        <ele>815</ele>
        <time>2016-05-20T14:13:21Z</time>
      </trkpt>
      <trkpt lat="45.34308" lon="5.80276">
        <ele>816</ele>
        <time>2016-05-20T14:15:21Z</time>
      </trkpt>
      <trkpt lat="45.34304" lon="5.80281">
        <ele>817</ele>
        <time>2016-05-20T14:17:21Z</time>
      </trkpt>
      <trkpt lat="45.34301" lon="5.80286">
        <ele>817</ele>
        <time>2016-05-20T14:19:21Z</time>
      </trkpt>
      <trkpt lat="45.34296" lon="5.80291">
        <ele>818</ele>
        <time>2016-05-20T14:21:21Z</time>
      </trkpt>
      <trkpt lat="45.34292" lon="5.80295">
        <ele>818</ele>
        <time>2016-05-20T14:23:21Z</time>
      </trkpt>
      <trkpt lat="45.34281" lon="5.803">
        <ele>817</ele>
        <time>2016-05-20T14:25:21Z</time>
      </trkpt>
      <trkpt lat="45.34262" lon="5.80311">
        <ele>814</ele>
        <time>2016-05-20T14:27:21Z</time>
      </trkpt>
      <trkpt lat="45.34241" lon="5.80322">
        <ele>811</ele>
        <time>2016-05-20T14:29:21Z</time>
      </trkpt>
      <trkpt lat="45.34229" lon="5.8033">
        <ele>811</ele>
        <time>2016-05-20T14:31:21Z</time>
      </trkpt>
      <trkpt lat="45.34217" lon="5.80338">
        <ele>814</ele>
        <time>2016-05-20T14:33:21Z</time>
      </trkpt>
      <trkpt lat="45.34205" lon="5.80345">
        <ele>817</ele>
        <time>2016-05-20T14:35:21Z</time>
      </trkpt>
      <trkpt lat="45.34192" lon="5.80353">
        <ele>820</ele>
        <time>2016-05-20T14:37:21Z</time>
      </trkpt>
      <trkpt lat="45.34173" lon="5.80365">
        <ele>821</ele>
        <time>2016-05-20T14:39:21Z</time>
      </trkpt>
      <trkpt lat="45.3416" lon="5.80373">
        <ele>822</ele>
        <time>2016-05-20T14:41:21Z</time>
      </trkpt>
      <trkpt lat="45.34146" lon="5.80382">
        <ele>823</ele>
        <time>2016-05-20T14:43:21Z</time>
      </trkpt>
      <trkpt lat="45.34127" lon="5.80394">
        <ele>822</ele>
        <time>2016-05-20T14:45:21Z</time>
      </trkpt>
      <trkpt lat="45.34107" lon="5.80407">
        <ele>819</ele>
        <time>2016-05-20T14:47:21Z</time>
      </trkpt>
      <trkpt lat="45.34096" lon="5.80417">
        <ele>816</ele>
        <time>2016-05-20T14:49:21Z</time>
      </trkpt>
      <trkpt lat="45.34089" lon="5.80423">
        <ele>816</ele>
        <time>2016-05-20T14:51:21Z</time>
      </trkpt>
      <trkpt lat="45.34079" lon="5.80434">
        <ele>817</ele>
        <time>2016-05-20T14:53:21Z</time>
      </trkpt>
      <trkpt lat="45.34071" lon="5.80444">
        <ele>819</ele>
        <time>2016-05-20T14:55:21Z</time>
      </trkpt>
      <trkpt lat="45.34064" lon="5.80456">
        <ele>820</ele>
        <time>2016-05-20T14:57:21Z</time>
      </trkpt>
      <trkpt lat="45.34052" lon="5.80477">
        <ele>820</ele>
        <time>2016-05-20T14:59:21Z</time>
      </trkpt>
      <trkpt lat="45.34043" lon="5.80493">
        <ele>819</ele>
        <time>2016-05-20T15:01:21Z</time>
      </trkpt>
      <trkpt lat="45.34039" lon="5.805">
        <ele>818</ele>
        <time>2016-05-20T15:03:21Z</time>
      </trkpt>
      <trkpt lat="45.3403" lon="5.80514">
        <ele>815</ele>
        <time>2016-05-20T15:05:21Z</time>
      </trkpt>
      <trkpt lat="45.34025" lon="5.80521">
        <ele>813</ele>
        <time>2016-05-20T15:07:21Z</time>
      </trkpt>
      <trkpt lat="45.3402" lon="5.80527">
        <ele>811</ele>
        <time>2016-05-20T15:09:21Z</time>
      </trkpt>
      <trkpt lat="45.34013" lon="5.80537">
        <ele>808</ele>
        <time>2016-05-20T15:11:21Z</time>
      </trkpt>
      <trkpt lat="45.34006" lon="5.80545">
        <ele>805</ele>
        <time>2016-05-20T15:13:21Z</time>
      </trkpt>
      <trkpt lat="45.33999" lon="5.80551">
        <ele>803</ele>
        <time>2016-05-20T15:15:21Z</time>
      </trkpt>
      <trkpt lat="45.33987" lon="5.8056">
        <ele>801</ele>
        <time>2016-05-20T15:17:21Z</time>
      </trkpt>
      <trkpt lat="45.33978" lon="5.80567">
        <ele>800</ele>
        <time>2016-05-20T15:19:21Z</time>
      </trkpt>
      <trkpt lat="45.33974" lon="5.80571">
        <ele>799</ele>
        <time>2016-05-20T15:21:21Z</time>
      </trkpt>
      <trkpt lat="45.33971" lon="5.80575">
        <ele>799</ele>
        <time>2016-05-20T15:23:21Z</time>
      </trkpt>
      <trkpt lat="45.33968" lon="5.80579">
        <ele>798</ele>
        <time>2016-05-20T15:25:21Z</time>
      </trkpt>
      <trkpt lat="45.33966" lon="5.80586">
        <ele>797</ele>
        <time>2016-05-20T15:27:21Z</time>
      </trkpt>
      <trkpt lat="45.33964" lon="5.80595">
        <ele>798</ele>
        <time>2016-05-20T15:29:21Z</time>
      </trkpt>
      <trkpt lat="45.33965" lon="5.80609">
        <ele>798</ele>
        <time>2016-05-20T15:31:21Z</time>
      </trkpt>
      <trkpt lat="45.33968" lon="5.80627">
        <ele>799</ele>
        <time>2016-05-20T15:33:21Z</time>
      </trkpt>
      <trkpt lat="45.33969" lon="5.8064">
        <ele>799</ele>
        <time>2016-05-20T15:35:21Z</time>
      </trkpt>
      <trkpt lat="45.33971" lon="5.80652">
        <ele>800</ele>
        <time>2016-05-20T15:37:21Z</time>
      </trkpt>
      <trkpt lat="45.33972" lon="5.80668">
        <ele>800</ele>
        <time>2016-05-20T15:39:21Z</time>
      </trkpt>
      <trkpt lat="45.33975" lon="5.80689">
        <ele>800</ele>
        <time>2016-05-20T15:41:21Z</time>
      </trkpt>
      <trkpt lat="45.3398" lon="5.80726">
        <ele>801</ele>
        <time>2016-05-20T15:43:21Z</time>
      </trkpt>
      <trkpt lat="45.33983" lon="5.80752">
        <ele>802</ele>
        <time>2016-05-20T15:45:21Z</time>
      </trkpt>
      <trkpt lat="45.33986" lon="5.80776">
        <ele>804</ele>
        <time>2016-05-20T15:47:21Z</time>
      </trkpt>
      <trkpt lat="45.33986" lon="5.80776">
        <ele>804</ele>
        <time>2016-05-20T15:49:21Z</time>
      </trkpt>
      <trkpt lat="45.33978" lon="5.80773">
        <ele>805</ele>
        <time>2016-05-20T15:51:21Z</time>
      </trkpt>
      <trkpt lat="45.33968" lon="5.8077">
        <ele>805</ele>
        <time>2016-05-20T15:53:21Z</time>
      </trkpt>
      <trkpt lat="45.33961" lon="5.80766">
        <ele>805</ele>
        <time>2016-05-20T15:55:21Z</time>
      </trkpt>
      <trkpt lat="45.33944" lon="5.80758">
        <ele>805</ele>
        <time>2016-05-20T15:57:21Z</time>
      </trkpt>
      <trkpt lat="45.33934" lon="5.80753">
        <ele>804</ele>
        <time>2016-05-20T15:59:21Z</time>
      </trkpt>
      <trkpt lat="45.33932" lon="5.80752">
        <ele>803</ele>
        <time>2016-05-20T16:01:21Z</time>
      </trkpt>
      <trkpt lat="45.33927" lon="5.8075">
        <ele>803</ele>
        <time>2016-05-20T16:03:21Z</time>
      </trkpt>
      <trkpt lat="45.33914" lon="5.8075">
        <ele>803</ele>
        <time>2016-05-20T16:05:21Z</time>
      </trkpt>
      <trkpt lat="45.33872" lon="5.8075">
        <ele>810</ele>
        <time>2016-05-20T16:07:21Z</time>
      </trkpt>
      <trkpt lat="45.33857" lon="5.80748">
        <ele>812</ele>
        <time>2016-05-20T16:09:21Z</time>
      </trkpt>
      <trkpt lat="45.33848" lon="5.80746">
        <ele>813</ele>
        <time>2016-05-20T16:11:21Z</time>
      </trkpt>
      <trkpt lat="45.33811" lon="5.80727">
        <ele>814</ele>
        <time>2016-05-20T16:13:21Z</time>
      </trkpt>
      <trkpt lat="45.33808" lon="5.80726">
        <ele>814</ele>
        <time>2016-05-20T16:15:21Z</time>
      </trkpt>
      <trkpt lat="45.3376" lon="5.80717">
        <ele>816</ele>
        <time>2016-05-20T16:17:21Z</time>
      </trkpt>
      <trkpt lat="45.33667" lon="5.80708">
        <ele>816</ele>
        <time>2016-05-20T16:19:21Z</time>
      </trkpt>
      <trkpt lat="45.33652" lon="5.80708">
        <ele>815</ele>
        <time>2016-05-20T16:21:21Z</time>
      </trkpt>
      <trkpt lat="45.3364" lon="5.80707">
        <ele>814</ele>
        <time>2016-05-20T16:23:21Z</time>
      </trkpt>
      <trkpt lat="45.33579" lon="5.80729">
        <ele>813</ele>
        <time>2016-05-20T16:25:21Z</time>
      </trkpt>
      <trkpt lat="45.33515" lon="5.80752">
        <ele>817</ele>
        <time>2016-05-20T16:27:21Z</time>
      </trkpt>
      <trkpt lat="45.33493" lon="5.80756">
        <ele>819</ele>
        <time>2016-05-20T16:29:21Z</time>
      </trkpt>
      <trkpt lat="45.33482" lon="5.80756">
        <ele>819</ele>
        <time>2016-05-20T16:31:21Z</time>
      </trkpt>
      <trkpt lat="45.33471" lon="5.80754">
        <ele>820</ele>
        <time>2016-05-20T16:33:21Z</time>
      </trkpt>
      <trkpt lat="45.33432" lon="5.8074">
        <ele>820</ele>
        <time>2016-05-20T16:35:21Z</time>
      </trkpt>
      <trkpt lat="45.33371" lon="5.80714">
        <ele>819</ele>
        <time>2016-05-20T16:37:21Z</time>
      </trkpt>
      <trkpt lat="45.33365" lon="5.8071">
        <ele>819</ele>
        <time>2016-05-20T16:39:21Z</time>
      </trkpt>
      <trkpt lat="45.33342" lon="5.80688">
        <ele>819</ele>
        <time>2016-05-20T16:41:21Z</time>
      </trkpt>
      <trkpt lat="45.33316" lon="5.80659">
        <ele>822</ele>
        <time>2016-05-20T16:43:21Z</time>
      </trkpt>
      <trkpt lat="45.33311" lon="5.80653">
        <ele>824</ele>
        <time>2016-05-20T16:45:21Z</time>
      </trkpt>
      <trkpt lat="45.33304" lon="5.80647">
        <ele>826</ele>
        <time>2016-05-20T16:47:21Z</time>
      </trkpt>
      <trkpt lat="45.33289" lon="5.80635">
        <ele>829</ele>
        <time>2016-05-20T16:49:21Z</time>
      </trkpt>
      <trkpt lat="45.33257" lon="5.80612">
        <ele>834</ele>
        <time>2016-05-20T16:51:21Z</time>
      </trkpt>
      <trkpt lat="45.33257" lon="5.80612">
        <ele>834</ele>
        <time>2016-05-20T16:53:21Z</time>
      </trkpt>
      <trkpt lat="45.33247" lon="5.80646">
        <ele>824</ele>
        <time>2016-05-20T16:55:21Z</time>
      </trkpt>
      <trkpt lat="45.33239" lon="5.80671">
        <ele>821</ele>
        <time>2016-05-20T16:57:21Z</time>
      </trkpt>
      <trkpt lat="45.33232" lon="5.80695">
        <ele>825</ele>
        <time>2016-05-20T16:59:21Z</time>
      </trkpt>
      <trkpt lat="45.33228" lon="5.80706">
        <ele>828</ele>
        <time>2016-05-20T17:01:21Z</time>
      </trkpt>
      <trkpt lat="45.33226" lon="5.80718">
        <ele>830</ele>
        <time>2016-05-20T17:03:21Z</time>
      </trkpt>
      <trkpt lat="45.33225" lon="5.80725">
        <ele>831</ele>
        <time>2016-05-20T17:05:21Z</time>
      </trkpt>
      <trkpt lat="45.33225" lon="5.80733">
        <ele>832</ele>
        <time>2016-05-20T17:07:21Z</time>
      </trkpt>
      <trkpt lat="45.33226" lon="5.80741">
        <ele>833</ele>
        <time>2016-05-20T17:09:21Z</time>
      </trkpt>
      <trkpt lat="45.33226" lon="5.80748">
        <ele>834</ele>
        <time>2016-05-20T17:11:21Z</time>
      </trkpt>
      <trkpt lat="45.33227" lon="5.80756">
        <ele>834</ele>
        <time>2016-05-20T17:13:21Z</time>
      </trkpt>
      <trkpt lat="45.33227" lon="5.80763">
        <ele>835</ele>
        <time>2016-05-20T17:15:21Z</time>
      </trkpt>
      <trkpt lat="45.33227" lon="5.80771">
        <ele>835</ele>
        <time>2016-05-20T17:17:21Z</time>
      </trkpt>
      <trkpt lat="45.33226" lon="5.80779">
        <ele>836</ele>
        <time>2016-05-20T17:19:21Z</time>
      </trkpt>
      <trkpt lat="45.33224" lon="5.80786">
        <ele>837</ele>
        <time>2016-05-20T17:21:21Z</time>
      </trkpt>
      <trkpt lat="45.33222" lon="5.80793">
        <ele>837</ele>
        <time>2016-05-20T17:23:21Z</time>
      </trkpt>
      <trkpt lat="45.3322" lon="5.80798">
        <ele>838</ele>
        <time>2016-05-20T17:25:21Z</time>
      </trkpt>
      <trkpt lat="45.33217" lon="5.80804">
        <ele>838</ele>
        <time>2016-05-20T17:27:21Z</time>
      </trkpt>
      <trkpt lat="45.33213" lon="5.80809">
        <ele>839</ele>
        <time>2016-05-20T17:29:21Z</time>
      </trkpt>
      <trkpt lat="45.33209" lon="5.80812">
        <ele>839</ele>
        <time>2016-05-20T17:31:21Z</time>
      </trkpt>
      <trkpt lat="45.33204" lon="5.80815">
        <ele>839</ele>
        <time>2016-05-20T17:33:21Z</time>
      </trkpt>
      <trkpt lat="45.33199" lon="5.80816">
        <ele>840</ele>
        <time>2016-05-20T17:35:21Z</time>
      </trkpt>
      <trkpt lat="45.33193" lon="5.80817">
        <ele>840</ele>
        <time>2016-05-20T17:37:21Z</time>
      </trkpt>
      <trkpt lat="45.33187" lon="5.80817">
        <ele>840</ele>
        <time>2016-05-20T17:39:21Z</time>
      </trkpt>
      <trkpt lat="45.33181" lon="5.80816">
        <ele>841</ele>
        <time>2016-05-20T17:41:21Z</time>
      </trkpt>
      <trkpt lat="45.33175" lon="5.80815">
        <ele>841</ele>
        <time>2016-05-20T17:43:21Z</time>
      </trkpt>
      <trkpt lat="45.33167" lon="5.80814">
        <ele>842</ele>
        <time>2016-05-20T17:45:21Z</time>
      </trkpt>
      <trkpt lat="45.3316" lon="5.80812">
        <ele>843</ele>
        <time>2016-05-20T17:47:21Z</time>
      </trkpt>
      <trkpt lat="45.33153" lon="5.80808">
        <ele>844</ele>
        <time>2016-05-20T17:49:21Z</time>
      </trkpt>
      <trkpt lat="45.33146" lon="5.80803">
        <ele>845</ele>
        <time>2016-05-20T17:51:21Z</time>
      </trkpt>
      <trkpt lat="45.3314" lon="5.80798">
        <ele>847</ele>
        <time>2016-05-20T17:53:21Z</time>
      </trkpt>
      <trkpt lat="45.33133" lon="5.80794">
        <ele>848</ele>
        <time>2016-05-20T17:55:21Z</time>
      </trkpt>
      <trkpt lat="45.33126" lon="5.80789">
        <ele>850</ele>
        <time>2016-05-20T17:57:21Z</time>
      </trkpt>
      <trkpt lat="45.3312" lon="5.80786">
        <ele>851</ele>
        <time>2016-05-20T17:59:21Z</time>
      </trkpt>
      <trkpt lat="45.33113" lon="5.80784">
        <ele>852</ele>
        <time>2016-05-20T18:01:21Z</time>
      </trkpt>
      <trkpt lat="45.33106" lon="5.80784">
        <ele>854</ele>
        <time>2016-05-20T18:03:21Z</time>
      </trkpt>
      <trkpt lat="45.33099" lon="5.80784">
        <ele>855</ele>
        <time>2016-05-20T18:05:21Z</time>
      </trkpt>
      <trkpt lat="45.33093" lon="5.80786">
        <ele>855</ele>
        <time>2016-05-20T18:07:21Z</time>
      </trkpt>
      <trkpt lat="45.33086" lon="5.80789">
        <ele>856</ele>
        <time>2016-05-20T18:09:21Z</time>
      </trkpt>
      <trkpt lat="45.33079" lon="5.80793">
        <ele>857</ele>
        <time>2016-05-20T18:11:21Z</time>
      </trkpt>
      <trkpt lat="45.33073" lon="5.80798">
        <ele>857</ele>
        <time>2016-05-20T18:13:21Z</time>
      </trkpt>
      <trkpt lat="45.33067" lon="5.80804">
        <ele>858</ele>
        <time>2016-05-20T18:15:21Z</time>
      </trkpt>
      <trkpt lat="45.33061" lon="5.80809">
        <ele>858</ele>
        <time>2016-05-20T18:17:21Z</time>
      </trkpt>
      <trkpt lat="45.33055" lon="5.80816">
        <ele>858</ele>
        <time>2016-05-20T18:19:21Z</time>
      </trkpt>
      <trkpt lat="45.33044" lon="5.80828">
        <ele>858</ele>
        <time>2016-05-20T18:21:21Z</time>
      </trkpt>
      <trkpt lat="45.33039" lon="5.80834">
        <ele>858</ele>
        <time>2016-05-20T18:23:21Z</time>
      </trkpt>
      <trkpt lat="45.33034" lon="5.80839">
        <ele>859</ele>
        <time>2016-05-20T18:25:21Z</time>
      </trkpt>
      <trkpt lat="45.33028" lon="5.80842">
        <ele>859</ele>
        <time>2016-05-20T18:27:21Z</time>
      </trkpt>
      <trkpt lat="45.33022" lon="5.80844">
        <ele>860</ele>
        <time>2016-05-20T18:29:21Z</time>
      </trkpt>
      <trkpt lat="45.33016" lon="5.80845">
        <ele>861</ele>
        <time>2016-05-20T18:31:21Z</time>
      </trkpt>
      <trkpt lat="45.3301" lon="5.80845">
        <ele>862</ele>
        <time>2016-05-20T18:33:21Z</time>
      </trkpt>
      <trkpt lat="45.33003" lon="5.80844">
        <ele>863</ele>
        <time>2016-05-20T18:35:21Z</time>
      </trkpt>
      <trkpt lat="45.32997" lon="5.80842">
        <ele>864</ele>
        <time>2016-05-20T18:37:21Z</time>
      </trkpt>
      <trkpt lat="45.3299" lon="5.80839">
        <ele>864</ele>
        <time>2016-05-20T18:39:21Z</time>
      </trkpt>
      <trkpt lat="45.32982" lon="5.80836">
        <ele>864</ele>
        <time>2016-05-20T18:41:21Z</time>
      </trkpt>
      <trkpt lat="45.32975" lon="5.80833">
        <ele>864</ele>
        <time>2016-05-20T18:43:21Z</time>
      </trkpt>
      <trkpt lat="45.32967" lon="5.80829">
        <ele>864</ele>
        <time>2016-05-20T18:45:21Z</time>
      </trkpt>
      <trkpt lat="45.32959" lon="5.80826">
        <ele>865</ele>
        <time>2016-05-20T18:47:21Z</time>
      </trkpt>
      <trkpt lat="45.32951" lon="5.80822">
        <ele>865</ele>
        <time>2016-05-20T18:49:21Z</time>
      </trkpt>
      <trkpt lat="45.32942" lon="5.80819">
        <ele>865</ele>
        <time>2016-05-20T18:51:21Z</time>
      </trkpt>
      <trkpt lat="45.32934" lon="5.80815">
        <ele>866</ele>
        <time>2016-05-20T18:53:21Z</time>
      </trkpt>
      <trkpt lat="45.32916" lon="5.80807">
        <ele>866</ele>
        <time>2016-05-20T18:55:21Z</time>
      </trkpt>
      <trkpt lat="45.32898" lon="5.808">
        <ele>867</ele>
        <time>2016-05-20T18:57:21Z</time>
      </trkpt>
      <trkpt lat="45.3289" lon="5.80795">
        <ele>867</ele>
        <time>2016-05-20T18:59:21Z</time>
      </trkpt>
      <trkpt lat="45.32882" lon="5.8079">
        <ele>867</ele>
        <time>2016-05-20T19:01:21Z</time>
      </trkpt>
      <trkpt lat="45.32873" lon="5.80783">
        <ele>868</ele>
        <time>2016-05-20T19:03:21Z</time>
      </trkpt>
      <trkpt lat="45.32865" lon="5.80776">
        <ele>868</ele>
        <time>2016-05-20T19:05:21Z</time>
      </trkpt>
      <trkpt lat="45.32858" lon="5.80768">
        <ele>869</ele>
        <time>2016-05-20T19:07:21Z</time>
      </trkpt>
      <trkpt lat="45.3285" lon="5.80759">
        <ele>870</ele>
        <time>2016-05-20T19:09:21Z</time>
      </trkpt>
      <trkpt lat="45.32843" lon="5.8075">
        <ele>870</ele>
        <time>2016-05-20T19:11:21Z</time>
      </trkpt>
      <trkpt lat="45.32836" lon="5.80742">
        <ele>870</ele>
        <time>2016-05-20T19:13:21Z</time>
      </trkpt>
      <trkpt lat="45.32828" lon="5.80734">
        <ele>870</ele>
        <time>2016-05-20T19:15:21Z</time>
      </trkpt>
      <trkpt lat="45.32821" lon="5.80726">
        <ele>870</ele>
        <time>2016-05-20T19:17:21Z</time>
      </trkpt>
      <trkpt lat="45.32813" lon="5.80719">
        <ele>870</ele>
        <time>2016-05-20T19:19:21Z</time>
      </trkpt>
      <trkpt lat="45.32806" lon="5.80713">
        <ele>870</ele>
        <time>2016-05-20T19:21:21Z</time>
      </trkpt>
      <trkpt lat="45.32798" lon="5.80707">
        <ele>871</ele>
        <time>2016-05-20T19:23:21Z</time>
      </trkpt>
      <trkpt lat="45.3279" lon="5.80702">
        <ele>871</ele>
        <time>2016-05-20T19:25:21Z</time>
      </trkpt>
      <trkpt lat="45.32779" lon="5.80698">
        <ele>871</ele>
        <time>2016-05-20T19:27:21Z</time>
      </trkpt>
      <trkpt lat="45.32744" lon="5.80689">
        <ele>871</ele>
        <time>2016-05-20T19:29:21Z</time>
      </trkpt>
      <trkpt lat="45.32732" lon="5.80687">
        <ele>872</ele>
        <time>2016-05-20T19:31:21Z</time>
      </trkpt>
      <trkpt lat="45.32722" lon="5.80685">
        <ele>873</ele>
        <time>2016-05-20T19:33:21Z</time>
      </trkpt>
      <trkpt lat="45.32707" lon="5.80683">
        <ele>874</ele>
        <time>2016-05-20T19:35:21Z</time>
      </trkpt>
      <trkpt lat="45.32698" lon="5.80682">
        <ele>875</ele>
        <time>2016-05-20T19:37:21Z</time>
      </trkpt>
      <trkpt lat="45.32685" lon="5.80681">
        <ele>876</ele>
        <time>2016-05-20T19:39:21Z</time>
      </trkpt>
      <trkpt lat="45.32632" lon="5.8068">
        <ele>876</ele>
        <time>2016-05-20T19:41:21Z</time>
      </trkpt>
      <trkpt lat="45.3254" lon="5.80677">
        <ele>877</ele>
        <time>2016-05-20T19:43:21Z</time>
      </trkpt>
      <trkpt lat="45.32497" lon="5.80674">
        <ele>879</ele>
        <time>2016-05-20T19:45:21Z</time>
      </trkpt>
      <trkpt lat="45.32494" lon="5.80673">
        <ele>879</ele>
        <time>2016-05-20T19:47:21Z</time>
      </trkpt>
      <trkpt lat="45.32469" lon="5.80671">
        <ele>880</ele>
        <time>2016-05-20T19:49:21Z</time>
      </trkpt>
      <trkpt lat="45.32425" lon="5.80658">
        <ele>882</ele>
        <time>2016-05-20T19:51:21Z</time>
      </trkpt>
      <trkpt lat="45.32375" lon="5.8065">
        <ele>885</ele>
        <time>2016-05-20T19:53:21Z</time>
      </trkpt>
      <trkpt lat="45.3237" lon="5.80649">
        <ele>885</ele>
        <time>2016-05-20T19:55:21Z</time>
      </trkpt>
      <trkpt lat="45.3234" lon="5.80644">
        <ele>887</ele>
        <time>2016-05-20T19:57:21Z</time>
      </trkpt>
      <trkpt lat="45.32328" lon="5.80644">
        <ele>888</ele>
        <time>2016-05-20T19:59:21Z</time>
      </trkpt>
      <trkpt lat="45.3229" lon="5.80646">
        <ele>889</ele>
        <time>2016-05-20T20:01:21Z</time>
      </trkpt>
      <trkpt lat="45.32256" lon="5.80651">
        <ele>890</ele>
        <time>2016-05-20T20:03:21Z</time>
      </trkpt>
      <trkpt lat="45.3223" lon="5.80652">
        <ele>891</ele>
        <time>2016-05-20T20:05:21Z</time>
      </trkpt>
      <trkpt lat="45.32225" lon="5.80652">
        <ele>891</ele>
        <time>2016-05-20T20:07:21Z</time>
      </trkpt>
      <trkpt lat="45.32225" lon="5.80652">
        <ele>891</ele>
        <time>2016-05-20T20:09:21Z</time>
      </trkpt>
      <trkpt lat="45.32139" lon="5.80652">
        <ele>893</ele>
        <time>2016-05-20T20:11:21Z</time>
      </trkpt>
      <trkpt lat="45.32079" lon="5.80651">
        <ele>894</ele>
        <time>2016-05-20T20:13:21Z</time>
      </trkpt>
      <trkpt lat="45.32046" lon="5.80651">
        <ele>894</ele>
        <time>2016-05-20T20:15:21Z</time>
      </trkpt>
      <trkpt lat="45.32041" lon="5.80651">
        <ele>893</ele>
        <time>2016-05-20T20:17:21Z</time>
      </trkpt>
      <trkpt lat="45.31993" lon="5.80654">
        <ele>893</ele>
        <time>2016-05-20T20:19:21Z</time>
      </trkpt>
      <trkpt lat="45.31961" lon="5.80656">
        <ele>894</ele>
        <time>2016-05-20T20:21:21Z</time>
      </trkpt>
      <trkpt lat="45.31953" lon="5.80658">
        <ele>895</ele>
        <time>2016-05-20T20:23:21Z</time>
      </trkpt>
      <trkpt lat="45.31944" lon="5.8066">
        <ele>895</ele>
        <time>2016-05-20T20:25:21Z</time>
      </trkpt>
      <trkpt lat="45.31932" lon="5.80664">
        <ele>895</ele>
        <time>2016-05-20T20:27:21Z</time>
      </trkpt>
      <trkpt lat="45.31927" lon="5.80665">
        <ele>896</ele>
        <time>2016-05-20T20:29:21Z</time>
      </trkpt>
      <trkpt lat="45.3192" lon="5.80666">
        <ele>896</ele>
        <time>2016-05-20T20:31:21Z</time>
      </trkpt>
      <trkpt lat="45.3192" lon="5.80666">
        <ele>896</ele>
        <time>2016-05-20T20:33:21Z</time>
      </trkpt>
      <trkpt lat="45.31917" lon="5.80663">
        <ele>896</ele>
        <time>2016-05-20T20:35:21Z</time>
      </trkpt>
      <trkpt lat="45.31915" lon="5.80662">
        <ele>896</ele>
        <time>2016-05-20T20:37:21Z</time>
      </trkpt>
      <trkpt lat="45.3191" lon="5.80662">
        <ele>897</ele>
        <time>2016-05-20T20:39:21Z</time>
      </trkpt>
      <trkpt lat="45.31893" lon="5.8066">
        <ele>897</ele>
        <time>2016-05-20T20:41:21Z</time>
      </trkpt>
      <trkpt lat="45.31875" lon="5.8066">
        <ele>898</ele>
        <time>2016-05-20T20:43:21Z</time>
      </trkpt>
      <trkpt lat="45.31864" lon="5.8066">
        <ele>898</ele>
        <time>2016-05-20T20:45:21Z</time>
      </trkpt>
      <trkpt lat="45.31843" lon="5.80668">
        <ele>899</ele>
        <time>2016-05-20T20:47:21Z</time>
      </trkpt>
      <trkpt lat="45.31835" lon="5.80676">
        <ele>898</ele>
        <time>2016-05-20T20:49:21Z</time>
      </trkpt>
      <trkpt lat="45.31829" lon="5.80688">
        <ele>897</ele>
        <time>2016-05-20T20:51:21Z</time>
      </trkpt>
      <trkpt lat="45.31826" lon="5.807">
        <ele>896</ele>
        <time>2016-05-20T20:53:21Z</time>
      </trkpt>
      <trkpt lat="45.31827" lon="5.80709">
        <ele>896</ele>
        <time>2016-05-20T20:55:21Z</time>
      </trkpt>
      <trkpt lat="45.31819" lon="5.80737">
        <ele>895</ele>
        <time>2016-05-20T20:57:21Z</time>
      </trkpt>
      <trkpt lat="45.3182" lon="5.80744">
        <ele>894</ele>
        <time>2016-05-20T20:59:21Z</time>
      </trkpt>
      <trkpt lat="45.31818" lon="5.80765">
        <ele>895</ele>
        <time>2016-05-20T21:01:21Z</time>
      </trkpt>
      <trkpt lat="45.31816" lon="5.8079">
        <ele>896</ele>
        <time>2016-05-20T21:03:21Z</time>
      </trkpt>
      <trkpt lat="45.31816" lon="5.8079">
        <ele>896</ele>
        <time>2016-05-20T21:05:21Z</time>
      </trkpt>
      <trkpt lat="45.31815" lon="5.80801">
        <ele>896</ele>
        <time>2016-05-20T21:07:21Z</time>
      </trkpt>
      <trkpt lat="45.31816" lon="5.80816">
        <ele>897</ele>
        <time>2016-05-20T21:09:21Z</time>
      </trkpt>
      <trkpt lat="45.3182" lon="5.80828">
        <ele>897</ele>
        <time>2016-05-20T21:11:21Z</time>
      </trkpt>
      <trkpt lat="45.31827" lon="5.80842">
        <ele>898</ele>
        <time>2016-05-20T21:13:21Z</time>
      </trkpt>
      <trkpt lat="45.31835" lon="5.80849">
        <ele>898</ele>
        <time>2016-05-20T21:15:21Z</time>
      </trkpt>
      <trkpt lat="45.31851" lon="5.80858">
        <ele>899</ele>
        <time>2016-05-20T21:17:21Z</time>
      </trkpt>
      <trkpt lat="45.31886" lon="5.80871">
        <ele>900</ele>
        <time>2016-05-20T21:19:21Z</time>
      </trkpt>
      <trkpt lat="45.3189" lon="5.80872">
        <ele>900</ele>
        <time>2016-05-20T21:21:21Z</time>
      </trkpt>
      <trkpt lat="45.31913" lon="5.80874">
        <ele>900</ele>
        <time>2016-05-20T21:23:21Z</time>
      </trkpt>
      <trkpt lat="45.31927" lon="5.80877">
        <ele>900</ele>
        <time>2016-05-20T21:25:21Z</time>
      </trkpt>
      <trkpt lat="45.31935" lon="5.80882">
        <ele>900</ele>
        <time>2016-05-20T21:27:21Z</time>
      </trkpt>
      <trkpt lat="45.31941" lon="5.80888">
        <ele>900</ele>
        <time>2016-05-20T21:29:21Z</time>
      </trkpt>
      <trkpt lat="45.31945" lon="5.80899">
        <ele>901</ele>
        <time>2016-05-20T21:31:21Z</time>
      </trkpt>
      <trkpt lat="45.31946" lon="5.80908">
        <ele>902</ele>
        <time>2016-05-20T21:33:21Z</time>
      </trkpt>
      <trkpt lat="45.31946" lon="5.80908">
        <ele>902</ele>
        <time>2016-05-20T21:35:21Z</time>
      </trkpt>
      <trkpt lat="45.31954" lon="5.8091">
        <ele>902</ele>
        <time>2016-05-20T21:37:21Z</time>
      </trkpt>
      <trkpt lat="45.31954" lon="5.8091">
        <ele>902</ele>
        <time>2016-05-20T21:39:21Z</time>
      </trkpt>
      <trkpt lat="45.3198" lon="5.80916">
        <ele>901</ele>
        <time>2016-05-20T21:41:21Z</time>
      </trkpt>
      <trkpt lat="45.31993" lon="5.80917">
        <ele>901</ele>
        <time>2016-05-20T21:43:21Z</time>
      </trkpt>
      <trkpt lat="45.31999" lon="5.80917">
        <ele>900</ele>
        <time>2016-05-20T21:45:21Z</time>
      </trkpt>
      <trkpt lat="45.31999" lon="5.80917">
        <ele>900</ele>
        <time>2016-05-20T21:47:21Z</time>
      </trkpt>
      <trkpt lat="45.32014" lon="5.80917">
        <ele>899</ele>
        <time>2016-05-20T21:49:21Z</time>
      </trkpt>
      <trkpt lat="45.32039" lon="5.80912">
        <ele>897</ele>
        <time>2016-05-20T21:51:21Z</time>
      </trkpt>
      <trkpt lat="45.32056" lon="5.80911">
        <ele>895</ele>
        <time>2016-05-20T21:53:21Z</time>
      </trkpt>
      <trkpt lat="45.32062" lon="5.80912">
        <ele>895</ele>
        <time>2016-05-20T21:55:21Z</time>
      </trkpt>
      <trkpt lat="45.32067" lon="5.80913">
        <ele>895</ele>
        <time>2016-05-20T21:57:21Z</time>
      </trkpt>
      <trkpt lat="45.32082" lon="5.80918">
        <ele>895</ele>
        <time>2016-05-20T21:59:21Z</time>
      </trkpt>
      <trkpt lat="45.32092" lon="5.80923">
        <ele>896</ele>
        <time>2016-05-20T22:01:21Z</time>
      </trkpt>
      <trkpt lat="45.32105" lon="5.80927">
        <ele>898</ele>
        <time>2016-05-20T22:03:21Z</time>
      </trkpt>
      <trkpt lat="45.32112" lon="5.80929">
        <ele>899</ele>
        <time>2016-05-20T22:05:21Z</time>
      </trkpt>
      <trkpt lat="45.3212" lon="5.8093">
        <ele>899</ele>
        <time>2016-05-20T22:07:21Z</time>
      </trkpt>
      <trkpt lat="45.32132" lon="5.8093">
        <ele>900</ele>
        <time>2016-05-20T22:09:21Z</time>
      </trkpt>
      <trkpt lat="45.32147" lon="5.80932">
        <ele>901</ele>
        <time>2016-05-20T22:11:21Z</time>
      </trkpt>
      <trkpt lat="45.32187" lon="5.80934">
        <ele>902</ele>
        <time>2016-05-20T22:13:21Z</time>
      </trkpt>
      <trkpt lat="45.32208" lon="5.80935">
        <ele>902</ele>
        <time>2016-05-20T22:15:21Z</time>
      </trkpt>
      <trkpt lat="45.32229" lon="5.80936">
        <ele>902</ele>
        <time>2016-05-20T22:17:21Z</time>
      </trkpt>
      <trkpt lat="45.32252" lon="5.80939">
        <ele>903</ele>
        <time>2016-05-20T22:19:21Z</time>
      </trkpt>
      <trkpt lat="45.32274" lon="5.80941">
        <ele>902</ele>
        <time>2016-05-20T22:21:21Z</time>
      </trkpt>
      <trkpt lat="45.32281" lon="5.80943">
        <ele>902</ele>
        <time>2016-05-20T22:23:21Z</time>
      </trkpt>
      <trkpt lat="45.32282" lon="5.80943">
        <ele>902</ele>
        <time>2016-05-20T22:25:21Z</time>
      </trkpt>
      <trkpt lat="45.32282" lon="5.80943">
        <ele>902</ele>
        <time>2016-05-20T22:27:21Z</time>
      </trkpt>
      <trkpt lat="45.32288" lon="5.80944">
        <ele>902</ele>
        <time>2016-05-20T22:29:21Z</time>
      </trkpt>
      <trkpt lat="45.32309" lon="5.80951">
        <ele>902</ele>
        <time>2016-05-20T22:31:21Z</time>
      </trkpt>
      <trkpt lat="45.32316" lon="5.80954">
        <ele>902</ele>
        <time>2016-05-20T22:33:21Z</time>
      </trkpt>
      <trkpt lat="45.32372" lon="5.80972">
        <ele>898</ele>
        <time>2016-05-20T22:35:21Z</time>
      </trkpt>
      <trkpt lat="45.32426" lon="5.80988">
        <ele>893</ele>
        <time>2016-05-20T22:37:21Z</time>
      </trkpt>
      <trkpt lat="45.3248" lon="5.81005">
        <ele>892</ele>
        <time>2016-05-20T22:39:21Z</time>
      </trkpt>
      <trkpt lat="45.32517" lon="5.81016">
        <ele>891</ele>
        <time>2016-05-20T22:41:21Z</time>
      </trkpt>
      <trkpt lat="45.32531" lon="5.81019">
        <ele>890</ele>
        <time>2016-05-20T22:43:21Z</time>
      </trkpt>
      <trkpt lat="45.32561" lon="5.81023">
        <ele>889</ele>
        <time>2016-05-20T22:45:21Z</time>
      </trkpt>
      <trkpt lat="45.32599" lon="5.81026">
        <ele>890</ele>
        <time>2016-05-20T22:47:21Z</time>
      </trkpt>
      <trkpt lat="45.32629" lon="5.81027">
        <ele>893</ele>
        <time>2016-05-20T22:49:21Z</time>
      </trkpt>
      <trkpt lat="45.32658" lon="5.81029">
        <ele>896</ele>
        <time>2016-05-20T22:51:21Z</time>
      </trkpt>
      <trkpt lat="45.32741" lon="5.81022">
        <ele>899</ele>
        <time>2016-05-20T22:53:21Z</time>
      </trkpt>
      <trkpt lat="45.32763" lon="5.8102">
        <ele>900</ele>
        <time>2016-05-20T22:55:21Z</time>
      </trkpt>
      <trkpt lat="45.32775" lon="5.8102">
        <ele>900</ele>
        <time>2016-05-20T22:57:21Z</time>
      </trkpt>
      <trkpt lat="45.32789" lon="5.81021">
        <ele>900</ele>
        <time>2016-05-20T22:59:21Z</time>
      </trkpt>
      <trkpt lat="45.32799" lon="5.81022">
        <ele>901</ele>
        <time>2016-05-20T23:01:21Z</time>
      </trkpt>
      <trkpt lat="45.32812" lon="5.81023">
        <ele>901</ele>
        <time>2016-05-20T23:03:21Z</time>
      </trkpt>
      <trkpt lat="45.32823" lon="5.81024">
        <ele>901</ele>
        <time>2016-05-20T23:05:21Z</time>
      </trkpt>
      <trkpt lat="45.32839" lon="5.81029">
        <ele>901</ele>
        <time>2016-05-20T23:07:21Z</time>
      </trkpt>
      <trkpt lat="45.32853" lon="5.81035">
        <ele>901</ele>
        <time>2016-05-20T23:09:21Z</time>
      </trkpt>
      <trkpt lat="45.32863" lon="5.8104">
        <ele>901</ele>
        <time>2016-05-20T23:11:21Z</time>
      </trkpt>
      <trkpt lat="45.32868" lon="5.81042">
        <ele>901</ele>
        <time>2016-05-20T23:13:21Z</time>
      </trkpt>
      <trkpt lat="45.32873" lon="5.81046">
        <ele>901</ele>
        <time>2016-05-20T23:15:21Z</time>
      </trkpt>
      <trkpt lat="45.32876" lon="5.81049">
        <ele>901</ele>
        <time>2016-05-20T23:17:21Z</time>
      </trkpt>
      <trkpt lat="45.32883" lon="5.81057">
        <ele>902</ele>
        <time>2016-05-20T23:19:21Z</time>
      </trkpt>
      <trkpt lat="45.32886" lon="5.81062">
        <ele>903</ele>
        <time>2016-05-20T23:21:21Z</time>
      </trkpt>
      <trkpt lat="45.32892" lon="5.8107">
        <ele>904</ele>
        <time>2016-05-20T23:23:21Z</time>
      </trkpt>
      <trkpt lat="45.32899" lon="5.81076">
        <ele>905</ele>
        <time>2016-05-20T23:25:21Z</time>
      </trkpt>
      <trkpt lat="45.3291" lon="5.81082">
        <ele>906</ele>
        <time>2016-05-20T23:27:21Z</time>
      </trkpt>
      <trkpt lat="45.32934" lon="5.81094">
        <ele>908</ele>
        <time>2016-05-20T23:29:21Z</time>
      </trkpt>
      <trkpt lat="45.32946" lon="5.811">
        <ele>908</ele>
        <time>2016-05-20T23:31:21Z</time>
      </trkpt>
      <trkpt lat="45.32959" lon="5.81107">
        <ele>908</ele>
        <time>2016-05-20T23:33:21Z</time>
      </trkpt>
      <trkpt lat="45.32967" lon="5.8111">
        <ele>908</ele>
        <time>2016-05-20T23:35:21Z</time>
      </trkpt>
      <trkpt lat="45.32974" lon="5.81112">
        <ele>908</ele>
        <time>2016-05-20T23:37:21Z</time>
      </trkpt>
      <trkpt lat="45.32984" lon="5.81113">
        <ele>907</ele>
        <time>2016-05-20T23:39:21Z</time>
      </trkpt>
      <trkpt lat="45.3299" lon="5.81112">
        <ele>906</ele>
        <time>2016-05-20T23:41:21Z</time>
      </trkpt>
      <trkpt lat="45.32997" lon="5.81111">
        <ele>905</ele>
        <time>2016-05-20T23:43:21Z</time>
      </trkpt>
      <trkpt lat="45.33025" lon="5.81104">
        <ele>903</ele>
        <time>2016-05-20T23:45:21Z</time>
      </trkpt>
      <trkpt lat="45.3306" lon="5.81097">
        <ele>901</ele>
        <time>2016-05-20T23:47:21Z</time>
      </trkpt>
      <trkpt lat="45.33088" lon="5.81091">
        <ele>900</ele>
        <time>2016-05-20T23:49:21Z</time>
      </trkpt>
      <trkpt lat="45.33102" lon="5.81087">
        <ele>902</ele>
        <time>2016-05-20T23:51:21Z</time>
      </trkpt>
      <trkpt lat="45.33116" lon="5.81085">
        <ele>904</ele>
        <time>2016-05-20T23:53:21Z</time>
      </trkpt>
      <trkpt lat="45.33122" lon="5.81085">
        <ele>905</ele>
        <time>2016-05-20T23:55:21Z</time>
      </trkpt>
      <trkpt lat="45.33134" lon="5.81085">
        <ele>907</ele>
        <time>2016-05-20T23:57:21Z</time>
      </trkpt>
      <trkpt lat="45.33145" lon="5.81087">
        <ele>909</ele>
        <time>2016-05-20T23:59:21Z</time>
      </trkpt>
      <trkpt lat="45.33155" lon="5.81089">
        <ele>911</ele>
        <time>2016-05-21T00:01:21Z</time>
      </trkpt>
      <trkpt lat="45.33165" lon="5.81093">
        <ele>913</ele>
        <time>2016-05-21T00:03:21Z</time>
      </trkpt>
      <trkpt lat="45.33172" lon="5.81096">
        <ele>913</ele>
        <time>2016-05-21T00:05:21Z</time>
      </trkpt>
      <trkpt lat="45.33175" lon="5.81098">
        <ele>913</ele>
        <time>2016-05-21T00:07:21Z</time>
      </trkpt>
      <trkpt lat="45.33185" lon="5.81102">
        <ele>913</ele>
        <time>2016-05-21T00:09:21Z</time>
      </trkpt>
      <trkpt lat="45.33189" lon="5.81103">
        <ele>913</ele>
        <time>2016-05-21T00:11:21Z</time>
      </trkpt>
      <trkpt lat="45.33195" lon="5.81104">
        <ele>913</ele>
        <time>2016-05-21T00:13:21Z</time>
      </trkpt>
      <trkpt lat="45.33205" lon="5.81108">
        <ele>913</ele>
        <time>2016-05-21T00:15:21Z</time>
      </trkpt>
      <trkpt lat="45.33215" lon="5.81114">
        <ele>913</ele>
        <time>2016-05-21T00:17:21Z</time>
      </trkpt>
      <trkpt lat="45.33229" lon="5.81126">
        <ele>914</ele>
        <time>2016-05-21T00:19:21Z</time>
      </trkpt>
      <trkpt lat="45.33244" lon="5.8114">
        <ele>916</ele>
        <time>2016-05-21T00:21:21Z</time>
      </trkpt>
      <trkpt lat="45.33248" lon="5.81143">
        <ele>917</ele>
        <time>2016-05-21T00:23:21Z</time>
      </trkpt>
      <trkpt lat="45.33253" lon="5.81146">
        <ele>917</ele>
        <time>2016-05-21T00:25:21Z</time>
      </trkpt>
      <trkpt lat="45.33273" lon="5.81153">
        <ele>916</ele>
        <time>2016-05-21T00:27:21Z</time>
      </trkpt>
      <trkpt lat="45.33288" lon="5.81159">
        <ele>916</ele>
        <time>2016-05-21T00:29:21Z</time>
      </trkpt>
      <trkpt lat="45.33297" lon="5.81163">
        <ele>916</ele>
        <time>2016-05-21T00:31:21Z</time>
      </trkpt>
      <trkpt lat="45.33311" lon="5.81173">
        <ele>917</ele>
        <time>2016-05-21T00:33:21Z</time>
      </trkpt>
      <trkpt lat="45.33324" lon="5.81176">
        <ele>916</ele>
        <time>2016-05-21T00:35:21Z</time>
      </trkpt>
      <trkpt lat="45.33329" lon="5.81177">
        <ele>916</ele>
        <time>2016-05-21T00:37:21Z</time>
      </trkpt>
      <trkpt lat="45.33333" lon="5.81178">
        <ele>916</ele>
        <time>2016-05-21T00:39:21Z</time>
      </trkpt>
      <trkpt lat="45.33333" lon="5.81178">
        <ele>916</ele>
        <time>2016-05-21T00:41:21Z</time>
      </trkpt>
      <trkpt lat="45.33343" lon="5.81179">
        <ele>916</ele>
        <time>2016-05-21T00:43:21Z</time>
      </trkpt>
      <trkpt lat="45.33355" lon="5.8118">
        <ele>917</ele>
        <time>2016-05-21T00:45:21Z</time>
      </trkpt>
      <trkpt lat="45.33363" lon="5.81182">
        <ele>917</ele>
        <time>2016-05-21T00:47:21Z</time>
      </trkpt>
      <trkpt lat="45.33376" lon="5.81186">
        <ele>918</ele>
        <time>2016-05-21T00:49:21Z</time>
      </trkpt>
      <trkpt lat="45.33394" lon="5.81194">
        <ele>919</ele>
        <time>2016-05-21T00:51:21Z</time>
      </trkpt>
      <trkpt lat="45.33398" lon="5.81196">
        <ele>919</ele>
        <time>2016-05-21T00:53:21Z</time>
      </trkpt>
      <trkpt lat="45.33422" lon="5.81213">
        <ele>918</ele>
        <time>2016-05-21T00:55:21Z</time>
      </trkpt>
      <trkpt lat="45.33457" lon="5.81241">
        <ele>913</ele>
        <time>2016-05-21T00:57:21Z</time>
      </trkpt>
      <trkpt lat="45.33487" lon="5.81267">
        <ele>912</ele>
        <time>2016-05-21T00:59:21Z</time>
      </trkpt>
      <trkpt lat="45.3353" lon="5.81311">
        <ele>915</ele>
        <time>2016-05-21T01:01:21Z</time>
      </trkpt>
      <trkpt lat="45.33543" lon="5.81327">
        <ele>916</ele>
        <time>2016-05-21T01:03:21Z</time>
      </trkpt>
      <trkpt lat="45.33558" lon="5.81347">
        <ele>915</ele>
        <time>2016-05-21T01:05:21Z</time>
      </trkpt>
      <trkpt lat="45.33573" lon="5.81368">
        <ele>915</ele>
        <time>2016-05-21T01:07:21Z</time>
      </trkpt>
      <trkpt lat="45.33581" lon="5.81373">
        <ele>914</ele>
        <time>2016-05-21T01:09:21Z</time>
      </trkpt>
      <trkpt lat="45.33588" lon="5.81376">
        <ele>915</ele>
        <time>2016-05-21T01:11:21Z</time>
      </trkpt>
      <trkpt lat="45.33596" lon="5.81375">
        <ele>916</ele>
        <time>2016-05-21T01:13:21Z</time>
      </trkpt>
      <trkpt lat="45.33602" lon="5.81373">
        <ele>917</ele>
        <time>2016-05-21T01:15:21Z</time>
      </trkpt>
      <trkpt lat="45.33609" lon="5.8136">
        <ele>917</ele>
        <time>2016-05-21T01:17:21Z</time>
      </trkpt>
      <trkpt lat="45.33612" lon="5.81346">
        <ele>916</ele>
        <time>2016-05-21T01:19:21Z</time>
      </trkpt>
      <trkpt lat="45.33622" lon="5.81301">
        <ele>915</ele>
        <time>2016-05-21T01:21:21Z</time>
      </trkpt>
      <trkpt lat="45.33625" lon="5.81296">
        <ele>915</ele>
        <time>2016-05-21T01:23:21Z</time>
      </trkpt>
      <trkpt lat="45.33628" lon="5.81291">
        <ele>915</ele>
        <time>2016-05-21T01:25:21Z</time>
      </trkpt>
      <trkpt lat="45.33632" lon="5.81289">
        <ele>915</ele>
        <time>2016-05-21T01:27:21Z</time>
      </trkpt>
      <trkpt lat="45.33636" lon="5.81287">
        <ele>915</ele>
        <time>2016-05-21T01:29:21Z</time>
      </trkpt>
      <trkpt lat="45.33643" lon="5.81287">
        <ele>916</ele>
        <time>2016-05-21T01:31:21Z</time>
      </trkpt>
      <trkpt lat="45.33654" lon="5.81292">
        <ele>916</ele>
        <time>2016-05-21T01:33:21Z</time>
      </trkpt>
      <trkpt lat="45.33665" lon="5.81299">
        <ele>918</ele>
        <time>2016-05-21T01:35:21Z</time>
      </trkpt>
      <trkpt lat="45.33669" lon="5.81303">
        <ele>918</ele>
        <time>2016-05-21T01:37:21Z</time>
      </trkpt>
      <trkpt lat="45.33672" lon="5.81306">
        <ele>918</ele>
        <time>2016-05-21T01:39:21Z</time>
      </trkpt>
      <trkpt lat="45.33676" lon="5.81309">
        <ele>918</ele>
        <time>2016-05-21T01:41:21Z</time>
      </trkpt>
      <trkpt lat="45.33677" lon="5.8131">
        <ele>919</ele>
        <time>2016-05-21T01:43:21Z</time>
      </trkpt>
      <trkpt lat="45.33678" lon="5.8131">
        <ele>919</ele>
        <time>2016-05-21T01:45:21Z</time>
      </trkpt>
      <trkpt lat="45.33679" lon="5.81309">
        <ele>918</ele>
        <time>2016-05-21T01:47:21Z</time>
      </trkpt>
      <trkpt lat="45.33679" lon="5.81309">
        <ele>918</ele>
        <time>2016-05-21T01:49:21Z</time>
      </trkpt>
      <trkpt lat="45.33683" lon="5.81314">
        <ele>919</ele>
        <time>2016-05-21T01:51:21Z</time>
      </trkpt>
      <trkpt lat="45.33686" lon="5.81318">
        <ele>919</ele>
        <time>2016-05-21T01:53:21Z</time>
      </trkpt>
      <trkpt lat="45.33696" lon="5.81329">
        <ele>920</ele>
        <time>2016-05-21T01:55:21Z</time>
      </trkpt>
      <trkpt lat="45.33699" lon="5.81333">
        <ele>921</ele>
        <time>2016-05-21T01:57:21Z</time>
      </trkpt>
      <trkpt lat="45.33703" lon="5.81342">
        <ele>921</ele>
        <time>2016-05-21T01:59:21Z</time>
      </trkpt>
      <trkpt lat="45.33706" lon="5.81347">
        <ele>921</ele>
        <time>2016-05-21T02:01:21Z</time>
      </trkpt>
      <trkpt lat="45.33709" lon="5.81358">
        <ele>921</ele>
        <time>2016-05-21T02:03:21Z</time>
      </trkpt>
      <trkpt lat="45.33711" lon="5.81364">
        <ele>921</ele>
        <time>2016-05-21T02:05:21Z</time>
      </trkpt>
      <trkpt lat="45.33713" lon="5.81377">
        <ele>921</ele>
        <time>2016-05-21T02:07:21Z</time>
      </trkpt>
      <trkpt lat="45.33714" lon="5.81385">
        <ele>921</ele>
        <time>2016-05-21T02:09:21Z</time>
      </trkpt>
      <trkpt lat="45.33715" lon="5.81401">
        <ele>921</ele>
        <time>2016-05-21T02:11:21Z</time>
      </trkpt>
      <trkpt lat="45.33716" lon="5.81436">
        <ele>922</ele>
        <time>2016-05-21T02:13:21Z</time>
      </trkpt>
      <trkpt lat="45.33717" lon="5.81446">
        <ele>923</ele>
        <time>2016-05-21T02:15:21Z</time>
      </trkpt>
      <trkpt lat="45.33718" lon="5.81463">
        <ele>924</ele>
        <time>2016-05-21T02:17:21Z</time>
      </trkpt>
      <trkpt lat="45.33719" lon="5.81488">
        <ele>926</ele>
        <time>2016-05-21T02:19:21Z</time>
      </trkpt>
      <trkpt lat="45.3372" lon="5.81505">
        <ele>927</ele>
        <time>2016-05-21T02:21:21Z</time>
      </trkpt>
      <trkpt lat="45.3372" lon="5.81513">
        <ele>928</ele>
        <time>2016-05-21T02:23:21Z</time>
      </trkpt>
      <trkpt lat="45.3372" lon="5.81528">
        <ele>929</ele>
        <time>2016-05-21T02:25:21Z</time>
      </trkpt>
      <trkpt lat="45.33717" lon="5.81568">
        <ele>932</ele>
        <time>2016-05-21T02:27:21Z</time>
      </trkpt>
      <trkpt lat="45.33713" lon="5.81601">
        <ele>935</ele>
        <time>2016-05-21T02:29:21Z</time>
      </trkpt>
      <trkpt lat="45.33712" lon="5.81617">
        <ele>936</ele>
        <time>2016-05-21T02:31:21Z</time>
      </trkpt>
      <trkpt lat="45.33711" lon="5.81623">
        <ele>937</ele>
        <time>2016-05-21T02:33:21Z</time>
      </trkpt>
      <trkpt lat="45.33711" lon="5.81623">
        <ele>937</ele>
        <time>2016-05-21T02:35:21Z</time>
      </trkpt>
      <trkpt lat="45.3371" lon="5.8164">
        <ele>938</ele>
        <time>2016-05-21T02:37:21Z</time>
      </trkpt>
      <trkpt lat="45.33708" lon="5.81655">
        <ele>939</ele>
        <time>2016-05-21T02:39:21Z</time>
      </trkpt>
      <trkpt lat="45.33708" lon="5.81662">
        <ele>940</ele>
        <time>2016-05-21T02:41:21Z</time>
      </trkpt>
      <trkpt lat="45.33707" lon="5.81671">
        <ele>941</ele>
        <time>2016-05-21T02:43:21Z</time>
      </trkpt>
      <trkpt lat="45.33707" lon="5.8168">
        <ele>941</ele>
        <time>2016-05-21T02:45:21Z</time>
      </trkpt>
      <trkpt lat="45.33707" lon="5.8169">
        <ele>941</ele>
        <time>2016-05-21T02:47:21Z</time>
      </trkpt>
      <trkpt lat="45.33706" lon="5.81709">
        <ele>942</ele>
        <time>2016-05-21T02:49:21Z</time>
      </trkpt>
      <trkpt lat="45.33706" lon="5.8173">
        <ele>943</ele>
        <time>2016-05-21T02:51:21Z</time>
      </trkpt>
      <trkpt lat="45.33706" lon="5.8175">
        <ele>944</ele>
        <time>2016-05-21T02:53:21Z</time>
      </trkpt>
      <trkpt lat="45.33706" lon="5.81768">
        <ele>944</ele>
        <time>2016-05-21T02:55:21Z</time>
      </trkpt>
      <trkpt lat="45.33705" lon="5.81785">
        <ele>945</ele>
        <time>2016-05-21T02:57:21Z</time>
      </trkpt>
      <trkpt lat="45.33704" lon="5.81793">
        <ele>946</ele>
        <time>2016-05-21T02:59:21Z</time>
      </trkpt>
      <trkpt lat="45.33702" lon="5.81808">
        <ele>947</ele>
        <time>2016-05-21T03:01:21Z</time>
      </trkpt>
      <trkpt lat="45.33699" lon="5.81823">
        <ele>949</ele>
        <time>2016-05-21T03:03:21Z</time>
      </trkpt>
      <trkpt lat="45.33696" lon="5.81839">
        <ele>952</ele>
        <time>2016-05-21T03:05:21Z</time>
      </trkpt>
      <trkpt lat="45.33694" lon="5.81848">
        <ele>953</ele>
        <time>2016-05-21T03:07:21Z</time>
      </trkpt>
      <trkpt lat="45.33692" lon="5.81856">
        <ele>955</ele>
        <time>2016-05-21T03:09:21Z</time>
      </trkpt>
      <trkpt lat="45.33691" lon="5.81865">
        <ele>956</ele>
        <time>2016-05-21T03:11:21Z</time>
      </trkpt>
      <trkpt lat="45.33689" lon="5.81873">
        <ele>957</ele>
        <time>2016-05-21T03:13:21Z</time>
      </trkpt>
      <trkpt lat="45.33688" lon="5.81883">
        <ele>958</ele>
        <time>2016-05-21T03:15:21Z</time>
      </trkpt>
      <trkpt lat="45.33687" lon="5.81892">
        <ele>959</ele>
        <time>2016-05-21T03:17:21Z</time>
      </trkpt>
      <trkpt lat="45.33687" lon="5.81902">
        <ele>959</ele>
        <time>2016-05-21T03:19:21Z</time>
      </trkpt>
      <trkpt lat="45.33687" lon="5.8191">
        <ele>960</ele>
        <time>2016-05-21T03:21:21Z</time>
      </trkpt>
      <trkpt lat="45.33687" lon="5.81919">
        <ele>960</ele>
        <time>2016-05-21T03:23:21Z</time>
      </trkpt>
      <trkpt lat="45.33688" lon="5.81927">
        <ele>960</ele>
        <time>2016-05-21T03:25:21Z</time>
      </trkpt>
      <trkpt lat="45.3369" lon="5.81942">
        <ele>961</ele>
        <time>2016-05-21T03:27:21Z</time>
      </trkpt>
      <trkpt lat="45.33692" lon="5.81951">
        <ele>961</ele>
        <time>2016-05-21T03:29:21Z</time>
      </trkpt>
      <trkpt lat="45.33693" lon="5.81956">
        <ele>961</ele>
        <time>2016-05-21T03:31:21Z</time>
      </trkpt>
      <trkpt lat="45.33695" lon="5.81962">
        <ele>960</ele>
        <time>2016-05-21T03:33:21Z</time>
      </trkpt>
      <trkpt lat="45.33697" lon="5.81967">
        <ele>960</ele>
        <time>2016-05-21T03:35:21Z</time>
      </trkpt>
      <trkpt lat="45.337" lon="5.81973">
        <ele>960</ele>
        <time>2016-05-21T03:37:21Z</time>
      </trkpt>
      <trkpt lat="45.33703" lon="5.81978">
        <ele>959</ele>
        <time>2016-05-21T03:39:21Z</time>
      </trkpt>
      <trkpt lat="45.33707" lon="5.81982">
        <ele>958</ele>
        <time>2016-05-21T03:41:21Z</time>
      </trkpt>
      <trkpt lat="45.33712" lon="5.81987">
        <ele>957</ele>
        <time>2016-05-21T03:43:21Z</time>
      </trkpt>
      <trkpt lat="45.33717" lon="5.81988">
        <ele>956</ele>
        <time>2016-05-21T03:45:21Z</time>
      </trkpt>
      <trkpt lat="45.33723" lon="5.81989">
        <ele>954</ele>
        <time>2016-05-21T03:47:21Z</time>
      </trkpt>
      <trkpt lat="45.33731" lon="5.81989">
        <ele>952</ele>
        <time>2016-05-21T03:49:21Z</time>
      </trkpt>
      <trkpt lat="45.33742" lon="5.81988">
        <ele>948</ele>
        <time>2016-05-21T03:51:21Z</time>
      </trkpt>
      <trkpt lat="45.33747" lon="5.81989">
        <ele>947</ele>
        <time>2016-05-21T03:53:21Z</time>
      </trkpt>
      <trkpt lat="45.33751" lon="5.81992">
        <ele>946</ele>
        <time>2016-05-21T03:55:21Z</time>
      </trkpt>
      <trkpt lat="45.33754" lon="5.81995">
        <ele>946</ele>
        <time>2016-05-21T03:57:21Z</time>
      </trkpt>
      <trkpt lat="45.33757" lon="5.82001">
        <ele>947</ele>
        <time>2016-05-21T03:59:21Z</time>
      </trkpt>
      <trkpt lat="45.33758" lon="5.82008">
        <ele>947</ele>
        <time>2016-05-21T04:01:21Z</time>
      </trkpt>
      <trkpt lat="45.3376" lon="5.82018">
        <ele>948</ele>
        <time>2016-05-21T04:03:21Z</time>
      </trkpt>
      <trkpt lat="45.33761" lon="5.82029">
        <ele>949</ele>
        <time>2016-05-21T04:05:21Z</time>
      </trkpt>
      <trkpt lat="45.33762" lon="5.82046">
        <ele>951</ele>
        <time>2016-05-21T04:07:21Z</time>
      </trkpt>
      <trkpt lat="45.33763" lon="5.82057">
        <ele>952</ele>
        <time>2016-05-21T04:09:21Z</time>
      </trkpt>
      <trkpt lat="45.33766" lon="5.82074">
        <ele>952</ele>
        <time>2016-05-21T04:11:21Z</time>
      </trkpt>
      <trkpt lat="45.33769" lon="5.82086">
        <ele>951</ele>
        <time>2016-05-21T04:13:21Z</time>
      </trkpt>
      <trkpt lat="45.33769" lon="5.82086">
        <ele>951</ele>
        <time>2016-05-21T04:15:21Z</time>
      </trkpt>
      <trkpt lat="45.33771" lon="5.82106">
        <ele>949</ele>
        <time>2016-05-21T04:17:21Z</time>
      </trkpt>
      <trkpt lat="45.33772" lon="5.82114">
        <ele>948</ele>
        <time>2016-05-21T04:19:21Z</time>
      </trkpt>
      <trkpt lat="45.33771" lon="5.82126">
        <ele>948</ele>
        <time>2016-05-21T04:21:21Z</time>
      </trkpt>
      <trkpt lat="45.33768" lon="5.82151">
        <ele>949</ele>
        <time>2016-05-21T04:23:21Z</time>
      </trkpt>
      <trkpt lat="45.33762" lon="5.82183">
        <ele>951</ele>
        <time>2016-05-21T04:25:21Z</time>
      </trkpt>
      <trkpt lat="45.33758" lon="5.82202">
        <ele>953</ele>
        <time>2016-05-21T04:27:21Z</time>
      </trkpt>
      <trkpt lat="45.33753" lon="5.82234">
        <ele>953</ele>
        <time>2016-05-21T04:29:21Z</time>
      </trkpt>
      <trkpt lat="45.3375" lon="5.82253">
        <ele>954</ele>
        <time>2016-05-21T04:31:21Z</time>
      </trkpt>
      <trkpt lat="45.3375" lon="5.82261">
        <ele>954</ele>
        <time>2016-05-21T04:33:21Z</time>
      </trkpt>
      <trkpt lat="45.33749" lon="5.82277">
        <ele>954</ele>
        <time>2016-05-21T04:35:21Z</time>
      </trkpt>
      <trkpt lat="45.3375" lon="5.82291">
        <ele>953</ele>
        <time>2016-05-21T04:37:21Z</time>
      </trkpt>
      <trkpt lat="45.33752" lon="5.82312">
        <ele>951</ele>
        <time>2016-05-21T04:39:21Z</time>
      </trkpt>
      <trkpt lat="45.33754" lon="5.82331">
        <ele>950</ele>
        <time>2016-05-21T04:41:21Z</time>
      </trkpt>
      <trkpt lat="45.33754" lon="5.82352">
        <ele>949</ele>
        <time>2016-05-21T04:43:21Z</time>
      </trkpt>
      <trkpt lat="45.33753" lon="5.82367">
        <ele>950</ele>
        <time>2016-05-21T04:45:21Z</time>
      </trkpt>
      <trkpt lat="45.33753" lon="5.82383">
        <ele>949</ele>
        <time>2016-05-21T04:47:21Z</time>
      </trkpt>
      <trkpt lat="45.33752" lon="5.82405">
        <ele>949</ele>
        <time>2016-05-21T04:49:21Z</time>
      </trkpt>
      <trkpt lat="45.33752" lon="5.82428">
        <ele>948</ele>
        <time>2016-05-21T04:51:21Z</time>
      </trkpt>
      <trkpt lat="45.33751" lon="5.82456">
        <ele>947</ele>
        <time>2016-05-21T04:53:21Z</time>
      </trkpt>
      <trkpt lat="45.33751" lon="5.82475">
        <ele>946</ele>
        <time>2016-05-21T04:55:21Z</time>
      </trkpt>
      <trkpt lat="45.33749" lon="5.82507">
        <ele>945</ele>
        <time>2016-05-21T04:57:21Z</time>
      </trkpt>
      <trkpt lat="45.33748" lon="5.82526">
        <ele>945</ele>
        <time>2016-05-21T04:59:21Z</time>
      </trkpt>
      <trkpt lat="45.33746" lon="5.82548">
        <ele>946</ele>
        <time>2016-05-21T05:01:21Z</time>
      </trkpt>
      <trkpt lat="45.33745" lon="5.8257">
        <ele>947</ele>
        <time>2016-05-21T05:03:21Z</time>
      </trkpt>
      <trkpt lat="45.33743" lon="5.82597">
        <ele>947</ele>
        <time>2016-05-21T05:05:21Z</time>
      </trkpt>
      <trkpt lat="45.3374" lon="5.82627">
        <ele>945</ele>
        <time>2016-05-21T05:07:21Z</time>
      </trkpt>
      <trkpt lat="45.33739" lon="5.82645">
        <ele>944</ele>
        <time>2016-05-21T05:09:21Z</time>
      </trkpt>
      <trkpt lat="45.33738" lon="5.82663">
        <ele>943</ele>
        <time>2016-05-21T05:11:21Z</time>
      </trkpt>
      <trkpt lat="45.33739" lon="5.82676">
        <ele>942</ele>
        <time>2016-05-21T05:13:21Z</time>
      </trkpt>
      <trkpt lat="45.3374" lon="5.82685">
        <ele>940</ele>
        <time>2016-05-21T05:15:21Z</time>
      </trkpt>
      <trkpt lat="45.33741" lon="5.82695">
        <ele>939</ele>
        <time>2016-05-21T05:17:21Z</time>
      </trkpt>
      <trkpt lat="45.33745" lon="5.82708">
        <ele>936</ele>
        <time>2016-05-21T05:19:21Z</time>
      </trkpt>
      <trkpt lat="45.33749" lon="5.8272">
        <ele>934</ele>
        <time>2016-05-21T05:21:21Z</time>
      </trkpt>
      <trkpt lat="45.3375" lon="5.82733">
        <ele>932</ele>
        <time>2016-05-21T05:23:21Z</time>
      </trkpt>
      <trkpt lat="45.3375" lon="5.82741">
        <ele>932</ele>
        <time>2016-05-21T05:25:21Z</time>
      </trkpt>
      <trkpt lat="45.3375" lon="5.82746">
        <ele>931</ele>
        <time>2016-05-21T05:27:21Z</time>
      </trkpt>
      <trkpt lat="45.33748" lon="5.82766">
        <ele>932</ele>
        <time>2016-05-21T05:29:21Z</time>
      </trkpt>
      <trkpt lat="45.33744" lon="5.82788">
        <ele>933</ele>
        <time>2016-05-21T05:31:21Z</time>
      </trkpt>
      <trkpt lat="45.33741" lon="5.82807">
        <ele>933</ele>
        <time>2016-05-21T05:33:21Z</time>
      </trkpt>
      <trkpt lat="45.33738" lon="5.82821">
        <ele>934</ele>
        <time>2016-05-21T05:35:21Z</time>
      </trkpt>
      <trkpt lat="45.33734" lon="5.82833">
        <ele>935</ele>
        <time>2016-05-21T05:37:21Z</time>
      </trkpt>
      <trkpt lat="45.33734" lon="5.82833">
        <ele>935</ele>
        <time>2016-05-21T05:39:21Z</time>
      </trkpt>
      <trkpt lat="45.33744" lon="5.82841">
        <ele>932</ele>
        <time>2016-05-21T05:41:21Z</time>
      </trkpt>
      <trkpt lat="45.33752" lon="5.82842">
        <ele>930</ele>
        <time>2016-05-21T05:43:21Z</time>
      </trkpt>
      <trkpt lat="45.33755" lon="5.82843">
        <ele>932</ele>
        <time>2016-05-21T05:45:21Z</time>
      </trkpt>
      <trkpt lat="45.33764" lon="5.8284">
        <ele>935</ele>
        <time>2016-05-21T05:47:21Z</time>
      </trkpt>
      <trkpt lat="45.33773" lon="5.82827">
        <ele>938</ele>
        <time>2016-05-21T05:49:21Z</time>
      </trkpt>
      <trkpt lat="45.33778" lon="5.8281">
        <ele>940</ele>
        <time>2016-05-21T05:51:21Z</time>
      </trkpt>
      <trkpt lat="45.33793" lon="5.82753">
        <ele>944</ele>
        <time>2016-05-21T05:53:21Z</time>
      </trkpt>
      <trkpt lat="45.33795" lon="5.82749">
        <ele>945</ele>
        <time>2016-05-21T05:55:21Z</time>
      </trkpt>
      <trkpt lat="45.33799" lon="5.82736">
        <ele>946</ele>
        <time>2016-05-21T05:57:21Z</time>
      </trkpt>
      <trkpt lat="45.33801" lon="5.8272">
        <ele>947</ele>
        <time>2016-05-21T05:59:21Z</time>
      </trkpt>
      <trkpt lat="45.33802" lon="5.82713">
        <ele>947</ele>
        <time>2016-05-21T06:01:21Z</time>
      </trkpt>
      <trkpt lat="45.33802" lon="5.82706">
        <ele>947</ele>
        <time>2016-05-21T06:03:21Z</time>
      </trkpt>
      <trkpt lat="45.33802" lon="5.82698">
        <ele>947</ele>
        <time>2016-05-21T06:05:21Z</time>
      </trkpt>
      <trkpt lat="45.33802" lon="5.8269">
        <ele>947</ele>
        <time>2016-05-21T06:07:21Z</time>
      </trkpt>
      <trkpt lat="45.33801" lon="5.82683">
        <ele>947</ele>
        <time>2016-05-21T06:09:21Z</time>
      </trkpt>
      <trkpt lat="45.33801" lon="5.82675">
        <ele>947</ele>
        <time>2016-05-21T06:11:21Z</time>
      </trkpt>
      <trkpt lat="45.338" lon="5.82667">
        <ele>947</ele>
        <time>2016-05-21T06:13:21Z</time>
      </trkpt>
      <trkpt lat="45.33799" lon="5.8266">
        <ele>947</ele>
        <time>2016-05-21T06:15:21Z</time>
      </trkpt>
      <trkpt lat="45.33799" lon="5.82652">
        <ele>947</ele>
        <time>2016-05-21T06:17:21Z</time>
      </trkpt>
      <trkpt lat="45.33799" lon="5.82644">
        <ele>947</ele>
        <time>2016-05-21T06:19:21Z</time>
      </trkpt>
      <trkpt lat="45.33798" lon="5.82637">
        <ele>947</ele>
        <time>2016-05-21T06:21:21Z</time>
      </trkpt>
      <trkpt lat="45.33798" lon="5.82629">
        <ele>947</ele>
        <time>2016-05-21T06:23:21Z</time>
      </trkpt>
      <trkpt lat="45.33799" lon="5.82613">
        <ele>947</ele>
        <time>2016-05-21T06:25:21Z</time>
      </trkpt>
      <trkpt lat="45.33799" lon="5.82607">
        <ele>947</ele>
        <time>2016-05-21T06:27:21Z</time>
      </trkpt>
      <trkpt lat="45.338" lon="5.82592">
        <ele>946</ele>
        <time>2016-05-21T06:29:21Z</time>
      </trkpt>
      <trkpt lat="45.33801" lon="5.82578">
        <ele>946</ele>
        <time>2016-05-21T06:31:21Z</time>
      </trkpt>
      <trkpt lat="45.33803" lon="5.82562">
        <ele>945</ele>
        <time>2016-05-21T06:33:21Z</time>
      </trkpt>
      <trkpt lat="45.33805" lon="5.82547">
        <ele>944</ele>
        <time>2016-05-21T06:35:21Z</time>
      </trkpt>
      <trkpt lat="45.33805" lon="5.8254">
        <ele>943</ele>
        <time>2016-05-21T06:37:21Z</time>
      </trkpt>
      <trkpt lat="45.33807" lon="5.82533">
        <ele>943</ele>
        <time>2016-05-21T06:39:21Z</time>
      </trkpt>
      <trkpt lat="45.33808" lon="5.82525">
        <ele>942</ele>
        <time>2016-05-21T06:41:21Z</time>
      </trkpt>
      <trkpt lat="45.3381" lon="5.82519">
        <ele>941</ele>
        <time>2016-05-21T06:43:21Z</time>
      </trkpt>
      <trkpt lat="45.33813" lon="5.82512">
        <ele>941</ele>
        <time>2016-05-21T06:45:21Z</time>
      </trkpt>
      <trkpt lat="45.33816" lon="5.82504">
        <ele>940</ele>
        <time>2016-05-21T06:47:21Z</time>
      </trkpt>
      <trkpt lat="45.33818" lon="5.82497">
        <ele>938</ele>
        <time>2016-05-21T06:49:21Z</time>
      </trkpt>
      <trkpt lat="45.33823" lon="5.82483">
        <ele>935</ele>
        <time>2016-05-21T06:51:21Z</time>
      </trkpt>
      <trkpt lat="45.33826" lon="5.82476">
        <ele>933</ele>
        <time>2016-05-21T06:53:21Z</time>
      </trkpt>
      <trkpt lat="45.33828" lon="5.82469">
        <ele>931</ele>
        <time>2016-05-21T06:55:21Z</time>
      </trkpt>
      <trkpt lat="45.3383" lon="5.82461">
        <ele>928</ele>
        <time>2016-05-21T06:57:21Z</time>
      </trkpt>
      <trkpt lat="45.33832" lon="5.82451">
        <ele>925</ele>
        <time>2016-05-21T06:59:21Z</time>
      </trkpt>
      <trkpt lat="45.33835" lon="5.82432">
        <ele>920</ele>
        <time>2016-05-21T07:01:21Z</time>
      </trkpt>
      <trkpt lat="45.33836" lon="5.82422">
        <ele>918</ele>
        <time>2016-05-21T07:03:21Z</time>
      </trkpt>
      <trkpt lat="45.33837" lon="5.82412">
        <ele>916</ele>
        <time>2016-05-21T07:05:21Z</time>
      </trkpt>
      <trkpt lat="45.33839" lon="5.82393">
        <ele>914</ele>
        <time>2016-05-21T07:07:21Z</time>
      </trkpt>
      <trkpt lat="45.3384" lon="5.82382">
        <ele>913</ele>
        <time>2016-05-21T07:09:21Z</time>
      </trkpt>
      <trkpt lat="45.33842" lon="5.82365">
        <ele>911</ele>
        <time>2016-05-21T07:11:21Z</time>
      </trkpt>
      <trkpt lat="45.33844" lon="5.82355">
        <ele>910</ele>
        <time>2016-05-21T07:13:21Z</time>
      </trkpt>
      <trkpt lat="45.33846" lon="5.82345">
        <ele>909</ele>
        <time>2016-05-21T07:15:21Z</time>
      </trkpt>
      <trkpt lat="45.33852" lon="5.8233">
        <ele>909</ele>
        <time>2016-05-21T07:17:21Z</time>
      </trkpt>
      <trkpt lat="45.33855" lon="5.82322">
        <ele>909</ele>
        <time>2016-05-21T07:19:21Z</time>
      </trkpt>
      <trkpt lat="45.33858" lon="5.82315">
        <ele>908</ele>
        <time>2016-05-21T07:21:21Z</time>
      </trkpt>
      <trkpt lat="45.33862" lon="5.82307">
        <ele>908</ele>
        <time>2016-05-21T07:23:21Z</time>
      </trkpt>
      <trkpt lat="45.33865" lon="5.823">
        <ele>907</ele>
        <time>2016-05-21T07:25:21Z</time>
      </trkpt>
      <trkpt lat="45.33869" lon="5.82292">
        <ele>906</ele>
        <time>2016-05-21T07:27:21Z</time>
      </trkpt>
      <trkpt lat="45.33873" lon="5.82286">
        <ele>905</ele>
        <time>2016-05-21T07:29:21Z</time>
      </trkpt>
      <trkpt lat="45.33876" lon="5.82279">
        <ele>903</ele>
        <time>2016-05-21T07:31:21Z</time>
      </trkpt>
      <trkpt lat="45.3388" lon="5.82273">
        <ele>902</ele>
        <time>2016-05-21T07:33:21Z</time>
      </trkpt>
      <trkpt lat="45.33888" lon="5.82261">
        <ele>899</ele>
        <time>2016-05-21T07:35:21Z</time>
      </trkpt>
      <trkpt lat="45.33893" lon="5.82256">
        <ele>898</ele>
        <time>2016-05-21T07:37:21Z</time>
      </trkpt>
      <trkpt lat="45.33902" lon="5.82247">
        <ele>896</ele>
        <time>2016-05-21T07:39:21Z</time>
      </trkpt>
      <trkpt lat="45.33912" lon="5.82238">
        <ele>895</ele>
        <time>2016-05-21T07:41:21Z</time>
      </trkpt>
      <trkpt lat="45.33923" lon="5.82228">
        <ele>895</ele>
        <time>2016-05-21T07:43:21Z</time>
      </trkpt>
      <trkpt lat="45.33933" lon="5.82217">
        <ele>896</ele>
        <time>2016-05-21T07:45:21Z</time>
      </trkpt>
      <trkpt lat="45.33942" lon="5.82205">
        <ele>896</ele>
        <time>2016-05-21T07:47:21Z</time>
      </trkpt>
      <trkpt lat="45.33949" lon="5.82193">
        <ele>895</ele>
        <time>2016-05-21T07:49:21Z</time>
      </trkpt>
      <trkpt lat="45.33952" lon="5.82186">
        <ele>894</ele>
        <time>2016-05-21T07:51:21Z</time>
      </trkpt>
      <trkpt lat="45.33957" lon="5.82174">
        <ele>892</ele>
        <time>2016-05-21T07:53:21Z</time>
      </trkpt>
      <trkpt lat="45.33962" lon="5.82162">
        <ele>891</ele>
        <time>2016-05-21T07:55:21Z</time>
      </trkpt>
      <trkpt lat="45.33964" lon="5.82157">
        <ele>891</ele>
        <time>2016-05-21T07:57:21Z</time>
      </trkpt>
      <trkpt lat="45.33967" lon="5.82152">
        <ele>891</ele>
        <time>2016-05-21T07:59:21Z</time>
      </trkpt>
      <trkpt lat="45.3397" lon="5.82148">
        <ele>891</ele>
        <time>2016-05-21T08:01:21Z</time>
      </trkpt>
      <trkpt lat="45.33972" lon="5.82145">
        <ele>892</ele>
        <time>2016-05-21T08:03:21Z</time>
      </trkpt>
      <trkpt lat="45.33975" lon="5.82141">
        <ele>892</ele>
        <time>2016-05-21T08:05:21Z</time>
      </trkpt>
      <trkpt lat="45.33981" lon="5.82135">
        <ele>892</ele>
        <time>2016-05-21T08:07:21Z</time>
      </trkpt>
      <trkpt lat="45.33986" lon="5.82129">
        <ele>893</ele>
        <time>2016-05-21T08:09:21Z</time>
      </trkpt>
      <trkpt lat="45.33988" lon="5.82125">
        <ele>892</ele>
        <time>2016-05-21T08:11:21Z</time>
      </trkpt>
      <trkpt lat="45.33991" lon="5.82121">
        <ele>893</ele>
        <time>2016-05-21T08:13:21Z</time>
      </trkpt>
      <trkpt lat="45.33993" lon="5.82115">
        <ele>892</ele>
        <time>2016-05-21T08:15:21Z</time>
      </trkpt>
      <trkpt lat="45.33997" lon="5.82105">
        <ele>892</ele>
        <time>2016-05-21T08:17:21Z</time>
      </trkpt>
      <trkpt lat="45.34001" lon="5.82093">
        <ele>891</ele>
        <time>2016-05-21T08:19:21Z</time>
      </trkpt>
      <trkpt lat="45.34006" lon="5.8208">
        <ele>891</ele>
        <time>2016-05-21T08:21:21Z</time>
      </trkpt>
      <trkpt lat="45.34009" lon="5.82073">
        <ele>890</ele>
        <time>2016-05-21T08:23:21Z</time>
      </trkpt>
      <trkpt lat="45.34014" lon="5.8206">
        <ele>889</ele>
        <time>2016-05-21T08:25:21Z</time>
      </trkpt>
      <trkpt lat="45.34017" lon="5.82055">
        <ele>889</ele>
        <time>2016-05-21T08:27:21Z</time>
      </trkpt>
      <trkpt lat="45.3402" lon="5.82049">
        <ele>889</ele>
        <time>2016-05-21T08:29:21Z</time>
      </trkpt>
      <trkpt lat="45.34024" lon="5.82043">
        <ele>889</ele>
        <time>2016-05-21T08:31:21Z</time>
      </trkpt>
      <trkpt lat="45.34027" lon="5.82039">
        <ele>889</ele>
        <time>2016-05-21T08:33:21Z</time>
      </trkpt>
      <trkpt lat="45.3403" lon="5.82034">
        <ele>889</ele>
        <time>2016-05-21T08:35:21Z</time>
      </trkpt>
      <trkpt lat="45.34037" lon="5.82026">
        <ele>889</ele>
        <time>2016-05-21T08:37:21Z</time>
      </trkpt>
      <trkpt lat="45.34045" lon="5.82016">
        <ele>889</ele>
        <time>2016-05-21T08:39:21Z</time>
      </trkpt>
      <trkpt lat="45.34049" lon="5.82011">
        <ele>889</ele>
        <time>2016-05-21T08:41:21Z</time>
      </trkpt>
      <trkpt lat="45.34057" lon="5.82">
        <ele>888</ele>
        <time>2016-05-21T08:43:21Z</time>
      </trkpt>
      <trkpt lat="45.34064" lon="5.81988">
        <ele>889</ele>
        <time>2016-05-21T08:45:21Z</time>
      </trkpt>
      <trkpt lat="45.3407" lon="5.81975">
        <ele>889</ele>
        <time>2016-05-21T08:47:21Z</time>
      </trkpt>
      <trkpt lat="45.34078" lon="5.81954">
        <ele>888</ele>
        <time>2016-05-21T08:49:21Z</time>
      </trkpt>
      <trkpt lat="45.34083" lon="5.81939">
        <ele>887</ele>
        <time>2016-05-21T08:51:21Z</time>
      </trkpt>
      <trkpt lat="45.34086" lon="5.81931">
        <ele>887</ele>
        <time>2016-05-21T08:53:21Z</time>
      </trkpt>
      <trkpt lat="45.3409" lon="5.81916">
        <ele>887</ele>
        <time>2016-05-21T08:55:21Z</time>
      </trkpt>
      <trkpt lat="45.34091" lon="5.81908">
        <ele>887</ele>
        <time>2016-05-21T08:57:21Z</time>
      </trkpt>
      <trkpt lat="45.34093" lon="5.81896">
        <ele>887</ele>
        <time>2016-05-21T08:59:21Z</time>
      </trkpt>
      <trkpt lat="45.34094" lon="5.81884">
        <ele>887</ele>
        <time>2016-05-21T09:01:21Z</time>
      </trkpt>
      <trkpt lat="45.34095" lon="5.81869">
        <ele>887</ele>
        <time>2016-05-21T09:03:21Z</time>
      </trkpt>
      <trkpt lat="45.34096" lon="5.81852">
        <ele>886</ele>
        <time>2016-05-21T09:05:21Z</time>
      </trkpt>
      <trkpt lat="45.34098" lon="5.81838">
        <ele>886</ele>
        <time>2016-05-21T09:07:21Z</time>
      </trkpt>
      <trkpt lat="45.34098" lon="5.81831">
        <ele>886</ele>
        <time>2016-05-21T09:09:21Z</time>
      </trkpt>
      <trkpt lat="45.34099" lon="5.81824">
        <ele>885</ele>
        <time>2016-05-21T09:11:21Z</time>
      </trkpt>
      <trkpt lat="45.34101" lon="5.81812">
        <ele>884</ele>
        <time>2016-05-21T09:13:21Z</time>
      </trkpt>
      <trkpt lat="45.34104" lon="5.818">
        <ele>884</ele>
        <time>2016-05-21T09:15:21Z</time>
      </trkpt>
      <trkpt lat="45.34107" lon="5.81791">
        <ele>884</ele>
        <time>2016-05-21T09:17:21Z</time>
      </trkpt>
      <trkpt lat="45.3411" lon="5.81781">
        <ele>883</ele>
        <time>2016-05-21T09:19:21Z</time>
      </trkpt>
      <trkpt lat="45.34124" lon="5.8174">
        <ele>883</ele>
        <time>2016-05-21T09:21:21Z</time>
      </trkpt>
      <trkpt lat="45.34138" lon="5.81699">
        <ele>884</ele>
        <time>2016-05-21T09:23:21Z</time>
      </trkpt>
      <trkpt lat="45.34138" lon="5.81699">
        <ele>884</ele>
        <time>2016-05-21T09:25:21Z</time>
      </trkpt>
      <trkpt lat="45.34148" lon="5.81667">
        <ele>884</ele>
        <time>2016-05-21T09:27:21Z</time>
      </trkpt>
      <trkpt lat="45.34151" lon="5.81657">
        <ele>885</ele>
        <time>2016-05-21T09:29:21Z</time>
      </trkpt>
      <trkpt lat="45.34162" lon="5.81619">
        <ele>889</ele>
        <time>2016-05-21T09:31:21Z</time>
      </trkpt>
      <trkpt lat="45.34168" lon="5.81602">
        <ele>891</ele>
        <time>2016-05-21T09:33:21Z</time>
      </trkpt>
      <trkpt lat="45.34173" lon="5.81586">
        <ele>892</ele>
        <time>2016-05-21T09:35:21Z</time>
      </trkpt>
      <trkpt lat="45.34196" lon="5.8158">
        <ele>894</ele>
        <time>2016-05-21T09:37:21Z</time>
      </trkpt>
      <trkpt lat="45.34207" lon="5.81583">
        <ele>895</ele>
        <time>2016-05-21T09:39:21Z</time>
      </trkpt>
      <trkpt lat="45.34217" lon="5.81581">
        <ele>896</ele>
        <time>2016-05-21T09:41:21Z</time>
      </trkpt>
      <trkpt lat="45.34259" lon="5.81565">
        <ele>897</ele>
        <time>2016-05-21T09:43:21Z</time>
      </trkpt>
      <trkpt lat="45.34285" lon="5.81557">
        <ele>897</ele>
        <time>2016-05-21T09:45:21Z</time>
      </trkpt>
      <trkpt lat="45.34296" lon="5.81555">
        <ele>897</ele>
        <time>2016-05-21T09:47:21Z</time>
      </trkpt>
      <trkpt lat="45.34316" lon="5.81554">
        <ele>898</ele>
        <time>2016-05-21T09:49:21Z</time>
      </trkpt>
      <trkpt lat="45.34335" lon="5.81553">
        <ele>898</ele>
        <time>2016-05-21T09:51:21Z</time>
      </trkpt>
      <trkpt lat="45.34342" lon="5.81553">
        <ele>898</ele>
        <time>2016-05-21T09:53:21Z</time>
      </trkpt>
      <trkpt lat="45.34348" lon="5.81555">
        <ele>898</ele>
        <time>2016-05-21T09:55:21Z</time>
      </trkpt>
      <trkpt lat="45.34358" lon="5.8156">
        <ele>898</ele>
        <time>2016-05-21T09:57:21Z</time>
      </trkpt>
      <trkpt lat="45.34365" lon="5.81568">
        <ele>899</ele>
        <time>2016-05-21T09:59:21Z</time>
      </trkpt>
      <trkpt lat="45.3439" lon="5.81591">
        <ele>901</ele>
        <time>2016-05-21T10:01:21Z</time>
      </trkpt>
      <trkpt lat="45.3439" lon="5.81591">
        <ele>901</ele>
        <time>2016-05-21T10:03:21Z</time>
      </trkpt>
      <trkpt lat="45.34402" lon="5.81606">
        <ele>902</ele>
        <time>2016-05-21T10:05:21Z</time>
      </trkpt>
      <trkpt lat="45.34423" lon="5.81631">
        <ele>903</ele>
        <time>2016-05-21T10:07:21Z</time>
      </trkpt>
      <trkpt lat="45.34446" lon="5.81656">
        <ele>905</ele>
        <time>2016-05-21T10:09:21Z</time>
      </trkpt>
      <trkpt lat="45.34458" lon="5.81673">
        <ele>907</ele>
        <time>2016-05-21T10:11:21Z</time>
      </trkpt>
      <trkpt lat="45.34464" lon="5.81677">
        <ele>907</ele>
        <time>2016-05-21T10:13:21Z</time>
      </trkpt>
      <trkpt lat="45.34472" lon="5.8168">
        <ele>907</ele>
        <time>2016-05-21T10:15:21Z</time>
      </trkpt>
      <trkpt lat="45.34479" lon="5.81681">
        <ele>907</ele>
        <time>2016-05-21T10:17:21Z</time>
      </trkpt>
      <trkpt lat="45.34488" lon="5.81681">
        <ele>906</ele>
        <time>2016-05-21T10:19:21Z</time>
      </trkpt>
      <trkpt lat="45.34495" lon="5.8168">
        <ele>906</ele>
        <time>2016-05-21T10:21:21Z</time>
      </trkpt>
      <trkpt lat="45.34511" lon="5.81677">
        <ele>906</ele>
        <time>2016-05-21T10:23:21Z</time>
      </trkpt>
      <trkpt lat="45.34524" lon="5.81675">
        <ele>906</ele>
        <time>2016-05-21T10:25:21Z</time>
      </trkpt>
      <trkpt lat="45.34538" lon="5.81676">
        <ele>907</ele>
        <time>2016-05-21T10:27:21Z</time>
      </trkpt>
      <trkpt lat="45.34551" lon="5.8168">
        <ele>908</ele>
        <time>2016-05-21T10:29:21Z</time>
      </trkpt>
      <trkpt lat="45.34559" lon="5.81683">
        <ele>909</ele>
        <time>2016-05-21T10:31:21Z</time>
      </trkpt>
      <trkpt lat="45.34563" lon="5.81684">
        <ele>910</ele>
        <time>2016-05-21T10:33:21Z</time>
      </trkpt>
      <trkpt lat="45.34574" lon="5.81689">
        <ele>911</ele>
        <time>2016-05-21T10:35:21Z</time>
      </trkpt>
      <trkpt lat="45.34577" lon="5.8169">
        <ele>912</ele>
        <time>2016-05-21T10:37:21Z</time>
      </trkpt>
      <trkpt lat="45.34585" lon="5.81692">
        <ele>912</ele>
        <time>2016-05-21T10:39:21Z</time>
      </trkpt>
      <trkpt lat="45.34591" lon="5.81691">
        <ele>912</ele>
        <time>2016-05-21T10:41:21Z</time>
      </trkpt>
      <trkpt lat="45.34598" lon="5.81691">
        <ele>913</ele>
        <time>2016-05-21T10:43:21Z</time>
      </trkpt>
      <trkpt lat="45.34603" lon="5.8169">
        <ele>913</ele>
        <time>2016-05-21T10:45:21Z</time>
      </trkpt>
      <trkpt lat="45.34628" lon="5.81683">
        <ele>913</ele>
        <time>2016-05-21T10:47:21Z</time>
      </trkpt>
      <trkpt lat="45.34634" lon="5.81683">
        <ele>913</ele>
        <time>2016-05-21T10:49:21Z</time>
      </trkpt>
      <trkpt lat="45.34658" lon="5.81682">
        <ele>914</ele>
        <time>2016-05-21T10:51:21Z</time>
      </trkpt>
      <trkpt lat="45.34693" lon="5.81688">
        <ele>915</ele>
        <time>2016-05-21T10:53:21Z</time>
      </trkpt>
      <trkpt lat="45.34715" lon="5.81694">
        <ele>915</ele>
        <time>2016-05-21T10:55:21Z</time>
      </trkpt>
      <trkpt lat="45.34734" lon="5.81697">
        <ele>916</ele>
        <time>2016-05-21T10:57:21Z</time>
      </trkpt>
      <trkpt lat="45.34744" lon="5.817">
        <ele>916</ele>
        <time>2016-05-21T10:59:21Z</time>
      </trkpt>
      <trkpt lat="45.34753" lon="5.81703">
        <ele>916</ele>
        <time>2016-05-21T11:01:21Z</time>
      </trkpt>
      <trkpt lat="45.3476" lon="5.81708">
        <ele>917</ele>
        <time>2016-05-21T11:03:21Z</time>
      </trkpt>
      <trkpt lat="45.3477" lon="5.81717">
        <ele>919</ele>
        <time>2016-05-21T11:05:21Z</time>
      </trkpt>
      <trkpt lat="45.34782" lon="5.81734">
        <ele>920</ele>
        <time>2016-05-21T11:07:21Z</time>
      </trkpt>
      <trkpt lat="45.34795" lon="5.81752">
        <ele>921</ele>
        <time>2016-05-21T11:09:21Z</time>
      </trkpt>
      <trkpt lat="45.34808" lon="5.81772">
        <ele>923</ele>
        <time>2016-05-21T11:11:21Z</time>
      </trkpt>
      <trkpt lat="45.34823" lon="5.81799">
        <ele>923</ele>
        <time>2016-05-21T11:13:21Z</time>
      </trkpt>
      <trkpt lat="45.34837" lon="5.81827">
        <ele>923</ele>
        <time>2016-05-21T11:15:21Z</time>
      </trkpt>
      <trkpt lat="45.34849" lon="5.81851">
        <ele>929</ele>
        <time>2016-05-21T11:17:21Z</time>
      </trkpt>
      <trkpt lat="45.34856" lon="5.81865">
        <ele>932</ele>
        <time>2016-05-21T11:19:21Z</time>
      </trkpt>
      <trkpt lat="45.34862" lon="5.81874">
        <ele>934</ele>
        <time>2016-05-21T11:21:21Z</time>
      </trkpt>
      <trkpt lat="45.3487" lon="5.81881">
        <ele>934</ele>
        <time>2016-05-21T11:23:21Z</time>
      </trkpt>
      <trkpt lat="45.34885" lon="5.81893">
        <ele>933</ele>
        <time>2016-05-21T11:25:21Z</time>
      </trkpt>
      <trkpt lat="45.34902" lon="5.81903">
        <ele>930</ele>
        <time>2016-05-21T11:27:21Z</time>
      </trkpt>
      <trkpt lat="45.34928" lon="5.81913">
        <ele>928</ele>
        <time>2016-05-21T11:29:21Z</time>
      </trkpt>
      <trkpt lat="45.34951" lon="5.81922">
        <ele>934</ele>
        <time>2016-05-21T11:31:21Z</time>
      </trkpt>
      <trkpt lat="45.3497" lon="5.81931">
        <ele>939</ele>
        <time>2016-05-21T11:33:21Z</time>
      </trkpt>
      <trkpt lat="45.34991" lon="5.81941">
        <ele>944</ele>
        <time>2016-05-21T11:35:21Z</time>
      </trkpt>
      <trkpt lat="45.35007" lon="5.81947">
        <ele>946</ele>
        <time>2016-05-21T11:37:21Z</time>
      </trkpt>
      <trkpt lat="45.35025" lon="5.81951">
        <ele>947</ele>
        <time>2016-05-21T11:39:21Z</time>
      </trkpt>
      <trkpt lat="45.35041" lon="5.81952">
        <ele>948</ele>
        <time>2016-05-21T11:41:21Z</time>
      </trkpt>
      <trkpt lat="45.35061" lon="5.8195">
        <ele>948</ele>
        <time>2016-05-21T11:43:21Z</time>
      </trkpt>
      <trkpt lat="45.35074" lon="5.81949">
        <ele>949</ele>
        <time>2016-05-21T11:45:21Z</time>
      </trkpt>
      <trkpt lat="45.35083" lon="5.8195">
        <ele>949</ele>
        <time>2016-05-21T11:47:21Z</time>
      </trkpt>
      <trkpt lat="45.35086" lon="5.81954">
        <ele>950</ele>
        <time>2016-05-21T11:49:21Z</time>
      </trkpt>
      <trkpt lat="45.35091" lon="5.81959">
        <ele>950</ele>
        <time>2016-05-21T11:51:21Z</time>
      </trkpt>
      <trkpt lat="45.35098" lon="5.81968">
        <ele>952</ele>
        <time>2016-05-21T11:53:21Z</time>
      </trkpt>
      <trkpt lat="45.35103" lon="5.81977">
        <ele>952</ele>
        <time>2016-05-21T11:55:21Z</time>
      </trkpt>
      <trkpt lat="45.35106" lon="5.81985">
        <ele>953</ele>
        <time>2016-05-21T11:57:21Z</time>
      </trkpt>
      <trkpt lat="45.35107" lon="5.81994">
        <ele>954</ele>
        <time>2016-05-21T11:59:21Z</time>
      </trkpt>
      <trkpt lat="45.35115" lon="5.82015">
        <ele>958</ele>
        <time>2016-05-21T12:01:21Z</time>
      </trkpt>
      <trkpt lat="45.35122" lon="5.82033">
        <ele>961</ele>
        <time>2016-05-21T12:03:21Z</time>
      </trkpt>
      <trkpt lat="45.3513" lon="5.8205">
        <ele>963</ele>
        <time>2016-05-21T12:05:21Z</time>
      </trkpt>
      <trkpt lat="45.35138" lon="5.82066">
        <ele>965</ele>
        <time>2016-05-21T12:07:21Z</time>
      </trkpt>
      <trkpt lat="45.35148" lon="5.82083">
        <ele>965</ele>
        <time>2016-05-21T12:09:21Z</time>
      </trkpt>
      <trkpt lat="45.35157" lon="5.82095">
        <ele>967</ele>
        <time>2016-05-21T12:11:21Z</time>
      </trkpt>
      <trkpt lat="45.35168" lon="5.8211">
        <ele>969</ele>
        <time>2016-05-21T12:13:21Z</time>
      </trkpt>
      <trkpt lat="45.35179" lon="5.82127">
        <ele>973</ele>
        <time>2016-05-21T12:15:21Z</time>
      </trkpt>
      <trkpt lat="45.35195" lon="5.82151">
        <ele>976</ele>
        <time>2016-05-21T12:17:21Z</time>
      </trkpt>
      <trkpt lat="45.35209" lon="5.8217">
        <ele>978</ele>
        <time>2016-05-21T12:19:21Z</time>
      </trkpt>
      <trkpt lat="45.35218" lon="5.82179">
        <ele>978</ele>
        <time>2016-05-21T12:21:21Z</time>
      </trkpt>
      <trkpt lat="45.35231" lon="5.82186">
        <ele>976</ele>
        <time>2016-05-21T12:23:21Z</time>
      </trkpt>
      <trkpt lat="45.35237" lon="5.82189">
        <ele>975</ele>
        <time>2016-05-21T12:25:21Z</time>
      </trkpt>
      <trkpt lat="45.35244" lon="5.82193">
        <ele>974</ele>
        <time>2016-05-21T12:27:21Z</time>
      </trkpt>
      <trkpt lat="45.3525" lon="5.82197">
        <ele>974</ele>
        <time>2016-05-21T12:29:21Z</time>
      </trkpt>
      <trkpt lat="45.35255" lon="5.82201">
        <ele>975</ele>
        <time>2016-05-21T12:31:21Z</time>
      </trkpt>
      <trkpt lat="45.3526" lon="5.82205">
        <ele>976</ele>
        <time>2016-05-21T12:33:21Z</time>
      </trkpt>
      <trkpt lat="45.35265" lon="5.82213">
        <ele>978</ele>
        <time>2016-05-21T12:35:21Z</time>
      </trkpt>
      <trkpt lat="45.3527" lon="5.8222">
        <ele>979</ele>
        <time>2016-05-21T12:37:21Z</time>
      </trkpt>
      <trkpt lat="45.35276" lon="5.82228">
        <ele>980</ele>
        <time>2016-05-21T12:39:21Z</time>
      </trkpt>
      <trkpt lat="45.35281" lon="5.82233">
        <ele>981</ele>
        <time>2016-05-21T12:41:21Z</time>
      </trkpt>
      <trkpt lat="45.3529" lon="5.8224">
        <ele>982</ele>
        <time>2016-05-21T12:43:21Z</time>
      </trkpt>
      <trkpt lat="45.353" lon="5.82246">
        <ele>983</ele>
        <time>2016-05-21T12:45:21Z</time>
      </trkpt>
      <trkpt lat="45.35313" lon="5.8225">
        <ele>983</ele>
        <time>2016-05-21T12:47:21Z</time>
      </trkpt>
      <trkpt lat="45.35329" lon="5.82254">
        <ele>983</ele>
        <time>2016-05-21T12:49:21Z</time>
      </trkpt>
      <trkpt lat="45.35347" lon="5.82259">
        <ele>984</ele>
        <time>2016-05-21T12:51:21Z</time>
      </trkpt>
      <trkpt lat="45.35354" lon="5.82262">
        <ele>985</ele>
        <time>2016-05-21T12:53:21Z</time>
      </trkpt>
      <trkpt lat="45.35361" lon="5.82266">
        <ele>985</ele>
        <time>2016-05-21T12:55:21Z</time>
      </trkpt>
      <trkpt lat="45.35368" lon="5.8227">
        <ele>986</ele>
        <time>2016-05-21T12:57:21Z</time>
      </trkpt>
      <trkpt lat="45.35373" lon="5.82276">
        <ele>987</ele>
        <time>2016-05-21T12:59:21Z</time>
      </trkpt>
      <trkpt lat="45.35381" lon="5.82285">
        <ele>989</ele>
        <time>2016-05-21T13:01:21Z</time>
      </trkpt>
      <trkpt lat="45.35389" lon="5.82299">
        <ele>990</ele>
        <time>2016-05-21T13:03:21Z</time>
      </trkpt>
      <trkpt lat="45.35397" lon="5.82313">
        <ele>992</ele>
        <time>2016-05-21T13:05:21Z</time>
      </trkpt>
      <trkpt lat="45.35403" lon="5.82324">
        <ele>993</ele>
        <time>2016-05-21T13:07:21Z</time>
      </trkpt>
      <trkpt lat="45.3541" lon="5.82337">
        <ele>995</ele>
        <time>2016-05-21T13:09:21Z</time>
      </trkpt>
      <trkpt lat="45.35423" lon="5.82354">
        <ele>999</ele>
        <time>2016-05-21T13:11:21Z</time>
      </trkpt>
      <trkpt lat="45.35432" lon="5.82365">
        <ele>1001</ele>
        <time>2016-05-21T13:13:21Z</time>
      </trkpt>
      <trkpt lat="45.35443" lon="5.82375">
        <ele>1003</ele>
        <time>2016-05-21T13:15:21Z</time>
      </trkpt>
      <trkpt lat="45.35468" lon="5.82392">
        <ele>1005</ele>
        <time>2016-05-21T13:17:21Z</time>
      </trkpt>
      <trkpt lat="45.35469" lon="5.82394">
        <ele>1006</ele>
        <time>2016-05-21T13:19:21Z</time>
      </trkpt>
      <trkpt lat="45.35474" lon="5.82404">
        <ele>1006</ele>
        <time>2016-05-21T13:21:21Z</time>
      </trkpt>
      <trkpt lat="45.35498" lon="5.82432">
        <ele>1009</ele>
        <time>2016-05-21T13:23:21Z</time>
      </trkpt>
      <trkpt lat="45.35516" lon="5.82451">
        <ele>1013</ele>
        <time>2016-05-21T13:25:21Z</time>
      </trkpt>
      <trkpt lat="45.35539" lon="5.82471">
        <ele>1016</ele>
        <time>2016-05-21T13:27:21Z</time>
      </trkpt>
      <trkpt lat="45.35554" lon="5.82482">
        <ele>1017</ele>
        <time>2016-05-21T13:29:21Z</time>
      </trkpt>
      <trkpt lat="45.35563" lon="5.82489">
        <ele>1017</ele>
        <time>2016-05-21T13:31:21Z</time>
      </trkpt>
      <trkpt lat="45.35572" lon="5.82495">
        <ele>1017</ele>
        <time>2016-05-21T13:33:21Z</time>
      </trkpt>
      <trkpt lat="45.35582" lon="5.825">
        <ele>1017</ele>
        <time>2016-05-21T13:35:21Z</time>
      </trkpt>
      <trkpt lat="45.35591" lon="5.82505">
        <ele>1019</ele>
        <time>2016-05-21T13:37:21Z</time>
      </trkpt>
      <trkpt lat="45.35605" lon="5.82515">
        <ele>1023</ele>
        <time>2016-05-21T13:39:21Z</time>
      </trkpt>
      <trkpt lat="45.35613" lon="5.8252">
        <ele>1025</ele>
        <time>2016-05-21T13:41:21Z</time>
      </trkpt>
      <trkpt lat="45.35627" lon="5.82532">
        <ele>1028</ele>
        <time>2016-05-21T13:43:21Z</time>
      </trkpt>
      <trkpt lat="45.3564" lon="5.82542">
        <ele>1030</ele>
        <time>2016-05-21T13:45:21Z</time>
      </trkpt>
      <trkpt lat="45.35648" lon="5.82546">
        <ele>1030</ele>
        <time>2016-05-21T13:47:21Z</time>
      </trkpt>
      <trkpt lat="45.35659" lon="5.82551">
        <ele>1031</ele>
        <time>2016-05-21T13:49:21Z</time>
      </trkpt>
      <trkpt lat="45.35665" lon="5.82552">
        <ele>1030</ele>
        <time>2016-05-21T13:51:21Z</time>
      </trkpt>
      <trkpt lat="45.35671" lon="5.82553">
        <ele>1031</ele>
        <time>2016-05-21T13:53:21Z</time>
      </trkpt>
      <trkpt lat="45.35673" lon="5.82553">
        <ele>1031</ele>
        <time>2016-05-21T13:55:21Z</time>
      </trkpt>
      <trkpt lat="45.35682" lon="5.82552">
        <ele>1032</ele>
        <time>2016-05-21T13:57:21Z</time>
      </trkpt>
      <trkpt lat="45.35688" lon="5.82553">
        <ele>1032</ele>
        <time>2016-05-21T13:59:21Z</time>
      </trkpt>
      <trkpt lat="45.35692" lon="5.82554">
        <ele>1033</ele>
        <time>2016-05-21T14:01:21Z</time>
      </trkpt>
      <trkpt lat="45.35697" lon="5.82559">
        <ele>1033</ele>
        <time>2016-05-21T14:03:21Z</time>
      </trkpt>
      <trkpt lat="45.35699" lon="5.82564">
        <ele>1034</ele>
        <time>2016-05-21T14:05:21Z</time>
      </trkpt>
      <trkpt lat="45.357" lon="5.82567">
        <ele>1034</ele>
        <time>2016-05-21T14:07:21Z</time>
      </trkpt>
      <trkpt lat="45.357" lon="5.82574">
        <ele>1034</ele>
        <time>2016-05-21T14:09:21Z</time>
      </trkpt>
      <trkpt lat="45.357" lon="5.82585">
        <ele>1035</ele>
        <time>2016-05-21T14:11:21Z</time>
      </trkpt>
      <trkpt lat="45.35699" lon="5.82602">
        <ele>1038</ele>
        <time>2016-05-21T14:13:21Z</time>
      </trkpt>
      <trkpt lat="45.357" lon="5.82624">
        <ele>1041</ele>
        <time>2016-05-21T14:15:21Z</time>
      </trkpt>
      <trkpt lat="45.35705" lon="5.82635">
        <ele>1042</ele>
        <time>2016-05-21T14:17:21Z</time>
      </trkpt>
      <trkpt lat="45.35709" lon="5.82644">
        <ele>1043</ele>
        <time>2016-05-21T14:19:21Z</time>
      </trkpt>
      <trkpt lat="45.3573" lon="5.8267">
        <ele>1041</ele>
        <time>2016-05-21T14:21:21Z</time>
      </trkpt>
      <trkpt lat="45.35741" lon="5.82687">
        <ele>1044</ele>
        <time>2016-05-21T14:23:21Z</time>
      </trkpt>
      <trkpt lat="45.35755" lon="5.82712">
        <ele>1049</ele>
        <time>2016-05-21T14:25:21Z</time>
      </trkpt>
      <trkpt lat="45.35766" lon="5.82737">
        <ele>1056</ele>
        <time>2016-05-21T14:27:21Z</time>
      </trkpt>
      <trkpt lat="45.35773" lon="5.82754">
        <ele>1059</ele>
        <time>2016-05-21T14:29:21Z</time>
      </trkpt>
      <trkpt lat="45.35777" lon="5.82768">
        <ele>1061</ele>
        <time>2016-05-21T14:31:21Z</time>
      </trkpt>
      <trkpt lat="45.3578" lon="5.82779">
        <ele>1063</ele>
        <time>2016-05-21T14:33:21Z</time>
      </trkpt>
      <trkpt lat="45.35784" lon="5.82803">
        <ele>1065</ele>
        <time>2016-05-21T14:35:21Z</time>
      </trkpt>
      <trkpt lat="45.35784" lon="5.82817">
        <ele>1067</ele>
        <time>2016-05-21T14:37:21Z</time>
      </trkpt>
      <trkpt lat="45.35787" lon="5.82843">
        <ele>1070</ele>
        <time>2016-05-21T14:39:21Z</time>
      </trkpt>
      <trkpt lat="45.3579" lon="5.82864">
        <ele>1072</ele>
        <time>2016-05-21T14:41:21Z</time>
      </trkpt>
      <trkpt lat="45.35794" lon="5.82886">
        <ele>1074</ele>
        <time>2016-05-21T14:43:21Z</time>
      </trkpt>
      <trkpt lat="45.35797" lon="5.82898">
        <ele>1075</ele>
        <time>2016-05-21T14:45:21Z</time>
      </trkpt>
      <trkpt lat="45.358" lon="5.82908">
        <ele>1075</ele>
        <time>2016-05-21T14:47:21Z</time>
      </trkpt>
      <trkpt lat="45.35803" lon="5.82917">
        <ele>1075</ele>
        <time>2016-05-21T14:49:21Z</time>
      </trkpt>
      <trkpt lat="45.35814" lon="5.82938">
        <ele>1078</ele>
        <time>2016-05-21T14:51:21Z</time>
      </trkpt>
      <trkpt lat="45.35819" lon="5.82946">
        <ele>1079</ele>
        <time>2016-05-21T14:53:21Z</time>
      </trkpt>
      <trkpt lat="45.35829" lon="5.82959">
        <ele>1080</ele>
        <time>2016-05-21T14:55:21Z</time>
      </trkpt>
      <trkpt lat="45.35835" lon="5.82967">
        <ele>1082</ele>
        <time>2016-05-21T14:57:21Z</time>
      </trkpt>
      <trkpt lat="45.35842" lon="5.82976">
        <ele>1085</ele>
        <time>2016-05-21T14:59:21Z</time>
      </trkpt>
      <trkpt lat="45.3585" lon="5.82988">
        <ele>1088</ele>
        <time>2016-05-21T15:01:21Z</time>
      </trkpt>
      <trkpt lat="45.35857" lon="5.82997">
        <ele>1090</ele>
        <time>2016-05-21T15:03:21Z</time>
      </trkpt>
      <trkpt lat="45.35862" lon="5.83002">
        <ele>1091</ele>
        <time>2016-05-21T15:05:21Z</time>
      </trkpt>
      <trkpt lat="45.35869" lon="5.83005">
        <ele>1090</ele>
        <time>2016-05-21T15:07:21Z</time>
      </trkpt>
      <trkpt lat="45.35876" lon="5.83006">
        <ele>1090</ele>
        <time>2016-05-21T15:09:21Z</time>
      </trkpt>
      <trkpt lat="45.35884" lon="5.83005">
        <ele>1088</ele>
        <time>2016-05-21T15:11:21Z</time>
      </trkpt>
      <trkpt lat="45.3589" lon="5.83003">
        <ele>1087</ele>
        <time>2016-05-21T15:13:21Z</time>
      </trkpt>
      <trkpt lat="45.35897" lon="5.82998">
        <ele>1085</ele>
        <time>2016-05-21T15:15:21Z</time>
      </trkpt>
      <trkpt lat="45.35908" lon="5.82992">
        <ele>1083</ele>
        <time>2016-05-21T15:17:21Z</time>
      </trkpt>
      <trkpt lat="45.35915" lon="5.82988">
        <ele>1082</ele>
        <time>2016-05-21T15:19:21Z</time>
      </trkpt>
      <trkpt lat="45.35919" lon="5.82986">
        <ele>1082</ele>
        <time>2016-05-21T15:21:21Z</time>
      </trkpt>
      <trkpt lat="45.35928" lon="5.82985">
        <ele>1083</ele>
        <time>2016-05-21T15:23:21Z</time>
      </trkpt>
      <trkpt lat="45.35935" lon="5.82985">
        <ele>1084</ele>
        <time>2016-05-21T15:25:21Z</time>
      </trkpt>
      <trkpt lat="45.35942" lon="5.82984">
        <ele>1085</ele>
        <time>2016-05-21T15:27:21Z</time>
      </trkpt>
      <trkpt lat="45.3595" lon="5.82983">
        <ele>1086</ele>
        <time>2016-05-21T15:29:21Z</time>
      </trkpt>
      <trkpt lat="45.35957" lon="5.82982">
        <ele>1087</ele>
        <time>2016-05-21T15:31:21Z</time>
      </trkpt>
      <trkpt lat="45.35967" lon="5.82979">
        <ele>1088</ele>
        <time>2016-05-21T15:33:21Z</time>
      </trkpt>
      <trkpt lat="45.35977" lon="5.82978">
        <ele>1089</ele>
        <time>2016-05-21T15:35:21Z</time>
      </trkpt>
      <trkpt lat="45.35985" lon="5.82978">
        <ele>1090</ele>
        <time>2016-05-21T15:37:21Z</time>
      </trkpt>
      <trkpt lat="45.35994" lon="5.8298">
        <ele>1091</ele>
        <time>2016-05-21T15:39:21Z</time>
      </trkpt>
      <trkpt lat="45.36009" lon="5.82983">
        <ele>1093</ele>
        <time>2016-05-21T15:41:21Z</time>
      </trkpt>
      <trkpt lat="45.36031" lon="5.82988">
        <ele>1096</ele>
        <time>2016-05-21T15:43:21Z</time>
      </trkpt>
      <trkpt lat="45.36046" lon="5.82989">
        <ele>1098</ele>
        <time>2016-05-21T15:45:21Z</time>
      </trkpt>
      <trkpt lat="45.36069" lon="5.8299">
        <ele>1102</ele>
        <time>2016-05-21T15:47:21Z</time>
      </trkpt>
      <trkpt lat="45.36112" lon="5.8299">
        <ele>1108</ele>
        <time>2016-05-21T15:49:21Z</time>
      </trkpt>
      <trkpt lat="45.36156" lon="5.82998">
        <ele>1114</ele>
        <time>2016-05-21T15:51:21Z</time>
      </trkpt>
      <trkpt lat="45.36191" lon="5.83008">
        <ele>1119</ele>
        <time>2016-05-21T15:53:21Z</time>
      </trkpt>
      <trkpt lat="45.36211" lon="5.83023">
        <ele>1122</ele>
        <time>2016-05-21T15:55:21Z</time>
      </trkpt>
      <trkpt lat="45.3622" lon="5.83032">
        <ele>1122</ele>
        <time>2016-05-21T15:57:21Z</time>
      </trkpt>
      <trkpt lat="45.3623" lon="5.83044">
        <ele>1122</ele>
        <time>2016-05-21T15:59:21Z</time>
      </trkpt>
      <trkpt lat="45.3626" lon="5.83077">
        <ele>1120</ele>
        <time>2016-05-21T16:01:21Z</time>
      </trkpt>
      <trkpt lat="45.36288" lon="5.83109">
        <ele>1127</ele>
        <time>2016-05-21T16:03:21Z</time>
      </trkpt>
      <trkpt lat="45.36329" lon="5.83155">
        <ele>1129</ele>
        <time>2016-05-21T16:05:21Z</time>
      </trkpt>
      <trkpt lat="45.36353" lon="5.83178">
        <ele>1132</ele>
        <time>2016-05-21T16:07:21Z</time>
      </trkpt>
      <trkpt lat="45.36364" lon="5.83195">
        <ele>1136</ele>
        <time>2016-05-21T16:09:21Z</time>
      </trkpt>
      <trkpt lat="45.36379" lon="5.83233">
        <ele>1140</ele>
        <time>2016-05-21T16:11:21Z</time>
      </trkpt>
      <trkpt lat="45.36387" lon="5.83254">
        <ele>1142</ele>
        <time>2016-05-21T16:13:21Z</time>
      </trkpt>
      <trkpt lat="45.36395" lon="5.83267">
        <ele>1144</ele>
        <time>2016-05-21T16:15:21Z</time>
      </trkpt>
      <trkpt lat="45.36408" lon="5.83284">
        <ele>1146</ele>
        <time>2016-05-21T16:17:21Z</time>
      </trkpt>
      <trkpt lat="45.36428" lon="5.8331">
        <ele>1150</ele>
        <time>2016-05-21T16:19:21Z</time>
      </trkpt>
      <trkpt lat="45.36439" lon="5.83322">
        <ele>1152</ele>
        <time>2016-05-21T16:21:21Z</time>
      </trkpt>
      <trkpt lat="45.36453" lon="5.83336">
        <ele>1152</ele>
        <time>2016-05-21T16:23:21Z</time>
      </trkpt>
      <trkpt lat="45.36486" lon="5.83364">
        <ele>1153</ele>
        <time>2016-05-21T16:25:21Z</time>
      </trkpt>
      <trkpt lat="45.36514" lon="5.83387">
        <ele>1153</ele>
        <time>2016-05-21T16:27:21Z</time>
      </trkpt>
      <trkpt lat="45.36522" lon="5.83395">
        <ele>1154</ele>
        <time>2016-05-21T16:29:21Z</time>
      </trkpt>
      <trkpt lat="45.3654" lon="5.8341">
        <ele>1153</ele>
        <time>2016-05-21T16:31:21Z</time>
      </trkpt>
      <trkpt lat="45.36552" lon="5.83418">
        <ele>1152</ele>
        <time>2016-05-21T16:33:21Z</time>
      </trkpt>
      <trkpt lat="45.36567" lon="5.83428">
        <ele>1150</ele>
        <time>2016-05-21T16:35:21Z</time>
      </trkpt>
      <trkpt lat="45.36577" lon="5.83432">
        <ele>1149</ele>
        <time>2016-05-21T16:37:21Z</time>
      </trkpt>
      <trkpt lat="45.36589" lon="5.83437">
        <ele>1147</ele>
        <time>2016-05-21T16:39:21Z</time>
      </trkpt>
      <trkpt lat="45.36605" lon="5.83441">
        <ele>1146</ele>
        <time>2016-05-21T16:41:21Z</time>
      </trkpt>
      <trkpt lat="45.36619" lon="5.83442">
        <ele>1145</ele>
        <time>2016-05-21T16:43:21Z</time>
      </trkpt>
      <trkpt lat="45.36632" lon="5.83445">
        <ele>1143</ele>
        <time>2016-05-21T16:45:21Z</time>
      </trkpt>
      <trkpt lat="45.36655" lon="5.83448">
        <ele>1140</ele>
        <time>2016-05-21T16:47:21Z</time>
      </trkpt>
      <trkpt lat="45.36673" lon="5.83452">
        <ele>1138</ele>
        <time>2016-05-21T16:49:21Z</time>
      </trkpt>
      <trkpt lat="45.36702" lon="5.83458">
        <ele>1138</ele>
        <time>2016-05-21T16:51:21Z</time>
      </trkpt>
      <trkpt lat="45.36727" lon="5.83466">
        <ele>1138</ele>
        <time>2016-05-21T16:53:21Z</time>
      </trkpt>
      <trkpt lat="45.36739" lon="5.83474">
        <ele>1135</ele>
        <time>2016-05-21T16:55:21Z</time>
      </trkpt>
      <trkpt lat="45.36746" lon="5.83479">
        <ele>1134</ele>
        <time>2016-05-21T16:57:21Z</time>
      </trkpt>
      <trkpt lat="45.36751" lon="5.83483">
        <ele>1133</ele>
        <time>2016-05-21T16:59:21Z</time>
      </trkpt>
      <trkpt lat="45.36757" lon="5.83487">
        <ele>1133</ele>
        <time>2016-05-21T17:01:21Z</time>
      </trkpt>
      <trkpt lat="45.36768" lon="5.83498">
        <ele>1131</ele>
        <time>2016-05-21T17:03:21Z</time>
      </trkpt>
      <trkpt lat="45.36775" lon="5.83505">
        <ele>1131</ele>
        <time>2016-05-21T17:05:21Z</time>
      </trkpt>
      <trkpt lat="45.36781" lon="5.83514">
        <ele>1130</ele>
        <time>2016-05-21T17:07:21Z</time>
      </trkpt>
      <trkpt lat="45.36786" lon="5.83523">
        <ele>1129</ele>
        <time>2016-05-21T17:09:21Z</time>
      </trkpt>
      <trkpt lat="45.36791" lon="5.83532">
        <ele>1127</ele>
        <time>2016-05-21T17:11:21Z</time>
      </trkpt>
      <trkpt lat="45.36795" lon="5.83544">
        <ele>1125</ele>
        <time>2016-05-21T17:13:21Z</time>
      </trkpt>
      <trkpt lat="45.36799" lon="5.8356">
        <ele>1121</ele>
        <time>2016-05-21T17:15:21Z</time>
      </trkpt>
      <trkpt lat="45.36802" lon="5.83577">
        <ele>1117</ele>
        <time>2016-05-21T17:17:21Z</time>
      </trkpt>
      <trkpt lat="45.36806" lon="5.83589">
        <ele>1115</ele>
        <time>2016-05-21T17:19:21Z</time>
      </trkpt>
      <trkpt lat="45.36812" lon="5.83602">
        <ele>1114</ele>
        <time>2016-05-21T17:21:21Z</time>
      </trkpt>
      <trkpt lat="45.36819" lon="5.8361">
        <ele>1113</ele>
        <time>2016-05-21T17:23:21Z</time>
      </trkpt>
      <trkpt lat="45.36832" lon="5.83623">
        <ele>1112</ele>
        <time>2016-05-21T17:25:21Z</time>
      </trkpt>
      <trkpt lat="45.36839" lon="5.83629">
        <ele>1111</ele>
        <time>2016-05-21T17:27:21Z</time>
      </trkpt>
      <trkpt lat="45.36847" lon="5.83635">
        <ele>1110</ele>
        <time>2016-05-21T17:29:21Z</time>
      </trkpt>
      <trkpt lat="45.36854" lon="5.8364">
        <ele>1109</ele>
        <time>2016-05-21T17:31:21Z</time>
      </trkpt>
      <trkpt lat="45.36858" lon="5.83643">
        <ele>1109</ele>
        <time>2016-05-21T17:33:21Z</time>
      </trkpt>
      <trkpt lat="45.36863" lon="5.83646">
        <ele>1108</ele>
        <time>2016-05-21T17:35:21Z</time>
      </trkpt>
      <trkpt lat="45.36875" lon="5.83651">
        <ele>1107</ele>
        <time>2016-05-21T17:37:21Z</time>
      </trkpt>
      <trkpt lat="45.36931" lon="5.83671">
        <ele>1105</ele>
        <time>2016-05-21T17:39:21Z</time>
      </trkpt>
      <trkpt lat="45.36946" lon="5.83676">
        <ele>1107</ele>
        <time>2016-05-21T17:41:21Z</time>
      </trkpt>
      <trkpt lat="45.36956" lon="5.8368">
        <ele>1108</ele>
        <time>2016-05-21T17:43:21Z</time>
      </trkpt>
      <trkpt lat="45.36968" lon="5.83687">
        <ele>1108</ele>
        <time>2016-05-21T17:45:21Z</time>
      </trkpt>
      <trkpt lat="45.36976" lon="5.83693">
        <ele>1108</ele>
        <time>2016-05-21T17:47:21Z</time>
      </trkpt>
      <trkpt lat="45.36982" lon="5.837">
        <ele>1106</ele>
        <time>2016-05-21T17:49:21Z</time>
      </trkpt>
      <trkpt lat="45.37001" lon="5.83722">
        <ele>1101</ele>
        <time>2016-05-21T17:51:21Z</time>
      </trkpt>
      <trkpt lat="45.37018" lon="5.83745">
        <ele>1095</ele>
        <time>2016-05-21T17:53:21Z</time>
      </trkpt>
      <trkpt lat="45.37028" lon="5.83761">
        <ele>1091</ele>
        <time>2016-05-21T17:55:21Z</time>
      </trkpt>
      <trkpt lat="45.37041" lon="5.83779">
        <ele>1089</ele>
        <time>2016-05-21T17:57:21Z</time>
      </trkpt>
      <trkpt lat="45.37065" lon="5.8382">
        <ele>1082</ele>
        <time>2016-05-21T17:59:21Z</time>
      </trkpt>
      <trkpt lat="45.37071" lon="5.83836">
        <ele>1079</ele>
        <time>2016-05-21T18:01:21Z</time>
      </trkpt>
      <trkpt lat="45.37074" lon="5.8384">
        <ele>1079</ele>
        <time>2016-05-21T18:03:21Z</time>
      </trkpt>
      <trkpt lat="45.37078" lon="5.83845">
        <ele>1079</ele>
        <time>2016-05-21T18:05:21Z</time>
      </trkpt>
      <trkpt lat="45.37083" lon="5.83849">
        <ele>1079</ele>
        <time>2016-05-21T18:07:21Z</time>
      </trkpt>
      <trkpt lat="45.37088" lon="5.8385">
        <ele>1079</ele>
        <time>2016-05-21T18:09:21Z</time>
      </trkpt>
      <trkpt lat="45.37092" lon="5.8385">
        <ele>1079</ele>
        <time>2016-05-21T18:11:21Z</time>
      </trkpt>
      <trkpt lat="45.37098" lon="5.83848">
        <ele>1079</ele>
        <time>2016-05-21T18:13:21Z</time>
      </trkpt>
      <trkpt lat="45.37106" lon="5.83843">
        <ele>1080</ele>
        <time>2016-05-21T18:15:21Z</time>
      </trkpt>
      <trkpt lat="45.3711" lon="5.83839">
        <ele>1081</ele>
        <time>2016-05-21T18:17:21Z</time>
      </trkpt>
      <trkpt lat="45.37113" lon="5.83835">
        <ele>1081</ele>
        <time>2016-05-21T18:19:21Z</time>
      </trkpt>
      <trkpt lat="45.3712" lon="5.83832">
        <ele>1082</ele>
        <time>2016-05-21T18:21:21Z</time>
      </trkpt>
      <trkpt lat="45.37125" lon="5.8383">
        <ele>1082</ele>
        <time>2016-05-21T18:23:21Z</time>
      </trkpt>
      <trkpt lat="45.37132" lon="5.8383">
        <ele>1082</ele>
        <time>2016-05-21T18:25:21Z</time>
      </trkpt>
      <trkpt lat="45.37145" lon="5.83836">
        <ele>1081</ele>
        <time>2016-05-21T18:27:21Z</time>
      </trkpt>
      <trkpt lat="45.37146" lon="5.83837">
        <ele>1081</ele>
        <time>2016-05-21T18:29:21Z</time>
      </trkpt>
      <trkpt lat="45.37146" lon="5.83837">
        <ele>1081</ele>
        <time>2016-05-21T18:31:21Z</time>
      </trkpt>
      <trkpt lat="45.37144" lon="5.83846">
        <ele>1079</ele>
        <time>2016-05-21T18:33:21Z</time>
      </trkpt>
      <trkpt lat="45.37142" lon="5.83852">
        <ele>1078</ele>
        <time>2016-05-21T18:35:21Z</time>
      </trkpt>
      <trkpt lat="45.3714" lon="5.83862">
        <ele>1076</ele>
        <time>2016-05-21T18:37:21Z</time>
      </trkpt>
      <trkpt lat="45.37138" lon="5.83869">
        <ele>1075</ele>
        <time>2016-05-21T18:39:21Z</time>
      </trkpt>
      <trkpt lat="45.37135" lon="5.83875">
        <ele>1074</ele>
        <time>2016-05-21T18:41:21Z</time>
      </trkpt>
      <trkpt lat="45.37132" lon="5.8388">
        <ele>1073</ele>
        <time>2016-05-21T18:43:21Z</time>
      </trkpt>
      <trkpt lat="45.37128" lon="5.83883">
        <ele>1072</ele>
        <time>2016-05-21T18:45:21Z</time>
      </trkpt>
      <trkpt lat="45.37124" lon="5.83886">
        <ele>1071</ele>
        <time>2016-05-21T18:47:21Z</time>
      </trkpt>
      <trkpt lat="45.37119" lon="5.8389">
        <ele>1071</ele>
        <time>2016-05-21T18:49:21Z</time>
      </trkpt>
      <trkpt lat="45.37112" lon="5.83894">
        <ele>1070</ele>
        <time>2016-05-21T18:51:21Z</time>
      </trkpt>
      <trkpt lat="45.37101" lon="5.83897">
        <ele>1069</ele>
        <time>2016-05-21T18:53:21Z</time>
      </trkpt>
      <trkpt lat="45.37093" lon="5.83897">
        <ele>1069</ele>
        <time>2016-05-21T18:55:21Z</time>
      </trkpt>
      <trkpt lat="45.37082" lon="5.83896">
        <ele>1069</ele>
        <time>2016-05-21T18:57:21Z</time>
      </trkpt>
      <trkpt lat="45.37069" lon="5.83893">
        <ele>1069</ele>
        <time>2016-05-21T18:59:21Z</time>
      </trkpt>
      <trkpt lat="45.37061" lon="5.8389">
        <ele>1068</ele>
        <time>2016-05-21T19:01:21Z</time>
      </trkpt>
      <trkpt lat="45.37053" lon="5.83889">
        <ele>1068</ele>
        <time>2016-05-21T19:03:21Z</time>
      </trkpt>
      <trkpt lat="45.37045" lon="5.83889">
        <ele>1067</ele>
        <time>2016-05-21T19:05:21Z</time>
      </trkpt>
      <trkpt lat="45.37043" lon="5.83889">
        <ele>1067</ele>
        <time>2016-05-21T19:07:21Z</time>
      </trkpt>
      <trkpt lat="45.37041" lon="5.8389">
        <ele>1067</ele>
        <time>2016-05-21T19:09:21Z</time>
      </trkpt>
      <trkpt lat="45.37039" lon="5.8389">
        <ele>1066</ele>
        <time>2016-05-21T19:11:21Z</time>
      </trkpt>
      <trkpt lat="45.37038" lon="5.83891">
        <ele>1066</ele>
        <time>2016-05-21T19:13:21Z</time>
      </trkpt>
      <trkpt lat="45.37034" lon="5.83893">
        <ele>1066</ele>
        <time>2016-05-21T19:15:21Z</time>
      </trkpt>
      <trkpt lat="45.37032" lon="5.83894">
        <ele>1065</ele>
        <time>2016-05-21T19:17:21Z</time>
      </trkpt>
      <trkpt lat="45.37027" lon="5.83897">
        <ele>1065</ele>
        <time>2016-05-21T19:19:21Z</time>
      </trkpt>
      <trkpt lat="45.37018" lon="5.83903">
        <ele>1063</ele>
        <time>2016-05-21T19:21:21Z</time>
      </trkpt>
      <trkpt lat="45.37014" lon="5.83907">
        <ele>1063</ele>
        <time>2016-05-21T19:23:21Z</time>
      </trkpt>
      <trkpt lat="45.37011" lon="5.83912">
        <ele>1062</ele>
        <time>2016-05-21T19:25:21Z</time>
      </trkpt>
      <trkpt lat="45.37008" lon="5.83917">
        <ele>1061</ele>
        <time>2016-05-21T19:27:21Z</time>
      </trkpt>
      <trkpt lat="45.37006" lon="5.83923">
        <ele>1061</ele>
        <time>2016-05-21T19:29:21Z</time>
      </trkpt>
      <trkpt lat="45.37005" lon="5.83925">
        <ele>1061</ele>
        <time>2016-05-21T19:31:21Z</time>
      </trkpt>
      <trkpt lat="45.37002" lon="5.83941">
        <ele>1060</ele>
        <time>2016-05-21T19:33:21Z</time>
      </trkpt>
      <trkpt lat="45.37002" lon="5.83944">
        <ele>1060</ele>
        <time>2016-05-21T19:35:21Z</time>
      </trkpt>
      <trkpt lat="45.37002" lon="5.83948">
        <ele>1060</ele>
        <time>2016-05-21T19:37:21Z</time>
      </trkpt>
      <trkpt lat="45.37002" lon="5.83951">
        <ele>1060</ele>
        <time>2016-05-21T19:39:21Z</time>
      </trkpt>
      <trkpt lat="45.37003" lon="5.83955">
        <ele>1060</ele>
        <time>2016-05-21T19:41:21Z</time>
      </trkpt>
      <trkpt lat="45.37005" lon="5.83961">
        <ele>1060</ele>
        <time>2016-05-21T19:43:21Z</time>
      </trkpt>
      <trkpt lat="45.37016" lon="5.83987">
        <ele>1058</ele>
        <time>2016-05-21T19:45:21Z</time>
      </trkpt>
      <trkpt lat="45.37017" lon="5.8399">
        <ele>1057</ele>
        <time>2016-05-21T19:47:21Z</time>
      </trkpt>
      <trkpt lat="45.37019" lon="5.83994">
        <ele>1057</ele>
        <time>2016-05-21T19:49:21Z</time>
      </trkpt>
      <trkpt lat="45.3702" lon="5.83999">
        <ele>1056</ele>
        <time>2016-05-21T19:51:21Z</time>
      </trkpt>
      <trkpt lat="45.37022" lon="5.84004">
        <ele>1057</ele>
        <time>2016-05-21T19:53:21Z</time>
      </trkpt>
      <trkpt lat="45.37023" lon="5.8401">
        <ele>1057</ele>
        <time>2016-05-21T19:55:21Z</time>
      </trkpt>
      <trkpt lat="45.37025" lon="5.84018">
        <ele>1058</ele>
        <time>2016-05-21T19:57:21Z</time>
      </trkpt>
      <trkpt lat="45.37026" lon="5.84026">
        <ele>1058</ele>
        <time>2016-05-21T19:59:21Z</time>
      </trkpt>
      <trkpt lat="45.37026" lon="5.84033">
        <ele>1059</ele>
        <time>2016-05-21T20:01:21Z</time>
      </trkpt>
      <trkpt lat="45.37027" lon="5.84041">
        <ele>1060</ele>
        <time>2016-05-21T20:03:21Z</time>
      </trkpt>
      <trkpt lat="45.37028" lon="5.84049">
        <ele>1060</ele>
        <time>2016-05-21T20:05:21Z</time>
      </trkpt>
      <trkpt lat="45.37029" lon="5.84056">
        <ele>1061</ele>
        <time>2016-05-21T20:07:21Z</time>
      </trkpt>
      <trkpt lat="45.37031" lon="5.84062">
        <ele>1061</ele>
        <time>2016-05-21T20:09:21Z</time>
      </trkpt>
      <trkpt lat="45.37034" lon="5.8407">
        <ele>1060</ele>
        <time>2016-05-21T20:11:21Z</time>
      </trkpt>
      <trkpt lat="45.37037" lon="5.84079">
        <ele>1059</ele>
        <time>2016-05-21T20:13:21Z</time>
      </trkpt>
      <trkpt lat="45.3704" lon="5.84087">
        <ele>1059</ele>
        <time>2016-05-21T20:15:21Z</time>
      </trkpt>
      <trkpt lat="45.37054" lon="5.84112">
        <ele>1056</ele>
        <time>2016-05-21T20:17:21Z</time>
      </trkpt>
      <trkpt lat="45.37067" lon="5.84129">
        <ele>1054</ele>
        <time>2016-05-21T20:19:21Z</time>
      </trkpt>
      <trkpt lat="45.37084" lon="5.84146">
        <ele>1050</ele>
        <time>2016-05-21T20:21:21Z</time>
      </trkpt>
      <trkpt lat="45.37099" lon="5.84158">
        <ele>1048</ele>
        <time>2016-05-21T20:23:21Z</time>
      </trkpt>
      <trkpt lat="45.37143" lon="5.84192">
        <ele>1042</ele>
        <time>2016-05-21T20:25:21Z</time>
      </trkpt>
      <trkpt lat="45.37161" lon="5.84203">
        <ele>1039</ele>
        <time>2016-05-21T20:27:21Z</time>
      </trkpt>
      <trkpt lat="45.37177" lon="5.84214">
        <ele>1037</ele>
        <time>2016-05-21T20:29:21Z</time>
      </trkpt>
      <trkpt lat="45.37186" lon="5.84221">
        <ele>1036</ele>
        <time>2016-05-21T20:31:21Z</time>
      </trkpt>
      <trkpt lat="45.37205" lon="5.84235">
        <ele>1033</ele>
        <time>2016-05-21T20:33:21Z</time>
      </trkpt>
      <trkpt lat="45.37219" lon="5.84249">
        <ele>1030</ele>
        <time>2016-05-21T20:35:21Z</time>
      </trkpt>
      <trkpt lat="45.37235" lon="5.84266">
        <ele>1028</ele>
        <time>2016-05-21T20:37:21Z</time>
      </trkpt>
      <trkpt lat="45.37253" lon="5.84289">
        <ele>1026</ele>
        <time>2016-05-21T20:39:21Z</time>
      </trkpt>
      <trkpt lat="45.37271" lon="5.84307">
        <ele>1024</ele>
        <time>2016-05-21T20:41:21Z</time>
      </trkpt>
      <trkpt lat="45.3729" lon="5.84322">
        <ele>1021</ele>
        <time>2016-05-21T20:43:21Z</time>
      </trkpt>
      <trkpt lat="45.37304" lon="5.84333">
        <ele>1019</ele>
        <time>2016-05-21T20:45:21Z</time>
      </trkpt>
      <trkpt lat="45.37318" lon="5.84347">
        <ele>1018</ele>
        <time>2016-05-21T20:47:21Z</time>
      </trkpt>
      <trkpt lat="45.37328" lon="5.84355">
        <ele>1017</ele>
        <time>2016-05-21T20:49:21Z</time>
      </trkpt>
      <trkpt lat="45.37348" lon="5.84368">
        <ele>1013</ele>
        <time>2016-05-21T20:51:21Z</time>
      </trkpt>
      <trkpt lat="45.37361" lon="5.84379">
        <ele>1011</ele>
        <time>2016-05-21T20:53:21Z</time>
      </trkpt>
      <trkpt lat="45.37371" lon="5.8439">
        <ele>1009</ele>
        <time>2016-05-21T20:55:21Z</time>
      </trkpt>
      <trkpt lat="45.37381" lon="5.84399">
        <ele>1007</ele>
        <time>2016-05-21T20:57:21Z</time>
      </trkpt>
      <trkpt lat="45.3739" lon="5.84409">
        <ele>1005</ele>
        <time>2016-05-21T20:59:21Z</time>
      </trkpt>
      <trkpt lat="45.37414" lon="5.84442">
        <ele>1000</ele>
        <time>2016-05-21T21:01:21Z</time>
      </trkpt>
      <trkpt lat="45.3743" lon="5.84464">
        <ele>998</ele>
        <time>2016-05-21T21:03:21Z</time>
      </trkpt>
      <trkpt lat="45.37454" lon="5.845">
        <ele>995</ele>
        <time>2016-05-21T21:05:21Z</time>
      </trkpt>
      <trkpt lat="45.37495" lon="5.84562">
        <ele>988</ele>
        <time>2016-05-21T21:07:21Z</time>
      </trkpt>
      <trkpt lat="45.37513" lon="5.84587">
        <ele>984</ele>
        <time>2016-05-21T21:09:21Z</time>
      </trkpt>
      <trkpt lat="45.37528" lon="5.84607">
        <ele>985</ele>
        <time>2016-05-21T21:11:21Z</time>
      </trkpt>
      <trkpt lat="45.37541" lon="5.84623">
        <ele>985</ele>
        <time>2016-05-21T21:13:21Z</time>
      </trkpt>
      <trkpt lat="45.37554" lon="5.84636">
        <ele>983</ele>
        <time>2016-05-21T21:15:21Z</time>
      </trkpt>
      <trkpt lat="45.37582" lon="5.84662">
        <ele>974</ele>
        <time>2016-05-21T21:17:21Z</time>
      </trkpt>
      <trkpt lat="45.37586" lon="5.84665">
        <ele>973</ele>
        <time>2016-05-21T21:19:21Z</time>
      </trkpt>
      <trkpt lat="45.37756" lon="5.84789">
        <ele>959</ele>
        <time>2016-05-21T21:21:21Z</time>
      </trkpt>
      <trkpt lat="45.37778" lon="5.84806">
        <ele>955</ele>
        <time>2016-05-21T21:23:21Z</time>
      </trkpt>
      <trkpt lat="45.37795" lon="5.84818">
        <ele>950</ele>
        <time>2016-05-21T21:25:21Z</time>
      </trkpt>
      <trkpt lat="45.37809" lon="5.84833">
        <ele>946</ele>
        <time>2016-05-21T21:27:21Z</time>
      </trkpt>
      <trkpt lat="45.3782" lon="5.84848">
        <ele>945</ele>
        <time>2016-05-21T21:29:21Z</time>
      </trkpt>
      <trkpt lat="45.37832" lon="5.84865">
        <ele>944</ele>
        <time>2016-05-21T21:31:21Z</time>
      </trkpt>
      <trkpt lat="45.3784" lon="5.8488">
        <ele>945</ele>
        <time>2016-05-21T21:33:21Z</time>
      </trkpt>
      <trkpt lat="45.37854" lon="5.84897">
        <ele>945</ele>
        <time>2016-05-21T21:35:21Z</time>
      </trkpt>
      <trkpt lat="45.37894" lon="5.84938">
        <ele>944</ele>
        <time>2016-05-21T21:37:21Z</time>
      </trkpt>
      <trkpt lat="45.37907" lon="5.84948">
        <ele>943</ele>
        <time>2016-05-21T21:39:21Z</time>
      </trkpt>
      <trkpt lat="45.37922" lon="5.84959">
        <ele>942</ele>
        <time>2016-05-21T21:41:21Z</time>
      </trkpt>
      <trkpt lat="45.3793" lon="5.84962">
        <ele>941</ele>
        <time>2016-05-21T21:43:21Z</time>
      </trkpt>
      <trkpt lat="45.37944" lon="5.84966">
        <ele>938</ele>
        <time>2016-05-21T21:45:21Z</time>
      </trkpt>
      <trkpt lat="45.37959" lon="5.84967">
        <ele>935</ele>
        <time>2016-05-21T21:47:21Z</time>
      </trkpt>
      <trkpt lat="45.3797" lon="5.84968">
        <ele>933</ele>
        <time>2016-05-21T21:49:21Z</time>
      </trkpt>
      <trkpt lat="45.37986" lon="5.84974">
        <ele>931</ele>
        <time>2016-05-21T21:51:21Z</time>
      </trkpt>
      <trkpt lat="45.37995" lon="5.84977">
        <ele>929</ele>
        <time>2016-05-21T21:53:21Z</time>
      </trkpt>
      <trkpt lat="45.38008" lon="5.84989">
        <ele>928</ele>
        <time>2016-05-21T21:55:21Z</time>
      </trkpt>
      <trkpt lat="45.38025" lon="5.85005">
        <ele>928</ele>
        <time>2016-05-21T21:57:21Z</time>
      </trkpt>
      <trkpt lat="45.38032" lon="5.85012">
        <ele>929</ele>
        <time>2016-05-21T21:59:21Z</time>
      </trkpt>
      <trkpt lat="45.38041" lon="5.85021">
        <ele>929</ele>
        <time>2016-05-21T22:01:21Z</time>
      </trkpt>
      <trkpt lat="45.38051" lon="5.85033">
        <ele>929</ele>
        <time>2016-05-21T22:03:21Z</time>
      </trkpt>
      <trkpt lat="45.38059" lon="5.85046">
        <ele>930</ele>
        <time>2016-05-21T22:05:21Z</time>
      </trkpt>
      <trkpt lat="45.3807" lon="5.85074">
        <ele>932</ele>
        <time>2016-05-21T22:07:21Z</time>
      </trkpt>
      <trkpt lat="45.38087" lon="5.85124">
        <ele>933</ele>
        <time>2016-05-21T22:09:21Z</time>
      </trkpt>
      <trkpt lat="45.38091" lon="5.85135">
        <ele>934</ele>
        <time>2016-05-21T22:11:21Z</time>
      </trkpt>
      <trkpt lat="45.38095" lon="5.85147">
        <ele>934</ele>
        <time>2016-05-21T22:13:21Z</time>
      </trkpt>
      <trkpt lat="45.38098" lon="5.85159">
        <ele>935</ele>
        <time>2016-05-21T22:15:21Z</time>
      </trkpt>
      <trkpt lat="45.38098" lon="5.85171">
        <ele>934</ele>
        <time>2016-05-21T22:17:21Z</time>
      </trkpt>
      <trkpt lat="45.38094" lon="5.85184">
        <ele>933</ele>
        <time>2016-05-21T22:19:21Z</time>
      </trkpt>
      <trkpt lat="45.38089" lon="5.85197">
        <ele>932</ele>
        <time>2016-05-21T22:21:21Z</time>
      </trkpt>
      <trkpt lat="45.38069" lon="5.85222">
        <ele>932</ele>
        <time>2016-05-21T22:23:21Z</time>
      </trkpt>
      <trkpt lat="45.38063" lon="5.85231">
        <ele>932</ele>
        <time>2016-05-21T22:25:21Z</time>
      </trkpt>
      <trkpt lat="45.38054" lon="5.85246">
        <ele>933</ele>
        <time>2016-05-21T22:27:21Z</time>
      </trkpt>
      <trkpt lat="45.38026" lon="5.85298">
        <ele>933</ele>
        <time>2016-05-21T22:29:21Z</time>
      </trkpt>
      <trkpt lat="45.38008" lon="5.8533">
        <ele>933</ele>
        <time>2016-05-21T22:31:21Z</time>
      </trkpt>
      <trkpt lat="45.37997" lon="5.85344">
        <ele>934</ele>
        <time>2016-05-21T22:33:21Z</time>
      </trkpt>
      <trkpt lat="45.37991" lon="5.8535">
        <ele>934</ele>
        <time>2016-05-21T22:35:21Z</time>
      </trkpt>
      <trkpt lat="45.37963" lon="5.85366">
        <ele>938</ele>
        <time>2016-05-21T22:37:21Z</time>
      </trkpt>
      <trkpt lat="45.37947" lon="5.85372">
        <ele>940</ele>
        <time>2016-05-21T22:39:21Z</time>
      </trkpt>
      <trkpt lat="45.37931" lon="5.85378">
        <ele>943</ele>
        <time>2016-05-21T22:41:21Z</time>
      </trkpt>
      <trkpt lat="45.3792" lon="5.85386">
        <ele>944</ele>
        <time>2016-05-21T22:43:21Z</time>
      </trkpt>
      <trkpt lat="45.37913" lon="5.85396">
        <ele>943</ele>
        <time>2016-05-21T22:45:21Z</time>
      </trkpt>
      <trkpt lat="45.37906" lon="5.85408">
        <ele>943</ele>
        <time>2016-05-21T22:47:21Z</time>
      </trkpt>
      <trkpt lat="45.37901" lon="5.85424">
        <ele>942</ele>
        <time>2016-05-21T22:49:21Z</time>
      </trkpt>
      <trkpt lat="45.37878" lon="5.85513">
        <ele>939</ele>
        <time>2016-05-21T22:51:21Z</time>
      </trkpt>
      <trkpt lat="45.3787" lon="5.85533">
        <ele>940</ele>
        <time>2016-05-21T22:53:21Z</time>
      </trkpt>
      <trkpt lat="45.37865" lon="5.85545">
        <ele>940</ele>
        <time>2016-05-21T22:55:21Z</time>
      </trkpt>
      <trkpt lat="45.37862" lon="5.85556">
        <ele>940</ele>
        <time>2016-05-21T22:57:21Z</time>
      </trkpt>
      <trkpt lat="45.37862" lon="5.85575">
        <ele>938</ele>
        <time>2016-05-21T22:59:21Z</time>
      </trkpt>
      <trkpt lat="45.37866" lon="5.85582">
        <ele>936</ele>
        <time>2016-05-21T23:01:21Z</time>
      </trkpt>
      <trkpt lat="45.37871" lon="5.85589">
        <ele>936</ele>
        <time>2016-05-21T23:03:21Z</time>
      </trkpt>
      <trkpt lat="45.3788" lon="5.85596">
        <ele>936</ele>
        <time>2016-05-21T23:05:21Z</time>
      </trkpt>
      <trkpt lat="45.37889" lon="5.85597">
        <ele>935</ele>
        <time>2016-05-21T23:07:21Z</time>
      </trkpt>
      <trkpt lat="45.37898" lon="5.85595">
        <ele>933</ele>
        <time>2016-05-21T23:09:21Z</time>
      </trkpt>
      <trkpt lat="45.37905" lon="5.85593">
        <ele>931</ele>
        <time>2016-05-21T23:11:21Z</time>
      </trkpt>
      <trkpt lat="45.37913" lon="5.85587">
        <ele>927</ele>
        <time>2016-05-21T23:13:21Z</time>
      </trkpt>
      <trkpt lat="45.37919" lon="5.85579">
        <ele>925</ele>
        <time>2016-05-21T23:15:21Z</time>
      </trkpt>
      <trkpt lat="45.37925" lon="5.85572">
        <ele>926</ele>
        <time>2016-05-21T23:17:21Z</time>
      </trkpt>
      <trkpt lat="45.37931" lon="5.85565">
        <ele>926</ele>
        <time>2016-05-21T23:19:21Z</time>
      </trkpt>
      <trkpt lat="45.37944" lon="5.85558">
        <ele>927</ele>
        <time>2016-05-21T23:21:21Z</time>
      </trkpt>
      <trkpt lat="45.37954" lon="5.85556">
        <ele>928</ele>
        <time>2016-05-21T23:23:21Z</time>
      </trkpt>
      <trkpt lat="45.3797" lon="5.85555">
        <ele>929</ele>
        <time>2016-05-21T23:25:21Z</time>
      </trkpt>
      <trkpt lat="45.37994" lon="5.8555">
        <ele>930</ele>
        <time>2016-05-21T23:27:21Z</time>
      </trkpt>
      <trkpt lat="45.38003" lon="5.85552">
        <ele>932</ele>
        <time>2016-05-21T23:29:21Z</time>
      </trkpt>
      <trkpt lat="45.38019" lon="5.85559">
        <ele>935</ele>
        <time>2016-05-21T23:31:21Z</time>
      </trkpt>
      <trkpt lat="45.38029" lon="5.85564">
        <ele>938</ele>
        <time>2016-05-21T23:33:21Z</time>
      </trkpt>
      <trkpt lat="45.38043" lon="5.85564">
        <ele>939</ele>
        <time>2016-05-21T23:35:21Z</time>
      </trkpt>
      <trkpt lat="45.38051" lon="5.85561">
        <ele>939</ele>
        <time>2016-05-21T23:37:21Z</time>
      </trkpt>
      <trkpt lat="45.38061" lon="5.85554">
        <ele>938</ele>
        <time>2016-05-21T23:39:21Z</time>
      </trkpt>
      <trkpt lat="45.3807" lon="5.85544">
        <ele>935</ele>
        <time>2016-05-21T23:41:21Z</time>
      </trkpt>
      <trkpt lat="45.3808" lon="5.8553">
        <ele>932</ele>
        <time>2016-05-21T23:43:21Z</time>
      </trkpt>
      <trkpt lat="45.3809" lon="5.85519">
        <ele>930</ele>
        <time>2016-05-21T23:45:21Z</time>
      </trkpt>
      <trkpt lat="45.38103" lon="5.85512">
        <ele>929</ele>
        <time>2016-05-21T23:47:21Z</time>
      </trkpt>
      <trkpt lat="45.38109" lon="5.85509">
        <ele>929</ele>
        <time>2016-05-21T23:49:21Z</time>
      </trkpt>
      <trkpt lat="45.38123" lon="5.85506">
        <ele>930</ele>
        <time>2016-05-21T23:51:21Z</time>
      </trkpt>
      <trkpt lat="45.38138" lon="5.85508">
        <ele>933</ele>
        <time>2016-05-21T23:53:21Z</time>
      </trkpt>
      <trkpt lat="45.38155" lon="5.85511">
        <ele>936</ele>
        <time>2016-05-21T23:55:21Z</time>
      </trkpt>
      <trkpt lat="45.38173" lon="5.8551">
        <ele>938</ele>
        <time>2016-05-21T23:57:21Z</time>
      </trkpt>
      <trkpt lat="45.38185" lon="5.85503">
        <ele>936</ele>
        <time>2016-05-21T23:59:21Z</time>
      </trkpt>
      <trkpt lat="45.38197" lon="5.85496">
        <ele>935</ele>
        <time>2016-05-22T00:01:21Z</time>
      </trkpt>
      <trkpt lat="45.38209" lon="5.85484">
        <ele>932</ele>
        <time>2016-05-22T00:03:21Z</time>
      </trkpt>
      <trkpt lat="45.38228" lon="5.8547">
        <ele>929</ele>
        <time>2016-05-22T00:05:21Z</time>
      </trkpt>
      <trkpt lat="45.38262" lon="5.85451">
        <ele>929</ele>
        <time>2016-05-22T00:07:21Z</time>
      </trkpt>
      <trkpt lat="45.38275" lon="5.85445">
        <ele>929</ele>
        <time>2016-05-22T00:09:21Z</time>
      </trkpt>
      <trkpt lat="45.38292" lon="5.85436">
        <ele>930</ele>
        <time>2016-05-22T00:11:21Z</time>
      </trkpt>
      <trkpt lat="45.38311" lon="5.85424">
        <ele>931</ele>
        <time>2016-05-22T00:13:21Z</time>
      </trkpt>
      <trkpt lat="45.38335" lon="5.85409">
        <ele>933</ele>
        <time>2016-05-22T00:15:21Z</time>
      </trkpt>
      <trkpt lat="45.38346" lon="5.85399">
        <ele>932</ele>
        <time>2016-05-22T00:17:21Z</time>
      </trkpt>
      <trkpt lat="45.38384" lon="5.85369">
        <ele>928</ele>
        <time>2016-05-22T00:19:21Z</time>
      </trkpt>
      <trkpt lat="45.384" lon="5.85363">
        <ele>928</ele>
        <time>2016-05-22T00:21:21Z</time>
      </trkpt>
      <trkpt lat="45.38409" lon="5.8536">
        <ele>929</ele>
        <time>2016-05-22T00:23:21Z</time>
      </trkpt>
      <trkpt lat="45.38419" lon="5.85355">
        <ele>928</ele>
        <time>2016-05-22T00:25:21Z</time>
      </trkpt>
      <trkpt lat="45.38423" lon="5.85352">
        <ele>928</ele>
        <time>2016-05-22T00:27:21Z</time>
      </trkpt>
      <trkpt lat="45.38429" lon="5.85346">
        <ele>927</ele>
        <time>2016-05-22T00:29:21Z</time>
      </trkpt>
      <trkpt lat="45.38436" lon="5.85337">
        <ele>926</ele>
        <time>2016-05-22T00:31:21Z</time>
      </trkpt>
      <trkpt lat="45.38446" lon="5.85323">
        <ele>924</ele>
        <time>2016-05-22T00:33:21Z</time>
      </trkpt>
      <trkpt lat="45.38455" lon="5.85314">
        <ele>922</ele>
        <time>2016-05-22T00:35:21Z</time>
      </trkpt>
      <trkpt lat="45.38471" lon="5.85303">
        <ele>920</ele>
        <time>2016-05-22T00:37:21Z</time>
      </trkpt>
      <trkpt lat="45.3849" lon="5.85294">
        <ele>918</ele>
        <time>2016-05-22T00:39:21Z</time>
      </trkpt>
      <trkpt lat="45.38508" lon="5.85287">
        <ele>917</ele>
        <time>2016-05-22T00:41:21Z</time>
      </trkpt>
      <trkpt lat="45.38517" lon="5.85282">
        <ele>916</ele>
        <time>2016-05-22T00:43:21Z</time>
      </trkpt>
      <trkpt lat="45.3853" lon="5.85277">
        <ele>915</ele>
        <time>2016-05-22T00:45:21Z</time>
      </trkpt>
      <trkpt lat="45.3854" lon="5.85274">
        <ele>915</ele>
        <time>2016-05-22T00:47:21Z</time>
      </trkpt>
      <trkpt lat="45.38551" lon="5.8527">
        <ele>914</ele>
        <time>2016-05-22T00:49:21Z</time>
      </trkpt>
      <trkpt lat="45.38566" lon="5.85266">
        <ele>914</ele>
        <time>2016-05-22T00:51:21Z</time>
      </trkpt>
      <trkpt lat="45.38577" lon="5.85264">
        <ele>914</ele>
        <time>2016-05-22T00:53:21Z</time>
      </trkpt>
      <trkpt lat="45.38586" lon="5.85264">
        <ele>914</ele>
        <time>2016-05-22T00:55:21Z</time>
      </trkpt>
      <trkpt lat="45.38595" lon="5.85264">
        <ele>912</ele>
        <time>2016-05-22T00:57:21Z</time>
      </trkpt>
      <trkpt lat="45.38604" lon="5.85266">
        <ele>912</ele>
        <time>2016-05-22T00:59:21Z</time>
      </trkpt>
      <trkpt lat="45.38636" lon="5.85269">
        <ele>908</ele>
        <time>2016-05-22T01:01:21Z</time>
      </trkpt>
      <trkpt lat="45.38676" lon="5.85273">
        <ele>904</ele>
        <time>2016-05-22T01:03:21Z</time>
      </trkpt>
      <trkpt lat="45.38705" lon="5.85276">
        <ele>903</ele>
        <time>2016-05-22T01:05:21Z</time>
      </trkpt>
      <trkpt lat="45.3872" lon="5.85277">
        <ele>902</ele>
        <time>2016-05-22T01:07:21Z</time>
      </trkpt>
      <trkpt lat="45.3874" lon="5.85279">
        <ele>901</ele>
        <time>2016-05-22T01:09:21Z</time>
      </trkpt>
      <trkpt lat="45.38765" lon="5.85281">
        <ele>901</ele>
        <time>2016-05-22T01:11:21Z</time>
      </trkpt>
      <trkpt lat="45.38793" lon="5.85282">
        <ele>901</ele>
        <time>2016-05-22T01:13:21Z</time>
      </trkpt>
      <trkpt lat="45.3881" lon="5.85285">
        <ele>901</ele>
        <time>2016-05-22T01:15:21Z</time>
      </trkpt>
      <trkpt lat="45.38819" lon="5.85286">
        <ele>901</ele>
        <time>2016-05-22T01:17:21Z</time>
      </trkpt>
      <trkpt lat="45.38826" lon="5.85287">
        <ele>901</ele>
        <time>2016-05-22T01:19:21Z</time>
      </trkpt>
      <trkpt lat="45.38838" lon="5.85293">
        <ele>900</ele>
        <time>2016-05-22T01:21:21Z</time>
      </trkpt>
      <trkpt lat="45.38845" lon="5.85297">
        <ele>900</ele>
        <time>2016-05-22T01:23:21Z</time>
      </trkpt>
      <trkpt lat="45.38857" lon="5.85303">
        <ele>899</ele>
        <time>2016-05-22T01:25:21Z</time>
      </trkpt>
      <trkpt lat="45.38878" lon="5.85314">
        <ele>897</ele>
        <time>2016-05-22T01:27:21Z</time>
      </trkpt>
      <trkpt lat="45.38914" lon="5.85331">
        <ele>896</ele>
        <time>2016-05-22T01:29:21Z</time>
      </trkpt>
      <trkpt lat="45.38939" lon="5.85345">
        <ele>896</ele>
        <time>2016-05-22T01:31:21Z</time>
      </trkpt>
      <trkpt lat="45.38959" lon="5.85359">
        <ele>898</ele>
        <time>2016-05-22T01:33:21Z</time>
      </trkpt>
      <trkpt lat="45.38968" lon="5.85367">
        <ele>899</ele>
        <time>2016-05-22T01:35:21Z</time>
      </trkpt>
      <trkpt lat="45.38987" lon="5.85372">
        <ele>899</ele>
        <time>2016-05-22T01:37:21Z</time>
      </trkpt>
      <trkpt lat="45.39002" lon="5.85372">
        <ele>898</ele>
        <time>2016-05-22T01:39:21Z</time>
      </trkpt>
      <trkpt lat="45.39013" lon="5.8537">
        <ele>897</ele>
        <time>2016-05-22T01:41:21Z</time>
      </trkpt>
      <trkpt lat="45.39026" lon="5.85367">
        <ele>896</ele>
        <time>2016-05-22T01:43:21Z</time>
      </trkpt>
      <trkpt lat="45.39065" lon="5.85363">
        <ele>895</ele>
        <time>2016-05-22T01:45:21Z</time>
      </trkpt>
      <trkpt lat="45.39129" lon="5.85373">
        <ele>895</ele>
        <time>2016-05-22T01:47:21Z</time>
      </trkpt>
      <trkpt lat="45.3916" lon="5.85379">
        <ele>895</ele>
        <time>2016-05-22T01:49:21Z</time>
      </trkpt>
      <trkpt lat="45.39175" lon="5.85384">
        <ele>896</ele>
        <time>2016-05-22T01:51:21Z</time>
      </trkpt>
      <trkpt lat="45.39197" lon="5.85393">
        <ele>896</ele>
        <time>2016-05-22T01:53:21Z</time>
      </trkpt>
      <trkpt lat="45.39235" lon="5.85411">
        <ele>897</ele>
        <time>2016-05-22T01:55:21Z</time>
      </trkpt>
      <trkpt lat="45.39294" lon="5.85435">
        <ele>888</ele>
        <time>2016-05-22T01:57:21Z</time>
      </trkpt>
      <trkpt lat="45.39321" lon="5.85447">
        <ele>883</ele>
        <time>2016-05-22T01:59:21Z</time>
      </trkpt>
      <trkpt lat="45.39351" lon="5.85468">
        <ele>882</ele>
        <time>2016-05-22T02:01:21Z</time>
      </trkpt>
      <trkpt lat="45.39375" lon="5.85488">
        <ele>882</ele>
        <time>2016-05-22T02:03:21Z</time>
      </trkpt>
      <trkpt lat="45.3939" lon="5.85505">
        <ele>883</ele>
        <time>2016-05-22T02:05:21Z</time>
      </trkpt>
      <trkpt lat="45.39403" lon="5.85519">
        <ele>885</ele>
        <time>2016-05-22T02:07:21Z</time>
      </trkpt>
      <trkpt lat="45.39411" lon="5.85526">
        <ele>885</ele>
        <time>2016-05-22T02:09:21Z</time>
      </trkpt>
      <trkpt lat="45.39421" lon="5.85531">
        <ele>884</ele>
        <time>2016-05-22T02:11:21Z</time>
      </trkpt>
      <trkpt lat="45.39429" lon="5.8553">
        <ele>882</ele>
        <time>2016-05-22T02:13:21Z</time>
      </trkpt>
      <trkpt lat="45.39442" lon="5.85531">
        <ele>880</ele>
        <time>2016-05-22T02:15:21Z</time>
      </trkpt>
      <trkpt lat="45.39465" lon="5.85528">
        <ele>874</ele>
        <time>2016-05-22T02:17:21Z</time>
      </trkpt>
      <trkpt lat="45.39486" lon="5.85529">
        <ele>870</ele>
        <time>2016-05-22T02:19:21Z</time>
      </trkpt>
      <trkpt lat="45.39576" lon="5.85554">
        <ele>863</ele>
        <time>2016-05-22T02:21:21Z</time>
      </trkpt>
      <trkpt lat="45.39632" lon="5.85575">
        <ele>858</ele>
        <time>2016-05-22T02:23:21Z</time>
      </trkpt>
      <trkpt lat="45.39646" lon="5.85585">
        <ele>859</ele>
        <time>2016-05-22T02:25:21Z</time>
      </trkpt>
      <trkpt lat="45.39657" lon="5.85597">
        <ele>861</ele>
        <time>2016-05-22T02:27:21Z</time>
      </trkpt>
      <trkpt lat="45.39671" lon="5.85619">
        <ele>865</ele>
        <time>2016-05-22T02:29:21Z</time>
      </trkpt>
      <trkpt lat="45.39685" lon="5.85637">
        <ele>867</ele>
        <time>2016-05-22T02:31:21Z</time>
      </trkpt>
      <trkpt lat="45.39695" lon="5.85646">
        <ele>868</ele>
        <time>2016-05-22T02:33:21Z</time>
      </trkpt>
      <trkpt lat="45.39707" lon="5.85653">
        <ele>867</ele>
        <time>2016-05-22T02:35:21Z</time>
      </trkpt>
      <trkpt lat="45.39718" lon="5.85656">
        <ele>866</ele>
        <time>2016-05-22T02:37:21Z</time>
      </trkpt>
      <trkpt lat="45.39727" lon="5.85656">
        <ele>864</ele>
        <time>2016-05-22T02:39:21Z</time>
      </trkpt>
      <trkpt lat="45.39741" lon="5.85653">
        <ele>860</ele>
        <time>2016-05-22T02:41:21Z</time>
      </trkpt>
      <trkpt lat="45.39761" lon="5.85649">
        <ele>855</ele>
        <time>2016-05-22T02:43:21Z</time>
      </trkpt>
      <trkpt lat="45.39779" lon="5.85646">
        <ele>850</ele>
        <time>2016-05-22T02:45:21Z</time>
      </trkpt>
      <trkpt lat="45.39806" lon="5.85645">
        <ele>845</ele>
        <time>2016-05-22T02:47:21Z</time>
      </trkpt>
      <trkpt lat="45.39826" lon="5.8565">
        <ele>843</ele>
        <time>2016-05-22T02:49:21Z</time>
      </trkpt>
      <trkpt lat="45.3986" lon="5.85658">
        <ele>839</ele>
        <time>2016-05-22T02:51:21Z</time>
      </trkpt>
      <trkpt lat="45.3988" lon="5.85667">
        <ele>839</ele>
        <time>2016-05-22T02:53:21Z</time>
      </trkpt>
      <trkpt lat="45.39916" lon="5.85683">
        <ele>834</ele>
        <time>2016-05-22T02:55:21Z</time>
      </trkpt>
      <trkpt lat="45.39975" lon="5.85707">
        <ele>829</ele>
        <time>2016-05-22T02:57:21Z</time>
      </trkpt>
      <trkpt lat="45.39992" lon="5.85708">
        <ele>826</ele>
        <time>2016-05-22T02:59:21Z</time>
      </trkpt>
      <trkpt lat="45.40011" lon="5.85706">
        <ele>822</ele>
        <time>2016-05-22T03:01:21Z</time>
      </trkpt>
      <trkpt lat="45.40033" lon="5.85703">
        <ele>817</ele>
        <time>2016-05-22T03:03:21Z</time>
      </trkpt>
      <trkpt lat="45.40051" lon="5.85703">
        <ele>813</ele>
        <time>2016-05-22T03:05:21Z</time>
      </trkpt>
      <trkpt lat="45.40065" lon="5.85706">
        <ele>811</ele>
        <time>2016-05-22T03:07:21Z</time>
      </trkpt>
      <trkpt lat="45.40079" lon="5.85712">
        <ele>810</ele>
        <time>2016-05-22T03:09:21Z</time>
      </trkpt>
      <trkpt lat="45.40119" lon="5.85727">
        <ele>808</ele>
        <time>2016-05-22T03:11:21Z</time>
      </trkpt>
      <trkpt lat="45.40148" lon="5.85743">
        <ele>807</ele>
        <time>2016-05-22T03:13:21Z</time>
      </trkpt>
      <trkpt lat="45.40166" lon="5.85757">
        <ele>807</ele>
        <time>2016-05-22T03:15:21Z</time>
      </trkpt>
      <trkpt lat="45.40185" lon="5.8577">
        <ele>806</ele>
        <time>2016-05-22T03:17:21Z</time>
      </trkpt>
      <trkpt lat="45.40196" lon="5.85778">
        <ele>806</ele>
        <time>2016-05-22T03:19:21Z</time>
      </trkpt>
      <trkpt lat="45.40198" lon="5.8578">
        <ele>806</ele>
        <time>2016-05-22T03:21:21Z</time>
      </trkpt>
      <trkpt lat="45.40231" lon="5.85802">
        <ele>803</ele>
        <time>2016-05-22T03:23:21Z</time>
      </trkpt>
      <trkpt lat="45.40243" lon="5.85809">
        <ele>802</ele>
        <time>2016-05-22T03:25:21Z</time>
      </trkpt>
      <trkpt lat="45.40247" lon="5.8581">
        <ele>802</ele>
        <time>2016-05-22T03:27:21Z</time>
      </trkpt>
      <trkpt lat="45.40255" lon="5.85811">
        <ele>800</ele>
        <time>2016-05-22T03:29:21Z</time>
      </trkpt>
      <trkpt lat="45.40261" lon="5.8581">
        <ele>800</ele>
        <time>2016-05-22T03:31:21Z</time>
      </trkpt>
      <trkpt lat="45.40266" lon="5.85808">
        <ele>799</ele>
        <time>2016-05-22T03:33:21Z</time>
      </trkpt>
      <trkpt lat="45.40272" lon="5.85805">
        <ele>798</ele>
        <time>2016-05-22T03:35:21Z</time>
      </trkpt>
      <trkpt lat="45.40276" lon="5.85802">
        <ele>797</ele>
        <time>2016-05-22T03:37:21Z</time>
      </trkpt>
      <trkpt lat="45.40283" lon="5.85791">
        <ele>796</ele>
        <time>2016-05-22T03:39:21Z</time>
      </trkpt>
      <trkpt lat="45.40288" lon="5.85781">
        <ele>795</ele>
        <time>2016-05-22T03:41:21Z</time>
      </trkpt>
      <trkpt lat="45.40291" lon="5.8577">
        <ele>794</ele>
        <time>2016-05-22T03:43:21Z</time>
      </trkpt>
      <trkpt lat="45.40297" lon="5.85744">
        <ele>792</ele>
        <time>2016-05-22T03:45:21Z</time>
      </trkpt>
      <trkpt lat="45.40308" lon="5.85696">
        <ele>787</ele>
        <time>2016-05-22T03:47:21Z</time>
      </trkpt>
      <trkpt lat="45.40314" lon="5.85678">
        <ele>786</ele>
        <time>2016-05-22T03:49:21Z</time>
      </trkpt>
      <trkpt lat="45.40317" lon="5.85674">
        <ele>786</ele>
        <time>2016-05-22T03:51:21Z</time>
      </trkpt>
      <trkpt lat="45.4032" lon="5.85672">
        <ele>785</ele>
        <time>2016-05-22T03:53:21Z</time>
      </trkpt>
      <trkpt lat="45.40328" lon="5.85669">
        <ele>785</ele>
        <time>2016-05-22T03:55:21Z</time>
      </trkpt>
      <trkpt lat="45.40368" lon="5.85674">
        <ele>783</ele>
        <time>2016-05-22T03:57:21Z</time>
      </trkpt>
      <trkpt lat="45.40373" lon="5.85674">
        <ele>782</ele>
        <time>2016-05-22T03:59:21Z</time>
      </trkpt>
      <trkpt lat="45.40377" lon="5.85673">
        <ele>782</ele>
        <time>2016-05-22T04:01:21Z</time>
      </trkpt>
      <trkpt lat="45.40381" lon="5.85671">
        <ele>782</ele>
        <time>2016-05-22T04:03:21Z</time>
      </trkpt>
      <trkpt lat="45.4039" lon="5.85666">
        <ele>781</ele>
        <time>2016-05-22T04:05:21Z</time>
      </trkpt>
      <trkpt lat="45.40412" lon="5.85652">
        <ele>779</ele>
        <time>2016-05-22T04:07:21Z</time>
      </trkpt>
      <trkpt lat="45.40423" lon="5.85648">
        <ele>778</ele>
        <time>2016-05-22T04:09:21Z</time>
      </trkpt>
      <trkpt lat="45.40439" lon="5.85646">
        <ele>777</ele>
        <time>2016-05-22T04:11:21Z</time>
      </trkpt>
      <trkpt lat="45.40446" lon="5.85645">
        <ele>777</ele>
        <time>2016-05-22T04:13:21Z</time>
      </trkpt>
      <trkpt lat="45.40495" lon="5.8564">
        <ele>774</ele>
        <time>2016-05-22T04:15:21Z</time>
      </trkpt>
      <trkpt lat="45.40565" lon="5.85633">
        <ele>769</ele>
        <time>2016-05-22T04:17:21Z</time>
      </trkpt>
      <trkpt lat="45.40583" lon="5.85633">
        <ele>767</ele>
        <time>2016-05-22T04:19:21Z</time>
      </trkpt>
      <trkpt lat="45.40595" lon="5.85635">
        <ele>766</ele>
        <time>2016-05-22T04:21:21Z</time>
      </trkpt>
      <trkpt lat="45.40602" lon="5.85637">
        <ele>766</ele>
        <time>2016-05-22T04:23:21Z</time>
      </trkpt>
      <trkpt lat="45.4061" lon="5.85642">
        <ele>765</ele>
        <time>2016-05-22T04:25:21Z</time>
      </trkpt>
      <trkpt lat="45.40619" lon="5.8565">
        <ele>765</ele>
        <time>2016-05-22T04:27:21Z</time>
      </trkpt>
      <trkpt lat="45.40628" lon="5.85659">
        <ele>764</ele>
        <time>2016-05-22T04:29:21Z</time>
      </trkpt>
      <trkpt lat="45.40666" lon="5.85713">
        <ele>761</ele>
        <time>2016-05-22T04:31:21Z</time>
      </trkpt>
      <trkpt lat="45.4067" lon="5.85719">
        <ele>761</ele>
        <time>2016-05-22T04:33:21Z</time>
      </trkpt>
      <trkpt lat="45.40683" lon="5.85734">
        <ele>760</ele>
        <time>2016-05-22T04:35:21Z</time>
      </trkpt>
      <trkpt lat="45.40692" lon="5.85741">
        <ele>760</ele>
        <time>2016-05-22T04:37:21Z</time>
      </trkpt>
      <trkpt lat="45.40697" lon="5.85743">
        <ele>759</ele>
        <time>2016-05-22T04:39:21Z</time>
      </trkpt>
      <trkpt lat="45.40702" lon="5.85744">
        <ele>759</ele>
        <time>2016-05-22T04:41:21Z</time>
      </trkpt>
      <trkpt lat="45.40705" lon="5.85743">
        <ele>759</ele>
        <time>2016-05-22T04:43:21Z</time>
      </trkpt>
      <trkpt lat="45.40712" lon="5.85741">
        <ele>759</ele>
        <time>2016-05-22T04:45:21Z</time>
      </trkpt>
      <trkpt lat="45.40721" lon="5.85735">
        <ele>758</ele>
        <time>2016-05-22T04:47:21Z</time>
      </trkpt>
      <trkpt lat="45.40763" lon="5.85706">
        <ele>756</ele>
        <time>2016-05-22T04:49:21Z</time>
      </trkpt>
      <trkpt lat="45.4079" lon="5.85686">
        <ele>755</ele>
        <time>2016-05-22T04:51:21Z</time>
      </trkpt>
      <trkpt lat="45.40792" lon="5.85685">
        <ele>755</ele>
        <time>2016-05-22T04:53:21Z</time>
      </trkpt>
      <trkpt lat="45.40807" lon="5.85675">
        <ele>755</ele>
        <time>2016-05-22T04:55:21Z</time>
      </trkpt>
      <trkpt lat="45.40817" lon="5.85667">
        <ele>755</ele>
        <time>2016-05-22T04:57:21Z</time>
      </trkpt>
      <trkpt lat="45.40851" lon="5.85636">
        <ele>752</ele>
        <time>2016-05-22T04:59:21Z</time>
      </trkpt>
      <trkpt lat="45.40867" lon="5.85627">
        <ele>750</ele>
        <time>2016-05-22T05:01:21Z</time>
      </trkpt>
      <trkpt lat="45.40878" lon="5.85624">
        <ele>748</ele>
        <time>2016-05-22T05:03:21Z</time>
      </trkpt>
      <trkpt lat="45.409" lon="5.85619">
        <ele>746</ele>
        <time>2016-05-22T05:05:21Z</time>
      </trkpt>
      <trkpt lat="45.40909" lon="5.85618">
        <ele>745</ele>
        <time>2016-05-22T05:07:21Z</time>
      </trkpt>
      <trkpt lat="45.40916" lon="5.85614">
        <ele>744</ele>
        <time>2016-05-22T05:09:21Z</time>
      </trkpt>
      <trkpt lat="45.4092" lon="5.85608">
        <ele>743</ele>
        <time>2016-05-22T05:11:21Z</time>
      </trkpt>
      <trkpt lat="45.40922" lon="5.856">
        <ele>742</ele>
        <time>2016-05-22T05:13:21Z</time>
      </trkpt>
      <trkpt lat="45.4092" lon="5.85588">
        <ele>742</ele>
        <time>2016-05-22T05:15:21Z</time>
      </trkpt>
      <trkpt lat="45.40917" lon="5.8558">
        <ele>742</ele>
        <time>2016-05-22T05:17:21Z</time>
      </trkpt>
      <trkpt lat="45.40914" lon="5.8557">
        <ele>741</ele>
        <time>2016-05-22T05:19:21Z</time>
      </trkpt>
      <trkpt lat="45.40909" lon="5.85556">
        <ele>739</ele>
        <time>2016-05-22T05:21:21Z</time>
      </trkpt>
      <trkpt lat="45.40904" lon="5.85538">
        <ele>737</ele>
        <time>2016-05-22T05:23:21Z</time>
      </trkpt>
      <trkpt lat="45.409" lon="5.85527">
        <ele>736</ele>
        <time>2016-05-22T05:25:21Z</time>
      </trkpt>
      <trkpt lat="45.40896" lon="5.85517">
        <ele>735</ele>
        <time>2016-05-22T05:27:21Z</time>
      </trkpt>
      <trkpt lat="45.40891" lon="5.85507">
        <ele>734</ele>
        <time>2016-05-22T05:29:21Z</time>
      </trkpt>
      <trkpt lat="45.40887" lon="5.855">
        <ele>734</ele>
        <time>2016-05-22T05:31:21Z</time>
      </trkpt>
      <trkpt lat="45.40881" lon="5.85491">
        <ele>734</ele>
        <time>2016-05-22T05:33:21Z</time>
      </trkpt>
      <trkpt lat="45.40877" lon="5.85483">
        <ele>733</ele>
        <time>2016-05-22T05:35:21Z</time>
      </trkpt>
      <trkpt lat="45.40875" lon="5.85477">
        <ele>733</ele>
        <time>2016-05-22T05:37:21Z</time>
      </trkpt>
      <trkpt lat="45.40874" lon="5.8547">
        <ele>732</ele>
        <time>2016-05-22T05:39:21Z</time>
      </trkpt>
      <trkpt lat="45.40877" lon="5.85461">
        <ele>731</ele>
        <time>2016-05-22T05:41:21Z</time>
      </trkpt>
      <trkpt lat="45.40878" lon="5.85458">
        <ele>730</ele>
        <time>2016-05-22T05:43:21Z</time>
      </trkpt>
      <trkpt lat="45.40884" lon="5.85454">
        <ele>729</ele>
        <time>2016-05-22T05:45:21Z</time>
      </trkpt>
      <trkpt lat="45.40888" lon="5.85454">
        <ele>728</ele>
        <time>2016-05-22T05:47:21Z</time>
      </trkpt>
      <trkpt lat="45.40892" lon="5.85456">
        <ele>728</ele>
        <time>2016-05-22T05:49:21Z</time>
      </trkpt>
      <trkpt lat="45.40921" lon="5.85482">
        <ele>726</ele>
        <time>2016-05-22T05:51:21Z</time>
      </trkpt>
      <trkpt lat="45.40969" lon="5.8552">
        <ele>722</ele>
        <time>2016-05-22T05:53:21Z</time>
      </trkpt>
      <trkpt lat="45.40977" lon="5.85526">
        <ele>721</ele>
        <time>2016-05-22T05:55:21Z</time>
      </trkpt>
      <trkpt lat="45.40985" lon="5.85535">
        <ele>721</ele>
        <time>2016-05-22T05:57:21Z</time>
      </trkpt>
      <trkpt lat="45.40995" lon="5.85548">
        <ele>720</ele>
        <time>2016-05-22T05:59:21Z</time>
      </trkpt>
      <trkpt lat="45.41" lon="5.85556">
        <ele>720</ele>
        <time>2016-05-22T06:01:21Z</time>
      </trkpt>
      <trkpt lat="45.41003" lon="5.85566">
        <ele>721</ele>
        <time>2016-05-22T06:03:21Z</time>
      </trkpt>
      <trkpt lat="45.41007" lon="5.8558">
        <ele>722</ele>
        <time>2016-05-22T06:05:21Z</time>
      </trkpt>
      <trkpt lat="45.41013" lon="5.85593">
        <ele>721</ele>
        <time>2016-05-22T06:07:21Z</time>
      </trkpt>
      <trkpt lat="45.41016" lon="5.85597">
        <ele>720</ele>
        <time>2016-05-22T06:09:21Z</time>
      </trkpt>
      <trkpt lat="45.41021" lon="5.85599">
        <ele>719</ele>
        <time>2016-05-22T06:11:21Z</time>
      </trkpt>
      <trkpt lat="45.4103" lon="5.856">
        <ele>718</ele>
        <time>2016-05-22T06:13:21Z</time>
      </trkpt>
      <trkpt lat="45.41043" lon="5.85593">
        <ele>717</ele>
        <time>2016-05-22T06:15:21Z</time>
      </trkpt>
      <trkpt lat="45.41051" lon="5.8559">
        <ele>716</ele>
        <time>2016-05-22T06:17:21Z</time>
      </trkpt>
      <trkpt lat="45.41057" lon="5.85592">
        <ele>716</ele>
        <time>2016-05-22T06:19:21Z</time>
      </trkpt>
      <trkpt lat="45.41059" lon="5.85594">
        <ele>715</ele>
        <time>2016-05-22T06:21:21Z</time>
      </trkpt>
      <trkpt lat="45.41062" lon="5.85598">
        <ele>715</ele>
        <time>2016-05-22T06:23:21Z</time>
      </trkpt>
      <trkpt lat="45.41063" lon="5.856">
        <ele>715</ele>
        <time>2016-05-22T06:25:21Z</time>
      </trkpt>
      <trkpt lat="45.41064" lon="5.85607">
        <ele>714</ele>
        <time>2016-05-22T06:27:21Z</time>
      </trkpt>
      <trkpt lat="45.41063" lon="5.85614">
        <ele>714</ele>
        <time>2016-05-22T06:29:21Z</time>
      </trkpt>
      <trkpt lat="45.41061" lon="5.85621">
        <ele>714</ele>
        <time>2016-05-22T06:31:21Z</time>
      </trkpt>
      <trkpt lat="45.41059" lon="5.85627">
        <ele>713</ele>
        <time>2016-05-22T06:33:21Z</time>
      </trkpt>
      <trkpt lat="45.41054" lon="5.85639">
        <ele>713</ele>
        <time>2016-05-22T06:35:21Z</time>
      </trkpt>
      <trkpt lat="45.41042" lon="5.85658">
        <ele>713</ele>
        <time>2016-05-22T06:37:21Z</time>
      </trkpt>
      <trkpt lat="45.41029" lon="5.85669">
        <ele>712</ele>
        <time>2016-05-22T06:39:21Z</time>
      </trkpt>
      <trkpt lat="45.41021" lon="5.85676">
        <ele>712</ele>
        <time>2016-05-22T06:41:21Z</time>
      </trkpt>
      <trkpt lat="45.41016" lon="5.85684">
        <ele>712</ele>
        <time>2016-05-22T06:43:21Z</time>
      </trkpt>
      <trkpt lat="45.41017" lon="5.85693">
        <ele>712</ele>
        <time>2016-05-22T06:45:21Z</time>
      </trkpt>
      <trkpt lat="45.41019" lon="5.857">
        <ele>711</ele>
        <time>2016-05-22T06:47:21Z</time>
      </trkpt>
      <trkpt lat="45.41023" lon="5.85705">
        <ele>710</ele>
        <time>2016-05-22T06:49:21Z</time>
      </trkpt>
      <trkpt lat="45.41028" lon="5.85709">
        <ele>709</ele>
        <time>2016-05-22T06:51:21Z</time>
      </trkpt>
      <trkpt lat="45.41038" lon="5.8571">
        <ele>708</ele>
        <time>2016-05-22T06:53:21Z</time>
      </trkpt>
      <trkpt lat="45.41059" lon="5.85706">
        <ele>705</ele>
        <time>2016-05-22T06:55:21Z</time>
      </trkpt>
      <trkpt lat="45.41074" lon="5.85698">
        <ele>705</ele>
        <time>2016-05-22T06:57:21Z</time>
      </trkpt>
      <trkpt lat="45.41084" lon="5.85687">
        <ele>706</ele>
        <time>2016-05-22T06:59:21Z</time>
      </trkpt>
      <trkpt lat="45.41101" lon="5.85665">
        <ele>704</ele>
        <time>2016-05-22T07:01:21Z</time>
      </trkpt>
      <trkpt lat="45.41117" lon="5.85644">
        <ele>702</ele>
        <time>2016-05-22T07:03:21Z</time>
      </trkpt>
      <trkpt lat="45.41129" lon="5.85633">
        <ele>701</ele>
        <time>2016-05-22T07:05:21Z</time>
      </trkpt>
      <trkpt lat="45.4114" lon="5.85624">
        <ele>700</ele>
        <time>2016-05-22T07:07:21Z</time>
      </trkpt>
      <trkpt lat="45.41164" lon="5.85609">
        <ele>699</ele>
        <time>2016-05-22T07:09:21Z</time>
      </trkpt>
      <trkpt lat="45.41214" lon="5.85573">
        <ele>684</ele>
        <time>2016-05-22T07:11:21Z</time>
      </trkpt>
      <trkpt lat="45.41252" lon="5.85548">
        <ele>669</ele>
        <time>2016-05-22T07:13:21Z</time>
      </trkpt>
      <trkpt lat="45.41266" lon="5.85536">
        <ele>667</ele>
        <time>2016-05-22T07:15:21Z</time>
      </trkpt>
      <trkpt lat="45.4127" lon="5.85524">
        <ele>667</ele>
        <time>2016-05-22T07:17:21Z</time>
      </trkpt>
      <trkpt lat="45.41272" lon="5.85514">
        <ele>667</ele>
        <time>2016-05-22T07:19:21Z</time>
      </trkpt>
      <trkpt lat="45.41273" lon="5.85504">
        <ele>667</ele>
        <time>2016-05-22T07:21:21Z</time>
      </trkpt>
      <trkpt lat="45.4127" lon="5.85495">
        <ele>668</ele>
        <time>2016-05-22T07:23:21Z</time>
      </trkpt>
      <trkpt lat="45.41266" lon="5.85486">
        <ele>668</ele>
        <time>2016-05-22T07:25:21Z</time>
      </trkpt>
      <trkpt lat="45.41253" lon="5.85472">
        <ele>671</ele>
        <time>2016-05-22T07:27:21Z</time>
      </trkpt>
      <trkpt lat="45.41251" lon="5.85463">
        <ele>670</ele>
        <time>2016-05-22T07:29:21Z</time>
      </trkpt>
      <trkpt lat="45.41246" lon="5.85434">
        <ele>669</ele>
        <time>2016-05-22T07:31:21Z</time>
      </trkpt>
      <trkpt lat="45.41243" lon="5.85427">
        <ele>669</ele>
        <time>2016-05-22T07:33:21Z</time>
      </trkpt>
      <trkpt lat="45.41236" lon="5.85419">
        <ele>669</ele>
        <time>2016-05-22T07:35:21Z</time>
      </trkpt>
      <trkpt lat="45.41228" lon="5.85413">
        <ele>671</ele>
        <time>2016-05-22T07:37:21Z</time>
      </trkpt>
      <trkpt lat="45.41216" lon="5.85407">
        <ele>673</ele>
        <time>2016-05-22T07:39:21Z</time>
      </trkpt>
      <trkpt lat="45.41205" lon="5.85403">
        <ele>674</ele>
        <time>2016-05-22T07:41:21Z</time>
      </trkpt>
      <trkpt lat="45.41194" lon="5.85393">
        <ele>675</ele>
        <time>2016-05-22T07:43:21Z</time>
      </trkpt>
      <trkpt lat="45.41189" lon="5.85382">
        <ele>674</ele>
        <time>2016-05-22T07:45:21Z</time>
      </trkpt>
      <trkpt lat="45.41189" lon="5.85373">
        <ele>673</ele>
        <time>2016-05-22T07:47:21Z</time>
      </trkpt>
      <trkpt lat="45.4119" lon="5.85362">
        <ele>672</ele>
        <time>2016-05-22T07:49:21Z</time>
      </trkpt>
      <trkpt lat="45.41193" lon="5.85355">
        <ele>670</ele>
        <time>2016-05-22T07:51:21Z</time>
      </trkpt>
      <trkpt lat="45.41197" lon="5.85349">
        <ele>669</ele>
        <time>2016-05-22T07:53:21Z</time>
      </trkpt>
      <trkpt lat="45.41199" lon="5.85346">
        <ele>669</ele>
        <time>2016-05-22T07:55:21Z</time>
      </trkpt>
      <trkpt lat="45.41204" lon="5.85342">
        <ele>668</ele>
        <time>2016-05-22T07:57:21Z</time>
      </trkpt>
      <trkpt lat="45.41211" lon="5.85339">
        <ele>668</ele>
        <time>2016-05-22T07:59:21Z</time>
      </trkpt>
      <trkpt lat="45.41214" lon="5.85339">
        <ele>668</ele>
        <time>2016-05-22T08:01:21Z</time>
      </trkpt>
      <trkpt lat="45.41217" lon="5.85339">
        <ele>668</ele>
        <time>2016-05-22T08:03:21Z</time>
      </trkpt>
      <trkpt lat="45.41234" lon="5.85346">
        <ele>668</ele>
        <time>2016-05-22T08:05:21Z</time>
      </trkpt>
      <trkpt lat="45.41245" lon="5.85352">
        <ele>667</ele>
        <time>2016-05-22T08:07:21Z</time>
      </trkpt>
      <trkpt lat="45.41255" lon="5.85356">
        <ele>666</ele>
        <time>2016-05-22T08:09:21Z</time>
      </trkpt>
      <trkpt lat="45.41267" lon="5.85361">
        <ele>665</ele>
        <time>2016-05-22T08:11:21Z</time>
      </trkpt>
      <trkpt lat="45.41278" lon="5.85366">
        <ele>663</ele>
        <time>2016-05-22T08:13:21Z</time>
      </trkpt>
      <trkpt lat="45.41301" lon="5.85378">
        <ele>660</ele>
        <time>2016-05-22T08:15:21Z</time>
      </trkpt>
      <trkpt lat="45.41314" lon="5.85386">
        <ele>658</ele>
        <time>2016-05-22T08:17:21Z</time>
      </trkpt>
      <trkpt lat="45.41326" lon="5.85395">
        <ele>655</ele>
        <time>2016-05-22T08:19:21Z</time>
      </trkpt>
      <trkpt lat="45.41333" lon="5.85399">
        <ele>654</ele>
        <time>2016-05-22T08:21:21Z</time>
      </trkpt>
      <trkpt lat="45.4134" lon="5.85406">
        <ele>653</ele>
        <time>2016-05-22T08:23:21Z</time>
      </trkpt>
      <trkpt lat="45.41347" lon="5.85414">
        <ele>653</ele>
        <time>2016-05-22T08:25:21Z</time>
      </trkpt>
      <trkpt lat="45.41355" lon="5.85423">
        <ele>652</ele>
        <time>2016-05-22T08:27:21Z</time>
      </trkpt>
      <trkpt lat="45.41362" lon="5.85432">
        <ele>652</ele>
        <time>2016-05-22T08:29:21Z</time>
      </trkpt>
      <trkpt lat="45.41368" lon="5.8544">
        <ele>652</ele>
        <time>2016-05-22T08:31:21Z</time>
      </trkpt>
      <trkpt lat="45.41372" lon="5.85444">
        <ele>652</ele>
        <time>2016-05-22T08:33:21Z</time>
      </trkpt>
      <trkpt lat="45.41377" lon="5.85448">
        <ele>652</ele>
        <time>2016-05-22T08:35:21Z</time>
      </trkpt>
      <trkpt lat="45.4138" lon="5.8545">
        <ele>652</ele>
        <time>2016-05-22T08:37:21Z</time>
      </trkpt>
      <trkpt lat="45.41385" lon="5.85452">
        <ele>652</ele>
        <time>2016-05-22T08:39:21Z</time>
      </trkpt>
      <trkpt lat="45.41388" lon="5.85452">
        <ele>652</ele>
        <time>2016-05-22T08:41:21Z</time>
      </trkpt>
      <trkpt lat="45.41403" lon="5.85457">
        <ele>652</ele>
        <time>2016-05-22T08:43:21Z</time>
      </trkpt>
      <trkpt lat="45.41409" lon="5.85459">
        <ele>652</ele>
        <time>2016-05-22T08:45:21Z</time>
      </trkpt>
      <trkpt lat="45.41426" lon="5.85462">
        <ele>652</ele>
        <time>2016-05-22T08:47:21Z</time>
      </trkpt>
      <trkpt lat="45.4144" lon="5.85463">
        <ele>652</ele>
        <time>2016-05-22T08:49:21Z</time>
      </trkpt>
      <trkpt lat="45.41469" lon="5.85462">
        <ele>652</ele>
        <time>2016-05-22T08:51:21Z</time>
      </trkpt>
      <trkpt lat="45.41513" lon="5.85468">
        <ele>652</ele>
        <time>2016-05-22T08:53:21Z</time>
      </trkpt>
      <trkpt lat="45.41525" lon="5.8547">
        <ele>651</ele>
        <time>2016-05-22T08:55:21Z</time>
      </trkpt>
      <trkpt lat="45.4154" lon="5.8547">
        <ele>651</ele>
        <time>2016-05-22T08:57:21Z</time>
      </trkpt>
      <trkpt lat="45.4155" lon="5.85467">
        <ele>650</ele>
        <time>2016-05-22T08:59:21Z</time>
      </trkpt>
      <trkpt lat="45.4157" lon="5.85459">
        <ele>649</ele>
        <time>2016-05-22T09:01:21Z</time>
      </trkpt>
      <trkpt lat="45.416" lon="5.8545">
        <ele>648</ele>
        <time>2016-05-22T09:03:21Z</time>
      </trkpt>
      <trkpt lat="45.41604" lon="5.85449">
        <ele>648</ele>
        <time>2016-05-22T09:05:21Z</time>
      </trkpt>
      <trkpt lat="45.4161" lon="5.85447">
        <ele>647</ele>
        <time>2016-05-22T09:07:21Z</time>
      </trkpt>
      <trkpt lat="45.41629" lon="5.85437">
        <ele>646</ele>
        <time>2016-05-22T09:09:21Z</time>
      </trkpt>
      <trkpt lat="45.41646" lon="5.85427">
        <ele>645</ele>
        <time>2016-05-22T09:11:21Z</time>
      </trkpt>
      <trkpt lat="45.41646" lon="5.85427">
        <ele>645</ele>
        <time>2016-05-22T09:13:21Z</time>
      </trkpt>
      <trkpt lat="45.41652" lon="5.85432">
        <ele>645</ele>
        <time>2016-05-22T09:15:21Z</time>
      </trkpt>
      <trkpt lat="45.41655" lon="5.85435">
        <ele>645</ele>
        <time>2016-05-22T09:17:21Z</time>
      </trkpt>
      <trkpt lat="45.41658" lon="5.85437">
        <ele>645</ele>
        <time>2016-05-22T09:19:21Z</time>
      </trkpt>
      <trkpt lat="45.41661" lon="5.8544">
        <ele>645</ele>
        <time>2016-05-22T09:21:21Z</time>
      </trkpt>
      <trkpt lat="45.4167" lon="5.8545">
        <ele>646</ele>
        <time>2016-05-22T09:23:21Z</time>
      </trkpt>
      <trkpt lat="45.41687" lon="5.85459">
        <ele>646</ele>
        <time>2016-05-22T09:25:21Z</time>
      </trkpt>
      <trkpt lat="45.41707" lon="5.85465">
        <ele>645</ele>
        <time>2016-05-22T09:27:21Z</time>
      </trkpt>
      <trkpt lat="45.41732" lon="5.8547">
        <ele>645</ele>
        <time>2016-05-22T09:29:21Z</time>
      </trkpt>
      <trkpt lat="45.41754" lon="5.85477">
        <ele>645</ele>
        <time>2016-05-22T09:31:21Z</time>
      </trkpt>
      <trkpt lat="45.41776" lon="5.85487">
        <ele>645</ele>
        <time>2016-05-22T09:33:21Z</time>
      </trkpt>
      <trkpt lat="45.41786" lon="5.85493">
        <ele>645</ele>
        <time>2016-05-22T09:35:21Z</time>
      </trkpt>
      <trkpt lat="45.41795" lon="5.855">
        <ele>644</ele>
        <time>2016-05-22T09:37:21Z</time>
      </trkpt>
      <trkpt lat="45.41803" lon="5.85512">
        <ele>644</ele>
        <time>2016-05-22T09:39:21Z</time>
      </trkpt>
      <trkpt lat="45.41815" lon="5.85536">
        <ele>645</ele>
        <time>2016-05-22T09:41:21Z</time>
      </trkpt>
      <trkpt lat="45.41835" lon="5.85573">
        <ele>643</ele>
        <time>2016-05-22T09:43:21Z</time>
      </trkpt>
      <trkpt lat="45.41844" lon="5.85588">
        <ele>645</ele>
        <time>2016-05-22T09:45:21Z</time>
      </trkpt>
      <trkpt lat="45.41855" lon="5.85608">
        <ele>649</ele>
        <time>2016-05-22T09:47:21Z</time>
      </trkpt>
      <trkpt lat="45.41864" lon="5.8562">
        <ele>650</ele>
        <time>2016-05-22T09:49:21Z</time>
      </trkpt>
      <trkpt lat="45.41872" lon="5.8563">
        <ele>651</ele>
        <time>2016-05-22T09:51:21Z</time>
      </trkpt>
      <trkpt lat="45.41887" lon="5.85646">
        <ele>650</ele>
        <time>2016-05-22T09:53:21Z</time>
      </trkpt>
      <trkpt lat="45.41897" lon="5.85661">
        <ele>649</ele>
        <time>2016-05-22T09:55:21Z</time>
      </trkpt>
      <trkpt lat="45.41921" lon="5.85702">
        <ele>649</ele>
        <time>2016-05-22T09:57:21Z</time>
      </trkpt>
      <trkpt lat="45.41935" lon="5.8573">
        <ele>652</ele>
        <time>2016-05-22T09:59:21Z</time>
      </trkpt>
      <trkpt lat="45.41942" lon="5.85743">
        <ele>652</ele>
        <time>2016-05-22T10:01:21Z</time>
      </trkpt>
      <trkpt lat="45.41943" lon="5.85744">
        <ele>652</ele>
        <time>2016-05-22T10:03:21Z</time>
      </trkpt>
      <trkpt lat="45.41952" lon="5.85758">
        <ele>653</ele>
        <time>2016-05-22T10:05:21Z</time>
      </trkpt>
      <trkpt lat="45.41965" lon="5.85774">
        <ele>653</ele>
        <time>2016-05-22T10:07:21Z</time>
      </trkpt>
      <trkpt lat="45.41978" lon="5.85784">
        <ele>651</ele>
        <time>2016-05-22T10:09:21Z</time>
      </trkpt>
      <trkpt lat="45.41994" lon="5.85796">
        <ele>647</ele>
        <time>2016-05-22T10:11:21Z</time>
      </trkpt>
      <trkpt lat="45.42029" lon="5.85816">
        <ele>648</ele>
        <time>2016-05-22T10:13:21Z</time>
      </trkpt>
      <trkpt lat="45.42045" lon="5.85826">
        <ele>648</ele>
        <time>2016-05-22T10:15:21Z</time>
      </trkpt>
      <trkpt lat="45.42091" lon="5.85851">
        <ele>651</ele>
        <time>2016-05-22T10:17:21Z</time>
      </trkpt>
      <trkpt lat="45.42099" lon="5.85858">
        <ele>653</ele>
        <time>2016-05-22T10:19:21Z</time>
      </trkpt>
      <trkpt lat="45.42106" lon="5.85865">
        <ele>655</ele>
        <time>2016-05-22T10:21:21Z</time>
      </trkpt>
      <trkpt lat="45.42112" lon="5.85871">
        <ele>656</ele>
        <time>2016-05-22T10:23:21Z</time>
      </trkpt>
      <trkpt lat="45.42117" lon="5.8588">
        <ele>657</ele>
        <time>2016-05-22T10:25:21Z</time>
      </trkpt>
      <trkpt lat="45.4212" lon="5.85889">
        <ele>657</ele>
        <time>2016-05-22T10:27:21Z</time>
      </trkpt>
      <trkpt lat="45.42122" lon="5.85902">
        <ele>658</ele>
        <time>2016-05-22T10:29:21Z</time>
      </trkpt>
      <trkpt lat="45.42123" lon="5.85921">
        <ele>659</ele>
        <time>2016-05-22T10:31:21Z</time>
      </trkpt>
      <trkpt lat="45.42121" lon="5.85959">
        <ele>661</ele>
        <time>2016-05-22T10:33:21Z</time>
      </trkpt>
      <trkpt lat="45.42118" lon="5.85999">
        <ele>665</ele>
        <time>2016-05-22T10:35:21Z</time>
      </trkpt>
      <trkpt lat="45.42115" lon="5.86031">
        <ele>669</ele>
        <time>2016-05-22T10:37:21Z</time>
      </trkpt>
      <trkpt lat="45.42115" lon="5.86053">
        <ele>673</ele>
        <time>2016-05-22T10:39:21Z</time>
      </trkpt>
      <trkpt lat="45.42114" lon="5.8607">
        <ele>675</ele>
        <time>2016-05-22T10:41:21Z</time>
      </trkpt>
      <trkpt lat="45.42116" lon="5.86081">
        <ele>676</ele>
        <time>2016-05-22T10:43:21Z</time>
      </trkpt>
      <trkpt lat="45.42118" lon="5.86092">
        <ele>677</ele>
        <time>2016-05-22T10:45:21Z</time>
      </trkpt>
      <trkpt lat="45.42122" lon="5.86102">
        <ele>677</ele>
        <time>2016-05-22T10:47:21Z</time>
      </trkpt>
      <trkpt lat="45.42127" lon="5.86111">
        <ele>677</ele>
        <time>2016-05-22T10:49:21Z</time>
      </trkpt>
      <trkpt lat="45.42131" lon="5.86116">
        <ele>676</ele>
        <time>2016-05-22T10:51:21Z</time>
      </trkpt>
      <trkpt lat="45.42136" lon="5.86122">
        <ele>675</ele>
        <time>2016-05-22T10:53:21Z</time>
      </trkpt>
      <trkpt lat="45.4214" lon="5.86125">
        <ele>674</ele>
        <time>2016-05-22T10:55:21Z</time>
      </trkpt>
      <trkpt lat="45.42147" lon="5.8613">
        <ele>671</ele>
        <time>2016-05-22T10:57:21Z</time>
      </trkpt>
      <trkpt lat="45.42155" lon="5.86134">
        <ele>668</ele>
        <time>2016-05-22T10:59:21Z</time>
      </trkpt>
      <trkpt lat="45.42158" lon="5.86135">
        <ele>667</ele>
        <time>2016-05-22T11:01:21Z</time>
      </trkpt>
      <trkpt lat="45.42162" lon="5.86137">
        <ele>666</ele>
        <time>2016-05-22T11:03:21Z</time>
      </trkpt>
      <trkpt lat="45.422" lon="5.86147">
        <ele>664</ele>
        <time>2016-05-22T11:05:21Z</time>
      </trkpt>
      <trkpt lat="45.42249" lon="5.86157">
        <ele>664</ele>
        <time>2016-05-22T11:07:21Z</time>
      </trkpt>
      <trkpt lat="45.42287" lon="5.86171">
        <ele>665</ele>
        <time>2016-05-22T11:09:21Z</time>
      </trkpt>
      <trkpt lat="45.42308" lon="5.86188">
        <ele>669</ele>
        <time>2016-05-22T11:11:21Z</time>
      </trkpt>
      <trkpt lat="45.4232" lon="5.86202">
        <ele>672</ele>
        <time>2016-05-22T11:13:21Z</time>
      </trkpt>
      <trkpt lat="45.42339" lon="5.86225">
        <ele>677</ele>
        <time>2016-05-22T11:15:21Z</time>
      </trkpt>
      <trkpt lat="45.42366" lon="5.86254">
        <ele>678</ele>
        <time>2016-05-22T11:17:21Z</time>
      </trkpt>
      <trkpt lat="45.42383" lon="5.86275">
        <ele>679</ele>
        <time>2016-05-22T11:19:21Z</time>
      </trkpt>
      <trkpt lat="45.42394" lon="5.86294">
        <ele>679</ele>
        <time>2016-05-22T11:21:21Z</time>
      </trkpt>
      <trkpt lat="45.42404" lon="5.86312">
        <ele>680</ele>
        <time>2016-05-22T11:23:21Z</time>
      </trkpt>
      <trkpt lat="45.42415" lon="5.86338">
        <ele>681</ele>
        <time>2016-05-22T11:25:21Z</time>
      </trkpt>
      <trkpt lat="45.4242" lon="5.86356">
        <ele>683</ele>
        <time>2016-05-22T11:27:21Z</time>
      </trkpt>
      <trkpt lat="45.42425" lon="5.86378">
        <ele>686</ele>
        <time>2016-05-22T11:29:21Z</time>
      </trkpt>
      <trkpt lat="45.42432" lon="5.86394">
        <ele>687</ele>
        <time>2016-05-22T11:31:21Z</time>
      </trkpt>
      <trkpt lat="45.42439" lon="5.86404">
        <ele>687</ele>
        <time>2016-05-22T11:33:21Z</time>
      </trkpt>
      <trkpt lat="45.42445" lon="5.86411">
        <ele>686</ele>
        <time>2016-05-22T11:35:21Z</time>
      </trkpt>
      <trkpt lat="45.42455" lon="5.86419">
        <ele>684</ele>
        <time>2016-05-22T11:37:21Z</time>
      </trkpt>
      <trkpt lat="45.4247" lon="5.86429">
        <ele>680</ele>
        <time>2016-05-22T11:39:21Z</time>
      </trkpt>
      <trkpt lat="45.42481" lon="5.86437">
        <ele>676</ele>
        <time>2016-05-22T11:41:21Z</time>
      </trkpt>
      <trkpt lat="45.4249" lon="5.86445">
        <ele>673</ele>
        <time>2016-05-22T11:43:21Z</time>
      </trkpt>
      <trkpt lat="45.42498" lon="5.86455">
        <ele>669</ele>
        <time>2016-05-22T11:45:21Z</time>
      </trkpt>
      <trkpt lat="45.42505" lon="5.8647">
        <ele>668</ele>
        <time>2016-05-22T11:47:21Z</time>
      </trkpt>
      <trkpt lat="45.42511" lon="5.86492">
        <ele>668</ele>
        <time>2016-05-22T11:49:21Z</time>
      </trkpt>
      <trkpt lat="45.42516" lon="5.86518">
        <ele>670</ele>
        <time>2016-05-22T11:51:21Z</time>
      </trkpt>
      <trkpt lat="45.42518" lon="5.86538">
        <ele>672</ele>
        <time>2016-05-22T11:53:21Z</time>
      </trkpt>
      <trkpt lat="45.42518" lon="5.86554">
        <ele>674</ele>
        <time>2016-05-22T11:55:21Z</time>
      </trkpt>
      <trkpt lat="45.42519" lon="5.86569">
        <ele>675</ele>
        <time>2016-05-22T11:57:21Z</time>
      </trkpt>
      <trkpt lat="45.42518" lon="5.86613">
        <ele>681</ele>
        <time>2016-05-22T11:59:21Z</time>
      </trkpt>
      <trkpt lat="45.42519" lon="5.86627">
        <ele>682</ele>
        <time>2016-05-22T12:01:21Z</time>
      </trkpt>
      <trkpt lat="45.42521" lon="5.86638">
        <ele>683</ele>
        <time>2016-05-22T12:03:21Z</time>
      </trkpt>
      <trkpt lat="45.42522" lon="5.86645">
        <ele>684</ele>
        <time>2016-05-22T12:05:21Z</time>
      </trkpt>
      <trkpt lat="45.42524" lon="5.8665">
        <ele>685</ele>
        <time>2016-05-22T12:07:21Z</time>
      </trkpt>
      <trkpt lat="45.42528" lon="5.86658">
        <ele>685</ele>
        <time>2016-05-22T12:09:21Z</time>
      </trkpt>
      <trkpt lat="45.42533" lon="5.86665">
        <ele>685</ele>
        <time>2016-05-22T12:11:21Z</time>
      </trkpt>
      <trkpt lat="45.42539" lon="5.86673">
        <ele>687</ele>
        <time>2016-05-22T12:13:21Z</time>
      </trkpt>
      <trkpt lat="45.42546" lon="5.86678">
        <ele>688</ele>
        <time>2016-05-22T12:15:21Z</time>
      </trkpt>
      <trkpt lat="45.42553" lon="5.8668">
        <ele>688</ele>
        <time>2016-05-22T12:17:21Z</time>
      </trkpt>
      <trkpt lat="45.42562" lon="5.8668">
        <ele>687</ele>
        <time>2016-05-22T12:19:21Z</time>
      </trkpt>
      <trkpt lat="45.42577" lon="5.86678">
        <ele>684</ele>
        <time>2016-05-22T12:21:21Z</time>
      </trkpt>
      <trkpt lat="45.4259" lon="5.86674">
        <ele>681</ele>
        <time>2016-05-22T12:23:21Z</time>
      </trkpt>
      <trkpt lat="45.42602" lon="5.86673">
        <ele>681</ele>
        <time>2016-05-22T12:25:21Z</time>
      </trkpt>
      <trkpt lat="45.42615" lon="5.86674">
        <ele>681</ele>
        <time>2016-05-22T12:27:21Z</time>
      </trkpt>
      <trkpt lat="45.42621" lon="5.86676">
        <ele>682</ele>
        <time>2016-05-22T12:29:21Z</time>
      </trkpt>
      <trkpt lat="45.42624" lon="5.86677">
        <ele>682</ele>
        <time>2016-05-22T12:31:21Z</time>
      </trkpt>
      <trkpt lat="45.42642" lon="5.86685">
        <ele>685</ele>
        <time>2016-05-22T12:33:21Z</time>
      </trkpt>
      <trkpt lat="45.42657" lon="5.86691">
        <ele>687</ele>
        <time>2016-05-22T12:35:21Z</time>
      </trkpt>
      <trkpt lat="45.4267" lon="5.86694">
        <ele>687</ele>
        <time>2016-05-22T12:37:21Z</time>
      </trkpt>
      <trkpt lat="45.42684" lon="5.86697">
        <ele>688</ele>
        <time>2016-05-22T12:39:21Z</time>
      </trkpt>
      <trkpt lat="45.42701" lon="5.86701">
        <ele>689</ele>
        <time>2016-05-22T12:41:21Z</time>
      </trkpt>
      <trkpt lat="45.42715" lon="5.86708">
        <ele>691</ele>
        <time>2016-05-22T12:43:21Z</time>
      </trkpt>
      <trkpt lat="45.42725" lon="5.86712">
        <ele>691</ele>
        <time>2016-05-22T12:45:21Z</time>
      </trkpt>
      <trkpt lat="45.42735" lon="5.86718">
        <ele>693</ele>
        <time>2016-05-22T12:47:21Z</time>
      </trkpt>
      <trkpt lat="45.42745" lon="5.86722">
        <ele>693</ele>
        <time>2016-05-22T12:49:21Z</time>
      </trkpt>
      <trkpt lat="45.42758" lon="5.86726">
        <ele>695</ele>
        <time>2016-05-22T12:51:21Z</time>
      </trkpt>
      <trkpt lat="45.42767" lon="5.86729">
        <ele>697</ele>
        <time>2016-05-22T12:53:21Z</time>
      </trkpt>
      <trkpt lat="45.42773" lon="5.86734">
        <ele>699</ele>
        <time>2016-05-22T12:55:21Z</time>
      </trkpt>
      <trkpt lat="45.42778" lon="5.8674">
        <ele>700</ele>
        <time>2016-05-22T12:57:21Z</time>
      </trkpt>
      <trkpt lat="45.42782" lon="5.86748">
        <ele>702</ele>
        <time>2016-05-22T12:59:21Z</time>
      </trkpt>
      <trkpt lat="45.42785" lon="5.86757">
        <ele>703</ele>
        <time>2016-05-22T13:01:21Z</time>
      </trkpt>
      <trkpt lat="45.42788" lon="5.86766">
        <ele>705</ele>
        <time>2016-05-22T13:03:21Z</time>
      </trkpt>
      <trkpt lat="45.42792" lon="5.86771">
        <ele>705</ele>
        <time>2016-05-22T13:05:21Z</time>
      </trkpt>
      <trkpt lat="45.42795" lon="5.86772">
        <ele>705</ele>
        <time>2016-05-22T13:07:21Z</time>
      </trkpt>
      <trkpt lat="45.42802" lon="5.86771">
        <ele>705</ele>
        <time>2016-05-22T13:09:21Z</time>
      </trkpt>
      <trkpt lat="45.42809" lon="5.86771">
        <ele>705</ele>
        <time>2016-05-22T13:11:21Z</time>
      </trkpt>
      <trkpt lat="45.42811" lon="5.86771">
        <ele>705</ele>
        <time>2016-05-22T13:13:21Z</time>
      </trkpt>
      <trkpt lat="45.42814" lon="5.86772">
        <ele>705</ele>
        <time>2016-05-22T13:15:21Z</time>
      </trkpt>
      <trkpt lat="45.42816" lon="5.86775">
        <ele>705</ele>
        <time>2016-05-22T13:17:21Z</time>
      </trkpt>
      <trkpt lat="45.42816" lon="5.86778">
        <ele>705</ele>
        <time>2016-05-22T13:19:21Z</time>
      </trkpt>
      <trkpt lat="45.42817" lon="5.86782">
        <ele>705</ele>
        <time>2016-05-22T13:21:21Z</time>
      </trkpt>
      <trkpt lat="45.42816" lon="5.86787">
        <ele>705</ele>
        <time>2016-05-22T13:23:21Z</time>
      </trkpt>
      <trkpt lat="45.42816" lon="5.86791">
        <ele>705</ele>
        <time>2016-05-22T13:25:21Z</time>
      </trkpt>
      <trkpt lat="45.42816" lon="5.86797">
        <ele>705</ele>
        <time>2016-05-22T13:27:21Z</time>
      </trkpt>
      <trkpt lat="45.42817" lon="5.86808">
        <ele>705</ele>
        <time>2016-05-22T13:29:21Z</time>
      </trkpt>
      <trkpt lat="45.42816" lon="5.86818">
        <ele>705</ele>
        <time>2016-05-22T13:31:21Z</time>
      </trkpt>
      <trkpt lat="45.42817" lon="5.8683">
        <ele>705</ele>
        <time>2016-05-22T13:33:21Z</time>
      </trkpt>
      <trkpt lat="45.42822" lon="5.8687">
        <ele>704</ele>
        <time>2016-05-22T13:35:21Z</time>
      </trkpt>
      <trkpt lat="45.42827" lon="5.86894">
        <ele>703</ele>
        <time>2016-05-22T13:37:21Z</time>
      </trkpt>
      <trkpt lat="45.4283" lon="5.86901">
        <ele>702</ele>
        <time>2016-05-22T13:39:21Z</time>
      </trkpt>
      <trkpt lat="45.42832" lon="5.86907">
        <ele>701</ele>
        <time>2016-05-22T13:41:21Z</time>
      </trkpt>
      <trkpt lat="45.42835" lon="5.86911">
        <ele>700</ele>
        <time>2016-05-22T13:43:21Z</time>
      </trkpt>
      <trkpt lat="45.4284" lon="5.86919">
        <ele>702</ele>
        <time>2016-05-22T13:45:21Z</time>
      </trkpt>
      <trkpt lat="45.42846" lon="5.86926">
        <ele>705</ele>
        <time>2016-05-22T13:47:21Z</time>
      </trkpt>
      <trkpt lat="45.42858" lon="5.86933">
        <ele>707</ele>
        <time>2016-05-22T13:49:21Z</time>
      </trkpt>
      <trkpt lat="45.42878" lon="5.86935">
        <ele>707</ele>
        <time>2016-05-22T13:51:21Z</time>
      </trkpt>
      <trkpt lat="45.42898" lon="5.86936">
        <ele>707</ele>
        <time>2016-05-22T13:53:21Z</time>
      </trkpt>
      <trkpt lat="45.42907" lon="5.86937">
        <ele>706</ele>
        <time>2016-05-22T13:55:21Z</time>
      </trkpt>
      <trkpt lat="45.42935" lon="5.8694">
        <ele>709</ele>
        <time>2016-05-22T13:57:21Z</time>
      </trkpt>
      <trkpt lat="45.42952" lon="5.86942">
        <ele>711</ele>
        <time>2016-05-22T13:59:21Z</time>
      </trkpt>
      <trkpt lat="45.42959" lon="5.86942">
        <ele>712</ele>
        <time>2016-05-22T14:01:21Z</time>
      </trkpt>
      <trkpt lat="45.42966" lon="5.86941">
        <ele>713</ele>
        <time>2016-05-22T14:03:21Z</time>
      </trkpt>
      <trkpt lat="45.42982" lon="5.86939">
        <ele>716</ele>
        <time>2016-05-22T14:05:21Z</time>
      </trkpt>
      <trkpt lat="45.4299" lon="5.86941">
        <ele>717</ele>
        <time>2016-05-22T14:07:21Z</time>
      </trkpt>
      <trkpt lat="45.42996" lon="5.86944">
        <ele>718</ele>
        <time>2016-05-22T14:09:21Z</time>
      </trkpt>
      <trkpt lat="45.43002" lon="5.86948">
        <ele>718</ele>
        <time>2016-05-22T14:11:21Z</time>
      </trkpt>
      <trkpt lat="45.43006" lon="5.86953">
        <ele>718</ele>
        <time>2016-05-22T14:13:21Z</time>
      </trkpt>
      <trkpt lat="45.43024" lon="5.86985">
        <ele>715</ele>
        <time>2016-05-22T14:15:21Z</time>
      </trkpt>
      <trkpt lat="45.43031" lon="5.86995">
        <ele>715</ele>
        <time>2016-05-22T14:17:21Z</time>
      </trkpt>
      <trkpt lat="45.43039" lon="5.87002">
        <ele>715</ele>
        <time>2016-05-22T14:19:21Z</time>
      </trkpt>
      <trkpt lat="45.43047" lon="5.87007">
        <ele>717</ele>
        <time>2016-05-22T14:21:21Z</time>
      </trkpt>
      <trkpt lat="45.43063" lon="5.87015">
        <ele>720</ele>
        <time>2016-05-22T14:23:21Z</time>
      </trkpt>
      <trkpt lat="45.4308" lon="5.87028">
        <ele>723</ele>
        <time>2016-05-22T14:25:21Z</time>
      </trkpt>
      <trkpt lat="45.43096" lon="5.87039">
        <ele>724</ele>
        <time>2016-05-22T14:27:21Z</time>
      </trkpt>
      <trkpt lat="45.43107" lon="5.87045">
        <ele>725</ele>
        <time>2016-05-22T14:29:21Z</time>
      </trkpt>
      <trkpt lat="45.43128" lon="5.87054">
        <ele>725</ele>
        <time>2016-05-22T14:31:21Z</time>
      </trkpt>
      <trkpt lat="45.43146" lon="5.87063">
        <ele>725</ele>
        <time>2016-05-22T14:33:21Z</time>
      </trkpt>
      <trkpt lat="45.43155" lon="5.87068">
        <ele>724</ele>
        <time>2016-05-22T14:35:21Z</time>
      </trkpt>
      <trkpt lat="45.4317" lon="5.87075">
        <ele>724</ele>
        <time>2016-05-22T14:37:21Z</time>
      </trkpt>
      <trkpt lat="45.43185" lon="5.8708">
        <ele>728</ele>
        <time>2016-05-22T14:39:21Z</time>
      </trkpt>
      <trkpt lat="45.43194" lon="5.87084">
        <ele>730</ele>
        <time>2016-05-22T14:41:21Z</time>
      </trkpt>
      <trkpt lat="45.43201" lon="5.8709">
        <ele>732</ele>
        <time>2016-05-22T14:43:21Z</time>
      </trkpt>
      <trkpt lat="45.43207" lon="5.87095">
        <ele>733</ele>
        <time>2016-05-22T14:45:21Z</time>
      </trkpt>
      <trkpt lat="45.43213" lon="5.87104">
        <ele>734</ele>
        <time>2016-05-22T14:47:21Z</time>
      </trkpt>
      <trkpt lat="45.43218" lon="5.87113">
        <ele>735</ele>
        <time>2016-05-22T14:49:21Z</time>
      </trkpt>
      <trkpt lat="45.43228" lon="5.87134">
        <ele>735</ele>
        <time>2016-05-22T14:51:21Z</time>
      </trkpt>
      <trkpt lat="45.43235" lon="5.87147">
        <ele>735</ele>
        <time>2016-05-22T14:53:21Z</time>
      </trkpt>
      <trkpt lat="45.43246" lon="5.87164">
        <ele>733</ele>
        <time>2016-05-22T14:55:21Z</time>
      </trkpt>
      <trkpt lat="45.43253" lon="5.87175">
        <ele>737</ele>
        <time>2016-05-22T14:57:21Z</time>
      </trkpt>
      <trkpt lat="45.4327" lon="5.87195">
        <ele>745</ele>
        <time>2016-05-22T14:59:21Z</time>
      </trkpt>
      <trkpt lat="45.43273" lon="5.87197">
        <ele>746</ele>
        <time>2016-05-22T15:01:21Z</time>
      </trkpt>
      <trkpt lat="45.43275" lon="5.87199">
        <ele>746</ele>
        <time>2016-05-22T15:03:21Z</time>
      </trkpt>
      <trkpt lat="45.43284" lon="5.87202">
        <ele>747</ele>
        <time>2016-05-22T15:05:21Z</time>
      </trkpt>
      <trkpt lat="45.43291" lon="5.87204">
        <ele>747</ele>
        <time>2016-05-22T15:07:21Z</time>
      </trkpt>
      <trkpt lat="45.43298" lon="5.87206">
        <ele>747</ele>
        <time>2016-05-22T15:09:21Z</time>
      </trkpt>
      <trkpt lat="45.43308" lon="5.87207">
        <ele>746</ele>
        <time>2016-05-22T15:11:21Z</time>
      </trkpt>
      <trkpt lat="45.43327" lon="5.87217">
        <ele>744</ele>
        <time>2016-05-22T15:13:21Z</time>
      </trkpt>
      <trkpt lat="45.43342" lon="5.87228">
        <ele>746</ele>
        <time>2016-05-22T15:15:21Z</time>
      </trkpt>
      <trkpt lat="45.43352" lon="5.87238">
        <ele>749</ele>
        <time>2016-05-22T15:17:21Z</time>
      </trkpt>
      <trkpt lat="45.43358" lon="5.87248">
        <ele>751</ele>
        <time>2016-05-22T15:19:21Z</time>
      </trkpt>
      <trkpt lat="45.43363" lon="5.87261">
        <ele>755</ele>
        <time>2016-05-22T15:21:21Z</time>
      </trkpt>
      <trkpt lat="45.43368" lon="5.87279">
        <ele>761</ele>
        <time>2016-05-22T15:23:21Z</time>
      </trkpt>
      <trkpt lat="45.43373" lon="5.87304">
        <ele>769</ele>
        <time>2016-05-22T15:25:21Z</time>
      </trkpt>
      <trkpt lat="45.43377" lon="5.87333">
        <ele>776</ele>
        <time>2016-05-22T15:27:21Z</time>
      </trkpt>
      <trkpt lat="45.43379" lon="5.87367">
        <ele>784</ele>
        <time>2016-05-22T15:29:21Z</time>
      </trkpt>
      <trkpt lat="45.4338" lon="5.87379">
        <ele>786</ele>
        <time>2016-05-22T15:31:21Z</time>
      </trkpt>
      <trkpt lat="45.43381" lon="5.87385">
        <ele>787</ele>
        <time>2016-05-22T15:33:21Z</time>
      </trkpt>
      <trkpt lat="45.43383" lon="5.87387">
        <ele>788</ele>
        <time>2016-05-22T15:35:21Z</time>
      </trkpt>
      <trkpt lat="45.43397" lon="5.87409">
        <ele>787</ele>
        <time>2016-05-22T15:37:21Z</time>
      </trkpt>
      <trkpt lat="45.43401" lon="5.87417">
        <ele>786</ele>
        <time>2016-05-22T15:39:21Z</time>
      </trkpt>
      <trkpt lat="45.43404" lon="5.87425">
        <ele>785</ele>
        <time>2016-05-22T15:41:21Z</time>
      </trkpt>
      <trkpt lat="45.43407" lon="5.87437">
        <ele>784</ele>
        <time>2016-05-22T15:43:21Z</time>
      </trkpt>
      <trkpt lat="45.43412" lon="5.87476">
        <ele>780</ele>
        <time>2016-05-22T15:45:21Z</time>
      </trkpt>
      <trkpt lat="45.43416" lon="5.87499">
        <ele>776</ele>
        <time>2016-05-22T15:47:21Z</time>
      </trkpt>
      <trkpt lat="45.43419" lon="5.87509">
        <ele>777</ele>
        <time>2016-05-22T15:49:21Z</time>
      </trkpt>
      <trkpt lat="45.43422" lon="5.87517">
        <ele>779</ele>
        <time>2016-05-22T15:51:21Z</time>
      </trkpt>
      <trkpt lat="45.43436" lon="5.87558">
        <ele>783</ele>
        <time>2016-05-22T15:53:21Z</time>
      </trkpt>
      <trkpt lat="45.43448" lon="5.87588">
        <ele>784</ele>
        <time>2016-05-22T15:55:21Z</time>
      </trkpt>
      <trkpt lat="45.43462" lon="5.87622">
        <ele>787</ele>
        <time>2016-05-22T15:57:21Z</time>
      </trkpt>
      <trkpt lat="45.43469" lon="5.87635">
        <ele>787</ele>
        <time>2016-05-22T15:59:21Z</time>
      </trkpt>
      <trkpt lat="45.43473" lon="5.87641">
        <ele>786</ele>
        <time>2016-05-22T16:01:21Z</time>
      </trkpt>
      <trkpt lat="45.43478" lon="5.87645">
        <ele>784</ele>
        <time>2016-05-22T16:03:21Z</time>
      </trkpt>
      <trkpt lat="45.43483" lon="5.8765">
        <ele>783</ele>
        <time>2016-05-22T16:05:21Z</time>
      </trkpt>
      <trkpt lat="45.43493" lon="5.87655">
        <ele>779</ele>
        <time>2016-05-22T16:07:21Z</time>
      </trkpt>
      <trkpt lat="45.43501" lon="5.87658">
        <ele>776</ele>
        <time>2016-05-22T16:09:21Z</time>
      </trkpt>
      <trkpt lat="45.4351" lon="5.87662">
        <ele>777</ele>
        <time>2016-05-22T16:11:21Z</time>
      </trkpt>
      <trkpt lat="45.43532" lon="5.8767">
        <ele>779</ele>
        <time>2016-05-22T16:13:21Z</time>
      </trkpt>
      <trkpt lat="45.43617" lon="5.87691">
        <ele>788</ele>
        <time>2016-05-22T16:15:21Z</time>
      </trkpt>
      <trkpt lat="45.43632" lon="5.87694">
        <ele>788</ele>
        <time>2016-05-22T16:17:21Z</time>
      </trkpt>
      <trkpt lat="45.43641" lon="5.87698">
        <ele>788</ele>
        <time>2016-05-22T16:19:21Z</time>
      </trkpt>
      <trkpt lat="45.43646" lon="5.87701">
        <ele>788</ele>
        <time>2016-05-22T16:21:21Z</time>
      </trkpt>
      <trkpt lat="45.43651" lon="5.87707">
        <ele>788</ele>
        <time>2016-05-22T16:23:21Z</time>
      </trkpt>
      <trkpt lat="45.43658" lon="5.87718">
        <ele>788</ele>
        <time>2016-05-22T16:25:21Z</time>
      </trkpt>
      <trkpt lat="45.43664" lon="5.87729">
        <ele>787</ele>
        <time>2016-05-22T16:27:21Z</time>
      </trkpt>
      <trkpt lat="45.43669" lon="5.87733">
        <ele>787</ele>
        <time>2016-05-22T16:29:21Z</time>
      </trkpt>
      <trkpt lat="45.43673" lon="5.87734">
        <ele>786</ele>
        <time>2016-05-22T16:31:21Z</time>
      </trkpt>
      <trkpt lat="45.43678" lon="5.87735">
        <ele>786</ele>
        <time>2016-05-22T16:33:21Z</time>
      </trkpt>
      <trkpt lat="45.43696" lon="5.87736">
        <ele>785</ele>
        <time>2016-05-22T16:35:21Z</time>
      </trkpt>
      <trkpt lat="45.43738" lon="5.87734">
        <ele>784</ele>
        <time>2016-05-22T16:37:21Z</time>
      </trkpt>
      <trkpt lat="45.4375" lon="5.87733">
        <ele>784</ele>
        <time>2016-05-22T16:39:21Z</time>
      </trkpt>
      <trkpt lat="45.43767" lon="5.87731">
        <ele>784</ele>
        <time>2016-05-22T16:41:21Z</time>
      </trkpt>
      <trkpt lat="45.43786" lon="5.87732">
        <ele>785</ele>
        <time>2016-05-22T16:43:21Z</time>
      </trkpt>
      <trkpt lat="45.43795" lon="5.87734">
        <ele>785</ele>
        <time>2016-05-22T16:45:21Z</time>
      </trkpt>
      <trkpt lat="45.43803" lon="5.87738">
        <ele>784</ele>
        <time>2016-05-22T16:47:21Z</time>
      </trkpt>
      <trkpt lat="45.43814" lon="5.87745">
        <ele>783</ele>
        <time>2016-05-22T16:49:21Z</time>
      </trkpt>
      <trkpt lat="45.43826" lon="5.87754">
        <ele>783</ele>
        <time>2016-05-22T16:51:21Z</time>
      </trkpt>
      <trkpt lat="45.43847" lon="5.87773">
        <ele>789</ele>
        <time>2016-05-22T16:53:21Z</time>
      </trkpt>
      <trkpt lat="45.43898" lon="5.87816">
        <ele>794</ele>
        <time>2016-05-22T16:55:21Z</time>
      </trkpt>
      <trkpt lat="45.43907" lon="5.87822">
        <ele>794</ele>
        <time>2016-05-22T16:57:21Z</time>
      </trkpt>
      <trkpt lat="45.43922" lon="5.8783">
        <ele>793</ele>
        <time>2016-05-22T16:59:21Z</time>
      </trkpt>
      <trkpt lat="45.43939" lon="5.87836">
        <ele>792</ele>
        <time>2016-05-22T17:01:21Z</time>
      </trkpt>
      <trkpt lat="45.43966" lon="5.87849">
        <ele>792</ele>
        <time>2016-05-22T17:03:21Z</time>
      </trkpt>
      <trkpt lat="45.44" lon="5.8787">
        <ele>793</ele>
        <time>2016-05-22T17:05:21Z</time>
      </trkpt>
      <trkpt lat="45.44008" lon="5.87876">
        <ele>794</ele>
        <time>2016-05-22T17:07:21Z</time>
      </trkpt>
      <trkpt lat="45.4403" lon="5.8789">
        <ele>796</ele>
        <time>2016-05-22T17:09:21Z</time>
      </trkpt>
      <trkpt lat="45.44037" lon="5.87896">
        <ele>796</ele>
        <time>2016-05-22T17:11:21Z</time>
      </trkpt>
      <trkpt lat="45.44058" lon="5.87918">
        <ele>798</ele>
        <time>2016-05-22T17:13:21Z</time>
      </trkpt>
      <trkpt lat="45.4407" lon="5.8793">
        <ele>801</ele>
        <time>2016-05-22T17:15:21Z</time>
      </trkpt>
      <trkpt lat="45.44085" lon="5.87941">
        <ele>802</ele>
        <time>2016-05-22T17:17:21Z</time>
      </trkpt>
      <trkpt lat="45.44106" lon="5.87951">
        <ele>804</ele>
        <time>2016-05-22T17:19:21Z</time>
      </trkpt>
      <trkpt lat="45.44149" lon="5.87961">
        <ele>804</ele>
        <time>2016-05-22T17:21:21Z</time>
      </trkpt>
      <trkpt lat="45.4416" lon="5.87962">
        <ele>804</ele>
        <time>2016-05-22T17:23:21Z</time>
      </trkpt>
      <trkpt lat="45.44176" lon="5.87967">
        <ele>805</ele>
        <time>2016-05-22T17:25:21Z</time>
      </trkpt>
      <trkpt lat="45.44205" lon="5.8798">
        <ele>809</ele>
        <time>2016-05-22T17:27:21Z</time>
      </trkpt>
      <trkpt lat="45.44265" lon="5.88007">
        <ele>818</ele>
        <time>2016-05-22T17:29:21Z</time>
      </trkpt>
      <trkpt lat="45.44267" lon="5.88008">
        <ele>819</ele>
        <time>2016-05-22T17:31:21Z</time>
      </trkpt>
      <trkpt lat="45.44275" lon="5.88013">
        <ele>822</ele>
        <time>2016-05-22T17:33:21Z</time>
      </trkpt>
      <trkpt lat="45.4428" lon="5.88015">
        <ele>823</ele>
        <time>2016-05-22T17:35:21Z</time>
      </trkpt>
      <trkpt lat="45.44286" lon="5.88018">
        <ele>825</ele>
        <time>2016-05-22T17:37:21Z</time>
      </trkpt>
      <trkpt lat="45.44321" lon="5.88025">
        <ele>831</ele>
        <time>2016-05-22T17:39:21Z</time>
      </trkpt>
      <trkpt lat="45.44334" lon="5.88028">
        <ele>833</ele>
        <time>2016-05-22T17:41:21Z</time>
      </trkpt>
      <trkpt lat="45.44356" lon="5.88039">
        <ele>837</ele>
        <time>2016-05-22T17:43:21Z</time>
      </trkpt>
      <trkpt lat="45.44363" lon="5.88044">
        <ele>838</ele>
        <time>2016-05-22T17:45:21Z</time>
      </trkpt>
      <trkpt lat="45.44379" lon="5.88051">
        <ele>839</ele>
        <time>2016-05-22T17:47:21Z</time>
      </trkpt>
      <trkpt lat="45.44388" lon="5.88053">
        <ele>838</ele>
        <time>2016-05-22T17:49:21Z</time>
      </trkpt>
      <trkpt lat="45.44396" lon="5.88054">
        <ele>837</ele>
        <time>2016-05-22T17:51:21Z</time>
      </trkpt>
      <trkpt lat="45.44402" lon="5.88051">
        <ele>835</ele>
        <time>2016-05-22T17:53:21Z</time>
      </trkpt>
      <trkpt lat="45.44409" lon="5.88046">
        <ele>833</ele>
        <time>2016-05-22T17:55:21Z</time>
      </trkpt>
      <trkpt lat="45.44425" lon="5.88023">
        <ele>826</ele>
        <time>2016-05-22T17:57:21Z</time>
      </trkpt>
      <trkpt lat="45.44435" lon="5.88009">
        <ele>824</ele>
        <time>2016-05-22T17:59:21Z</time>
      </trkpt>
      <trkpt lat="45.44441" lon="5.88003">
        <ele>823</ele>
        <time>2016-05-22T18:01:21Z</time>
      </trkpt>
      <trkpt lat="45.44448" lon="5.87997">
        <ele>823</ele>
        <time>2016-05-22T18:03:21Z</time>
      </trkpt>
      <trkpt lat="45.44455" lon="5.87992">
        <ele>823</ele>
        <time>2016-05-22T18:05:21Z</time>
      </trkpt>
      <trkpt lat="45.44469" lon="5.87987">
        <ele>824</ele>
        <time>2016-05-22T18:07:21Z</time>
      </trkpt>
      <trkpt lat="45.44495" lon="5.87988">
        <ele>828</ele>
        <time>2016-05-22T18:09:21Z</time>
      </trkpt>
      <trkpt lat="45.44516" lon="5.8799">
        <ele>828</ele>
        <time>2016-05-22T18:11:21Z</time>
      </trkpt>
      <trkpt lat="45.44532" lon="5.87993">
        <ele>828</ele>
        <time>2016-05-22T18:13:21Z</time>
      </trkpt>
      <trkpt lat="45.44556" lon="5.88005">
        <ele>829</ele>
        <time>2016-05-22T18:15:21Z</time>
      </trkpt>
      <trkpt lat="45.44581" lon="5.88017">
        <ele>830</ele>
        <time>2016-05-22T18:17:21Z</time>
      </trkpt>
      <trkpt lat="45.44597" lon="5.88023">
        <ele>831</ele>
        <time>2016-05-22T18:19:21Z</time>
      </trkpt>
      <trkpt lat="45.44612" lon="5.88025">
        <ele>831</ele>
        <time>2016-05-22T18:21:21Z</time>
      </trkpt>
      <trkpt lat="45.44628" lon="5.88024">
        <ele>831</ele>
        <time>2016-05-22T18:23:21Z</time>
      </trkpt>
      <trkpt lat="45.44672" lon="5.88018">
        <ele>829</ele>
        <time>2016-05-22T18:25:21Z</time>
      </trkpt>
      <trkpt lat="45.44682" lon="5.88018">
        <ele>829</ele>
        <time>2016-05-22T18:27:21Z</time>
      </trkpt>
      <trkpt lat="45.44694" lon="5.88019">
        <ele>830</ele>
        <time>2016-05-22T18:29:21Z</time>
      </trkpt>
      <trkpt lat="45.4471" lon="5.88023">
        <ele>830</ele>
        <time>2016-05-22T18:31:21Z</time>
      </trkpt>
      <trkpt lat="45.44718" lon="5.88024">
        <ele>830</ele>
        <time>2016-05-22T18:33:21Z</time>
      </trkpt>
      <trkpt lat="45.44726" lon="5.88028">
        <ele>831</ele>
        <time>2016-05-22T18:35:21Z</time>
      </trkpt>
      <trkpt lat="45.4474" lon="5.88037">
        <ele>831</ele>
        <time>2016-05-22T18:37:21Z</time>
      </trkpt>
      <trkpt lat="45.44775" lon="5.88064">
        <ele>832</ele>
        <time>2016-05-22T18:39:21Z</time>
      </trkpt>
      <trkpt lat="45.44808" lon="5.88098">
        <ele>836</ele>
        <time>2016-05-22T18:41:21Z</time>
      </trkpt>
      <trkpt lat="45.44829" lon="5.88119">
        <ele>838</ele>
        <time>2016-05-22T18:43:21Z</time>
      </trkpt>
      <trkpt lat="45.44854" lon="5.88141">
        <ele>838</ele>
        <time>2016-05-22T18:45:21Z</time>
      </trkpt>
      <trkpt lat="45.44869" lon="5.88156">
        <ele>838</ele>
        <time>2016-05-22T18:47:21Z</time>
      </trkpt>
      <trkpt lat="45.44876" lon="5.88164">
        <ele>838</ele>
        <time>2016-05-22T18:49:21Z</time>
      </trkpt>
      <trkpt lat="45.44905" lon="5.882">
        <ele>841</ele>
        <time>2016-05-22T18:51:21Z</time>
      </trkpt>
      <trkpt lat="45.44931" lon="5.88228">
        <ele>842</ele>
        <time>2016-05-22T18:53:21Z</time>
      </trkpt>
      <trkpt lat="45.44948" lon="5.88241">
        <ele>841</ele>
        <time>2016-05-22T18:55:21Z</time>
      </trkpt>
      <trkpt lat="45.44961" lon="5.88252">
        <ele>840</ele>
        <time>2016-05-22T18:57:21Z</time>
      </trkpt>
      <trkpt lat="45.44978" lon="5.88266">
        <ele>840</ele>
        <time>2016-05-22T18:59:21Z</time>
      </trkpt>
      <trkpt lat="45.44983" lon="5.88268">
        <ele>839</ele>
        <time>2016-05-22T19:01:21Z</time>
      </trkpt>
      <trkpt lat="45.44986" lon="5.88269">
        <ele>838</ele>
        <time>2016-05-22T19:03:21Z</time>
      </trkpt>
      <trkpt lat="45.44993" lon="5.88273">
        <ele>837</ele>
        <time>2016-05-22T19:05:21Z</time>
      </trkpt>
      <trkpt lat="45.45002" lon="5.88282">
        <ele>836</ele>
        <time>2016-05-22T19:07:21Z</time>
      </trkpt>
      <trkpt lat="45.45018" lon="5.88308">
        <ele>839</ele>
        <time>2016-05-22T19:09:21Z</time>
      </trkpt>
      <trkpt lat="45.45023" lon="5.88314">
        <ele>840</ele>
        <time>2016-05-22T19:11:21Z</time>
      </trkpt>
      <trkpt lat="45.45026" lon="5.88316">
        <ele>840</ele>
        <time>2016-05-22T19:13:21Z</time>
      </trkpt>
      <trkpt lat="45.45046" lon="5.88329">
        <ele>840</ele>
        <time>2016-05-22T19:15:21Z</time>
      </trkpt>
      <trkpt lat="45.45105" lon="5.88357">
        <ele>841</ele>
        <time>2016-05-22T19:17:21Z</time>
      </trkpt>
      <trkpt lat="45.45105" lon="5.88357">
        <ele>841</ele>
        <time>2016-05-22T19:19:21Z</time>
      </trkpt>
      <trkpt lat="45.45106" lon="5.88348">
        <ele>840</ele>
        <time>2016-05-22T19:21:21Z</time>
      </trkpt>
      <trkpt lat="45.45107" lon="5.88345">
        <ele>840</ele>
        <time>2016-05-22T19:23:21Z</time>
      </trkpt>
      <trkpt lat="45.45111" lon="5.88338">
        <ele>839</ele>
        <time>2016-05-22T19:25:21Z</time>
      </trkpt>
      <trkpt lat="45.45113" lon="5.88332">
        <ele>839</ele>
        <time>2016-05-22T19:27:21Z</time>
      </trkpt>
      <trkpt lat="45.45117" lon="5.88326">
        <ele>838</ele>
        <time>2016-05-22T19:29:21Z</time>
      </trkpt>
      <trkpt lat="45.45121" lon="5.88323">
        <ele>838</ele>
        <time>2016-05-22T19:31:21Z</time>
      </trkpt>
      <trkpt lat="45.45126" lon="5.88321">
        <ele>837</ele>
        <time>2016-05-22T19:33:21Z</time>
      </trkpt>
      <trkpt lat="45.45128" lon="5.88321">
        <ele>837</ele>
        <time>2016-05-22T19:35:21Z</time>
      </trkpt>
      <trkpt lat="45.45133" lon="5.88319">
        <ele>837</ele>
        <time>2016-05-22T19:37:21Z</time>
      </trkpt>
      <trkpt lat="45.45144" lon="5.88316">
        <ele>837</ele>
        <time>2016-05-22T19:39:21Z</time>
      </trkpt>
      <trkpt lat="45.45172" lon="5.88312">
        <ele>835</ele>
        <time>2016-05-22T19:41:21Z</time>
      </trkpt>
      <trkpt lat="45.45183" lon="5.88311">
        <ele>835</ele>
        <time>2016-05-22T19:43:21Z</time>
      </trkpt>
      <trkpt lat="45.45192" lon="5.88314">
        <ele>836</ele>
        <time>2016-05-22T19:45:21Z</time>
      </trkpt>
      <trkpt lat="45.45198" lon="5.88317">
        <ele>836</ele>
        <time>2016-05-22T19:47:21Z</time>
      </trkpt>
      <trkpt lat="45.45204" lon="5.88323">
        <ele>836</ele>
        <time>2016-05-22T19:49:21Z</time>
      </trkpt>
      <trkpt lat="45.45215" lon="5.88334">
        <ele>837</ele>
        <time>2016-05-22T19:51:21Z</time>
      </trkpt>
      <trkpt lat="45.45224" lon="5.88343">
        <ele>838</ele>
        <time>2016-05-22T19:53:21Z</time>
      </trkpt>
      <trkpt lat="45.45232" lon="5.88346">
        <ele>839</ele>
        <time>2016-05-22T19:55:21Z</time>
      </trkpt>
      <trkpt lat="45.45237" lon="5.88344">
        <ele>838</ele>
        <time>2016-05-22T19:57:21Z</time>
      </trkpt>
      <trkpt lat="45.45247" lon="5.88333">
        <ele>837</ele>
        <time>2016-05-22T19:59:21Z</time>
      </trkpt>
      <trkpt lat="45.45251" lon="5.88324">
        <ele>836</ele>
        <time>2016-05-22T20:01:21Z</time>
      </trkpt>
      <trkpt lat="45.45254" lon="5.88314">
        <ele>835</ele>
        <time>2016-05-22T20:03:21Z</time>
      </trkpt>
      <trkpt lat="45.45255" lon="5.88309">
        <ele>835</ele>
        <time>2016-05-22T20:05:21Z</time>
      </trkpt>
      <trkpt lat="45.45257" lon="5.88304">
        <ele>834</ele>
        <time>2016-05-22T20:07:21Z</time>
      </trkpt>
      <trkpt lat="45.45272" lon="5.88247">
        <ele>831</ele>
        <time>2016-05-22T20:09:21Z</time>
      </trkpt>
      <trkpt lat="45.45277" lon="5.88233">
        <ele>833</ele>
        <time>2016-05-22T20:11:21Z</time>
      </trkpt>
      <trkpt lat="45.4528" lon="5.88222">
        <ele>834</ele>
        <time>2016-05-22T20:13:21Z</time>
      </trkpt>
      <trkpt lat="45.45283" lon="5.88216">
        <ele>835</ele>
        <time>2016-05-22T20:15:21Z</time>
      </trkpt>
      <trkpt lat="45.45284" lon="5.88214">
        <ele>836</ele>
        <time>2016-05-22T20:17:21Z</time>
      </trkpt>
      <trkpt lat="45.45288" lon="5.8821">
        <ele>836</ele>
        <time>2016-05-22T20:19:21Z</time>
      </trkpt>
      <trkpt lat="45.45294" lon="5.88209">
        <ele>837</ele>
        <time>2016-05-22T20:21:21Z</time>
      </trkpt>
      <trkpt lat="45.45299" lon="5.88209">
        <ele>838</ele>
        <time>2016-05-22T20:23:21Z</time>
      </trkpt>
      <trkpt lat="45.45339" lon="5.88236">
        <ele>839</ele>
        <time>2016-05-22T20:25:21Z</time>
      </trkpt>
      <trkpt lat="45.4534" lon="5.88237">
        <ele>839</ele>
        <time>2016-05-22T20:27:21Z</time>
      </trkpt>
      <trkpt lat="45.45343" lon="5.88238">
        <ele>839</ele>
        <time>2016-05-22T20:29:21Z</time>
      </trkpt>
      <trkpt lat="45.45348" lon="5.88239">
        <ele>839</ele>
        <time>2016-05-22T20:31:21Z</time>
      </trkpt>
      <trkpt lat="45.45356" lon="5.88235">
        <ele>841</ele>
        <time>2016-05-22T20:33:21Z</time>
      </trkpt>
      <trkpt lat="45.45359" lon="5.88232">
        <ele>842</ele>
        <time>2016-05-22T20:35:21Z</time>
      </trkpt>
      <trkpt lat="45.45361" lon="5.88229">
        <ele>842</ele>
        <time>2016-05-22T20:37:21Z</time>
      </trkpt>
      <trkpt lat="45.45365" lon="5.88221">
        <ele>844</ele>
        <time>2016-05-22T20:39:21Z</time>
      </trkpt>
      <trkpt lat="45.45367" lon="5.88212">
        <ele>845</ele>
        <time>2016-05-22T20:41:21Z</time>
      </trkpt>
      <trkpt lat="45.45367" lon="5.88203">
        <ele>846</ele>
        <time>2016-05-22T20:43:21Z</time>
      </trkpt>
      <trkpt lat="45.45366" lon="5.88193">
        <ele>848</ele>
        <time>2016-05-22T20:45:21Z</time>
      </trkpt>
      <trkpt lat="45.45363" lon="5.88184">
        <ele>849</ele>
        <time>2016-05-22T20:47:21Z</time>
      </trkpt>
      <trkpt lat="45.45353" lon="5.88167">
        <ele>850</ele>
        <time>2016-05-22T20:49:21Z</time>
      </trkpt>
      <trkpt lat="45.45347" lon="5.8816">
        <ele>850</ele>
        <time>2016-05-22T20:51:21Z</time>
      </trkpt>
      <trkpt lat="45.45331" lon="5.88147">
        <ele>850</ele>
        <time>2016-05-22T20:53:21Z</time>
      </trkpt>
      <trkpt lat="45.45322" lon="5.88141">
        <ele>850</ele>
        <time>2016-05-22T20:55:21Z</time>
      </trkpt>
      <trkpt lat="45.453" lon="5.8813">
        <ele>849</ele>
        <time>2016-05-22T20:57:21Z</time>
      </trkpt>
      <trkpt lat="45.45288" lon="5.88125">
        <ele>849</ele>
        <time>2016-05-22T20:59:21Z</time>
      </trkpt>
      <trkpt lat="45.45279" lon="5.88115">
        <ele>849</ele>
        <time>2016-05-22T21:01:21Z</time>
      </trkpt>
      <trkpt lat="45.45274" lon="5.88108">
        <ele>850</ele>
        <time>2016-05-22T21:03:21Z</time>
      </trkpt>
      <trkpt lat="45.45269" lon="5.88096">
        <ele>851</ele>
        <time>2016-05-22T21:05:21Z</time>
      </trkpt>
      <trkpt lat="45.45266" lon="5.88074">
        <ele>854</ele>
        <time>2016-05-22T21:07:21Z</time>
      </trkpt>
      <trkpt lat="45.45264" lon="5.88053">
        <ele>857</ele>
        <time>2016-05-22T21:09:21Z</time>
      </trkpt>
      <trkpt lat="45.45263" lon="5.88043">
        <ele>859</ele>
        <time>2016-05-22T21:11:21Z</time>
      </trkpt>
      <trkpt lat="45.45263" lon="5.88031">
        <ele>860</ele>
        <time>2016-05-22T21:13:21Z</time>
      </trkpt>
      <trkpt lat="45.45266" lon="5.88011">
        <ele>863</ele>
        <time>2016-05-22T21:15:21Z</time>
      </trkpt>
      <trkpt lat="45.45268" lon="5.88003">
        <ele>865</ele>
        <time>2016-05-22T21:17:21Z</time>
      </trkpt>
      <trkpt lat="45.45272" lon="5.87988">
        <ele>866</ele>
        <time>2016-05-22T21:19:21Z</time>
      </trkpt>
      <trkpt lat="45.45277" lon="5.87957">
        <ele>867</ele>
        <time>2016-05-22T21:21:21Z</time>
      </trkpt>
      <trkpt lat="45.45277" lon="5.87935">
        <ele>868</ele>
        <time>2016-05-22T21:23:21Z</time>
      </trkpt>
      <trkpt lat="45.45275" lon="5.87924">
        <ele>868</ele>
        <time>2016-05-22T21:25:21Z</time>
      </trkpt>
      <trkpt lat="45.45273" lon="5.87914">
        <ele>868</ele>
        <time>2016-05-22T21:27:21Z</time>
      </trkpt>
      <trkpt lat="45.45266" lon="5.87894">
        <ele>869</ele>
        <time>2016-05-22T21:29:21Z</time>
      </trkpt>
      <trkpt lat="45.45247" lon="5.87859">
        <ele>871</ele>
        <time>2016-05-22T21:31:21Z</time>
      </trkpt>
      <trkpt lat="45.45227" lon="5.87827">
        <ele>871</ele>
        <time>2016-05-22T21:33:21Z</time>
      </trkpt>
      <trkpt lat="45.45208" lon="5.8779">
        <ele>872</ele>
        <time>2016-05-22T21:35:21Z</time>
      </trkpt>
      <trkpt lat="45.45203" lon="5.87782">
        <ele>872</ele>
        <time>2016-05-22T21:37:21Z</time>
      </trkpt>
      <trkpt lat="45.45199" lon="5.87776">
        <ele>872</ele>
        <time>2016-05-22T21:39:21Z</time>
      </trkpt>
      <trkpt lat="45.45194" lon="5.87772">
        <ele>872</ele>
        <time>2016-05-22T21:41:21Z</time>
      </trkpt>
      <trkpt lat="45.45191" lon="5.87771">
        <ele>872</ele>
        <time>2016-05-22T21:43:21Z</time>
      </trkpt>
      <trkpt lat="45.45189" lon="5.8777">
        <ele>872</ele>
        <time>2016-05-22T21:45:21Z</time>
      </trkpt>
      <trkpt lat="45.45187" lon="5.87771">
        <ele>872</ele>
        <time>2016-05-22T21:47:21Z</time>
      </trkpt>
      <trkpt lat="45.45185" lon="5.87772">
        <ele>872</ele>
        <time>2016-05-22T21:49:21Z</time>
      </trkpt>
      <trkpt lat="45.45182" lon="5.87774">
        <ele>872</ele>
        <time>2016-05-22T21:51:21Z</time>
      </trkpt>
      <trkpt lat="45.45176" lon="5.87779">
        <ele>871</ele>
        <time>2016-05-22T21:53:21Z</time>
      </trkpt>
      <trkpt lat="45.45169" lon="5.87783">
        <ele>871</ele>
        <time>2016-05-22T21:55:21Z</time>
      </trkpt>
      <trkpt lat="45.45162" lon="5.87784">
        <ele>871</ele>
        <time>2016-05-22T21:57:21Z</time>
      </trkpt>
      <trkpt lat="45.4516" lon="5.87784">
        <ele>871</ele>
        <time>2016-05-22T21:59:21Z</time>
      </trkpt>
      <trkpt lat="45.45156" lon="5.87783">
        <ele>872</ele>
        <time>2016-05-22T22:01:21Z</time>
      </trkpt>
      <trkpt lat="45.45151" lon="5.8778">
        <ele>872</ele>
        <time>2016-05-22T22:03:21Z</time>
      </trkpt>
      <trkpt lat="45.45139" lon="5.87768">
        <ele>874</ele>
        <time>2016-05-22T22:05:21Z</time>
      </trkpt>
      <trkpt lat="45.45133" lon="5.87761">
        <ele>875</ele>
        <time>2016-05-22T22:07:21Z</time>
      </trkpt>
      <trkpt lat="45.45121" lon="5.87745">
        <ele>877</ele>
        <time>2016-05-22T22:09:21Z</time>
      </trkpt>
      <trkpt lat="45.45112" lon="5.87732">
        <ele>878</ele>
        <time>2016-05-22T22:11:21Z</time>
      </trkpt>
      <trkpt lat="45.45105" lon="5.87727">
        <ele>879</ele>
        <time>2016-05-22T22:13:21Z</time>
      </trkpt>
      <trkpt lat="45.451" lon="5.87725">
        <ele>880</ele>
        <time>2016-05-22T22:15:21Z</time>
      </trkpt>
      <trkpt lat="45.45095" lon="5.87725">
        <ele>880</ele>
        <time>2016-05-22T22:17:21Z</time>
      </trkpt>
      <trkpt lat="45.4509" lon="5.87726">
        <ele>881</ele>
        <time>2016-05-22T22:19:21Z</time>
      </trkpt>
      <trkpt lat="45.45086" lon="5.87728">
        <ele>881</ele>
        <time>2016-05-22T22:21:21Z</time>
      </trkpt>
      <trkpt lat="45.45081" lon="5.87733">
        <ele>882</ele>
        <time>2016-05-22T22:23:21Z</time>
      </trkpt>
      <trkpt lat="45.45077" lon="5.8774">
        <ele>882</ele>
        <time>2016-05-22T22:25:21Z</time>
      </trkpt>
      <trkpt lat="45.45072" lon="5.87747">
        <ele>883</ele>
        <time>2016-05-22T22:27:21Z</time>
      </trkpt>
      <trkpt lat="45.45064" lon="5.87762">
        <ele>884</ele>
        <time>2016-05-22T22:29:21Z</time>
      </trkpt>
      <trkpt lat="45.45058" lon="5.87772">
        <ele>885</ele>
        <time>2016-05-22T22:31:21Z</time>
      </trkpt>
      <trkpt lat="45.45045" lon="5.87788">
        <ele>886</ele>
        <time>2016-05-22T22:33:21Z</time>
      </trkpt>
      <trkpt lat="45.45042" lon="5.87792">
        <ele>886</ele>
        <time>2016-05-22T22:35:21Z</time>
      </trkpt>
      <trkpt lat="45.45038" lon="5.87794">
        <ele>887</ele>
        <time>2016-05-22T22:37:21Z</time>
      </trkpt>
      <trkpt lat="45.45011" lon="5.8781">
        <ele>889</ele>
        <time>2016-05-22T22:39:21Z</time>
      </trkpt>
      <trkpt lat="45.44997" lon="5.87817">
        <ele>889</ele>
        <time>2016-05-22T22:41:21Z</time>
      </trkpt>
      <trkpt lat="45.44989" lon="5.8782">
        <ele>888</ele>
        <time>2016-05-22T22:43:21Z</time>
      </trkpt>
      <trkpt lat="45.44983" lon="5.87822">
        <ele>887</ele>
        <time>2016-05-22T22:45:21Z</time>
      </trkpt>
      <trkpt lat="45.44977" lon="5.87824">
        <ele>886</ele>
        <time>2016-05-22T22:47:21Z</time>
      </trkpt>
      <trkpt lat="45.44971" lon="5.87823">
        <ele>885</ele>
        <time>2016-05-22T22:49:21Z</time>
      </trkpt>
      <trkpt lat="45.44964" lon="5.87821">
        <ele>885</ele>
        <time>2016-05-22T22:51:21Z</time>
      </trkpt>
      <trkpt lat="45.44952" lon="5.87814">
        <ele>885</ele>
        <time>2016-05-22T22:53:21Z</time>
      </trkpt>
      <trkpt lat="45.44945" lon="5.87806">
        <ele>885</ele>
        <time>2016-05-22T22:55:21Z</time>
      </trkpt>
      <trkpt lat="45.44933" lon="5.87792">
        <ele>887</ele>
        <time>2016-05-22T22:57:21Z</time>
      </trkpt>
      <trkpt lat="45.44925" lon="5.87779">
        <ele>888</ele>
        <time>2016-05-22T22:59:21Z</time>
      </trkpt>
      <trkpt lat="45.4491" lon="5.87749">
        <ele>890</ele>
        <time>2016-05-22T23:01:21Z</time>
      </trkpt>
      <trkpt lat="45.44907" lon="5.87738">
        <ele>892</ele>
        <time>2016-05-22T23:03:21Z</time>
      </trkpt>
      <trkpt lat="45.44902" lon="5.87724">
        <ele>892</ele>
        <time>2016-05-22T23:05:21Z</time>
      </trkpt>
      <trkpt lat="45.44891" lon="5.87682">
        <ele>897</ele>
        <time>2016-05-22T23:07:21Z</time>
      </trkpt>
      <trkpt lat="45.44888" lon="5.87667">
        <ele>899</ele>
        <time>2016-05-22T23:09:21Z</time>
      </trkpt>
      <trkpt lat="45.44885" lon="5.87648">
        <ele>899</ele>
        <time>2016-05-22T23:11:21Z</time>
      </trkpt>
      <trkpt lat="45.44884" lon="5.87637">
        <ele>899</ele>
        <time>2016-05-22T23:13:21Z</time>
      </trkpt>
      <trkpt lat="45.44884" lon="5.87629">
        <ele>900</ele>
        <time>2016-05-22T23:15:21Z</time>
      </trkpt>
      <trkpt lat="45.44885" lon="5.87612">
        <ele>902</ele>
        <time>2016-05-22T23:17:21Z</time>
      </trkpt>
      <trkpt lat="45.44887" lon="5.87604">
        <ele>903</ele>
        <time>2016-05-22T23:19:21Z</time>
      </trkpt>
      <trkpt lat="45.44888" lon="5.87601">
        <ele>903</ele>
        <time>2016-05-22T23:21:21Z</time>
      </trkpt>
      <trkpt lat="45.44892" lon="5.8759">
        <ele>905</ele>
        <time>2016-05-22T23:23:21Z</time>
      </trkpt>
      <trkpt lat="45.44896" lon="5.87577">
        <ele>906</ele>
        <time>2016-05-22T23:25:21Z</time>
      </trkpt>
      <trkpt lat="45.44897" lon="5.87566">
        <ele>908</ele>
        <time>2016-05-22T23:27:21Z</time>
      </trkpt>
      <trkpt lat="45.44896" lon="5.87558">
        <ele>908</ele>
        <time>2016-05-22T23:29:21Z</time>
      </trkpt>
      <trkpt lat="45.44894" lon="5.87548">
        <ele>909</ele>
        <time>2016-05-22T23:31:21Z</time>
      </trkpt>
      <trkpt lat="45.44889" lon="5.87538">
        <ele>909</ele>
        <time>2016-05-22T23:33:21Z</time>
      </trkpt>
      <trkpt lat="45.44883" lon="5.87527">
        <ele>909</ele>
        <time>2016-05-22T23:35:21Z</time>
      </trkpt>
      <trkpt lat="45.44874" lon="5.87512">
        <ele>910</ele>
        <time>2016-05-22T23:37:21Z</time>
      </trkpt>
      <trkpt lat="45.44864" lon="5.87497">
        <ele>910</ele>
        <time>2016-05-22T23:39:21Z</time>
      </trkpt>
      <trkpt lat="45.44851" lon="5.87474">
        <ele>911</ele>
        <time>2016-05-22T23:41:21Z</time>
      </trkpt>
      <trkpt lat="45.44847" lon="5.87465">
        <ele>912</ele>
        <time>2016-05-22T23:43:21Z</time>
      </trkpt>
      <trkpt lat="45.44845" lon="5.87458">
        <ele>913</ele>
        <time>2016-05-22T23:45:21Z</time>
      </trkpt>
      <trkpt lat="45.44841" lon="5.87433">
        <ele>916</ele>
        <time>2016-05-22T23:47:21Z</time>
      </trkpt>
      <trkpt lat="45.44839" lon="5.87427">
        <ele>917</ele>
        <time>2016-05-22T23:49:21Z</time>
      </trkpt>
      <trkpt lat="45.44836" lon="5.87422">
        <ele>918</ele>
        <time>2016-05-22T23:51:21Z</time>
      </trkpt>
      <trkpt lat="45.44831" lon="5.87417">
        <ele>919</ele>
        <time>2016-05-22T23:53:21Z</time>
      </trkpt>
      <trkpt lat="45.44816" lon="5.87408">
        <ele>920</ele>
        <time>2016-05-22T23:55:21Z</time>
      </trkpt>
      <trkpt lat="45.44785" lon="5.87394">
        <ele>921</ele>
        <time>2016-05-22T23:57:21Z</time>
      </trkpt>
      <trkpt lat="45.44765" lon="5.87389">
        <ele>923</ele>
        <time>2016-05-22T23:59:21Z</time>
      </trkpt>
      <trkpt lat="45.44756" lon="5.87387">
        <ele>923</ele>
        <time>2016-05-23T00:01:21Z</time>
      </trkpt>
      <trkpt lat="45.44724" lon="5.87378">
        <ele>927</ele>
        <time>2016-05-23T00:03:21Z</time>
      </trkpt>
      <trkpt lat="45.44718" lon="5.87375">
        <ele>927</ele>
        <time>2016-05-23T00:05:21Z</time>
      </trkpt>
      <trkpt lat="45.44697" lon="5.87361">
        <ele>931</ele>
        <time>2016-05-23T00:07:21Z</time>
      </trkpt>
      <trkpt lat="45.44679" lon="5.87343">
        <ele>936</ele>
        <time>2016-05-23T00:09:21Z</time>
      </trkpt>
      <trkpt lat="45.44673" lon="5.87337">
        <ele>937</ele>
        <time>2016-05-23T00:11:21Z</time>
      </trkpt>
      <trkpt lat="45.44667" lon="5.87327">
        <ele>939</ele>
        <time>2016-05-23T00:13:21Z</time>
      </trkpt>
      <trkpt lat="45.4466" lon="5.8731">
        <ele>940</ele>
        <time>2016-05-23T00:15:21Z</time>
      </trkpt>
      <trkpt lat="45.44653" lon="5.87291">
        <ele>942</ele>
        <time>2016-05-23T00:17:21Z</time>
      </trkpt>
      <trkpt lat="45.44643" lon="5.87268">
        <ele>944</ele>
        <time>2016-05-23T00:19:21Z</time>
      </trkpt>
      <trkpt lat="45.44641" lon="5.87255">
        <ele>945</ele>
        <time>2016-05-23T00:21:21Z</time>
      </trkpt>
      <trkpt lat="45.44641" lon="5.87245">
        <ele>946</ele>
        <time>2016-05-23T00:23:21Z</time>
      </trkpt>
      <trkpt lat="45.44641" lon="5.87237">
        <ele>946</ele>
        <time>2016-05-23T00:25:21Z</time>
      </trkpt>
      <trkpt lat="45.44643" lon="5.87223">
        <ele>946</ele>
        <time>2016-05-23T00:27:21Z</time>
      </trkpt>
      <trkpt lat="45.44648" lon="5.87208">
        <ele>946</ele>
        <time>2016-05-23T00:29:21Z</time>
      </trkpt>
      <trkpt lat="45.44652" lon="5.87195">
        <ele>946</ele>
        <time>2016-05-23T00:31:21Z</time>
      </trkpt>
      <trkpt lat="45.44653" lon="5.87186">
        <ele>946</ele>
        <time>2016-05-23T00:33:21Z</time>
      </trkpt>
      <trkpt lat="45.44653" lon="5.87176">
        <ele>946</ele>
        <time>2016-05-23T00:35:21Z</time>
      </trkpt>
      <trkpt lat="45.44649" lon="5.8714">
        <ele>948</ele>
        <time>2016-05-23T00:37:21Z</time>
      </trkpt>
      <trkpt lat="45.44649" lon="5.87131">
        <ele>948</ele>
        <time>2016-05-23T00:39:21Z</time>
      </trkpt>
      <trkpt lat="45.4465" lon="5.87119">
        <ele>948</ele>
        <time>2016-05-23T00:41:21Z</time>
      </trkpt>
      <trkpt lat="45.4465" lon="5.87106">
        <ele>949</ele>
        <time>2016-05-23T00:43:21Z</time>
      </trkpt>
      <trkpt lat="45.44648" lon="5.87095">
        <ele>950</ele>
        <time>2016-05-23T00:45:21Z</time>
      </trkpt>
      <trkpt lat="45.44645" lon="5.87082">
        <ele>951</ele>
        <time>2016-05-23T00:47:21Z</time>
      </trkpt>
      <trkpt lat="45.44642" lon="5.87074">
        <ele>952</ele>
        <time>2016-05-23T00:49:21Z</time>
      </trkpt>
      <trkpt lat="45.44633" lon="5.87057">
        <ele>956</ele>
        <time>2016-05-23T00:51:21Z</time>
      </trkpt>
      <trkpt lat="45.44629" lon="5.87045">
        <ele>958</ele>
        <time>2016-05-23T00:53:21Z</time>
      </trkpt>
      <trkpt lat="45.44627" lon="5.8704">
        <ele>959</ele>
        <time>2016-05-23T00:55:21Z</time>
      </trkpt>
      <trkpt lat="45.44625" lon="5.87029">
        <ele>960</ele>
        <time>2016-05-23T00:57:21Z</time>
      </trkpt>
      <trkpt lat="45.44623" lon="5.8702">
        <ele>962</ele>
        <time>2016-05-23T00:59:21Z</time>
      </trkpt>
      <trkpt lat="45.44623" lon="5.87016">
        <ele>962</ele>
        <time>2016-05-23T01:01:21Z</time>
      </trkpt>
      <trkpt lat="45.44624" lon="5.87012">
        <ele>963</ele>
        <time>2016-05-23T01:03:21Z</time>
      </trkpt>
      <trkpt lat="45.44624" lon="5.87009">
        <ele>963</ele>
        <time>2016-05-23T01:05:21Z</time>
      </trkpt>
      <trkpt lat="45.44625" lon="5.87005">
        <ele>963</ele>
        <time>2016-05-23T01:07:21Z</time>
      </trkpt>
      <trkpt lat="45.44629" lon="5.86999">
        <ele>964</ele>
        <time>2016-05-23T01:09:21Z</time>
      </trkpt>
      <trkpt lat="45.44633" lon="5.86991">
        <ele>966</ele>
        <time>2016-05-23T01:11:21Z</time>
      </trkpt>
      <trkpt lat="45.44639" lon="5.86981">
        <ele>969</ele>
        <time>2016-05-23T01:13:21Z</time>
      </trkpt>
      <trkpt lat="45.44646" lon="5.86971">
        <ele>972</ele>
        <time>2016-05-23T01:15:21Z</time>
      </trkpt>
      <trkpt lat="45.44653" lon="5.8696">
        <ele>975</ele>
        <time>2016-05-23T01:17:21Z</time>
      </trkpt>
      <trkpt lat="45.44662" lon="5.86945">
        <ele>979</ele>
        <time>2016-05-23T01:19:21Z</time>
      </trkpt>
      <trkpt lat="45.44668" lon="5.86942">
        <ele>980</ele>
        <time>2016-05-23T01:21:21Z</time>
      </trkpt>
      <trkpt lat="45.44674" lon="5.8694">
        <ele>982</ele>
        <time>2016-05-23T01:23:21Z</time>
      </trkpt>
      <trkpt lat="45.44678" lon="5.8694">
        <ele>982</ele>
        <time>2016-05-23T01:25:21Z</time>
      </trkpt>
      <trkpt lat="45.44684" lon="5.86944">
        <ele>982</ele>
        <time>2016-05-23T01:27:21Z</time>
      </trkpt>
      <trkpt lat="45.44696" lon="5.86955">
        <ele>979</ele>
        <time>2016-05-23T01:29:21Z</time>
      </trkpt>
      <trkpt lat="45.44717" lon="5.8697">
        <ele>974</ele>
        <time>2016-05-23T01:31:21Z</time>
      </trkpt>
      <trkpt lat="45.44736" lon="5.86979">
        <ele>971</ele>
        <time>2016-05-23T01:33:21Z</time>
      </trkpt>
      <trkpt lat="45.44752" lon="5.86981">
        <ele>971</ele>
        <time>2016-05-23T01:35:21Z</time>
      </trkpt>
      <trkpt lat="45.44775" lon="5.86977">
        <ele>978</ele>
        <time>2016-05-23T01:37:21Z</time>
      </trkpt>
      <trkpt lat="45.44801" lon="5.86969">
        <ele>987</ele>
        <time>2016-05-23T01:39:21Z</time>
      </trkpt>
      <trkpt lat="45.44817" lon="5.86963">
        <ele>993</ele>
        <time>2016-05-23T01:41:21Z</time>
      </trkpt>
      <trkpt lat="45.44825" lon="5.8696">
        <ele>996</ele>
        <time>2016-05-23T01:43:21Z</time>
      </trkpt>
      <trkpt lat="45.44833" lon="5.8696">
        <ele>998</ele>
        <time>2016-05-23T01:45:21Z</time>
      </trkpt>
      <trkpt lat="45.44843" lon="5.86961">
        <ele>1000</ele>
        <time>2016-05-23T01:47:21Z</time>
      </trkpt>
      <trkpt lat="45.4486" lon="5.86969">
        <ele>1000</ele>
        <time>2016-05-23T01:49:21Z</time>
      </trkpt>
      <trkpt lat="45.44873" lon="5.86983">
        <ele>996</ele>
        <time>2016-05-23T01:51:21Z</time>
      </trkpt>
      <trkpt lat="45.44887" lon="5.87002">
        <ele>991</ele>
        <time>2016-05-23T01:53:21Z</time>
      </trkpt>
      <trkpt lat="45.44897" lon="5.87018">
        <ele>987</ele>
        <time>2016-05-23T01:55:21Z</time>
      </trkpt>
      <trkpt lat="45.44906" lon="5.87025">
        <ele>986</ele>
        <time>2016-05-23T01:57:21Z</time>
      </trkpt>
      <trkpt lat="45.44919" lon="5.87032">
        <ele>986</ele>
        <time>2016-05-23T01:59:21Z</time>
      </trkpt>
      <trkpt lat="45.44944" lon="5.87036">
        <ele>987</ele>
        <time>2016-05-23T02:01:21Z</time>
      </trkpt>
      <trkpt lat="45.44988" lon="5.87038">
        <ele>991</ele>
        <time>2016-05-23T02:03:21Z</time>
      </trkpt>
      <trkpt lat="45.44996" lon="5.87037">
        <ele>992</ele>
        <time>2016-05-23T02:05:21Z</time>
      </trkpt>
      <trkpt lat="45.45015" lon="5.87035">
        <ele>995</ele>
        <time>2016-05-23T02:07:21Z</time>
      </trkpt>
      <trkpt lat="45.45018" lon="5.87034">
        <ele>995</ele>
        <time>2016-05-23T02:09:21Z</time>
      </trkpt>
      <trkpt lat="45.45025" lon="5.87032">
        <ele>997</ele>
        <time>2016-05-23T02:11:21Z</time>
      </trkpt>
      <trkpt lat="45.45033" lon="5.8703">
        <ele>999</ele>
        <time>2016-05-23T02:13:21Z</time>
      </trkpt>
      <trkpt lat="45.45053" lon="5.87027">
        <ele>1002</ele>
        <time>2016-05-23T02:15:21Z</time>
      </trkpt>
      <trkpt lat="45.45082" lon="5.87024">
        <ele>1006</ele>
        <time>2016-05-23T02:17:21Z</time>
      </trkpt>
      <trkpt lat="45.45093" lon="5.87021">
        <ele>1008</ele>
        <time>2016-05-23T02:19:21Z</time>
      </trkpt>
      <trkpt lat="45.45117" lon="5.87021">
        <ele>1011</ele>
        <time>2016-05-23T02:21:21Z</time>
      </trkpt>
      <trkpt lat="45.45139" lon="5.87024">
        <ele>1012</ele>
        <time>2016-05-23T02:23:21Z</time>
      </trkpt>
      <trkpt lat="45.45169" lon="5.87031">
        <ele>1011</ele>
        <time>2016-05-23T02:25:21Z</time>
      </trkpt>
      <trkpt lat="45.45179" lon="5.87031">
        <ele>1011</ele>
        <time>2016-05-23T02:27:21Z</time>
      </trkpt>
      <trkpt lat="45.45187" lon="5.8703">
        <ele>1011</ele>
        <time>2016-05-23T02:29:21Z</time>
      </trkpt>
      <trkpt lat="45.45198" lon="5.87023">
        <ele>1014</ele>
        <time>2016-05-23T02:31:21Z</time>
      </trkpt>
      <trkpt lat="45.45212" lon="5.87016">
        <ele>1018</ele>
        <time>2016-05-23T02:33:21Z</time>
      </trkpt>
      <trkpt lat="45.45224" lon="5.87013">
        <ele>1019</ele>
        <time>2016-05-23T02:35:21Z</time>
      </trkpt>
      <trkpt lat="45.45243" lon="5.87011">
        <ele>1020</ele>
        <time>2016-05-23T02:37:21Z</time>
      </trkpt>
      <trkpt lat="45.4525" lon="5.87006">
        <ele>1022</ele>
        <time>2016-05-23T02:39:21Z</time>
      </trkpt>
      <trkpt lat="45.4526" lon="5.86998">
        <ele>1024</ele>
        <time>2016-05-23T02:41:21Z</time>
      </trkpt>
      <trkpt lat="45.45274" lon="5.86985">
        <ele>1026</ele>
        <time>2016-05-23T02:43:21Z</time>
      </trkpt>
      <trkpt lat="45.4529" lon="5.8697">
        <ele>1029</ele>
        <time>2016-05-23T02:45:21Z</time>
      </trkpt>
      <trkpt lat="45.45293" lon="5.86967">
        <ele>1029</ele>
        <time>2016-05-23T02:47:21Z</time>
      </trkpt>
      <trkpt lat="45.45297" lon="5.86965">
        <ele>1030</ele>
        <time>2016-05-23T02:49:21Z</time>
      </trkpt>
      <trkpt lat="45.45301" lon="5.86964">
        <ele>1029</ele>
        <time>2016-05-23T02:51:21Z</time>
      </trkpt>
      <trkpt lat="45.45306" lon="5.86964">
        <ele>1029</ele>
        <time>2016-05-23T02:53:21Z</time>
      </trkpt>
      <trkpt lat="45.4531" lon="5.86964">
        <ele>1028</ele>
        <time>2016-05-23T02:55:21Z</time>
      </trkpt>
      <trkpt lat="45.45315" lon="5.86965">
        <ele>1027</ele>
        <time>2016-05-23T02:57:21Z</time>
      </trkpt>
      <trkpt lat="45.45319" lon="5.86965">
        <ele>1026</ele>
        <time>2016-05-23T02:59:21Z</time>
      </trkpt>
      <trkpt lat="45.45322" lon="5.86966">
        <ele>1026</ele>
        <time>2016-05-23T03:01:21Z</time>
      </trkpt>
      <trkpt lat="45.45324" lon="5.86965">
        <ele>1026</ele>
        <time>2016-05-23T03:03:21Z</time>
      </trkpt>
      <trkpt lat="45.45328" lon="5.86964">
        <ele>1025</ele>
        <time>2016-05-23T03:05:21Z</time>
      </trkpt>
      <trkpt lat="45.45331" lon="5.86962">
        <ele>1026</ele>
        <time>2016-05-23T03:07:21Z</time>
      </trkpt>
      <trkpt lat="45.45334" lon="5.86961">
        <ele>1026</ele>
        <time>2016-05-23T03:09:21Z</time>
      </trkpt>
      <trkpt lat="45.45338" lon="5.86958">
        <ele>1026</ele>
        <time>2016-05-23T03:11:21Z</time>
      </trkpt>
      <trkpt lat="45.45344" lon="5.86954">
        <ele>1027</ele>
        <time>2016-05-23T03:13:21Z</time>
      </trkpt>
      <trkpt lat="45.45349" lon="5.8695">
        <ele>1028</ele>
        <time>2016-05-23T03:15:21Z</time>
      </trkpt>
      <trkpt lat="45.45355" lon="5.86944">
        <ele>1029</ele>
        <time>2016-05-23T03:17:21Z</time>
      </trkpt>
      <trkpt lat="45.45358" lon="5.8694">
        <ele>1030</ele>
        <time>2016-05-23T03:19:21Z</time>
      </trkpt>
      <trkpt lat="45.45361" lon="5.86935">
        <ele>1032</ele>
        <time>2016-05-23T03:21:21Z</time>
      </trkpt>
      <trkpt lat="45.45371" lon="5.8692">
        <ele>1036</ele>
        <time>2016-05-23T03:23:21Z</time>
      </trkpt>
      <trkpt lat="45.45381" lon="5.86904">
        <ele>1039</ele>
        <time>2016-05-23T03:25:21Z</time>
      </trkpt>
      <trkpt lat="45.45389" lon="5.86891">
        <ele>1041</ele>
        <time>2016-05-23T03:27:21Z</time>
      </trkpt>
      <trkpt lat="45.45393" lon="5.86886">
        <ele>1042</ele>
        <time>2016-05-23T03:29:21Z</time>
      </trkpt>
      <trkpt lat="45.45412" lon="5.86866">
        <ele>1044</ele>
        <time>2016-05-23T03:31:21Z</time>
      </trkpt>
      <trkpt lat="45.4542" lon="5.8686">
        <ele>1044</ele>
        <time>2016-05-23T03:33:21Z</time>
      </trkpt>
      <trkpt lat="45.45434" lon="5.8685">
        <ele>1045</ele>
        <time>2016-05-23T03:35:21Z</time>
      </trkpt>
      <trkpt lat="45.45442" lon="5.86845">
        <ele>1045</ele>
        <time>2016-05-23T03:37:21Z</time>
      </trkpt>
      <trkpt lat="45.45448" lon="5.86841">
        <ele>1045</ele>
        <time>2016-05-23T03:39:21Z</time>
      </trkpt>
      <trkpt lat="45.4545" lon="5.8684">
        <ele>1044</ele>
        <time>2016-05-23T03:41:21Z</time>
      </trkpt>
      <trkpt lat="45.45456" lon="5.86836">
        <ele>1044</ele>
        <time>2016-05-23T03:43:21Z</time>
      </trkpt>
      <trkpt lat="45.45464" lon="5.86831">
        <ele>1044</ele>
        <time>2016-05-23T03:45:21Z</time>
      </trkpt>
      <trkpt lat="45.45472" lon="5.86826">
        <ele>1045</ele>
        <time>2016-05-23T03:47:21Z</time>
      </trkpt>
      <trkpt lat="45.45492" lon="5.86814">
        <ele>1045</ele>
        <time>2016-05-23T03:49:21Z</time>
      </trkpt>
      <trkpt lat="45.45503" lon="5.86805">
        <ele>1046</ele>
        <time>2016-05-23T03:51:21Z</time>
      </trkpt>
      <trkpt lat="45.45508" lon="5.868">
        <ele>1047</ele>
        <time>2016-05-23T03:53:21Z</time>
      </trkpt>
      <trkpt lat="45.45513" lon="5.86792">
        <ele>1048</ele>
        <time>2016-05-23T03:55:21Z</time>
      </trkpt>
      <trkpt lat="45.45518" lon="5.86784">
        <ele>1050</ele>
        <time>2016-05-23T03:57:21Z</time>
      </trkpt>
      <trkpt lat="45.45528" lon="5.86763">
        <ele>1053</ele>
        <time>2016-05-23T03:59:21Z</time>
      </trkpt>
      <trkpt lat="45.45535" lon="5.86751">
        <ele>1054</ele>
        <time>2016-05-23T04:01:21Z</time>
      </trkpt>
      <trkpt lat="45.45556" lon="5.86726">
        <ele>1054</ele>
        <time>2016-05-23T04:03:21Z</time>
      </trkpt>
      <trkpt lat="45.45561" lon="5.86719">
        <ele>1054</ele>
        <time>2016-05-23T04:05:21Z</time>
      </trkpt>
      <trkpt lat="45.45577" lon="5.86697">
        <ele>1054</ele>
        <time>2016-05-23T04:07:21Z</time>
      </trkpt>
      <trkpt lat="45.45585" lon="5.86682">
        <ele>1055</ele>
        <time>2016-05-23T04:09:21Z</time>
      </trkpt>
      <trkpt lat="45.45589" lon="5.86675">
        <ele>1057</ele>
        <time>2016-05-23T04:11:21Z</time>
      </trkpt>
      <trkpt lat="45.45595" lon="5.86666">
        <ele>1059</ele>
        <time>2016-05-23T04:13:21Z</time>
      </trkpt>
      <trkpt lat="45.45606" lon="5.86651">
        <ele>1064</ele>
        <time>2016-05-23T04:15:21Z</time>
      </trkpt>
      <trkpt lat="45.45621" lon="5.86634">
        <ele>1068</ele>
        <time>2016-05-23T04:17:21Z</time>
      </trkpt>
      <trkpt lat="45.45626" lon="5.86629">
        <ele>1069</ele>
        <time>2016-05-23T04:19:21Z</time>
      </trkpt>
      <trkpt lat="45.45632" lon="5.86624">
        <ele>1070</ele>
        <time>2016-05-23T04:21:21Z</time>
      </trkpt>
      <trkpt lat="45.45639" lon="5.86619">
        <ele>1071</ele>
        <time>2016-05-23T04:23:21Z</time>
      </trkpt>
      <trkpt lat="45.45664" lon="5.86614">
        <ele>1067</ele>
        <time>2016-05-23T04:25:21Z</time>
      </trkpt>
      <trkpt lat="45.45678" lon="5.8661">
        <ele>1067</ele>
        <time>2016-05-23T04:27:21Z</time>
      </trkpt>
      <trkpt lat="45.45688" lon="5.86607">
        <ele>1067</ele>
        <time>2016-05-23T04:29:21Z</time>
      </trkpt>
      <trkpt lat="45.457" lon="5.86603">
        <ele>1068</ele>
        <time>2016-05-23T04:31:21Z</time>
      </trkpt>
      <trkpt lat="45.45707" lon="5.86601">
        <ele>1067</ele>
        <time>2016-05-23T04:33:21Z</time>
      </trkpt>
      <trkpt lat="45.45713" lon="5.86598">
        <ele>1068</ele>
        <time>2016-05-23T04:35:21Z</time>
      </trkpt>
      <trkpt lat="45.45719" lon="5.86593">
        <ele>1068</ele>
        <time>2016-05-23T04:37:21Z</time>
      </trkpt>
      <trkpt lat="45.45722" lon="5.86589">
        <ele>1068</ele>
        <time>2016-05-23T04:39:21Z</time>
      </trkpt>
      <trkpt lat="45.45724" lon="5.86585">
        <ele>1069</ele>
        <time>2016-05-23T04:41:21Z</time>
      </trkpt>
      <trkpt lat="45.45728" lon="5.8658">
        <ele>1070</ele>
        <time>2016-05-23T04:43:21Z</time>
      </trkpt>
      <trkpt lat="45.45731" lon="5.86574">
        <ele>1072</ele>
        <time>2016-05-23T04:45:21Z</time>
      </trkpt>
      <trkpt lat="45.45735" lon="5.86568">
        <ele>1073</ele>
        <time>2016-05-23T04:47:21Z</time>
      </trkpt>
      <trkpt lat="45.45741" lon="5.86559">
        <ele>1076</ele>
        <time>2016-05-23T04:49:21Z</time>
      </trkpt>
      <trkpt lat="45.4575" lon="5.86548">
        <ele>1079</ele>
        <time>2016-05-23T04:51:21Z</time>
      </trkpt>
      <trkpt lat="45.45757" lon="5.86538">
        <ele>1082</ele>
        <time>2016-05-23T04:53:21Z</time>
      </trkpt>
      <trkpt lat="45.45763" lon="5.8653">
        <ele>1085</ele>
        <time>2016-05-23T04:55:21Z</time>
      </trkpt>
      <trkpt lat="45.45779" lon="5.86506">
        <ele>1090</ele>
        <time>2016-05-23T04:57:21Z</time>
      </trkpt>
      <trkpt lat="45.45785" lon="5.86499">
        <ele>1090</ele>
        <time>2016-05-23T04:59:21Z</time>
      </trkpt>
      <trkpt lat="45.45789" lon="5.86494">
        <ele>1091</ele>
        <time>2016-05-23T05:01:21Z</time>
      </trkpt>
      <trkpt lat="45.45797" lon="5.86491">
        <ele>1090</ele>
        <time>2016-05-23T05:03:21Z</time>
      </trkpt>
      <trkpt lat="45.45802" lon="5.8649">
        <ele>1090</ele>
        <time>2016-05-23T05:05:21Z</time>
      </trkpt>
      <trkpt lat="45.45808" lon="5.8649">
        <ele>1089</ele>
        <time>2016-05-23T05:07:21Z</time>
      </trkpt>
      <trkpt lat="45.45848" lon="5.86497">
        <ele>1084</ele>
        <time>2016-05-23T05:09:21Z</time>
      </trkpt>
      <trkpt lat="45.4587" lon="5.86503">
        <ele>1086</ele>
        <time>2016-05-23T05:11:21Z</time>
      </trkpt>
      <trkpt lat="45.45877" lon="5.86508">
        <ele>1088</ele>
        <time>2016-05-23T05:13:21Z</time>
      </trkpt>
      <trkpt lat="45.4588" lon="5.86511">
        <ele>1088</ele>
        <time>2016-05-23T05:15:21Z</time>
      </trkpt>
      <trkpt lat="45.45884" lon="5.86515">
        <ele>1089</ele>
        <time>2016-05-23T05:17:21Z</time>
      </trkpt>
      <trkpt lat="45.45889" lon="5.86524">
        <ele>1090</ele>
        <time>2016-05-23T05:19:21Z</time>
      </trkpt>
      <trkpt lat="45.45892" lon="5.86531">
        <ele>1091</ele>
        <time>2016-05-23T05:21:21Z</time>
      </trkpt>
      <trkpt lat="45.45894" lon="5.86536">
        <ele>1092</ele>
        <time>2016-05-23T05:23:21Z</time>
      </trkpt>
      <trkpt lat="45.45896" lon="5.86546">
        <ele>1093</ele>
        <time>2016-05-23T05:25:21Z</time>
      </trkpt>
      <trkpt lat="45.45896" lon="5.86554">
        <ele>1093</ele>
        <time>2016-05-23T05:27:21Z</time>
      </trkpt>
      <trkpt lat="45.45895" lon="5.86561">
        <ele>1094</ele>
        <time>2016-05-23T05:29:21Z</time>
      </trkpt>
      <trkpt lat="45.45894" lon="5.86566">
        <ele>1094</ele>
        <time>2016-05-23T05:31:21Z</time>
      </trkpt>
      <trkpt lat="45.45891" lon="5.86578">
        <ele>1094</ele>
        <time>2016-05-23T05:33:21Z</time>
      </trkpt>
      <trkpt lat="45.45889" lon="5.86584">
        <ele>1094</ele>
        <time>2016-05-23T05:35:21Z</time>
      </trkpt>
      <trkpt lat="45.45888" lon="5.86591">
        <ele>1094</ele>
        <time>2016-05-23T05:37:21Z</time>
      </trkpt>
      <trkpt lat="45.45888" lon="5.86594">
        <ele>1095</ele>
        <time>2016-05-23T05:39:21Z</time>
      </trkpt>
      <trkpt lat="45.45888" lon="5.86597">
        <ele>1095</ele>
        <time>2016-05-23T05:41:21Z</time>
      </trkpt>
      <trkpt lat="45.45889" lon="5.86599">
        <ele>1096</ele>
        <time>2016-05-23T05:43:21Z</time>
      </trkpt>
      <trkpt lat="45.4589" lon="5.86601">
        <ele>1096</ele>
        <time>2016-05-23T05:45:21Z</time>
      </trkpt>
      <trkpt lat="45.45892" lon="5.86602">
        <ele>1097</ele>
        <time>2016-05-23T05:47:21Z</time>
      </trkpt>
      <trkpt lat="45.45894" lon="5.86603">
        <ele>1098</ele>
        <time>2016-05-23T05:49:21Z</time>
      </trkpt>
      <trkpt lat="45.45896" lon="5.86603">
        <ele>1098</ele>
        <time>2016-05-23T05:51:21Z</time>
      </trkpt>
      <trkpt lat="45.45898" lon="5.86601">
        <ele>1098</ele>
        <time>2016-05-23T05:53:21Z</time>
      </trkpt>
      <trkpt lat="45.45901" lon="5.86599">
        <ele>1099</ele>
        <time>2016-05-23T05:55:21Z</time>
      </trkpt>
      <trkpt lat="45.45904" lon="5.8659">
        <ele>1099</ele>
        <time>2016-05-23T05:57:21Z</time>
      </trkpt>
      <trkpt lat="45.45912" lon="5.86574">
        <ele>1099</ele>
        <time>2016-05-23T05:59:21Z</time>
      </trkpt>
      <trkpt lat="45.45915" lon="5.86569">
        <ele>1099</ele>
        <time>2016-05-23T06:01:21Z</time>
      </trkpt>
      <trkpt lat="45.45921" lon="5.86558">
        <ele>1099</ele>
        <time>2016-05-23T06:03:21Z</time>
      </trkpt>
      <trkpt lat="45.45926" lon="5.86551">
        <ele>1100</ele>
        <time>2016-05-23T06:05:21Z</time>
      </trkpt>
      <trkpt lat="45.45932" lon="5.86542">
        <ele>1100</ele>
        <time>2016-05-23T06:07:21Z</time>
      </trkpt>
      <trkpt lat="45.45946" lon="5.86516">
        <ele>1100</ele>
        <time>2016-05-23T06:09:21Z</time>
      </trkpt>
      <trkpt lat="45.45951" lon="5.8651">
        <ele>1100</ele>
        <time>2016-05-23T06:11:21Z</time>
      </trkpt>
      <trkpt lat="45.45957" lon="5.86505">
        <ele>1101</ele>
        <time>2016-05-23T06:13:21Z</time>
      </trkpt>
      <trkpt lat="45.45965" lon="5.865">
        <ele>1101</ele>
        <time>2016-05-23T06:15:21Z</time>
      </trkpt>
      <trkpt lat="45.45981" lon="5.86491">
        <ele>1105</ele>
        <time>2016-05-23T06:17:21Z</time>
      </trkpt>
      <trkpt lat="45.45996" lon="5.86482">
        <ele>1107</ele>
        <time>2016-05-23T06:19:21Z</time>
      </trkpt>
      <trkpt lat="45.46004" lon="5.86477">
        <ele>1108</ele>
        <time>2016-05-23T06:21:21Z</time>
      </trkpt>
      <trkpt lat="45.46013" lon="5.86471">
        <ele>1109</ele>
        <time>2016-05-23T06:23:21Z</time>
      </trkpt>
      <trkpt lat="45.46018" lon="5.86466">
        <ele>1110</ele>
        <time>2016-05-23T06:25:21Z</time>
      </trkpt>
      <trkpt lat="45.46025" lon="5.86457">
        <ele>1111</ele>
        <time>2016-05-23T06:27:21Z</time>
      </trkpt>
      <trkpt lat="45.46027" lon="5.86453">
        <ele>1111</ele>
        <time>2016-05-23T06:29:21Z</time>
      </trkpt>
      <trkpt lat="45.46029" lon="5.86446">
        <ele>1112</ele>
        <time>2016-05-23T06:31:21Z</time>
      </trkpt>
      <trkpt lat="45.46031" lon="5.86433">
        <ele>1112</ele>
        <time>2016-05-23T06:33:21Z</time>
      </trkpt>
      <trkpt lat="45.46034" lon="5.86409">
        <ele>1113</ele>
        <time>2016-05-23T06:35:21Z</time>
      </trkpt>
      <trkpt lat="45.46034" lon="5.86374">
        <ele>1118</ele>
        <time>2016-05-23T06:37:21Z</time>
      </trkpt>
      <trkpt lat="45.46035" lon="5.86368">
        <ele>1119</ele>
        <time>2016-05-23T06:39:21Z</time>
      </trkpt>
      <trkpt lat="45.46036" lon="5.86366">
        <ele>1119</ele>
        <time>2016-05-23T06:41:21Z</time>
      </trkpt>
      <trkpt lat="45.46036" lon="5.86364">
        <ele>1119</ele>
        <time>2016-05-23T06:43:21Z</time>
      </trkpt>
      <trkpt lat="45.46037" lon="5.86362">
        <ele>1120</ele>
        <time>2016-05-23T06:45:21Z</time>
      </trkpt>
      <trkpt lat="45.46039" lon="5.8636">
        <ele>1120</ele>
        <time>2016-05-23T06:47:21Z</time>
      </trkpt>
      <trkpt lat="45.46042" lon="5.86358">
        <ele>1121</ele>
        <time>2016-05-23T06:49:21Z</time>
      </trkpt>
      <trkpt lat="45.46045" lon="5.86358">
        <ele>1121</ele>
        <time>2016-05-23T06:51:21Z</time>
      </trkpt>
      <trkpt lat="45.46047" lon="5.86359">
        <ele>1121</ele>
        <time>2016-05-23T06:53:21Z</time>
      </trkpt>
      <trkpt lat="45.4605" lon="5.86361">
        <ele>1121</ele>
        <time>2016-05-23T06:55:21Z</time>
      </trkpt>
      <trkpt lat="45.46061" lon="5.86374">
        <ele>1121</ele>
        <time>2016-05-23T06:57:21Z</time>
      </trkpt>
      <trkpt lat="45.46067" lon="5.86382">
        <ele>1121</ele>
        <time>2016-05-23T06:59:21Z</time>
      </trkpt>
      <trkpt lat="45.46072" lon="5.86391">
        <ele>1121</ele>
        <time>2016-05-23T07:01:21Z</time>
      </trkpt>
      <trkpt lat="45.46076" lon="5.864">
        <ele>1121</ele>
        <time>2016-05-23T07:03:21Z</time>
      </trkpt>
      <trkpt lat="45.46078" lon="5.8641">
        <ele>1120</ele>
        <time>2016-05-23T07:05:21Z</time>
      </trkpt>
      <trkpt lat="45.4608" lon="5.86422">
        <ele>1120</ele>
        <time>2016-05-23T07:07:21Z</time>
      </trkpt>
      <trkpt lat="45.46083" lon="5.86434">
        <ele>1121</ele>
        <time>2016-05-23T07:09:21Z</time>
      </trkpt>
      <trkpt lat="45.46087" lon="5.86463">
        <ele>1121</ele>
        <time>2016-05-23T07:11:21Z</time>
      </trkpt>
      <trkpt lat="45.46088" lon="5.86468">
        <ele>1121</ele>
        <time>2016-05-23T07:13:21Z</time>
      </trkpt>
      <trkpt lat="45.46088" lon="5.86479">
        <ele>1121</ele>
        <time>2016-05-23T07:15:21Z</time>
      </trkpt>
      <trkpt lat="45.46088" lon="5.86484">
        <ele>1121</ele>
        <time>2016-05-23T07:17:21Z</time>
      </trkpt>
      <trkpt lat="45.46086" lon="5.8649">
        <ele>1121</ele>
        <time>2016-05-23T07:19:21Z</time>
      </trkpt>
      <trkpt lat="45.46085" lon="5.86495">
        <ele>1120</ele>
        <time>2016-05-23T07:21:21Z</time>
      </trkpt>
      <trkpt lat="45.46079" lon="5.8651">
        <ele>1120</ele>
        <time>2016-05-23T07:23:21Z</time>
      </trkpt>
      <trkpt lat="45.46077" lon="5.86518">
        <ele>1121</ele>
        <time>2016-05-23T07:25:21Z</time>
      </trkpt>
      <trkpt lat="45.46076" lon="5.86525">
        <ele>1121</ele>
        <time>2016-05-23T07:27:21Z</time>
      </trkpt>
      <trkpt lat="45.46074" lon="5.86536">
        <ele>1122</ele>
        <time>2016-05-23T07:29:21Z</time>
      </trkpt>
      <trkpt lat="45.46072" lon="5.86553">
        <ele>1124</ele>
        <time>2016-05-23T07:31:21Z</time>
      </trkpt>
      <trkpt lat="45.4607" lon="5.86567">
        <ele>1125</ele>
        <time>2016-05-23T07:33:21Z</time>
      </trkpt>
      <trkpt lat="45.4607" lon="5.86575">
        <ele>1126</ele>
        <time>2016-05-23T07:35:21Z</time>
      </trkpt>
      <trkpt lat="45.46072" lon="5.86582">
        <ele>1127</ele>
        <time>2016-05-23T07:37:21Z</time>
      </trkpt>
      <trkpt lat="45.46077" lon="5.86588">
        <ele>1127</ele>
        <time>2016-05-23T07:39:21Z</time>
      </trkpt>
      <trkpt lat="45.46085" lon="5.86592">
        <ele>1127</ele>
        <time>2016-05-23T07:41:21Z</time>
      </trkpt>
      <trkpt lat="45.46091" lon="5.86595">
        <ele>1127</ele>
        <time>2016-05-23T07:43:21Z</time>
      </trkpt>
      <trkpt lat="45.46105" lon="5.86598">
        <ele>1128</ele>
        <time>2016-05-23T07:45:21Z</time>
      </trkpt>
      <trkpt lat="45.46116" lon="5.86601">
        <ele>1129</ele>
        <time>2016-05-23T07:47:21Z</time>
      </trkpt>
      <trkpt lat="45.46134" lon="5.86602">
        <ele>1131</ele>
        <time>2016-05-23T07:49:21Z</time>
      </trkpt>
      <trkpt lat="45.46146" lon="5.86605">
        <ele>1132</ele>
        <time>2016-05-23T07:51:21Z</time>
      </trkpt>
      <trkpt lat="45.46177" lon="5.86616">
        <ele>1132</ele>
        <time>2016-05-23T07:53:21Z</time>
      </trkpt>
      <trkpt lat="45.46196" lon="5.8662">
        <ele>1134</ele>
        <time>2016-05-23T07:55:21Z</time>
      </trkpt>
      <trkpt lat="45.46206" lon="5.86621">
        <ele>1135</ele>
        <time>2016-05-23T07:57:21Z</time>
      </trkpt>
      <trkpt lat="45.46216" lon="5.86621">
        <ele>1136</ele>
        <time>2016-05-23T07:59:21Z</time>
      </trkpt>
      <trkpt lat="45.46225" lon="5.86621">
        <ele>1137</ele>
        <time>2016-05-23T08:01:21Z</time>
      </trkpt>
      <trkpt lat="45.46236" lon="5.86619">
        <ele>1139</ele>
        <time>2016-05-23T08:03:21Z</time>
      </trkpt>
      <trkpt lat="45.46244" lon="5.86617">
        <ele>1140</ele>
        <time>2016-05-23T08:05:21Z</time>
      </trkpt>
      <trkpt lat="45.46253" lon="5.86614">
        <ele>1142</ele>
        <time>2016-05-23T08:07:21Z</time>
      </trkpt>
      <trkpt lat="45.46261" lon="5.8661">
        <ele>1143</ele>
        <time>2016-05-23T08:09:21Z</time>
      </trkpt>
      <trkpt lat="45.46268" lon="5.86606">
        <ele>1144</ele>
        <time>2016-05-23T08:11:21Z</time>
      </trkpt>
      <trkpt lat="45.46273" lon="5.86602">
        <ele>1145</ele>
        <time>2016-05-23T08:13:21Z</time>
      </trkpt>
      <trkpt lat="45.46285" lon="5.86588">
        <ele>1148</ele>
        <time>2016-05-23T08:15:21Z</time>
      </trkpt>
      <trkpt lat="45.4629" lon="5.86584">
        <ele>1149</ele>
        <time>2016-05-23T08:17:21Z</time>
      </trkpt>
      <trkpt lat="45.46305" lon="5.86572">
        <ele>1150</ele>
        <time>2016-05-23T08:19:21Z</time>
      </trkpt>
      <trkpt lat="45.46319" lon="5.86563">
        <ele>1151</ele>
        <time>2016-05-23T08:21:21Z</time>
      </trkpt>
      <trkpt lat="45.46333" lon="5.86551">
        <ele>1153</ele>
        <time>2016-05-23T08:23:21Z</time>
      </trkpt>
      <trkpt lat="45.46347" lon="5.86537">
        <ele>1154</ele>
        <time>2016-05-23T08:25:21Z</time>
      </trkpt>
      <trkpt lat="45.46361" lon="5.86524">
        <ele>1155</ele>
        <time>2016-05-23T08:27:21Z</time>
      </trkpt>
      <trkpt lat="45.46402" lon="5.86479">
        <ele>1159</ele>
        <time>2016-05-23T08:29:21Z</time>
      </trkpt>
      <trkpt lat="45.4642" lon="5.86457">
        <ele>1162</ele>
        <time>2016-05-23T08:31:21Z</time>
      </trkpt>
      <trkpt lat="45.46429" lon="5.86442">
        <ele>1165</ele>
        <time>2016-05-23T08:33:21Z</time>
      </trkpt>
      <trkpt lat="45.46434" lon="5.86435">
        <ele>1167</ele>
        <time>2016-05-23T08:35:21Z</time>
      </trkpt>
      <trkpt lat="45.46435" lon="5.86434">
        <ele>1167</ele>
        <time>2016-05-23T08:37:21Z</time>
      </trkpt>
      <trkpt lat="45.46438" lon="5.86431">
        <ele>1167</ele>
        <time>2016-05-23T08:39:21Z</time>
      </trkpt>
      <trkpt lat="45.46441" lon="5.86429">
        <ele>1168</ele>
        <time>2016-05-23T08:41:21Z</time>
      </trkpt>
      <trkpt lat="45.4645" lon="5.86424">
        <ele>1168</ele>
        <time>2016-05-23T08:43:21Z</time>
      </trkpt>
      <trkpt lat="45.46459" lon="5.8642">
        <ele>1169</ele>
        <time>2016-05-23T08:45:21Z</time>
      </trkpt>
      <trkpt lat="45.46469" lon="5.86415">
        <ele>1170</ele>
        <time>2016-05-23T08:47:21Z</time>
      </trkpt>
      <trkpt lat="45.46495" lon="5.86406">
        <ele>1170</ele>
        <time>2016-05-23T08:49:21Z</time>
      </trkpt>
      <trkpt lat="45.46558" lon="5.86381">
        <ele>1172</ele>
        <time>2016-05-23T08:51:21Z</time>
      </trkpt>
      <trkpt lat="45.46564" lon="5.86376">
        <ele>1172</ele>
        <time>2016-05-23T08:53:21Z</time>
      </trkpt>
      <trkpt lat="45.46569" lon="5.86371">
        <ele>1172</ele>
        <time>2016-05-23T08:55:21Z</time>
      </trkpt>
      <trkpt lat="45.46572" lon="5.86366">
        <ele>1173</ele>
        <time>2016-05-23T08:57:21Z</time>
      </trkpt>
      <trkpt lat="45.46575" lon="5.8636">
        <ele>1173</ele>
        <time>2016-05-23T08:59:21Z</time>
      </trkpt>
      <trkpt lat="45.46578" lon="5.86354">
        <ele>1174</ele>
        <time>2016-05-23T09:01:21Z</time>
      </trkpt>
      <trkpt lat="45.46575" lon="5.86347">
        <ele>1174</ele>
        <time>2016-05-23T09:03:21Z</time>
      </trkpt>
      <trkpt lat="45.4657" lon="5.86343">
        <ele>1174</ele>
        <time>2016-05-23T09:05:21Z</time>
      </trkpt>
      <trkpt lat="45.46564" lon="5.86334">
        <ele>1175</ele>
        <time>2016-05-23T09:07:21Z</time>
      </trkpt>
      <trkpt lat="45.46551" lon="5.86317">
        <ele>1177</ele>
        <time>2016-05-23T09:09:21Z</time>
      </trkpt>
      <trkpt lat="45.46513" lon="5.86276">
        <ele>1180</ele>
        <time>2016-05-23T09:11:21Z</time>
      </trkpt>
      <trkpt lat="45.46505" lon="5.8627">
        <ele>1181</ele>
        <time>2016-05-23T09:13:21Z</time>
      </trkpt>
      <trkpt lat="45.46492" lon="5.8626">
        <ele>1182</ele>
        <time>2016-05-23T09:15:21Z</time>
      </trkpt>
      <trkpt lat="45.46485" lon="5.86256">
        <ele>1183</ele>
        <time>2016-05-23T09:17:21Z</time>
      </trkpt>
      <trkpt lat="45.46473" lon="5.86252">
        <ele>1184</ele>
        <time>2016-05-23T09:19:21Z</time>
      </trkpt>
      <trkpt lat="45.46467" lon="5.8625">
        <ele>1185</ele>
        <time>2016-05-23T09:21:21Z</time>
      </trkpt>
      <trkpt lat="45.46457" lon="5.8625">
        <ele>1186</ele>
        <time>2016-05-23T09:23:21Z</time>
      </trkpt>
      <trkpt lat="45.46426" lon="5.86248">
        <ele>1189</ele>
        <time>2016-05-23T09:25:21Z</time>
      </trkpt>
      <trkpt lat="45.4639" lon="5.8624">
        <ele>1193</ele>
        <time>2016-05-23T09:27:21Z</time>
      </trkpt>
      <trkpt lat="45.46382" lon="5.86237">
        <ele>1194</ele>
        <time>2016-05-23T09:29:21Z</time>
      </trkpt>
      <trkpt lat="45.46375" lon="5.86234">
        <ele>1195</ele>
        <time>2016-05-23T09:31:21Z</time>
      </trkpt>
      <trkpt lat="45.46368" lon="5.86229">
        <ele>1196</ele>
        <time>2016-05-23T09:33:21Z</time>
      </trkpt>
      <trkpt lat="45.46363" lon="5.86225">
        <ele>1196</ele>
        <time>2016-05-23T09:35:21Z</time>
      </trkpt>
      <trkpt lat="45.46358" lon="5.8622">
        <ele>1197</ele>
        <time>2016-05-23T09:37:21Z</time>
      </trkpt>
      <trkpt lat="45.46351" lon="5.86211">
        <ele>1199</ele>
        <time>2016-05-23T09:39:21Z</time>
      </trkpt>
      <trkpt lat="45.46345" lon="5.86201">
        <ele>1200</ele>
        <time>2016-05-23T09:41:21Z</time>
      </trkpt>
      <trkpt lat="45.46337" lon="5.86188">
        <ele>1202</ele>
        <time>2016-05-23T09:43:21Z</time>
      </trkpt>
      <trkpt lat="45.46332" lon="5.86181">
        <ele>1202</ele>
        <time>2016-05-23T09:45:21Z</time>
      </trkpt>
      <trkpt lat="45.46326" lon="5.86171">
        <ele>1202</ele>
        <time>2016-05-23T09:47:21Z</time>
      </trkpt>
      <trkpt lat="45.46319" lon="5.86156">
        <ele>1202</ele>
        <time>2016-05-23T09:49:21Z</time>
      </trkpt>
      <trkpt lat="45.46315" lon="5.86149">
        <ele>1201</ele>
        <time>2016-05-23T09:51:21Z</time>
      </trkpt>
      <trkpt lat="45.46313" lon="5.86139">
        <ele>1201</ele>
        <time>2016-05-23T09:53:21Z</time>
      </trkpt>
      <trkpt lat="45.46312" lon="5.86134">
        <ele>1201</ele>
        <time>2016-05-23T09:55:21Z</time>
      </trkpt>
      <trkpt lat="45.46312" lon="5.86129">
        <ele>1201</ele>
        <time>2016-05-23T09:57:21Z</time>
      </trkpt>
      <trkpt lat="45.46313" lon="5.86095">
        <ele>1201</ele>
        <time>2016-05-23T09:59:21Z</time>
      </trkpt>
      <trkpt lat="45.46314" lon="5.86063">
        <ele>1202</ele>
        <time>2016-05-23T10:01:21Z</time>
      </trkpt>
      <trkpt lat="45.46313" lon="5.86051">
        <ele>1202</ele>
        <time>2016-05-23T10:03:21Z</time>
      </trkpt>
      <trkpt lat="45.46312" lon="5.86045">
        <ele>1202</ele>
        <time>2016-05-23T10:05:21Z</time>
      </trkpt>
      <trkpt lat="45.4631" lon="5.86038">
        <ele>1202</ele>
        <time>2016-05-23T10:07:21Z</time>
      </trkpt>
      <trkpt lat="45.46307" lon="5.86031">
        <ele>1202</ele>
        <time>2016-05-23T10:09:21Z</time>
      </trkpt>
      <trkpt lat="45.46297" lon="5.86009">
        <ele>1202</ele>
        <time>2016-05-23T10:11:21Z</time>
      </trkpt>
      <trkpt lat="45.46288" lon="5.8599">
        <ele>1203</ele>
        <time>2016-05-23T10:13:21Z</time>
      </trkpt>
      <trkpt lat="45.46282" lon="5.8597">
        <ele>1206</ele>
        <time>2016-05-23T10:15:21Z</time>
      </trkpt>
      <trkpt lat="45.46278" lon="5.85962">
        <ele>1207</ele>
        <time>2016-05-23T10:17:21Z</time>
      </trkpt>
      <trkpt lat="45.46274" lon="5.85953">
        <ele>1209</ele>
        <time>2016-05-23T10:19:21Z</time>
      </trkpt>
      <trkpt lat="45.46256" lon="5.85936">
        <ele>1211</ele>
        <time>2016-05-23T10:21:21Z</time>
      </trkpt>
      <trkpt lat="45.46216" lon="5.85899">
        <ele>1213</ele>
        <time>2016-05-23T10:23:21Z</time>
      </trkpt>
      <trkpt lat="45.46211" lon="5.85892">
        <ele>1213</ele>
        <time>2016-05-23T10:25:21Z</time>
      </trkpt>
      <trkpt lat="45.46202" lon="5.8588">
        <ele>1214</ele>
        <time>2016-05-23T10:27:21Z</time>
      </trkpt>
      <trkpt lat="45.46195" lon="5.85873">
        <ele>1214</ele>
        <time>2016-05-23T10:29:21Z</time>
      </trkpt>
      <trkpt lat="45.46188" lon="5.8587">
        <ele>1213</ele>
        <time>2016-05-23T10:31:21Z</time>
      </trkpt>
      <trkpt lat="45.46185" lon="5.85869">
        <ele>1213</ele>
        <time>2016-05-23T10:33:21Z</time>
      </trkpt>
      <trkpt lat="45.46177" lon="5.85868">
        <ele>1212</ele>
        <time>2016-05-23T10:35:21Z</time>
      </trkpt>
      <trkpt lat="45.4617" lon="5.8587">
        <ele>1211</ele>
        <time>2016-05-23T10:37:21Z</time>
      </trkpt>
      <trkpt lat="45.46145" lon="5.85878">
        <ele>1208</ele>
        <time>2016-05-23T10:39:21Z</time>
      </trkpt>
      <trkpt lat="45.46126" lon="5.85882">
        <ele>1206</ele>
        <time>2016-05-23T10:41:21Z</time>
      </trkpt>
      <trkpt lat="45.46106" lon="5.85884">
        <ele>1204</ele>
        <time>2016-05-23T10:43:21Z</time>
      </trkpt>
      <trkpt lat="45.46086" lon="5.85882">
        <ele>1202</ele>
        <time>2016-05-23T10:45:21Z</time>
      </trkpt>
      <trkpt lat="45.46073" lon="5.85878">
        <ele>1202</ele>
        <time>2016-05-23T10:47:21Z</time>
      </trkpt>
      <trkpt lat="45.4606" lon="5.85872">
        <ele>1201</ele>
        <time>2016-05-23T10:49:21Z</time>
      </trkpt>
      <trkpt lat="45.46037" lon="5.85857">
        <ele>1201</ele>
        <time>2016-05-23T10:51:21Z</time>
      </trkpt>
      <trkpt lat="45.46019" lon="5.85846">
        <ele>1200</ele>
        <time>2016-05-23T10:53:21Z</time>
      </trkpt>
      <trkpt lat="45.45993" lon="5.8583">
        <ele>1198</ele>
        <time>2016-05-23T10:55:21Z</time>
      </trkpt>
      <trkpt lat="45.45979" lon="5.85822">
        <ele>1198</ele>
        <time>2016-05-23T10:57:21Z</time>
      </trkpt>
      <trkpt lat="45.45971" lon="5.85819">
        <ele>1197</ele>
        <time>2016-05-23T10:59:21Z</time>
      </trkpt>
      <trkpt lat="45.45965" lon="5.85817">
        <ele>1197</ele>
        <time>2016-05-23T11:01:21Z</time>
      </trkpt>
      <trkpt lat="45.4596" lon="5.85814">
        <ele>1197</ele>
        <time>2016-05-23T11:03:21Z</time>
      </trkpt>
      <trkpt lat="45.45949" lon="5.85812">
        <ele>1197</ele>
        <time>2016-05-23T11:05:21Z</time>
      </trkpt>
      <trkpt lat="45.45934" lon="5.8581">
        <ele>1196</ele>
        <time>2016-05-23T11:07:21Z</time>
      </trkpt>
      <trkpt lat="45.45899" lon="5.85804">
        <ele>1196</ele>
        <time>2016-05-23T11:09:21Z</time>
      </trkpt>
      <trkpt lat="45.45882" lon="5.85803">
        <ele>1195</ele>
        <time>2016-05-23T11:11:21Z</time>
      </trkpt>
      <trkpt lat="45.45871" lon="5.85802">
        <ele>1195</ele>
        <time>2016-05-23T11:13:21Z</time>
      </trkpt>
      <trkpt lat="45.45867" lon="5.85801">
        <ele>1195</ele>
        <time>2016-05-23T11:15:21Z</time>
      </trkpt>
      <trkpt lat="45.45861" lon="5.858">
        <ele>1195</ele>
        <time>2016-05-23T11:17:21Z</time>
      </trkpt>
      <trkpt lat="45.45849" lon="5.85798">
        <ele>1194</ele>
        <time>2016-05-23T11:19:21Z</time>
      </trkpt>
      <trkpt lat="45.45836" lon="5.85794">
        <ele>1194</ele>
        <time>2016-05-23T11:21:21Z</time>
      </trkpt>
      <trkpt lat="45.4581" lon="5.85787">
        <ele>1193</ele>
        <time>2016-05-23T11:23:21Z</time>
      </trkpt>
      <trkpt lat="45.45787" lon="5.85781">
        <ele>1193</ele>
        <time>2016-05-23T11:25:21Z</time>
      </trkpt>
      <trkpt lat="45.45763" lon="5.85774">
        <ele>1193</ele>
        <time>2016-05-23T11:27:21Z</time>
      </trkpt>
      <trkpt lat="45.45739" lon="5.85769">
        <ele>1193</ele>
        <time>2016-05-23T11:29:21Z</time>
      </trkpt>
      <trkpt lat="45.45725" lon="5.85769">
        <ele>1193</ele>
        <time>2016-05-23T11:31:21Z</time>
      </trkpt>
      <trkpt lat="45.45723" lon="5.85769">
        <ele>1193</ele>
        <time>2016-05-23T11:33:21Z</time>
      </trkpt>
      <trkpt lat="45.45718" lon="5.8577">
        <ele>1193</ele>
        <time>2016-05-23T11:35:21Z</time>
      </trkpt>
      <trkpt lat="45.45703" lon="5.85776">
        <ele>1192</ele>
        <time>2016-05-23T11:37:21Z</time>
      </trkpt>
      <trkpt lat="45.45695" lon="5.8578">
        <ele>1192</ele>
        <time>2016-05-23T11:39:21Z</time>
      </trkpt>
      <trkpt lat="45.45672" lon="5.85793">
        <ele>1189</ele>
        <time>2016-05-23T11:41:21Z</time>
      </trkpt>
      <trkpt lat="45.45664" lon="5.858">
        <ele>1188</ele>
        <time>2016-05-23T11:43:21Z</time>
      </trkpt>
      <trkpt lat="45.45657" lon="5.85806">
        <ele>1187</ele>
        <time>2016-05-23T11:45:21Z</time>
      </trkpt>
      <trkpt lat="45.45645" lon="5.85817">
        <ele>1185</ele>
        <time>2016-05-23T11:47:21Z</time>
      </trkpt>
      <trkpt lat="45.4563" lon="5.85833">
        <ele>1183</ele>
        <time>2016-05-23T11:49:21Z</time>
      </trkpt>
      <trkpt lat="45.45616" lon="5.85847">
        <ele>1182</ele>
        <time>2016-05-23T11:51:21Z</time>
      </trkpt>
      <trkpt lat="45.45602" lon="5.8586">
        <ele>1181</ele>
        <time>2016-05-23T11:53:21Z</time>
      </trkpt>
      <trkpt lat="45.45585" lon="5.8587">
        <ele>1180</ele>
        <time>2016-05-23T11:55:21Z</time>
      </trkpt>
      <trkpt lat="45.45569" lon="5.85877">
        <ele>1177</ele>
        <time>2016-05-23T11:57:21Z</time>
      </trkpt>
      <trkpt lat="45.4556" lon="5.85881">
        <ele>1176</ele>
        <time>2016-05-23T11:59:21Z</time>
      </trkpt>
      <trkpt lat="45.4555" lon="5.85886">
        <ele>1175</ele>
        <time>2016-05-23T12:01:21Z</time>
      </trkpt>
      <trkpt lat="45.45542" lon="5.85889">
        <ele>1174</ele>
        <time>2016-05-23T12:03:21Z</time>
      </trkpt>
      <trkpt lat="45.45535" lon="5.8589">
        <ele>1173</ele>
        <time>2016-05-23T12:05:21Z</time>
      </trkpt>
      <trkpt lat="45.45524" lon="5.85891">
        <ele>1172</ele>
        <time>2016-05-23T12:07:21Z</time>
      </trkpt>
      <trkpt lat="45.45512" lon="5.85893">
        <ele>1171</ele>
        <time>2016-05-23T12:09:21Z</time>
      </trkpt>
      <trkpt lat="45.45501" lon="5.85891">
        <ele>1171</ele>
        <time>2016-05-23T12:11:21Z</time>
      </trkpt>
      <trkpt lat="45.45471" lon="5.85886">
        <ele>1170</ele>
        <time>2016-05-23T12:13:21Z</time>
      </trkpt>
      <trkpt lat="45.45459" lon="5.85883">
        <ele>1170</ele>
        <time>2016-05-23T12:15:21Z</time>
      </trkpt>
      <trkpt lat="45.45449" lon="5.8588">
        <ele>1169</ele>
        <time>2016-05-23T12:17:21Z</time>
      </trkpt>
      <trkpt lat="45.4543" lon="5.85872">
        <ele>1169</ele>
        <time>2016-05-23T12:19:21Z</time>
      </trkpt>
      <trkpt lat="45.45405" lon="5.85851">
        <ele>1171</ele>
        <time>2016-05-23T12:21:21Z</time>
      </trkpt>
      <trkpt lat="45.45381" lon="5.85834">
        <ele>1176</ele>
        <time>2016-05-23T12:23:21Z</time>
      </trkpt>
      <trkpt lat="45.45365" lon="5.85822">
        <ele>1179</ele>
        <time>2016-05-23T12:25:21Z</time>
      </trkpt>
      <trkpt lat="45.4535" lon="5.8581">
        <ele>1181</ele>
        <time>2016-05-23T12:27:21Z</time>
      </trkpt>
      <trkpt lat="45.45327" lon="5.85787">
        <ele>1183</ele>
        <time>2016-05-23T12:29:21Z</time>
      </trkpt>
      <trkpt lat="45.4532" lon="5.8578">
        <ele>1184</ele>
        <time>2016-05-23T12:31:21Z</time>
      </trkpt>
      <trkpt lat="45.45315" lon="5.85772">
        <ele>1185</ele>
        <time>2016-05-23T12:33:21Z</time>
      </trkpt>
      <trkpt lat="45.45294" lon="5.85737">
        <ele>1188</ele>
        <time>2016-05-23T12:35:21Z</time>
      </trkpt>
      <trkpt lat="45.45288" lon="5.85725">
        <ele>1188</ele>
        <time>2016-05-23T12:37:21Z</time>
      </trkpt>
      <trkpt lat="45.45278" lon="5.85706">
        <ele>1188</ele>
        <time>2016-05-23T12:39:21Z</time>
      </trkpt>
      <trkpt lat="45.45271" lon="5.85685">
        <ele>1185</ele>
        <time>2016-05-23T12:41:21Z</time>
      </trkpt>
      <trkpt lat="45.45265" lon="5.85664">
        <ele>1182</ele>
        <time>2016-05-23T12:43:21Z</time>
      </trkpt>
      <trkpt lat="45.45256" lon="5.85611">
        <ele>1177</ele>
        <time>2016-05-23T12:45:21Z</time>
      </trkpt>
      <trkpt lat="45.45251" lon="5.85578">
        <ele>1174</ele>
        <time>2016-05-23T12:47:21Z</time>
      </trkpt>
      <trkpt lat="45.45249" lon="5.85556">
        <ele>1172</ele>
        <time>2016-05-23T12:49:21Z</time>
      </trkpt>
      <trkpt lat="45.45249" lon="5.85553">
        <ele>1172</ele>
        <time>2016-05-23T12:51:21Z</time>
      </trkpt>
      <trkpt lat="45.45248" lon="5.85538">
        <ele>1171</ele>
        <time>2016-05-23T12:53:21Z</time>
      </trkpt>
      <trkpt lat="45.4525" lon="5.85516">
        <ele>1168</ele>
        <time>2016-05-23T12:55:21Z</time>
      </trkpt>
      <trkpt lat="45.4525" lon="5.85505">
        <ele>1166</ele>
        <time>2016-05-23T12:57:21Z</time>
      </trkpt>
      <trkpt lat="45.45254" lon="5.85483">
        <ele>1167</ele>
        <time>2016-05-23T12:59:21Z</time>
      </trkpt>
      <trkpt lat="45.45258" lon="5.85464">
        <ele>1168</ele>
        <time>2016-05-23T13:01:21Z</time>
      </trkpt>
      <trkpt lat="45.4526" lon="5.85454">
        <ele>1169</ele>
        <time>2016-05-23T13:03:21Z</time>
      </trkpt>
      <trkpt lat="45.45263" lon="5.85448">
        <ele>1169</ele>
        <time>2016-05-23T13:05:21Z</time>
      </trkpt>
      <trkpt lat="45.45263" lon="5.85446">
        <ele>1169</ele>
        <time>2016-05-23T13:07:21Z</time>
      </trkpt>
      <trkpt lat="45.45264" lon="5.85445">
        <ele>1169</ele>
        <time>2016-05-23T13:09:21Z</time>
      </trkpt>
      <trkpt lat="45.45266" lon="5.85443">
        <ele>1169</ele>
        <time>2016-05-23T13:11:21Z</time>
      </trkpt>
      <trkpt lat="45.45268" lon="5.85441">
        <ele>1169</ele>
        <time>2016-05-23T13:13:21Z</time>
      </trkpt>
      <trkpt lat="45.45272" lon="5.85439">
        <ele>1170</ele>
        <time>2016-05-23T13:15:21Z</time>
      </trkpt>
      <trkpt lat="45.45273" lon="5.85439">
        <ele>1170</ele>
        <time>2016-05-23T13:17:21Z</time>
      </trkpt>
      <trkpt lat="45.45278" lon="5.85439">
        <ele>1170</ele>
        <time>2016-05-23T13:19:21Z</time>
      </trkpt>
      <trkpt lat="45.45287" lon="5.85441">
        <ele>1171</ele>
        <time>2016-05-23T13:21:21Z</time>
      </trkpt>
      <trkpt lat="45.45292" lon="5.85441">
        <ele>1171</ele>
        <time>2016-05-23T13:23:21Z</time>
      </trkpt>
      <trkpt lat="45.45294" lon="5.85441">
        <ele>1171</ele>
        <time>2016-05-23T13:25:21Z</time>
      </trkpt>
      <trkpt lat="45.45296" lon="5.85441">
        <ele>1171</ele>
        <time>2016-05-23T13:27:21Z</time>
      </trkpt>
      <trkpt lat="45.45299" lon="5.8544">
        <ele>1171</ele>
        <time>2016-05-23T13:29:21Z</time>
      </trkpt>
      <trkpt lat="45.45302" lon="5.85438">
        <ele>1171</ele>
        <time>2016-05-23T13:31:21Z</time>
      </trkpt>
      <trkpt lat="45.45304" lon="5.85437">
        <ele>1171</ele>
        <time>2016-05-23T13:33:21Z</time>
      </trkpt>
      <trkpt lat="45.4531" lon="5.85432">
        <ele>1171</ele>
        <time>2016-05-23T13:35:21Z</time>
      </trkpt>
      <trkpt lat="45.45312" lon="5.85429">
        <ele>1171</ele>
        <time>2016-05-23T13:37:21Z</time>
      </trkpt>
      <trkpt lat="45.45315" lon="5.85426">
        <ele>1170</ele>
        <time>2016-05-23T13:39:21Z</time>
      </trkpt>
      <trkpt lat="45.45319" lon="5.85419">
        <ele>1169</ele>
        <time>2016-05-23T13:41:21Z</time>
      </trkpt>
      <trkpt lat="45.45322" lon="5.85413">
        <ele>1169</ele>
        <time>2016-05-23T13:43:21Z</time>
      </trkpt>
      <trkpt lat="45.45325" lon="5.85408">
        <ele>1168</ele>
        <time>2016-05-23T13:45:21Z</time>
      </trkpt>
      <trkpt lat="45.45332" lon="5.85387">
        <ele>1165</ele>
        <time>2016-05-23T13:47:21Z</time>
      </trkpt>
      <trkpt lat="45.45339" lon="5.85361">
        <ele>1164</ele>
        <time>2016-05-23T13:49:21Z</time>
      </trkpt>
      <trkpt lat="45.45343" lon="5.8535">
        <ele>1165</ele>
        <time>2016-05-23T13:51:21Z</time>
      </trkpt>
      <trkpt lat="45.45355" lon="5.85304">
        <ele>1165</ele>
        <time>2016-05-23T13:53:21Z</time>
      </trkpt>
      <trkpt lat="45.45372" lon="5.85241">
        <ele>1166</ele>
        <time>2016-05-23T13:55:21Z</time>
      </trkpt>
      <trkpt lat="45.45385" lon="5.85192">
        <ele>1167</ele>
        <time>2016-05-23T13:57:21Z</time>
      </trkpt>
      <trkpt lat="45.45391" lon="5.85152">
        <ele>1164</ele>
        <time>2016-05-23T13:59:21Z</time>
      </trkpt>
      <trkpt lat="45.45395" lon="5.85109">
        <ele>1159</ele>
        <time>2016-05-23T14:01:21Z</time>
      </trkpt>
      <trkpt lat="45.45395" lon="5.85094">
        <ele>1157</ele>
        <time>2016-05-23T14:03:21Z</time>
      </trkpt>
      <trkpt lat="45.45396" lon="5.85079">
        <ele>1155</ele>
        <time>2016-05-23T14:05:21Z</time>
      </trkpt>
      <trkpt lat="45.45395" lon="5.85063">
        <ele>1154</ele>
        <time>2016-05-23T14:07:21Z</time>
      </trkpt>
      <trkpt lat="45.45395" lon="5.85036">
        <ele>1153</ele>
        <time>2016-05-23T14:09:21Z</time>
      </trkpt>
      <trkpt lat="45.45395" lon="5.85021">
        <ele>1152</ele>
        <time>2016-05-23T14:11:21Z</time>
      </trkpt>
      <trkpt lat="45.45394" lon="5.85007">
        <ele>1151</ele>
        <time>2016-05-23T14:13:21Z</time>
      </trkpt>
      <trkpt lat="45.45392" lon="5.84978">
        <ele>1148</ele>
        <time>2016-05-23T14:15:21Z</time>
      </trkpt>
      <trkpt lat="45.4539" lon="5.84965">
        <ele>1146</ele>
        <time>2016-05-23T14:17:21Z</time>
      </trkpt>
      <trkpt lat="45.45388" lon="5.84951">
        <ele>1145</ele>
        <time>2016-05-23T14:19:21Z</time>
      </trkpt>
      <trkpt lat="45.45386" lon="5.84937">
        <ele>1143</ele>
        <time>2016-05-23T14:21:21Z</time>
      </trkpt>
      <trkpt lat="45.45384" lon="5.84924">
        <ele>1141</ele>
        <time>2016-05-23T14:23:21Z</time>
      </trkpt>
      <trkpt lat="45.45381" lon="5.84912">
        <ele>1140</ele>
        <time>2016-05-23T14:25:21Z</time>
      </trkpt>
      <trkpt lat="45.45378" lon="5.84898">
        <ele>1140</ele>
        <time>2016-05-23T14:27:21Z</time>
      </trkpt>
      <trkpt lat="45.45375" lon="5.84887">
        <ele>1140</ele>
        <time>2016-05-23T14:29:21Z</time>
      </trkpt>
      <trkpt lat="45.45371" lon="5.84875">
        <ele>1139</ele>
        <time>2016-05-23T14:31:21Z</time>
      </trkpt>
      <trkpt lat="45.45361" lon="5.84851">
        <ele>1135</ele>
        <time>2016-05-23T14:33:21Z</time>
      </trkpt>
      <trkpt lat="45.45356" lon="5.8484">
        <ele>1132</ele>
        <time>2016-05-23T14:35:21Z</time>
      </trkpt>
      <trkpt lat="45.45344" lon="5.84818">
        <ele>1128</ele>
        <time>2016-05-23T14:37:21Z</time>
      </trkpt>
      <trkpt lat="45.45329" lon="5.84783">
        <ele>1127</ele>
        <time>2016-05-23T14:39:21Z</time>
      </trkpt>
      <trkpt lat="45.45319" lon="5.84759">
        <ele>1128</ele>
        <time>2016-05-23T14:41:21Z</time>
      </trkpt>
      <trkpt lat="45.45314" lon="5.84748">
        <ele>1128</ele>
        <time>2016-05-23T14:43:21Z</time>
      </trkpt>
      <trkpt lat="45.45309" lon="5.84737">
        <ele>1128</ele>
        <time>2016-05-23T14:45:21Z</time>
      </trkpt>
      <trkpt lat="45.45297" lon="5.84714">
        <ele>1126</ele>
        <time>2016-05-23T14:47:21Z</time>
      </trkpt>
      <trkpt lat="45.45286" lon="5.84694">
        <ele>1124</ele>
        <time>2016-05-23T14:49:21Z</time>
      </trkpt>
      <trkpt lat="45.45273" lon="5.84674">
        <ele>1120</ele>
        <time>2016-05-23T14:51:21Z</time>
      </trkpt>
      <trkpt lat="45.45266" lon="5.84664">
        <ele>1118</ele>
        <time>2016-05-23T14:53:21Z</time>
      </trkpt>
      <trkpt lat="45.45242" lon="5.84625">
        <ele>1113</ele>
        <time>2016-05-23T14:55:21Z</time>
      </trkpt>
      <trkpt lat="45.45227" lon="5.84595">
        <ele>1112</ele>
        <time>2016-05-23T14:57:21Z</time>
      </trkpt>
      <trkpt lat="45.45211" lon="5.84565">
        <ele>1110</ele>
        <time>2016-05-23T14:59:21Z</time>
      </trkpt>
      <trkpt lat="45.45207" lon="5.84557">
        <ele>1110</ele>
        <time>2016-05-23T15:01:21Z</time>
      </trkpt>
      <trkpt lat="45.45185" lon="5.84528">
        <ele>1109</ele>
        <time>2016-05-23T15:03:21Z</time>
      </trkpt>
      <trkpt lat="45.45176" lon="5.84516">
        <ele>1108</ele>
        <time>2016-05-23T15:05:21Z</time>
      </trkpt>
      <trkpt lat="45.45164" lon="5.84499">
        <ele>1108</ele>
        <time>2016-05-23T15:07:21Z</time>
      </trkpt>
      <trkpt lat="45.4516" lon="5.84495">
        <ele>1107</ele>
        <time>2016-05-23T15:09:21Z</time>
      </trkpt>
      <trkpt lat="45.45157" lon="5.84491">
        <ele>1106</ele>
        <time>2016-05-23T15:11:21Z</time>
      </trkpt>
      <trkpt lat="45.45153" lon="5.84487">
        <ele>1105</ele>
        <time>2016-05-23T15:13:21Z</time>
      </trkpt>
      <trkpt lat="45.4515" lon="5.84484">
        <ele>1105</ele>
        <time>2016-05-23T15:15:21Z</time>
      </trkpt>
      <trkpt lat="45.45145" lon="5.84482">
        <ele>1103</ele>
        <time>2016-05-23T15:17:21Z</time>
      </trkpt>
      <trkpt lat="45.45141" lon="5.84482">
        <ele>1102</ele>
        <time>2016-05-23T15:19:21Z</time>
      </trkpt>
      <trkpt lat="45.45137" lon="5.84483">
        <ele>1100</ele>
        <time>2016-05-23T15:21:21Z</time>
      </trkpt>
      <trkpt lat="45.45134" lon="5.84485">
        <ele>1099</ele>
        <time>2016-05-23T15:23:21Z</time>
      </trkpt>
      <trkpt lat="45.45132" lon="5.84486">
        <ele>1099</ele>
        <time>2016-05-23T15:25:21Z</time>
      </trkpt>
      <trkpt lat="45.45131" lon="5.84488">
        <ele>1098</ele>
        <time>2016-05-23T15:27:21Z</time>
      </trkpt>
      <trkpt lat="45.4513" lon="5.84491">
        <ele>1098</ele>
        <time>2016-05-23T15:29:21Z</time>
      </trkpt>
      <trkpt lat="45.45129" lon="5.84494">
        <ele>1097</ele>
        <time>2016-05-23T15:31:21Z</time>
      </trkpt>
      <trkpt lat="45.45129" lon="5.84497">
        <ele>1097</ele>
        <time>2016-05-23T15:33:21Z</time>
      </trkpt>
      <trkpt lat="45.45129" lon="5.84503">
        <ele>1096</ele>
        <time>2016-05-23T15:35:21Z</time>
      </trkpt>
      <trkpt lat="45.4513" lon="5.84508">
        <ele>1096</ele>
        <time>2016-05-23T15:37:21Z</time>
      </trkpt>
      <trkpt lat="45.4513" lon="5.84511">
        <ele>1096</ele>
        <time>2016-05-23T15:39:21Z</time>
      </trkpt>
      <trkpt lat="45.45131" lon="5.84513">
        <ele>1096</ele>
        <time>2016-05-23T15:41:21Z</time>
      </trkpt>
      <trkpt lat="45.45133" lon="5.84517">
        <ele>1096</ele>
        <time>2016-05-23T15:43:21Z</time>
      </trkpt>
      <trkpt lat="45.45138" lon="5.84526">
        <ele>1096</ele>
        <time>2016-05-23T15:45:21Z</time>
      </trkpt>
      <trkpt lat="45.4515" lon="5.84549">
        <ele>1095</ele>
        <time>2016-05-23T15:47:21Z</time>
      </trkpt>
      <trkpt lat="45.45156" lon="5.84559">
        <ele>1095</ele>
        <time>2016-05-23T15:49:21Z</time>
      </trkpt>
      <trkpt lat="45.45165" lon="5.84573">
        <ele>1095</ele>
        <time>2016-05-23T15:51:21Z</time>
      </trkpt>
      <trkpt lat="45.4517" lon="5.84581">
        <ele>1095</ele>
        <time>2016-05-23T15:53:21Z</time>
      </trkpt>
      <trkpt lat="45.45172" lon="5.84586">
        <ele>1095</ele>
        <time>2016-05-23T15:55:21Z</time>
      </trkpt>
      <trkpt lat="45.45173" lon="5.84591">
        <ele>1095</ele>
        <time>2016-05-23T15:57:21Z</time>
      </trkpt>
      <trkpt lat="45.45174" lon="5.84597">
        <ele>1095</ele>
        <time>2016-05-23T15:59:21Z</time>
      </trkpt>
      <trkpt lat="45.45174" lon="5.84603">
        <ele>1095</ele>
        <time>2016-05-23T16:01:21Z</time>
      </trkpt>
      <trkpt lat="45.45174" lon="5.8461">
        <ele>1095</ele>
        <time>2016-05-23T16:03:21Z</time>
      </trkpt>
      <trkpt lat="45.45173" lon="5.84616">
        <ele>1095</ele>
        <time>2016-05-23T16:05:21Z</time>
      </trkpt>
      <trkpt lat="45.45172" lon="5.84618">
        <ele>1095</ele>
        <time>2016-05-23T16:07:21Z</time>
      </trkpt>
      <trkpt lat="45.4517" lon="5.84622">
        <ele>1094</ele>
        <time>2016-05-23T16:09:21Z</time>
      </trkpt>
      <trkpt lat="45.45169" lon="5.84625">
        <ele>1094</ele>
        <time>2016-05-23T16:11:21Z</time>
      </trkpt>
      <trkpt lat="45.45168" lon="5.84628">
        <ele>1094</ele>
        <time>2016-05-23T16:13:21Z</time>
      </trkpt>
      <trkpt lat="45.45165" lon="5.84633">
        <ele>1094</ele>
        <time>2016-05-23T16:15:21Z</time>
      </trkpt>
      <trkpt lat="45.45161" lon="5.84637">
        <ele>1094</ele>
        <time>2016-05-23T16:17:21Z</time>
      </trkpt>
      <trkpt lat="45.45157" lon="5.8464">
        <ele>1094</ele>
        <time>2016-05-23T16:19:21Z</time>
      </trkpt>
      <trkpt lat="45.45153" lon="5.84642">
        <ele>1094</ele>
        <time>2016-05-23T16:21:21Z</time>
      </trkpt>
      <trkpt lat="45.45149" lon="5.84643">
        <ele>1094</ele>
        <time>2016-05-23T16:23:21Z</time>
      </trkpt>
      <trkpt lat="45.45144" lon="5.84644">
        <ele>1094</ele>
        <time>2016-05-23T16:25:21Z</time>
      </trkpt>
      <trkpt lat="45.4514" lon="5.84642">
        <ele>1094</ele>
        <time>2016-05-23T16:27:21Z</time>
      </trkpt>
      <trkpt lat="45.45136" lon="5.8464">
        <ele>1094</ele>
        <time>2016-05-23T16:29:21Z</time>
      </trkpt>
      <trkpt lat="45.45125" lon="5.84628">
        <ele>1092</ele>
        <time>2016-05-23T16:31:21Z</time>
      </trkpt>
      <trkpt lat="45.45083" lon="5.84577">
        <ele>1077</ele>
        <time>2016-05-23T16:33:21Z</time>
      </trkpt>
      <trkpt lat="45.45058" lon="5.84551">
        <ele>1083</ele>
        <time>2016-05-23T16:35:21Z</time>
      </trkpt>
      <trkpt lat="45.45036" lon="5.84531">
        <ele>1085</ele>
        <time>2016-05-23T16:37:21Z</time>
      </trkpt>
      <trkpt lat="45.4502" lon="5.84512">
        <ele>1083</ele>
        <time>2016-05-23T16:39:21Z</time>
      </trkpt>
      <trkpt lat="45.45015" lon="5.84503">
        <ele>1081</ele>
        <time>2016-05-23T16:41:21Z</time>
      </trkpt>
      <trkpt lat="45.45008" lon="5.84483">
        <ele>1076</ele>
        <time>2016-05-23T16:43:21Z</time>
      </trkpt>
      <trkpt lat="45.45002" lon="5.84459">
        <ele>1070</ele>
        <time>2016-05-23T16:45:21Z</time>
      </trkpt>
      <trkpt lat="45.44998" lon="5.84431">
        <ele>1062</ele>
        <time>2016-05-23T16:47:21Z</time>
      </trkpt>
      <trkpt lat="45.44997" lon="5.84401">
        <ele>1058</ele>
        <time>2016-05-23T16:49:21Z</time>
      </trkpt>
      <trkpt lat="45.44997" lon="5.84397">
        <ele>1058</ele>
        <time>2016-05-23T16:51:21Z</time>
      </trkpt>
      <trkpt lat="45.44996" lon="5.84392">
        <ele>1058</ele>
        <time>2016-05-23T16:53:21Z</time>
      </trkpt>
      <trkpt lat="45.44994" lon="5.84381">
        <ele>1057</ele>
        <time>2016-05-23T16:55:21Z</time>
      </trkpt>
      <trkpt lat="45.44989" lon="5.84367">
        <ele>1057</ele>
        <time>2016-05-23T16:57:21Z</time>
      </trkpt>
      <trkpt lat="45.44984" lon="5.84355">
        <ele>1056</ele>
        <time>2016-05-23T16:59:21Z</time>
      </trkpt>
      <trkpt lat="45.44972" lon="5.84335">
        <ele>1053</ele>
        <time>2016-05-23T17:01:21Z</time>
      </trkpt>
      <trkpt lat="45.44915" lon="5.84255">
        <ele>1057</ele>
        <time>2016-05-23T17:03:21Z</time>
      </trkpt>
      <trkpt lat="45.44892" lon="5.8422">
        <ele>1055</ele>
        <time>2016-05-23T17:05:21Z</time>
      </trkpt>
      <trkpt lat="45.44887" lon="5.84212">
        <ele>1054</ele>
        <time>2016-05-23T17:07:21Z</time>
      </trkpt>
      <trkpt lat="45.44862" lon="5.84172">
        <ele>1046</ele>
        <time>2016-05-23T17:09:21Z</time>
      </trkpt>
      <trkpt lat="45.44819" lon="5.84105">
        <ele>1039</ele>
        <time>2016-05-23T17:11:21Z</time>
      </trkpt>
      <trkpt lat="45.44805" lon="5.84084">
        <ele>1037</ele>
        <time>2016-05-23T17:13:21Z</time>
      </trkpt>
      <trkpt lat="45.44797" lon="5.84074">
        <ele>1036</ele>
        <time>2016-05-23T17:15:21Z</time>
      </trkpt>
      <trkpt lat="45.44775" lon="5.84042">
        <ele>1035</ele>
        <time>2016-05-23T17:17:21Z</time>
      </trkpt>
      <trkpt lat="45.44756" lon="5.84019">
        <ele>1033</ele>
        <time>2016-05-23T17:19:21Z</time>
      </trkpt>
      <trkpt lat="45.44743" lon="5.84005">
        <ele>1031</ele>
        <time>2016-05-23T17:21:21Z</time>
      </trkpt>
      <trkpt lat="45.44724" lon="5.8399">
        <ele>1029</ele>
        <time>2016-05-23T17:23:21Z</time>
      </trkpt>
      <trkpt lat="45.44701" lon="5.83978">
        <ele>1025</ele>
        <time>2016-05-23T17:25:21Z</time>
      </trkpt>
      <trkpt lat="45.44686" lon="5.83968">
        <ele>1022</ele>
        <time>2016-05-23T17:27:21Z</time>
      </trkpt>
      <trkpt lat="45.4467" lon="5.8396">
        <ele>1018</ele>
        <time>2016-05-23T17:29:21Z</time>
      </trkpt>
      <trkpt lat="45.44655" lon="5.83949">
        <ele>1016</ele>
        <time>2016-05-23T17:31:21Z</time>
      </trkpt>
      <trkpt lat="45.44642" lon="5.83938">
        <ele>1015</ele>
        <time>2016-05-23T17:33:21Z</time>
      </trkpt>
      <trkpt lat="45.44613" lon="5.83913">
        <ele>1013</ele>
        <time>2016-05-23T17:35:21Z</time>
      </trkpt>
      <trkpt lat="45.44604" lon="5.83904">
        <ele>1013</ele>
        <time>2016-05-23T17:37:21Z</time>
      </trkpt>
      <trkpt lat="45.44587" lon="5.83885">
        <ele>1012</ele>
        <time>2016-05-23T17:39:21Z</time>
      </trkpt>
      <trkpt lat="45.44581" lon="5.83875">
        <ele>1012</ele>
        <time>2016-05-23T17:41:21Z</time>
      </trkpt>
      <trkpt lat="45.44564" lon="5.83853">
        <ele>1010</ele>
        <time>2016-05-23T17:43:21Z</time>
      </trkpt>
      <trkpt lat="45.44558" lon="5.83844">
        <ele>1009</ele>
        <time>2016-05-23T17:45:21Z</time>
      </trkpt>
      <trkpt lat="45.44553" lon="5.83835">
        <ele>1009</ele>
        <time>2016-05-23T17:47:21Z</time>
      </trkpt>
      <trkpt lat="45.44545" lon="5.83817">
        <ele>1008</ele>
        <time>2016-05-23T17:49:21Z</time>
      </trkpt>
      <trkpt lat="45.44537" lon="5.83789">
        <ele>1008</ele>
        <time>2016-05-23T17:51:21Z</time>
      </trkpt>
      <trkpt lat="45.4453" lon="5.83768">
        <ele>1007</ele>
        <time>2016-05-23T17:53:21Z</time>
      </trkpt>
      <trkpt lat="45.44511" lon="5.83696">
        <ele>1003</ele>
        <time>2016-05-23T17:55:21Z</time>
      </trkpt>
      <trkpt lat="45.44507" lon="5.83686">
        <ele>1002</ele>
        <time>2016-05-23T17:57:21Z</time>
      </trkpt>
      <trkpt lat="45.44505" lon="5.8368">
        <ele>1001</ele>
        <time>2016-05-23T17:59:21Z</time>
      </trkpt>
      <trkpt lat="45.44492" lon="5.83645">
        <ele>1001</ele>
        <time>2016-05-23T18:01:21Z</time>
      </trkpt>
      <trkpt lat="45.44485" lon="5.83617">
        <ele>1003</ele>
        <time>2016-05-23T18:03:21Z</time>
      </trkpt>
      <trkpt lat="45.44473" lon="5.83579">
        <ele>1004</ele>
        <time>2016-05-23T18:05:21Z</time>
      </trkpt>
      <trkpt lat="45.44466" lon="5.83552">
        <ele>1003</ele>
        <time>2016-05-23T18:07:21Z</time>
      </trkpt>
      <trkpt lat="45.44456" lon="5.83516">
        <ele>1001</ele>
        <time>2016-05-23T18:09:21Z</time>
      </trkpt>
      <trkpt lat="45.44451" lon="5.83507">
        <ele>1000</ele>
        <time>2016-05-23T18:11:21Z</time>
      </trkpt>
      <trkpt lat="45.44448" lon="5.83505">
        <ele>999</ele>
        <time>2016-05-23T18:13:21Z</time>
      </trkpt>
      <trkpt lat="45.44447" lon="5.83505">
        <ele>999</ele>
        <time>2016-05-23T18:15:21Z</time>
      </trkpt>
      <trkpt lat="45.44442" lon="5.83504">
        <ele>997</ele>
        <time>2016-05-23T18:17:21Z</time>
      </trkpt>
      <trkpt lat="45.44437" lon="5.83506">
        <ele>996</ele>
        <time>2016-05-23T18:19:21Z</time>
      </trkpt>
      <trkpt lat="45.44433" lon="5.83509">
        <ele>995</ele>
        <time>2016-05-23T18:21:21Z</time>
      </trkpt>
      <trkpt lat="45.4443" lon="5.83515">
        <ele>994</ele>
        <time>2016-05-23T18:23:21Z</time>
      </trkpt>
      <trkpt lat="45.44429" lon="5.83522">
        <ele>993</ele>
        <time>2016-05-23T18:25:21Z</time>
      </trkpt>
      <trkpt lat="45.44428" lon="5.83533">
        <ele>993</ele>
        <time>2016-05-23T18:27:21Z</time>
      </trkpt>
      <trkpt lat="45.44427" lon="5.83631">
        <ele>988</ele>
        <time>2016-05-23T18:29:21Z</time>
      </trkpt>
      <trkpt lat="45.44423" lon="5.83699">
        <ele>983</ele>
        <time>2016-05-23T18:31:21Z</time>
      </trkpt>
      <trkpt lat="45.44423" lon="5.83709">
        <ele>982</ele>
        <time>2016-05-23T18:33:21Z</time>
      </trkpt>
      <trkpt lat="45.44421" lon="5.8372">
        <ele>981</ele>
        <time>2016-05-23T18:35:21Z</time>
      </trkpt>
      <trkpt lat="45.44417" lon="5.83728">
        <ele>980</ele>
        <time>2016-05-23T18:37:21Z</time>
      </trkpt>
      <trkpt lat="45.44414" lon="5.8373">
        <ele>980</ele>
        <time>2016-05-23T18:39:21Z</time>
      </trkpt>
      <trkpt lat="45.4441" lon="5.8373">
        <ele>979</ele>
        <time>2016-05-23T18:41:21Z</time>
      </trkpt>
      <trkpt lat="45.44401" lon="5.8373">
        <ele>978</ele>
        <time>2016-05-23T18:43:21Z</time>
      </trkpt>
      <trkpt lat="45.44392" lon="5.83724">
        <ele>977</ele>
        <time>2016-05-23T18:45:21Z</time>
      </trkpt>
      <trkpt lat="45.44385" lon="5.83714">
        <ele>976</ele>
        <time>2016-05-23T18:47:21Z</time>
      </trkpt>
      <trkpt lat="45.4438" lon="5.83706">
        <ele>976</ele>
        <time>2016-05-23T18:49:21Z</time>
      </trkpt>
      <trkpt lat="45.44376" lon="5.83696">
        <ele>975</ele>
        <time>2016-05-23T18:51:21Z</time>
      </trkpt>
      <trkpt lat="45.44367" lon="5.83666">
        <ele>975</ele>
        <time>2016-05-23T18:53:21Z</time>
      </trkpt>
      <trkpt lat="45.44363" lon="5.83657">
        <ele>974</ele>
        <time>2016-05-23T18:55:21Z</time>
      </trkpt>
      <trkpt lat="45.44351" lon="5.83637">
        <ele>971</ele>
        <time>2016-05-23T18:57:21Z</time>
      </trkpt>
      <trkpt lat="45.44339" lon="5.83612">
        <ele>968</ele>
        <time>2016-05-23T18:59:21Z</time>
      </trkpt>
      <trkpt lat="45.44317" lon="5.83572">
        <ele>963</ele>
        <time>2016-05-23T19:01:21Z</time>
      </trkpt>
      <trkpt lat="45.44296" lon="5.83529">
        <ele>960</ele>
        <time>2016-05-23T19:03:21Z</time>
      </trkpt>
      <trkpt lat="45.44282" lon="5.83506">
        <ele>959</ele>
        <time>2016-05-23T19:05:21Z</time>
      </trkpt>
      <trkpt lat="45.44272" lon="5.83493">
        <ele>958</ele>
        <time>2016-05-23T19:07:21Z</time>
      </trkpt>
      <trkpt lat="45.44261" lon="5.83482">
        <ele>957</ele>
        <time>2016-05-23T19:09:21Z</time>
      </trkpt>
      <trkpt lat="45.44252" lon="5.83477">
        <ele>955</ele>
        <time>2016-05-23T19:11:21Z</time>
      </trkpt>
      <trkpt lat="45.44218" lon="5.83464">
        <ele>951</ele>
        <time>2016-05-23T19:13:21Z</time>
      </trkpt>
      <trkpt lat="45.44205" lon="5.83462">
        <ele>950</ele>
        <time>2016-05-23T19:15:21Z</time>
      </trkpt>
      <trkpt lat="45.44186" lon="5.83458">
        <ele>947</ele>
        <time>2016-05-23T19:17:21Z</time>
      </trkpt>
      <trkpt lat="45.4415" lon="5.83447">
        <ele>943</ele>
        <time>2016-05-23T19:19:21Z</time>
      </trkpt>
      <trkpt lat="45.4414" lon="5.83446">
        <ele>942</ele>
        <time>2016-05-23T19:21:21Z</time>
      </trkpt>
      <trkpt lat="45.44118" lon="5.83447">
        <ele>940</ele>
        <time>2016-05-23T19:23:21Z</time>
      </trkpt>
      <trkpt lat="45.44102" lon="5.83447">
        <ele>939</ele>
        <time>2016-05-23T19:25:21Z</time>
      </trkpt>
      <trkpt lat="45.44075" lon="5.8345">
        <ele>936</ele>
        <time>2016-05-23T19:27:21Z</time>
      </trkpt>
      <trkpt lat="45.44068" lon="5.83449">
        <ele>935</ele>
        <time>2016-05-23T19:29:21Z</time>
      </trkpt>
      <trkpt lat="45.4406" lon="5.83445">
        <ele>935</ele>
        <time>2016-05-23T19:31:21Z</time>
      </trkpt>
      <trkpt lat="45.44052" lon="5.83436">
        <ele>935</ele>
        <time>2016-05-23T19:33:21Z</time>
      </trkpt>
      <trkpt lat="45.44046" lon="5.83426">
        <ele>935</ele>
        <time>2016-05-23T19:35:21Z</time>
      </trkpt>
      <trkpt lat="45.4404" lon="5.83414">
        <ele>935</ele>
        <time>2016-05-23T19:37:21Z</time>
      </trkpt>
      <trkpt lat="45.44028" lon="5.83391">
        <ele>935</ele>
        <time>2016-05-23T19:39:21Z</time>
      </trkpt>
      <trkpt lat="45.44013" lon="5.8337">
        <ele>933</ele>
        <time>2016-05-23T19:41:21Z</time>
      </trkpt>
      <trkpt lat="45.44001" lon="5.83358">
        <ele>931</ele>
        <time>2016-05-23T19:43:21Z</time>
      </trkpt>
      <trkpt lat="45.43988" lon="5.83346">
        <ele>928</ele>
        <time>2016-05-23T19:45:21Z</time>
      </trkpt>
      <trkpt lat="45.43974" lon="5.83333">
        <ele>926</ele>
        <time>2016-05-23T19:47:21Z</time>
      </trkpt>
      <trkpt lat="45.43964" lon="5.83318">
        <ele>926</ele>
        <time>2016-05-23T19:49:21Z</time>
      </trkpt>
      <trkpt lat="45.43956" lon="5.83305">
        <ele>925</ele>
        <time>2016-05-23T19:51:21Z</time>
      </trkpt>
      <trkpt lat="45.43945" lon="5.83292">
        <ele>924</ele>
        <time>2016-05-23T19:53:21Z</time>
      </trkpt>
      <trkpt lat="45.43929" lon="5.83282">
        <ele>920</ele>
        <time>2016-05-23T19:55:21Z</time>
      </trkpt>
      <trkpt lat="45.43915" lon="5.83274">
        <ele>917</ele>
        <time>2016-05-23T19:57:21Z</time>
      </trkpt>
      <trkpt lat="45.4389" lon="5.83262">
        <ele>914</ele>
        <time>2016-05-23T19:59:21Z</time>
      </trkpt>
      <trkpt lat="45.43885" lon="5.83258">
        <ele>914</ele>
        <time>2016-05-23T20:01:21Z</time>
      </trkpt>
      <trkpt lat="45.43884" lon="5.83258">
        <ele>914</ele>
        <time>2016-05-23T20:03:21Z</time>
      </trkpt>
      <trkpt lat="45.43873" lon="5.83248">
        <ele>913</ele>
        <time>2016-05-23T20:05:21Z</time>
      </trkpt>
      <trkpt lat="45.43849" lon="5.83221">
        <ele>912</ele>
        <time>2016-05-23T20:07:21Z</time>
      </trkpt>
      <trkpt lat="45.4381" lon="5.83185">
        <ele>907</ele>
        <time>2016-05-23T20:09:21Z</time>
      </trkpt>
      <trkpt lat="45.43792" lon="5.83169">
        <ele>905</ele>
        <time>2016-05-23T20:11:21Z</time>
      </trkpt>
      <trkpt lat="45.43767" lon="5.83144">
        <ele>906</ele>
        <time>2016-05-23T20:13:21Z</time>
      </trkpt>
      <trkpt lat="45.43755" lon="5.83132">
        <ele>906</ele>
        <time>2016-05-23T20:15:21Z</time>
      </trkpt>
      <trkpt lat="45.43732" lon="5.8311">
        <ele>904</ele>
        <time>2016-05-23T20:17:21Z</time>
      </trkpt>
      <trkpt lat="45.43714" lon="5.83095">
        <ele>902</ele>
        <time>2016-05-23T20:19:21Z</time>
      </trkpt>
      <trkpt lat="45.43648" lon="5.83045">
        <ele>893</ele>
        <time>2016-05-23T20:21:21Z</time>
      </trkpt>
      <trkpt lat="45.43569" lon="5.82993">
        <ele>883</ele>
        <time>2016-05-23T20:23:21Z</time>
      </trkpt>
      <trkpt lat="45.43557" lon="5.82988">
        <ele>882</ele>
        <time>2016-05-23T20:25:21Z</time>
      </trkpt>
      <trkpt lat="45.43538" lon="5.82983">
        <ele>878</ele>
        <time>2016-05-23T20:27:21Z</time>
      </trkpt>
      <trkpt lat="45.43512" lon="5.82971">
        <ele>874</ele>
        <time>2016-05-23T20:29:21Z</time>
      </trkpt>
      <trkpt lat="45.43499" lon="5.8296">
        <ele>873</ele>
        <time>2016-05-23T20:31:21Z</time>
      </trkpt>
      <trkpt lat="45.43457" lon="5.82923">
        <ele>867</ele>
        <time>2016-05-23T20:33:21Z</time>
      </trkpt>
      <trkpt lat="45.43414" lon="5.82881">
        <ele>867</ele>
        <time>2016-05-23T20:35:21Z</time>
      </trkpt>
      <trkpt lat="45.43381" lon="5.82851">
        <ele>868</ele>
        <time>2016-05-23T20:37:21Z</time>
      </trkpt>
      <trkpt lat="45.43358" lon="5.82827">
        <ele>870</ele>
        <time>2016-05-23T20:39:21Z</time>
      </trkpt>
      <trkpt lat="45.43336" lon="5.82809">
        <ele>871</ele>
        <time>2016-05-23T20:41:21Z</time>
      </trkpt>
      <trkpt lat="45.43312" lon="5.82792">
        <ele>868</ele>
        <time>2016-05-23T20:43:21Z</time>
      </trkpt>
      <trkpt lat="45.43288" lon="5.82777">
        <ele>864</ele>
        <time>2016-05-23T20:45:21Z</time>
      </trkpt>
      <trkpt lat="45.43261" lon="5.82758">
        <ele>858</ele>
        <time>2016-05-23T20:47:21Z</time>
      </trkpt>
      <trkpt lat="45.43217" lon="5.82731">
        <ele>853</ele>
        <time>2016-05-23T20:49:21Z</time>
      </trkpt>
      <trkpt lat="45.43158" lon="5.82691">
        <ele>847</ele>
        <time>2016-05-23T20:51:21Z</time>
      </trkpt>
      <trkpt lat="45.43146" lon="5.82681">
        <ele>847</ele>
        <time>2016-05-23T20:53:21Z</time>
      </trkpt>
      <trkpt lat="45.43134" lon="5.8267">
        <ele>847</ele>
        <time>2016-05-23T20:55:21Z</time>
      </trkpt>
      <trkpt lat="45.43116" lon="5.82659">
        <ele>846</ele>
        <time>2016-05-23T20:57:21Z</time>
      </trkpt>
      <trkpt lat="45.43099" lon="5.82646">
        <ele>846</ele>
        <time>2016-05-23T20:59:21Z</time>
      </trkpt>
      <trkpt lat="45.43085" lon="5.82633">
        <ele>845</ele>
        <time>2016-05-23T21:01:21Z</time>
      </trkpt>
      <trkpt lat="45.43071" lon="5.82616">
        <ele>846</ele>
        <time>2016-05-23T21:03:21Z</time>
      </trkpt>
      <trkpt lat="45.4306" lon="5.82597">
        <ele>847</ele>
        <time>2016-05-23T21:05:21Z</time>
      </trkpt>
      <trkpt lat="45.43048" lon="5.82577">
        <ele>849</ele>
        <time>2016-05-23T21:07:21Z</time>
      </trkpt>
      <trkpt lat="45.4304" lon="5.82568">
        <ele>849</ele>
        <time>2016-05-23T21:09:21Z</time>
      </trkpt>
      <trkpt lat="45.43005" lon="5.82545">
        <ele>843</ele>
        <time>2016-05-23T21:11:21Z</time>
      </trkpt>
      <trkpt lat="45.42985" lon="5.82533">
        <ele>840</ele>
        <time>2016-05-23T21:13:21Z</time>
      </trkpt>
      <trkpt lat="45.42965" lon="5.82515">
        <ele>839</ele>
        <time>2016-05-23T21:15:21Z</time>
      </trkpt>
      <trkpt lat="45.42938" lon="5.82489">
        <ele>839</ele>
        <time>2016-05-23T21:17:21Z</time>
      </trkpt>
      <trkpt lat="45.42921" lon="5.82471">
        <ele>838</ele>
        <time>2016-05-23T21:19:21Z</time>
      </trkpt>
      <trkpt lat="45.42917" lon="5.82465">
        <ele>838</ele>
        <time>2016-05-23T21:21:21Z</time>
      </trkpt>
      <trkpt lat="45.42913" lon="5.82458">
        <ele>837</ele>
        <time>2016-05-23T21:23:21Z</time>
      </trkpt>
      <trkpt lat="45.4291" lon="5.82451">
        <ele>838</ele>
        <time>2016-05-23T21:25:21Z</time>
      </trkpt>
      <trkpt lat="45.42908" lon="5.82443">
        <ele>838</ele>
        <time>2016-05-23T21:27:21Z</time>
      </trkpt>
      <trkpt lat="45.42908" lon="5.82423">
        <ele>841</ele>
        <time>2016-05-23T21:29:21Z</time>
      </trkpt>
      <trkpt lat="45.42908" lon="5.82417">
        <ele>842</ele>
        <time>2016-05-23T21:31:21Z</time>
      </trkpt>
      <trkpt lat="45.4291" lon="5.82387">
        <ele>846</ele>
        <time>2016-05-23T21:33:21Z</time>
      </trkpt>
      <trkpt lat="45.42909" lon="5.82363">
        <ele>848</ele>
        <time>2016-05-23T21:35:21Z</time>
      </trkpt>
      <trkpt lat="45.42909" lon="5.82306">
        <ele>855</ele>
        <time>2016-05-23T21:37:21Z</time>
      </trkpt>
      <trkpt lat="45.42908" lon="5.82284">
        <ele>858</ele>
        <time>2016-05-23T21:39:21Z</time>
      </trkpt>
      <trkpt lat="45.42907" lon="5.82273">
        <ele>859</ele>
        <time>2016-05-23T21:41:21Z</time>
      </trkpt>
      <trkpt lat="45.42908" lon="5.82256">
        <ele>862</ele>
        <time>2016-05-23T21:43:21Z</time>
      </trkpt>
      <trkpt lat="45.42908" lon="5.82245">
        <ele>863</ele>
        <time>2016-05-23T21:45:21Z</time>
      </trkpt>
      <trkpt lat="45.42908" lon="5.82236">
        <ele>864</ele>
        <time>2016-05-23T21:47:21Z</time>
      </trkpt>
      <trkpt lat="45.42906" lon="5.82226">
        <ele>863</ele>
        <time>2016-05-23T21:49:21Z</time>
      </trkpt>
      <trkpt lat="45.42902" lon="5.82212">
        <ele>862</ele>
        <time>2016-05-23T21:51:21Z</time>
      </trkpt>
      <trkpt lat="45.42893" lon="5.82199">
        <ele>857</ele>
        <time>2016-05-23T21:53:21Z</time>
      </trkpt>
      <trkpt lat="45.42888" lon="5.82191">
        <ele>854</ele>
        <time>2016-05-23T21:55:21Z</time>
      </trkpt>
      <trkpt lat="45.42885" lon="5.82182">
        <ele>853</ele>
        <time>2016-05-23T21:57:21Z</time>
      </trkpt>
      <trkpt lat="45.42885" lon="5.82173">
        <ele>853</ele>
        <time>2016-05-23T21:59:21Z</time>
      </trkpt>
      <trkpt lat="45.42886" lon="5.82164">
        <ele>853</ele>
        <time>2016-05-23T22:01:21Z</time>
      </trkpt>
      <trkpt lat="45.42888" lon="5.82151">
        <ele>852</ele>
        <time>2016-05-23T22:03:21Z</time>
      </trkpt>
      <trkpt lat="45.42891" lon="5.82143">
        <ele>852</ele>
        <time>2016-05-23T22:05:21Z</time>
      </trkpt>
      <trkpt lat="45.42897" lon="5.82132">
        <ele>853</ele>
        <time>2016-05-23T22:07:21Z</time>
      </trkpt>
      <trkpt lat="45.42915" lon="5.82102">
        <ele>854</ele>
        <time>2016-05-23T22:09:21Z</time>
      </trkpt>
      <trkpt lat="45.42921" lon="5.82094">
        <ele>856</ele>
        <time>2016-05-23T22:11:21Z</time>
      </trkpt>
      <trkpt lat="45.42925" lon="5.82089">
        <ele>858</ele>
        <time>2016-05-23T22:13:21Z</time>
      </trkpt>
      <trkpt lat="45.4293" lon="5.82086">
        <ele>860</ele>
        <time>2016-05-23T22:15:21Z</time>
      </trkpt>
      <trkpt lat="45.42947" lon="5.8208">
        <ele>871</ele>
        <time>2016-05-23T22:17:21Z</time>
      </trkpt>
      <trkpt lat="45.42954" lon="5.82074">
        <ele>874</ele>
        <time>2016-05-23T22:19:21Z</time>
      </trkpt>
      <trkpt lat="45.4296" lon="5.82069">
        <ele>877</ele>
        <time>2016-05-23T22:21:21Z</time>
      </trkpt>
      <trkpt lat="45.42968" lon="5.82057">
        <ele>879</ele>
        <time>2016-05-23T22:23:21Z</time>
      </trkpt>
      <trkpt lat="45.42984" lon="5.82019">
        <ele>874</ele>
        <time>2016-05-23T22:25:21Z</time>
      </trkpt>
      <trkpt lat="45.42997" lon="5.81966">
        <ele>865</ele>
        <time>2016-05-23T22:27:21Z</time>
      </trkpt>
      <trkpt lat="45.43001" lon="5.8195">
        <ele>863</ele>
        <time>2016-05-23T22:29:21Z</time>
      </trkpt>
      <trkpt lat="45.43003" lon="5.81944">
        <ele>862</ele>
        <time>2016-05-23T22:31:21Z</time>
      </trkpt>
      <trkpt lat="45.43005" lon="5.81939">
        <ele>862</ele>
        <time>2016-05-23T22:33:21Z</time>
      </trkpt>
      <trkpt lat="45.43011" lon="5.81929">
        <ele>863</ele>
        <time>2016-05-23T22:35:21Z</time>
      </trkpt>
      <trkpt lat="45.43023" lon="5.81919">
        <ele>866</ele>
        <time>2016-05-23T22:37:21Z</time>
      </trkpt>
      <trkpt lat="45.43037" lon="5.81912">
        <ele>872</ele>
        <time>2016-05-23T22:39:21Z</time>
      </trkpt>
      <trkpt lat="45.43043" lon="5.81908">
        <ele>874</ele>
        <time>2016-05-23T22:41:21Z</time>
      </trkpt>
      <trkpt lat="45.43046" lon="5.81906">
        <ele>874</ele>
        <time>2016-05-23T22:43:21Z</time>
      </trkpt>
      <trkpt lat="45.43057" lon="5.81897">
        <ele>877</ele>
        <time>2016-05-23T22:45:21Z</time>
      </trkpt>
      <trkpt lat="45.43069" lon="5.81886">
        <ele>879</ele>
        <time>2016-05-23T22:47:21Z</time>
      </trkpt>
      <trkpt lat="45.43079" lon="5.81874">
        <ele>879</ele>
        <time>2016-05-23T22:49:21Z</time>
      </trkpt>
      <trkpt lat="45.43086" lon="5.8186">
        <ele>876</ele>
        <time>2016-05-23T22:51:21Z</time>
      </trkpt>
      <trkpt lat="45.43091" lon="5.8185">
        <ele>874</ele>
        <time>2016-05-23T22:53:21Z</time>
      </trkpt>
      <trkpt lat="45.43095" lon="5.81842">
        <ele>873</ele>
        <time>2016-05-23T22:55:21Z</time>
      </trkpt>
      <trkpt lat="45.43122" lon="5.81772">
        <ele>869</ele>
        <time>2016-05-23T22:57:21Z</time>
      </trkpt>
      <trkpt lat="45.43139" lon="5.81744">
        <ele>871</ele>
        <time>2016-05-23T22:59:21Z</time>
      </trkpt>
      <trkpt lat="45.43172" lon="5.81687">
        <ele>873</ele>
        <time>2016-05-23T23:01:21Z</time>
      </trkpt>
      <trkpt lat="45.4319" lon="5.81659">
        <ele>870</ele>
        <time>2016-05-23T23:03:21Z</time>
      </trkpt>
      <trkpt lat="45.43198" lon="5.81645">
        <ele>868</ele>
        <time>2016-05-23T23:05:21Z</time>
      </trkpt>
      <trkpt lat="45.43204" lon="5.81639">
        <ele>867</ele>
        <time>2016-05-23T23:07:21Z</time>
      </trkpt>
      <trkpt lat="45.43212" lon="5.81635">
        <ele>868</ele>
        <time>2016-05-23T23:09:21Z</time>
      </trkpt>
      <trkpt lat="45.43221" lon="5.81634">
        <ele>869</ele>
        <time>2016-05-23T23:11:21Z</time>
      </trkpt>
      <trkpt lat="45.43227" lon="5.81635">
        <ele>871</ele>
        <time>2016-05-23T23:13:21Z</time>
      </trkpt>
      <trkpt lat="45.43232" lon="5.81638">
        <ele>873</ele>
        <time>2016-05-23T23:15:21Z</time>
      </trkpt>
      <trkpt lat="45.43236" lon="5.81644">
        <ele>876</ele>
        <time>2016-05-23T23:17:21Z</time>
      </trkpt>
      <trkpt lat="45.4324" lon="5.81651">
        <ele>880</ele>
        <time>2016-05-23T23:19:21Z</time>
      </trkpt>
      <trkpt lat="45.43244" lon="5.81659">
        <ele>883</ele>
        <time>2016-05-23T23:21:21Z</time>
      </trkpt>
      <trkpt lat="45.43249" lon="5.81667">
        <ele>887</ele>
        <time>2016-05-23T23:23:21Z</time>
      </trkpt>
      <trkpt lat="45.43255" lon="5.81672">
        <ele>890</ele>
        <time>2016-05-23T23:25:21Z</time>
      </trkpt>
      <trkpt lat="45.43261" lon="5.81673">
        <ele>891</ele>
        <time>2016-05-23T23:27:21Z</time>
      </trkpt>
      <trkpt lat="45.43268" lon="5.81672">
        <ele>892</ele>
        <time>2016-05-23T23:29:21Z</time>
      </trkpt>
      <trkpt lat="45.43275" lon="5.81667">
        <ele>892</ele>
        <time>2016-05-23T23:31:21Z</time>
      </trkpt>
      <trkpt lat="45.43288" lon="5.81649">
        <ele>887</ele>
        <time>2016-05-23T23:33:21Z</time>
      </trkpt>
      <trkpt lat="45.43291" lon="5.81646">
        <ele>886</ele>
        <time>2016-05-23T23:35:21Z</time>
      </trkpt>
      <trkpt lat="45.43293" lon="5.81643">
        <ele>885</ele>
        <time>2016-05-23T23:37:21Z</time>
      </trkpt>
      <trkpt lat="45.43299" lon="5.81637">
        <ele>883</ele>
        <time>2016-05-23T23:39:21Z</time>
      </trkpt>
      <trkpt lat="45.43304" lon="5.81631">
        <ele>881</ele>
        <time>2016-05-23T23:41:21Z</time>
      </trkpt>
      <trkpt lat="45.43309" lon="5.81627">
        <ele>879</ele>
        <time>2016-05-23T23:43:21Z</time>
      </trkpt>
      <trkpt lat="45.43315" lon="5.81627">
        <ele>880</ele>
        <time>2016-05-23T23:45:21Z</time>
      </trkpt>
      <trkpt lat="45.43318" lon="5.81627">
        <ele>880</ele>
        <time>2016-05-23T23:47:21Z</time>
      </trkpt>
      <trkpt lat="45.43321" lon="5.81628">
        <ele>881</ele>
        <time>2016-05-23T23:49:21Z</time>
      </trkpt>
      <trkpt lat="45.43325" lon="5.81632">
        <ele>883</ele>
        <time>2016-05-23T23:51:21Z</time>
      </trkpt>
      <trkpt lat="45.4333" lon="5.81637">
        <ele>886</ele>
        <time>2016-05-23T23:53:21Z</time>
      </trkpt>
      <trkpt lat="45.43338" lon="5.81642">
        <ele>890</ele>
        <time>2016-05-23T23:55:21Z</time>
      </trkpt>
      <trkpt lat="45.43346" lon="5.81645">
        <ele>892</ele>
        <time>2016-05-23T23:57:21Z</time>
      </trkpt>
      <trkpt lat="45.43354" lon="5.81646">
        <ele>893</ele>
        <time>2016-05-23T23:59:21Z</time>
      </trkpt>
      <trkpt lat="45.43362" lon="5.81647">
        <ele>894</ele>
        <time>2016-05-24T00:01:21Z</time>
      </trkpt>
      <trkpt lat="45.43368" lon="5.81644">
        <ele>893</ele>
        <time>2016-05-24T00:03:21Z</time>
      </trkpt>
      <trkpt lat="45.43374" lon="5.81638">
        <ele>890</ele>
        <time>2016-05-24T00:05:21Z</time>
      </trkpt>
      <trkpt lat="45.43378" lon="5.8163">
        <ele>886</ele>
        <time>2016-05-24T00:07:21Z</time>
      </trkpt>
      <trkpt lat="45.43382" lon="5.81625">
        <ele>883</ele>
        <time>2016-05-24T00:09:21Z</time>
      </trkpt>
      <trkpt lat="45.43386" lon="5.81622">
        <ele>882</ele>
        <time>2016-05-24T00:11:21Z</time>
      </trkpt>
      <trkpt lat="45.43393" lon="5.81622">
        <ele>882</ele>
        <time>2016-05-24T00:13:21Z</time>
      </trkpt>
      <trkpt lat="45.43398" lon="5.81623">
        <ele>883</ele>
        <time>2016-05-24T00:15:21Z</time>
      </trkpt>
      <trkpt lat="45.43405" lon="5.81627">
        <ele>886</ele>
        <time>2016-05-24T00:17:21Z</time>
      </trkpt>
      <trkpt lat="45.43414" lon="5.8163">
        <ele>888</ele>
        <time>2016-05-24T00:19:21Z</time>
      </trkpt>
      <trkpt lat="45.43421" lon="5.81632">
        <ele>890</ele>
        <time>2016-05-24T00:21:21Z</time>
      </trkpt>
      <trkpt lat="45.43437" lon="5.8164">
        <ele>898</ele>
        <time>2016-05-24T00:23:21Z</time>
      </trkpt>
      <trkpt lat="45.43445" lon="5.81643">
        <ele>901</ele>
        <time>2016-05-24T00:25:21Z</time>
      </trkpt>
      <trkpt lat="45.43454" lon="5.81645">
        <ele>903</ele>
        <time>2016-05-24T00:27:21Z</time>
      </trkpt>
      <trkpt lat="45.43472" lon="5.81644">
        <ele>905</ele>
        <time>2016-05-24T00:29:21Z</time>
      </trkpt>
      <trkpt lat="45.43482" lon="5.81646">
        <ele>908</ele>
        <time>2016-05-24T00:31:21Z</time>
      </trkpt>
      <trkpt lat="45.43496" lon="5.8165">
        <ele>911</ele>
        <time>2016-05-24T00:33:21Z</time>
      </trkpt>
      <trkpt lat="45.43504" lon="5.8165">
        <ele>913</ele>
        <time>2016-05-24T00:35:21Z</time>
      </trkpt>
      <trkpt lat="45.43509" lon="5.81648">
        <ele>914</ele>
        <time>2016-05-24T00:37:21Z</time>
      </trkpt>
      <trkpt lat="45.43511" lon="5.81645">
        <ele>914</ele>
        <time>2016-05-24T00:39:21Z</time>
      </trkpt>
      <trkpt lat="45.43512" lon="5.81642">
        <ele>913</ele>
        <time>2016-05-24T00:41:21Z</time>
      </trkpt>
      <trkpt lat="45.43513" lon="5.81636">
        <ele>911</ele>
        <time>2016-05-24T00:43:21Z</time>
      </trkpt>
      <trkpt lat="45.43513" lon="5.81626">
        <ele>909</ele>
        <time>2016-05-24T00:45:21Z</time>
      </trkpt>
      <trkpt lat="45.43512" lon="5.81613">
        <ele>904</ele>
        <time>2016-05-24T00:47:21Z</time>
      </trkpt>
      <trkpt lat="45.43511" lon="5.81601">
        <ele>901</ele>
        <time>2016-05-24T00:49:21Z</time>
      </trkpt>
      <trkpt lat="45.43509" lon="5.81589">
        <ele>896</ele>
        <time>2016-05-24T00:51:21Z</time>
      </trkpt>
      <trkpt lat="45.43503" lon="5.81569">
        <ele>887</ele>
        <time>2016-05-24T00:53:21Z</time>
      </trkpt>
      <trkpt lat="45.43501" lon="5.81557">
        <ele>882</ele>
        <time>2016-05-24T00:55:21Z</time>
      </trkpt>
      <trkpt lat="45.43499" lon="5.81549">
        <ele>878</ele>
        <time>2016-05-24T00:57:21Z</time>
      </trkpt>
      <trkpt lat="45.43498" lon="5.81543">
        <ele>876</ele>
        <time>2016-05-24T00:59:21Z</time>
      </trkpt>
      <trkpt lat="45.43497" lon="5.81532">
        <ele>871</ele>
        <time>2016-05-24T01:01:21Z</time>
      </trkpt>
      <trkpt lat="45.435" lon="5.81523">
        <ele>869</ele>
        <time>2016-05-24T01:03:21Z</time>
      </trkpt>
      <trkpt lat="45.43504" lon="5.81518">
        <ele>871</ele>
        <time>2016-05-24T01:05:21Z</time>
      </trkpt>
      <trkpt lat="45.43535" lon="5.81491">
        <ele>893</ele>
        <time>2016-05-24T01:07:21Z</time>
      </trkpt>
      <trkpt lat="45.4354" lon="5.81484">
        <ele>896</ele>
        <time>2016-05-24T01:09:21Z</time>
      </trkpt>
      <trkpt lat="45.43546" lon="5.81473">
        <ele>899</ele>
        <time>2016-05-24T01:11:21Z</time>
      </trkpt>
      <trkpt lat="45.43551" lon="5.81462">
        <ele>900</ele>
        <time>2016-05-24T01:13:21Z</time>
      </trkpt>
      <trkpt lat="45.43554" lon="5.81452">
        <ele>899</ele>
        <time>2016-05-24T01:15:21Z</time>
      </trkpt>
      <trkpt lat="45.43556" lon="5.81436">
        <ele>896</ele>
        <time>2016-05-24T01:17:21Z</time>
      </trkpt>
      <trkpt lat="45.43556" lon="5.81421">
        <ele>891</ele>
        <time>2016-05-24T01:19:21Z</time>
      </trkpt>
      <trkpt lat="45.43554" lon="5.81403">
        <ele>889</ele>
        <time>2016-05-24T01:21:21Z</time>
      </trkpt>
      <trkpt lat="45.43551" lon="5.8139">
        <ele>888</ele>
        <time>2016-05-24T01:23:21Z</time>
      </trkpt>
      <trkpt lat="45.43536" lon="5.8136">
        <ele>883</ele>
        <time>2016-05-24T01:25:21Z</time>
      </trkpt>
      <trkpt lat="45.43505" lon="5.81321">
        <ele>874</ele>
        <time>2016-05-24T01:27:21Z</time>
      </trkpt>
      <trkpt lat="45.43498" lon="5.81309">
        <ele>871</ele>
        <time>2016-05-24T01:29:21Z</time>
      </trkpt>
      <trkpt lat="45.43496" lon="5.81302">
        <ele>871</ele>
        <time>2016-05-24T01:31:21Z</time>
      </trkpt>
      <trkpt lat="45.43495" lon="5.81296">
        <ele>871</ele>
        <time>2016-05-24T01:33:21Z</time>
      </trkpt>
      <trkpt lat="45.43496" lon="5.81289">
        <ele>871</ele>
        <time>2016-05-24T01:35:21Z</time>
      </trkpt>
      <trkpt lat="45.43497" lon="5.81281">
        <ele>871</ele>
        <time>2016-05-24T01:37:21Z</time>
      </trkpt>
      <trkpt lat="45.43498" lon="5.81271">
        <ele>872</ele>
        <time>2016-05-24T01:39:21Z</time>
      </trkpt>
      <trkpt lat="45.43499" lon="5.8126">
        <ele>872</ele>
        <time>2016-05-24T01:41:21Z</time>
      </trkpt>
      <trkpt lat="45.43499" lon="5.81252">
        <ele>872</ele>
        <time>2016-05-24T01:43:21Z</time>
      </trkpt>
      <trkpt lat="45.435" lon="5.8124">
        <ele>872</ele>
        <time>2016-05-24T01:45:21Z</time>
      </trkpt>
      <trkpt lat="45.43501" lon="5.81234">
        <ele>872</ele>
        <time>2016-05-24T01:47:21Z</time>
      </trkpt>
      <trkpt lat="45.43506" lon="5.81229">
        <ele>873</ele>
        <time>2016-05-24T01:49:21Z</time>
      </trkpt>
      <trkpt lat="45.4351" lon="5.81227">
        <ele>875</ele>
        <time>2016-05-24T01:51:21Z</time>
      </trkpt>
      <trkpt lat="45.43515" lon="5.81226">
        <ele>876</ele>
        <time>2016-05-24T01:53:21Z</time>
      </trkpt>
      <trkpt lat="45.43525" lon="5.81228">
        <ele>880</ele>
        <time>2016-05-24T01:55:21Z</time>
      </trkpt>
      <trkpt lat="45.43535" lon="5.81229">
        <ele>884</ele>
        <time>2016-05-24T01:57:21Z</time>
      </trkpt>
      <trkpt lat="45.43543" lon="5.81226">
        <ele>886</ele>
        <time>2016-05-24T01:59:21Z</time>
      </trkpt>
      <trkpt lat="45.43549" lon="5.81221">
        <ele>888</ele>
        <time>2016-05-24T02:01:21Z</time>
      </trkpt>
      <trkpt lat="45.43554" lon="5.81213">
        <ele>889</ele>
        <time>2016-05-24T02:03:21Z</time>
      </trkpt>
      <trkpt lat="45.43557" lon="5.81202">
        <ele>888</ele>
        <time>2016-05-24T02:05:21Z</time>
      </trkpt>
      <trkpt lat="45.43558" lon="5.81192">
        <ele>887</ele>
        <time>2016-05-24T02:07:21Z</time>
      </trkpt>
      <trkpt lat="45.43557" lon="5.81174">
        <ele>884</ele>
        <time>2016-05-24T02:09:21Z</time>
      </trkpt>
      <trkpt lat="45.43553" lon="5.81161">
        <ele>883</ele>
        <time>2016-05-24T02:11:21Z</time>
      </trkpt>
      <trkpt lat="45.43549" lon="5.81147">
        <ele>884</ele>
        <time>2016-05-24T02:13:21Z</time>
      </trkpt>
      <trkpt lat="45.43546" lon="5.81136">
        <ele>885</ele>
        <time>2016-05-24T02:15:21Z</time>
      </trkpt>
      <trkpt lat="45.4354" lon="5.81123">
        <ele>886</ele>
        <time>2016-05-24T02:17:21Z</time>
      </trkpt>
      <trkpt lat="45.43526" lon="5.8111">
        <ele>885</ele>
        <time>2016-05-24T02:19:21Z</time>
      </trkpt>
      <trkpt lat="45.43512" lon="5.81101">
        <ele>884</ele>
        <time>2016-05-24T02:21:21Z</time>
      </trkpt>
      <trkpt lat="45.43501" lon="5.81093">
        <ele>883</ele>
        <time>2016-05-24T02:23:21Z</time>
      </trkpt>
      <trkpt lat="45.43496" lon="5.81088">
        <ele>883</ele>
        <time>2016-05-24T02:25:21Z</time>
      </trkpt>
      <trkpt lat="45.4349" lon="5.81077">
        <ele>882</ele>
        <time>2016-05-24T02:27:21Z</time>
      </trkpt>
      <trkpt lat="45.43488" lon="5.81067">
        <ele>882</ele>
        <time>2016-05-24T02:29:21Z</time>
      </trkpt>
      <trkpt lat="45.43487" lon="5.81054">
        <ele>883</ele>
        <time>2016-05-24T02:31:21Z</time>
      </trkpt>
      <trkpt lat="45.43487" lon="5.81037">
        <ele>884</ele>
        <time>2016-05-24T02:33:21Z</time>
      </trkpt>
      <trkpt lat="45.43488" lon="5.81017">
        <ele>886</ele>
        <time>2016-05-24T02:35:21Z</time>
      </trkpt>
      <trkpt lat="45.43491" lon="5.81004">
        <ele>888</ele>
        <time>2016-05-24T02:37:21Z</time>
      </trkpt>
      <trkpt lat="45.43495" lon="5.80992">
        <ele>890</ele>
        <time>2016-05-24T02:39:21Z</time>
      </trkpt>
      <trkpt lat="45.43502" lon="5.80981">
        <ele>891</ele>
        <time>2016-05-24T02:41:21Z</time>
      </trkpt>
      <trkpt lat="45.43514" lon="5.80965">
        <ele>891</ele>
        <time>2016-05-24T02:43:21Z</time>
      </trkpt>
      <trkpt lat="45.43519" lon="5.80957">
        <ele>891</ele>
        <time>2016-05-24T02:45:21Z</time>
      </trkpt>
      <trkpt lat="45.43528" lon="5.80942">
        <ele>891</ele>
        <time>2016-05-24T02:47:21Z</time>
      </trkpt>
      <trkpt lat="45.43532" lon="5.80934">
        <ele>891</ele>
        <time>2016-05-24T02:49:21Z</time>
      </trkpt>
      <trkpt lat="45.43537" lon="5.8093">
        <ele>892</ele>
        <time>2016-05-24T02:51:21Z</time>
      </trkpt>
      <trkpt lat="45.43542" lon="5.80926">
        <ele>893</ele>
        <time>2016-05-24T02:53:21Z</time>
      </trkpt>
      <trkpt lat="45.43548" lon="5.80925">
        <ele>894</ele>
        <time>2016-05-24T02:55:21Z</time>
      </trkpt>
      <trkpt lat="45.43561" lon="5.80929">
        <ele>897</ele>
        <time>2016-05-24T02:57:21Z</time>
      </trkpt>
      <trkpt lat="45.43591" lon="5.80939">
        <ele>903</ele>
        <time>2016-05-24T02:59:21Z</time>
      </trkpt>
      <trkpt lat="45.43603" lon="5.80942">
        <ele>903</ele>
        <time>2016-05-24T03:01:21Z</time>
      </trkpt>
      <trkpt lat="45.43606" lon="5.80943">
        <ele>903</ele>
        <time>2016-05-24T03:03:21Z</time>
      </trkpt>
      <trkpt lat="45.43629" lon="5.80951">
        <ele>904</ele>
        <time>2016-05-24T03:05:21Z</time>
      </trkpt>
      <trkpt lat="45.43647" lon="5.80953">
        <ele>904</ele>
        <time>2016-05-24T03:07:21Z</time>
      </trkpt>
      <trkpt lat="45.43657" lon="5.80952">
        <ele>904</ele>
        <time>2016-05-24T03:09:21Z</time>
      </trkpt>
      <trkpt lat="45.43676" lon="5.80949">
        <ele>904</ele>
        <time>2016-05-24T03:11:21Z</time>
      </trkpt>
      <trkpt lat="45.43686" lon="5.80947">
        <ele>905</ele>
        <time>2016-05-24T03:13:21Z</time>
      </trkpt>
      <trkpt lat="45.43704" lon="5.8094">
        <ele>905</ele>
        <time>2016-05-24T03:15:21Z</time>
      </trkpt>
      <trkpt lat="45.43709" lon="5.8094">
        <ele>905</ele>
        <time>2016-05-24T03:17:21Z</time>
      </trkpt>
      <trkpt lat="45.43711" lon="5.80939">
        <ele>905</ele>
        <time>2016-05-24T03:19:21Z</time>
      </trkpt>
      <trkpt lat="45.43718" lon="5.80941">
        <ele>906</ele>
        <time>2016-05-24T03:21:21Z</time>
      </trkpt>
      <trkpt lat="45.43751" lon="5.80962">
        <ele>911</ele>
        <time>2016-05-24T03:23:21Z</time>
      </trkpt>
      <trkpt lat="45.43766" lon="5.8097">
        <ele>914</ele>
        <time>2016-05-24T03:25:21Z</time>
      </trkpt>
      <trkpt lat="45.43773" lon="5.80973">
        <ele>915</ele>
        <time>2016-05-24T03:27:21Z</time>
      </trkpt>
      <trkpt lat="45.43779" lon="5.80973">
        <ele>915</ele>
        <time>2016-05-24T03:29:21Z</time>
      </trkpt>
      <trkpt lat="45.43798" lon="5.80971">
        <ele>917</ele>
        <time>2016-05-24T03:31:21Z</time>
      </trkpt>
      <trkpt lat="45.43823" lon="5.8097">
        <ele>920</ele>
        <time>2016-05-24T03:33:21Z</time>
      </trkpt>
      <trkpt lat="45.43845" lon="5.80967">
        <ele>921</ele>
        <time>2016-05-24T03:35:21Z</time>
      </trkpt>
      <trkpt lat="45.43876" lon="5.80963">
        <ele>923</ele>
        <time>2016-05-24T03:37:21Z</time>
      </trkpt>
      <trkpt lat="45.4389" lon="5.80963">
        <ele>924</ele>
        <time>2016-05-24T03:39:21Z</time>
      </trkpt>
      <trkpt lat="45.43901" lon="5.80963">
        <ele>925</ele>
        <time>2016-05-24T03:41:21Z</time>
      </trkpt>
      <trkpt lat="45.43912" lon="5.80966">
        <ele>925</ele>
        <time>2016-05-24T03:43:21Z</time>
      </trkpt>
      <trkpt lat="45.43944" lon="5.8097">
        <ele>929</ele>
        <time>2016-05-24T03:45:21Z</time>
      </trkpt>
      <trkpt lat="45.43964" lon="5.80978">
        <ele>931</ele>
        <time>2016-05-24T03:47:21Z</time>
      </trkpt>
      <trkpt lat="45.43977" lon="5.80985">
        <ele>932</ele>
        <time>2016-05-24T03:49:21Z</time>
      </trkpt>
      <trkpt lat="45.43977" lon="5.80986">
        <ele>932</ele>
        <time>2016-05-24T03:51:21Z</time>
      </trkpt>
      <trkpt lat="45.44019" lon="5.81006">
        <ele>935</ele>
        <time>2016-05-24T03:53:21Z</time>
      </trkpt>
      <trkpt lat="45.44047" lon="5.81015">
        <ele>939</ele>
        <time>2016-05-24T03:55:21Z</time>
      </trkpt>
      <trkpt lat="45.44064" lon="5.81019">
        <ele>941</ele>
        <time>2016-05-24T03:57:21Z</time>
      </trkpt>
      <trkpt lat="45.44097" lon="5.81023">
        <ele>944</ele>
        <time>2016-05-24T03:59:21Z</time>
      </trkpt>
      <trkpt lat="45.44145" lon="5.81035">
        <ele>949</ele>
        <time>2016-05-24T04:01:21Z</time>
      </trkpt>
      <trkpt lat="45.44218" lon="5.81055">
        <ele>956</ele>
        <time>2016-05-24T04:03:21Z</time>
      </trkpt>
      <trkpt lat="45.44302" lon="5.8109">
        <ele>964</ele>
        <time>2016-05-24T04:05:21Z</time>
      </trkpt>
      <trkpt lat="45.4432" lon="5.81099">
        <ele>967</ele>
        <time>2016-05-24T04:07:21Z</time>
      </trkpt>
      <trkpt lat="45.44344" lon="5.81115">
        <ele>968</ele>
        <time>2016-05-24T04:09:21Z</time>
      </trkpt>
      <trkpt lat="45.44356" lon="5.81126">
        <ele>968</ele>
        <time>2016-05-24T04:11:21Z</time>
      </trkpt>
      <trkpt lat="45.44383" lon="5.81147">
        <ele>968</ele>
        <time>2016-05-24T04:13:21Z</time>
      </trkpt>
      <trkpt lat="45.44409" lon="5.81172">
        <ele>967</ele>
        <time>2016-05-24T04:15:21Z</time>
      </trkpt>
      <trkpt lat="45.44437" lon="5.81195">
        <ele>968</ele>
        <time>2016-05-24T04:17:21Z</time>
      </trkpt>
      <trkpt lat="45.44447" lon="5.81204">
        <ele>969</ele>
        <time>2016-05-24T04:19:21Z</time>
      </trkpt>
      <trkpt lat="45.44542" lon="5.81273">
        <ele>973</ele>
        <time>2016-05-24T04:21:21Z</time>
      </trkpt>
      <trkpt lat="45.44571" lon="5.81293">
        <ele>972</ele>
        <time>2016-05-24T04:23:21Z</time>
      </trkpt>
      <trkpt lat="45.44588" lon="5.81307">
        <ele>970</ele>
        <time>2016-05-24T04:25:21Z</time>
      </trkpt>
      <trkpt lat="45.44611" lon="5.81329">
        <ele>968</ele>
        <time>2016-05-24T04:27:21Z</time>
      </trkpt>
      <trkpt lat="45.44627" lon="5.81346">
        <ele>968</ele>
        <time>2016-05-24T04:29:21Z</time>
      </trkpt>
      <trkpt lat="45.44712" lon="5.81453">
        <ele>961</ele>
        <time>2016-05-24T04:31:21Z</time>
      </trkpt>
      <trkpt lat="45.44743" lon="5.81492">
        <ele>955</ele>
        <time>2016-05-24T04:33:21Z</time>
      </trkpt>
      <trkpt lat="45.44748" lon="5.815">
        <ele>953</ele>
        <time>2016-05-24T04:35:21Z</time>
      </trkpt>
      <trkpt lat="45.44755" lon="5.81508">
        <ele>955</ele>
        <time>2016-05-24T04:37:21Z</time>
      </trkpt>
      <trkpt lat="45.44769" lon="5.81522">
        <ele>957</ele>
        <time>2016-05-24T04:39:21Z</time>
      </trkpt>
      <trkpt lat="45.44784" lon="5.81533">
        <ele>959</ele>
        <time>2016-05-24T04:41:21Z</time>
      </trkpt>
      <trkpt lat="45.44794" lon="5.81537">
        <ele>960</ele>
        <time>2016-05-24T04:43:21Z</time>
      </trkpt>
      <trkpt lat="45.44838" lon="5.81551">
        <ele>961</ele>
        <time>2016-05-24T04:45:21Z</time>
      </trkpt>
      <trkpt lat="45.4485" lon="5.81556">
        <ele>961</ele>
        <time>2016-05-24T04:47:21Z</time>
      </trkpt>
      <trkpt lat="45.44873" lon="5.81566">
        <ele>961</ele>
        <time>2016-05-24T04:49:21Z</time>
      </trkpt>
      <trkpt lat="45.44879" lon="5.81569">
        <ele>961</ele>
        <time>2016-05-24T04:51:21Z</time>
      </trkpt>
      <trkpt lat="45.44884" lon="5.81572">
        <ele>960</ele>
        <time>2016-05-24T04:53:21Z</time>
      </trkpt>
      <trkpt lat="45.44928" lon="5.81599">
        <ele>958</ele>
        <time>2016-05-24T04:55:21Z</time>
      </trkpt>
      <trkpt lat="45.44963" lon="5.81618">
        <ele>955</ele>
        <time>2016-05-24T04:57:21Z</time>
      </trkpt>
      <trkpt lat="45.44986" lon="5.81629">
        <ele>952</ele>
        <time>2016-05-24T04:59:21Z</time>
      </trkpt>
      <trkpt lat="45.45008" lon="5.81641">
        <ele>948</ele>
        <time>2016-05-24T05:01:21Z</time>
      </trkpt>
      <trkpt lat="45.45061" lon="5.81666">
        <ele>940</ele>
        <time>2016-05-24T05:03:21Z</time>
      </trkpt>
      <trkpt lat="45.45076" lon="5.81673">
        <ele>939</ele>
        <time>2016-05-24T05:05:21Z</time>
      </trkpt>
      <trkpt lat="45.45083" lon="5.81677">
        <ele>938</ele>
        <time>2016-05-24T05:07:21Z</time>
      </trkpt>
      <trkpt lat="45.45097" lon="5.81689">
        <ele>938</ele>
        <time>2016-05-24T05:09:21Z</time>
      </trkpt>
      <trkpt lat="45.45105" lon="5.81696">
        <ele>938</ele>
        <time>2016-05-24T05:11:21Z</time>
      </trkpt>
      <trkpt lat="45.45111" lon="5.81703">
        <ele>938</ele>
        <time>2016-05-24T05:13:21Z</time>
      </trkpt>
      <trkpt lat="45.45129" lon="5.81726">
        <ele>937</ele>
        <time>2016-05-24T05:15:21Z</time>
      </trkpt>
      <trkpt lat="45.45133" lon="5.81731">
        <ele>937</ele>
        <time>2016-05-24T05:17:21Z</time>
      </trkpt>
      <trkpt lat="45.45152" lon="5.81752">
        <ele>936</ele>
        <time>2016-05-24T05:19:21Z</time>
      </trkpt>
      <trkpt lat="45.45204" lon="5.8181">
        <ele>934</ele>
        <time>2016-05-24T05:21:21Z</time>
      </trkpt>
      <trkpt lat="45.45213" lon="5.81821">
        <ele>933</ele>
        <time>2016-05-24T05:23:21Z</time>
      </trkpt>
      <trkpt lat="45.45223" lon="5.81831">
        <ele>932</ele>
        <time>2016-05-24T05:25:21Z</time>
      </trkpt>
      <trkpt lat="45.45251" lon="5.81855">
        <ele>927</ele>
        <time>2016-05-24T05:27:21Z</time>
      </trkpt>
      <trkpt lat="45.4527" lon="5.8187">
        <ele>925</ele>
        <time>2016-05-24T05:29:21Z</time>
      </trkpt>
      <trkpt lat="45.45288" lon="5.81882">
        <ele>922</ele>
        <time>2016-05-24T05:31:21Z</time>
      </trkpt>
      <trkpt lat="45.45305" lon="5.81892">
        <ele>920</ele>
        <time>2016-05-24T05:33:21Z</time>
      </trkpt>
      <trkpt lat="45.45309" lon="5.81895">
        <ele>920</ele>
        <time>2016-05-24T05:35:21Z</time>
      </trkpt>
      <trkpt lat="45.45313" lon="5.81898">
        <ele>919</ele>
        <time>2016-05-24T05:37:21Z</time>
      </trkpt>
      <trkpt lat="45.45317" lon="5.81903">
        <ele>919</ele>
        <time>2016-05-24T05:39:21Z</time>
      </trkpt>
      <trkpt lat="45.45321" lon="5.81906">
        <ele>919</ele>
        <time>2016-05-24T05:41:21Z</time>
      </trkpt>
      <trkpt lat="45.45337" lon="5.81927">
        <ele>920</ele>
        <time>2016-05-24T05:43:21Z</time>
      </trkpt>
      <trkpt lat="45.45343" lon="5.81936">
        <ele>921</ele>
        <time>2016-05-24T05:45:21Z</time>
      </trkpt>
      <trkpt lat="45.45347" lon="5.81941">
        <ele>921</ele>
        <time>2016-05-24T05:47:21Z</time>
      </trkpt>
      <trkpt lat="45.45352" lon="5.81949">
        <ele>922</ele>
        <time>2016-05-24T05:49:21Z</time>
      </trkpt>
      <trkpt lat="45.45358" lon="5.81958">
        <ele>922</ele>
        <time>2016-05-24T05:51:21Z</time>
      </trkpt>
      <trkpt lat="45.45368" lon="5.81975">
        <ele>923</ele>
        <time>2016-05-24T05:53:21Z</time>
      </trkpt>
      <trkpt lat="45.45372" lon="5.8198">
        <ele>923</ele>
        <time>2016-05-24T05:55:21Z</time>
      </trkpt>
      <trkpt lat="45.45375" lon="5.81984">
        <ele>922</ele>
        <time>2016-05-24T05:57:21Z</time>
      </trkpt>
      <trkpt lat="45.45379" lon="5.81989">
        <ele>922</ele>
        <time>2016-05-24T05:59:21Z</time>
      </trkpt>
      <trkpt lat="45.45382" lon="5.81991">
        <ele>922</ele>
        <time>2016-05-24T06:01:21Z</time>
      </trkpt>
      <trkpt lat="45.45386" lon="5.81994">
        <ele>921</ele>
        <time>2016-05-24T06:03:21Z</time>
      </trkpt>
      <trkpt lat="45.4539" lon="5.81997">
        <ele>920</ele>
        <time>2016-05-24T06:05:21Z</time>
      </trkpt>
      <trkpt lat="45.45398" lon="5.82002">
        <ele>919</ele>
        <time>2016-05-24T06:07:21Z</time>
      </trkpt>
      <trkpt lat="45.45402" lon="5.82005">
        <ele>919</ele>
        <time>2016-05-24T06:09:21Z</time>
      </trkpt>
      <trkpt lat="45.45406" lon="5.82007">
        <ele>918</ele>
        <time>2016-05-24T06:11:21Z</time>
      </trkpt>
      <trkpt lat="45.4542" lon="5.82013">
        <ele>916</ele>
        <time>2016-05-24T06:13:21Z</time>
      </trkpt>
      <trkpt lat="45.45425" lon="5.82015">
        <ele>915</ele>
        <time>2016-05-24T06:15:21Z</time>
      </trkpt>
      <trkpt lat="45.45436" lon="5.82019">
        <ele>913</ele>
        <time>2016-05-24T06:17:21Z</time>
      </trkpt>
      <trkpt lat="45.45445" lon="5.82025">
        <ele>913</ele>
        <time>2016-05-24T06:19:21Z</time>
      </trkpt>
      <trkpt lat="45.45453" lon="5.8203">
        <ele>912</ele>
        <time>2016-05-24T06:21:21Z</time>
      </trkpt>
      <trkpt lat="45.45458" lon="5.82034">
        <ele>911</ele>
        <time>2016-05-24T06:23:21Z</time>
      </trkpt>
      <trkpt lat="45.45501" lon="5.8207">
        <ele>909</ele>
        <time>2016-05-24T06:25:21Z</time>
      </trkpt>
      <trkpt lat="45.45518" lon="5.82085">
        <ele>907</ele>
        <time>2016-05-24T06:27:21Z</time>
      </trkpt>
      <trkpt lat="45.45529" lon="5.82096">
        <ele>906</ele>
        <time>2016-05-24T06:29:21Z</time>
      </trkpt>
      <trkpt lat="45.45534" lon="5.82101">
        <ele>906</ele>
        <time>2016-05-24T06:31:21Z</time>
      </trkpt>
      <trkpt lat="45.45547" lon="5.82117">
        <ele>905</ele>
        <time>2016-05-24T06:33:21Z</time>
      </trkpt>
      <trkpt lat="45.45559" lon="5.82132">
        <ele>904</ele>
        <time>2016-05-24T06:35:21Z</time>
      </trkpt>
      <trkpt lat="45.45568" lon="5.82145">
        <ele>903</ele>
        <time>2016-05-24T06:37:21Z</time>
      </trkpt>
      <trkpt lat="45.45582" lon="5.8216">
        <ele>901</ele>
        <time>2016-05-24T06:39:21Z</time>
      </trkpt>
      <trkpt lat="45.45591" lon="5.8217">
        <ele>900</ele>
        <time>2016-05-24T06:41:21Z</time>
      </trkpt>
      <trkpt lat="45.45607" lon="5.82181">
        <ele>898</ele>
        <time>2016-05-24T06:43:21Z</time>
      </trkpt>
      <trkpt lat="45.4562" lon="5.8219">
        <ele>896</ele>
        <time>2016-05-24T06:45:21Z</time>
      </trkpt>
      <trkpt lat="45.45631" lon="5.82196">
        <ele>894</ele>
        <time>2016-05-24T06:47:21Z</time>
      </trkpt>
      <trkpt lat="45.45646" lon="5.82205">
        <ele>891</ele>
        <time>2016-05-24T06:49:21Z</time>
      </trkpt>
      <trkpt lat="45.45651" lon="5.82209">
        <ele>891</ele>
        <time>2016-05-24T06:51:21Z</time>
      </trkpt>
      <trkpt lat="45.45659" lon="5.82214">
        <ele>890</ele>
        <time>2016-05-24T06:53:21Z</time>
      </trkpt>
      <trkpt lat="45.45667" lon="5.8222">
        <ele>889</ele>
        <time>2016-05-24T06:55:21Z</time>
      </trkpt>
      <trkpt lat="45.45671" lon="5.82222">
        <ele>888</ele>
        <time>2016-05-24T06:57:21Z</time>
      </trkpt>
      <trkpt lat="45.45675" lon="5.82226">
        <ele>887</ele>
        <time>2016-05-24T06:59:21Z</time>
      </trkpt>
      <trkpt lat="45.45679" lon="5.82231">
        <ele>887</ele>
        <time>2016-05-24T07:01:21Z</time>
      </trkpt>
      <trkpt lat="45.45681" lon="5.82233">
        <ele>887</ele>
        <time>2016-05-24T07:03:21Z</time>
      </trkpt>
      <trkpt lat="45.45686" lon="5.82242">
        <ele>886</ele>
        <time>2016-05-24T07:05:21Z</time>
      </trkpt>
      <trkpt lat="45.45692" lon="5.82253">
        <ele>887</ele>
        <time>2016-05-24T07:07:21Z</time>
      </trkpt>
      <trkpt lat="45.45696" lon="5.82261">
        <ele>887</ele>
        <time>2016-05-24T07:09:21Z</time>
      </trkpt>
      <trkpt lat="45.45703" lon="5.82271">
        <ele>888</ele>
        <time>2016-05-24T07:11:21Z</time>
      </trkpt>
      <trkpt lat="45.45705" lon="5.82274">
        <ele>888</ele>
        <time>2016-05-24T07:13:21Z</time>
      </trkpt>
      <trkpt lat="45.45707" lon="5.82277">
        <ele>888</ele>
        <time>2016-05-24T07:15:21Z</time>
      </trkpt>
      <trkpt lat="45.4571" lon="5.82282">
        <ele>888</ele>
        <time>2016-05-24T07:17:21Z</time>
      </trkpt>
      <trkpt lat="45.45718" lon="5.82292">
        <ele>888</ele>
        <time>2016-05-24T07:19:21Z</time>
      </trkpt>
      <trkpt lat="45.45725" lon="5.823">
        <ele>888</ele>
        <time>2016-05-24T07:21:21Z</time>
      </trkpt>
      <trkpt lat="45.45728" lon="5.82303">
        <ele>888</ele>
        <time>2016-05-24T07:23:21Z</time>
      </trkpt>
      <trkpt lat="45.45734" lon="5.8231">
        <ele>888</ele>
        <time>2016-05-24T07:25:21Z</time>
      </trkpt>
      <trkpt lat="45.45743" lon="5.82318">
        <ele>887</ele>
        <time>2016-05-24T07:27:21Z</time>
      </trkpt>
      <trkpt lat="45.45749" lon="5.82322">
        <ele>886</ele>
        <time>2016-05-24T07:29:21Z</time>
      </trkpt>
      <trkpt lat="45.45755" lon="5.82327">
        <ele>886</ele>
        <time>2016-05-24T07:31:21Z</time>
      </trkpt>
      <trkpt lat="45.45761" lon="5.82332">
        <ele>885</ele>
        <time>2016-05-24T07:33:21Z</time>
      </trkpt>
      <trkpt lat="45.45775" lon="5.8234">
        <ele>882</ele>
        <time>2016-05-24T07:35:21Z</time>
      </trkpt>
      <trkpt lat="45.45782" lon="5.82343">
        <ele>881</ele>
        <time>2016-05-24T07:37:21Z</time>
      </trkpt>
      <trkpt lat="45.45789" lon="5.82345">
        <ele>879</ele>
        <time>2016-05-24T07:39:21Z</time>
      </trkpt>
      <trkpt lat="45.45796" lon="5.82349">
        <ele>878</ele>
        <time>2016-05-24T07:41:21Z</time>
      </trkpt>
      <trkpt lat="45.45809" lon="5.82357">
        <ele>876</ele>
        <time>2016-05-24T07:43:21Z</time>
      </trkpt>
      <trkpt lat="45.45822" lon="5.82365">
        <ele>874</ele>
        <time>2016-05-24T07:45:21Z</time>
      </trkpt>
      <trkpt lat="45.45834" lon="5.82375">
        <ele>873</ele>
        <time>2016-05-24T07:47:21Z</time>
      </trkpt>
      <trkpt lat="45.45853" lon="5.82387">
        <ele>871</ele>
        <time>2016-05-24T07:49:21Z</time>
      </trkpt>
      <trkpt lat="45.45865" lon="5.82395">
        <ele>869</ele>
        <time>2016-05-24T07:51:21Z</time>
      </trkpt>
      <trkpt lat="45.45879" lon="5.82404">
        <ele>866</ele>
        <time>2016-05-24T07:53:21Z</time>
      </trkpt>
      <trkpt lat="45.45895" lon="5.82416">
        <ele>862</ele>
        <time>2016-05-24T07:55:21Z</time>
      </trkpt>
      <trkpt lat="45.45901" lon="5.8242">
        <ele>861</ele>
        <time>2016-05-24T07:57:21Z</time>
      </trkpt>
      <trkpt lat="45.45906" lon="5.82424">
        <ele>860</ele>
        <time>2016-05-24T07:59:21Z</time>
      </trkpt>
      <trkpt lat="45.45916" lon="5.82434">
        <ele>860</ele>
        <time>2016-05-24T08:01:21Z</time>
      </trkpt>
      <trkpt lat="45.45927" lon="5.82444">
        <ele>861</ele>
        <time>2016-05-24T08:03:21Z</time>
      </trkpt>
      <trkpt lat="45.45932" lon="5.8245">
        <ele>862</ele>
        <time>2016-05-24T08:05:21Z</time>
      </trkpt>
      <trkpt lat="45.45937" lon="5.82454">
        <ele>862</ele>
        <time>2016-05-24T08:07:21Z</time>
      </trkpt>
      <trkpt lat="45.45943" lon="5.82458">
        <ele>862</ele>
        <time>2016-05-24T08:09:21Z</time>
      </trkpt>
      <trkpt lat="45.45949" lon="5.8246">
        <ele>862</ele>
        <time>2016-05-24T08:11:21Z</time>
      </trkpt>
      <trkpt lat="45.45954" lon="5.82462">
        <ele>861</ele>
        <time>2016-05-24T08:13:21Z</time>
      </trkpt>
      <trkpt lat="45.45961" lon="5.82463">
        <ele>860</ele>
        <time>2016-05-24T08:15:21Z</time>
      </trkpt>
      <trkpt lat="45.45985" lon="5.82468">
        <ele>857</ele>
        <time>2016-05-24T08:17:21Z</time>
      </trkpt>
      <trkpt lat="45.46004" lon="5.82472">
        <ele>854</ele>
        <time>2016-05-24T08:19:21Z</time>
      </trkpt>
      <trkpt lat="45.4602" lon="5.82474">
        <ele>850</ele>
        <time>2016-05-24T08:21:21Z</time>
      </trkpt>
      <trkpt lat="45.46024" lon="5.82476">
        <ele>849</ele>
        <time>2016-05-24T08:23:21Z</time>
      </trkpt>
      <trkpt lat="45.46029" lon="5.82477">
        <ele>848</ele>
        <time>2016-05-24T08:25:21Z</time>
      </trkpt>
      <trkpt lat="45.46034" lon="5.82481">
        <ele>847</ele>
        <time>2016-05-24T08:27:21Z</time>
      </trkpt>
      <trkpt lat="45.46038" lon="5.82484">
        <ele>846</ele>
        <time>2016-05-24T08:29:21Z</time>
      </trkpt>
      <trkpt lat="45.46046" lon="5.82497">
        <ele>846</ele>
        <time>2016-05-24T08:31:21Z</time>
      </trkpt>
      <trkpt lat="45.46053" lon="5.8251">
        <ele>848</ele>
        <time>2016-05-24T08:33:21Z</time>
      </trkpt>
      <trkpt lat="45.46067" lon="5.82529">
        <ele>852</ele>
        <time>2016-05-24T08:35:21Z</time>
      </trkpt>
      <trkpt lat="45.46077" lon="5.82541">
        <ele>855</ele>
        <time>2016-05-24T08:37:21Z</time>
      </trkpt>
      <trkpt lat="45.46088" lon="5.82553">
        <ele>858</ele>
        <time>2016-05-24T08:39:21Z</time>
      </trkpt>
      <trkpt lat="45.46098" lon="5.82564">
        <ele>859</ele>
        <time>2016-05-24T08:41:21Z</time>
      </trkpt>
      <trkpt lat="45.46114" lon="5.82577">
        <ele>857</ele>
        <time>2016-05-24T08:43:21Z</time>
      </trkpt>
      <trkpt lat="45.4612" lon="5.82581">
        <ele>855</ele>
        <time>2016-05-24T08:45:21Z</time>
      </trkpt>
      <trkpt lat="45.46134" lon="5.82589">
        <ele>851</ele>
        <time>2016-05-24T08:47:21Z</time>
      </trkpt>
      <trkpt lat="45.46138" lon="5.8259">
        <ele>849</ele>
        <time>2016-05-24T08:49:21Z</time>
      </trkpt>
      <trkpt lat="45.46144" lon="5.82591">
        <ele>847</ele>
        <time>2016-05-24T08:51:21Z</time>
      </trkpt>
      <trkpt lat="45.46151" lon="5.82592">
        <ele>843</ele>
        <time>2016-05-24T08:53:21Z</time>
      </trkpt>
      <trkpt lat="45.4616" lon="5.82591">
        <ele>838</ele>
        <time>2016-05-24T08:55:21Z</time>
      </trkpt>
      <trkpt lat="45.4617" lon="5.82591">
        <ele>834</ele>
        <time>2016-05-24T08:57:21Z</time>
      </trkpt>
      <trkpt lat="45.46177" lon="5.82592">
        <ele>833</ele>
        <time>2016-05-24T08:59:21Z</time>
      </trkpt>
      <trkpt lat="45.46185" lon="5.82593">
        <ele>831</ele>
        <time>2016-05-24T09:01:21Z</time>
      </trkpt>
      <trkpt lat="45.46192" lon="5.82594">
        <ele>829</ele>
        <time>2016-05-24T09:03:21Z</time>
      </trkpt>
      <trkpt lat="45.462" lon="5.82594">
        <ele>827</ele>
        <time>2016-05-24T09:05:21Z</time>
      </trkpt>
      <trkpt lat="45.46216" lon="5.82596">
        <ele>824</ele>
        <time>2016-05-24T09:07:21Z</time>
      </trkpt>
      <trkpt lat="45.46224" lon="5.82598">
        <ele>822</ele>
        <time>2016-05-24T09:09:21Z</time>
      </trkpt>
      <trkpt lat="45.46232" lon="5.82601">
        <ele>821</ele>
        <time>2016-05-24T09:11:21Z</time>
      </trkpt>
      <trkpt lat="45.46239" lon="5.82606">
        <ele>820</ele>
        <time>2016-05-24T09:13:21Z</time>
      </trkpt>
      <trkpt lat="45.46253" lon="5.82617">
        <ele>819</ele>
        <time>2016-05-24T09:15:21Z</time>
      </trkpt>
      <trkpt lat="45.46261" lon="5.82621">
        <ele>818</ele>
        <time>2016-05-24T09:17:21Z</time>
      </trkpt>
      <trkpt lat="45.46269" lon="5.82626">
        <ele>818</ele>
        <time>2016-05-24T09:19:21Z</time>
      </trkpt>
      <trkpt lat="45.46287" lon="5.82635">
        <ele>816</ele>
        <time>2016-05-24T09:21:21Z</time>
      </trkpt>
      <trkpt lat="45.46317" lon="5.82649">
        <ele>812</ele>
        <time>2016-05-24T09:23:21Z</time>
      </trkpt>
      <trkpt lat="45.46336" lon="5.82658">
        <ele>809</ele>
        <time>2016-05-24T09:25:21Z</time>
      </trkpt>
      <trkpt lat="45.46344" lon="5.82662">
        <ele>808</ele>
        <time>2016-05-24T09:27:21Z</time>
      </trkpt>
      <trkpt lat="45.46352" lon="5.82666">
        <ele>806</ele>
        <time>2016-05-24T09:29:21Z</time>
      </trkpt>
      <trkpt lat="45.4636" lon="5.8267">
        <ele>805</ele>
        <time>2016-05-24T09:31:21Z</time>
      </trkpt>
      <trkpt lat="45.46375" lon="5.82679">
        <ele>804</ele>
        <time>2016-05-24T09:33:21Z</time>
      </trkpt>
      <trkpt lat="45.46402" lon="5.82699">
        <ele>800</ele>
        <time>2016-05-24T09:35:21Z</time>
      </trkpt>
      <trkpt lat="45.46418" lon="5.82712">
        <ele>798</ele>
        <time>2016-05-24T09:37:21Z</time>
      </trkpt>
      <trkpt lat="45.46428" lon="5.8272">
        <ele>798</ele>
        <time>2016-05-24T09:39:21Z</time>
      </trkpt>
      <trkpt lat="45.46436" lon="5.82727">
        <ele>798</ele>
        <time>2016-05-24T09:41:21Z</time>
      </trkpt>
      <trkpt lat="45.4644" lon="5.82729">
        <ele>797</ele>
        <time>2016-05-24T09:43:21Z</time>
      </trkpt>
      <trkpt lat="45.46444" lon="5.8273">
        <ele>797</ele>
        <time>2016-05-24T09:45:21Z</time>
      </trkpt>
      <trkpt lat="45.46448" lon="5.8273">
        <ele>796</ele>
        <time>2016-05-24T09:47:21Z</time>
      </trkpt>
      <trkpt lat="45.46452" lon="5.82728">
        <ele>795</ele>
        <time>2016-05-24T09:49:21Z</time>
      </trkpt>
      <trkpt lat="45.46454" lon="5.82725">
        <ele>794</ele>
        <time>2016-05-24T09:51:21Z</time>
      </trkpt>
      <trkpt lat="45.46456" lon="5.82722">
        <ele>793</ele>
        <time>2016-05-24T09:53:21Z</time>
      </trkpt>
      <trkpt lat="45.46457" lon="5.82719">
        <ele>792</ele>
        <time>2016-05-24T09:55:21Z</time>
      </trkpt>
      <trkpt lat="45.46458" lon="5.82714">
        <ele>791</ele>
        <time>2016-05-24T09:57:21Z</time>
      </trkpt>
      <trkpt lat="45.46457" lon="5.82709">
        <ele>790</ele>
        <time>2016-05-24T09:59:21Z</time>
      </trkpt>
      <trkpt lat="45.46456" lon="5.82704">
        <ele>790</ele>
        <time>2016-05-24T10:01:21Z</time>
      </trkpt>
      <trkpt lat="45.46453" lon="5.82698">
        <ele>789</ele>
        <time>2016-05-24T10:03:21Z</time>
      </trkpt>
      <trkpt lat="45.46444" lon="5.82687">
        <ele>788</ele>
        <time>2016-05-24T10:05:21Z</time>
      </trkpt>
      <trkpt lat="45.46439" lon="5.82681">
        <ele>788</ele>
        <time>2016-05-24T10:07:21Z</time>
      </trkpt>
      <trkpt lat="45.46434" lon="5.82675">
        <ele>787</ele>
        <time>2016-05-24T10:09:21Z</time>
      </trkpt>
      <trkpt lat="45.46431" lon="5.82668">
        <ele>786</ele>
        <time>2016-05-24T10:11:21Z</time>
      </trkpt>
      <trkpt lat="45.46424" lon="5.82652">
        <ele>786</ele>
        <time>2016-05-24T10:13:21Z</time>
      </trkpt>
      <trkpt lat="45.46421" lon="5.82635">
        <ele>785</ele>
        <time>2016-05-24T10:15:21Z</time>
      </trkpt>
      <trkpt lat="45.4642" lon="5.82625">
        <ele>784</ele>
        <time>2016-05-24T10:17:21Z</time>
      </trkpt>
      <trkpt lat="45.46414" lon="5.82585">
        <ele>782</ele>
        <time>2016-05-24T10:19:21Z</time>
      </trkpt>
      <trkpt lat="45.4641" lon="5.82558">
        <ele>780</ele>
        <time>2016-05-24T10:21:21Z</time>
      </trkpt>
      <trkpt lat="45.46408" lon="5.82546">
        <ele>779</ele>
        <time>2016-05-24T10:23:21Z</time>
      </trkpt>
      <trkpt lat="45.46407" lon="5.82537">
        <ele>779</ele>
        <time>2016-05-24T10:25:21Z</time>
      </trkpt>
      <trkpt lat="45.46407" lon="5.82531">
        <ele>778</ele>
        <time>2016-05-24T10:27:21Z</time>
      </trkpt>
      <trkpt lat="45.46407" lon="5.82521">
        <ele>777</ele>
        <time>2016-05-24T10:29:21Z</time>
      </trkpt>
      <trkpt lat="45.46409" lon="5.82511">
        <ele>776</ele>
        <time>2016-05-24T10:31:21Z</time>
      </trkpt>
      <trkpt lat="45.46409" lon="5.82505">
        <ele>776</ele>
        <time>2016-05-24T10:33:21Z</time>
      </trkpt>
      <trkpt lat="45.46411" lon="5.82493">
        <ele>775</ele>
        <time>2016-05-24T10:35:21Z</time>
      </trkpt>
      <trkpt lat="45.46412" lon="5.82483">
        <ele>774</ele>
        <time>2016-05-24T10:37:21Z</time>
      </trkpt>
      <trkpt lat="45.46413" lon="5.8247">
        <ele>773</ele>
        <time>2016-05-24T10:39:21Z</time>
      </trkpt>
      <trkpt lat="45.46412" lon="5.82458">
        <ele>773</ele>
        <time>2016-05-24T10:41:21Z</time>
      </trkpt>
      <trkpt lat="45.46409" lon="5.82446">
        <ele>773</ele>
        <time>2016-05-24T10:43:21Z</time>
      </trkpt>
      <trkpt lat="45.46405" lon="5.82432">
        <ele>773</ele>
        <time>2016-05-24T10:45:21Z</time>
      </trkpt>
      <trkpt lat="45.464" lon="5.82414">
        <ele>774</ele>
        <time>2016-05-24T10:47:21Z</time>
      </trkpt>
      <trkpt lat="45.46386" lon="5.82381">
        <ele>772</ele>
        <time>2016-05-24T10:49:21Z</time>
      </trkpt>
      <trkpt lat="45.46375" lon="5.8236">
        <ele>772</ele>
        <time>2016-05-24T10:51:21Z</time>
      </trkpt>
      <trkpt lat="45.46363" lon="5.8234">
        <ele>773</ele>
        <time>2016-05-24T10:53:21Z</time>
      </trkpt>
      <trkpt lat="45.46336" lon="5.82302">
        <ele>769</ele>
        <time>2016-05-24T10:55:21Z</time>
      </trkpt>
      <trkpt lat="45.46328" lon="5.82292">
        <ele>768</ele>
        <time>2016-05-24T10:57:21Z</time>
      </trkpt>
      <trkpt lat="45.46301" lon="5.82258">
        <ele>767</ele>
        <time>2016-05-24T10:59:21Z</time>
      </trkpt>
      <trkpt lat="45.46249" lon="5.82199">
        <ele>763</ele>
        <time>2016-05-24T11:01:21Z</time>
      </trkpt>
      <trkpt lat="45.46224" lon="5.8217">
        <ele>758</ele>
        <time>2016-05-24T11:03:21Z</time>
      </trkpt>
      <trkpt lat="45.46206" lon="5.82152">
        <ele>755</ele>
        <time>2016-05-24T11:05:21Z</time>
      </trkpt>
      <trkpt lat="45.4618" lon="5.82129">
        <ele>752</ele>
        <time>2016-05-24T11:07:21Z</time>
      </trkpt>
      <trkpt lat="45.46169" lon="5.8212">
        <ele>751</ele>
        <time>2016-05-24T11:09:21Z</time>
      </trkpt>
      <trkpt lat="45.4615" lon="5.82106">
        <ele>747</ele>
        <time>2016-05-24T11:11:21Z</time>
      </trkpt>
      <trkpt lat="45.46131" lon="5.82095">
        <ele>745</ele>
        <time>2016-05-24T11:13:21Z</time>
      </trkpt>
      <trkpt lat="45.46104" lon="5.82081">
        <ele>745</ele>
        <time>2016-05-24T11:15:21Z</time>
      </trkpt>
      <trkpt lat="45.46067" lon="5.82063">
        <ele>744</ele>
        <time>2016-05-24T11:17:21Z</time>
      </trkpt>
      <trkpt lat="45.46041" lon="5.82049">
        <ele>743</ele>
        <time>2016-05-24T11:19:21Z</time>
      </trkpt>
      <trkpt lat="45.46024" lon="5.82037">
        <ele>741</ele>
        <time>2016-05-24T11:21:21Z</time>
      </trkpt>
      <trkpt lat="45.46007" lon="5.82021">
        <ele>737</ele>
        <time>2016-05-24T11:23:21Z</time>
      </trkpt>
      <trkpt lat="45.45994" lon="5.82008">
        <ele>735</ele>
        <time>2016-05-24T11:25:21Z</time>
      </trkpt>
      <trkpt lat="45.45981" lon="5.81993">
        <ele>735</ele>
        <time>2016-05-24T11:27:21Z</time>
      </trkpt>
      <trkpt lat="45.45941" lon="5.81954">
        <ele>734</ele>
        <time>2016-05-24T11:29:21Z</time>
      </trkpt>
      <trkpt lat="45.4592" lon="5.81931">
        <ele>730</ele>
        <time>2016-05-24T11:31:21Z</time>
      </trkpt>
      <trkpt lat="45.45914" lon="5.81922">
        <ele>727</ele>
        <time>2016-05-24T11:33:21Z</time>
      </trkpt>
      <trkpt lat="45.45911" lon="5.81915">
        <ele>726</ele>
        <time>2016-05-24T11:35:21Z</time>
      </trkpt>
      <trkpt lat="45.45908" lon="5.81905">
        <ele>724</ele>
        <time>2016-05-24T11:37:21Z</time>
      </trkpt>
      <trkpt lat="45.45907" lon="5.81898">
        <ele>722</ele>
        <time>2016-05-24T11:39:21Z</time>
      </trkpt>
      <trkpt lat="45.45907" lon="5.8189">
        <ele>720</ele>
        <time>2016-05-24T11:41:21Z</time>
      </trkpt>
      <trkpt lat="45.45909" lon="5.81882">
        <ele>717</ele>
        <time>2016-05-24T11:43:21Z</time>
      </trkpt>
      <trkpt lat="45.45911" lon="5.81878">
        <ele>716</ele>
        <time>2016-05-24T11:45:21Z</time>
      </trkpt>
      <trkpt lat="45.45915" lon="5.81873">
        <ele>713</ele>
        <time>2016-05-24T11:47:21Z</time>
      </trkpt>
      <trkpt lat="45.4592" lon="5.81868">
        <ele>711</ele>
        <time>2016-05-24T11:49:21Z</time>
      </trkpt>
      <trkpt lat="45.45924" lon="5.81867">
        <ele>710</ele>
        <time>2016-05-24T11:51:21Z</time>
      </trkpt>
      <trkpt lat="45.45929" lon="5.81866">
        <ele>710</ele>
        <time>2016-05-24T11:53:21Z</time>
      </trkpt>
      <trkpt lat="45.45934" lon="5.81868">
        <ele>710</ele>
        <time>2016-05-24T11:55:21Z</time>
      </trkpt>
      <trkpt lat="45.45942" lon="5.81872">
        <ele>710</ele>
        <time>2016-05-24T11:57:21Z</time>
      </trkpt>
      <trkpt lat="45.45951" lon="5.8188">
        <ele>710</ele>
        <time>2016-05-24T11:59:21Z</time>
      </trkpt>
      <trkpt lat="45.45967" lon="5.81895">
        <ele>711</ele>
        <time>2016-05-24T12:01:21Z</time>
      </trkpt>
      <trkpt lat="45.45996" lon="5.81924">
        <ele>710</ele>
        <time>2016-05-24T12:03:21Z</time>
      </trkpt>
      <trkpt lat="45.46024" lon="5.81949">
        <ele>711</ele>
        <time>2016-05-24T12:05:21Z</time>
      </trkpt>
      <trkpt lat="45.46056" lon="5.81974">
        <ele>711</ele>
        <time>2016-05-24T12:07:21Z</time>
      </trkpt>
      <trkpt lat="45.46077" lon="5.81991">
        <ele>710</ele>
        <time>2016-05-24T12:09:21Z</time>
      </trkpt>
      <trkpt lat="45.4609" lon="5.81998">
        <ele>709</ele>
        <time>2016-05-24T12:11:21Z</time>
      </trkpt>
      <trkpt lat="45.46105" lon="5.82008">
        <ele>711</ele>
        <time>2016-05-24T12:13:21Z</time>
      </trkpt>
      <trkpt lat="45.46117" lon="5.82014">
        <ele>712</ele>
        <time>2016-05-24T12:15:21Z</time>
      </trkpt>
      <trkpt lat="45.46132" lon="5.82019">
        <ele>711</ele>
        <time>2016-05-24T12:17:21Z</time>
      </trkpt>
      <trkpt lat="45.46151" lon="5.82025">
        <ele>711</ele>
        <time>2016-05-24T12:19:21Z</time>
      </trkpt>
      <trkpt lat="45.46179" lon="5.8203">
        <ele>707</ele>
        <time>2016-05-24T12:21:21Z</time>
      </trkpt>
      <trkpt lat="45.46187" lon="5.82031">
        <ele>706</ele>
        <time>2016-05-24T12:23:21Z</time>
      </trkpt>
      <trkpt lat="45.46195" lon="5.8203">
        <ele>704</ele>
        <time>2016-05-24T12:25:21Z</time>
      </trkpt>
      <trkpt lat="45.46201" lon="5.82029">
        <ele>703</ele>
        <time>2016-05-24T12:27:21Z</time>
      </trkpt>
      <trkpt lat="45.46232" lon="5.82016">
        <ele>691</ele>
        <time>2016-05-24T12:29:21Z</time>
      </trkpt>
      <trkpt lat="45.46248" lon="5.82014">
        <ele>688</ele>
        <time>2016-05-24T12:31:21Z</time>
      </trkpt>
      <trkpt lat="45.46261" lon="5.82017">
        <ele>687</ele>
        <time>2016-05-24T12:33:21Z</time>
      </trkpt>
      <trkpt lat="45.46281" lon="5.82023">
        <ele>686</ele>
        <time>2016-05-24T12:35:21Z</time>
      </trkpt>
      <trkpt lat="45.46291" lon="5.82027">
        <ele>685</ele>
        <time>2016-05-24T12:37:21Z</time>
      </trkpt>
      <trkpt lat="45.46314" lon="5.82036">
        <ele>684</ele>
        <time>2016-05-24T12:39:21Z</time>
      </trkpt>
      <trkpt lat="45.46319" lon="5.82037">
        <ele>684</ele>
        <time>2016-05-24T12:41:21Z</time>
      </trkpt>
      <trkpt lat="45.46334" lon="5.82039">
        <ele>682</ele>
        <time>2016-05-24T12:43:21Z</time>
      </trkpt>
      <trkpt lat="45.46373" lon="5.82041">
        <ele>680</ele>
        <time>2016-05-24T12:45:21Z</time>
      </trkpt>
      <trkpt lat="45.46382" lon="5.82043">
        <ele>680</ele>
        <time>2016-05-24T12:47:21Z</time>
      </trkpt>
      <trkpt lat="45.46394" lon="5.82046">
        <ele>680</ele>
        <time>2016-05-24T12:49:21Z</time>
      </trkpt>
      <trkpt lat="45.46403" lon="5.8205">
        <ele>681</ele>
        <time>2016-05-24T12:51:21Z</time>
      </trkpt>
      <trkpt lat="45.46409" lon="5.82053">
        <ele>682</ele>
        <time>2016-05-24T12:53:21Z</time>
      </trkpt>
      <trkpt lat="45.46418" lon="5.82058">
        <ele>684</ele>
        <time>2016-05-24T12:55:21Z</time>
      </trkpt>
      <trkpt lat="45.46436" lon="5.82071">
        <ele>684</ele>
        <time>2016-05-24T12:57:21Z</time>
      </trkpt>
      <trkpt lat="45.46471" lon="5.821">
        <ele>681</ele>
        <time>2016-05-24T12:59:21Z</time>
      </trkpt>
      <trkpt lat="45.46481" lon="5.82106">
        <ele>679</ele>
        <time>2016-05-24T13:01:21Z</time>
      </trkpt>
      <trkpt lat="45.46493" lon="5.82115">
        <ele>677</ele>
        <time>2016-05-24T13:03:21Z</time>
      </trkpt>
      <trkpt lat="45.46506" lon="5.82125">
        <ele>676</ele>
        <time>2016-05-24T13:05:21Z</time>
      </trkpt>
      <trkpt lat="45.46512" lon="5.8213">
        <ele>675</ele>
        <time>2016-05-24T13:07:21Z</time>
      </trkpt>
      <trkpt lat="45.46521" lon="5.82139">
        <ele>674</ele>
        <time>2016-05-24T13:09:21Z</time>
      </trkpt>
      <trkpt lat="45.46562" lon="5.82177">
        <ele>669</ele>
        <time>2016-05-24T13:11:21Z</time>
      </trkpt>
      <trkpt lat="45.46567" lon="5.82178">
        <ele>668</ele>
        <time>2016-05-24T13:13:21Z</time>
      </trkpt>
      <trkpt lat="45.4657" lon="5.82177">
        <ele>667</ele>
        <time>2016-05-24T13:15:21Z</time>
      </trkpt>
      <trkpt lat="45.46572" lon="5.82175">
        <ele>665</ele>
        <time>2016-05-24T13:17:21Z</time>
      </trkpt>
      <trkpt lat="45.46575" lon="5.82171">
        <ele>663</ele>
        <time>2016-05-24T13:19:21Z</time>
      </trkpt>
      <trkpt lat="45.46577" lon="5.82168">
        <ele>661</ele>
        <time>2016-05-24T13:21:21Z</time>
      </trkpt>
      <trkpt lat="45.46579" lon="5.82162">
        <ele>659</ele>
        <time>2016-05-24T13:23:21Z</time>
      </trkpt>
      <trkpt lat="45.46582" lon="5.82157">
        <ele>658</ele>
        <time>2016-05-24T13:25:21Z</time>
      </trkpt>
      <trkpt lat="45.46585" lon="5.82147">
        <ele>657</ele>
        <time>2016-05-24T13:27:21Z</time>
      </trkpt>
      <trkpt lat="45.46586" lon="5.82143">
        <ele>656</ele>
        <time>2016-05-24T13:29:21Z</time>
      </trkpt>
      <trkpt lat="45.46594" lon="5.82113">
        <ele>654</ele>
        <time>2016-05-24T13:31:21Z</time>
      </trkpt>
      <trkpt lat="45.46596" lon="5.82108">
        <ele>653</ele>
        <time>2016-05-24T13:33:21Z</time>
      </trkpt>
      <trkpt lat="45.46599" lon="5.82101">
        <ele>652</ele>
        <time>2016-05-24T13:35:21Z</time>
      </trkpt>
      <trkpt lat="45.46603" lon="5.82092">
        <ele>651</ele>
        <time>2016-05-24T13:37:21Z</time>
      </trkpt>
      <trkpt lat="45.46608" lon="5.82079">
        <ele>650</ele>
        <time>2016-05-24T13:39:21Z</time>
      </trkpt>
      <trkpt lat="45.46615" lon="5.82066">
        <ele>649</ele>
        <time>2016-05-24T13:41:21Z</time>
      </trkpt>
      <trkpt lat="45.46621" lon="5.82054">
        <ele>648</ele>
        <time>2016-05-24T13:43:21Z</time>
      </trkpt>
      <trkpt lat="45.46629" lon="5.82038">
        <ele>647</ele>
        <time>2016-05-24T13:45:21Z</time>
      </trkpt>
      <trkpt lat="45.46641" lon="5.82017">
        <ele>646</ele>
        <time>2016-05-24T13:47:21Z</time>
      </trkpt>
      <trkpt lat="45.46647" lon="5.82007">
        <ele>646</ele>
        <time>2016-05-24T13:49:21Z</time>
      </trkpt>
      <trkpt lat="45.46655" lon="5.81994">
        <ele>645</ele>
        <time>2016-05-24T13:51:21Z</time>
      </trkpt>
      <trkpt lat="45.46661" lon="5.81988">
        <ele>645</ele>
        <time>2016-05-24T13:53:21Z</time>
      </trkpt>
      <trkpt lat="45.46668" lon="5.81978">
        <ele>644</ele>
        <time>2016-05-24T13:55:21Z</time>
      </trkpt>
      <trkpt lat="45.4667" lon="5.81974">
        <ele>644</ele>
        <time>2016-05-24T13:57:21Z</time>
      </trkpt>
      <trkpt lat="45.46674" lon="5.81966">
        <ele>644</ele>
        <time>2016-05-24T13:59:21Z</time>
      </trkpt>
      <trkpt lat="45.46677" lon="5.81958">
        <ele>644</ele>
        <time>2016-05-24T14:01:21Z</time>
      </trkpt>
      <trkpt lat="45.4668" lon="5.81951">
        <ele>643</ele>
        <time>2016-05-24T14:03:21Z</time>
      </trkpt>
      <trkpt lat="45.46682" lon="5.81947">
        <ele>643</ele>
        <time>2016-05-24T14:05:21Z</time>
      </trkpt>
      <trkpt lat="45.46683" lon="5.81942">
        <ele>643</ele>
        <time>2016-05-24T14:07:21Z</time>
      </trkpt>
      <trkpt lat="45.46685" lon="5.81936">
        <ele>643</ele>
        <time>2016-05-24T14:09:21Z</time>
      </trkpt>
      <trkpt lat="45.46688" lon="5.8193">
        <ele>643</ele>
        <time>2016-05-24T14:11:21Z</time>
      </trkpt>
      <trkpt lat="45.46693" lon="5.81919">
        <ele>642</ele>
        <time>2016-05-24T14:13:21Z</time>
      </trkpt>
      <trkpt lat="45.46698" lon="5.81906">
        <ele>642</ele>
        <time>2016-05-24T14:15:21Z</time>
      </trkpt>
      <trkpt lat="45.46703" lon="5.81895">
        <ele>642</ele>
        <time>2016-05-24T14:17:21Z</time>
      </trkpt>
      <trkpt lat="45.46709" lon="5.81886">
        <ele>641</ele>
        <time>2016-05-24T14:19:21Z</time>
      </trkpt>
      <trkpt lat="45.46719" lon="5.81877">
        <ele>641</ele>
        <time>2016-05-24T14:21:21Z</time>
      </trkpt>
      <trkpt lat="45.46724" lon="5.81873">
        <ele>641</ele>
        <time>2016-05-24T14:23:21Z</time>
      </trkpt>
      <trkpt lat="45.4673" lon="5.81869">
        <ele>641</ele>
        <time>2016-05-24T14:25:21Z</time>
      </trkpt>
      <trkpt lat="45.46734" lon="5.81866">
        <ele>641</ele>
        <time>2016-05-24T14:27:21Z</time>
      </trkpt>
      <trkpt lat="45.46739" lon="5.81864">
        <ele>640</ele>
        <time>2016-05-24T14:29:21Z</time>
      </trkpt>
      <trkpt lat="45.46748" lon="5.8186">
        <ele>640</ele>
        <time>2016-05-24T14:31:21Z</time>
      </trkpt>
      <trkpt lat="45.46762" lon="5.81855">
        <ele>640</ele>
        <time>2016-05-24T14:33:21Z</time>
      </trkpt>
      <trkpt lat="45.4677" lon="5.81852">
        <ele>639</ele>
        <time>2016-05-24T14:35:21Z</time>
      </trkpt>
      <trkpt lat="45.46775" lon="5.81849">
        <ele>639</ele>
        <time>2016-05-24T14:37:21Z</time>
      </trkpt>
      <trkpt lat="45.46781" lon="5.81844">
        <ele>639</ele>
        <time>2016-05-24T14:39:21Z</time>
      </trkpt>
      <trkpt lat="45.46823" lon="5.81826">
        <ele>638</ele>
        <time>2016-05-24T14:41:21Z</time>
      </trkpt>
      <trkpt lat="45.46856" lon="5.81809">
        <ele>636</ele>
        <time>2016-05-24T14:43:21Z</time>
      </trkpt>
      <trkpt lat="45.46876" lon="5.81797">
        <ele>635</ele>
        <time>2016-05-24T14:45:21Z</time>
      </trkpt>
      <trkpt lat="45.46887" lon="5.81788">
        <ele>634</ele>
        <time>2016-05-24T14:47:21Z</time>
      </trkpt>
      <trkpt lat="45.46898" lon="5.81777">
        <ele>633</ele>
        <time>2016-05-24T14:49:21Z</time>
      </trkpt>
      <trkpt lat="45.46911" lon="5.8176">
        <ele>632</ele>
        <time>2016-05-24T14:51:21Z</time>
      </trkpt>
      <trkpt lat="45.46923" lon="5.81745">
        <ele>631</ele>
        <time>2016-05-24T14:53:21Z</time>
      </trkpt>
      <trkpt lat="45.46942" lon="5.8173">
        <ele>630</ele>
        <time>2016-05-24T14:55:21Z</time>
      </trkpt>
      <trkpt lat="45.46942" lon="5.8173">
        <ele>630</ele>
        <time>2016-05-24T14:57:21Z</time>
      </trkpt>
      <trkpt lat="45.46947" lon="5.81722">
        <ele>631</ele>
        <time>2016-05-24T14:59:21Z</time>
      </trkpt>
      <trkpt lat="45.46941" lon="5.81714">
        <ele>631</ele>
        <time>2016-05-24T15:01:21Z</time>
      </trkpt>
      <trkpt lat="45.4693" lon="5.81698">
        <ele>632</ele>
        <time>2016-05-24T15:03:21Z</time>
      </trkpt>
      <trkpt lat="45.46911" lon="5.81673">
        <ele>632</ele>
        <time>2016-05-24T15:05:21Z</time>
      </trkpt>
      <trkpt lat="45.46896" lon="5.81656">
        <ele>635</ele>
        <time>2016-05-24T15:07:21Z</time>
      </trkpt>
      <trkpt lat="45.46889" lon="5.81647">
        <ele>636</ele>
        <time>2016-05-24T15:09:21Z</time>
      </trkpt>
      <trkpt lat="45.4688" lon="5.81638">
        <ele>637</ele>
        <time>2016-05-24T15:11:21Z</time>
      </trkpt>
      <trkpt lat="45.46872" lon="5.81629">
        <ele>637</ele>
        <time>2016-05-24T15:13:21Z</time>
      </trkpt>
      <trkpt lat="45.46856" lon="5.81614">
        <ele>637</ele>
        <time>2016-05-24T15:15:21Z</time>
      </trkpt>
      <trkpt lat="45.46846" lon="5.81606">
        <ele>637</ele>
        <time>2016-05-24T15:17:21Z</time>
      </trkpt>
      <trkpt lat="45.46842" lon="5.81604">
        <ele>637</ele>
        <time>2016-05-24T15:19:21Z</time>
      </trkpt>
      <trkpt lat="45.46837" lon="5.81603">
        <ele>636</ele>
        <time>2016-05-24T15:21:21Z</time>
      </trkpt>
      <trkpt lat="45.46815" lon="5.81586">
        <ele>638</ele>
        <time>2016-05-24T15:23:21Z</time>
      </trkpt>
      <trkpt lat="45.46801" lon="5.81576">
        <ele>640</ele>
        <time>2016-05-24T15:25:21Z</time>
      </trkpt>
      <trkpt lat="45.46769" lon="5.81557">
        <ele>644</ele>
        <time>2016-05-24T15:27:21Z</time>
      </trkpt>
      <trkpt lat="45.46718" lon="5.8153">
        <ele>642</ele>
        <time>2016-05-24T15:29:21Z</time>
      </trkpt>
      <trkpt lat="45.46649" lon="5.81495">
        <ele>633</ele>
        <time>2016-05-24T15:31:21Z</time>
      </trkpt>
      <trkpt lat="45.46567" lon="5.81455">
        <ele>634</ele>
        <time>2016-05-24T15:33:21Z</time>
      </trkpt>
      <trkpt lat="45.46523" lon="5.81433">
        <ele>631</ele>
        <time>2016-05-24T15:35:21Z</time>
      </trkpt>
      <trkpt lat="45.46466" lon="5.81404">
        <ele>628</ele>
        <time>2016-05-24T15:37:21Z</time>
      </trkpt>
      <trkpt lat="45.46438" lon="5.81387">
        <ele>627</ele>
        <time>2016-05-24T15:39:21Z</time>
      </trkpt>
      <trkpt lat="45.46409" lon="5.81366">
        <ele>625</ele>
        <time>2016-05-24T15:41:21Z</time>
      </trkpt>
      <trkpt lat="45.46272" lon="5.81256">
        <ele>618</ele>
        <time>2016-05-24T15:43:21Z</time>
      </trkpt>
      <trkpt lat="45.46235" lon="5.81227">
        <ele>617</ele>
        <time>2016-05-24T15:45:21Z</time>
      </trkpt>
      <trkpt lat="45.46198" lon="5.81199">
        <ele>615</ele>
        <time>2016-05-24T15:47:21Z</time>
      </trkpt>
      <trkpt lat="45.46177" lon="5.81184">
        <ele>614</ele>
        <time>2016-05-24T15:49:21Z</time>
      </trkpt>
      <trkpt lat="45.46149" lon="5.81164">
        <ele>613</ele>
        <time>2016-05-24T15:51:21Z</time>
      </trkpt>
      <trkpt lat="45.4611" lon="5.81139">
        <ele>610</ele>
        <time>2016-05-24T15:53:21Z</time>
      </trkpt>
      <trkpt lat="45.46091" lon="5.81126">
        <ele>609</ele>
        <time>2016-05-24T15:55:21Z</time>
      </trkpt>
      <trkpt lat="45.46062" lon="5.81106">
        <ele>609</ele>
        <time>2016-05-24T15:57:21Z</time>
      </trkpt>
      <trkpt lat="45.46053" lon="5.811">
        <ele>610</ele>
        <time>2016-05-24T15:59:21Z</time>
      </trkpt>
      <trkpt lat="45.46035" lon="5.81086">
        <ele>610</ele>
        <time>2016-05-24T16:01:21Z</time>
      </trkpt>
      <trkpt lat="45.46027" lon="5.81079">
        <ele>611</ele>
        <time>2016-05-24T16:03:21Z</time>
      </trkpt>
      <trkpt lat="45.46011" lon="5.81064">
        <ele>611</ele>
        <time>2016-05-24T16:05:21Z</time>
      </trkpt>
      <trkpt lat="45.46003" lon="5.81055">
        <ele>611</ele>
        <time>2016-05-24T16:07:21Z</time>
      </trkpt>
      <trkpt lat="45.45995" lon="5.81045">
        <ele>611</ele>
        <time>2016-05-24T16:09:21Z</time>
      </trkpt>
      <trkpt lat="45.45976" lon="5.81016">
        <ele>613</ele>
        <time>2016-05-24T16:11:21Z</time>
      </trkpt>
      <trkpt lat="45.45946" lon="5.80964">
        <ele>617</ele>
        <time>2016-05-24T16:13:21Z</time>
      </trkpt>
      <trkpt lat="45.45938" lon="5.80949">
        <ele>617</ele>
        <time>2016-05-24T16:15:21Z</time>
      </trkpt>
      <trkpt lat="45.4592" lon="5.80916">
        <ele>616</ele>
        <time>2016-05-24T16:17:21Z</time>
      </trkpt>
      <trkpt lat="45.45884" lon="5.8085">
        <ele>617</ele>
        <time>2016-05-24T16:19:21Z</time>
      </trkpt>
      <trkpt lat="45.45878" lon="5.80832">
        <ele>617</ele>
        <time>2016-05-24T16:21:21Z</time>
      </trkpt>
      <trkpt lat="45.45875" lon="5.80823">
        <ele>617</ele>
        <time>2016-05-24T16:23:21Z</time>
      </trkpt>
      <trkpt lat="45.45871" lon="5.80807">
        <ele>617</ele>
        <time>2016-05-24T16:25:21Z</time>
      </trkpt>
      <trkpt lat="45.45871" lon="5.80794">
        <ele>616</ele>
        <time>2016-05-24T16:27:21Z</time>
      </trkpt>
      <trkpt lat="45.4587" lon="5.80786">
        <ele>616</ele>
        <time>2016-05-24T16:29:21Z</time>
      </trkpt>
      <trkpt lat="45.45871" lon="5.80777">
        <ele>616</ele>
        <time>2016-05-24T16:31:21Z</time>
      </trkpt>
      <trkpt lat="45.45872" lon="5.80765">
        <ele>615</ele>
        <time>2016-05-24T16:33:21Z</time>
      </trkpt>
      <trkpt lat="45.45875" lon="5.80749">
        <ele>614</ele>
        <time>2016-05-24T16:35:21Z</time>
      </trkpt>
      <trkpt lat="45.45885" lon="5.80711">
        <ele>612</ele>
        <time>2016-05-24T16:37:21Z</time>
      </trkpt>
      <trkpt lat="45.45891" lon="5.80686">
        <ele>610</ele>
        <time>2016-05-24T16:39:21Z</time>
      </trkpt>
      <trkpt lat="45.45892" lon="5.80671">
        <ele>610</ele>
        <time>2016-05-24T16:41:21Z</time>
      </trkpt>
      <trkpt lat="45.45892" lon="5.80651">
        <ele>610</ele>
        <time>2016-05-24T16:43:21Z</time>
      </trkpt>
      <trkpt lat="45.45891" lon="5.80638">
        <ele>611</ele>
        <time>2016-05-24T16:45:21Z</time>
      </trkpt>
      <trkpt lat="45.45888" lon="5.80622">
        <ele>612</ele>
        <time>2016-05-24T16:47:21Z</time>
      </trkpt>
      <trkpt lat="45.45883" lon="5.80604">
        <ele>613</ele>
        <time>2016-05-24T16:49:21Z</time>
      </trkpt>
      <trkpt lat="45.45879" lon="5.80593">
        <ele>614</ele>
        <time>2016-05-24T16:51:21Z</time>
      </trkpt>
      <trkpt lat="45.45819" lon="5.80472">
        <ele>610</ele>
        <time>2016-05-24T16:53:21Z</time>
      </trkpt>
      <trkpt lat="45.458" lon="5.80435">
        <ele>610</ele>
        <time>2016-05-24T16:55:21Z</time>
      </trkpt>
      <trkpt lat="45.45787" lon="5.80411">
        <ele>610</ele>
        <time>2016-05-24T16:57:21Z</time>
      </trkpt>
      <trkpt lat="45.45766" lon="5.80375">
        <ele>608</ele>
        <time>2016-05-24T16:59:21Z</time>
      </trkpt>
      <trkpt lat="45.45745" lon="5.8034">
        <ele>603</ele>
        <time>2016-05-24T17:01:21Z</time>
      </trkpt>
      <trkpt lat="45.45723" lon="5.80304">
        <ele>606</ele>
        <time>2016-05-24T17:03:21Z</time>
      </trkpt>
      <trkpt lat="45.45717" lon="5.80292">
        <ele>607</ele>
        <time>2016-05-24T17:05:21Z</time>
      </trkpt>
      <trkpt lat="45.45704" lon="5.8027">
        <ele>607</ele>
        <time>2016-05-24T17:07:21Z</time>
      </trkpt>
      <trkpt lat="45.45692" lon="5.80251">
        <ele>606</ele>
        <time>2016-05-24T17:09:21Z</time>
      </trkpt>
      <trkpt lat="45.45675" lon="5.80232">
        <ele>606</ele>
        <time>2016-05-24T17:11:21Z</time>
      </trkpt>
      <trkpt lat="45.4567" lon="5.80228">
        <ele>606</ele>
        <time>2016-05-24T17:13:21Z</time>
      </trkpt>
      <trkpt lat="45.4566" lon="5.80221">
        <ele>605</ele>
        <time>2016-05-24T17:15:21Z</time>
      </trkpt>
      <trkpt lat="45.45652" lon="5.80216">
        <ele>605</ele>
        <time>2016-05-24T17:17:21Z</time>
      </trkpt>
      <trkpt lat="45.45643" lon="5.80214">
        <ele>604</ele>
        <time>2016-05-24T17:19:21Z</time>
      </trkpt>
      <trkpt lat="45.45636" lon="5.80212">
        <ele>604</ele>
        <time>2016-05-24T17:21:21Z</time>
      </trkpt>
      <trkpt lat="45.45626" lon="5.80212">
        <ele>603</ele>
        <time>2016-05-24T17:23:21Z</time>
      </trkpt>
      <trkpt lat="45.45606" lon="5.80213">
        <ele>602</ele>
        <time>2016-05-24T17:25:21Z</time>
      </trkpt>
      <trkpt lat="45.45592" lon="5.80216">
        <ele>600</ele>
        <time>2016-05-24T17:27:21Z</time>
      </trkpt>
      <trkpt lat="45.45571" lon="5.80219">
        <ele>598</ele>
        <time>2016-05-24T17:29:21Z</time>
      </trkpt>
      <trkpt lat="45.4553" lon="5.80223">
        <ele>593</ele>
        <time>2016-05-24T17:31:21Z</time>
      </trkpt>
      <trkpt lat="45.45514" lon="5.80224">
        <ele>591</ele>
        <time>2016-05-24T17:33:21Z</time>
      </trkpt>
      <trkpt lat="45.45492" lon="5.80226">
        <ele>588</ele>
        <time>2016-05-24T17:35:21Z</time>
      </trkpt>
      <trkpt lat="45.45472" lon="5.80226">
        <ele>586</ele>
        <time>2016-05-24T17:37:21Z</time>
      </trkpt>
      <trkpt lat="45.4545" lon="5.80224">
        <ele>583</ele>
        <time>2016-05-24T17:39:21Z</time>
      </trkpt>
      <trkpt lat="45.45431" lon="5.80219">
        <ele>581</ele>
        <time>2016-05-24T17:41:21Z</time>
      </trkpt>
      <trkpt lat="45.45412" lon="5.80209">
        <ele>579</ele>
        <time>2016-05-24T17:43:21Z</time>
      </trkpt>
      <trkpt lat="45.45395" lon="5.80198">
        <ele>578</ele>
        <time>2016-05-24T17:45:21Z</time>
      </trkpt>
      <trkpt lat="45.45373" lon="5.80178">
        <ele>576</ele>
        <time>2016-05-24T17:47:21Z</time>
      </trkpt>
      <trkpt lat="45.45365" lon="5.8017">
        <ele>575</ele>
        <time>2016-05-24T17:49:21Z</time>
      </trkpt>
      <trkpt lat="45.45358" lon="5.80162">
        <ele>574</ele>
        <time>2016-05-24T17:51:21Z</time>
      </trkpt>
      <trkpt lat="45.4535" lon="5.80152">
        <ele>574</ele>
        <time>2016-05-24T17:53:21Z</time>
      </trkpt>
      <trkpt lat="45.45345" lon="5.80143">
        <ele>573</ele>
        <time>2016-05-24T17:55:21Z</time>
      </trkpt>
      <trkpt lat="45.45338" lon="5.80131">
        <ele>573</ele>
        <time>2016-05-24T17:57:21Z</time>
      </trkpt>
      <trkpt lat="45.4533" lon="5.80115">
        <ele>573</ele>
        <time>2016-05-24T17:59:21Z</time>
      </trkpt>
      <trkpt lat="45.45321" lon="5.80096">
        <ele>574</ele>
        <time>2016-05-24T18:01:21Z</time>
      </trkpt>
      <trkpt lat="45.45314" lon="5.80076">
        <ele>574</ele>
        <time>2016-05-24T18:03:21Z</time>
      </trkpt>
      <trkpt lat="45.45309" lon="5.80055">
        <ele>575</ele>
        <time>2016-05-24T18:05:21Z</time>
      </trkpt>
      <trkpt lat="45.45304" lon="5.80025">
        <ele>576</ele>
        <time>2016-05-24T18:07:21Z</time>
      </trkpt>
      <trkpt lat="45.45301" lon="5.80008">
        <ele>576</ele>
        <time>2016-05-24T18:09:21Z</time>
      </trkpt>
      <trkpt lat="45.453" lon="5.79993">
        <ele>577</ele>
        <time>2016-05-24T18:11:21Z</time>
      </trkpt>
      <trkpt lat="45.453" lon="5.79969">
        <ele>578</ele>
        <time>2016-05-24T18:13:21Z</time>
      </trkpt>
      <trkpt lat="45.45301" lon="5.79941">
        <ele>579</ele>
        <time>2016-05-24T18:15:21Z</time>
      </trkpt>
      <trkpt lat="45.45304" lon="5.79916">
        <ele>580</ele>
        <time>2016-05-24T18:17:21Z</time>
      </trkpt>
      <trkpt lat="45.45309" lon="5.79893">
        <ele>580</ele>
        <time>2016-05-24T18:19:21Z</time>
      </trkpt>
      <trkpt lat="45.45314" lon="5.79875">
        <ele>579</ele>
        <time>2016-05-24T18:21:21Z</time>
      </trkpt>
      <trkpt lat="45.4532" lon="5.79856">
        <ele>579</ele>
        <time>2016-05-24T18:23:21Z</time>
      </trkpt>
      <trkpt lat="45.45327" lon="5.79841">
        <ele>577</ele>
        <time>2016-05-24T18:25:21Z</time>
      </trkpt>
      <trkpt lat="45.45334" lon="5.79825">
        <ele>577</ele>
        <time>2016-05-24T18:27:21Z</time>
      </trkpt>
      <trkpt lat="45.45341" lon="5.79812">
        <ele>579</ele>
        <time>2016-05-24T18:29:21Z</time>
      </trkpt>
      <trkpt lat="45.4535" lon="5.79798">
        <ele>581</ele>
        <time>2016-05-24T18:31:21Z</time>
      </trkpt>
      <trkpt lat="45.45359" lon="5.79784">
        <ele>583</ele>
        <time>2016-05-24T18:33:21Z</time>
      </trkpt>
      <trkpt lat="45.45378" lon="5.79758">
        <ele>583</ele>
        <time>2016-05-24T18:35:21Z</time>
      </trkpt>
      <trkpt lat="45.4539" lon="5.79742">
        <ele>583</ele>
        <time>2016-05-24T18:37:21Z</time>
      </trkpt>
      <trkpt lat="45.4541" lon="5.7971">
        <ele>580</ele>
        <time>2016-05-24T18:39:21Z</time>
      </trkpt>
      <trkpt lat="45.45416" lon="5.79699">
        <ele>579</ele>
        <time>2016-05-24T18:41:21Z</time>
      </trkpt>
      <trkpt lat="45.45426" lon="5.79673">
        <ele>579</ele>
        <time>2016-05-24T18:43:21Z</time>
      </trkpt>
      <trkpt lat="45.45434" lon="5.79647">
        <ele>582</ele>
        <time>2016-05-24T18:45:21Z</time>
      </trkpt>
      <trkpt lat="45.45439" lon="5.79619">
        <ele>584</ele>
        <time>2016-05-24T18:47:21Z</time>
      </trkpt>
      <trkpt lat="45.45441" lon="5.79591">
        <ele>585</ele>
        <time>2016-05-24T18:49:21Z</time>
      </trkpt>
      <trkpt lat="45.45442" lon="5.79573">
        <ele>586</ele>
        <time>2016-05-24T18:51:21Z</time>
      </trkpt>
      <trkpt lat="45.45441" lon="5.79553">
        <ele>585</ele>
        <time>2016-05-24T18:53:21Z</time>
      </trkpt>
      <trkpt lat="45.45439" lon="5.79534">
        <ele>584</ele>
        <time>2016-05-24T18:55:21Z</time>
      </trkpt>
      <trkpt lat="45.45435" lon="5.79513">
        <ele>582</ele>
        <time>2016-05-24T18:57:21Z</time>
      </trkpt>
      <trkpt lat="45.45432" lon="5.79501">
        <ele>581</ele>
        <time>2016-05-24T18:59:21Z</time>
      </trkpt>
      <trkpt lat="45.45428" lon="5.79489">
        <ele>580</ele>
        <time>2016-05-24T19:01:21Z</time>
      </trkpt>
      <trkpt lat="45.45417" lon="5.79455">
        <ele>578</ele>
        <time>2016-05-24T19:03:21Z</time>
      </trkpt>
      <trkpt lat="45.45396" lon="5.79405">
        <ele>585</ele>
        <time>2016-05-24T19:05:21Z</time>
      </trkpt>
      <trkpt lat="45.45375" lon="5.79346">
        <ele>590</ele>
        <time>2016-05-24T19:07:21Z</time>
      </trkpt>
      <trkpt lat="45.45373" lon="5.7934">
        <ele>590</ele>
        <time>2016-05-24T19:09:21Z</time>
      </trkpt>
      <trkpt lat="45.4537" lon="5.79318">
        <ele>591</ele>
        <time>2016-05-24T19:11:21Z</time>
      </trkpt>
      <trkpt lat="45.45363" lon="5.79242">
        <ele>591</ele>
        <time>2016-05-24T19:13:21Z</time>
      </trkpt>
      <trkpt lat="45.45362" lon="5.79215">
        <ele>592</ele>
        <time>2016-05-24T19:15:21Z</time>
      </trkpt>
      <trkpt lat="45.45361" lon="5.79194">
        <ele>593</ele>
        <time>2016-05-24T19:17:21Z</time>
      </trkpt>
      <trkpt lat="45.45361" lon="5.79178">
        <ele>593</ele>
        <time>2016-05-24T19:19:21Z</time>
      </trkpt>
      <trkpt lat="45.45361" lon="5.79168">
        <ele>594</ele>
        <time>2016-05-24T19:21:21Z</time>
      </trkpt>
      <trkpt lat="45.45368" lon="5.78831">
        <ele>637</ele>
        <time>2016-05-24T19:23:21Z</time>
      </trkpt>
      <trkpt lat="45.45368" lon="5.78826">
        <ele>632</ele>
        <time>2016-05-24T19:25:21Z</time>
      </trkpt>
      <trkpt lat="45.4537" lon="5.78817">
        <ele>622</ele>
        <time>2016-05-24T19:27:21Z</time>
      </trkpt>
      <trkpt lat="45.45371" lon="5.78814">
        <ele>618</ele>
        <time>2016-05-24T19:29:21Z</time>
      </trkpt>
      <trkpt lat="45.45372" lon="5.7881">
        <ele>614</ele>
        <time>2016-05-24T19:31:21Z</time>
      </trkpt>
      <trkpt lat="45.45378" lon="5.78801">
        <ele>603</ele>
        <time>2016-05-24T19:33:21Z</time>
      </trkpt>
      <trkpt lat="45.45382" lon="5.78798">
        <ele>598</ele>
        <time>2016-05-24T19:35:21Z</time>
      </trkpt>
      <trkpt lat="45.45387" lon="5.78795">
        <ele>594</ele>
        <time>2016-05-24T19:37:21Z</time>
      </trkpt>
      <trkpt lat="45.45392" lon="5.78794">
        <ele>591</ele>
        <time>2016-05-24T19:39:21Z</time>
      </trkpt>
      <trkpt lat="45.45406" lon="5.78792">
        <ele>585</ele>
        <time>2016-05-24T19:41:21Z</time>
      </trkpt>
      <trkpt lat="45.45412" lon="5.78792">
        <ele>583</ele>
        <time>2016-05-24T19:43:21Z</time>
      </trkpt>
      <trkpt lat="45.45424" lon="5.78791">
        <ele>579</ele>
        <time>2016-05-24T19:45:21Z</time>
      </trkpt>
      <trkpt lat="45.45442" lon="5.78788">
        <ele>571</ele>
        <time>2016-05-24T19:47:21Z</time>
      </trkpt>
      <trkpt lat="45.45449" lon="5.78787">
        <ele>568</ele>
        <time>2016-05-24T19:49:21Z</time>
      </trkpt>
      <trkpt lat="45.45464" lon="5.78782">
        <ele>560</ele>
        <time>2016-05-24T19:51:21Z</time>
      </trkpt>
      <trkpt lat="45.45477" lon="5.78776">
        <ele>552</ele>
        <time>2016-05-24T19:53:21Z</time>
      </trkpt>
      <trkpt lat="45.45493" lon="5.78766">
        <ele>542</ele>
        <time>2016-05-24T19:55:21Z</time>
      </trkpt>
      <trkpt lat="45.45512" lon="5.78756">
        <ele>535</ele>
        <time>2016-05-24T19:57:21Z</time>
      </trkpt>
      <trkpt lat="45.45542" lon="5.78739">
        <ele>529</ele>
        <time>2016-05-24T19:59:21Z</time>
      </trkpt>
      <trkpt lat="45.45563" lon="5.78728">
        <ele>525</ele>
        <time>2016-05-24T20:01:21Z</time>
      </trkpt>
      <trkpt lat="45.4558" lon="5.78719">
        <ele>522</ele>
        <time>2016-05-24T20:03:21Z</time>
      </trkpt>
      <trkpt lat="45.45627" lon="5.78702">
        <ele>522</ele>
        <time>2016-05-24T20:05:21Z</time>
      </trkpt>
      <trkpt lat="45.45641" lon="5.78697">
        <ele>522</ele>
        <time>2016-05-24T20:07:21Z</time>
      </trkpt>
      <trkpt lat="45.4565" lon="5.78692">
        <ele>521</ele>
        <time>2016-05-24T20:09:21Z</time>
      </trkpt>
      <trkpt lat="45.45659" lon="5.78685">
        <ele>518</ele>
        <time>2016-05-24T20:11:21Z</time>
      </trkpt>
      <trkpt lat="45.45663" lon="5.78681">
        <ele>517</ele>
        <time>2016-05-24T20:13:21Z</time>
      </trkpt>
      <trkpt lat="45.45668" lon="5.78673">
        <ele>514</ele>
        <time>2016-05-24T20:15:21Z</time>
      </trkpt>
      <trkpt lat="45.45671" lon="5.78668">
        <ele>512</ele>
        <time>2016-05-24T20:17:21Z</time>
      </trkpt>
      <trkpt lat="45.45674" lon="5.78663">
        <ele>511</ele>
        <time>2016-05-24T20:19:21Z</time>
      </trkpt>
      <trkpt lat="45.45682" lon="5.78643">
        <ele>510</ele>
        <time>2016-05-24T20:21:21Z</time>
      </trkpt>
      <trkpt lat="45.45687" lon="5.78626">
        <ele>508</ele>
        <time>2016-05-24T20:23:21Z</time>
      </trkpt>
      <trkpt lat="45.45689" lon="5.78611">
        <ele>506</ele>
        <time>2016-05-24T20:25:21Z</time>
      </trkpt>
      <trkpt lat="45.4569" lon="5.78596">
        <ele>504</ele>
        <time>2016-05-24T20:27:21Z</time>
      </trkpt>
      <trkpt lat="45.45689" lon="5.78575">
        <ele>502</ele>
        <time>2016-05-24T20:29:21Z</time>
      </trkpt>
      <trkpt lat="45.45688" lon="5.78564">
        <ele>502</ele>
        <time>2016-05-24T20:31:21Z</time>
      </trkpt>
      <trkpt lat="45.45686" lon="5.78553">
        <ele>502</ele>
        <time>2016-05-24T20:33:21Z</time>
      </trkpt>
      <trkpt lat="45.45683" lon="5.78542">
        <ele>501</ele>
        <time>2016-05-24T20:35:21Z</time>
      </trkpt>
      <trkpt lat="45.4568" lon="5.78532">
        <ele>501</ele>
        <time>2016-05-24T20:37:21Z</time>
      </trkpt>
      <trkpt lat="45.4567" lon="5.78507">
        <ele>499</ele>
        <time>2016-05-24T20:39:21Z</time>
      </trkpt>
      <trkpt lat="45.45656" lon="5.78473">
        <ele>496</ele>
        <time>2016-05-24T20:41:21Z</time>
      </trkpt>
      <trkpt lat="45.45643" lon="5.78436">
        <ele>495</ele>
        <time>2016-05-24T20:43:21Z</time>
      </trkpt>
      <trkpt lat="45.45632" lon="5.78398">
        <ele>494</ele>
        <time>2016-05-24T20:45:21Z</time>
      </trkpt>
      <trkpt lat="45.45623" lon="5.78358">
        <ele>493</ele>
        <time>2016-05-24T20:47:21Z</time>
      </trkpt>
      <trkpt lat="45.45609" lon="5.78298">
        <ele>491</ele>
        <time>2016-05-24T20:49:21Z</time>
      </trkpt>
      <trkpt lat="45.45594" lon="5.78235">
        <ele>488</ele>
        <time>2016-05-24T20:51:21Z</time>
      </trkpt>
      <trkpt lat="45.45568" lon="5.7812">
        <ele>485</ele>
        <time>2016-05-24T20:53:21Z</time>
      </trkpt>
      <trkpt lat="45.45565" lon="5.78108">
        <ele>484</ele>
        <time>2016-05-24T20:55:21Z</time>
      </trkpt>
      <trkpt lat="45.45557" lon="5.78075">
        <ele>483</ele>
        <time>2016-05-24T20:57:21Z</time>
      </trkpt>
      <trkpt lat="45.45549" lon="5.7804">
        <ele>481</ele>
        <time>2016-05-24T20:59:21Z</time>
      </trkpt>
      <trkpt lat="45.45545" lon="5.7802">
        <ele>479</ele>
        <time>2016-05-24T21:01:21Z</time>
      </trkpt>
      <trkpt lat="45.45543" lon="5.78007">
        <ele>479</ele>
        <time>2016-05-24T21:03:21Z</time>
      </trkpt>
      <trkpt lat="45.45538" lon="5.7797">
        <ele>477</ele>
        <time>2016-05-24T21:05:21Z</time>
      </trkpt>
      <trkpt lat="45.45535" lon="5.77945">
        <ele>476</ele>
        <time>2016-05-24T21:07:21Z</time>
      </trkpt>
      <trkpt lat="45.45533" lon="5.77894">
        <ele>474</ele>
        <time>2016-05-24T21:09:21Z</time>
      </trkpt>
      <trkpt lat="45.45532" lon="5.77832">
        <ele>473</ele>
        <time>2016-05-24T21:11:21Z</time>
      </trkpt>
      <trkpt lat="45.45532" lon="5.77819">
        <ele>473</ele>
        <time>2016-05-24T21:13:21Z</time>
      </trkpt>
      <trkpt lat="45.45531" lon="5.77807">
        <ele>473</ele>
        <time>2016-05-24T21:15:21Z</time>
      </trkpt>
      <trkpt lat="45.45531" lon="5.77804">
        <ele>473</ele>
        <time>2016-05-24T21:17:21Z</time>
      </trkpt>
      <trkpt lat="45.4553" lon="5.77794">
        <ele>472</ele>
        <time>2016-05-24T21:19:21Z</time>
      </trkpt>
      <trkpt lat="45.45529" lon="5.77777">
        <ele>472</ele>
        <time>2016-05-24T21:21:21Z</time>
      </trkpt>
      <trkpt lat="45.45526" lon="5.77758">
        <ele>472</ele>
        <time>2016-05-24T21:23:21Z</time>
      </trkpt>
      <trkpt lat="45.45525" lon="5.77756">
        <ele>471</ele>
        <time>2016-05-24T21:25:21Z</time>
      </trkpt>
      <trkpt lat="45.4551" lon="5.77708">
        <ele>469</ele>
        <time>2016-05-24T21:27:21Z</time>
      </trkpt>
      <trkpt lat="45.45504" lon="5.77687">
        <ele>468</ele>
        <time>2016-05-24T21:29:21Z</time>
      </trkpt>
      <trkpt lat="45.45499" lon="5.77666">
        <ele>467</ele>
        <time>2016-05-24T21:31:21Z</time>
      </trkpt>
      <trkpt lat="45.45498" lon="5.77665">
        <ele>466</ele>
        <time>2016-05-24T21:33:21Z</time>
      </trkpt>
      <trkpt lat="45.45497" lon="5.77653">
        <ele>465</ele>
        <time>2016-05-24T21:35:21Z</time>
      </trkpt>
      <trkpt lat="45.45496" lon="5.77641">
        <ele>464</ele>
        <time>2016-05-24T21:37:21Z</time>
      </trkpt>
      <trkpt lat="45.45497" lon="5.77635">
        <ele>464</ele>
        <time>2016-05-24T21:39:21Z</time>
      </trkpt>
      <trkpt lat="45.45497" lon="5.7763">
        <ele>464</ele>
        <time>2016-05-24T21:41:21Z</time>
      </trkpt>
      <trkpt lat="45.45498" lon="5.77618">
        <ele>463</ele>
        <time>2016-05-24T21:43:21Z</time>
      </trkpt>
      <trkpt lat="45.455" lon="5.77607">
        <ele>463</ele>
        <time>2016-05-24T21:45:21Z</time>
      </trkpt>
      <trkpt lat="45.45502" lon="5.77596">
        <ele>462</ele>
        <time>2016-05-24T21:47:21Z</time>
      </trkpt>
      <trkpt lat="45.45508" lon="5.77576">
        <ele>462</ele>
        <time>2016-05-24T21:49:21Z</time>
      </trkpt>
      <trkpt lat="45.4551" lon="5.7757">
        <ele>462</ele>
        <time>2016-05-24T21:51:21Z</time>
      </trkpt>
      <trkpt lat="45.45511" lon="5.77563">
        <ele>462</ele>
        <time>2016-05-24T21:53:21Z</time>
      </trkpt>
      <trkpt lat="45.45516" lon="5.77544">
        <ele>463</ele>
        <time>2016-05-24T21:55:21Z</time>
      </trkpt>
      <trkpt lat="45.45517" lon="5.77541">
        <ele>463</ele>
        <time>2016-05-24T21:57:21Z</time>
      </trkpt>
      <trkpt lat="45.45532" lon="5.7748">
        <ele>462</ele>
        <time>2016-05-24T21:59:21Z</time>
      </trkpt>
      <trkpt lat="45.45537" lon="5.77454">
        <ele>461</ele>
        <time>2016-05-24T22:01:21Z</time>
      </trkpt>
      <trkpt lat="45.45539" lon="5.77441">
        <ele>460</ele>
        <time>2016-05-24T22:03:21Z</time>
      </trkpt>
      <trkpt lat="45.4554" lon="5.77425">
        <ele>459</ele>
        <time>2016-05-24T22:05:21Z</time>
      </trkpt>
      <trkpt lat="45.4554" lon="5.77408">
        <ele>458</ele>
        <time>2016-05-24T22:07:21Z</time>
      </trkpt>
      <trkpt lat="45.45539" lon="5.77399">
        <ele>458</ele>
        <time>2016-05-24T22:09:21Z</time>
      </trkpt>
      <trkpt lat="45.45538" lon="5.77387">
        <ele>457</ele>
        <time>2016-05-24T22:11:21Z</time>
      </trkpt>
      <trkpt lat="45.45533" lon="5.77365">
        <ele>456</ele>
        <time>2016-05-24T22:13:21Z</time>
      </trkpt>
      <trkpt lat="45.45527" lon="5.77348">
        <ele>454</ele>
        <time>2016-05-24T22:15:21Z</time>
      </trkpt>
      <trkpt lat="45.4551" lon="5.77299">
        <ele>452</ele>
        <time>2016-05-24T22:17:21Z</time>
      </trkpt>
      <trkpt lat="45.45487" lon="5.77234">
        <ele>452</ele>
        <time>2016-05-24T22:19:21Z</time>
      </trkpt>
      <trkpt lat="45.45457" lon="5.77153">
        <ele>452</ele>
        <time>2016-05-24T22:21:21Z</time>
      </trkpt>
      <trkpt lat="45.45443" lon="5.77121">
        <ele>450</ele>
        <time>2016-05-24T22:23:21Z</time>
      </trkpt>
      <trkpt lat="45.45433" lon="5.77101">
        <ele>449</ele>
        <time>2016-05-24T22:25:21Z</time>
      </trkpt>
      <trkpt lat="45.45424" lon="5.77088">
        <ele>448</ele>
        <time>2016-05-24T22:27:21Z</time>
      </trkpt>
      <trkpt lat="45.45414" lon="5.77075">
        <ele>446</ele>
        <time>2016-05-24T22:29:21Z</time>
      </trkpt>
      <trkpt lat="45.45402" lon="5.77061">
        <ele>444</ele>
        <time>2016-05-24T22:31:21Z</time>
      </trkpt>
      <trkpt lat="45.45356" lon="5.77015">
        <ele>439</ele>
        <time>2016-05-24T22:33:21Z</time>
      </trkpt>
      <trkpt lat="45.4524" lon="5.76891">
        <ele>431</ele>
        <time>2016-05-24T22:35:21Z</time>
      </trkpt>
      <trkpt lat="45.45159" lon="5.76806">
        <ele>429</ele>
        <time>2016-05-24T22:37:21Z</time>
      </trkpt>
      <trkpt lat="45.45096" lon="5.76742">
        <ele>428</ele>
        <time>2016-05-24T22:39:21Z</time>
      </trkpt>
      <trkpt lat="45.45061" lon="5.76708">
        <ele>428</ele>
        <time>2016-05-24T22:41:21Z</time>
      </trkpt>
      <trkpt lat="45.45044" lon="5.76692">
        <ele>428</ele>
        <time>2016-05-24T22:43:21Z</time>
      </trkpt>
      <trkpt lat="45.45036" lon="5.76685">
        <ele>428</ele>
        <time>2016-05-24T22:45:21Z</time>
      </trkpt>
      <trkpt lat="45.44997" lon="5.76652">
        <ele>428</ele>
        <time>2016-05-24T22:47:21Z</time>
      </trkpt>
      <trkpt lat="45.44975" lon="5.76635">
        <ele>427</ele>
        <time>2016-05-24T22:49:21Z</time>
      </trkpt>
      <trkpt lat="45.4495" lon="5.76616">
        <ele>425</ele>
        <time>2016-05-24T22:51:21Z</time>
      </trkpt>
      <trkpt lat="45.44905" lon="5.76581">
        <ele>421</ele>
        <time>2016-05-24T22:53:21Z</time>
      </trkpt>
      <trkpt lat="45.44819" lon="5.76521">
        <ele>414</ele>
        <time>2016-05-24T22:55:21Z</time>
      </trkpt>
      <trkpt lat="45.44782" lon="5.76492">
        <ele>415</ele>
        <time>2016-05-24T22:57:21Z</time>
      </trkpt>
      <trkpt lat="45.44714" lon="5.7644">
        <ele>417</ele>
        <time>2016-05-24T22:59:21Z</time>
      </trkpt>
      <trkpt lat="45.44684" lon="5.76418">
        <ele>416</ele>
        <time>2016-05-24T23:01:21Z</time>
      </trkpt>
      <trkpt lat="45.44672" lon="5.76409">
        <ele>416</ele>
        <time>2016-05-24T23:03:21Z</time>
      </trkpt>
      <trkpt lat="45.44657" lon="5.76401">
        <ele>415</ele>
        <time>2016-05-24T23:05:21Z</time>
      </trkpt>
      <trkpt lat="45.44639" lon="5.76392">
        <ele>414</ele>
        <time>2016-05-24T23:07:21Z</time>
      </trkpt>
      <trkpt lat="45.44634" lon="5.76389">
        <ele>414</ele>
        <time>2016-05-24T23:09:21Z</time>
      </trkpt>
      <trkpt lat="45.44632" lon="5.76387">
        <ele>414</ele>
        <time>2016-05-24T23:11:21Z</time>
      </trkpt>
      <trkpt lat="45.44612" lon="5.76377">
        <ele>411</ele>
        <time>2016-05-24T23:13:21Z</time>
      </trkpt>
      <trkpt lat="45.44603" lon="5.7637">
        <ele>411</ele>
        <time>2016-05-24T23:15:21Z</time>
      </trkpt>
      <trkpt lat="45.44602" lon="5.76368">
        <ele>411</ele>
        <time>2016-05-24T23:17:21Z</time>
      </trkpt>
      <trkpt lat="45.44602" lon="5.76367">
        <ele>411</ele>
        <time>2016-05-24T23:19:21Z</time>
      </trkpt>
      <trkpt lat="45.44601" lon="5.76366">
        <ele>411</ele>
        <time>2016-05-24T23:21:21Z</time>
      </trkpt>
      <trkpt lat="45.44601" lon="5.76365">
        <ele>411</ele>
        <time>2016-05-24T23:23:21Z</time>
      </trkpt>
      <trkpt lat="45.44601" lon="5.76364">
        <ele>411</ele>
        <time>2016-05-24T23:25:21Z</time>
      </trkpt>
      <trkpt lat="45.446" lon="5.76363">
        <ele>411</ele>
        <time>2016-05-24T23:27:21Z</time>
      </trkpt>
      <trkpt lat="45.44599" lon="5.76362">
        <ele>410</ele>
        <time>2016-05-24T23:29:21Z</time>
      </trkpt>
      <trkpt lat="45.44598" lon="5.76361">
        <ele>410</ele>
        <time>2016-05-24T23:31:21Z</time>
      </trkpt>
      <trkpt lat="45.44598" lon="5.7636">
        <ele>410</ele>
        <time>2016-05-24T23:33:21Z</time>
      </trkpt>
      <trkpt lat="45.44597" lon="5.7636">
        <ele>410</ele>
        <time>2016-05-24T23:35:21Z</time>
      </trkpt>
      <trkpt lat="45.44596" lon="5.76359">
        <ele>410</ele>
        <time>2016-05-24T23:37:21Z</time>
      </trkpt>
      <trkpt lat="45.44595" lon="5.76358">
        <ele>410</ele>
        <time>2016-05-24T23:39:21Z</time>
      </trkpt>
      <trkpt lat="45.44594" lon="5.76358">
        <ele>410</ele>
        <time>2016-05-24T23:41:21Z</time>
      </trkpt>
      <trkpt lat="45.44593" lon="5.76357">
        <ele>410</ele>
        <time>2016-05-24T23:43:21Z</time>
      </trkpt>
      <trkpt lat="45.44585" lon="5.76348">
        <ele>409</ele>
        <time>2016-05-24T23:45:21Z</time>
      </trkpt>
      <trkpt lat="45.44583" lon="5.76345">
        <ele>408</ele>
        <time>2016-05-24T23:47:21Z</time>
      </trkpt>
      <trkpt lat="45.44579" lon="5.76341">
        <ele>408</ele>
        <time>2016-05-24T23:49:21Z</time>
      </trkpt>
      <trkpt lat="45.44545" lon="5.76316">
        <ele>409</ele>
        <time>2016-05-24T23:51:21Z</time>
      </trkpt>
      <trkpt lat="45.44511" lon="5.76292">
        <ele>409</ele>
        <time>2016-05-24T23:53:21Z</time>
      </trkpt>
      <trkpt lat="45.44488" lon="5.76277">
        <ele>409</ele>
        <time>2016-05-24T23:55:21Z</time>
      </trkpt>
      <trkpt lat="45.44477" lon="5.76269">
        <ele>408</ele>
        <time>2016-05-24T23:57:21Z</time>
      </trkpt>
      <trkpt lat="45.44465" lon="5.76264">
        <ele>408</ele>
        <time>2016-05-24T23:59:21Z</time>
      </trkpt>
      <trkpt lat="45.44435" lon="5.76244">
        <ele>407</ele>
        <time>2016-05-25T00:01:21Z</time>
      </trkpt>
      <trkpt lat="45.44375" lon="5.76199">
        <ele>407</ele>
        <time>2016-05-25T00:03:21Z</time>
      </trkpt>
      <trkpt lat="45.44339" lon="5.76172">
        <ele>405</ele>
        <time>2016-05-25T00:05:21Z</time>
      </trkpt>
      <trkpt lat="45.44323" lon="5.76159">
        <ele>405</ele>
        <time>2016-05-25T00:07:21Z</time>
      </trkpt>
      <trkpt lat="45.4429" lon="5.76128">
        <ele>406</ele>
        <time>2016-05-25T00:09:21Z</time>
      </trkpt>
      <trkpt lat="45.44285" lon="5.76124">
        <ele>406</ele>
        <time>2016-05-25T00:11:21Z</time>
      </trkpt>
      <trkpt lat="45.44261" lon="5.76102">
        <ele>404</ele>
        <time>2016-05-25T00:13:21Z</time>
      </trkpt>
      <trkpt lat="45.44236" lon="5.76077">
        <ele>403</ele>
        <time>2016-05-25T00:15:21Z</time>
      </trkpt>
      <trkpt lat="45.44176" lon="5.76015">
        <ele>405</ele>
        <time>2016-05-25T00:17:21Z</time>
      </trkpt>
      <trkpt lat="45.44102" lon="5.75938">
        <ele>405</ele>
        <time>2016-05-25T00:19:21Z</time>
      </trkpt>
      <trkpt lat="45.44063" lon="5.75898">
        <ele>404</ele>
        <time>2016-05-25T00:21:21Z</time>
      </trkpt>
      <trkpt lat="45.44054" lon="5.75888">
        <ele>405</ele>
        <time>2016-05-25T00:23:21Z</time>
      </trkpt>
      <trkpt lat="45.44011" lon="5.75846">
        <ele>405</ele>
        <time>2016-05-25T00:25:21Z</time>
      </trkpt>
      <trkpt lat="45.43962" lon="5.75795">
        <ele>405</ele>
        <time>2016-05-25T00:27:21Z</time>
      </trkpt>
      <trkpt lat="45.43922" lon="5.75754">
        <ele>403</ele>
        <time>2016-05-25T00:29:21Z</time>
      </trkpt>
      <trkpt lat="45.43908" lon="5.75739">
        <ele>404</ele>
        <time>2016-05-25T00:31:21Z</time>
      </trkpt>
      <trkpt lat="45.43893" lon="5.75724">
        <ele>405</ele>
        <time>2016-05-25T00:33:21Z</time>
      </trkpt>
      <trkpt lat="45.43882" lon="5.75714">
        <ele>405</ele>
        <time>2016-05-25T00:35:21Z</time>
      </trkpt>
      <trkpt lat="45.43875" lon="5.75709">
        <ele>405</ele>
        <time>2016-05-25T00:37:21Z</time>
      </trkpt>
      <trkpt lat="45.4387" lon="5.75705">
        <ele>405</ele>
        <time>2016-05-25T00:39:21Z</time>
      </trkpt>
      <trkpt lat="45.43862" lon="5.75701">
        <ele>405</ele>
        <time>2016-05-25T00:41:21Z</time>
      </trkpt>
      <trkpt lat="45.43854" lon="5.75696">
        <ele>404</ele>
        <time>2016-05-25T00:43:21Z</time>
      </trkpt>
      <trkpt lat="45.43842" lon="5.75691">
        <ele>403</ele>
        <time>2016-05-25T00:45:21Z</time>
      </trkpt>
      <trkpt lat="45.43841" lon="5.7569">
        <ele>403</ele>
        <time>2016-05-25T00:47:21Z</time>
      </trkpt>
      <trkpt lat="45.43808" lon="5.75676">
        <ele>401</ele>
        <time>2016-05-25T00:49:21Z</time>
      </trkpt>
      <trkpt lat="45.43792" lon="5.75669">
        <ele>400</ele>
        <time>2016-05-25T00:51:21Z</time>
      </trkpt>
      <trkpt lat="45.43779" lon="5.75661">
        <ele>400</ele>
        <time>2016-05-25T00:53:21Z</time>
      </trkpt>
      <trkpt lat="45.43751" lon="5.7564">
        <ele>398</ele>
        <time>2016-05-25T00:55:21Z</time>
      </trkpt>
      <trkpt lat="45.43737" lon="5.75626">
        <ele>399</ele>
        <time>2016-05-25T00:57:21Z</time>
      </trkpt>
      <trkpt lat="45.43731" lon="5.75621">
        <ele>399</ele>
        <time>2016-05-25T00:59:21Z</time>
      </trkpt>
      <trkpt lat="45.43692" lon="5.75592">
        <ele>399</ele>
        <time>2016-05-25T01:01:21Z</time>
      </trkpt>
      <trkpt lat="45.43678" lon="5.7558">
        <ele>399</ele>
        <time>2016-05-25T01:03:21Z</time>
      </trkpt>
      <trkpt lat="45.43675" lon="5.75576">
        <ele>399</ele>
        <time>2016-05-25T01:05:21Z</time>
      </trkpt>
      <trkpt lat="45.43672" lon="5.75573">
        <ele>399</ele>
        <time>2016-05-25T01:07:21Z</time>
      </trkpt>
      <trkpt lat="45.43671" lon="5.75571">
        <ele>399</ele>
        <time>2016-05-25T01:09:21Z</time>
      </trkpt>
      <trkpt lat="45.43668" lon="5.75568">
        <ele>399</ele>
        <time>2016-05-25T01:11:21Z</time>
      </trkpt>
      <trkpt lat="45.43665" lon="5.75563">
        <ele>399</ele>
        <time>2016-05-25T01:13:21Z</time>
      </trkpt>
      <trkpt lat="45.43654" lon="5.75544">
        <ele>398</ele>
        <time>2016-05-25T01:15:21Z</time>
      </trkpt>
      <trkpt lat="45.43646" lon="5.75529">
        <ele>398</ele>
        <time>2016-05-25T01:17:21Z</time>
      </trkpt>
      <trkpt lat="45.43631" lon="5.75502">
        <ele>397</ele>
        <time>2016-05-25T01:19:21Z</time>
      </trkpt>
      <trkpt lat="45.43628" lon="5.75497">
        <ele>397</ele>
        <time>2016-05-25T01:21:21Z</time>
      </trkpt>
      <trkpt lat="45.43626" lon="5.75491">
        <ele>397</ele>
        <time>2016-05-25T01:23:21Z</time>
      </trkpt>
      <trkpt lat="45.43624" lon="5.75485">
        <ele>397</ele>
        <time>2016-05-25T01:25:21Z</time>
      </trkpt>
      <trkpt lat="45.43623" lon="5.75482">
        <ele>397</ele>
        <time>2016-05-25T01:27:21Z</time>
      </trkpt>
      <trkpt lat="45.43623" lon="5.75477">
        <ele>397</ele>
        <time>2016-05-25T01:29:21Z</time>
      </trkpt>
      <trkpt lat="45.43623" lon="5.75471">
        <ele>397</ele>
        <time>2016-05-25T01:31:21Z</time>
      </trkpt>
      <trkpt lat="45.43623" lon="5.75464">
        <ele>397</ele>
        <time>2016-05-25T01:33:21Z</time>
      </trkpt>
      <trkpt lat="45.43623" lon="5.75455">
        <ele>397</ele>
        <time>2016-05-25T01:35:21Z</time>
      </trkpt>
      <trkpt lat="45.43623" lon="5.75442">
        <ele>397</ele>
        <time>2016-05-25T01:37:21Z</time>
      </trkpt>
      <trkpt lat="45.43623" lon="5.7543">
        <ele>398</ele>
        <time>2016-05-25T01:39:21Z</time>
      </trkpt>
      <trkpt lat="45.43623" lon="5.75411">
        <ele>398</ele>
        <time>2016-05-25T01:41:21Z</time>
      </trkpt>
      <trkpt lat="45.43628" lon="5.75411">
        <ele>398</ele>
        <time>2016-05-25T01:43:21Z</time>
      </trkpt>
      <trkpt lat="45.43635" lon="5.7541">
        <ele>398</ele>
        <time>2016-05-25T01:45:21Z</time>
      </trkpt>
      <trkpt lat="45.43645" lon="5.7541">
        <ele>398</ele>
        <time>2016-05-25T01:47:21Z</time>
      </trkpt>
      <trkpt lat="45.4365" lon="5.75409">
        <ele>398</ele>
        <time>2016-05-25T01:49:21Z</time>
      </trkpt>
      <trkpt lat="45.43654" lon="5.75409">
        <ele>398</ele>
        <time>2016-05-25T01:51:21Z</time>
      </trkpt>
      <trkpt lat="45.43659" lon="5.75407">
        <ele>398</ele>
        <time>2016-05-25T01:53:21Z</time>
      </trkpt>
      <trkpt lat="45.43664" lon="5.75405">
        <ele>398</ele>
        <time>2016-05-25T01:55:21Z</time>
      </trkpt>
      <trkpt lat="45.43668" lon="5.75403">
        <ele>398</ele>
        <time>2016-05-25T01:57:21Z</time>
      </trkpt>
      <trkpt lat="45.43673" lon="5.75401">
        <ele>398</ele>
        <time>2016-05-25T01:59:21Z</time>
      </trkpt>
      <trkpt lat="45.43679" lon="5.75398">
        <ele>398</ele>
        <time>2016-05-25T02:01:21Z</time>
      </trkpt>
      <trkpt lat="45.43686" lon="5.75394">
        <ele>397</ele>
        <time>2016-05-25T02:03:21Z</time>
      </trkpt>
      <trkpt lat="45.43694" lon="5.75389">
        <ele>397</ele>
        <time>2016-05-25T02:05:21Z</time>
      </trkpt>
      <trkpt lat="45.43702" lon="5.75384">
        <ele>396</ele>
        <time>2016-05-25T02:07:21Z</time>
      </trkpt>
      <trkpt lat="45.43706" lon="5.75381">
        <ele>396</ele>
        <time>2016-05-25T02:09:21Z</time>
      </trkpt>
      <trkpt lat="45.4371" lon="5.75378">
        <ele>396</ele>
        <time>2016-05-25T02:11:21Z</time>
      </trkpt>
      <trkpt lat="45.43713" lon="5.75375">
        <ele>396</ele>
        <time>2016-05-25T02:13:21Z</time>
      </trkpt>
      <trkpt lat="45.43715" lon="5.75372">
        <ele>395</ele>
        <time>2016-05-25T02:15:21Z</time>
      </trkpt>
      <trkpt lat="45.43718" lon="5.75369">
        <ele>395</ele>
        <time>2016-05-25T02:17:21Z</time>
      </trkpt>
      <trkpt lat="45.4372" lon="5.75365">
        <ele>395</ele>
        <time>2016-05-25T02:19:21Z</time>
      </trkpt>
      <trkpt lat="45.43722" lon="5.7536">
        <ele>394</ele>
        <time>2016-05-25T02:21:21Z</time>
      </trkpt>
      <trkpt lat="45.43724" lon="5.75355">
        <ele>393</ele>
        <time>2016-05-25T02:23:21Z</time>
      </trkpt>
      <trkpt lat="45.43726" lon="5.75351">
        <ele>393</ele>
        <time>2016-05-25T02:25:21Z</time>
      </trkpt>
      <trkpt lat="45.43727" lon="5.75346">
        <ele>393</ele>
        <time>2016-05-25T02:27:21Z</time>
      </trkpt>
      <trkpt lat="45.43729" lon="5.7534">
        <ele>392</ele>
        <time>2016-05-25T02:29:21Z</time>
      </trkpt>
      <trkpt lat="45.43729" lon="5.75339">
        <ele>392</ele>
        <time>2016-05-25T02:31:21Z</time>
      </trkpt>
      <trkpt lat="45.4373" lon="5.75335">
        <ele>391</ele>
        <time>2016-05-25T02:33:21Z</time>
      </trkpt>
      <trkpt lat="45.43731" lon="5.75329">
        <ele>391</ele>
        <time>2016-05-25T02:35:21Z</time>
      </trkpt>
      <trkpt lat="45.43734" lon="5.75317">
        <ele>390</ele>
        <time>2016-05-25T02:37:21Z</time>
      </trkpt>
      <trkpt lat="45.43741" lon="5.75278">
        <ele>389</ele>
        <time>2016-05-25T02:39:21Z</time>
      </trkpt>
      <trkpt lat="45.43744" lon="5.75264">
        <ele>388</ele>
        <time>2016-05-25T02:41:21Z</time>
      </trkpt>
      <trkpt lat="45.43745" lon="5.7526">
        <ele>388</ele>
        <time>2016-05-25T02:43:21Z</time>
      </trkpt>
      <trkpt lat="45.43746" lon="5.75255">
        <ele>388</ele>
        <time>2016-05-25T02:45:21Z</time>
      </trkpt>
      <trkpt lat="45.43749" lon="5.75249">
        <ele>388</ele>
        <time>2016-05-25T02:47:21Z</time>
      </trkpt>
      <trkpt lat="45.43751" lon="5.75245">
        <ele>388</ele>
        <time>2016-05-25T02:49:21Z</time>
      </trkpt>
      <trkpt lat="45.43754" lon="5.75241">
        <ele>388</ele>
        <time>2016-05-25T02:51:21Z</time>
      </trkpt>
      <trkpt lat="45.43757" lon="5.75236">
        <ele>388</ele>
        <time>2016-05-25T02:53:21Z</time>
      </trkpt>
      <trkpt lat="45.4376" lon="5.75233">
        <ele>388</ele>
        <time>2016-05-25T02:55:21Z</time>
      </trkpt>
      <trkpt lat="45.43764" lon="5.75229">
        <ele>388</ele>
        <time>2016-05-25T02:57:21Z</time>
      </trkpt>
      <trkpt lat="45.43769" lon="5.75224">
        <ele>388</ele>
        <time>2016-05-25T02:59:21Z</time>
      </trkpt>
      <trkpt lat="45.4379" lon="5.75202">
        <ele>388</ele>
        <time>2016-05-25T03:01:21Z</time>
      </trkpt>
      <trkpt lat="45.43805" lon="5.75187">
        <ele>388</ele>
        <time>2016-05-25T03:03:21Z</time>
      </trkpt>
      <trkpt lat="45.43813" lon="5.75178">
        <ele>388</ele>
        <time>2016-05-25T03:05:21Z</time>
      </trkpt>
      <trkpt lat="45.43819" lon="5.75171">
        <ele>388</ele>
        <time>2016-05-25T03:07:21Z</time>
      </trkpt>
      <trkpt lat="45.43824" lon="5.75166">
        <ele>389</ele>
        <time>2016-05-25T03:09:21Z</time>
      </trkpt>
      <trkpt lat="45.43829" lon="5.7516">
        <ele>389</ele>
        <time>2016-05-25T03:11:21Z</time>
      </trkpt>
      <trkpt lat="45.43834" lon="5.75153">
        <ele>389</ele>
        <time>2016-05-25T03:13:21Z</time>
      </trkpt>
      <trkpt lat="45.43838" lon="5.75148">
        <ele>388</ele>
        <time>2016-05-25T03:15:21Z</time>
      </trkpt>
      <trkpt lat="45.43843" lon="5.7514">
        <ele>388</ele>
        <time>2016-05-25T03:17:21Z</time>
      </trkpt>
      <trkpt lat="45.43856" lon="5.75117">
        <ele>388</ele>
        <time>2016-05-25T03:19:21Z</time>
      </trkpt>
      <trkpt lat="45.43856" lon="5.75117">
        <ele>388</ele>
        <time>2016-05-25T03:21:21Z</time>
      </trkpt>
      <trkpt lat="45.43853" lon="5.75117">
        <ele>387</ele>
        <time>2016-05-25T03:23:21Z</time>
      </trkpt>
      <trkpt lat="45.4385" lon="5.75117">
        <ele>387</ele>
        <time>2016-05-25T03:25:21Z</time>
      </trkpt>
      <trkpt lat="45.43845" lon="5.75115">
        <ele>387</ele>
        <time>2016-05-25T03:27:21Z</time>
      </trkpt>
      <trkpt lat="45.43841" lon="5.75114">
        <ele>387</ele>
        <time>2016-05-25T03:29:21Z</time>
      </trkpt>
      <trkpt lat="45.43836" lon="5.75113">
        <ele>387</ele>
        <time>2016-05-25T03:31:21Z</time>
      </trkpt>
      <trkpt lat="45.43829" lon="5.7511">
        <ele>387</ele>
        <time>2016-05-25T03:33:21Z</time>
      </trkpt>
      <trkpt lat="45.43812" lon="5.75106">
        <ele>386</ele>
        <time>2016-05-25T03:35:21Z</time>
      </trkpt>
      <trkpt lat="45.43807" lon="5.75106">
        <ele>386</ele>
        <time>2016-05-25T03:37:21Z</time>
      </trkpt>
      <trkpt lat="45.43798" lon="5.75105">
        <ele>385</ele>
        <time>2016-05-25T03:39:21Z</time>
      </trkpt>
      <trkpt lat="45.43795" lon="5.75104">
        <ele>385</ele>
        <time>2016-05-25T03:41:21Z</time>
      </trkpt>
      <trkpt lat="45.4379" lon="5.75104">
        <ele>385</ele>
        <time>2016-05-25T03:43:21Z</time>
      </trkpt>
      <trkpt lat="45.43786" lon="5.75105">
        <ele>385</ele>
        <time>2016-05-25T03:45:21Z</time>
      </trkpt>
      <trkpt lat="45.43781" lon="5.75106">
        <ele>385</ele>
        <time>2016-05-25T03:47:21Z</time>
      </trkpt>
      <trkpt lat="45.43777" lon="5.75106">
        <ele>385</ele>
        <time>2016-05-25T03:49:21Z</time>
      </trkpt>
      <trkpt lat="45.43772" lon="5.75108">
        <ele>384</ele>
        <time>2016-05-25T03:51:21Z</time>
      </trkpt>
      <trkpt lat="45.43767" lon="5.7511">
        <ele>384</ele>
        <time>2016-05-25T03:53:21Z</time>
      </trkpt>
      <trkpt lat="45.43762" lon="5.75112">
        <ele>384</ele>
        <time>2016-05-25T03:55:21Z</time>
      </trkpt>
      <trkpt lat="45.43757" lon="5.75114">
        <ele>384</ele>
        <time>2016-05-25T03:57:21Z</time>
      </trkpt>
      <trkpt lat="45.43755" lon="5.75115">
        <ele>384</ele>
        <time>2016-05-25T03:59:21Z</time>
      </trkpt>
      <trkpt lat="45.43753" lon="5.75117">
        <ele>384</ele>
        <time>2016-05-25T04:01:21Z</time>
      </trkpt>
      <trkpt lat="45.43748" lon="5.7512">
        <ele>384</ele>
        <time>2016-05-25T04:03:21Z</time>
      </trkpt>
      <trkpt lat="45.43743" lon="5.75123">
        <ele>384</ele>
        <time>2016-05-25T04:05:21Z</time>
      </trkpt>
      <trkpt lat="45.43737" lon="5.75127">
        <ele>384</ele>
        <time>2016-05-25T04:07:21Z</time>
      </trkpt>
      <trkpt lat="45.43731" lon="5.75131">
        <ele>384</ele>
        <time>2016-05-25T04:09:21Z</time>
      </trkpt>
      <trkpt lat="45.43718" lon="5.7514">
        <ele>384</ele>
        <time>2016-05-25T04:11:21Z</time>
      </trkpt>
      <trkpt lat="45.4369" lon="5.75157">
        <ele>384</ele>
        <time>2016-05-25T04:13:21Z</time>
      </trkpt>
      <trkpt lat="45.43664" lon="5.75174">
        <ele>384</ele>
        <time>2016-05-25T04:15:21Z</time>
      </trkpt>
      <trkpt lat="45.43572" lon="5.75239">
        <ele>386</ele>
        <time>2016-05-25T04:17:21Z</time>
      </trkpt>
      <trkpt lat="45.43566" lon="5.75243">
        <ele>386</ele>
        <time>2016-05-25T04:19:21Z</time>
      </trkpt>
      <trkpt lat="45.43561" lon="5.75246">
        <ele>386</ele>
        <time>2016-05-25T04:21:21Z</time>
      </trkpt>
      <trkpt lat="45.43556" lon="5.75249">
        <ele>386</ele>
        <time>2016-05-25T04:23:21Z</time>
      </trkpt>
      <trkpt lat="45.43553" lon="5.75252">
        <ele>386</ele>
        <time>2016-05-25T04:25:21Z</time>
      </trkpt>
      <trkpt lat="45.43549" lon="5.75253">
        <ele>386</ele>
        <time>2016-05-25T04:27:21Z</time>
      </trkpt>
      <trkpt lat="45.43545" lon="5.75255">
        <ele>386</ele>
        <time>2016-05-25T04:29:21Z</time>
      </trkpt>
      <trkpt lat="45.43542" lon="5.75256">
        <ele>386</ele>
        <time>2016-05-25T04:31:21Z</time>
      </trkpt>
      <trkpt lat="45.43539" lon="5.75257">
        <ele>386</ele>
        <time>2016-05-25T04:33:21Z</time>
      </trkpt>
      <trkpt lat="45.43536" lon="5.75258">
        <ele>386</ele>
        <time>2016-05-25T04:35:21Z</time>
      </trkpt>
      <trkpt lat="45.43532" lon="5.75259">
        <ele>386</ele>
        <time>2016-05-25T04:37:21Z</time>
      </trkpt>
      <trkpt lat="45.43528" lon="5.75259">
        <ele>386</ele>
        <time>2016-05-25T04:39:21Z</time>
      </trkpt>
      <trkpt lat="45.43524" lon="5.7526">
        <ele>386</ele>
        <time>2016-05-25T04:41:21Z</time>
      </trkpt>
      <trkpt lat="45.43519" lon="5.7526">
        <ele>386</ele>
        <time>2016-05-25T04:43:21Z</time>
      </trkpt>
      <trkpt lat="45.43514" lon="5.7526">
        <ele>386</ele>
        <time>2016-05-25T04:45:21Z</time>
      </trkpt>
      <trkpt lat="45.43508" lon="5.75259">
        <ele>386</ele>
        <time>2016-05-25T04:47:21Z</time>
      </trkpt>
      <trkpt lat="45.43488" lon="5.75258">
        <ele>386</ele>
        <time>2016-05-25T04:49:21Z</time>
      </trkpt>
      <trkpt lat="45.43488" lon="5.75258">
        <ele>386</ele>
        <time>2016-05-25T04:51:21Z</time>
      </trkpt>
      <trkpt lat="45.43473" lon="5.75257">
        <ele>386</ele>
        <time>2016-05-25T04:53:21Z</time>
      </trkpt>
      <trkpt lat="45.43463" lon="5.75257">
        <ele>385</ele>
        <time>2016-05-25T04:55:21Z</time>
      </trkpt>
      <trkpt lat="45.43457" lon="5.75256">
        <ele>385</ele>
        <time>2016-05-25T04:57:21Z</time>
      </trkpt>
      <trkpt lat="45.43426" lon="5.75253">
        <ele>385</ele>
        <time>2016-05-25T04:59:21Z</time>
      </trkpt>
      <trkpt lat="45.43366" lon="5.75247">
        <ele>386</ele>
        <time>2016-05-25T05:01:21Z</time>
      </trkpt>
      <trkpt lat="45.43335" lon="5.75238">
        <ele>387</ele>
        <time>2016-05-25T05:03:21Z</time>
      </trkpt>
      <trkpt lat="45.43331" lon="5.75235">
        <ele>387</ele>
        <time>2016-05-25T05:05:21Z</time>
      </trkpt>
      <trkpt lat="45.43316" lon="5.75232">
        <ele>387</ele>
        <time>2016-05-25T05:07:21Z</time>
      </trkpt>
      <trkpt lat="45.43307" lon="5.7523">
        <ele>388</ele>
        <time>2016-05-25T05:09:21Z</time>
      </trkpt>
      <trkpt lat="45.43299" lon="5.75232">
        <ele>388</ele>
        <time>2016-05-25T05:11:21Z</time>
      </trkpt>
      <trkpt lat="45.43299" lon="5.75232">
        <ele>388</ele>
        <time>2016-05-25T05:13:21Z</time>
      </trkpt>
      <trkpt lat="45.43299" lon="5.75227">
        <ele>388</ele>
        <time>2016-05-25T05:15:21Z</time>
      </trkpt>
      <trkpt lat="45.43299" lon="5.75223">
        <ele>388</ele>
        <time>2016-05-25T05:17:21Z</time>
      </trkpt>
      <trkpt lat="45.43299" lon="5.75218">
        <ele>388</ele>
        <time>2016-05-25T05:19:21Z</time>
      </trkpt>
      <trkpt lat="45.43298" lon="5.75208">
        <ele>388</ele>
        <time>2016-05-25T05:21:21Z</time>
      </trkpt>
      <trkpt lat="45.43298" lon="5.75181">
        <ele>388</ele>
        <time>2016-05-25T05:23:21Z</time>
      </trkpt>
      <trkpt lat="45.43299" lon="5.75171">
        <ele>388</ele>
        <time>2016-05-25T05:25:21Z</time>
      </trkpt>
      <trkpt lat="45.43299" lon="5.75167">
        <ele>387</ele>
        <time>2016-05-25T05:27:21Z</time>
      </trkpt>
      <trkpt lat="45.43301" lon="5.7516">
        <ele>387</ele>
        <time>2016-05-25T05:29:21Z</time>
      </trkpt>
      <trkpt lat="45.43303" lon="5.75152">
        <ele>387</ele>
        <time>2016-05-25T05:31:21Z</time>
      </trkpt>
      <trkpt lat="45.43309" lon="5.75139">
        <ele>387</ele>
        <time>2016-05-25T05:33:21Z</time>
      </trkpt>
      <trkpt lat="45.43319" lon="5.75118">
        <ele>387</ele>
        <time>2016-05-25T05:35:21Z</time>
      </trkpt>
      <trkpt lat="45.43327" lon="5.75101">
        <ele>387</ele>
        <time>2016-05-25T05:37:21Z</time>
      </trkpt>
      <trkpt lat="45.43335" lon="5.75081">
        <ele>387</ele>
        <time>2016-05-25T05:39:21Z</time>
      </trkpt>
      <trkpt lat="45.43341" lon="5.75068">
        <ele>387</ele>
        <time>2016-05-25T05:41:21Z</time>
      </trkpt>
      <trkpt lat="45.43346" lon="5.75055">
        <ele>388</ele>
        <time>2016-05-25T05:43:21Z</time>
      </trkpt>
      <trkpt lat="45.43349" lon="5.75047">
        <ele>388</ele>
        <time>2016-05-25T05:45:21Z</time>
      </trkpt>
      <trkpt lat="45.43351" lon="5.75039">
        <ele>388</ele>
        <time>2016-05-25T05:47:21Z</time>
      </trkpt>
      <trkpt lat="45.43353" lon="5.75031">
        <ele>388</ele>
        <time>2016-05-25T05:49:21Z</time>
      </trkpt>
      <trkpt lat="45.43355" lon="5.75023">
        <ele>388</ele>
        <time>2016-05-25T05:51:21Z</time>
      </trkpt>
      <trkpt lat="45.43355" lon="5.75018">
        <ele>389</ele>
        <time>2016-05-25T05:53:21Z</time>
      </trkpt>
      <trkpt lat="45.43356" lon="5.75009">
        <ele>389</ele>
        <time>2016-05-25T05:55:21Z</time>
      </trkpt>
      <trkpt lat="45.43357" lon="5.75003">
        <ele>389</ele>
        <time>2016-05-25T05:57:21Z</time>
      </trkpt>
      <trkpt lat="45.43357" lon="5.74998">
        <ele>389</ele>
        <time>2016-05-25T05:59:21Z</time>
      </trkpt>
      <trkpt lat="45.43357" lon="5.74986">
        <ele>389</ele>
        <time>2016-05-25T06:01:21Z</time>
      </trkpt>
      <trkpt lat="45.43358" lon="5.74971">
        <ele>389</ele>
        <time>2016-05-25T06:03:21Z</time>
      </trkpt>
      <trkpt lat="45.43358" lon="5.74939">
        <ele>390</ele>
        <time>2016-05-25T06:05:21Z</time>
      </trkpt>
      <trkpt lat="45.43358" lon="5.74868">
        <ele>388</ele>
        <time>2016-05-25T06:07:21Z</time>
      </trkpt>
      <trkpt lat="45.43359" lon="5.74716">
        <ele>382</ele>
        <time>2016-05-25T06:09:21Z</time>
      </trkpt>
      <trkpt lat="45.43358" lon="5.74578">
        <ele>381</ele>
        <time>2016-05-25T06:11:21Z</time>
      </trkpt>
      <trkpt lat="45.43359" lon="5.74533">
        <ele>382</ele>
        <time>2016-05-25T06:13:21Z</time>
      </trkpt>
      <trkpt lat="45.43359" lon="5.745">
        <ele>383</ele>
        <time>2016-05-25T06:15:21Z</time>
      </trkpt>
      <trkpt lat="45.4336" lon="5.74404">
        <ele>383</ele>
        <time>2016-05-25T06:17:21Z</time>
      </trkpt>
      <trkpt lat="45.4336" lon="5.74396">
        <ele>383</ele>
        <time>2016-05-25T06:19:21Z</time>
      </trkpt>
      <trkpt lat="45.43359" lon="5.74261">
        <ele>386</ele>
        <time>2016-05-25T06:21:21Z</time>
      </trkpt>
      <trkpt lat="45.43359" lon="5.74248">
        <ele>386</ele>
        <time>2016-05-25T06:23:21Z</time>
      </trkpt>
      <trkpt lat="45.43359" lon="5.7424">
        <ele>386</ele>
        <time>2016-05-25T06:25:21Z</time>
      </trkpt>
      <trkpt lat="45.4336" lon="5.74232">
        <ele>386</ele>
        <time>2016-05-25T06:27:21Z</time>
      </trkpt>
      <trkpt lat="45.4336" lon="5.74226">
        <ele>385</ele>
        <time>2016-05-25T06:29:21Z</time>
      </trkpt>
      <trkpt lat="45.43362" lon="5.74219">
        <ele>385</ele>
        <time>2016-05-25T06:31:21Z</time>
      </trkpt>
      <trkpt lat="45.43363" lon="5.74214">
        <ele>385</ele>
        <time>2016-05-25T06:33:21Z</time>
      </trkpt>
      <trkpt lat="45.43364" lon="5.74209">
        <ele>385</ele>
        <time>2016-05-25T06:35:21Z</time>
      </trkpt>
      <trkpt lat="45.43366" lon="5.74204">
        <ele>385</ele>
        <time>2016-05-25T06:37:21Z</time>
      </trkpt>
      <trkpt lat="45.43369" lon="5.74196">
        <ele>384</ele>
        <time>2016-05-25T06:39:21Z</time>
      </trkpt>
      <trkpt lat="45.43372" lon="5.74188">
        <ele>384</ele>
        <time>2016-05-25T06:41:21Z</time>
      </trkpt>
      <trkpt lat="45.43376" lon="5.7418">
        <ele>384</ele>
        <time>2016-05-25T06:43:21Z</time>
      </trkpt>
      <trkpt lat="45.43381" lon="5.74169">
        <ele>383</ele>
        <time>2016-05-25T06:45:21Z</time>
      </trkpt>
      <trkpt lat="45.43385" lon="5.7416">
        <ele>384</ele>
        <time>2016-05-25T06:47:21Z</time>
      </trkpt>
      <trkpt lat="45.43402" lon="5.74129">
        <ele>385</ele>
        <time>2016-05-25T06:49:21Z</time>
      </trkpt>
      <trkpt lat="45.43409" lon="5.74116">
        <ele>386</ele>
        <time>2016-05-25T06:51:21Z</time>
      </trkpt>
      <trkpt lat="45.43415" lon="5.74105">
        <ele>387</ele>
        <time>2016-05-25T06:53:21Z</time>
      </trkpt>
      <trkpt lat="45.43422" lon="5.74095">
        <ele>387</ele>
        <time>2016-05-25T06:55:21Z</time>
      </trkpt>
      <trkpt lat="45.43428" lon="5.74088">
        <ele>387</ele>
        <time>2016-05-25T06:57:21Z</time>
      </trkpt>
      <trkpt lat="45.43436" lon="5.7408">
        <ele>387</ele>
        <time>2016-05-25T06:59:21Z</time>
      </trkpt>
      <trkpt lat="45.43447" lon="5.74069">
        <ele>387</ele>
        <time>2016-05-25T07:01:21Z</time>
      </trkpt>
      <trkpt lat="45.43466" lon="5.74051">
        <ele>387</ele>
        <time>2016-05-25T07:03:21Z</time>
      </trkpt>
      <trkpt lat="45.43471" lon="5.74047">
        <ele>386</ele>
        <time>2016-05-25T07:05:21Z</time>
      </trkpt>
      <trkpt lat="45.43481" lon="5.74039">
        <ele>386</ele>
        <time>2016-05-25T07:07:21Z</time>
      </trkpt>
      <trkpt lat="45.43496" lon="5.74029">
        <ele>386</ele>
        <time>2016-05-25T07:09:21Z</time>
      </trkpt>
      <trkpt lat="45.43529" lon="5.74008">
        <ele>384</ele>
        <time>2016-05-25T07:11:21Z</time>
      </trkpt>
      <trkpt lat="45.43552" lon="5.73997">
        <ele>384</ele>
        <time>2016-05-25T07:13:21Z</time>
      </trkpt>
      <trkpt lat="45.43565" lon="5.73991">
        <ele>384</ele>
        <time>2016-05-25T07:15:21Z</time>
      </trkpt>
      <trkpt lat="45.43586" lon="5.73984">
        <ele>384</ele>
        <time>2016-05-25T07:17:21Z</time>
      </trkpt>
      <trkpt lat="45.43619" lon="5.73972">
        <ele>384</ele>
        <time>2016-05-25T07:19:21Z</time>
      </trkpt>
      <trkpt lat="45.43638" lon="5.73965">
        <ele>385</ele>
        <time>2016-05-25T07:21:21Z</time>
      </trkpt>
      <trkpt lat="45.43638" lon="5.73965">
        <ele>385</ele>
        <time>2016-05-25T07:23:21Z</time>
      </trkpt>
      <trkpt lat="45.43647" lon="5.73961">
        <ele>385</ele>
        <time>2016-05-25T07:25:21Z</time>
      </trkpt>
      <trkpt lat="45.4367" lon="5.73952">
        <ele>386</ele>
        <time>2016-05-25T07:27:21Z</time>
      </trkpt>
      <trkpt lat="45.43686" lon="5.73945">
        <ele>386</ele>
        <time>2016-05-25T07:29:21Z</time>
      </trkpt>
      <trkpt lat="45.43699" lon="5.73941">
        <ele>386</ele>
        <time>2016-05-25T07:31:21Z</time>
      </trkpt>
      <trkpt lat="45.43711" lon="5.73939">
        <ele>386</ele>
        <time>2016-05-25T07:33:21Z</time>
      </trkpt>
      <trkpt lat="45.43723" lon="5.73938">
        <ele>386</ele>
        <time>2016-05-25T07:35:21Z</time>
      </trkpt>
      <trkpt lat="45.43729" lon="5.73937">
        <ele>386</ele>
        <time>2016-05-25T07:37:21Z</time>
      </trkpt>
      <trkpt lat="45.43735" lon="5.73936">
        <ele>386</ele>
        <time>2016-05-25T07:39:21Z</time>
      </trkpt>
      <trkpt lat="45.4374" lon="5.73934">
        <ele>386</ele>
        <time>2016-05-25T07:41:21Z</time>
      </trkpt>
      <trkpt lat="45.43746" lon="5.73931">
        <ele>386</ele>
        <time>2016-05-25T07:43:21Z</time>
      </trkpt>
      <trkpt lat="45.43751" lon="5.73928">
        <ele>386</ele>
        <time>2016-05-25T07:45:21Z</time>
      </trkpt>
      <trkpt lat="45.43751" lon="5.73928">
        <ele>386</ele>
        <time>2016-05-25T07:47:21Z</time>
      </trkpt>
      <trkpt lat="45.43756" lon="5.7393">
        <ele>386</ele>
        <time>2016-05-25T07:49:21Z</time>
      </trkpt>
      <trkpt lat="45.43758" lon="5.73931">
        <ele>386</ele>
        <time>2016-05-25T07:51:21Z</time>
      </trkpt>
      <trkpt lat="45.43759" lon="5.73931">
        <ele>386</ele>
        <time>2016-05-25T07:53:21Z</time>
      </trkpt>
      <trkpt lat="45.43761" lon="5.73931">
        <ele>385</ele>
        <time>2016-05-25T07:55:21Z</time>
      </trkpt>
      <trkpt lat="45.43771" lon="5.73931">
        <ele>385</ele>
        <time>2016-05-25T07:57:21Z</time>
      </trkpt>
      <trkpt lat="45.43792" lon="5.7393">
        <ele>383</ele>
        <time>2016-05-25T07:59:21Z</time>
      </trkpt>
      <trkpt lat="45.43811" lon="5.73928">
        <ele>382</ele>
        <time>2016-05-25T08:01:21Z</time>
      </trkpt>
      <trkpt lat="45.43818" lon="5.73928">
        <ele>382</ele>
        <time>2016-05-25T08:03:21Z</time>
      </trkpt>
      <trkpt lat="45.43826" lon="5.73926">
        <ele>381</ele>
        <time>2016-05-25T08:05:21Z</time>
      </trkpt>
      <trkpt lat="45.43833" lon="5.73923">
        <ele>381</ele>
        <time>2016-05-25T08:07:21Z</time>
      </trkpt>
      <trkpt lat="45.43848" lon="5.73911">
        <ele>381</ele>
        <time>2016-05-25T08:09:21Z</time>
      </trkpt>
      <trkpt lat="45.43874" lon="5.73885">
        <ele>381</ele>
        <time>2016-05-25T08:11:21Z</time>
      </trkpt>
      <trkpt lat="45.4389" lon="5.73868">
        <ele>381</ele>
        <time>2016-05-25T08:13:21Z</time>
      </trkpt>
      <trkpt lat="45.43897" lon="5.73858">
        <ele>382</ele>
        <time>2016-05-25T08:15:21Z</time>
      </trkpt>
      <trkpt lat="45.43901" lon="5.73848">
        <ele>382</ele>
        <time>2016-05-25T08:17:21Z</time>
      </trkpt>
      <trkpt lat="45.43907" lon="5.73832">
        <ele>383</ele>
        <time>2016-05-25T08:19:21Z</time>
      </trkpt>
      <trkpt lat="45.43911" lon="5.73823">
        <ele>383</ele>
        <time>2016-05-25T08:21:21Z</time>
      </trkpt>
      <trkpt lat="45.43914" lon="5.73818">
        <ele>383</ele>
        <time>2016-05-25T08:23:21Z</time>
      </trkpt>
      <trkpt lat="45.4392" lon="5.73811">
        <ele>383</ele>
        <time>2016-05-25T08:25:21Z</time>
      </trkpt>
      <trkpt lat="45.43927" lon="5.73806">
        <ele>382</ele>
        <time>2016-05-25T08:27:21Z</time>
      </trkpt>
      <trkpt lat="45.43938" lon="5.73802">
        <ele>382</ele>
        <time>2016-05-25T08:29:21Z</time>
      </trkpt>
      <trkpt lat="45.43962" lon="5.73797">
        <ele>381</ele>
        <time>2016-05-25T08:31:21Z</time>
      </trkpt>
      <trkpt lat="45.43994" lon="5.7379">
        <ele>379</ele>
        <time>2016-05-25T08:33:21Z</time>
      </trkpt>
      <trkpt lat="45.44027" lon="5.73784">
        <ele>379</ele>
        <time>2016-05-25T08:35:21Z</time>
      </trkpt>
      <trkpt lat="45.4405" lon="5.73784">
        <ele>379</ele>
        <time>2016-05-25T08:37:21Z</time>
      </trkpt>
      <trkpt lat="45.44072" lon="5.73785">
        <ele>380</ele>
        <time>2016-05-25T08:39:21Z</time>
      </trkpt>
      <trkpt lat="45.44091" lon="5.73788">
        <ele>379</ele>
        <time>2016-05-25T08:41:21Z</time>
      </trkpt>
      <trkpt lat="45.44103" lon="5.7379">
        <ele>379</ele>
        <time>2016-05-25T08:43:21Z</time>
      </trkpt>
      <trkpt lat="45.4411" lon="5.7379">
        <ele>378</ele>
        <time>2016-05-25T08:45:21Z</time>
      </trkpt>
      <trkpt lat="45.44115" lon="5.73788">
        <ele>378</ele>
        <time>2016-05-25T08:47:21Z</time>
      </trkpt>
      <trkpt lat="45.44119" lon="5.73784">
        <ele>377</ele>
        <time>2016-05-25T08:49:21Z</time>
      </trkpt>
      <trkpt lat="45.44121" lon="5.73779">
        <ele>377</ele>
        <time>2016-05-25T08:51:21Z</time>
      </trkpt>
      <trkpt lat="45.44122" lon="5.73775">
        <ele>377</ele>
        <time>2016-05-25T08:53:21Z</time>
      </trkpt>
      <trkpt lat="45.44123" lon="5.73752">
        <ele>377</ele>
        <time>2016-05-25T08:55:21Z</time>
      </trkpt>
      <trkpt lat="45.44123" lon="5.73739">
        <ele>377</ele>
        <time>2016-05-25T08:57:21Z</time>
      </trkpt>
      <trkpt lat="45.44125" lon="5.73731">
        <ele>377</ele>
        <time>2016-05-25T08:59:21Z</time>
      </trkpt>
      <trkpt lat="45.44129" lon="5.73722">
        <ele>377</ele>
        <time>2016-05-25T09:01:21Z</time>
      </trkpt>
      <trkpt lat="45.44144" lon="5.73705">
        <ele>377</ele>
        <time>2016-05-25T09:03:21Z</time>
      </trkpt>
      <trkpt lat="45.44168" lon="5.73679">
        <ele>377</ele>
        <time>2016-05-25T09:05:21Z</time>
      </trkpt>
      <trkpt lat="45.44182" lon="5.73664">
        <ele>377</ele>
        <time>2016-05-25T09:07:21Z</time>
      </trkpt>
      <trkpt lat="45.44189" lon="5.73657">
        <ele>377</ele>
        <time>2016-05-25T09:09:21Z</time>
      </trkpt>
      <trkpt lat="45.44196" lon="5.73653">
        <ele>377</ele>
        <time>2016-05-25T09:11:21Z</time>
      </trkpt>
      <trkpt lat="45.44203" lon="5.73652">
        <ele>377</ele>
        <time>2016-05-25T09:13:21Z</time>
      </trkpt>
      <trkpt lat="45.4421" lon="5.73653">
        <ele>377</ele>
        <time>2016-05-25T09:15:21Z</time>
      </trkpt>
      <trkpt lat="45.44216" lon="5.73654">
        <ele>376</ele>
        <time>2016-05-25T09:17:21Z</time>
      </trkpt>
      <trkpt lat="45.44222" lon="5.73656">
        <ele>376</ele>
        <time>2016-05-25T09:19:21Z</time>
      </trkpt>
      <trkpt lat="45.44239" lon="5.73661">
        <ele>375</ele>
        <time>2016-05-25T09:21:21Z</time>
      </trkpt>
      <trkpt lat="45.44256" lon="5.73664">
        <ele>374</ele>
        <time>2016-05-25T09:23:21Z</time>
      </trkpt>
      <trkpt lat="45.44265" lon="5.73664">
        <ele>374</ele>
        <time>2016-05-25T09:25:21Z</time>
      </trkpt>
      <trkpt lat="45.4427" lon="5.73662">
        <ele>374</ele>
        <time>2016-05-25T09:27:21Z</time>
      </trkpt>
      <trkpt lat="45.44275" lon="5.7366">
        <ele>374</ele>
        <time>2016-05-25T09:29:21Z</time>
      </trkpt>
      <trkpt lat="45.44278" lon="5.73658">
        <ele>374</ele>
        <time>2016-05-25T09:31:21Z</time>
      </trkpt>
      <trkpt lat="45.44282" lon="5.73654">
        <ele>375</ele>
        <time>2016-05-25T09:33:21Z</time>
      </trkpt>
      <trkpt lat="45.44298" lon="5.73637">
        <ele>376</ele>
        <time>2016-05-25T09:35:21Z</time>
      </trkpt>
      <trkpt lat="45.44304" lon="5.7363">
        <ele>377</ele>
        <time>2016-05-25T09:37:21Z</time>
      </trkpt>
      <trkpt lat="45.44307" lon="5.73626">
        <ele>377</ele>
        <time>2016-05-25T09:39:21Z</time>
      </trkpt>
      <trkpt lat="45.44309" lon="5.73622">
        <ele>378</ele>
        <time>2016-05-25T09:41:21Z</time>
      </trkpt>
      <trkpt lat="45.44312" lon="5.73617">
        <ele>378</ele>
        <time>2016-05-25T09:43:21Z</time>
      </trkpt>
      <trkpt lat="45.44318" lon="5.73602">
        <ele>380</ele>
        <time>2016-05-25T09:45:21Z</time>
      </trkpt>
      <trkpt lat="45.44325" lon="5.73585">
        <ele>382</ele>
        <time>2016-05-25T09:47:21Z</time>
      </trkpt>
      <trkpt lat="45.44341" lon="5.73556">
        <ele>386</ele>
        <time>2016-05-25T09:49:21Z</time>
      </trkpt>
      <trkpt lat="45.4435" lon="5.73541">
        <ele>387</ele>
        <time>2016-05-25T09:51:21Z</time>
      </trkpt>
      <trkpt lat="45.44359" lon="5.7353">
        <ele>387</ele>
        <time>2016-05-25T09:53:21Z</time>
      </trkpt>
      <trkpt lat="45.44366" lon="5.73523">
        <ele>387</ele>
        <time>2016-05-25T09:55:21Z</time>
      </trkpt>
      <trkpt lat="45.44374" lon="5.73516">
        <ele>386</ele>
        <time>2016-05-25T09:57:21Z</time>
      </trkpt>
      <trkpt lat="45.44396" lon="5.73498">
        <ele>384</ele>
        <time>2016-05-25T09:59:21Z</time>
      </trkpt>
      <trkpt lat="45.44425" lon="5.73475">
        <ele>381</ele>
        <time>2016-05-25T10:01:21Z</time>
      </trkpt>
      <trkpt lat="45.44443" lon="5.73464">
        <ele>381</ele>
        <time>2016-05-25T10:03:21Z</time>
      </trkpt>
      <trkpt lat="45.44447" lon="5.73461">
        <ele>381</ele>
        <time>2016-05-25T10:05:21Z</time>
      </trkpt>
      <trkpt lat="45.4445" lon="5.73459">
        <ele>380</ele>
        <time>2016-05-25T10:07:21Z</time>
      </trkpt>
      <trkpt lat="45.44455" lon="5.73458">
        <ele>380</ele>
        <time>2016-05-25T10:09:21Z</time>
      </trkpt>
      <trkpt lat="45.44459" lon="5.73456">
        <ele>380</ele>
        <time>2016-05-25T10:11:21Z</time>
      </trkpt>
      <trkpt lat="45.44465" lon="5.73456">
        <ele>380</ele>
        <time>2016-05-25T10:13:21Z</time>
      </trkpt>
      <trkpt lat="45.4447" lon="5.73454">
        <ele>379</ele>
        <time>2016-05-25T10:15:21Z</time>
      </trkpt>
      <trkpt lat="45.44475" lon="5.73452">
        <ele>379</ele>
        <time>2016-05-25T10:17:21Z</time>
      </trkpt>
      <trkpt lat="45.44487" lon="5.73444">
        <ele>379</ele>
        <time>2016-05-25T10:19:21Z</time>
      </trkpt>
      <trkpt lat="45.445" lon="5.73437">
        <ele>378</ele>
        <time>2016-05-25T10:21:21Z</time>
      </trkpt>
      <trkpt lat="45.44503" lon="5.73435">
        <ele>378</ele>
        <time>2016-05-25T10:23:21Z</time>
      </trkpt>
      <trkpt lat="45.44508" lon="5.73433">
        <ele>378</ele>
        <time>2016-05-25T10:25:21Z</time>
      </trkpt>
      <trkpt lat="45.44512" lon="5.7343">
        <ele>378</ele>
        <time>2016-05-25T10:27:21Z</time>
      </trkpt>
      <trkpt lat="45.4452" lon="5.73425">
        <ele>378</ele>
        <time>2016-05-25T10:29:21Z</time>
      </trkpt>
      <trkpt lat="45.44528" lon="5.7342">
        <ele>378</ele>
        <time>2016-05-25T10:31:21Z</time>
      </trkpt>
      <trkpt lat="45.44534" lon="5.73416">
        <ele>378</ele>
        <time>2016-05-25T10:33:21Z</time>
      </trkpt>
      <trkpt lat="45.4454" lon="5.73409">
        <ele>378</ele>
        <time>2016-05-25T10:35:21Z</time>
      </trkpt>
      <trkpt lat="45.44545" lon="5.73404">
        <ele>378</ele>
        <time>2016-05-25T10:37:21Z</time>
      </trkpt>
      <trkpt lat="45.44548" lon="5.73399">
        <ele>379</ele>
        <time>2016-05-25T10:39:21Z</time>
      </trkpt>
      <trkpt lat="45.44551" lon="5.73393">
        <ele>379</ele>
        <time>2016-05-25T10:41:21Z</time>
      </trkpt>
      <trkpt lat="45.44556" lon="5.73385">
        <ele>379</ele>
        <time>2016-05-25T10:43:21Z</time>
      </trkpt>
      <trkpt lat="45.44561" lon="5.73374">
        <ele>379</ele>
        <time>2016-05-25T10:45:21Z</time>
      </trkpt>
      <trkpt lat="45.44561" lon="5.73374">
        <ele>379</ele>
        <time>2016-05-25T10:47:21Z</time>
      </trkpt>
      <trkpt lat="45.44559" lon="5.73363">
        <ele>379</ele>
        <time>2016-05-25T10:49:21Z</time>
      </trkpt>
      <trkpt lat="45.44559" lon="5.7335">
        <ele>380</ele>
        <time>2016-05-25T10:51:21Z</time>
      </trkpt>
      <trkpt lat="45.44561" lon="5.7333">
        <ele>381</ele>
        <time>2016-05-25T10:53:21Z</time>
      </trkpt>
      <trkpt lat="45.44564" lon="5.73305">
        <ele>382</ele>
        <time>2016-05-25T10:55:21Z</time>
      </trkpt>
      <trkpt lat="45.44566" lon="5.73287">
        <ele>382</ele>
        <time>2016-05-25T10:57:21Z</time>
      </trkpt>
      <trkpt lat="45.44566" lon="5.73273">
        <ele>383</ele>
        <time>2016-05-25T10:59:21Z</time>
      </trkpt>
      <trkpt lat="45.44566" lon="5.73263">
        <ele>384</ele>
        <time>2016-05-25T11:01:21Z</time>
      </trkpt>
      <trkpt lat="45.44564" lon="5.73248">
        <ele>385</ele>
        <time>2016-05-25T11:03:21Z</time>
      </trkpt>
      <trkpt lat="45.44561" lon="5.7323">
        <ele>386</ele>
        <time>2016-05-25T11:05:21Z</time>
      </trkpt>
      <trkpt lat="45.44556" lon="5.73203">
        <ele>387</ele>
        <time>2016-05-25T11:07:21Z</time>
      </trkpt>
      <trkpt lat="45.44551" lon="5.73177">
        <ele>388</ele>
        <time>2016-05-25T11:09:21Z</time>
      </trkpt>
      <trkpt lat="45.44549" lon="5.73157">
        <ele>390</ele>
        <time>2016-05-25T11:11:21Z</time>
      </trkpt>
      <trkpt lat="45.44549" lon="5.7314">
        <ele>391</ele>
        <time>2016-05-25T11:13:21Z</time>
      </trkpt>
      <trkpt lat="45.44549" lon="5.73124">
        <ele>393</ele>
        <time>2016-05-25T11:15:21Z</time>
      </trkpt>
      <trkpt lat="45.4455" lon="5.73105">
        <ele>395</ele>
        <time>2016-05-25T11:17:21Z</time>
      </trkpt>
      <trkpt lat="45.44552" lon="5.73074">
        <ele>398</ele>
        <time>2016-05-25T11:19:21Z</time>
      </trkpt>
      <trkpt lat="45.44553" lon="5.73059">
        <ele>400</ele>
        <time>2016-05-25T11:21:21Z</time>
      </trkpt>
      <trkpt lat="45.44553" lon="5.73046">
        <ele>401</ele>
        <time>2016-05-25T11:23:21Z</time>
      </trkpt>
      <trkpt lat="45.44551" lon="5.73023">
        <ele>404</ele>
        <time>2016-05-25T11:25:21Z</time>
      </trkpt>
      <trkpt lat="45.44549" lon="5.72985">
        <ele>408</ele>
        <time>2016-05-25T11:27:21Z</time>
      </trkpt>
      <trkpt lat="45.44548" lon="5.72969">
        <ele>410</ele>
        <time>2016-05-25T11:29:21Z</time>
      </trkpt>
      <trkpt lat="45.44548" lon="5.72963">
        <ele>410</ele>
        <time>2016-05-25T11:31:21Z</time>
      </trkpt>
      <trkpt lat="45.44547" lon="5.72957">
        <ele>411</ele>
        <time>2016-05-25T11:33:21Z</time>
      </trkpt>
      <trkpt lat="45.44545" lon="5.7295">
        <ele>412</ele>
        <time>2016-05-25T11:35:21Z</time>
      </trkpt>
      <trkpt lat="45.44541" lon="5.72939">
        <ele>413</ele>
        <time>2016-05-25T11:37:21Z</time>
      </trkpt>
      <trkpt lat="45.44536" lon="5.72926">
        <ele>414</ele>
        <time>2016-05-25T11:39:21Z</time>
      </trkpt>
      <trkpt lat="45.44526" lon="5.72906">
        <ele>416</ele>
        <time>2016-05-25T11:41:21Z</time>
      </trkpt>
      <trkpt lat="45.44513" lon="5.72874">
        <ele>418</ele>
        <time>2016-05-25T11:43:21Z</time>
      </trkpt>
      <trkpt lat="45.44502" lon="5.72843">
        <ele>420</ele>
        <time>2016-05-25T11:45:21Z</time>
      </trkpt>
      <trkpt lat="45.44493" lon="5.72816">
        <ele>422</ele>
        <time>2016-05-25T11:47:21Z</time>
      </trkpt>
      <trkpt lat="45.44489" lon="5.72803">
        <ele>422</ele>
        <time>2016-05-25T11:49:21Z</time>
      </trkpt>
      <trkpt lat="45.44489" lon="5.72799">
        <ele>423</ele>
        <time>2016-05-25T11:51:21Z</time>
      </trkpt>
      <trkpt lat="45.44488" lon="5.72794">
        <ele>423</ele>
        <time>2016-05-25T11:53:21Z</time>
      </trkpt>
      <trkpt lat="45.44489" lon="5.72791">
        <ele>423</ele>
        <time>2016-05-25T11:55:21Z</time>
      </trkpt>
      <trkpt lat="45.44489" lon="5.72787">
        <ele>424</ele>
        <time>2016-05-25T11:57:21Z</time>
      </trkpt>
      <trkpt lat="45.44491" lon="5.7278">
        <ele>425</ele>
        <time>2016-05-25T11:59:21Z</time>
      </trkpt>
      <trkpt lat="45.44498" lon="5.72761">
        <ele>428</ele>
        <time>2016-05-25T12:01:21Z</time>
      </trkpt>
      <trkpt lat="45.44503" lon="5.72742">
        <ele>430</ele>
        <time>2016-05-25T12:03:21Z</time>
      </trkpt>
      <trkpt lat="45.44512" lon="5.72706">
        <ele>435</ele>
        <time>2016-05-25T12:05:21Z</time>
      </trkpt>
      <trkpt lat="45.44517" lon="5.72692">
        <ele>437</ele>
        <time>2016-05-25T12:07:21Z</time>
      </trkpt>
      <trkpt lat="45.4452" lon="5.72686">
        <ele>438</ele>
        <time>2016-05-25T12:09:21Z</time>
      </trkpt>
      <trkpt lat="45.44525" lon="5.72681">
        <ele>439</ele>
        <time>2016-05-25T12:11:21Z</time>
      </trkpt>
      <trkpt lat="45.44536" lon="5.72674">
        <ele>442</ele>
        <time>2016-05-25T12:13:21Z</time>
      </trkpt>
      <trkpt lat="45.44546" lon="5.72666">
        <ele>444</ele>
        <time>2016-05-25T12:15:21Z</time>
      </trkpt>
      <trkpt lat="45.44553" lon="5.72656">
        <ele>447</ele>
        <time>2016-05-25T12:17:21Z</time>
      </trkpt>
      <trkpt lat="45.44561" lon="5.7264">
        <ele>450</ele>
        <time>2016-05-25T12:19:21Z</time>
      </trkpt>
      <trkpt lat="45.44565" lon="5.72625">
        <ele>452</ele>
        <time>2016-05-25T12:21:21Z</time>
      </trkpt>
      <trkpt lat="45.44567" lon="5.72613">
        <ele>454</ele>
        <time>2016-05-25T12:23:21Z</time>
      </trkpt>
      <trkpt lat="45.44567" lon="5.72608">
        <ele>455</ele>
        <time>2016-05-25T12:25:21Z</time>
      </trkpt>
      <trkpt lat="45.44567" lon="5.72602">
        <ele>456</ele>
        <time>2016-05-25T12:27:21Z</time>
      </trkpt>
      <trkpt lat="45.44566" lon="5.72585">
        <ele>458</ele>
        <time>2016-05-25T12:29:21Z</time>
      </trkpt>
      <trkpt lat="45.44564" lon="5.72571">
        <ele>460</ele>
        <time>2016-05-25T12:31:21Z</time>
      </trkpt>
      <trkpt lat="45.44564" lon="5.72552">
        <ele>463</ele>
        <time>2016-05-25T12:33:21Z</time>
      </trkpt>
      <trkpt lat="45.44564" lon="5.7254">
        <ele>464</ele>
        <time>2016-05-25T12:35:21Z</time>
      </trkpt>
      <trkpt lat="45.44565" lon="5.72537">
        <ele>465</ele>
        <time>2016-05-25T12:37:21Z</time>
      </trkpt>
      <trkpt lat="45.44565" lon="5.72535">
        <ele>465</ele>
        <time>2016-05-25T12:39:21Z</time>
      </trkpt>
      <trkpt lat="45.44566" lon="5.72533">
        <ele>466</ele>
        <time>2016-05-25T12:41:21Z</time>
      </trkpt>
      <trkpt lat="45.44566" lon="5.72533">
        <ele>466</ele>
        <time>2016-05-25T12:43:21Z</time>
      </trkpt>
      <trkpt lat="45.44567" lon="5.72532">
        <ele>466</ele>
        <time>2016-05-25T12:45:21Z</time>
      </trkpt>
      <trkpt lat="45.44568" lon="5.72532">
        <ele>467</ele>
        <time>2016-05-25T12:47:21Z</time>
      </trkpt>
      <trkpt lat="45.4457" lon="5.72532">
        <ele>467</ele>
        <time>2016-05-25T12:49:21Z</time>
      </trkpt>
      <trkpt lat="45.44571" lon="5.72532">
        <ele>467</ele>
        <time>2016-05-25T12:51:21Z</time>
      </trkpt>
      <trkpt lat="45.44572" lon="5.72534">
        <ele>467</ele>
        <time>2016-05-25T12:53:21Z</time>
      </trkpt>
      <trkpt lat="45.44573" lon="5.72535">
        <ele>467</ele>
        <time>2016-05-25T12:55:21Z</time>
      </trkpt>
      <trkpt lat="45.44576" lon="5.72549">
        <ele>466</ele>
        <time>2016-05-25T12:57:21Z</time>
      </trkpt>
      <trkpt lat="45.44578" lon="5.72554">
        <ele>465</ele>
        <time>2016-05-25T12:59:21Z</time>
      </trkpt>
      <trkpt lat="45.44579" lon="5.72557">
        <ele>465</ele>
        <time>2016-05-25T13:01:21Z</time>
      </trkpt>
      <trkpt lat="45.4458" lon="5.7256">
        <ele>465</ele>
        <time>2016-05-25T13:03:21Z</time>
      </trkpt>
      <trkpt lat="45.44581" lon="5.72562">
        <ele>465</ele>
        <time>2016-05-25T13:05:21Z</time>
      </trkpt>
      <trkpt lat="45.44584" lon="5.72563">
        <ele>465</ele>
        <time>2016-05-25T13:07:21Z</time>
      </trkpt>
      <trkpt lat="45.44585" lon="5.72563">
        <ele>465</ele>
        <time>2016-05-25T13:09:21Z</time>
      </trkpt>
      <trkpt lat="45.44588" lon="5.72563">
        <ele>466</ele>
        <time>2016-05-25T13:11:21Z</time>
      </trkpt>
      <trkpt lat="45.44589" lon="5.72562">
        <ele>466</ele>
        <time>2016-05-25T13:13:21Z</time>
      </trkpt>
      <trkpt lat="45.44591" lon="5.7256">
        <ele>467</ele>
        <time>2016-05-25T13:15:21Z</time>
      </trkpt>
      <trkpt lat="45.44595" lon="5.72554">
        <ele>468</ele>
        <time>2016-05-25T13:17:21Z</time>
      </trkpt>
      <trkpt lat="45.44602" lon="5.72532">
        <ele>472</ele>
        <time>2016-05-25T13:19:21Z</time>
      </trkpt>
      <trkpt lat="45.44606" lon="5.72516">
        <ele>475</ele>
        <time>2016-05-25T13:21:21Z</time>
      </trkpt>
      <trkpt lat="45.44607" lon="5.72504">
        <ele>477</ele>
        <time>2016-05-25T13:23:21Z</time>
      </trkpt>
      <trkpt lat="45.44607" lon="5.72498">
        <ele>478</ele>
        <time>2016-05-25T13:25:21Z</time>
      </trkpt>
      <trkpt lat="45.44608" lon="5.72494">
        <ele>479</ele>
        <time>2016-05-25T13:27:21Z</time>
      </trkpt>
      <trkpt lat="45.44608" lon="5.72492">
        <ele>479</ele>
        <time>2016-05-25T13:29:21Z</time>
      </trkpt>
      <trkpt lat="45.44609" lon="5.72488">
        <ele>479</ele>
        <time>2016-05-25T13:31:21Z</time>
      </trkpt>
      <trkpt lat="45.44609" lon="5.72488">
        <ele>479</ele>
        <time>2016-05-25T13:33:21Z</time>
      </trkpt>
      <trkpt lat="45.44605" lon="5.72481">
        <ele>479</ele>
        <time>2016-05-25T13:35:21Z</time>
      </trkpt>
      <trkpt lat="45.44603" lon="5.72476">
        <ele>480</ele>
        <time>2016-05-25T13:37:21Z</time>
      </trkpt>
      <trkpt lat="45.446" lon="5.7247">
        <ele>480</ele>
        <time>2016-05-25T13:39:21Z</time>
      </trkpt>
      <trkpt lat="45.44599" lon="5.72464">
        <ele>480</ele>
        <time>2016-05-25T13:41:21Z</time>
      </trkpt>
      <trkpt lat="45.44598" lon="5.72459">
        <ele>481</ele>
        <time>2016-05-25T13:43:21Z</time>
      </trkpt>
      <trkpt lat="45.44598" lon="5.72453">
        <ele>481</ele>
        <time>2016-05-25T13:45:21Z</time>
      </trkpt>
      <trkpt lat="45.44598" lon="5.72448">
        <ele>482</ele>
        <time>2016-05-25T13:47:21Z</time>
      </trkpt>
      <trkpt lat="45.44598" lon="5.72443">
        <ele>482</ele>
        <time>2016-05-25T13:49:21Z</time>
      </trkpt>
      <trkpt lat="45.44599" lon="5.72437">
        <ele>483</ele>
        <time>2016-05-25T13:51:21Z</time>
      </trkpt>
      <trkpt lat="45.446" lon="5.72432">
        <ele>483</ele>
        <time>2016-05-25T13:53:21Z</time>
      </trkpt>
      <trkpt lat="45.44601" lon="5.72426">
        <ele>484</ele>
        <time>2016-05-25T13:55:21Z</time>
      </trkpt>
      <trkpt lat="45.44601" lon="5.72422">
        <ele>484</ele>
        <time>2016-05-25T13:57:21Z</time>
      </trkpt>
      <trkpt lat="45.44602" lon="5.72417">
        <ele>485</ele>
        <time>2016-05-25T13:59:21Z</time>
      </trkpt>
      <trkpt lat="45.44601" lon="5.72413">
        <ele>485</ele>
        <time>2016-05-25T14:01:21Z</time>
      </trkpt>
      <trkpt lat="45.446" lon="5.72408">
        <ele>486</ele>
        <time>2016-05-25T14:03:21Z</time>
      </trkpt>
      <trkpt lat="45.44598" lon="5.72402">
        <ele>486</ele>
        <time>2016-05-25T14:05:21Z</time>
      </trkpt>
      <trkpt lat="45.44595" lon="5.72395">
        <ele>487</ele>
        <time>2016-05-25T14:07:21Z</time>
      </trkpt>
      <trkpt lat="45.44592" lon="5.7239">
        <ele>487</ele>
        <time>2016-05-25T14:09:21Z</time>
      </trkpt>
      <trkpt lat="45.44584" lon="5.72374">
        <ele>488</ele>
        <time>2016-05-25T14:11:21Z</time>
      </trkpt>
      <trkpt lat="45.4458" lon="5.72364">
        <ele>488</ele>
        <time>2016-05-25T14:13:21Z</time>
      </trkpt>
      <trkpt lat="45.44576" lon="5.72354">
        <ele>488</ele>
        <time>2016-05-25T14:15:21Z</time>
      </trkpt>
      <trkpt lat="45.44574" lon="5.72344">
        <ele>488</ele>
        <time>2016-05-25T14:17:21Z</time>
      </trkpt>
      <trkpt lat="45.44571" lon="5.7233">
        <ele>489</ele>
        <time>2016-05-25T14:19:21Z</time>
      </trkpt>
      <trkpt lat="45.44569" lon="5.72319">
        <ele>489</ele>
        <time>2016-05-25T14:21:21Z</time>
      </trkpt>
      <trkpt lat="45.44568" lon="5.72309">
        <ele>490</ele>
        <time>2016-05-25T14:23:21Z</time>
      </trkpt>
      <trkpt lat="45.44566" lon="5.72297">
        <ele>490</ele>
        <time>2016-05-25T14:25:21Z</time>
      </trkpt>
      <trkpt lat="45.44565" lon="5.72289">
        <ele>490</ele>
        <time>2016-05-25T14:27:21Z</time>
      </trkpt>
      <trkpt lat="45.44564" lon="5.7228">
        <ele>491</ele>
        <time>2016-05-25T14:29:21Z</time>
      </trkpt>
      <trkpt lat="45.44561" lon="5.7227">
        <ele>491</ele>
        <time>2016-05-25T14:31:21Z</time>
      </trkpt>
      <trkpt lat="45.44553" lon="5.72248">
        <ele>490</ele>
        <time>2016-05-25T14:33:21Z</time>
      </trkpt>
      <trkpt lat="45.44551" lon="5.72242">
        <ele>490</ele>
        <time>2016-05-25T14:35:21Z</time>
      </trkpt>
      <trkpt lat="45.4455" lon="5.72237">
        <ele>490</ele>
        <time>2016-05-25T14:37:21Z</time>
      </trkpt>
      <trkpt lat="45.44549" lon="5.72232">
        <ele>490</ele>
        <time>2016-05-25T14:39:21Z</time>
      </trkpt>
      <trkpt lat="45.44548" lon="5.72226">
        <ele>490</ele>
        <time>2016-05-25T14:41:21Z</time>
      </trkpt>
      <trkpt lat="45.44548" lon="5.7222">
        <ele>491</ele>
        <time>2016-05-25T14:43:21Z</time>
      </trkpt>
      <trkpt lat="45.44549" lon="5.72213">
        <ele>491</ele>
        <time>2016-05-25T14:45:21Z</time>
      </trkpt>
      <trkpt lat="45.44551" lon="5.72205">
        <ele>493</ele>
        <time>2016-05-25T14:47:21Z</time>
      </trkpt>
      <trkpt lat="45.44556" lon="5.72188">
        <ele>495</ele>
        <time>2016-05-25T14:49:21Z</time>
      </trkpt>
      <trkpt lat="45.44557" lon="5.7218">
        <ele>496</ele>
        <time>2016-05-25T14:51:21Z</time>
      </trkpt>
      <trkpt lat="45.44558" lon="5.72173">
        <ele>497</ele>
        <time>2016-05-25T14:53:21Z</time>
      </trkpt>
      <trkpt lat="45.44558" lon="5.72166">
        <ele>498</ele>
        <time>2016-05-25T14:55:21Z</time>
      </trkpt>
      <trkpt lat="45.44557" lon="5.72156">
        <ele>498</ele>
        <time>2016-05-25T14:57:21Z</time>
      </trkpt>
      <trkpt lat="45.44556" lon="5.72151">
        <ele>498</ele>
        <time>2016-05-25T14:59:21Z</time>
      </trkpt>
      <trkpt lat="45.44549" lon="5.72123">
        <ele>498</ele>
        <time>2016-05-25T15:01:21Z</time>
      </trkpt>
      <trkpt lat="45.44542" lon="5.72099">
        <ele>497</ele>
        <time>2016-05-25T15:03:21Z</time>
      </trkpt>
      <trkpt lat="45.44539" lon="5.72085">
        <ele>497</ele>
        <time>2016-05-25T15:05:21Z</time>
      </trkpt>
      <trkpt lat="45.44539" lon="5.72078">
        <ele>498</ele>
        <time>2016-05-25T15:07:21Z</time>
      </trkpt>
      <trkpt lat="45.44539" lon="5.72067">
        <ele>498</ele>
        <time>2016-05-25T15:09:21Z</time>
      </trkpt>
      <trkpt lat="45.44539" lon="5.72059">
        <ele>498</ele>
        <time>2016-05-25T15:11:21Z</time>
      </trkpt>
      <trkpt lat="45.4454" lon="5.72049">
        <ele>499</ele>
        <time>2016-05-25T15:13:21Z</time>
      </trkpt>
      <trkpt lat="45.44544" lon="5.72028">
        <ele>501</ele>
        <time>2016-05-25T15:15:21Z</time>
      </trkpt>
      <trkpt lat="45.44545" lon="5.72014">
        <ele>502</ele>
        <time>2016-05-25T15:17:21Z</time>
      </trkpt>
      <trkpt lat="45.44546" lon="5.72008">
        <ele>503</ele>
        <time>2016-05-25T15:19:21Z</time>
      </trkpt>
      <trkpt lat="45.44546" lon="5.72">
        <ele>503</ele>
        <time>2016-05-25T15:21:21Z</time>
      </trkpt>
      <trkpt lat="45.44546" lon="5.71993">
        <ele>503</ele>
        <time>2016-05-25T15:23:21Z</time>
      </trkpt>
      <trkpt lat="45.44546" lon="5.71985">
        <ele>503</ele>
        <time>2016-05-25T15:25:21Z</time>
      </trkpt>
      <trkpt lat="45.44545" lon="5.71963">
        <ele>502</ele>
        <time>2016-05-25T15:27:21Z</time>
      </trkpt>
      <trkpt lat="45.44546" lon="5.71956">
        <ele>503</ele>
        <time>2016-05-25T15:29:21Z</time>
      </trkpt>
      <trkpt lat="45.44546" lon="5.71949">
        <ele>503</ele>
        <time>2016-05-25T15:31:21Z</time>
      </trkpt>
      <trkpt lat="45.44547" lon="5.71944">
        <ele>503</ele>
        <time>2016-05-25T15:33:21Z</time>
      </trkpt>
      <trkpt lat="45.44549" lon="5.71938">
        <ele>504</ele>
        <time>2016-05-25T15:35:21Z</time>
      </trkpt>
      <trkpt lat="45.44552" lon="5.71931">
        <ele>505</ele>
        <time>2016-05-25T15:37:21Z</time>
      </trkpt>
      <trkpt lat="45.44557" lon="5.71924">
        <ele>507</ele>
        <time>2016-05-25T15:39:21Z</time>
      </trkpt>
      <trkpt lat="45.44564" lon="5.71919">
        <ele>510</ele>
        <time>2016-05-25T15:41:21Z</time>
      </trkpt>
      <trkpt lat="45.44576" lon="5.71913">
        <ele>514</ele>
        <time>2016-05-25T15:43:21Z</time>
      </trkpt>
      <trkpt lat="45.44596" lon="5.71909">
        <ele>519</ele>
        <time>2016-05-25T15:45:21Z</time>
      </trkpt>
      <trkpt lat="45.44606" lon="5.71905">
        <ele>520</ele>
        <time>2016-05-25T15:47:21Z</time>
      </trkpt>
      <trkpt lat="45.44611" lon="5.719">
        <ele>521</ele>
        <time>2016-05-25T15:49:21Z</time>
      </trkpt>
      <trkpt lat="45.44613" lon="5.71897">
        <ele>521</ele>
        <time>2016-05-25T15:51:21Z</time>
      </trkpt>
      <trkpt lat="45.44615" lon="5.71892">
        <ele>522</ele>
        <time>2016-05-25T15:53:21Z</time>
      </trkpt>
      <trkpt lat="45.44616" lon="5.7189">
        <ele>522</ele>
        <time>2016-05-25T15:55:21Z</time>
      </trkpt>
      <trkpt lat="45.44617" lon="5.71884">
        <ele>522</ele>
        <time>2016-05-25T15:57:21Z</time>
      </trkpt>
      <trkpt lat="45.44618" lon="5.7188">
        <ele>522</ele>
        <time>2016-05-25T15:59:21Z</time>
      </trkpt>
      <trkpt lat="45.44618" lon="5.71872">
        <ele>522</ele>
        <time>2016-05-25T16:01:21Z</time>
      </trkpt>
      <trkpt lat="45.44616" lon="5.71864">
        <ele>521</ele>
        <time>2016-05-25T16:03:21Z</time>
      </trkpt>
      <trkpt lat="45.44612" lon="5.71853">
        <ele>520</ele>
        <time>2016-05-25T16:05:21Z</time>
      </trkpt>
      <trkpt lat="45.44605" lon="5.71837">
        <ele>517</ele>
        <time>2016-05-25T16:07:21Z</time>
      </trkpt>
      <trkpt lat="45.44592" lon="5.71816">
        <ele>520</ele>
        <time>2016-05-25T16:09:21Z</time>
      </trkpt>
      <trkpt lat="45.44582" lon="5.718">
        <ele>523</ele>
        <time>2016-05-25T16:11:21Z</time>
      </trkpt>
      <trkpt lat="45.44569" lon="5.71783">
        <ele>526</ele>
        <time>2016-05-25T16:13:21Z</time>
      </trkpt>
      <trkpt lat="45.44551" lon="5.71764">
        <ele>530</ele>
        <time>2016-05-25T16:15:21Z</time>
      </trkpt>
      <trkpt lat="45.44533" lon="5.71748">
        <ele>532</ele>
        <time>2016-05-25T16:17:21Z</time>
      </trkpt>
      <trkpt lat="45.44519" lon="5.7174">
        <ele>532</ele>
        <time>2016-05-25T16:19:21Z</time>
      </trkpt>
      <trkpt lat="45.445" lon="5.7173">
        <ele>531</ele>
        <time>2016-05-25T16:21:21Z</time>
      </trkpt>
      <trkpt lat="45.44484" lon="5.71722">
        <ele>530</ele>
        <time>2016-05-25T16:23:21Z</time>
      </trkpt>
      <trkpt lat="45.44468" lon="5.71709">
        <ele>531</ele>
        <time>2016-05-25T16:25:21Z</time>
      </trkpt>
      <trkpt lat="45.4445" lon="5.71695">
        <ele>532</ele>
        <time>2016-05-25T16:27:21Z</time>
      </trkpt>
      <trkpt lat="45.44437" lon="5.71686">
        <ele>532</ele>
        <time>2016-05-25T16:29:21Z</time>
      </trkpt>
      <trkpt lat="45.44419" lon="5.71674">
        <ele>533</ele>
        <time>2016-05-25T16:31:21Z</time>
      </trkpt>
      <trkpt lat="45.44382" lon="5.71655">
        <ele>532</ele>
        <time>2016-05-25T16:33:21Z</time>
      </trkpt>
      <trkpt lat="45.44369" lon="5.71648">
        <ele>532</ele>
        <time>2016-05-25T16:35:21Z</time>
      </trkpt>
      <trkpt lat="45.44357" lon="5.71641">
        <ele>532</ele>
        <time>2016-05-25T16:37:21Z</time>
      </trkpt>
      <trkpt lat="45.44352" lon="5.71637">
        <ele>532</ele>
        <time>2016-05-25T16:39:21Z</time>
      </trkpt>
      <trkpt lat="45.44344" lon="5.71627">
        <ele>533</ele>
        <time>2016-05-25T16:41:21Z</time>
      </trkpt>
      <trkpt lat="45.44335" lon="5.71613">
        <ele>535</ele>
        <time>2016-05-25T16:43:21Z</time>
      </trkpt>
      <trkpt lat="45.44317" lon="5.71584">
        <ele>540</ele>
        <time>2016-05-25T16:45:21Z</time>
      </trkpt>
      <trkpt lat="45.44307" lon="5.71569">
        <ele>543</ele>
        <time>2016-05-25T16:47:21Z</time>
      </trkpt>
      <trkpt lat="45.44299" lon="5.71563">
        <ele>544</ele>
        <time>2016-05-25T16:49:21Z</time>
      </trkpt>
      <trkpt lat="45.4429" lon="5.7156">
        <ele>544</ele>
        <time>2016-05-25T16:51:21Z</time>
      </trkpt>
      <trkpt lat="45.44283" lon="5.71557">
        <ele>544</ele>
        <time>2016-05-25T16:53:21Z</time>
      </trkpt>
      <trkpt lat="45.44279" lon="5.71556">
        <ele>543</ele>
        <time>2016-05-25T16:55:21Z</time>
      </trkpt>
      <trkpt lat="45.44274" lon="5.71555">
        <ele>543</ele>
        <time>2016-05-25T16:57:21Z</time>
      </trkpt>
      <trkpt lat="45.44258" lon="5.71552">
        <ele>542</ele>
        <time>2016-05-25T16:59:21Z</time>
      </trkpt>
      <trkpt lat="45.4424" lon="5.71545">
        <ele>542</ele>
        <time>2016-05-25T17:01:21Z</time>
      </trkpt>
      <trkpt lat="45.44225" lon="5.71536">
        <ele>544</ele>
        <time>2016-05-25T17:03:21Z</time>
      </trkpt>
      <trkpt lat="45.44215" lon="5.7153">
        <ele>545</ele>
        <time>2016-05-25T17:05:21Z</time>
      </trkpt>
      <trkpt lat="45.44204" lon="5.71522">
        <ele>547</ele>
        <time>2016-05-25T17:07:21Z</time>
      </trkpt>
      <trkpt lat="45.4419" lon="5.71514">
        <ele>548</ele>
        <time>2016-05-25T17:09:21Z</time>
      </trkpt>
      <trkpt lat="45.44181" lon="5.71508">
        <ele>549</ele>
        <time>2016-05-25T17:11:21Z</time>
      </trkpt>
      <trkpt lat="45.4417" lon="5.715">
        <ele>551</ele>
        <time>2016-05-25T17:13:21Z</time>
      </trkpt>
      <trkpt lat="45.44163" lon="5.71492">
        <ele>553</ele>
        <time>2016-05-25T17:15:21Z</time>
      </trkpt>
      <trkpt lat="45.44157" lon="5.71486">
        <ele>554</ele>
        <time>2016-05-25T17:17:21Z</time>
      </trkpt>
      <trkpt lat="45.4415" lon="5.71478">
        <ele>556</ele>
        <time>2016-05-25T17:19:21Z</time>
      </trkpt>
      <trkpt lat="45.4414" lon="5.71469">
        <ele>557</ele>
        <time>2016-05-25T17:21:21Z</time>
      </trkpt>
      <trkpt lat="45.44134" lon="5.71464">
        <ele>558</ele>
        <time>2016-05-25T17:23:21Z</time>
      </trkpt>
      <trkpt lat="45.44127" lon="5.71461">
        <ele>558</ele>
        <time>2016-05-25T17:25:21Z</time>
      </trkpt>
      <trkpt lat="45.44119" lon="5.71457">
        <ele>559</ele>
        <time>2016-05-25T17:27:21Z</time>
      </trkpt>
      <trkpt lat="45.4411" lon="5.71454">
        <ele>558</ele>
        <time>2016-05-25T17:29:21Z</time>
      </trkpt>
      <trkpt lat="45.44101" lon="5.71451">
        <ele>558</ele>
        <time>2016-05-25T17:31:21Z</time>
      </trkpt>
      <trkpt lat="45.44094" lon="5.7145">
        <ele>558</ele>
        <time>2016-05-25T17:33:21Z</time>
      </trkpt>
      <trkpt lat="45.44085" lon="5.71449">
        <ele>557</ele>
        <time>2016-05-25T17:35:21Z</time>
      </trkpt>
      <trkpt lat="45.44076" lon="5.71449">
        <ele>557</ele>
        <time>2016-05-25T17:37:21Z</time>
      </trkpt>
      <trkpt lat="45.44071" lon="5.71449">
        <ele>557</ele>
        <time>2016-05-25T17:39:21Z</time>
      </trkpt>
      <trkpt lat="45.44063" lon="5.71448">
        <ele>557</ele>
        <time>2016-05-25T17:41:21Z</time>
      </trkpt>
      <trkpt lat="45.44056" lon="5.71445">
        <ele>557</ele>
        <time>2016-05-25T17:43:21Z</time>
      </trkpt>
      <trkpt lat="45.4405" lon="5.71441">
        <ele>557</ele>
        <time>2016-05-25T17:45:21Z</time>
      </trkpt>
      <trkpt lat="45.44043" lon="5.71436">
        <ele>557</ele>
        <time>2016-05-25T17:47:21Z</time>
      </trkpt>
      <trkpt lat="45.44038" lon="5.71431">
        <ele>558</ele>
        <time>2016-05-25T17:49:21Z</time>
      </trkpt>
      <trkpt lat="45.44034" lon="5.71424">
        <ele>558</ele>
        <time>2016-05-25T17:51:21Z</time>
      </trkpt>
      <trkpt lat="45.44031" lon="5.71418">
        <ele>559</ele>
        <time>2016-05-25T17:53:21Z</time>
      </trkpt>
      <trkpt lat="45.4403" lon="5.7141">
        <ele>559</ele>
        <time>2016-05-25T17:55:21Z</time>
      </trkpt>
      <trkpt lat="45.4403" lon="5.71402">
        <ele>560</ele>
        <time>2016-05-25T17:57:21Z</time>
      </trkpt>
      <trkpt lat="45.44031" lon="5.71392">
        <ele>562</ele>
        <time>2016-05-25T17:59:21Z</time>
      </trkpt>
      <trkpt lat="45.44033" lon="5.71381">
        <ele>563</ele>
        <time>2016-05-25T18:01:21Z</time>
      </trkpt>
      <trkpt lat="45.44039" lon="5.71366">
        <ele>566</ele>
        <time>2016-05-25T18:03:21Z</time>
      </trkpt>
      <trkpt lat="45.44041" lon="5.71355">
        <ele>568</ele>
        <time>2016-05-25T18:05:21Z</time>
      </trkpt>
      <trkpt lat="45.44041" lon="5.71348">
        <ele>569</ele>
        <time>2016-05-25T18:07:21Z</time>
      </trkpt>
      <trkpt lat="45.4404" lon="5.71342">
        <ele>570</ele>
        <time>2016-05-25T18:09:21Z</time>
      </trkpt>
      <trkpt lat="45.44035" lon="5.71333">
        <ele>570</ele>
        <time>2016-05-25T18:11:21Z</time>
      </trkpt>
      <trkpt lat="45.4403" lon="5.71326">
        <ele>570</ele>
        <time>2016-05-25T18:13:21Z</time>
      </trkpt>
      <trkpt lat="45.44022" lon="5.7132">
        <ele>570</ele>
        <time>2016-05-25T18:15:21Z</time>
      </trkpt>
      <trkpt lat="45.44011" lon="5.71313">
        <ele>569</ele>
        <time>2016-05-25T18:17:21Z</time>
      </trkpt>
      <trkpt lat="45.44002" lon="5.71308">
        <ele>569</ele>
        <time>2016-05-25T18:19:21Z</time>
      </trkpt>
      <trkpt lat="45.43995" lon="5.71306">
        <ele>569</ele>
        <time>2016-05-25T18:21:21Z</time>
      </trkpt>
      <trkpt lat="45.43989" lon="5.71306">
        <ele>570</ele>
        <time>2016-05-25T18:23:21Z</time>
      </trkpt>
      <trkpt lat="45.43982" lon="5.71308">
        <ele>571</ele>
        <time>2016-05-25T18:25:21Z</time>
      </trkpt>
      <trkpt lat="45.43973" lon="5.71313">
        <ele>571</ele>
        <time>2016-05-25T18:27:21Z</time>
      </trkpt>
      <trkpt lat="45.43966" lon="5.71317">
        <ele>571</ele>
        <time>2016-05-25T18:29:21Z</time>
      </trkpt>
      <trkpt lat="45.43955" lon="5.71321">
        <ele>571</ele>
        <time>2016-05-25T18:31:21Z</time>
      </trkpt>
      <trkpt lat="45.43946" lon="5.71322">
        <ele>572</ele>
        <time>2016-05-25T18:33:21Z</time>
      </trkpt>
      <trkpt lat="45.43923" lon="5.71324">
        <ele>575</ele>
        <time>2016-05-25T18:35:21Z</time>
      </trkpt>
      <trkpt lat="45.43904" lon="5.71325">
        <ele>575</ele>
        <time>2016-05-25T18:37:21Z</time>
      </trkpt>
      <trkpt lat="45.43888" lon="5.71325">
        <ele>576</ele>
        <time>2016-05-25T18:39:21Z</time>
      </trkpt>
      <trkpt lat="45.43881" lon="5.71326">
        <ele>575</ele>
        <time>2016-05-25T18:41:21Z</time>
      </trkpt>
      <trkpt lat="45.43874" lon="5.71325">
        <ele>576</ele>
        <time>2016-05-25T18:43:21Z</time>
      </trkpt>
      <trkpt lat="45.43864" lon="5.71321">
        <ele>576</ele>
        <time>2016-05-25T18:45:21Z</time>
      </trkpt>
      <trkpt lat="45.43846" lon="5.71313">
        <ele>577</ele>
        <time>2016-05-25T18:47:21Z</time>
      </trkpt>
      <trkpt lat="45.43826" lon="5.71302">
        <ele>579</ele>
        <time>2016-05-25T18:49:21Z</time>
      </trkpt>
      <trkpt lat="45.43812" lon="5.71296">
        <ele>580</ele>
        <time>2016-05-25T18:51:21Z</time>
      </trkpt>
      <trkpt lat="45.438" lon="5.71289">
        <ele>581</ele>
        <time>2016-05-25T18:53:21Z</time>
      </trkpt>
      <trkpt lat="45.43792" lon="5.71282">
        <ele>582</ele>
        <time>2016-05-25T18:55:21Z</time>
      </trkpt>
      <trkpt lat="45.43787" lon="5.71277">
        <ele>582</ele>
        <time>2016-05-25T18:57:21Z</time>
      </trkpt>
      <trkpt lat="45.43782" lon="5.71269">
        <ele>584</ele>
        <time>2016-05-25T18:59:21Z</time>
      </trkpt>
      <trkpt lat="45.43778" lon="5.71259">
        <ele>585</ele>
        <time>2016-05-25T19:01:21Z</time>
      </trkpt>
      <trkpt lat="45.43775" lon="5.71244">
        <ele>587</ele>
        <time>2016-05-25T19:03:21Z</time>
      </trkpt>
      <trkpt lat="45.43773" lon="5.71235">
        <ele>588</ele>
        <time>2016-05-25T19:05:21Z</time>
      </trkpt>
      <trkpt lat="45.4377" lon="5.71228">
        <ele>589</ele>
        <time>2016-05-25T19:07:21Z</time>
      </trkpt>
      <trkpt lat="45.43765" lon="5.7122">
        <ele>591</ele>
        <time>2016-05-25T19:09:21Z</time>
      </trkpt>
      <trkpt lat="45.4376" lon="5.71215">
        <ele>592</ele>
        <time>2016-05-25T19:11:21Z</time>
      </trkpt>
      <trkpt lat="45.4375" lon="5.7121">
        <ele>594</ele>
        <time>2016-05-25T19:13:21Z</time>
      </trkpt>
      <trkpt lat="45.43739" lon="5.71205">
        <ele>595</ele>
        <time>2016-05-25T19:15:21Z</time>
      </trkpt>
      <trkpt lat="45.43727" lon="5.71201">
        <ele>596</ele>
        <time>2016-05-25T19:17:21Z</time>
      </trkpt>
      <trkpt lat="45.43714" lon="5.71198">
        <ele>597</ele>
        <time>2016-05-25T19:19:21Z</time>
      </trkpt>
      <trkpt lat="45.43701" lon="5.71196">
        <ele>598</ele>
        <time>2016-05-25T19:21:21Z</time>
      </trkpt>
      <trkpt lat="45.4369" lon="5.71197">
        <ele>598</ele>
        <time>2016-05-25T19:23:21Z</time>
      </trkpt>
      <trkpt lat="45.4368" lon="5.71198">
        <ele>598</ele>
        <time>2016-05-25T19:25:21Z</time>
      </trkpt>
      <trkpt lat="45.43668" lon="5.712">
        <ele>598</ele>
        <time>2016-05-25T19:27:21Z</time>
      </trkpt>
      <trkpt lat="45.43648" lon="5.71207">
        <ele>598</ele>
        <time>2016-05-25T19:29:21Z</time>
      </trkpt>
      <trkpt lat="45.43636" lon="5.71212">
        <ele>599</ele>
        <time>2016-05-25T19:31:21Z</time>
      </trkpt>
      <trkpt lat="45.43629" lon="5.71214">
        <ele>599</ele>
        <time>2016-05-25T19:33:21Z</time>
      </trkpt>
      <trkpt lat="45.43625" lon="5.71214">
        <ele>599</ele>
        <time>2016-05-25T19:35:21Z</time>
      </trkpt>
      <trkpt lat="45.43621" lon="5.71214">
        <ele>599</ele>
        <time>2016-05-25T19:37:21Z</time>
      </trkpt>
      <trkpt lat="45.43615" lon="5.71212">
        <ele>600</ele>
        <time>2016-05-25T19:39:21Z</time>
      </trkpt>
      <trkpt lat="45.43602" lon="5.71207">
        <ele>601</ele>
        <time>2016-05-25T19:41:21Z</time>
      </trkpt>
      <trkpt lat="45.43579" lon="5.71192">
        <ele>604</ele>
        <time>2016-05-25T19:43:21Z</time>
      </trkpt>
      <trkpt lat="45.43554" lon="5.71172">
        <ele>606</ele>
        <time>2016-05-25T19:45:21Z</time>
      </trkpt>
      <trkpt lat="45.43532" lon="5.71156">
        <ele>608</ele>
        <time>2016-05-25T19:47:21Z</time>
      </trkpt>
      <trkpt lat="45.43518" lon="5.71145">
        <ele>608</ele>
        <time>2016-05-25T19:49:21Z</time>
      </trkpt>
      <trkpt lat="45.43504" lon="5.71132">
        <ele>609</ele>
        <time>2016-05-25T19:51:21Z</time>
      </trkpt>
      <trkpt lat="45.43493" lon="5.71121">
        <ele>609</ele>
        <time>2016-05-25T19:53:21Z</time>
      </trkpt>
      <trkpt lat="45.43464" lon="5.71088">
        <ele>609</ele>
        <time>2016-05-25T19:55:21Z</time>
      </trkpt>
      <trkpt lat="45.43439" lon="5.71058">
        <ele>609</ele>
        <time>2016-05-25T19:57:21Z</time>
      </trkpt>
      <trkpt lat="45.43422" lon="5.71039">
        <ele>609</ele>
        <time>2016-05-25T19:59:21Z</time>
      </trkpt>
      <trkpt lat="45.4341" lon="5.71026">
        <ele>609</ele>
        <time>2016-05-25T20:01:21Z</time>
      </trkpt>
      <trkpt lat="45.43405" lon="5.71019">
        <ele>610</ele>
        <time>2016-05-25T20:03:21Z</time>
      </trkpt>
      <trkpt lat="45.43402" lon="5.71014">
        <ele>610</ele>
        <time>2016-05-25T20:05:21Z</time>
      </trkpt>
      <trkpt lat="45.43399" lon="5.71007">
        <ele>610</ele>
        <time>2016-05-25T20:07:21Z</time>
      </trkpt>
      <trkpt lat="45.43398" lon="5.71002">
        <ele>611</ele>
        <time>2016-05-25T20:09:21Z</time>
      </trkpt>
      <trkpt lat="45.43397" lon="5.70999">
        <ele>611</ele>
        <time>2016-05-25T20:11:21Z</time>
      </trkpt>
      <trkpt lat="45.43396" lon="5.70994">
        <ele>611</ele>
        <time>2016-05-25T20:13:21Z</time>
      </trkpt>
      <trkpt lat="45.43395" lon="5.70988">
        <ele>612</ele>
        <time>2016-05-25T20:15:21Z</time>
      </trkpt>
      <trkpt lat="45.43395" lon="5.70988">
        <ele>612</ele>
        <time>2016-05-25T20:17:21Z</time>
      </trkpt>
      <trkpt lat="45.43396" lon="5.70988">
        <ele>612</ele>
        <time>2016-05-25T20:19:21Z</time>
      </trkpt>
      <trkpt lat="45.43406" lon="5.70982">
        <ele>612</ele>
        <time>2016-05-25T20:21:21Z</time>
      </trkpt>
      <trkpt lat="45.4342" lon="5.70973">
        <ele>613</ele>
        <time>2016-05-25T20:23:21Z</time>
      </trkpt>
      <trkpt lat="45.43428" lon="5.7097">
        <ele>614</ele>
        <time>2016-05-25T20:25:21Z</time>
      </trkpt>
      <trkpt lat="45.43433" lon="5.70969">
        <ele>614</ele>
        <time>2016-05-25T20:27:21Z</time>
      </trkpt>
      <trkpt lat="45.43442" lon="5.70971">
        <ele>615</ele>
        <time>2016-05-25T20:29:21Z</time>
      </trkpt>
      <trkpt lat="45.43455" lon="5.70973">
        <ele>615</ele>
        <time>2016-05-25T20:31:21Z</time>
      </trkpt>
      <trkpt lat="45.43478" lon="5.70976">
        <ele>616</ele>
        <time>2016-05-25T20:33:21Z</time>
      </trkpt>
      <trkpt lat="45.43488" lon="5.70975">
        <ele>616</ele>
        <time>2016-05-25T20:35:21Z</time>
      </trkpt>
      <trkpt lat="45.43494" lon="5.70973">
        <ele>617</ele>
        <time>2016-05-25T20:37:21Z</time>
      </trkpt>
      <trkpt lat="45.435" lon="5.7097">
        <ele>617</ele>
        <time>2016-05-25T20:39:21Z</time>
      </trkpt>
      <trkpt lat="45.43508" lon="5.70963">
        <ele>617</ele>
        <time>2016-05-25T20:41:21Z</time>
      </trkpt>
      <trkpt lat="45.43519" lon="5.70951">
        <ele>617</ele>
        <time>2016-05-25T20:43:21Z</time>
      </trkpt>
      <trkpt lat="45.43531" lon="5.70935">
        <ele>618</ele>
        <time>2016-05-25T20:45:21Z</time>
      </trkpt>
      <trkpt lat="45.43543" lon="5.7092">
        <ele>618</ele>
        <time>2016-05-25T20:47:21Z</time>
      </trkpt>
      <trkpt lat="45.43556" lon="5.70905">
        <ele>620</ele>
        <time>2016-05-25T20:49:21Z</time>
      </trkpt>
      <trkpt lat="45.43575" lon="5.70884">
        <ele>621</ele>
        <time>2016-05-25T20:51:21Z</time>
      </trkpt>
      <trkpt lat="45.43587" lon="5.70871">
        <ele>623</ele>
        <time>2016-05-25T20:53:21Z</time>
      </trkpt>
      <trkpt lat="45.43609" lon="5.7085">
        <ele>626</ele>
        <time>2016-05-25T20:55:21Z</time>
      </trkpt>
      <trkpt lat="45.43636" lon="5.70827">
        <ele>631</ele>
        <time>2016-05-25T20:57:21Z</time>
      </trkpt>
      <trkpt lat="45.43644" lon="5.7082">
        <ele>632</ele>
        <time>2016-05-25T20:59:21Z</time>
      </trkpt>
      <trkpt lat="45.43652" lon="5.70816">
        <ele>634</ele>
        <time>2016-05-25T21:01:21Z</time>
      </trkpt>
      <trkpt lat="45.43659" lon="5.70814">
        <ele>635</ele>
        <time>2016-05-25T21:03:21Z</time>
      </trkpt>
      <trkpt lat="45.43668" lon="5.70813">
        <ele>635</ele>
        <time>2016-05-25T21:05:21Z</time>
      </trkpt>
      <trkpt lat="45.4368" lon="5.70815">
        <ele>636</ele>
        <time>2016-05-25T21:07:21Z</time>
      </trkpt>
      <trkpt lat="45.43696" lon="5.70821">
        <ele>636</ele>
        <time>2016-05-25T21:09:21Z</time>
      </trkpt>
      <trkpt lat="45.43707" lon="5.70823">
        <ele>636</ele>
        <time>2016-05-25T21:11:21Z</time>
      </trkpt>
      <trkpt lat="45.43716" lon="5.70824">
        <ele>636</ele>
        <time>2016-05-25T21:13:21Z</time>
      </trkpt>
      <trkpt lat="45.43744" lon="5.70822">
        <ele>639</ele>
        <time>2016-05-25T21:15:21Z</time>
      </trkpt>
      <trkpt lat="45.43766" lon="5.70823">
        <ele>640</ele>
        <time>2016-05-25T21:17:21Z</time>
      </trkpt>
      <trkpt lat="45.43795" lon="5.70822">
        <ele>641</ele>
        <time>2016-05-25T21:19:21Z</time>
      </trkpt>
      <trkpt lat="45.4382" lon="5.70821">
        <ele>643</ele>
        <time>2016-05-25T21:21:21Z</time>
      </trkpt>
      <trkpt lat="45.43842" lon="5.70821">
        <ele>643</ele>
        <time>2016-05-25T21:23:21Z</time>
      </trkpt>
      <trkpt lat="45.43848" lon="5.7082">
        <ele>643</ele>
        <time>2016-05-25T21:25:21Z</time>
      </trkpt>
      <trkpt lat="45.43859" lon="5.70816">
        <ele>643</ele>
        <time>2016-05-25T21:27:21Z</time>
      </trkpt>
      <trkpt lat="45.43863" lon="5.70814">
        <ele>643</ele>
        <time>2016-05-25T21:29:21Z</time>
      </trkpt>
      <trkpt lat="45.43867" lon="5.70812">
        <ele>644</ele>
        <time>2016-05-25T21:31:21Z</time>
      </trkpt>
      <trkpt lat="45.43883" lon="5.70801">
        <ele>645</ele>
        <time>2016-05-25T21:33:21Z</time>
      </trkpt>
      <trkpt lat="45.43909" lon="5.70784">
        <ele>648</ele>
        <time>2016-05-25T21:35:21Z</time>
      </trkpt>
      <trkpt lat="45.43931" lon="5.7077">
        <ele>651</ele>
        <time>2016-05-25T21:37:21Z</time>
      </trkpt>
      <trkpt lat="45.43943" lon="5.70762">
        <ele>653</ele>
        <time>2016-05-25T21:39:21Z</time>
      </trkpt>
      <trkpt lat="45.43946" lon="5.7076">
        <ele>653</ele>
        <time>2016-05-25T21:41:21Z</time>
      </trkpt>
      <trkpt lat="45.43962" lon="5.70752">
        <ele>656</ele>
        <time>2016-05-25T21:43:21Z</time>
      </trkpt>
      <trkpt lat="45.43976" lon="5.7075">
        <ele>657</ele>
        <time>2016-05-25T21:45:21Z</time>
      </trkpt>
      <trkpt lat="45.44" lon="5.70748">
        <ele>658</ele>
        <time>2016-05-25T21:47:21Z</time>
      </trkpt>
      <trkpt lat="45.44027" lon="5.70747">
        <ele>660</ele>
        <time>2016-05-25T21:49:21Z</time>
      </trkpt>
      <trkpt lat="45.4404" lon="5.70744">
        <ele>660</ele>
        <time>2016-05-25T21:51:21Z</time>
      </trkpt>
      <trkpt lat="45.44068" lon="5.70736">
        <ele>662</ele>
        <time>2016-05-25T21:53:21Z</time>
      </trkpt>
      <trkpt lat="45.44093" lon="5.70728">
        <ele>664</ele>
        <time>2016-05-25T21:55:21Z</time>
      </trkpt>
      <trkpt lat="45.44106" lon="5.70724">
        <ele>665</ele>
        <time>2016-05-25T21:57:21Z</time>
      </trkpt>
      <trkpt lat="45.44126" lon="5.70718">
        <ele>667</ele>
        <time>2016-05-25T21:59:21Z</time>
      </trkpt>
      <trkpt lat="45.44141" lon="5.70716">
        <ele>668</ele>
        <time>2016-05-25T22:01:21Z</time>
      </trkpt>
      <trkpt lat="45.44155" lon="5.70716">
        <ele>669</ele>
        <time>2016-05-25T22:03:21Z</time>
      </trkpt>
      <trkpt lat="45.4417" lon="5.70717">
        <ele>670</ele>
        <time>2016-05-25T22:05:21Z</time>
      </trkpt>
      <trkpt lat="45.44181" lon="5.70715">
        <ele>670</ele>
        <time>2016-05-25T22:07:21Z</time>
      </trkpt>
      <trkpt lat="45.44194" lon="5.70708">
        <ele>670</ele>
        <time>2016-05-25T22:09:21Z</time>
      </trkpt>
      <trkpt lat="45.44204" lon="5.70697">
        <ele>671</ele>
        <time>2016-05-25T22:11:21Z</time>
      </trkpt>
      <trkpt lat="45.44211" lon="5.70687">
        <ele>671</ele>
        <time>2016-05-25T22:13:21Z</time>
      </trkpt>
      <trkpt lat="45.44214" lon="5.70681">
        <ele>672</ele>
        <time>2016-05-25T22:15:21Z</time>
      </trkpt>
      <trkpt lat="45.44217" lon="5.70672">
        <ele>672</ele>
        <time>2016-05-25T22:17:21Z</time>
      </trkpt>
      <trkpt lat="45.4422" lon="5.70659">
        <ele>673</ele>
        <time>2016-05-25T22:19:21Z</time>
      </trkpt>
      <trkpt lat="45.44221" lon="5.70642">
        <ele>674</ele>
        <time>2016-05-25T22:21:21Z</time>
      </trkpt>
      <trkpt lat="45.4422" lon="5.70629">
        <ele>676</ele>
        <time>2016-05-25T22:23:21Z</time>
      </trkpt>
      <trkpt lat="45.44217" lon="5.70618">
        <ele>677</ele>
        <time>2016-05-25T22:25:21Z</time>
      </trkpt>
      <trkpt lat="45.44213" lon="5.70606">
        <ele>678</ele>
        <time>2016-05-25T22:27:21Z</time>
      </trkpt>
      <trkpt lat="45.44209" lon="5.70598">
        <ele>679</ele>
        <time>2016-05-25T22:29:21Z</time>
      </trkpt>
      <trkpt lat="45.44199" lon="5.70582">
        <ele>681</ele>
        <time>2016-05-25T22:31:21Z</time>
      </trkpt>
      <trkpt lat="45.4419" lon="5.70567">
        <ele>683</ele>
        <time>2016-05-25T22:33:21Z</time>
      </trkpt>
      <trkpt lat="45.44186" lon="5.70557">
        <ele>684</ele>
        <time>2016-05-25T22:35:21Z</time>
      </trkpt>
      <trkpt lat="45.44184" lon="5.70547">
        <ele>685</ele>
        <time>2016-05-25T22:37:21Z</time>
      </trkpt>
      <trkpt lat="45.44183" lon="5.70539">
        <ele>686</ele>
        <time>2016-05-25T22:39:21Z</time>
      </trkpt>
      <trkpt lat="45.44182" lon="5.70527">
        <ele>687</ele>
        <time>2016-05-25T22:41:21Z</time>
      </trkpt>
      <trkpt lat="45.44183" lon="5.70508">
        <ele>688</ele>
        <time>2016-05-25T22:43:21Z</time>
      </trkpt>
      <trkpt lat="45.44182" lon="5.70487">
        <ele>689</ele>
        <time>2016-05-25T22:45:21Z</time>
      </trkpt>
      <trkpt lat="45.44181" lon="5.70463">
        <ele>690</ele>
        <time>2016-05-25T22:47:21Z</time>
      </trkpt>
      <trkpt lat="45.44179" lon="5.70438">
        <ele>690</ele>
        <time>2016-05-25T22:49:21Z</time>
      </trkpt>
      <trkpt lat="45.44179" lon="5.70416">
        <ele>691</ele>
        <time>2016-05-25T22:51:21Z</time>
      </trkpt>
      <trkpt lat="45.44179" lon="5.704">
        <ele>692</ele>
        <time>2016-05-25T22:53:21Z</time>
      </trkpt>
      <trkpt lat="45.44182" lon="5.70382">
        <ele>693</ele>
        <time>2016-05-25T22:55:21Z</time>
      </trkpt>
      <trkpt lat="45.44186" lon="5.70368">
        <ele>694</ele>
        <time>2016-05-25T22:57:21Z</time>
      </trkpt>
      <trkpt lat="45.44193" lon="5.7035">
        <ele>695</ele>
        <time>2016-05-25T22:59:21Z</time>
      </trkpt>
      <trkpt lat="45.442" lon="5.70337">
        <ele>696</ele>
        <time>2016-05-25T23:01:21Z</time>
      </trkpt>
      <trkpt lat="45.44209" lon="5.70325">
        <ele>697</ele>
        <time>2016-05-25T23:03:21Z</time>
      </trkpt>
      <trkpt lat="45.4422" lon="5.70313">
        <ele>698</ele>
        <time>2016-05-25T23:05:21Z</time>
      </trkpt>
      <trkpt lat="45.44233" lon="5.70305">
        <ele>699</ele>
        <time>2016-05-25T23:07:21Z</time>
      </trkpt>
      <trkpt lat="45.44243" lon="5.70301">
        <ele>700</ele>
        <time>2016-05-25T23:09:21Z</time>
      </trkpt>
      <trkpt lat="45.44254" lon="5.703">
        <ele>700</ele>
        <time>2016-05-25T23:11:21Z</time>
      </trkpt>
      <trkpt lat="45.44263" lon="5.70301">
        <ele>700</ele>
        <time>2016-05-25T23:13:21Z</time>
      </trkpt>
      <trkpt lat="45.44272" lon="5.70304">
        <ele>700</ele>
        <time>2016-05-25T23:15:21Z</time>
      </trkpt>
      <trkpt lat="45.4428" lon="5.70307">
        <ele>700</ele>
        <time>2016-05-25T23:17:21Z</time>
      </trkpt>
      <trkpt lat="45.44293" lon="5.7031">
        <ele>699</ele>
        <time>2016-05-25T23:19:21Z</time>
      </trkpt>
      <trkpt lat="45.44301" lon="5.70311">
        <ele>699</ele>
        <time>2016-05-25T23:21:21Z</time>
      </trkpt>
      <trkpt lat="45.44307" lon="5.7031">
        <ele>700</ele>
        <time>2016-05-25T23:23:21Z</time>
      </trkpt>
      <trkpt lat="45.44321" lon="5.70303">
        <ele>701</ele>
        <time>2016-05-25T23:25:21Z</time>
      </trkpt>
      <trkpt lat="45.44327" lon="5.70297">
        <ele>702</ele>
        <time>2016-05-25T23:27:21Z</time>
      </trkpt>
      <trkpt lat="45.44332" lon="5.70292">
        <ele>702</ele>
        <time>2016-05-25T23:29:21Z</time>
      </trkpt>
      <trkpt lat="45.44337" lon="5.70286">
        <ele>703</ele>
        <time>2016-05-25T23:31:21Z</time>
      </trkpt>
      <trkpt lat="45.44343" lon="5.70274">
        <ele>704</ele>
        <time>2016-05-25T23:33:21Z</time>
      </trkpt>
      <trkpt lat="45.4435" lon="5.70247">
        <ele>707</ele>
        <time>2016-05-25T23:35:21Z</time>
      </trkpt>
      <trkpt lat="45.44357" lon="5.70224">
        <ele>709</ele>
        <time>2016-05-25T23:37:21Z</time>
      </trkpt>
      <trkpt lat="45.44361" lon="5.70214">
        <ele>710</ele>
        <time>2016-05-25T23:39:21Z</time>
      </trkpt>
      <trkpt lat="45.44369" lon="5.70199">
        <ele>711</ele>
        <time>2016-05-25T23:41:21Z</time>
      </trkpt>
      <trkpt lat="45.44389" lon="5.70169">
        <ele>714</ele>
        <time>2016-05-25T23:43:21Z</time>
      </trkpt>
      <trkpt lat="45.44399" lon="5.70156">
        <ele>715</ele>
        <time>2016-05-25T23:45:21Z</time>
      </trkpt>
      <trkpt lat="45.44406" lon="5.70148">
        <ele>716</ele>
        <time>2016-05-25T23:47:21Z</time>
      </trkpt>
      <trkpt lat="45.44415" lon="5.70143">
        <ele>716</ele>
        <time>2016-05-25T23:49:21Z</time>
      </trkpt>
      <trkpt lat="45.44434" lon="5.70133">
        <ele>719</ele>
        <time>2016-05-25T23:51:21Z</time>
      </trkpt>
      <trkpt lat="45.4447" lon="5.70119">
        <ele>723</ele>
        <time>2016-05-25T23:53:21Z</time>
      </trkpt>
      <trkpt lat="45.44489" lon="5.70112">
        <ele>724</ele>
        <time>2016-05-25T23:55:21Z</time>
      </trkpt>
      <trkpt lat="45.44503" lon="5.70108">
        <ele>725</ele>
        <time>2016-05-25T23:57:21Z</time>
      </trkpt>
      <trkpt lat="45.44522" lon="5.70105">
        <ele>725</ele>
        <time>2016-05-25T23:59:21Z</time>
      </trkpt>
      <trkpt lat="45.44529" lon="5.70104">
        <ele>725</ele>
        <time>2016-05-26T00:01:21Z</time>
      </trkpt>
      <trkpt lat="45.44556" lon="5.70098">
        <ele>726</ele>
        <time>2016-05-26T00:03:21Z</time>
      </trkpt>
      <trkpt lat="45.44565" lon="5.70095">
        <ele>726</ele>
        <time>2016-05-26T00:05:21Z</time>
      </trkpt>
      <trkpt lat="45.44569" lon="5.70091">
        <ele>726</ele>
        <time>2016-05-26T00:07:21Z</time>
      </trkpt>
      <trkpt lat="45.44574" lon="5.70084">
        <ele>727</ele>
        <time>2016-05-26T00:09:21Z</time>
      </trkpt>
      <trkpt lat="45.44576" lon="5.70078">
        <ele>728</ele>
        <time>2016-05-26T00:11:21Z</time>
      </trkpt>
      <trkpt lat="45.44577" lon="5.70067">
        <ele>729</ele>
        <time>2016-05-26T00:13:21Z</time>
      </trkpt>
      <trkpt lat="45.44575" lon="5.70058">
        <ele>730</ele>
        <time>2016-05-26T00:15:21Z</time>
      </trkpt>
      <trkpt lat="45.44572" lon="5.70052">
        <ele>731</ele>
        <time>2016-05-26T00:17:21Z</time>
      </trkpt>
      <trkpt lat="45.44567" lon="5.70047">
        <ele>731</ele>
        <time>2016-05-26T00:19:21Z</time>
      </trkpt>
      <trkpt lat="45.4456" lon="5.70045">
        <ele>732</ele>
        <time>2016-05-26T00:21:21Z</time>
      </trkpt>
      <trkpt lat="45.44548" lon="5.70042">
        <ele>732</ele>
        <time>2016-05-26T00:23:21Z</time>
      </trkpt>
      <trkpt lat="45.44537" lon="5.70038">
        <ele>732</ele>
        <time>2016-05-26T00:25:21Z</time>
      </trkpt>
      <trkpt lat="45.44529" lon="5.70034">
        <ele>733</ele>
        <time>2016-05-26T00:27:21Z</time>
      </trkpt>
      <trkpt lat="45.44513" lon="5.70022">
        <ele>734</ele>
        <time>2016-05-26T00:29:21Z</time>
      </trkpt>
      <trkpt lat="45.44494" lon="5.70005">
        <ele>736</ele>
        <time>2016-05-26T00:31:21Z</time>
      </trkpt>
      <trkpt lat="45.44469" lon="5.69986">
        <ele>738</ele>
        <time>2016-05-26T00:33:21Z</time>
      </trkpt>
      <trkpt lat="45.44447" lon="5.69972">
        <ele>739</ele>
        <time>2016-05-26T00:35:21Z</time>
      </trkpt>
      <trkpt lat="45.44427" lon="5.69958">
        <ele>740</ele>
        <time>2016-05-26T00:37:21Z</time>
      </trkpt>
      <trkpt lat="45.44418" lon="5.6995">
        <ele>741</ele>
        <time>2016-05-26T00:39:21Z</time>
      </trkpt>
      <trkpt lat="45.4441" lon="5.6994">
        <ele>742</ele>
        <time>2016-05-26T00:41:21Z</time>
      </trkpt>
      <trkpt lat="45.44404" lon="5.69931">
        <ele>743</ele>
        <time>2016-05-26T00:43:21Z</time>
      </trkpt>
      <trkpt lat="45.44398" lon="5.69919">
        <ele>744</ele>
        <time>2016-05-26T00:45:21Z</time>
      </trkpt>
      <trkpt lat="45.44393" lon="5.69905">
        <ele>745</ele>
        <time>2016-05-26T00:47:21Z</time>
      </trkpt>
      <trkpt lat="45.44389" lon="5.6989">
        <ele>747</ele>
        <time>2016-05-26T00:49:21Z</time>
      </trkpt>
      <trkpt lat="45.44386" lon="5.69876">
        <ele>748</ele>
        <time>2016-05-26T00:51:21Z</time>
      </trkpt>
      <trkpt lat="45.44376" lon="5.69831">
        <ele>751</ele>
        <time>2016-05-26T00:53:21Z</time>
      </trkpt>
      <trkpt lat="45.44369" lon="5.698">
        <ele>753</ele>
        <time>2016-05-26T00:55:21Z</time>
      </trkpt>
      <trkpt lat="45.44359" lon="5.69763">
        <ele>756</ele>
        <time>2016-05-26T00:57:21Z</time>
      </trkpt>
      <trkpt lat="45.44343" lon="5.697">
        <ele>758</ele>
        <time>2016-05-26T00:59:21Z</time>
      </trkpt>
      <trkpt lat="45.44331" lon="5.69657">
        <ele>760</ele>
        <time>2016-05-26T01:01:21Z</time>
      </trkpt>
      <trkpt lat="45.44326" lon="5.69641">
        <ele>762</ele>
        <time>2016-05-26T01:03:21Z</time>
      </trkpt>
      <trkpt lat="45.4432" lon="5.6963">
        <ele>763</ele>
        <time>2016-05-26T01:05:21Z</time>
      </trkpt>
      <trkpt lat="45.44312" lon="5.69617">
        <ele>764</ele>
        <time>2016-05-26T01:07:21Z</time>
      </trkpt>
      <trkpt lat="45.44302" lon="5.69607">
        <ele>765</ele>
        <time>2016-05-26T01:09:21Z</time>
      </trkpt>
      <trkpt lat="45.44267" lon="5.69577">
        <ele>768</ele>
        <time>2016-05-26T01:11:21Z</time>
      </trkpt>
      <trkpt lat="45.44225" lon="5.69541">
        <ele>771</ele>
        <time>2016-05-26T01:13:21Z</time>
      </trkpt>
      <trkpt lat="45.442" lon="5.69517">
        <ele>773</ele>
        <time>2016-05-26T01:15:21Z</time>
      </trkpt>
      <trkpt lat="45.44177" lon="5.69497">
        <ele>774</ele>
        <time>2016-05-26T01:17:21Z</time>
      </trkpt>
      <trkpt lat="45.44161" lon="5.69487">
        <ele>775</ele>
        <time>2016-05-26T01:19:21Z</time>
      </trkpt>
      <trkpt lat="45.44145" lon="5.69479">
        <ele>777</ele>
        <time>2016-05-26T01:21:21Z</time>
      </trkpt>
      <trkpt lat="45.44132" lon="5.69474">
        <ele>778</ele>
        <time>2016-05-26T01:23:21Z</time>
      </trkpt>
      <trkpt lat="45.44104" lon="5.69467">
        <ele>780</ele>
        <time>2016-05-26T01:25:21Z</time>
      </trkpt>
      <trkpt lat="45.44066" lon="5.69458">
        <ele>783</ele>
        <time>2016-05-26T01:27:21Z</time>
      </trkpt>
      <trkpt lat="45.44037" lon="5.69451">
        <ele>786</ele>
        <time>2016-05-26T01:29:21Z</time>
      </trkpt>
      <trkpt lat="45.44024" lon="5.69446">
        <ele>788</ele>
        <time>2016-05-26T01:31:21Z</time>
      </trkpt>
      <trkpt lat="45.4401" lon="5.69438">
        <ele>790</ele>
        <time>2016-05-26T01:33:21Z</time>
      </trkpt>
      <trkpt lat="45.43993" lon="5.69426">
        <ele>793</ele>
        <time>2016-05-26T01:35:21Z</time>
      </trkpt>
      <trkpt lat="45.43979" lon="5.69418">
        <ele>794</ele>
        <time>2016-05-26T01:37:21Z</time>
      </trkpt>
      <trkpt lat="45.43958" lon="5.69408">
        <ele>796</ele>
        <time>2016-05-26T01:39:21Z</time>
      </trkpt>
      <trkpt lat="45.43915" lon="5.69391">
        <ele>800</ele>
        <time>2016-05-26T01:41:21Z</time>
      </trkpt>
      <trkpt lat="45.43889" lon="5.6938">
        <ele>802</ele>
        <time>2016-05-26T01:43:21Z</time>
      </trkpt>
      <trkpt lat="45.43879" lon="5.69377">
        <ele>803</ele>
        <time>2016-05-26T01:45:21Z</time>
      </trkpt>
      <trkpt lat="45.43861" lon="5.69369">
        <ele>805</ele>
        <time>2016-05-26T01:47:21Z</time>
      </trkpt>
      <trkpt lat="45.43847" lon="5.69361">
        <ele>806</ele>
        <time>2016-05-26T01:49:21Z</time>
      </trkpt>
      <trkpt lat="45.43837" lon="5.69351">
        <ele>807</ele>
        <time>2016-05-26T01:51:21Z</time>
      </trkpt>
      <trkpt lat="45.43829" lon="5.6934">
        <ele>809</ele>
        <time>2016-05-26T01:53:21Z</time>
      </trkpt>
      <trkpt lat="45.43821" lon="5.69323">
        <ele>810</ele>
        <time>2016-05-26T01:55:21Z</time>
      </trkpt>
      <trkpt lat="45.43818" lon="5.69308">
        <ele>810</ele>
        <time>2016-05-26T01:57:21Z</time>
      </trkpt>
      <trkpt lat="45.43818" lon="5.69306">
        <ele>810</ele>
        <time>2016-05-26T01:59:21Z</time>
      </trkpt>
      <trkpt lat="45.43816" lon="5.69292">
        <ele>810</ele>
        <time>2016-05-26T02:01:21Z</time>
      </trkpt>
      <trkpt lat="45.43817" lon="5.69274">
        <ele>810</ele>
        <time>2016-05-26T02:03:21Z</time>
      </trkpt>
      <trkpt lat="45.4382" lon="5.69242">
        <ele>810</ele>
        <time>2016-05-26T02:05:21Z</time>
      </trkpt>
      <trkpt lat="45.43824" lon="5.69198">
        <ele>809</ele>
        <time>2016-05-26T02:07:21Z</time>
      </trkpt>
      <trkpt lat="45.43833" lon="5.69102">
        <ele>811</ele>
        <time>2016-05-26T02:09:21Z</time>
      </trkpt>
      <trkpt lat="45.43842" lon="5.69016">
        <ele>815</ele>
        <time>2016-05-26T02:11:21Z</time>
      </trkpt>
      <trkpt lat="45.43846" lon="5.68974">
        <ele>816</ele>
        <time>2016-05-26T02:13:21Z</time>
      </trkpt>
      <trkpt lat="45.43849" lon="5.68952">
        <ele>817</ele>
        <time>2016-05-26T02:15:21Z</time>
      </trkpt>
      <trkpt lat="45.43851" lon="5.68941">
        <ele>818</ele>
        <time>2016-05-26T02:17:21Z</time>
      </trkpt>
      <trkpt lat="45.43857" lon="5.68929">
        <ele>818</ele>
        <time>2016-05-26T02:19:21Z</time>
      </trkpt>
      <trkpt lat="45.43862" lon="5.68922">
        <ele>819</ele>
        <time>2016-05-26T02:21:21Z</time>
      </trkpt>
      <trkpt lat="45.43868" lon="5.68915">
        <ele>819</ele>
        <time>2016-05-26T02:23:21Z</time>
      </trkpt>
      <trkpt lat="45.43877" lon="5.68909">
        <ele>819</ele>
        <time>2016-05-26T02:25:21Z</time>
      </trkpt>
      <trkpt lat="45.43892" lon="5.689">
        <ele>820</ele>
        <time>2016-05-26T02:27:21Z</time>
      </trkpt>
      <trkpt lat="45.43926" lon="5.68885">
        <ele>822</ele>
        <time>2016-05-26T02:29:21Z</time>
      </trkpt>
      <trkpt lat="45.43961" lon="5.68866">
        <ele>822</ele>
        <time>2016-05-26T02:31:21Z</time>
      </trkpt>
      <trkpt lat="45.43972" lon="5.6886">
        <ele>823</ele>
        <time>2016-05-26T02:33:21Z</time>
      </trkpt>
      <trkpt lat="45.43979" lon="5.68855">
        <ele>823</ele>
        <time>2016-05-26T02:35:21Z</time>
      </trkpt>
      <trkpt lat="45.43987" lon="5.68847">
        <ele>823</ele>
        <time>2016-05-26T02:37:21Z</time>
      </trkpt>
      <trkpt lat="45.43995" lon="5.68838">
        <ele>823</ele>
        <time>2016-05-26T02:39:21Z</time>
      </trkpt>
      <trkpt lat="45.44" lon="5.68828">
        <ele>823</ele>
        <time>2016-05-26T02:41:21Z</time>
      </trkpt>
      <trkpt lat="45.44004" lon="5.68815">
        <ele>824</ele>
        <time>2016-05-26T02:43:21Z</time>
      </trkpt>
      <trkpt lat="45.44006" lon="5.68806">
        <ele>824</ele>
        <time>2016-05-26T02:45:21Z</time>
      </trkpt>
      <trkpt lat="45.44007" lon="5.68802">
        <ele>824</ele>
        <time>2016-05-26T02:47:21Z</time>
      </trkpt>
      <trkpt lat="45.44007" lon="5.68791">
        <ele>825</ele>
        <time>2016-05-26T02:49:21Z</time>
      </trkpt>
      <trkpt lat="45.44006" lon="5.68779">
        <ele>825</ele>
        <time>2016-05-26T02:51:21Z</time>
      </trkpt>
      <trkpt lat="45.44004" lon="5.68767">
        <ele>826</ele>
        <time>2016-05-26T02:53:21Z</time>
      </trkpt>
      <trkpt lat="45.44" lon="5.68755">
        <ele>826</ele>
        <time>2016-05-26T02:55:21Z</time>
      </trkpt>
      <trkpt lat="45.4399" lon="5.68738">
        <ele>827</ele>
        <time>2016-05-26T02:57:21Z</time>
      </trkpt>
      <trkpt lat="45.43976" lon="5.68716">
        <ele>828</ele>
        <time>2016-05-26T02:59:21Z</time>
      </trkpt>
      <trkpt lat="45.43924" lon="5.68644">
        <ele>831</ele>
        <time>2016-05-26T03:01:21Z</time>
      </trkpt>
      <trkpt lat="45.43914" lon="5.6863">
        <ele>832</ele>
        <time>2016-05-26T03:03:21Z</time>
      </trkpt>
      <trkpt lat="45.43895" lon="5.68603">
        <ele>833</ele>
        <time>2016-05-26T03:05:21Z</time>
      </trkpt>
      <trkpt lat="45.43873" lon="5.68573">
        <ele>836</ele>
        <time>2016-05-26T03:07:21Z</time>
      </trkpt>
      <trkpt lat="45.43858" lon="5.6855">
        <ele>837</ele>
        <time>2016-05-26T03:09:21Z</time>
      </trkpt>
      <trkpt lat="45.43855" lon="5.68544">
        <ele>837</ele>
        <time>2016-05-26T03:11:21Z</time>
      </trkpt>
      <trkpt lat="45.43852" lon="5.6854">
        <ele>838</ele>
        <time>2016-05-26T03:13:21Z</time>
      </trkpt>
      <trkpt lat="45.4385" lon="5.68536">
        <ele>838</ele>
        <time>2016-05-26T03:15:21Z</time>
      </trkpt>
      <trkpt lat="45.43845" lon="5.68529">
        <ele>839</ele>
        <time>2016-05-26T03:17:21Z</time>
      </trkpt>
      <trkpt lat="45.43813" lon="5.68486">
        <ele>841</ele>
        <time>2016-05-26T03:19:21Z</time>
      </trkpt>
      <trkpt lat="45.43787" lon="5.68455">
        <ele>841</ele>
        <time>2016-05-26T03:21:21Z</time>
      </trkpt>
      <trkpt lat="45.43756" lon="5.68424">
        <ele>842</ele>
        <time>2016-05-26T03:23:21Z</time>
      </trkpt>
      <trkpt lat="45.4374" lon="5.68409">
        <ele>843</ele>
        <time>2016-05-26T03:25:21Z</time>
      </trkpt>
      <trkpt lat="45.43713" lon="5.6839">
        <ele>844</ele>
        <time>2016-05-26T03:27:21Z</time>
      </trkpt>
      <trkpt lat="45.43659" lon="5.68353">
        <ele>847</ele>
        <time>2016-05-26T03:29:21Z</time>
      </trkpt>
      <trkpt lat="45.43614" lon="5.68322">
        <ele>850</ele>
        <time>2016-05-26T03:31:21Z</time>
      </trkpt>
      <trkpt lat="45.43552" lon="5.68278">
        <ele>855</ele>
        <time>2016-05-26T03:33:21Z</time>
      </trkpt>
      <trkpt lat="45.43489" lon="5.68236">
        <ele>865</ele>
        <time>2016-05-26T03:35:21Z</time>
      </trkpt>
      <trkpt lat="45.43419" lon="5.68189">
        <ele>872</ele>
        <time>2016-05-26T03:37:21Z</time>
      </trkpt>
      <trkpt lat="45.43379" lon="5.68163">
        <ele>875</ele>
        <time>2016-05-26T03:39:21Z</time>
      </trkpt>
      <trkpt lat="45.43359" lon="5.68146">
        <ele>876</ele>
        <time>2016-05-26T03:41:21Z</time>
      </trkpt>
      <trkpt lat="45.4334" lon="5.68126">
        <ele>878</ele>
        <time>2016-05-26T03:43:21Z</time>
      </trkpt>
      <trkpt lat="45.43328" lon="5.68111">
        <ele>879</ele>
        <time>2016-05-26T03:45:21Z</time>
      </trkpt>
      <trkpt lat="45.4332" lon="5.68093">
        <ele>881</ele>
        <time>2016-05-26T03:47:21Z</time>
      </trkpt>
      <trkpt lat="45.43316" lon="5.68081">
        <ele>883</ele>
        <time>2016-05-26T03:49:21Z</time>
      </trkpt>
      <trkpt lat="45.43313" lon="5.68075">
        <ele>882</ele>
        <time>2016-05-26T03:51:21Z</time>
      </trkpt>
      <trkpt lat="45.43306" lon="5.68052">
        <ele>882</ele>
        <time>2016-05-26T03:53:21Z</time>
      </trkpt>
      <trkpt lat="45.43303" lon="5.68033">
        <ele>881</ele>
        <time>2016-05-26T03:55:21Z</time>
      </trkpt>
      <trkpt lat="45.43303" lon="5.68014">
        <ele>881</ele>
        <time>2016-05-26T03:57:21Z</time>
      </trkpt>
      <trkpt lat="45.43303" lon="5.67986">
        <ele>880</ele>
        <time>2016-05-26T03:59:21Z</time>
      </trkpt>
      <trkpt lat="45.43306" lon="5.67946">
        <ele>880</ele>
        <time>2016-05-26T04:01:21Z</time>
      </trkpt>
      <trkpt lat="45.43309" lon="5.67876">
        <ele>881</ele>
        <time>2016-05-26T04:03:21Z</time>
      </trkpt>
      <trkpt lat="45.43311" lon="5.67833">
        <ele>881</ele>
        <time>2016-05-26T04:05:21Z</time>
      </trkpt>
      <trkpt lat="45.43311" lon="5.67816">
        <ele>882</ele>
        <time>2016-05-26T04:07:21Z</time>
      </trkpt>
      <trkpt lat="45.43313" lon="5.67801">
        <ele>881</ele>
        <time>2016-05-26T04:09:21Z</time>
      </trkpt>
      <trkpt lat="45.43315" lon="5.67787">
        <ele>881</ele>
        <time>2016-05-26T04:11:21Z</time>
      </trkpt>
      <trkpt lat="45.43314" lon="5.6778">
        <ele>882</ele>
        <time>2016-05-26T04:13:21Z</time>
      </trkpt>
      <trkpt lat="45.43313" lon="5.67769">
        <ele>882</ele>
        <time>2016-05-26T04:15:21Z</time>
      </trkpt>
      <trkpt lat="45.43309" lon="5.67751">
        <ele>882</ele>
        <time>2016-05-26T04:17:21Z</time>
      </trkpt>
      <trkpt lat="45.43304" lon="5.67734">
        <ele>882</ele>
        <time>2016-05-26T04:19:21Z</time>
      </trkpt>
      <trkpt lat="45.43299" lon="5.67722">
        <ele>882</ele>
        <time>2016-05-26T04:21:21Z</time>
      </trkpt>
      <trkpt lat="45.43292" lon="5.67709">
        <ele>883</ele>
        <time>2016-05-26T04:23:21Z</time>
      </trkpt>
      <trkpt lat="45.4329" lon="5.67705">
        <ele>883</ele>
        <time>2016-05-26T04:25:21Z</time>
      </trkpt>
      <trkpt lat="45.43271" lon="5.67675">
        <ele>884</ele>
        <time>2016-05-26T04:27:21Z</time>
      </trkpt>
      <trkpt lat="45.43255" lon="5.67647">
        <ele>880</ele>
        <time>2016-05-26T04:29:21Z</time>
      </trkpt>
      <trkpt lat="45.4322" lon="5.67588">
        <ele>872</ele>
        <time>2016-05-26T04:31:21Z</time>
      </trkpt>
      <trkpt lat="45.43208" lon="5.67567">
        <ele>870</ele>
        <time>2016-05-26T04:33:21Z</time>
      </trkpt>
      <trkpt lat="45.43186" lon="5.67527">
        <ele>868</ele>
        <time>2016-05-26T04:35:21Z</time>
      </trkpt>
      <trkpt lat="45.43172" lon="5.67499">
        <ele>867</ele>
        <time>2016-05-26T04:37:21Z</time>
      </trkpt>
      <trkpt lat="45.43165" lon="5.67482">
        <ele>867</ele>
        <time>2016-05-26T04:39:21Z</time>
      </trkpt>
      <trkpt lat="45.43161" lon="5.67465">
        <ele>866</ele>
        <time>2016-05-26T04:41:21Z</time>
      </trkpt>
      <trkpt lat="45.43158" lon="5.67448">
        <ele>864</ele>
        <time>2016-05-26T04:43:21Z</time>
      </trkpt>
      <trkpt lat="45.43157" lon="5.67431">
        <ele>862</ele>
        <time>2016-05-26T04:45:21Z</time>
      </trkpt>
      <trkpt lat="45.43158" lon="5.67412">
        <ele>860</ele>
        <time>2016-05-26T04:47:21Z</time>
      </trkpt>
      <trkpt lat="45.43163" lon="5.6736">
        <ele>857</ele>
        <time>2016-05-26T04:49:21Z</time>
      </trkpt>
      <trkpt lat="45.43171" lon="5.67303">
        <ele>853</ele>
        <time>2016-05-26T04:51:21Z</time>
      </trkpt>
      <trkpt lat="45.43173" lon="5.67283">
        <ele>851</ele>
        <time>2016-05-26T04:53:21Z</time>
      </trkpt>
      <trkpt lat="45.43172" lon="5.67264">
        <ele>851</ele>
        <time>2016-05-26T04:55:21Z</time>
      </trkpt>
      <trkpt lat="45.4317" lon="5.67244">
        <ele>850</ele>
        <time>2016-05-26T04:57:21Z</time>
      </trkpt>
      <trkpt lat="45.43164" lon="5.6722">
        <ele>849</ele>
        <time>2016-05-26T04:59:21Z</time>
      </trkpt>
      <trkpt lat="45.43162" lon="5.67211">
        <ele>848</ele>
        <time>2016-05-26T05:01:21Z</time>
      </trkpt>
      <trkpt lat="45.43157" lon="5.67195">
        <ele>848</ele>
        <time>2016-05-26T05:03:21Z</time>
      </trkpt>
      <trkpt lat="45.43136" lon="5.67118">
        <ele>842</ele>
        <time>2016-05-26T05:05:21Z</time>
      </trkpt>
      <trkpt lat="45.43113" lon="5.67032">
        <ele>839</ele>
        <time>2016-05-26T05:07:21Z</time>
      </trkpt>
      <trkpt lat="45.43065" lon="5.66852">
        <ele>827</ele>
        <time>2016-05-26T05:09:21Z</time>
      </trkpt>
      <trkpt lat="45.43058" lon="5.66824">
        <ele>826</ele>
        <time>2016-05-26T05:11:21Z</time>
      </trkpt>
      <trkpt lat="45.43055" lon="5.66805">
        <ele>826</ele>
        <time>2016-05-26T05:13:21Z</time>
      </trkpt>
      <trkpt lat="45.43053" lon="5.66787">
        <ele>825</ele>
        <time>2016-05-26T05:15:21Z</time>
      </trkpt>
      <trkpt lat="45.43053" lon="5.6677">
        <ele>823</ele>
        <time>2016-05-26T05:17:21Z</time>
      </trkpt>
      <trkpt lat="45.43054" lon="5.66751">
        <ele>820</ele>
        <time>2016-05-26T05:19:21Z</time>
      </trkpt>
      <trkpt lat="45.43057" lon="5.66729">
        <ele>819</ele>
        <time>2016-05-26T05:21:21Z</time>
      </trkpt>
      <trkpt lat="45.43062" lon="5.66696">
        <ele>816</ele>
        <time>2016-05-26T05:23:21Z</time>
      </trkpt>
      <trkpt lat="45.43076" lon="5.66639">
        <ele>812</ele>
        <time>2016-05-26T05:25:21Z</time>
      </trkpt>
      <trkpt lat="45.43083" lon="5.6661">
        <ele>810</ele>
        <time>2016-05-26T05:27:21Z</time>
      </trkpt>
      <trkpt lat="45.43085" lon="5.66597">
        <ele>810</ele>
        <time>2016-05-26T05:29:21Z</time>
      </trkpt>
      <trkpt lat="45.43085" lon="5.66581">
        <ele>811</ele>
        <time>2016-05-26T05:31:21Z</time>
      </trkpt>
      <trkpt lat="45.43085" lon="5.66564">
        <ele>810</ele>
        <time>2016-05-26T05:33:21Z</time>
      </trkpt>
      <trkpt lat="45.43079" lon="5.66494">
        <ele>808</ele>
        <time>2016-05-26T05:35:21Z</time>
      </trkpt>
      <trkpt lat="45.43074" lon="5.66437">
        <ele>803</ele>
        <time>2016-05-26T05:37:21Z</time>
      </trkpt>
      <trkpt lat="45.43073" lon="5.66421">
        <ele>801</ele>
        <time>2016-05-26T05:39:21Z</time>
      </trkpt>
      <trkpt lat="45.4307" lon="5.66407">
        <ele>800</ele>
        <time>2016-05-26T05:41:21Z</time>
      </trkpt>
      <trkpt lat="45.43065" lon="5.66393">
        <ele>799</ele>
        <time>2016-05-26T05:43:21Z</time>
      </trkpt>
      <trkpt lat="45.43055" lon="5.66372">
        <ele>798</ele>
        <time>2016-05-26T05:45:21Z</time>
      </trkpt>
      <trkpt lat="45.43019" lon="5.66314">
        <ele>799</ele>
        <time>2016-05-26T05:47:21Z</time>
      </trkpt>
      <trkpt lat="45.43005" lon="5.6629">
        <ele>799</ele>
        <time>2016-05-26T05:49:21Z</time>
      </trkpt>
      <trkpt lat="45.42993" lon="5.66266">
        <ele>798</ele>
        <time>2016-05-26T05:51:21Z</time>
      </trkpt>
      <trkpt lat="45.42981" lon="5.66237">
        <ele>796</ele>
        <time>2016-05-26T05:53:21Z</time>
      </trkpt>
      <trkpt lat="45.4295" lon="5.66154">
        <ele>793</ele>
        <time>2016-05-26T05:55:21Z</time>
      </trkpt>
      <trkpt lat="45.42917" lon="5.66058">
        <ele>787</ele>
        <time>2016-05-26T05:57:21Z</time>
      </trkpt>
      <trkpt lat="45.429" lon="5.66009">
        <ele>782</ele>
        <time>2016-05-26T05:59:21Z</time>
      </trkpt>
      <trkpt lat="45.42871" lon="5.65931">
        <ele>781</ele>
        <time>2016-05-26T06:01:21Z</time>
      </trkpt>
      <trkpt lat="45.42846" lon="5.65861">
        <ele>776</ele>
        <time>2016-05-26T06:03:21Z</time>
      </trkpt>
      <trkpt lat="45.42835" lon="5.65835">
        <ele>775</ele>
        <time>2016-05-26T06:05:21Z</time>
      </trkpt>
      <trkpt lat="45.42826" lon="5.65816">
        <ele>773</ele>
        <time>2016-05-26T06:07:21Z</time>
      </trkpt>
      <trkpt lat="45.42816" lon="5.65803">
        <ele>772</ele>
        <time>2016-05-26T06:09:21Z</time>
      </trkpt>
      <trkpt lat="45.42812" lon="5.65798">
        <ele>771</ele>
        <time>2016-05-26T06:11:21Z</time>
      </trkpt>
      <trkpt lat="45.42806" lon="5.65792">
        <ele>771</ele>
        <time>2016-05-26T06:13:21Z</time>
      </trkpt>
      <trkpt lat="45.42792" lon="5.65779">
        <ele>771</ele>
        <time>2016-05-26T06:15:21Z</time>
      </trkpt>
      <trkpt lat="45.42773" lon="5.65764">
        <ele>771</ele>
        <time>2016-05-26T06:17:21Z</time>
      </trkpt>
      <trkpt lat="45.42764" lon="5.65753">
        <ele>770</ele>
        <time>2016-05-26T06:19:21Z</time>
      </trkpt>
      <trkpt lat="45.4276" lon="5.65747">
        <ele>769</ele>
        <time>2016-05-26T06:21:21Z</time>
      </trkpt>
      <trkpt lat="45.42757" lon="5.65743">
        <ele>769</ele>
        <time>2016-05-26T06:23:21Z</time>
      </trkpt>
      <trkpt lat="45.42745" lon="5.6572">
        <ele>768</ele>
        <time>2016-05-26T06:25:21Z</time>
      </trkpt>
      <trkpt lat="45.42723" lon="5.65678">
        <ele>767</ele>
        <time>2016-05-26T06:27:21Z</time>
      </trkpt>
      <trkpt lat="45.42686" lon="5.65604">
        <ele>768</ele>
        <time>2016-05-26T06:29:21Z</time>
      </trkpt>
      <trkpt lat="45.4267" lon="5.6557">
        <ele>766</ele>
        <time>2016-05-26T06:31:21Z</time>
      </trkpt>
      <trkpt lat="45.42664" lon="5.65553">
        <ele>765</ele>
        <time>2016-05-26T06:33:21Z</time>
      </trkpt>
      <trkpt lat="45.42661" lon="5.65541">
        <ele>764</ele>
        <time>2016-05-26T06:35:21Z</time>
      </trkpt>
      <trkpt lat="45.42659" lon="5.65525">
        <ele>761</ele>
        <time>2016-05-26T06:37:21Z</time>
      </trkpt>
      <trkpt lat="45.4266" lon="5.65508">
        <ele>758</ele>
        <time>2016-05-26T06:39:21Z</time>
      </trkpt>
      <trkpt lat="45.4266" lon="5.65501">
        <ele>756</ele>
        <time>2016-05-26T06:41:21Z</time>
      </trkpt>
      <trkpt lat="45.4266" lon="5.65492">
        <ele>755</ele>
        <time>2016-05-26T06:43:21Z</time>
      </trkpt>
      <trkpt lat="45.42659" lon="5.65476">
        <ele>753</ele>
        <time>2016-05-26T06:45:21Z</time>
      </trkpt>
      <trkpt lat="45.42657" lon="5.65461">
        <ele>752</ele>
        <time>2016-05-26T06:47:21Z</time>
      </trkpt>
      <trkpt lat="45.42651" lon="5.65444">
        <ele>752</ele>
        <time>2016-05-26T06:49:21Z</time>
      </trkpt>
      <trkpt lat="45.42638" lon="5.65405">
        <ele>750</ele>
        <time>2016-05-26T06:51:21Z</time>
      </trkpt>
      <trkpt lat="45.42628" lon="5.65381">
        <ele>750</ele>
        <time>2016-05-26T06:53:21Z</time>
      </trkpt>
      <trkpt lat="45.42623" lon="5.65366">
        <ele>750</ele>
        <time>2016-05-26T06:55:21Z</time>
      </trkpt>
      <trkpt lat="45.4262" lon="5.65346">
        <ele>748</ele>
        <time>2016-05-26T06:57:21Z</time>
      </trkpt>
      <trkpt lat="45.42617" lon="5.65326">
        <ele>747</ele>
        <time>2016-05-26T06:59:21Z</time>
      </trkpt>
      <trkpt lat="45.42617" lon="5.65322">
        <ele>747</ele>
        <time>2016-05-26T07:01:21Z</time>
      </trkpt>
      <trkpt lat="45.42616" lon="5.6531">
        <ele>747</ele>
        <time>2016-05-26T07:03:21Z</time>
      </trkpt>
      <trkpt lat="45.42616" lon="5.65292">
        <ele>746</ele>
        <time>2016-05-26T07:05:21Z</time>
      </trkpt>
      <trkpt lat="45.42614" lon="5.65228">
        <ele>744</ele>
        <time>2016-05-26T07:07:21Z</time>
      </trkpt>
      <trkpt lat="45.42613" lon="5.65191">
        <ele>744</ele>
        <time>2016-05-26T07:09:21Z</time>
      </trkpt>
      <trkpt lat="45.42614" lon="5.65172">
        <ele>744</ele>
        <time>2016-05-26T07:11:21Z</time>
      </trkpt>
      <trkpt lat="45.42618" lon="5.65148">
        <ele>743</ele>
        <time>2016-05-26T07:13:21Z</time>
      </trkpt>
      <trkpt lat="45.42625" lon="5.65106">
        <ele>742</ele>
        <time>2016-05-26T07:15:21Z</time>
      </trkpt>
      <trkpt lat="45.42632" lon="5.65078">
        <ele>740</ele>
        <time>2016-05-26T07:17:21Z</time>
      </trkpt>
      <trkpt lat="45.42637" lon="5.65066">
        <ele>740</ele>
        <time>2016-05-26T07:19:21Z</time>
      </trkpt>
      <trkpt lat="45.42644" lon="5.65052">
        <ele>740</ele>
        <time>2016-05-26T07:21:21Z</time>
      </trkpt>
      <trkpt lat="45.42651" lon="5.65043">
        <ele>739</ele>
        <time>2016-05-26T07:23:21Z</time>
      </trkpt>
      <trkpt lat="45.42661" lon="5.65035">
        <ele>738</ele>
        <time>2016-05-26T07:25:21Z</time>
      </trkpt>
      <trkpt lat="45.42671" lon="5.65028">
        <ele>737</ele>
        <time>2016-05-26T07:27:21Z</time>
      </trkpt>
      <trkpt lat="45.42682" lon="5.65021">
        <ele>737</ele>
        <time>2016-05-26T07:29:21Z</time>
      </trkpt>
      <trkpt lat="45.42698" lon="5.65013">
        <ele>735</ele>
        <time>2016-05-26T07:31:21Z</time>
      </trkpt>
      <trkpt lat="45.42732" lon="5.64999">
        <ele>733</ele>
        <time>2016-05-26T07:33:21Z</time>
      </trkpt>
      <trkpt lat="45.42787" lon="5.6498">
        <ele>730</ele>
        <time>2016-05-26T07:35:21Z</time>
      </trkpt>
      <trkpt lat="45.42816" lon="5.64972">
        <ele>729</ele>
        <time>2016-05-26T07:37:21Z</time>
      </trkpt>
      <trkpt lat="45.42831" lon="5.64969">
        <ele>728</ele>
        <time>2016-05-26T07:39:21Z</time>
      </trkpt>
      <trkpt lat="45.42839" lon="5.64969">
        <ele>728</ele>
        <time>2016-05-26T07:41:21Z</time>
      </trkpt>
      <trkpt lat="45.42846" lon="5.64971">
        <ele>728</ele>
        <time>2016-05-26T07:43:21Z</time>
      </trkpt>
      <trkpt lat="45.42852" lon="5.64973">
        <ele>728</ele>
        <time>2016-05-26T07:45:21Z</time>
      </trkpt>
      <trkpt lat="45.42862" lon="5.64979">
        <ele>727</ele>
        <time>2016-05-26T07:47:21Z</time>
      </trkpt>
      <trkpt lat="45.42894" lon="5.65">
        <ele>725</ele>
        <time>2016-05-26T07:49:21Z</time>
      </trkpt>
      <trkpt lat="45.42912" lon="5.6501">
        <ele>722</ele>
        <time>2016-05-26T07:51:21Z</time>
      </trkpt>
      <trkpt lat="45.42926" lon="5.65016">
        <ele>721</ele>
        <time>2016-05-26T07:53:21Z</time>
      </trkpt>
      <trkpt lat="45.42942" lon="5.65022">
        <ele>720</ele>
        <time>2016-05-26T07:55:21Z</time>
      </trkpt>
      <trkpt lat="45.42963" lon="5.65029">
        <ele>719</ele>
        <time>2016-05-26T07:57:21Z</time>
      </trkpt>
      <trkpt lat="45.42971" lon="5.65031">
        <ele>718</ele>
        <time>2016-05-26T07:59:21Z</time>
      </trkpt>
      <trkpt lat="45.42995" lon="5.65037">
        <ele>717</ele>
        <time>2016-05-26T08:01:21Z</time>
      </trkpt>
      <trkpt lat="45.43034" lon="5.65045">
        <ele>715</ele>
        <time>2016-05-26T08:03:21Z</time>
      </trkpt>
      <trkpt lat="45.43075" lon="5.65054">
        <ele>713</ele>
        <time>2016-05-26T08:05:21Z</time>
      </trkpt>
      <trkpt lat="45.43121" lon="5.65064">
        <ele>711</ele>
        <time>2016-05-26T08:07:21Z</time>
      </trkpt>
      <trkpt lat="45.43152" lon="5.65072">
        <ele>708</ele>
        <time>2016-05-26T08:09:21Z</time>
      </trkpt>
      <trkpt lat="45.43238" lon="5.65091">
        <ele>709</ele>
        <time>2016-05-26T08:11:21Z</time>
      </trkpt>
      <trkpt lat="45.43292" lon="5.65104">
        <ele>701</ele>
        <time>2016-05-26T08:13:21Z</time>
      </trkpt>
      <trkpt lat="45.43301" lon="5.65104">
        <ele>699</ele>
        <time>2016-05-26T08:15:21Z</time>
      </trkpt>
      <trkpt lat="45.43309" lon="5.65103">
        <ele>698</ele>
        <time>2016-05-26T08:17:21Z</time>
      </trkpt>
      <trkpt lat="45.43317" lon="5.65099">
        <ele>698</ele>
        <time>2016-05-26T08:19:21Z</time>
      </trkpt>
      <trkpt lat="45.43325" lon="5.65095">
        <ele>698</ele>
        <time>2016-05-26T08:21:21Z</time>
      </trkpt>
      <trkpt lat="45.43332" lon="5.65087">
        <ele>698</ele>
        <time>2016-05-26T08:23:21Z</time>
      </trkpt>
      <trkpt lat="45.43338" lon="5.65075">
        <ele>699</ele>
        <time>2016-05-26T08:25:21Z</time>
      </trkpt>
      <trkpt lat="45.43345" lon="5.65055">
        <ele>701</ele>
        <time>2016-05-26T08:27:21Z</time>
      </trkpt>
      <trkpt lat="45.43361" lon="5.6502">
        <ele>703</ele>
        <time>2016-05-26T08:29:21Z</time>
      </trkpt>
      <trkpt lat="45.43365" lon="5.65007">
        <ele>703</ele>
        <time>2016-05-26T08:31:21Z</time>
      </trkpt>
      <trkpt lat="45.43373" lon="5.64985">
        <ele>700</ele>
        <time>2016-05-26T08:33:21Z</time>
      </trkpt>
      <trkpt lat="45.43388" lon="5.64942">
        <ele>695</ele>
        <time>2016-05-26T08:35:21Z</time>
      </trkpt>
      <trkpt lat="45.43395" lon="5.64925">
        <ele>692</ele>
        <time>2016-05-26T08:37:21Z</time>
      </trkpt>
      <trkpt lat="45.43399" lon="5.64914">
        <ele>691</ele>
        <time>2016-05-26T08:39:21Z</time>
      </trkpt>
      <trkpt lat="45.43403" lon="5.64899">
        <ele>689</ele>
        <time>2016-05-26T08:41:21Z</time>
      </trkpt>
      <trkpt lat="45.43406" lon="5.6488">
        <ele>688</ele>
        <time>2016-05-26T08:43:21Z</time>
      </trkpt>
      <trkpt lat="45.43408" lon="5.64855">
        <ele>687</ele>
        <time>2016-05-26T08:45:21Z</time>
      </trkpt>
      <trkpt lat="45.43411" lon="5.648">
        <ele>687</ele>
        <time>2016-05-26T08:47:21Z</time>
      </trkpt>
      <trkpt lat="45.43413" lon="5.64737">
        <ele>686</ele>
        <time>2016-05-26T08:49:21Z</time>
      </trkpt>
      <trkpt lat="45.43415" lon="5.64698">
        <ele>685</ele>
        <time>2016-05-26T08:51:21Z</time>
      </trkpt>
      <trkpt lat="45.43416" lon="5.64656">
        <ele>683</ele>
        <time>2016-05-26T08:53:21Z</time>
      </trkpt>
      <trkpt lat="45.43416" lon="5.64645">
        <ele>682</ele>
        <time>2016-05-26T08:55:21Z</time>
      </trkpt>
      <trkpt lat="45.43416" lon="5.64633">
        <ele>681</ele>
        <time>2016-05-26T08:57:21Z</time>
      </trkpt>
      <trkpt lat="45.43416" lon="5.64618">
        <ele>680</ele>
        <time>2016-05-26T08:59:21Z</time>
      </trkpt>
      <trkpt lat="45.43416" lon="5.64576">
        <ele>678</ele>
        <time>2016-05-26T09:01:21Z</time>
      </trkpt>
      <trkpt lat="45.43416" lon="5.64568">
        <ele>678</ele>
        <time>2016-05-26T09:03:21Z</time>
      </trkpt>
      <trkpt lat="45.43416" lon="5.64568">
        <ele>678</ele>
        <time>2016-05-26T09:05:21Z</time>
      </trkpt>
      <trkpt lat="45.43415" lon="5.64568">
        <ele>679</ele>
        <time>2016-05-26T09:07:21Z</time>
      </trkpt>
      <trkpt lat="45.43414" lon="5.64568">
        <ele>679</ele>
        <time>2016-05-26T09:09:21Z</time>
      </trkpt>
      <trkpt lat="45.43413" lon="5.64567">
        <ele>679</ele>
        <time>2016-05-26T09:11:21Z</time>
      </trkpt>
      <trkpt lat="45.43413" lon="5.64566">
        <ele>679</ele>
        <time>2016-05-26T09:13:21Z</time>
      </trkpt>
      <trkpt lat="45.43412" lon="5.64565">
        <ele>680</ele>
        <time>2016-05-26T09:15:21Z</time>
      </trkpt>
      <trkpt lat="45.43407" lon="5.64546">
        <ele>681</ele>
        <time>2016-05-26T09:17:21Z</time>
      </trkpt>
      <trkpt lat="45.43404" lon="5.64535">
        <ele>682</ele>
        <time>2016-05-26T09:19:21Z</time>
      </trkpt>
      <trkpt lat="45.43399" lon="5.64515">
        <ele>683</ele>
        <time>2016-05-26T09:21:21Z</time>
      </trkpt>
      <trkpt lat="45.43393" lon="5.64499">
        <ele>684</ele>
        <time>2016-05-26T09:23:21Z</time>
      </trkpt>
      <trkpt lat="45.43391" lon="5.64495">
        <ele>684</ele>
        <time>2016-05-26T09:25:21Z</time>
      </trkpt>
      <trkpt lat="45.43389" lon="5.6449">
        <ele>684</ele>
        <time>2016-05-26T09:27:21Z</time>
      </trkpt>
      <trkpt lat="45.43382" lon="5.64479">
        <ele>685</ele>
        <time>2016-05-26T09:29:21Z</time>
      </trkpt>
      <trkpt lat="45.43373" lon="5.64466">
        <ele>686</ele>
        <time>2016-05-26T09:31:21Z</time>
      </trkpt>
      <trkpt lat="45.43368" lon="5.64454">
        <ele>686</ele>
        <time>2016-05-26T09:33:21Z</time>
      </trkpt>
      <trkpt lat="45.43361" lon="5.64436">
        <ele>686</ele>
        <time>2016-05-26T09:35:21Z</time>
      </trkpt>
      <trkpt lat="45.4335" lon="5.64404">
        <ele>686</ele>
        <time>2016-05-26T09:37:21Z</time>
      </trkpt>
      <trkpt lat="45.43333" lon="5.64358">
        <ele>684</ele>
        <time>2016-05-26T09:39:21Z</time>
      </trkpt>
      <trkpt lat="45.43321" lon="5.64325">
        <ele>686</ele>
        <time>2016-05-26T09:41:21Z</time>
      </trkpt>
      <trkpt lat="45.43303" lon="5.64275">
        <ele>690</ele>
        <time>2016-05-26T09:43:21Z</time>
      </trkpt>
      <trkpt lat="45.43291" lon="5.64241">
        <ele>691</ele>
        <time>2016-05-26T09:45:21Z</time>
      </trkpt>
      <trkpt lat="45.43282" lon="5.6422">
        <ele>692</ele>
        <time>2016-05-26T09:47:21Z</time>
      </trkpt>
      <trkpt lat="45.43267" lon="5.64189">
        <ele>693</ele>
        <time>2016-05-26T09:49:21Z</time>
      </trkpt>
      <trkpt lat="45.43242" lon="5.64139">
        <ele>695</ele>
        <time>2016-05-26T09:51:21Z</time>
      </trkpt>
      <trkpt lat="45.43217" lon="5.64091">
        <ele>698</ele>
        <time>2016-05-26T09:53:21Z</time>
      </trkpt>
      <trkpt lat="45.43197" lon="5.64052">
        <ele>699</ele>
        <time>2016-05-26T09:55:21Z</time>
      </trkpt>
      <trkpt lat="45.43191" lon="5.64043">
        <ele>699</ele>
        <time>2016-05-26T09:57:21Z</time>
      </trkpt>
      <trkpt lat="45.43184" lon="5.64037">
        <ele>699</ele>
        <time>2016-05-26T09:59:21Z</time>
      </trkpt>
      <trkpt lat="45.43176" lon="5.64033">
        <ele>700</ele>
        <time>2016-05-26T10:01:21Z</time>
      </trkpt>
      <trkpt lat="45.43166" lon="5.64032">
        <ele>700</ele>
        <time>2016-05-26T10:03:21Z</time>
      </trkpt>
      <trkpt lat="45.43158" lon="5.64034">
        <ele>701</ele>
        <time>2016-05-26T10:05:21Z</time>
      </trkpt>
      <trkpt lat="45.4315" lon="5.64037">
        <ele>702</ele>
        <time>2016-05-26T10:07:21Z</time>
      </trkpt>
      <trkpt lat="45.43143" lon="5.64045">
        <ele>703</ele>
        <time>2016-05-26T10:09:21Z</time>
      </trkpt>
      <trkpt lat="45.43135" lon="5.64056">
        <ele>704</ele>
        <time>2016-05-26T10:11:21Z</time>
      </trkpt>
      <trkpt lat="45.43116" lon="5.64088">
        <ele>706</ele>
        <time>2016-05-26T10:13:21Z</time>
      </trkpt>
      <trkpt lat="45.43094" lon="5.64128">
        <ele>710</ele>
        <time>2016-05-26T10:15:21Z</time>
      </trkpt>
      <trkpt lat="45.43078" lon="5.64154">
        <ele>713</ele>
        <time>2016-05-26T10:17:21Z</time>
      </trkpt>
      <trkpt lat="45.43072" lon="5.64163">
        <ele>715</ele>
        <time>2016-05-26T10:19:21Z</time>
      </trkpt>
      <trkpt lat="45.43065" lon="5.64167">
        <ele>715</ele>
        <time>2016-05-26T10:21:21Z</time>
      </trkpt>
      <trkpt lat="45.43058" lon="5.64168">
        <ele>716</ele>
        <time>2016-05-26T10:23:21Z</time>
      </trkpt>
      <trkpt lat="45.43051" lon="5.64167">
        <ele>716</ele>
        <time>2016-05-26T10:25:21Z</time>
      </trkpt>
      <trkpt lat="45.43045" lon="5.64163">
        <ele>717</ele>
        <time>2016-05-26T10:27:21Z</time>
      </trkpt>
      <trkpt lat="45.43041" lon="5.64152">
        <ele>716</ele>
        <time>2016-05-26T10:29:21Z</time>
      </trkpt>
      <trkpt lat="45.43038" lon="5.64141">
        <ele>716</ele>
        <time>2016-05-26T10:31:21Z</time>
      </trkpt>
      <trkpt lat="45.43035" lon="5.64114">
        <ele>716</ele>
        <time>2016-05-26T10:33:21Z</time>
      </trkpt>
      <trkpt lat="45.43033" lon="5.64067">
        <ele>715</ele>
        <time>2016-05-26T10:35:21Z</time>
      </trkpt>
      <trkpt lat="45.43029" lon="5.64046">
        <ele>715</ele>
        <time>2016-05-26T10:37:21Z</time>
      </trkpt>
      <trkpt lat="45.43025" lon="5.64028">
        <ele>716</ele>
        <time>2016-05-26T10:39:21Z</time>
      </trkpt>
      <trkpt lat="45.43017" lon="5.64">
        <ele>717</ele>
        <time>2016-05-26T10:41:21Z</time>
      </trkpt>
      <trkpt lat="45.42995" lon="5.6393">
        <ele>718</ele>
        <time>2016-05-26T10:43:21Z</time>
      </trkpt>
      <trkpt lat="45.42987" lon="5.63905">
        <ele>717</ele>
        <time>2016-05-26T10:45:21Z</time>
      </trkpt>
      <trkpt lat="45.42981" lon="5.63894">
        <ele>717</ele>
        <time>2016-05-26T10:47:21Z</time>
      </trkpt>
      <trkpt lat="45.42972" lon="5.63885">
        <ele>717</ele>
        <time>2016-05-26T10:49:21Z</time>
      </trkpt>
      <trkpt lat="45.42962" lon="5.63879">
        <ele>717</ele>
        <time>2016-05-26T10:51:21Z</time>
      </trkpt>
      <trkpt lat="45.42946" lon="5.63875">
        <ele>718</ele>
        <time>2016-05-26T10:53:21Z</time>
      </trkpt>
      <trkpt lat="45.42934" lon="5.63877">
        <ele>719</ele>
        <time>2016-05-26T10:55:21Z</time>
      </trkpt>
      <trkpt lat="45.42895" lon="5.63889">
        <ele>722</ele>
        <time>2016-05-26T10:57:21Z</time>
      </trkpt>
      <trkpt lat="45.42841" lon="5.63906">
        <ele>723</ele>
        <time>2016-05-26T10:59:21Z</time>
      </trkpt>
      <trkpt lat="45.42811" lon="5.63916">
        <ele>724</ele>
        <time>2016-05-26T11:01:21Z</time>
      </trkpt>
      <trkpt lat="45.42802" lon="5.63916">
        <ele>724</ele>
        <time>2016-05-26T11:03:21Z</time>
      </trkpt>
      <trkpt lat="45.42796" lon="5.63915">
        <ele>724</ele>
        <time>2016-05-26T11:05:21Z</time>
      </trkpt>
      <trkpt lat="45.42788" lon="5.63913">
        <ele>724</ele>
        <time>2016-05-26T11:07:21Z</time>
      </trkpt>
      <trkpt lat="45.4278" lon="5.63909">
        <ele>725</ele>
        <time>2016-05-26T11:09:21Z</time>
      </trkpt>
      <trkpt lat="45.42771" lon="5.63901">
        <ele>724</ele>
        <time>2016-05-26T11:11:21Z</time>
      </trkpt>
      <trkpt lat="45.42749" lon="5.63874">
        <ele>723</ele>
        <time>2016-05-26T11:13:21Z</time>
      </trkpt>
      <trkpt lat="45.42744" lon="5.63868">
        <ele>723</ele>
        <time>2016-05-26T11:15:21Z</time>
      </trkpt>
      <trkpt lat="45.42708" lon="5.63826">
        <ele>722</ele>
        <time>2016-05-26T11:17:21Z</time>
      </trkpt>
      <trkpt lat="45.42697" lon="5.63816">
        <ele>722</ele>
        <time>2016-05-26T11:19:21Z</time>
      </trkpt>
      <trkpt lat="45.42689" lon="5.63809">
        <ele>722</ele>
        <time>2016-05-26T11:21:21Z</time>
      </trkpt>
      <trkpt lat="45.42682" lon="5.63807">
        <ele>722</ele>
        <time>2016-05-26T11:23:21Z</time>
      </trkpt>
      <trkpt lat="45.42675" lon="5.63807">
        <ele>722</ele>
        <time>2016-05-26T11:25:21Z</time>
      </trkpt>
      <trkpt lat="45.42668" lon="5.63809">
        <ele>722</ele>
        <time>2016-05-26T11:27:21Z</time>
      </trkpt>
      <trkpt lat="45.42656" lon="5.63818">
        <ele>724</ele>
        <time>2016-05-26T11:29:21Z</time>
      </trkpt>
      <trkpt lat="45.42644" lon="5.63825">
        <ele>726</ele>
        <time>2016-05-26T11:31:21Z</time>
      </trkpt>
      <trkpt lat="45.42635" lon="5.63827">
        <ele>728</ele>
        <time>2016-05-26T11:33:21Z</time>
      </trkpt>
      <trkpt lat="45.42632" lon="5.63826">
        <ele>728</ele>
        <time>2016-05-26T11:35:21Z</time>
      </trkpt>
      <trkpt lat="45.42627" lon="5.63825">
        <ele>728</ele>
        <time>2016-05-26T11:37:21Z</time>
      </trkpt>
      <trkpt lat="45.42619" lon="5.63817">
        <ele>728</ele>
        <time>2016-05-26T11:39:21Z</time>
      </trkpt>
      <trkpt lat="45.42612" lon="5.63804">
        <ele>728</ele>
        <time>2016-05-26T11:41:21Z</time>
      </trkpt>
      <trkpt lat="45.42604" lon="5.63787">
        <ele>727</ele>
        <time>2016-05-26T11:43:21Z</time>
      </trkpt>
      <trkpt lat="45.42596" lon="5.63768">
        <ele>725</ele>
        <time>2016-05-26T11:45:21Z</time>
      </trkpt>
      <trkpt lat="45.42592" lon="5.63753">
        <ele>724</ele>
        <time>2016-05-26T11:47:21Z</time>
      </trkpt>
      <trkpt lat="45.42582" lon="5.63708">
        <ele>723</ele>
        <time>2016-05-26T11:49:21Z</time>
      </trkpt>
      <trkpt lat="45.4257" lon="5.63645">
        <ele>725</ele>
        <time>2016-05-26T11:51:21Z</time>
      </trkpt>
      <trkpt lat="45.42567" lon="5.6363">
        <ele>727</ele>
        <time>2016-05-26T11:53:21Z</time>
      </trkpt>
      <trkpt lat="45.42566" lon="5.63616">
        <ele>727</ele>
        <time>2016-05-26T11:55:21Z</time>
      </trkpt>
      <trkpt lat="45.42567" lon="5.63607">
        <ele>727</ele>
        <time>2016-05-26T11:57:21Z</time>
      </trkpt>
      <trkpt lat="45.42568" lon="5.636">
        <ele>727</ele>
        <time>2016-05-26T11:59:21Z</time>
      </trkpt>
      <trkpt lat="45.42572" lon="5.63591">
        <ele>726</ele>
        <time>2016-05-26T12:01:21Z</time>
      </trkpt>
      <trkpt lat="45.42577" lon="5.63582">
        <ele>725</ele>
        <time>2016-05-26T12:03:21Z</time>
      </trkpt>
      <trkpt lat="45.42587" lon="5.63572">
        <ele>722</ele>
        <time>2016-05-26T12:05:21Z</time>
      </trkpt>
      <trkpt lat="45.42621" lon="5.63537">
        <ele>718</ele>
        <time>2016-05-26T12:07:21Z</time>
      </trkpt>
      <trkpt lat="45.42663" lon="5.63495">
        <ele>713</ele>
        <time>2016-05-26T12:09:21Z</time>
      </trkpt>
      <trkpt lat="45.4269" lon="5.63467">
        <ele>712</ele>
        <time>2016-05-26T12:11:21Z</time>
      </trkpt>
      <trkpt lat="45.42703" lon="5.6345">
        <ele>711</ele>
        <time>2016-05-26T12:13:21Z</time>
      </trkpt>
      <trkpt lat="45.42722" lon="5.63414">
        <ele>711</ele>
        <time>2016-05-26T12:15:21Z</time>
      </trkpt>
      <trkpt lat="45.42738" lon="5.63383">
        <ele>711</ele>
        <time>2016-05-26T12:17:21Z</time>
      </trkpt>
      <trkpt lat="45.42754" lon="5.6335">
        <ele>711</ele>
        <time>2016-05-26T12:19:21Z</time>
      </trkpt>
      <trkpt lat="45.42773" lon="5.63312">
        <ele>712</ele>
        <time>2016-05-26T12:21:21Z</time>
      </trkpt>
      <trkpt lat="45.42782" lon="5.63298">
        <ele>712</ele>
        <time>2016-05-26T12:23:21Z</time>
      </trkpt>
      <trkpt lat="45.42789" lon="5.6329">
        <ele>711</ele>
        <time>2016-05-26T12:25:21Z</time>
      </trkpt>
      <trkpt lat="45.428" lon="5.63281">
        <ele>710</ele>
        <time>2016-05-26T12:27:21Z</time>
      </trkpt>
      <trkpt lat="45.42806" lon="5.63277">
        <ele>709</ele>
        <time>2016-05-26T12:29:21Z</time>
      </trkpt>
      <trkpt lat="45.42836" lon="5.63262">
        <ele>703</ele>
        <time>2016-05-26T12:31:21Z</time>
      </trkpt>
      <trkpt lat="45.42871" lon="5.63244">
        <ele>702</ele>
        <time>2016-05-26T12:33:21Z</time>
      </trkpt>
      <trkpt lat="45.42887" lon="5.63234">
        <ele>700</ele>
        <time>2016-05-26T12:35:21Z</time>
      </trkpt>
      <trkpt lat="45.42896" lon="5.63219">
        <ele>700</ele>
        <time>2016-05-26T12:37:21Z</time>
      </trkpt>
      <trkpt lat="45.42902" lon="5.63201">
        <ele>700</ele>
        <time>2016-05-26T12:39:21Z</time>
      </trkpt>
      <trkpt lat="45.42904" lon="5.63186">
        <ele>700</ele>
        <time>2016-05-26T12:41:21Z</time>
      </trkpt>
      <trkpt lat="45.42902" lon="5.63169">
        <ele>701</ele>
        <time>2016-05-26T12:43:21Z</time>
      </trkpt>
      <trkpt lat="45.42893" lon="5.63139">
        <ele>701</ele>
        <time>2016-05-26T12:45:21Z</time>
      </trkpt>
      <trkpt lat="45.42881" lon="5.63102">
        <ele>701</ele>
        <time>2016-05-26T12:47:21Z</time>
      </trkpt>
      <trkpt lat="45.42874" lon="5.63077">
        <ele>701</ele>
        <time>2016-05-26T12:49:21Z</time>
      </trkpt>
      <trkpt lat="45.42872" lon="5.63058">
        <ele>701</ele>
        <time>2016-05-26T12:51:21Z</time>
      </trkpt>
      <trkpt lat="45.42875" lon="5.63022">
        <ele>700</ele>
        <time>2016-05-26T12:53:21Z</time>
      </trkpt>
      <trkpt lat="45.42878" lon="5.62993">
        <ele>699</ele>
        <time>2016-05-26T12:55:21Z</time>
      </trkpt>
      <trkpt lat="45.42882" lon="5.62962">
        <ele>699</ele>
        <time>2016-05-26T12:57:21Z</time>
      </trkpt>
      <trkpt lat="45.42882" lon="5.62956">
        <ele>699</ele>
        <time>2016-05-26T12:59:21Z</time>
      </trkpt>
      <trkpt lat="45.42886" lon="5.62927">
        <ele>699</ele>
        <time>2016-05-26T13:01:21Z</time>
      </trkpt>
      <trkpt lat="45.42887" lon="5.62915">
        <ele>699</ele>
        <time>2016-05-26T13:03:21Z</time>
      </trkpt>
      <trkpt lat="45.42894" lon="5.62886">
        <ele>698</ele>
        <time>2016-05-26T13:05:21Z</time>
      </trkpt>
      <trkpt lat="45.42903" lon="5.62845">
        <ele>696</ele>
        <time>2016-05-26T13:07:21Z</time>
      </trkpt>
      <trkpt lat="45.42908" lon="5.62822">
        <ele>695</ele>
        <time>2016-05-26T13:09:21Z</time>
      </trkpt>
      <trkpt lat="45.42913" lon="5.628">
        <ele>695</ele>
        <time>2016-05-26T13:11:21Z</time>
      </trkpt>
      <trkpt lat="45.42922" lon="5.62773">
        <ele>695</ele>
        <time>2016-05-26T13:13:21Z</time>
      </trkpt>
      <trkpt lat="45.42931" lon="5.62757">
        <ele>693</ele>
        <time>2016-05-26T13:15:21Z</time>
      </trkpt>
      <trkpt lat="45.42946" lon="5.62743">
        <ele>691</ele>
        <time>2016-05-26T13:17:21Z</time>
      </trkpt>
      <trkpt lat="45.42972" lon="5.6272">
        <ele>685</ele>
        <time>2016-05-26T13:19:21Z</time>
      </trkpt>
      <trkpt lat="45.42982" lon="5.6271">
        <ele>683</ele>
        <time>2016-05-26T13:21:21Z</time>
      </trkpt>
      <trkpt lat="45.42984" lon="5.62706">
        <ele>683</ele>
        <time>2016-05-26T13:23:21Z</time>
      </trkpt>
      <trkpt lat="45.42987" lon="5.62697">
        <ele>682</ele>
        <time>2016-05-26T13:25:21Z</time>
      </trkpt>
      <trkpt lat="45.42989" lon="5.62681">
        <ele>682</ele>
        <time>2016-05-26T13:27:21Z</time>
      </trkpt>
      <trkpt lat="45.42988" lon="5.62646">
        <ele>682</ele>
        <time>2016-05-26T13:29:21Z</time>
      </trkpt>
      <trkpt lat="45.42982" lon="5.62585">
        <ele>682</ele>
        <time>2016-05-26T13:31:21Z</time>
      </trkpt>
      <trkpt lat="45.42976" lon="5.62535">
        <ele>680</ele>
        <time>2016-05-26T13:33:21Z</time>
      </trkpt>
      <trkpt lat="45.42971" lon="5.62503">
        <ele>679</ele>
        <time>2016-05-26T13:35:21Z</time>
      </trkpt>
      <trkpt lat="45.4297" lon="5.62495">
        <ele>678</ele>
        <time>2016-05-26T13:37:21Z</time>
      </trkpt>
      <trkpt lat="45.42968" lon="5.62487">
        <ele>678</ele>
        <time>2016-05-26T13:39:21Z</time>
      </trkpt>
      <trkpt lat="45.42964" lon="5.62474">
        <ele>677</ele>
        <time>2016-05-26T13:41:21Z</time>
      </trkpt>
      <trkpt lat="45.42956" lon="5.62457">
        <ele>677</ele>
        <time>2016-05-26T13:43:21Z</time>
      </trkpt>
      <trkpt lat="45.4295" lon="5.62444">
        <ele>676</ele>
        <time>2016-05-26T13:45:21Z</time>
      </trkpt>
      <trkpt lat="45.42945" lon="5.62434">
        <ele>676</ele>
        <time>2016-05-26T13:47:21Z</time>
      </trkpt>
      <trkpt lat="45.42929" lon="5.62398">
        <ele>676</ele>
        <time>2016-05-26T13:49:21Z</time>
      </trkpt>
      <trkpt lat="45.42913" lon="5.62342">
        <ele>674</ele>
        <time>2016-05-26T13:51:21Z</time>
      </trkpt>
      <trkpt lat="45.42897" lon="5.62296">
        <ele>673</ele>
        <time>2016-05-26T13:53:21Z</time>
      </trkpt>
      <trkpt lat="45.42884" lon="5.62267">
        <ele>672</ele>
        <time>2016-05-26T13:55:21Z</time>
      </trkpt>
      <trkpt lat="45.42871" lon="5.62248">
        <ele>672</ele>
        <time>2016-05-26T13:57:21Z</time>
      </trkpt>
      <trkpt lat="45.42854" lon="5.62226">
        <ele>672</ele>
        <time>2016-05-26T13:59:21Z</time>
      </trkpt>
      <trkpt lat="45.42819" lon="5.62183">
        <ele>675</ele>
        <time>2016-05-26T14:01:21Z</time>
      </trkpt>
      <trkpt lat="45.42776" lon="5.62133">
        <ele>675</ele>
        <time>2016-05-26T14:03:21Z</time>
      </trkpt>
      <trkpt lat="45.42754" lon="5.62105">
        <ele>672</ele>
        <time>2016-05-26T14:05:21Z</time>
      </trkpt>
      <trkpt lat="45.42739" lon="5.62089">
        <ele>672</ele>
        <time>2016-05-26T14:07:21Z</time>
      </trkpt>
      <trkpt lat="45.42727" lon="5.62078">
        <ele>673</ele>
        <time>2016-05-26T14:09:21Z</time>
      </trkpt>
      <trkpt lat="45.42692" lon="5.62053">
        <ele>677</ele>
        <time>2016-05-26T14:11:21Z</time>
      </trkpt>
      <trkpt lat="45.42657" lon="5.62028">
        <ele>677</ele>
        <time>2016-05-26T14:13:21Z</time>
      </trkpt>
      <trkpt lat="45.42642" lon="5.62017">
        <ele>675</ele>
        <time>2016-05-26T14:15:21Z</time>
      </trkpt>
      <trkpt lat="45.42636" lon="5.62016">
        <ele>675</ele>
        <time>2016-05-26T14:17:21Z</time>
      </trkpt>
      <trkpt lat="45.42627" lon="5.62015">
        <ele>675</ele>
        <time>2016-05-26T14:19:21Z</time>
      </trkpt>
      <trkpt lat="45.42618" lon="5.62016">
        <ele>676</ele>
        <time>2016-05-26T14:21:21Z</time>
      </trkpt>
      <trkpt lat="45.42606" lon="5.62017">
        <ele>677</ele>
        <time>2016-05-26T14:23:21Z</time>
      </trkpt>
      <trkpt lat="45.42594" lon="5.62018">
        <ele>677</ele>
        <time>2016-05-26T14:25:21Z</time>
      </trkpt>
      <trkpt lat="45.42586" lon="5.62019">
        <ele>678</ele>
        <time>2016-05-26T14:27:21Z</time>
      </trkpt>
      <trkpt lat="45.42575" lon="5.62018">
        <ele>679</ele>
        <time>2016-05-26T14:29:21Z</time>
      </trkpt>
      <trkpt lat="45.42562" lon="5.62013">
        <ele>679</ele>
        <time>2016-05-26T14:31:21Z</time>
      </trkpt>
      <trkpt lat="45.42523" lon="5.61995">
        <ele>678</ele>
        <time>2016-05-26T14:33:21Z</time>
      </trkpt>
      <trkpt lat="45.42488" lon="5.61978">
        <ele>676</ele>
        <time>2016-05-26T14:35:21Z</time>
      </trkpt>
      <trkpt lat="45.42479" lon="5.61974">
        <ele>676</ele>
        <time>2016-05-26T14:37:21Z</time>
      </trkpt>
      <trkpt lat="45.42426" lon="5.6195">
        <ele>674</ele>
        <time>2016-05-26T14:39:21Z</time>
      </trkpt>
      <trkpt lat="45.42395" lon="5.61937">
        <ele>670</ele>
        <time>2016-05-26T14:41:21Z</time>
      </trkpt>
      <trkpt lat="45.42371" lon="5.61932">
        <ele>668</ele>
        <time>2016-05-26T14:43:21Z</time>
      </trkpt>
      <trkpt lat="45.42315" lon="5.61925">
        <ele>664</ele>
        <time>2016-05-26T14:45:21Z</time>
      </trkpt>
      <trkpt lat="45.42291" lon="5.61925">
        <ele>664</ele>
        <time>2016-05-26T14:47:21Z</time>
      </trkpt>
      <trkpt lat="45.42281" lon="5.61925">
        <ele>665</ele>
        <time>2016-05-26T14:49:21Z</time>
      </trkpt>
      <trkpt lat="45.42264" lon="5.61926">
        <ele>665</ele>
        <time>2016-05-26T14:51:21Z</time>
      </trkpt>
      <trkpt lat="45.42242" lon="5.61926">
        <ele>664</ele>
        <time>2016-05-26T14:53:21Z</time>
      </trkpt>
      <trkpt lat="45.42206" lon="5.61922">
        <ele>660</ele>
        <time>2016-05-26T14:55:21Z</time>
      </trkpt>
      <trkpt lat="45.42162" lon="5.61915">
        <ele>655</ele>
        <time>2016-05-26T14:57:21Z</time>
      </trkpt>
      <trkpt lat="45.42137" lon="5.61916">
        <ele>653</ele>
        <time>2016-05-26T14:59:21Z</time>
      </trkpt>
      <trkpt lat="45.42119" lon="5.61919">
        <ele>653</ele>
        <time>2016-05-26T15:01:21Z</time>
      </trkpt>
      <trkpt lat="45.42117" lon="5.6192">
        <ele>653</ele>
        <time>2016-05-26T15:03:21Z</time>
      </trkpt>
      <trkpt lat="45.42108" lon="5.6193">
        <ele>654</ele>
        <time>2016-05-26T15:05:21Z</time>
      </trkpt>
      <trkpt lat="45.42102" lon="5.61938">
        <ele>655</ele>
        <time>2016-05-26T15:07:21Z</time>
      </trkpt>
      <trkpt lat="45.42099" lon="5.61944">
        <ele>656</ele>
        <time>2016-05-26T15:09:21Z</time>
      </trkpt>
      <trkpt lat="45.42099" lon="5.61949">
        <ele>656</ele>
        <time>2016-05-26T15:11:21Z</time>
      </trkpt>
      <trkpt lat="45.42099" lon="5.61957">
        <ele>657</ele>
        <time>2016-05-26T15:13:21Z</time>
      </trkpt>
      <trkpt lat="45.421" lon="5.61965">
        <ele>659</ele>
        <time>2016-05-26T15:15:21Z</time>
      </trkpt>
      <trkpt lat="45.42104" lon="5.61979">
        <ele>661</ele>
        <time>2016-05-26T15:17:21Z</time>
      </trkpt>
      <trkpt lat="45.42107" lon="5.6199">
        <ele>663</ele>
        <time>2016-05-26T15:19:21Z</time>
      </trkpt>
      <trkpt lat="45.42107" lon="5.62004">
        <ele>665</ele>
        <time>2016-05-26T15:21:21Z</time>
      </trkpt>
      <trkpt lat="45.42104" lon="5.62014">
        <ele>667</ele>
        <time>2016-05-26T15:23:21Z</time>
      </trkpt>
      <trkpt lat="45.421" lon="5.62023">
        <ele>669</ele>
        <time>2016-05-26T15:25:21Z</time>
      </trkpt>
      <trkpt lat="45.42096" lon="5.62025">
        <ele>669</ele>
        <time>2016-05-26T15:27:21Z</time>
      </trkpt>
      <trkpt lat="45.42091" lon="5.62027">
        <ele>670</ele>
        <time>2016-05-26T15:29:21Z</time>
      </trkpt>
      <trkpt lat="45.42084" lon="5.62027">
        <ele>669</ele>
        <time>2016-05-26T15:31:21Z</time>
      </trkpt>
      <trkpt lat="45.42067" lon="5.6202">
        <ele>666</ele>
        <time>2016-05-26T15:33:21Z</time>
      </trkpt>
      <trkpt lat="45.4205" lon="5.62011">
        <ele>662</ele>
        <time>2016-05-26T15:35:21Z</time>
      </trkpt>
      <trkpt lat="45.42039" lon="5.62005">
        <ele>659</ele>
        <time>2016-05-26T15:37:21Z</time>
      </trkpt>
      <trkpt lat="45.42029" lon="5.62002">
        <ele>657</ele>
        <time>2016-05-26T15:39:21Z</time>
      </trkpt>
      <trkpt lat="45.42007" lon="5.62005">
        <ele>656</ele>
        <time>2016-05-26T15:41:21Z</time>
      </trkpt>
      <trkpt lat="45.41989" lon="5.62008">
        <ele>656</ele>
        <time>2016-05-26T15:43:21Z</time>
      </trkpt>
      <trkpt lat="45.41967" lon="5.62014">
        <ele>657</ele>
        <time>2016-05-26T15:45:21Z</time>
      </trkpt>
      <trkpt lat="45.41944" lon="5.62022">
        <ele>658</ele>
        <time>2016-05-26T15:47:21Z</time>
      </trkpt>
      <trkpt lat="45.41942" lon="5.62023">
        <ele>659</ele>
        <time>2016-05-26T15:49:21Z</time>
      </trkpt>
      <trkpt lat="45.41905" lon="5.62044">
        <ele>663</ele>
        <time>2016-05-26T15:51:21Z</time>
      </trkpt>
      <trkpt lat="45.41866" lon="5.62067">
        <ele>662</ele>
        <time>2016-05-26T15:53:21Z</time>
      </trkpt>
      <trkpt lat="45.41842" lon="5.62081">
        <ele>657</ele>
        <time>2016-05-26T15:55:21Z</time>
      </trkpt>
      <trkpt lat="45.41814" lon="5.62098">
        <ele>662</ele>
        <time>2016-05-26T15:57:21Z</time>
      </trkpt>
      <trkpt lat="45.41792" lon="5.62112">
        <ele>665</ele>
        <time>2016-05-26T15:59:21Z</time>
      </trkpt>
      <trkpt lat="45.41776" lon="5.62124">
        <ele>666</ele>
        <time>2016-05-26T16:01:21Z</time>
      </trkpt>
      <trkpt lat="45.41762" lon="5.62136">
        <ele>664</ele>
        <time>2016-05-26T16:03:21Z</time>
      </trkpt>
      <trkpt lat="45.41747" lon="5.62154">
        <ele>661</ele>
        <time>2016-05-26T16:05:21Z</time>
      </trkpt>
      <trkpt lat="45.41727" lon="5.62177">
        <ele>663</ele>
        <time>2016-05-26T16:07:21Z</time>
      </trkpt>
      <trkpt lat="45.41725" lon="5.62179">
        <ele>664</ele>
        <time>2016-05-26T16:09:21Z</time>
      </trkpt>
      <trkpt lat="45.41694" lon="5.62215">
        <ele>666</ele>
        <time>2016-05-26T16:11:21Z</time>
      </trkpt>
      <trkpt lat="45.4166" lon="5.6226">
        <ele>662</ele>
        <time>2016-05-26T16:13:21Z</time>
      </trkpt>
      <trkpt lat="45.41637" lon="5.62288">
        <ele>665</ele>
        <time>2016-05-26T16:15:21Z</time>
      </trkpt>
      <trkpt lat="45.41613" lon="5.6231">
        <ele>663</ele>
        <time>2016-05-26T16:17:21Z</time>
      </trkpt>
      <trkpt lat="45.41596" lon="5.62322">
        <ele>660</ele>
        <time>2016-05-26T16:19:21Z</time>
      </trkpt>
      <trkpt lat="45.41578" lon="5.62329">
        <ele>655</ele>
        <time>2016-05-26T16:21:21Z</time>
      </trkpt>
      <trkpt lat="45.4156" lon="5.62335">
        <ele>654</ele>
        <time>2016-05-26T16:23:21Z</time>
      </trkpt>
      <trkpt lat="45.41532" lon="5.62348">
        <ele>653</ele>
        <time>2016-05-26T16:25:21Z</time>
      </trkpt>
      <trkpt lat="45.41495" lon="5.62368">
        <ele>652</ele>
        <time>2016-05-26T16:27:21Z</time>
      </trkpt>
      <trkpt lat="45.41479" lon="5.6238">
        <ele>652</ele>
        <time>2016-05-26T16:29:21Z</time>
      </trkpt>
      <trkpt lat="45.41465" lon="5.62396">
        <ele>652</ele>
        <time>2016-05-26T16:31:21Z</time>
      </trkpt>
      <trkpt lat="45.41456" lon="5.62406">
        <ele>651</ele>
        <time>2016-05-26T16:33:21Z</time>
      </trkpt>
      <trkpt lat="45.41454" lon="5.62408">
        <ele>651</ele>
        <time>2016-05-26T16:35:21Z</time>
      </trkpt>
      <trkpt lat="45.41451" lon="5.62412">
        <ele>650</ele>
        <time>2016-05-26T16:37:21Z</time>
      </trkpt>
      <trkpt lat="45.41444" lon="5.62416">
        <ele>649</ele>
        <time>2016-05-26T16:39:21Z</time>
      </trkpt>
      <trkpt lat="45.41423" lon="5.62428">
        <ele>646</ele>
        <time>2016-05-26T16:41:21Z</time>
      </trkpt>
      <trkpt lat="45.4139" lon="5.62448">
        <ele>647</ele>
        <time>2016-05-26T16:43:21Z</time>
      </trkpt>
      <trkpt lat="45.41361" lon="5.62465">
        <ele>647</ele>
        <time>2016-05-26T16:45:21Z</time>
      </trkpt>
      <trkpt lat="45.41337" lon="5.62477">
        <ele>645</ele>
        <time>2016-05-26T16:47:21Z</time>
      </trkpt>
      <trkpt lat="45.41311" lon="5.62486">
        <ele>643</ele>
        <time>2016-05-26T16:49:21Z</time>
      </trkpt>
      <trkpt lat="45.41275" lon="5.62491">
        <ele>641</ele>
        <time>2016-05-26T16:51:21Z</time>
      </trkpt>
      <trkpt lat="45.41243" lon="5.62496">
        <ele>638</ele>
        <time>2016-05-26T16:53:21Z</time>
      </trkpt>
      <trkpt lat="45.41213" lon="5.625">
        <ele>631</ele>
        <time>2016-05-26T16:55:21Z</time>
      </trkpt>
      <trkpt lat="45.41186" lon="5.62498">
        <ele>628</ele>
        <time>2016-05-26T16:57:21Z</time>
      </trkpt>
      <trkpt lat="45.41175" lon="5.62495">
        <ele>627</ele>
        <time>2016-05-26T16:59:21Z</time>
      </trkpt>
      <trkpt lat="45.41168" lon="5.62493">
        <ele>627</ele>
        <time>2016-05-26T17:01:21Z</time>
      </trkpt>
      <trkpt lat="45.41146" lon="5.62484">
        <ele>627</ele>
        <time>2016-05-26T17:03:21Z</time>
      </trkpt>
      <trkpt lat="45.41122" lon="5.62474">
        <ele>625</ele>
        <time>2016-05-26T17:05:21Z</time>
      </trkpt>
      <trkpt lat="45.41102" lon="5.62463">
        <ele>624</ele>
        <time>2016-05-26T17:07:21Z</time>
      </trkpt>
      <trkpt lat="45.41086" lon="5.62451">
        <ele>622</ele>
        <time>2016-05-26T17:09:21Z</time>
      </trkpt>
      <trkpt lat="45.41073" lon="5.62439">
        <ele>621</ele>
        <time>2016-05-26T17:11:21Z</time>
      </trkpt>
      <trkpt lat="45.41057" lon="5.62419">
        <ele>620</ele>
        <time>2016-05-26T17:13:21Z</time>
      </trkpt>
      <trkpt lat="45.41041" lon="5.62397">
        <ele>621</ele>
        <time>2016-05-26T17:15:21Z</time>
      </trkpt>
      <trkpt lat="45.41027" lon="5.62375">
        <ele>621</ele>
        <time>2016-05-26T17:17:21Z</time>
      </trkpt>
      <trkpt lat="45.41016" lon="5.62355">
        <ele>620</ele>
        <time>2016-05-26T17:19:21Z</time>
      </trkpt>
      <trkpt lat="45.41012" lon="5.62341">
        <ele>620</ele>
        <time>2016-05-26T17:21:21Z</time>
      </trkpt>
      <trkpt lat="45.41008" lon="5.62319">
        <ele>621</ele>
        <time>2016-05-26T17:23:21Z</time>
      </trkpt>
      <trkpt lat="45.41007" lon="5.62314">
        <ele>622</ele>
        <time>2016-05-26T17:25:21Z</time>
      </trkpt>
      <trkpt lat="45.41003" lon="5.6229">
        <ele>623</ele>
        <time>2016-05-26T17:27:21Z</time>
      </trkpt>
      <trkpt lat="45.40997" lon="5.62266">
        <ele>624</ele>
        <time>2016-05-26T17:29:21Z</time>
      </trkpt>
      <trkpt lat="45.40987" lon="5.62219">
        <ele>628</ele>
        <time>2016-05-26T17:31:21Z</time>
      </trkpt>
      <trkpt lat="45.40976" lon="5.6217">
        <ele>631</ele>
        <time>2016-05-26T17:33:21Z</time>
      </trkpt>
      <trkpt lat="45.40968" lon="5.62136">
        <ele>626</ele>
        <time>2016-05-26T17:35:21Z</time>
      </trkpt>
      <trkpt lat="45.40964" lon="5.62116">
        <ele>623</ele>
        <time>2016-05-26T17:37:21Z</time>
      </trkpt>
      <trkpt lat="45.40964" lon="5.62098">
        <ele>622</ele>
        <time>2016-05-26T17:39:21Z</time>
      </trkpt>
      <trkpt lat="45.40966" lon="5.62066">
        <ele>621</ele>
        <time>2016-05-26T17:41:21Z</time>
      </trkpt>
      <trkpt lat="45.40969" lon="5.62029">
        <ele>620</ele>
        <time>2016-05-26T17:43:21Z</time>
      </trkpt>
      <trkpt lat="45.40968" lon="5.62009">
        <ele>618</ele>
        <time>2016-05-26T17:45:21Z</time>
      </trkpt>
      <trkpt lat="45.40967" lon="5.61988">
        <ele>617</ele>
        <time>2016-05-26T17:47:21Z</time>
      </trkpt>
      <trkpt lat="45.40965" lon="5.6196">
        <ele>615</ele>
        <time>2016-05-26T17:49:21Z</time>
      </trkpt>
      <trkpt lat="45.40961" lon="5.61943">
        <ele>613</ele>
        <time>2016-05-26T17:51:21Z</time>
      </trkpt>
      <trkpt lat="45.40957" lon="5.61927">
        <ele>611</ele>
        <time>2016-05-26T17:53:21Z</time>
      </trkpt>
      <trkpt lat="45.40953" lon="5.61911">
        <ele>609</ele>
        <time>2016-05-26T17:55:21Z</time>
      </trkpt>
      <trkpt lat="45.40952" lon="5.61893">
        <ele>609</ele>
        <time>2016-05-26T17:57:21Z</time>
      </trkpt>
      <trkpt lat="45.40957" lon="5.61838">
        <ele>609</ele>
        <time>2016-05-26T17:59:21Z</time>
      </trkpt>
      <trkpt lat="45.40962" lon="5.61771">
        <ele>607</ele>
        <time>2016-05-26T18:01:21Z</time>
      </trkpt>
      <trkpt lat="45.40964" lon="5.61735">
        <ele>607</ele>
        <time>2016-05-26T18:03:21Z</time>
      </trkpt>
      <trkpt lat="45.40965" lon="5.61676">
        <ele>608</ele>
        <time>2016-05-26T18:05:21Z</time>
      </trkpt>
      <trkpt lat="45.40968" lon="5.61628">
        <ele>607</ele>
        <time>2016-05-26T18:07:21Z</time>
      </trkpt>
      <trkpt lat="45.40968" lon="5.61602">
        <ele>605</ele>
        <time>2016-05-26T18:09:21Z</time>
      </trkpt>
      <trkpt lat="45.40968" lon="5.61588">
        <ele>604</ele>
        <time>2016-05-26T18:11:21Z</time>
      </trkpt>
      <trkpt lat="45.40967" lon="5.61576">
        <ele>603</ele>
        <time>2016-05-26T18:13:21Z</time>
      </trkpt>
      <trkpt lat="45.40965" lon="5.61561">
        <ele>602</ele>
        <time>2016-05-26T18:15:21Z</time>
      </trkpt>
      <trkpt lat="45.40963" lon="5.61557">
        <ele>602</ele>
        <time>2016-05-26T18:17:21Z</time>
      </trkpt>
      <trkpt lat="45.40956" lon="5.61534">
        <ele>600</ele>
        <time>2016-05-26T18:19:21Z</time>
      </trkpt>
      <trkpt lat="45.40949" lon="5.61511">
        <ele>598</ele>
        <time>2016-05-26T18:21:21Z</time>
      </trkpt>
      <trkpt lat="45.40944" lon="5.61495">
        <ele>597</ele>
        <time>2016-05-26T18:23:21Z</time>
      </trkpt>
      <trkpt lat="45.40943" lon="5.61486">
        <ele>597</ele>
        <time>2016-05-26T18:25:21Z</time>
      </trkpt>
      <trkpt lat="45.40947" lon="5.61465">
        <ele>597</ele>
        <time>2016-05-26T18:27:21Z</time>
      </trkpt>
      <trkpt lat="45.40948" lon="5.61458">
        <ele>598</ele>
        <time>2016-05-26T18:29:21Z</time>
      </trkpt>
      <trkpt lat="45.40955" lon="5.61429">
        <ele>599</ele>
        <time>2016-05-26T18:31:21Z</time>
      </trkpt>
      <trkpt lat="45.40962" lon="5.61401">
        <ele>601</ele>
        <time>2016-05-26T18:33:21Z</time>
      </trkpt>
      <trkpt lat="45.40967" lon="5.61379">
        <ele>602</ele>
        <time>2016-05-26T18:35:21Z</time>
      </trkpt>
      <trkpt lat="45.4097" lon="5.61362">
        <ele>603</ele>
        <time>2016-05-26T18:37:21Z</time>
      </trkpt>
      <trkpt lat="45.4097" lon="5.61349">
        <ele>604</ele>
        <time>2016-05-26T18:39:21Z</time>
      </trkpt>
      <trkpt lat="45.4097" lon="5.61332">
        <ele>604</ele>
        <time>2016-05-26T18:41:21Z</time>
      </trkpt>
      <trkpt lat="45.40966" lon="5.61294">
        <ele>605</ele>
        <time>2016-05-26T18:43:21Z</time>
      </trkpt>
      <trkpt lat="45.40964" lon="5.61266">
        <ele>605</ele>
        <time>2016-05-26T18:45:21Z</time>
      </trkpt>
      <trkpt lat="45.40964" lon="5.61236">
        <ele>605</ele>
        <time>2016-05-26T18:47:21Z</time>
      </trkpt>
      <trkpt lat="45.40967" lon="5.61207">
        <ele>603</ele>
        <time>2016-05-26T18:49:21Z</time>
      </trkpt>
      <trkpt lat="45.40971" lon="5.61173">
        <ele>601</ele>
        <time>2016-05-26T18:51:21Z</time>
      </trkpt>
      <trkpt lat="45.40978" lon="5.6114">
        <ele>598</ele>
        <time>2016-05-26T18:53:21Z</time>
      </trkpt>
      <trkpt lat="45.40984" lon="5.61106">
        <ele>595</ele>
        <time>2016-05-26T18:55:21Z</time>
      </trkpt>
      <trkpt lat="45.40988" lon="5.61088">
        <ele>592</ele>
        <time>2016-05-26T18:57:21Z</time>
      </trkpt>
      <trkpt lat="45.40994" lon="5.6107">
        <ele>592</ele>
        <time>2016-05-26T18:59:21Z</time>
      </trkpt>
      <trkpt lat="45.41004" lon="5.61055">
        <ele>594</ele>
        <time>2016-05-26T19:01:21Z</time>
      </trkpt>
      <trkpt lat="45.41019" lon="5.61039">
        <ele>597</ele>
        <time>2016-05-26T19:03:21Z</time>
      </trkpt>
      <trkpt lat="45.41048" lon="5.61008">
        <ele>597</ele>
        <time>2016-05-26T19:05:21Z</time>
      </trkpt>
      <trkpt lat="45.41079" lon="5.60976">
        <ele>590</ele>
        <time>2016-05-26T19:07:21Z</time>
      </trkpt>
      <trkpt lat="45.41104" lon="5.60942">
        <ele>591</ele>
        <time>2016-05-26T19:09:21Z</time>
      </trkpt>
      <trkpt lat="45.41119" lon="5.60919">
        <ele>591</ele>
        <time>2016-05-26T19:11:21Z</time>
      </trkpt>
      <trkpt lat="45.41127" lon="5.60905">
        <ele>592</ele>
        <time>2016-05-26T19:13:21Z</time>
      </trkpt>
      <trkpt lat="45.41129" lon="5.60898">
        <ele>592</ele>
        <time>2016-05-26T19:15:21Z</time>
      </trkpt>
      <trkpt lat="45.4113" lon="5.60892">
        <ele>591</ele>
        <time>2016-05-26T19:17:21Z</time>
      </trkpt>
      <trkpt lat="45.4113" lon="5.60886">
        <ele>590</ele>
        <time>2016-05-26T19:19:21Z</time>
      </trkpt>
      <trkpt lat="45.4113" lon="5.60878">
        <ele>589</ele>
        <time>2016-05-26T19:21:21Z</time>
      </trkpt>
      <trkpt lat="45.4113" lon="5.60871">
        <ele>588</ele>
        <time>2016-05-26T19:23:21Z</time>
      </trkpt>
      <trkpt lat="45.41128" lon="5.60866">
        <ele>586</ele>
        <time>2016-05-26T19:25:21Z</time>
      </trkpt>
      <trkpt lat="45.41126" lon="5.6086">
        <ele>585</ele>
        <time>2016-05-26T19:27:21Z</time>
      </trkpt>
      <trkpt lat="45.41123" lon="5.60855">
        <ele>583</ele>
        <time>2016-05-26T19:29:21Z</time>
      </trkpt>
      <trkpt lat="45.41119" lon="5.60851">
        <ele>582</ele>
        <time>2016-05-26T19:31:21Z</time>
      </trkpt>
      <trkpt lat="45.41114" lon="5.60848">
        <ele>580</ele>
        <time>2016-05-26T19:33:21Z</time>
      </trkpt>
      <trkpt lat="45.41109" lon="5.60845">
        <ele>579</ele>
        <time>2016-05-26T19:35:21Z</time>
      </trkpt>
      <trkpt lat="45.41102" lon="5.60842">
        <ele>577</ele>
        <time>2016-05-26T19:37:21Z</time>
      </trkpt>
      <trkpt lat="45.41091" lon="5.60837">
        <ele>575</ele>
        <time>2016-05-26T19:39:21Z</time>
      </trkpt>
      <trkpt lat="45.41087" lon="5.60834">
        <ele>574</ele>
        <time>2016-05-26T19:41:21Z</time>
      </trkpt>
      <trkpt lat="45.41086" lon="5.60833">
        <ele>574</ele>
        <time>2016-05-26T19:43:21Z</time>
      </trkpt>
      <trkpt lat="45.41083" lon="5.60831">
        <ele>573</ele>
        <time>2016-05-26T19:45:21Z</time>
      </trkpt>
      <trkpt lat="45.4108" lon="5.60826">
        <ele>575</ele>
        <time>2016-05-26T19:47:21Z</time>
      </trkpt>
      <trkpt lat="45.41078" lon="5.60822">
        <ele>576</ele>
        <time>2016-05-26T19:49:21Z</time>
      </trkpt>
      <trkpt lat="45.41076" lon="5.60816">
        <ele>578</ele>
        <time>2016-05-26T19:51:21Z</time>
      </trkpt>
      <trkpt lat="45.41073" lon="5.60783">
        <ele>581</ele>
        <time>2016-05-26T19:53:21Z</time>
      </trkpt>
      <trkpt lat="45.4107" lon="5.60755">
        <ele>584</ele>
        <time>2016-05-26T19:55:21Z</time>
      </trkpt>
      <trkpt lat="45.4107" lon="5.60745">
        <ele>584</ele>
        <time>2016-05-26T19:57:21Z</time>
      </trkpt>
      <trkpt lat="45.41069" lon="5.60737">
        <ele>584</ele>
        <time>2016-05-26T19:59:21Z</time>
      </trkpt>
      <trkpt lat="45.41069" lon="5.60727">
        <ele>584</ele>
        <time>2016-05-26T20:01:21Z</time>
      </trkpt>
      <trkpt lat="45.41069" lon="5.60699">
        <ele>583</ele>
        <time>2016-05-26T20:03:21Z</time>
      </trkpt>
      <trkpt lat="45.41073" lon="5.60651">
        <ele>579</ele>
        <time>2016-05-26T20:05:21Z</time>
      </trkpt>
      <trkpt lat="45.41075" lon="5.60632">
        <ele>577</ele>
        <time>2016-05-26T20:07:21Z</time>
      </trkpt>
      <trkpt lat="45.41075" lon="5.60622">
        <ele>576</ele>
        <time>2016-05-26T20:09:21Z</time>
      </trkpt>
      <trkpt lat="45.41076" lon="5.60608">
        <ele>575</ele>
        <time>2016-05-26T20:11:21Z</time>
      </trkpt>
      <trkpt lat="45.41076" lon="5.60596">
        <ele>574</ele>
        <time>2016-05-26T20:13:21Z</time>
      </trkpt>
      <trkpt lat="45.41076" lon="5.60583">
        <ele>573</ele>
        <time>2016-05-26T20:15:21Z</time>
      </trkpt>
      <trkpt lat="45.41075" lon="5.60571">
        <ele>573</ele>
        <time>2016-05-26T20:17:21Z</time>
      </trkpt>
      <trkpt lat="45.41072" lon="5.60538">
        <ele>574</ele>
        <time>2016-05-26T20:19:21Z</time>
      </trkpt>
      <trkpt lat="45.41066" lon="5.60488">
        <ele>575</ele>
        <time>2016-05-26T20:21:21Z</time>
      </trkpt>
      <trkpt lat="45.4106" lon="5.60435">
        <ele>573</ele>
        <time>2016-05-26T20:23:21Z</time>
      </trkpt>
      <trkpt lat="45.41055" lon="5.60383">
        <ele>568</ele>
        <time>2016-05-26T20:25:21Z</time>
      </trkpt>
      <trkpt lat="45.41053" lon="5.60356">
        <ele>565</ele>
        <time>2016-05-26T20:27:21Z</time>
      </trkpt>
      <trkpt lat="45.4105" lon="5.6032">
        <ele>563</ele>
        <time>2016-05-26T20:29:21Z</time>
      </trkpt>
      <trkpt lat="45.41049" lon="5.60313">
        <ele>562</ele>
        <time>2016-05-26T20:31:21Z</time>
      </trkpt>
      <trkpt lat="45.41048" lon="5.603">
        <ele>562</ele>
        <time>2016-05-26T20:33:21Z</time>
      </trkpt>
      <trkpt lat="45.41048" lon="5.60286">
        <ele>562</ele>
        <time>2016-05-26T20:35:21Z</time>
      </trkpt>
      <trkpt lat="45.41048" lon="5.60278">
        <ele>562</ele>
        <time>2016-05-26T20:37:21Z</time>
      </trkpt>
      <trkpt lat="45.41048" lon="5.60277">
        <ele>562</ele>
        <time>2016-05-26T20:39:21Z</time>
      </trkpt>
      <trkpt lat="45.41048" lon="5.60272">
        <ele>562</ele>
        <time>2016-05-26T20:41:21Z</time>
      </trkpt>
      <trkpt lat="45.41048" lon="5.60258">
        <ele>561</ele>
        <time>2016-05-26T20:43:21Z</time>
      </trkpt>
      <trkpt lat="45.41039" lon="5.60249">
        <ele>560</ele>
        <time>2016-05-26T20:45:21Z</time>
      </trkpt>
      <trkpt lat="45.41023" lon="5.60234">
        <ele>559</ele>
        <time>2016-05-26T20:47:21Z</time>
      </trkpt>
      <trkpt lat="45.41006" lon="5.60218">
        <ele>557</ele>
        <time>2016-05-26T20:49:21Z</time>
      </trkpt>
      <trkpt lat="45.40993" lon="5.60206">
        <ele>558</ele>
        <time>2016-05-26T20:51:21Z</time>
      </trkpt>
      <trkpt lat="45.40992" lon="5.60205">
        <ele>558</ele>
        <time>2016-05-26T20:53:21Z</time>
      </trkpt>
      <trkpt lat="45.40986" lon="5.60199">
        <ele>560</ele>
        <time>2016-05-26T20:55:21Z</time>
      </trkpt>
      <trkpt lat="45.40974" lon="5.60184">
        <ele>561</ele>
        <time>2016-05-26T20:57:21Z</time>
      </trkpt>
      <trkpt lat="45.4096" lon="5.60165">
        <ele>562</ele>
        <time>2016-05-26T20:59:21Z</time>
      </trkpt>
      <trkpt lat="45.40949" lon="5.60145">
        <ele>562</ele>
        <time>2016-05-26T21:01:21Z</time>
      </trkpt>
      <trkpt lat="45.40939" lon="5.60131">
        <ele>561</ele>
        <time>2016-05-26T21:03:21Z</time>
      </trkpt>
      <trkpt lat="45.40928" lon="5.60119">
        <ele>559</ele>
        <time>2016-05-26T21:05:21Z</time>
      </trkpt>
      <trkpt lat="45.40908" lon="5.60106">
        <ele>556</ele>
        <time>2016-05-26T21:07:21Z</time>
      </trkpt>
      <trkpt lat="45.40883" lon="5.6009">
        <ele>552</ele>
        <time>2016-05-26T21:09:21Z</time>
      </trkpt>
      <trkpt lat="45.40873" lon="5.60083">
        <ele>550</ele>
        <time>2016-05-26T21:11:21Z</time>
      </trkpt>
      <trkpt lat="45.40873" lon="5.60083">
        <ele>550</ele>
        <time>2016-05-26T21:13:21Z</time>
      </trkpt>
      <trkpt lat="45.40868" lon="5.60092">
        <ele>551</ele>
        <time>2016-05-26T21:15:21Z</time>
      </trkpt>
      <trkpt lat="45.40861" lon="5.60097">
        <ele>552</ele>
        <time>2016-05-26T21:17:21Z</time>
      </trkpt>
      <trkpt lat="45.40844" lon="5.60105">
        <ele>553</ele>
        <time>2016-05-26T21:19:21Z</time>
      </trkpt>
      <trkpt lat="45.40829" lon="5.60112">
        <ele>553</ele>
        <time>2016-05-26T21:21:21Z</time>
      </trkpt>
      <trkpt lat="45.40799" lon="5.60125">
        <ele>552</ele>
        <time>2016-05-26T21:23:21Z</time>
      </trkpt>
      <trkpt lat="45.40769" lon="5.60141">
        <ele>551</ele>
        <time>2016-05-26T21:25:21Z</time>
      </trkpt>
      <trkpt lat="45.40728" lon="5.60163">
        <ele>549</ele>
        <time>2016-05-26T21:27:21Z</time>
      </trkpt>
      <trkpt lat="45.4069" lon="5.60182">
        <ele>549</ele>
        <time>2016-05-26T21:29:21Z</time>
      </trkpt>
      <trkpt lat="45.40663" lon="5.60198">
        <ele>548</ele>
        <time>2016-05-26T21:31:21Z</time>
      </trkpt>
      <trkpt lat="45.40641" lon="5.60213">
        <ele>548</ele>
        <time>2016-05-26T21:33:21Z</time>
      </trkpt>
      <trkpt lat="45.40609" lon="5.60235">
        <ele>548</ele>
        <time>2016-05-26T21:35:21Z</time>
      </trkpt>
      <trkpt lat="45.4059" lon="5.60248">
        <ele>548</ele>
        <time>2016-05-26T21:37:21Z</time>
      </trkpt>
      <trkpt lat="45.40577" lon="5.6026">
        <ele>547</ele>
        <time>2016-05-26T21:39:21Z</time>
      </trkpt>
      <trkpt lat="45.40561" lon="5.6027">
        <ele>545</ele>
        <time>2016-05-26T21:41:21Z</time>
      </trkpt>
      <trkpt lat="45.40554" lon="5.60286">
        <ele>544</ele>
        <time>2016-05-26T21:43:21Z</time>
      </trkpt>
      <trkpt lat="45.40548" lon="5.60298">
        <ele>543</ele>
        <time>2016-05-26T21:45:21Z</time>
      </trkpt>
      <trkpt lat="45.40538" lon="5.60305">
        <ele>542</ele>
        <time>2016-05-26T21:47:21Z</time>
      </trkpt>
      <trkpt lat="45.40523" lon="5.60313">
        <ele>540</ele>
        <time>2016-05-26T21:49:21Z</time>
      </trkpt>
      <trkpt lat="45.40502" lon="5.60321">
        <ele>538</ele>
        <time>2016-05-26T21:51:21Z</time>
      </trkpt>
      <trkpt lat="45.4049" lon="5.60324">
        <ele>537</ele>
        <time>2016-05-26T21:53:21Z</time>
      </trkpt>
      <trkpt lat="45.40479" lon="5.60324">
        <ele>536</ele>
        <time>2016-05-26T21:55:21Z</time>
      </trkpt>
      <trkpt lat="45.40463" lon="5.60318">
        <ele>535</ele>
        <time>2016-05-26T21:57:21Z</time>
      </trkpt>
      <trkpt lat="45.40446" lon="5.60307">
        <ele>533</ele>
        <time>2016-05-26T21:59:21Z</time>
      </trkpt>
      <trkpt lat="45.40436" lon="5.60299">
        <ele>532</ele>
        <time>2016-05-26T22:01:21Z</time>
      </trkpt>
      <trkpt lat="45.40434" lon="5.60296">
        <ele>532</ele>
        <time>2016-05-26T22:03:21Z</time>
      </trkpt>
      <trkpt lat="45.40428" lon="5.60289">
        <ele>531</ele>
        <time>2016-05-26T22:05:21Z</time>
      </trkpt>
      <trkpt lat="45.40416" lon="5.60277">
        <ele>529</ele>
        <time>2016-05-26T22:07:21Z</time>
      </trkpt>
      <trkpt lat="45.40403" lon="5.60269">
        <ele>526</ele>
        <time>2016-05-26T22:09:21Z</time>
      </trkpt>
      <trkpt lat="45.40385" lon="5.6026">
        <ele>521</ele>
        <time>2016-05-26T22:11:21Z</time>
      </trkpt>
      <trkpt lat="45.40362" lon="5.60247">
        <ele>516</ele>
        <time>2016-05-26T22:13:21Z</time>
      </trkpt>
      <trkpt lat="45.40344" lon="5.60234">
        <ele>512</ele>
        <time>2016-05-26T22:15:21Z</time>
      </trkpt>
      <trkpt lat="45.40334" lon="5.60227">
        <ele>510</ele>
        <time>2016-05-26T22:17:21Z</time>
      </trkpt>
      <trkpt lat="45.40326" lon="5.60225">
        <ele>508</ele>
        <time>2016-05-26T22:19:21Z</time>
      </trkpt>
      <trkpt lat="45.40318" lon="5.60224">
        <ele>507</ele>
        <time>2016-05-26T22:21:21Z</time>
      </trkpt>
      <trkpt lat="45.40317" lon="5.60224">
        <ele>507</ele>
        <time>2016-05-26T22:23:21Z</time>
      </trkpt>
      <trkpt lat="45.40317" lon="5.60224">
        <ele>507</ele>
        <time>2016-05-26T22:25:21Z</time>
      </trkpt>
      <trkpt lat="45.40308" lon="5.60222">
        <ele>506</ele>
        <time>2016-05-26T22:27:21Z</time>
      </trkpt>
      <trkpt lat="45.40297" lon="5.60219">
        <ele>505</ele>
        <time>2016-05-26T22:29:21Z</time>
      </trkpt>
      <trkpt lat="45.40292" lon="5.60215">
        <ele>504</ele>
        <time>2016-05-26T22:31:21Z</time>
      </trkpt>
      <trkpt lat="45.40285" lon="5.60205">
        <ele>503</ele>
        <time>2016-05-26T22:33:21Z</time>
      </trkpt>
      <trkpt lat="45.4028" lon="5.60197">
        <ele>502</ele>
        <time>2016-05-26T22:35:21Z</time>
      </trkpt>
      <trkpt lat="45.40275" lon="5.6019">
        <ele>502</ele>
        <time>2016-05-26T22:37:21Z</time>
      </trkpt>
      <trkpt lat="45.4027" lon="5.60187">
        <ele>501</ele>
        <time>2016-05-26T22:39:21Z</time>
      </trkpt>
      <trkpt lat="45.40264" lon="5.60183">
        <ele>500</ele>
        <time>2016-05-26T22:41:21Z</time>
      </trkpt>
      <trkpt lat="45.40248" lon="5.60176">
        <ele>499</ele>
        <time>2016-05-26T22:43:21Z</time>
      </trkpt>
      <trkpt lat="45.40243" lon="5.60175">
        <ele>499</ele>
        <time>2016-05-26T22:45:21Z</time>
      </trkpt>
      <trkpt lat="45.40237" lon="5.60176">
        <ele>499</ele>
        <time>2016-05-26T22:47:21Z</time>
      </trkpt>
      <trkpt lat="45.40232" lon="5.60178">
        <ele>498</ele>
        <time>2016-05-26T22:49:21Z</time>
      </trkpt>
      <trkpt lat="45.40228" lon="5.6018">
        <ele>498</ele>
        <time>2016-05-26T22:51:21Z</time>
      </trkpt>
      <trkpt lat="45.40199" lon="5.60191">
        <ele>497</ele>
        <time>2016-05-26T22:53:21Z</time>
      </trkpt>
      <trkpt lat="45.40163" lon="5.60205">
        <ele>496</ele>
        <time>2016-05-26T22:55:21Z</time>
      </trkpt>
      <trkpt lat="45.40134" lon="5.60216">
        <ele>496</ele>
        <time>2016-05-26T22:57:21Z</time>
      </trkpt>
      <trkpt lat="45.40124" lon="5.6022">
        <ele>496</ele>
        <time>2016-05-26T22:59:21Z</time>
      </trkpt>
      <trkpt lat="45.40108" lon="5.60227">
        <ele>496</ele>
        <time>2016-05-26T23:01:21Z</time>
      </trkpt>
      <trkpt lat="45.40087" lon="5.60234">
        <ele>496</ele>
        <time>2016-05-26T23:03:21Z</time>
      </trkpt>
      <trkpt lat="45.40074" lon="5.60237">
        <ele>496</ele>
        <time>2016-05-26T23:05:21Z</time>
      </trkpt>
      <trkpt lat="45.4006" lon="5.60238">
        <ele>496</ele>
        <time>2016-05-26T23:07:21Z</time>
      </trkpt>
      <trkpt lat="45.4005" lon="5.60238">
        <ele>496</ele>
        <time>2016-05-26T23:09:21Z</time>
      </trkpt>
      <trkpt lat="45.4004" lon="5.60237">
        <ele>496</ele>
        <time>2016-05-26T23:11:21Z</time>
      </trkpt>
      <trkpt lat="45.4004" lon="5.60237">
        <ele>496</ele>
        <time>2016-05-26T23:13:21Z</time>
      </trkpt>
      <trkpt lat="45.40037" lon="5.60249">
        <ele>497</ele>
        <time>2016-05-26T23:15:21Z</time>
      </trkpt>
      <trkpt lat="45.40021" lon="5.60287">
        <ele>497</ele>
        <time>2016-05-26T23:17:21Z</time>
      </trkpt>
      <trkpt lat="45.39986" lon="5.60363">
        <ele>497</ele>
        <time>2016-05-26T23:19:21Z</time>
      </trkpt>
      <trkpt lat="45.39969" lon="5.604">
        <ele>497</ele>
        <time>2016-05-26T23:21:21Z</time>
      </trkpt>
      <trkpt lat="45.3996" lon="5.60418">
        <ele>497</ele>
        <time>2016-05-26T23:23:21Z</time>
      </trkpt>
      <trkpt lat="45.39952" lon="5.60431">
        <ele>497</ele>
        <time>2016-05-26T23:25:21Z</time>
      </trkpt>
      <trkpt lat="45.39942" lon="5.60452">
        <ele>497</ele>
        <time>2016-05-26T23:27:21Z</time>
      </trkpt>
      <trkpt lat="45.39935" lon="5.60468">
        <ele>498</ele>
        <time>2016-05-26T23:29:21Z</time>
      </trkpt>
      <trkpt lat="45.39924" lon="5.60493">
        <ele>499</ele>
        <time>2016-05-26T23:31:21Z</time>
      </trkpt>
      <trkpt lat="45.39911" lon="5.60517">
        <ele>499</ele>
        <time>2016-05-26T23:33:21Z</time>
      </trkpt>
      <trkpt lat="45.39901" lon="5.60536">
        <ele>499</ele>
        <time>2016-05-26T23:35:21Z</time>
      </trkpt>
      <trkpt lat="45.399" lon="5.60539">
        <ele>499</ele>
        <time>2016-05-26T23:37:21Z</time>
      </trkpt>
      <trkpt lat="45.39898" lon="5.60544">
        <ele>499</ele>
        <time>2016-05-26T23:39:21Z</time>
      </trkpt>
      <trkpt lat="45.39897" lon="5.60546">
        <ele>499</ele>
        <time>2016-05-26T23:41:21Z</time>
      </trkpt>
      <trkpt lat="45.39897" lon="5.60547">
        <ele>499</ele>
        <time>2016-05-26T23:43:21Z</time>
      </trkpt>
      <trkpt lat="45.39896" lon="5.60553">
        <ele>499</ele>
        <time>2016-05-26T23:45:21Z</time>
      </trkpt>
      <trkpt lat="45.39892" lon="5.60585">
        <ele>500</ele>
        <time>2016-05-26T23:47:21Z</time>
      </trkpt>
      <trkpt lat="45.39883" lon="5.60638">
        <ele>498</ele>
        <time>2016-05-26T23:49:21Z</time>
      </trkpt>
      <trkpt lat="45.39876" lon="5.60688">
        <ele>497</ele>
        <time>2016-05-26T23:51:21Z</time>
      </trkpt>
      <trkpt lat="45.39872" lon="5.60721">
        <ele>496</ele>
        <time>2016-05-26T23:53:21Z</time>
      </trkpt>
      <trkpt lat="45.39871" lon="5.60728">
        <ele>496</ele>
        <time>2016-05-26T23:55:21Z</time>
      </trkpt>
      <trkpt lat="45.3987" lon="5.60738">
        <ele>495</ele>
        <time>2016-05-26T23:57:21Z</time>
      </trkpt>
      <trkpt lat="45.39867" lon="5.60757">
        <ele>494</ele>
        <time>2016-05-26T23:59:21Z</time>
      </trkpt>
      <trkpt lat="45.39864" lon="5.60774">
        <ele>494</ele>
        <time>2016-05-27T00:01:21Z</time>
      </trkpt>
      <trkpt lat="45.39859" lon="5.6079">
        <ele>493</ele>
        <time>2016-05-27T00:03:21Z</time>
      </trkpt>
      <trkpt lat="45.39849" lon="5.60814">
        <ele>492</ele>
        <time>2016-05-27T00:05:21Z</time>
      </trkpt>
      <trkpt lat="45.39833" lon="5.60839">
        <ele>490</ele>
        <time>2016-05-27T00:07:21Z</time>
      </trkpt>
      <trkpt lat="45.3981" lon="5.60875">
        <ele>491</ele>
        <time>2016-05-27T00:09:21Z</time>
      </trkpt>
      <trkpt lat="45.39792" lon="5.60912">
        <ele>490</ele>
        <time>2016-05-27T00:11:21Z</time>
      </trkpt>
      <trkpt lat="45.39772" lon="5.60953">
        <ele>488</ele>
        <time>2016-05-27T00:13:21Z</time>
      </trkpt>
      <trkpt lat="45.39756" lon="5.60986">
        <ele>488</ele>
        <time>2016-05-27T00:15:21Z</time>
      </trkpt>
      <trkpt lat="45.39745" lon="5.61006">
        <ele>487</ele>
        <time>2016-05-27T00:17:21Z</time>
      </trkpt>
      <trkpt lat="45.39732" lon="5.61022">
        <ele>486</ele>
        <time>2016-05-27T00:19:21Z</time>
      </trkpt>
      <trkpt lat="45.39712" lon="5.61051">
        <ele>484</ele>
        <time>2016-05-27T00:21:21Z</time>
      </trkpt>
      <trkpt lat="45.39695" lon="5.61076">
        <ele>483</ele>
        <time>2016-05-27T00:23:21Z</time>
      </trkpt>
      <trkpt lat="45.39688" lon="5.61088">
        <ele>482</ele>
        <time>2016-05-27T00:25:21Z</time>
      </trkpt>
      <trkpt lat="45.39678" lon="5.61105">
        <ele>481</ele>
        <time>2016-05-27T00:27:21Z</time>
      </trkpt>
      <trkpt lat="45.39659" lon="5.61144">
        <ele>481</ele>
        <time>2016-05-27T00:29:21Z</time>
      </trkpt>
      <trkpt lat="45.39645" lon="5.61172">
        <ele>479</ele>
        <time>2016-05-27T00:31:21Z</time>
      </trkpt>
      <trkpt lat="45.3963" lon="5.61205">
        <ele>478</ele>
        <time>2016-05-27T00:33:21Z</time>
      </trkpt>
      <trkpt lat="45.39626" lon="5.61219">
        <ele>478</ele>
        <time>2016-05-27T00:35:21Z</time>
      </trkpt>
      <trkpt lat="45.39625" lon="5.6123">
        <ele>478</ele>
        <time>2016-05-27T00:37:21Z</time>
      </trkpt>
      <trkpt lat="45.39625" lon="5.61239">
        <ele>478</ele>
        <time>2016-05-27T00:39:21Z</time>
      </trkpt>
      <trkpt lat="45.39632" lon="5.61279">
        <ele>478</ele>
        <time>2016-05-27T00:41:21Z</time>
      </trkpt>
      <trkpt lat="45.39634" lon="5.6129">
        <ele>478</ele>
        <time>2016-05-27T00:43:21Z</time>
      </trkpt>
      <trkpt lat="45.39634" lon="5.61297">
        <ele>478</ele>
        <time>2016-05-27T00:45:21Z</time>
      </trkpt>
      <trkpt lat="45.39634" lon="5.61308">
        <ele>478</ele>
        <time>2016-05-27T00:47:21Z</time>
      </trkpt>
      <trkpt lat="45.39632" lon="5.61319">
        <ele>478</ele>
        <time>2016-05-27T00:49:21Z</time>
      </trkpt>
      <trkpt lat="45.39631" lon="5.61322">
        <ele>478</ele>
        <time>2016-05-27T00:51:21Z</time>
      </trkpt>
      <trkpt lat="45.39629" lon="5.61327">
        <ele>478</ele>
        <time>2016-05-27T00:53:21Z</time>
      </trkpt>
      <trkpt lat="45.39626" lon="5.61333">
        <ele>478</ele>
        <time>2016-05-27T00:55:21Z</time>
      </trkpt>
      <trkpt lat="45.39623" lon="5.61339">
        <ele>477</ele>
        <time>2016-05-27T00:57:21Z</time>
      </trkpt>
      <trkpt lat="45.39619" lon="5.61344">
        <ele>477</ele>
        <time>2016-05-27T00:59:21Z</time>
      </trkpt>
      <trkpt lat="45.3961" lon="5.61354">
        <ele>477</ele>
        <time>2016-05-27T01:01:21Z</time>
      </trkpt>
      <trkpt lat="45.39593" lon="5.61373">
        <ele>477</ele>
        <time>2016-05-27T01:03:21Z</time>
      </trkpt>
      <trkpt lat="45.39555" lon="5.61409">
        <ele>474</ele>
        <time>2016-05-27T01:05:21Z</time>
      </trkpt>
      <trkpt lat="45.39547" lon="5.61417">
        <ele>474</ele>
        <time>2016-05-27T01:07:21Z</time>
      </trkpt>
      <trkpt lat="45.39538" lon="5.61427">
        <ele>474</ele>
        <time>2016-05-27T01:09:21Z</time>
      </trkpt>
      <trkpt lat="45.39536" lon="5.61431">
        <ele>474</ele>
        <time>2016-05-27T01:11:21Z</time>
      </trkpt>
      <trkpt lat="45.3953" lon="5.61441">
        <ele>473</ele>
        <time>2016-05-27T01:13:21Z</time>
      </trkpt>
      <trkpt lat="45.39523" lon="5.61453">
        <ele>473</ele>
        <time>2016-05-27T01:15:21Z</time>
      </trkpt>
      <trkpt lat="45.39516" lon="5.6147">
        <ele>473</ele>
        <time>2016-05-27T01:17:21Z</time>
      </trkpt>
      <trkpt lat="45.39512" lon="5.61485">
        <ele>473</ele>
        <time>2016-05-27T01:19:21Z</time>
      </trkpt>
      <trkpt lat="45.39505" lon="5.61513">
        <ele>474</ele>
        <time>2016-05-27T01:21:21Z</time>
      </trkpt>
      <trkpt lat="45.395" lon="5.61536">
        <ele>475</ele>
        <time>2016-05-27T01:23:21Z</time>
      </trkpt>
      <trkpt lat="45.39495" lon="5.61554">
        <ele>476</ele>
        <time>2016-05-27T01:25:21Z</time>
      </trkpt>
      <trkpt lat="45.39452" lon="5.61658">
        <ele>470</ele>
        <time>2016-05-27T01:27:21Z</time>
      </trkpt>
      <trkpt lat="45.39421" lon="5.61732">
        <ele>469</ele>
        <time>2016-05-27T01:29:21Z</time>
      </trkpt>
      <trkpt lat="45.39412" lon="5.61747">
        <ele>468</ele>
        <time>2016-05-27T01:31:21Z</time>
      </trkpt>
      <trkpt lat="45.39402" lon="5.61761">
        <ele>468</ele>
        <time>2016-05-27T01:33:21Z</time>
      </trkpt>
      <trkpt lat="45.39399" lon="5.61764">
        <ele>468</ele>
        <time>2016-05-27T01:35:21Z</time>
      </trkpt>
      <trkpt lat="45.39392" lon="5.61772">
        <ele>467</ele>
        <time>2016-05-27T01:37:21Z</time>
      </trkpt>
      <trkpt lat="45.39377" lon="5.61786">
        <ele>466</ele>
        <time>2016-05-27T01:39:21Z</time>
      </trkpt>
      <trkpt lat="45.39323" lon="5.61835">
        <ele>463</ele>
        <time>2016-05-27T01:41:21Z</time>
      </trkpt>
      <trkpt lat="45.39315" lon="5.61843">
        <ele>463</ele>
        <time>2016-05-27T01:43:21Z</time>
      </trkpt>
      <trkpt lat="45.39311" lon="5.61846">
        <ele>463</ele>
        <time>2016-05-27T01:45:21Z</time>
      </trkpt>
      <trkpt lat="45.393" lon="5.61858">
        <ele>462</ele>
        <time>2016-05-27T01:47:21Z</time>
      </trkpt>
      <trkpt lat="45.3929" lon="5.6187">
        <ele>462</ele>
        <time>2016-05-27T01:49:21Z</time>
      </trkpt>
      <trkpt lat="45.39278" lon="5.61885">
        <ele>461</ele>
        <time>2016-05-27T01:51:21Z</time>
      </trkpt>
      <trkpt lat="45.39267" lon="5.61903">
        <ele>460</ele>
        <time>2016-05-27T01:53:21Z</time>
      </trkpt>
      <trkpt lat="45.39246" lon="5.61939">
        <ele>459</ele>
        <time>2016-05-27T01:55:21Z</time>
      </trkpt>
      <trkpt lat="45.3923" lon="5.61965">
        <ele>459</ele>
        <time>2016-05-27T01:57:21Z</time>
      </trkpt>
      <trkpt lat="45.39216" lon="5.61986">
        <ele>460</ele>
        <time>2016-05-27T01:59:21Z</time>
      </trkpt>
      <trkpt lat="45.39184" lon="5.62026">
        <ele>460</ele>
        <time>2016-05-27T02:01:21Z</time>
      </trkpt>
      <trkpt lat="45.39159" lon="5.62055">
        <ele>460</ele>
        <time>2016-05-27T02:03:21Z</time>
      </trkpt>
      <trkpt lat="45.39145" lon="5.62071">
        <ele>460</ele>
        <time>2016-05-27T02:05:21Z</time>
      </trkpt>
      <trkpt lat="45.39136" lon="5.62082">
        <ele>460</ele>
        <time>2016-05-27T02:07:21Z</time>
      </trkpt>
      <trkpt lat="45.39119" lon="5.62104">
        <ele>460</ele>
        <time>2016-05-27T02:09:21Z</time>
      </trkpt>
      <trkpt lat="45.39105" lon="5.62122">
        <ele>459</ele>
        <time>2016-05-27T02:11:21Z</time>
      </trkpt>
      <trkpt lat="45.39097" lon="5.62136">
        <ele>459</ele>
        <time>2016-05-27T02:13:21Z</time>
      </trkpt>
      <trkpt lat="45.39081" lon="5.62174">
        <ele>460</ele>
        <time>2016-05-27T02:15:21Z</time>
      </trkpt>
      <trkpt lat="45.39075" lon="5.6219">
        <ele>460</ele>
        <time>2016-05-27T02:17:21Z</time>
      </trkpt>
      <trkpt lat="45.39066" lon="5.62216">
        <ele>460</ele>
        <time>2016-05-27T02:19:21Z</time>
      </trkpt>
      <trkpt lat="45.39052" lon="5.62253">
        <ele>460</ele>
        <time>2016-05-27T02:21:21Z</time>
      </trkpt>
      <trkpt lat="45.39044" lon="5.62281">
        <ele>459</ele>
        <time>2016-05-27T02:23:21Z</time>
      </trkpt>
      <trkpt lat="45.39038" lon="5.62302">
        <ele>459</ele>
        <time>2016-05-27T02:25:21Z</time>
      </trkpt>
      <trkpt lat="45.39025" lon="5.62352">
        <ele>458</ele>
        <time>2016-05-27T02:27:21Z</time>
      </trkpt>
      <trkpt lat="45.39" lon="5.62462">
        <ele>456</ele>
        <time>2016-05-27T02:29:21Z</time>
      </trkpt>
      <trkpt lat="45.38984" lon="5.62529">
        <ele>457</ele>
        <time>2016-05-27T02:31:21Z</time>
      </trkpt>
      <trkpt lat="45.3898" lon="5.62547">
        <ele>458</ele>
        <time>2016-05-27T02:33:21Z</time>
      </trkpt>
      <trkpt lat="45.38976" lon="5.62562">
        <ele>457</ele>
        <time>2016-05-27T02:35:21Z</time>
      </trkpt>
      <trkpt lat="45.38972" lon="5.62584">
        <ele>458</ele>
        <time>2016-05-27T02:37:21Z</time>
      </trkpt>
      <trkpt lat="45.38969" lon="5.62596">
        <ele>457</ele>
        <time>2016-05-27T02:39:21Z</time>
      </trkpt>
      <trkpt lat="45.38965" lon="5.62617">
        <ele>457</ele>
        <time>2016-05-27T02:41:21Z</time>
      </trkpt>
      <trkpt lat="45.38956" lon="5.62654">
        <ele>456</ele>
        <time>2016-05-27T02:43:21Z</time>
      </trkpt>
      <trkpt lat="45.38952" lon="5.62666">
        <ele>456</ele>
        <time>2016-05-27T02:45:21Z</time>
      </trkpt>
      <trkpt lat="45.38948" lon="5.62674">
        <ele>455</ele>
        <time>2016-05-27T02:47:21Z</time>
      </trkpt>
      <trkpt lat="45.38943" lon="5.62684">
        <ele>455</ele>
        <time>2016-05-27T02:49:21Z</time>
      </trkpt>
      <trkpt lat="45.38936" lon="5.62692">
        <ele>454</ele>
        <time>2016-05-27T02:51:21Z</time>
      </trkpt>
      <trkpt lat="45.38928" lon="5.62705">
        <ele>453</ele>
        <time>2016-05-27T02:53:21Z</time>
      </trkpt>
      <trkpt lat="45.38927" lon="5.62707">
        <ele>453</ele>
        <time>2016-05-27T02:55:21Z</time>
      </trkpt>
      <trkpt lat="45.38924" lon="5.62715">
        <ele>453</ele>
        <time>2016-05-27T02:57:21Z</time>
      </trkpt>
      <trkpt lat="45.3891" lon="5.62751">
        <ele>453</ele>
        <time>2016-05-27T02:59:21Z</time>
      </trkpt>
      <trkpt lat="45.38892" lon="5.62804">
        <ele>454</ele>
        <time>2016-05-27T03:01:21Z</time>
      </trkpt>
      <trkpt lat="45.38884" lon="5.62831">
        <ele>454</ele>
        <time>2016-05-27T03:03:21Z</time>
      </trkpt>
      <trkpt lat="45.38874" lon="5.62874">
        <ele>451</ele>
        <time>2016-05-27T03:05:21Z</time>
      </trkpt>
      <trkpt lat="45.38866" lon="5.62916">
        <ele>448</ele>
        <time>2016-05-27T03:07:21Z</time>
      </trkpt>
      <trkpt lat="45.38858" lon="5.62954">
        <ele>447</ele>
        <time>2016-05-27T03:09:21Z</time>
      </trkpt>
      <trkpt lat="45.38856" lon="5.62965">
        <ele>447</ele>
        <time>2016-05-27T03:11:21Z</time>
      </trkpt>
      <trkpt lat="45.38848" lon="5.63009">
        <ele>447</ele>
        <time>2016-05-27T03:13:21Z</time>
      </trkpt>
      <trkpt lat="45.38843" lon="5.63024">
        <ele>445</ele>
        <time>2016-05-27T03:15:21Z</time>
      </trkpt>
      <trkpt lat="45.38838" lon="5.63038">
        <ele>444</ele>
        <time>2016-05-27T03:17:21Z</time>
      </trkpt>
      <trkpt lat="45.38833" lon="5.63049">
        <ele>443</ele>
        <time>2016-05-27T03:19:21Z</time>
      </trkpt>
      <trkpt lat="45.38828" lon="5.63058">
        <ele>442</ele>
        <time>2016-05-27T03:21:21Z</time>
      </trkpt>
      <trkpt lat="45.38822" lon="5.63068">
        <ele>442</ele>
        <time>2016-05-27T03:23:21Z</time>
      </trkpt>
      <trkpt lat="45.38817" lon="5.63074">
        <ele>442</ele>
        <time>2016-05-27T03:25:21Z</time>
      </trkpt>
      <trkpt lat="45.38807" lon="5.63084">
        <ele>441</ele>
        <time>2016-05-27T03:27:21Z</time>
      </trkpt>
      <trkpt lat="45.38781" lon="5.63111">
        <ele>441</ele>
        <time>2016-05-27T03:29:21Z</time>
      </trkpt>
      <trkpt lat="45.38774" lon="5.63118">
        <ele>441</ele>
        <time>2016-05-27T03:31:21Z</time>
      </trkpt>
      <trkpt lat="45.38759" lon="5.6313">
        <ele>441</ele>
        <time>2016-05-27T03:33:21Z</time>
      </trkpt>
      <trkpt lat="45.38754" lon="5.63136">
        <ele>441</ele>
        <time>2016-05-27T03:35:21Z</time>
      </trkpt>
      <trkpt lat="45.38741" lon="5.63148">
        <ele>441</ele>
        <time>2016-05-27T03:37:21Z</time>
      </trkpt>
      <trkpt lat="45.38733" lon="5.63157">
        <ele>440</ele>
        <time>2016-05-27T03:39:21Z</time>
      </trkpt>
      <trkpt lat="45.38714" lon="5.63179">
        <ele>439</ele>
        <time>2016-05-27T03:41:21Z</time>
      </trkpt>
      <trkpt lat="45.38674" lon="5.63228">
        <ele>437</ele>
        <time>2016-05-27T03:43:21Z</time>
      </trkpt>
      <trkpt lat="45.38656" lon="5.63248">
        <ele>436</ele>
        <time>2016-05-27T03:45:21Z</time>
      </trkpt>
      <trkpt lat="45.38641" lon="5.63262">
        <ele>435</ele>
        <time>2016-05-27T03:47:21Z</time>
      </trkpt>
      <trkpt lat="45.38629" lon="5.63271">
        <ele>435</ele>
        <time>2016-05-27T03:49:21Z</time>
      </trkpt>
      <trkpt lat="45.38596" lon="5.6329">
        <ele>432</ele>
        <time>2016-05-27T03:51:21Z</time>
      </trkpt>
      <trkpt lat="45.38558" lon="5.63311">
        <ele>430</ele>
        <time>2016-05-27T03:53:21Z</time>
      </trkpt>
      <trkpt lat="45.38542" lon="5.63321">
        <ele>429</ele>
        <time>2016-05-27T03:55:21Z</time>
      </trkpt>
      <trkpt lat="45.38529" lon="5.63332">
        <ele>428</ele>
        <time>2016-05-27T03:57:21Z</time>
      </trkpt>
      <trkpt lat="45.38517" lon="5.63344">
        <ele>428</ele>
        <time>2016-05-27T03:59:21Z</time>
      </trkpt>
      <trkpt lat="45.38506" lon="5.63358">
        <ele>427</ele>
        <time>2016-05-27T04:01:21Z</time>
      </trkpt>
      <trkpt lat="45.38496" lon="5.63373">
        <ele>427</ele>
        <time>2016-05-27T04:03:21Z</time>
      </trkpt>
      <trkpt lat="45.38488" lon="5.6339">
        <ele>427</ele>
        <time>2016-05-27T04:05:21Z</time>
      </trkpt>
      <trkpt lat="45.3848" lon="5.63409">
        <ele>427</ele>
        <time>2016-05-27T04:07:21Z</time>
      </trkpt>
      <trkpt lat="45.38469" lon="5.63443">
        <ele>428</ele>
        <time>2016-05-27T04:09:21Z</time>
      </trkpt>
      <trkpt lat="45.38469" lon="5.63445">
        <ele>428</ele>
        <time>2016-05-27T04:11:21Z</time>
      </trkpt>
      <trkpt lat="45.38458" lon="5.63491">
        <ele>429</ele>
        <time>2016-05-27T04:13:21Z</time>
      </trkpt>
      <trkpt lat="45.38449" lon="5.63532">
        <ele>429</ele>
        <time>2016-05-27T04:15:21Z</time>
      </trkpt>
      <trkpt lat="45.38446" lon="5.63541">
        <ele>429</ele>
        <time>2016-05-27T04:17:21Z</time>
      </trkpt>
      <trkpt lat="45.38446" lon="5.63544">
        <ele>429</ele>
        <time>2016-05-27T04:19:21Z</time>
      </trkpt>
      <trkpt lat="45.3844" lon="5.63565">
        <ele>429</ele>
        <time>2016-05-27T04:21:21Z</time>
      </trkpt>
      <trkpt lat="45.38434" lon="5.63579">
        <ele>429</ele>
        <time>2016-05-27T04:23:21Z</time>
      </trkpt>
      <trkpt lat="45.38427" lon="5.63591">
        <ele>430</ele>
        <time>2016-05-27T04:25:21Z</time>
      </trkpt>
      <trkpt lat="45.38417" lon="5.63608">
        <ele>430</ele>
        <time>2016-05-27T04:27:21Z</time>
      </trkpt>
      <trkpt lat="45.38399" lon="5.63633">
        <ele>432</ele>
        <time>2016-05-27T04:29:21Z</time>
      </trkpt>
      <trkpt lat="45.38397" lon="5.63636">
        <ele>432</ele>
        <time>2016-05-27T04:31:21Z</time>
      </trkpt>
      <trkpt lat="45.38329" lon="5.63728">
        <ele>436</ele>
        <time>2016-05-27T04:33:21Z</time>
      </trkpt>
      <trkpt lat="45.38281" lon="5.63796">
        <ele>438</ele>
        <time>2016-05-27T04:35:21Z</time>
      </trkpt>
      <trkpt lat="45.38271" lon="5.63809">
        <ele>438</ele>
        <time>2016-05-27T04:37:21Z</time>
      </trkpt>
      <trkpt lat="45.38252" lon="5.63836">
        <ele>439</ele>
        <time>2016-05-27T04:39:21Z</time>
      </trkpt>
      <trkpt lat="45.38237" lon="5.63857">
        <ele>439</ele>
        <time>2016-05-27T04:41:21Z</time>
      </trkpt>
      <trkpt lat="45.38209" lon="5.63893">
        <ele>440</ele>
        <time>2016-05-27T04:43:21Z</time>
      </trkpt>
      <trkpt lat="45.38187" lon="5.63925">
        <ele>441</ele>
        <time>2016-05-27T04:45:21Z</time>
      </trkpt>
      <trkpt lat="45.38172" lon="5.6395">
        <ele>442</ele>
        <time>2016-05-27T04:47:21Z</time>
      </trkpt>
      <trkpt lat="45.38164" lon="5.63963">
        <ele>443</ele>
        <time>2016-05-27T04:49:21Z</time>
      </trkpt>
      <trkpt lat="45.3816" lon="5.6397">
        <ele>443</ele>
        <time>2016-05-27T04:51:21Z</time>
      </trkpt>
      <trkpt lat="45.38154" lon="5.6398">
        <ele>443</ele>
        <time>2016-05-27T04:53:21Z</time>
      </trkpt>
      <trkpt lat="45.38149" lon="5.6399">
        <ele>443</ele>
        <time>2016-05-27T04:55:21Z</time>
      </trkpt>
      <trkpt lat="45.38135" lon="5.64019">
        <ele>445</ele>
        <time>2016-05-27T04:57:21Z</time>
      </trkpt>
      <trkpt lat="45.38132" lon="5.64026">
        <ele>445</ele>
        <time>2016-05-27T04:59:21Z</time>
      </trkpt>
      <trkpt lat="45.38103" lon="5.6408">
        <ele>446</ele>
        <time>2016-05-27T05:01:21Z</time>
      </trkpt>
      <trkpt lat="45.3809" lon="5.641">
        <ele>447</ele>
        <time>2016-05-27T05:03:21Z</time>
      </trkpt>
      <trkpt lat="45.3808" lon="5.64114">
        <ele>447</ele>
        <time>2016-05-27T05:05:21Z</time>
      </trkpt>
      <trkpt lat="45.38074" lon="5.6412">
        <ele>447</ele>
        <time>2016-05-27T05:07:21Z</time>
      </trkpt>
      <trkpt lat="45.38055" lon="5.64138">
        <ele>448</ele>
        <time>2016-05-27T05:09:21Z</time>
      </trkpt>
      <trkpt lat="45.38051" lon="5.64141">
        <ele>448</ele>
        <time>2016-05-27T05:11:21Z</time>
      </trkpt>
      <trkpt lat="45.38048" lon="5.64145">
        <ele>448</ele>
        <time>2016-05-27T05:13:21Z</time>
      </trkpt>
      <trkpt lat="45.38038" lon="5.64149">
        <ele>448</ele>
        <time>2016-05-27T05:15:21Z</time>
      </trkpt>
      <trkpt lat="45.38032" lon="5.64155">
        <ele>448</ele>
        <time>2016-05-27T05:17:21Z</time>
      </trkpt>
      <trkpt lat="45.38015" lon="5.6417">
        <ele>449</ele>
        <time>2016-05-27T05:19:21Z</time>
      </trkpt>
      <trkpt lat="45.38014" lon="5.6417">
        <ele>449</ele>
        <time>2016-05-27T05:21:21Z</time>
      </trkpt>
      <trkpt lat="45.38013" lon="5.64169">
        <ele>449</ele>
        <time>2016-05-27T05:23:21Z</time>
      </trkpt>
      <trkpt lat="45.38012" lon="5.64169">
        <ele>449</ele>
        <time>2016-05-27T05:25:21Z</time>
      </trkpt>
      <trkpt lat="45.38011" lon="5.64169">
        <ele>449</ele>
        <time>2016-05-27T05:27:21Z</time>
      </trkpt>
      <trkpt lat="45.3801" lon="5.64169">
        <ele>449</ele>
        <time>2016-05-27T05:29:21Z</time>
      </trkpt>
      <trkpt lat="45.38009" lon="5.64169">
        <ele>449</ele>
        <time>2016-05-27T05:31:21Z</time>
      </trkpt>
      <trkpt lat="45.38008" lon="5.6417">
        <ele>449</ele>
        <time>2016-05-27T05:33:21Z</time>
      </trkpt>
      <trkpt lat="45.38007" lon="5.6417">
        <ele>449</ele>
        <time>2016-05-27T05:35:21Z</time>
      </trkpt>
      <trkpt lat="45.38006" lon="5.64171">
        <ele>449</ele>
        <time>2016-05-27T05:37:21Z</time>
      </trkpt>
      <trkpt lat="45.38005" lon="5.64172">
        <ele>449</ele>
        <time>2016-05-27T05:39:21Z</time>
      </trkpt>
      <trkpt lat="45.38004" lon="5.64173">
        <ele>449</ele>
        <time>2016-05-27T05:41:21Z</time>
      </trkpt>
      <trkpt lat="45.38004" lon="5.64174">
        <ele>449</ele>
        <time>2016-05-27T05:43:21Z</time>
      </trkpt>
      <trkpt lat="45.38003" lon="5.64174">
        <ele>449</ele>
        <time>2016-05-27T05:45:21Z</time>
      </trkpt>
      <trkpt lat="45.38003" lon="5.64175">
        <ele>449</ele>
        <time>2016-05-27T05:47:21Z</time>
      </trkpt>
      <trkpt lat="45.38002" lon="5.64176">
        <ele>449</ele>
        <time>2016-05-27T05:49:21Z</time>
      </trkpt>
      <trkpt lat="45.38002" lon="5.64177">
        <ele>449</ele>
        <time>2016-05-27T05:51:21Z</time>
      </trkpt>
      <trkpt lat="45.38002" lon="5.64178">
        <ele>449</ele>
        <time>2016-05-27T05:53:21Z</time>
      </trkpt>
      <trkpt lat="45.38001" lon="5.64178">
        <ele>449</ele>
        <time>2016-05-27T05:55:21Z</time>
      </trkpt>
      <trkpt lat="45.38001" lon="5.64179">
        <ele>449</ele>
        <time>2016-05-27T05:57:21Z</time>
      </trkpt>
      <trkpt lat="45.38001" lon="5.6418">
        <ele>449</ele>
        <time>2016-05-27T05:59:21Z</time>
      </trkpt>
      <trkpt lat="45.38001" lon="5.64181">
        <ele>449</ele>
        <time>2016-05-27T06:01:21Z</time>
      </trkpt>
      <trkpt lat="45.38001" lon="5.64182">
        <ele>449</ele>
        <time>2016-05-27T06:03:21Z</time>
      </trkpt>
      <trkpt lat="45.38001" lon="5.64183">
        <ele>449</ele>
        <time>2016-05-27T06:05:21Z</time>
      </trkpt>
      <trkpt lat="45.38001" lon="5.64184">
        <ele>449</ele>
        <time>2016-05-27T06:07:21Z</time>
      </trkpt>
      <trkpt lat="45.38001" lon="5.64185">
        <ele>449</ele>
        <time>2016-05-27T06:09:21Z</time>
      </trkpt>
      <trkpt lat="45.38001" lon="5.64186">
        <ele>449</ele>
        <time>2016-05-27T06:11:21Z</time>
      </trkpt>
      <trkpt lat="45.38001" lon="5.64187">
        <ele>449</ele>
        <time>2016-05-27T06:13:21Z</time>
      </trkpt>
      <trkpt lat="45.38001" lon="5.64188">
        <ele>449</ele>
        <time>2016-05-27T06:15:21Z</time>
      </trkpt>
      <trkpt lat="45.38001" lon="5.64189">
        <ele>450</ele>
        <time>2016-05-27T06:17:21Z</time>
      </trkpt>
      <trkpt lat="45.38001" lon="5.6419">
        <ele>450</ele>
        <time>2016-05-27T06:19:21Z</time>
      </trkpt>
      <trkpt lat="45.38002" lon="5.64191">
        <ele>450</ele>
        <time>2016-05-27T06:21:21Z</time>
      </trkpt>
      <trkpt lat="45.38002" lon="5.64192">
        <ele>450</ele>
        <time>2016-05-27T06:23:21Z</time>
      </trkpt>
      <trkpt lat="45.37989" lon="5.64205">
        <ele>450</ele>
        <time>2016-05-27T06:25:21Z</time>
      </trkpt>
      <trkpt lat="45.37985" lon="5.64208">
        <ele>450</ele>
        <time>2016-05-27T06:27:21Z</time>
      </trkpt>
      <trkpt lat="45.3798" lon="5.64214">
        <ele>450</ele>
        <time>2016-05-27T06:29:21Z</time>
      </trkpt>
      <trkpt lat="45.37976" lon="5.6422">
        <ele>451</ele>
        <time>2016-05-27T06:31:21Z</time>
      </trkpt>
      <trkpt lat="45.37974" lon="5.64224">
        <ele>451</ele>
        <time>2016-05-27T06:33:21Z</time>
      </trkpt>
      <trkpt lat="45.37934" lon="5.64264">
        <ele>452</ele>
        <time>2016-05-27T06:35:21Z</time>
      </trkpt>
      <trkpt lat="45.37918" lon="5.64285">
        <ele>452</ele>
        <time>2016-05-27T06:37:21Z</time>
      </trkpt>
      <trkpt lat="45.37908" lon="5.64301">
        <ele>451</ele>
        <time>2016-05-27T06:39:21Z</time>
      </trkpt>
      <trkpt lat="45.37904" lon="5.64312">
        <ele>451</ele>
        <time>2016-05-27T06:41:21Z</time>
      </trkpt>
      <trkpt lat="45.37902" lon="5.64321">
        <ele>451</ele>
        <time>2016-05-27T06:43:21Z</time>
      </trkpt>
      <trkpt lat="45.3789" lon="5.64383">
        <ele>452</ele>
        <time>2016-05-27T06:45:21Z</time>
      </trkpt>
      <trkpt lat="45.37889" lon="5.64386">
        <ele>452</ele>
        <time>2016-05-27T06:47:21Z</time>
      </trkpt>
      <trkpt lat="45.37888" lon="5.64388">
        <ele>452</ele>
        <time>2016-05-27T06:49:21Z</time>
      </trkpt>
      <trkpt lat="45.37887" lon="5.64392">
        <ele>452</ele>
        <time>2016-05-27T06:51:21Z</time>
      </trkpt>
      <trkpt lat="45.37888" lon="5.64411">
        <ele>452</ele>
        <time>2016-05-27T06:53:21Z</time>
      </trkpt>
      <trkpt lat="45.37888" lon="5.64411">
        <ele>452</ele>
        <time>2016-05-27T06:55:21Z</time>
      </trkpt>
      <trkpt lat="45.37888" lon="5.64412">
        <ele>452</ele>
        <time>2016-05-27T06:57:21Z</time>
      </trkpt>
      <trkpt lat="45.37887" lon="5.64412">
        <ele>452</ele>
        <time>2016-05-27T06:59:21Z</time>
      </trkpt>
      <trkpt lat="45.37887" lon="5.64413">
        <ele>452</ele>
        <time>2016-05-27T07:01:21Z</time>
      </trkpt>
      <trkpt lat="45.37887" lon="5.64414">
        <ele>452</ele>
        <time>2016-05-27T07:03:21Z</time>
      </trkpt>
      <trkpt lat="45.37886" lon="5.64414">
        <ele>452</ele>
        <time>2016-05-27T07:05:21Z</time>
      </trkpt>
      <trkpt lat="45.37886" lon="5.64415">
        <ele>452</ele>
        <time>2016-05-27T07:07:21Z</time>
      </trkpt>
      <trkpt lat="45.37886" lon="5.64416">
        <ele>452</ele>
        <time>2016-05-27T07:09:21Z</time>
      </trkpt>
      <trkpt lat="45.37885" lon="5.64416">
        <ele>452</ele>
        <time>2016-05-27T07:11:21Z</time>
      </trkpt>
      <trkpt lat="45.37885" lon="5.64417">
        <ele>452</ele>
        <time>2016-05-27T07:13:21Z</time>
      </trkpt>
      <trkpt lat="45.37885" lon="5.64418">
        <ele>452</ele>
        <time>2016-05-27T07:15:21Z</time>
      </trkpt>
      <trkpt lat="45.37885" lon="5.64419">
        <ele>452</ele>
        <time>2016-05-27T07:17:21Z</time>
      </trkpt>
      <trkpt lat="45.37885" lon="5.6442">
        <ele>452</ele>
        <time>2016-05-27T07:19:21Z</time>
      </trkpt>
      <trkpt lat="45.37885" lon="5.64421">
        <ele>452</ele>
        <time>2016-05-27T07:21:21Z</time>
      </trkpt>
      <trkpt lat="45.37885" lon="5.64422">
        <ele>452</ele>
        <time>2016-05-27T07:23:21Z</time>
      </trkpt>
      <trkpt lat="45.37885" lon="5.64423">
        <ele>452</ele>
        <time>2016-05-27T07:25:21Z</time>
      </trkpt>
      <trkpt lat="45.37885" lon="5.64424">
        <ele>452</ele>
        <time>2016-05-27T07:27:21Z</time>
      </trkpt>
      <trkpt lat="45.37883" lon="5.64426">
        <ele>452</ele>
        <time>2016-05-27T07:29:21Z</time>
      </trkpt>
      <trkpt lat="45.37882" lon="5.64427">
        <ele>452</ele>
        <time>2016-05-27T07:31:21Z</time>
      </trkpt>
      <trkpt lat="45.37881" lon="5.64429">
        <ele>452</ele>
        <time>2016-05-27T07:33:21Z</time>
      </trkpt>
      <trkpt lat="45.3788" lon="5.64432">
        <ele>452</ele>
        <time>2016-05-27T07:35:21Z</time>
      </trkpt>
      <trkpt lat="45.37879" lon="5.64435">
        <ele>452</ele>
        <time>2016-05-27T07:37:21Z</time>
      </trkpt>
      <trkpt lat="45.37874" lon="5.64456">
        <ele>452</ele>
        <time>2016-05-27T07:39:21Z</time>
      </trkpt>
      <trkpt lat="45.37874" lon="5.64475">
        <ele>453</ele>
        <time>2016-05-27T07:41:21Z</time>
      </trkpt>
      <trkpt lat="45.37874" lon="5.64487">
        <ele>453</ele>
        <time>2016-05-27T07:43:21Z</time>
      </trkpt>
      <trkpt lat="45.37875" lon="5.64503">
        <ele>453</ele>
        <time>2016-05-27T07:45:21Z</time>
      </trkpt>
      <trkpt lat="45.37876" lon="5.64517">
        <ele>453</ele>
        <time>2016-05-27T07:47:21Z</time>
      </trkpt>
      <trkpt lat="45.37877" lon="5.64524">
        <ele>454</ele>
        <time>2016-05-27T07:49:21Z</time>
      </trkpt>
      <trkpt lat="45.37877" lon="5.6453">
        <ele>454</ele>
        <time>2016-05-27T07:51:21Z</time>
      </trkpt>
      <trkpt lat="45.37876" lon="5.64536">
        <ele>454</ele>
        <time>2016-05-27T07:53:21Z</time>
      </trkpt>
      <trkpt lat="45.37876" lon="5.64541">
        <ele>454</ele>
        <time>2016-05-27T07:55:21Z</time>
      </trkpt>
      <trkpt lat="45.37874" lon="5.64555">
        <ele>454</ele>
        <time>2016-05-27T07:57:21Z</time>
      </trkpt>
      <trkpt lat="45.3787" lon="5.64568">
        <ele>455</ele>
        <time>2016-05-27T07:59:21Z</time>
      </trkpt>
      <trkpt lat="45.37866" lon="5.6458">
        <ele>455</ele>
        <time>2016-05-27T08:01:21Z</time>
      </trkpt>
      <trkpt lat="45.37863" lon="5.64587">
        <ele>455</ele>
        <time>2016-05-27T08:03:21Z</time>
      </trkpt>
      <trkpt lat="45.37856" lon="5.64602">
        <ele>455</ele>
        <time>2016-05-27T08:05:21Z</time>
      </trkpt>
      <trkpt lat="45.37853" lon="5.64608">
        <ele>455</ele>
        <time>2016-05-27T08:07:21Z</time>
      </trkpt>
      <trkpt lat="45.3785" lon="5.64615">
        <ele>455</ele>
        <time>2016-05-27T08:09:21Z</time>
      </trkpt>
      <trkpt lat="45.37844" lon="5.64629">
        <ele>455</ele>
        <time>2016-05-27T08:11:21Z</time>
      </trkpt>
      <trkpt lat="45.3784" lon="5.64637">
        <ele>455</ele>
        <time>2016-05-27T08:13:21Z</time>
      </trkpt>
      <trkpt lat="45.37837" lon="5.64644">
        <ele>455</ele>
        <time>2016-05-27T08:15:21Z</time>
      </trkpt>
      <trkpt lat="45.3783" lon="5.64657">
        <ele>455</ele>
        <time>2016-05-27T08:17:21Z</time>
      </trkpt>
      <trkpt lat="45.37815" lon="5.64676">
        <ele>453</ele>
        <time>2016-05-27T08:19:21Z</time>
      </trkpt>
      <trkpt lat="45.37815" lon="5.64676">
        <ele>453</ele>
        <time>2016-05-27T08:21:21Z</time>
      </trkpt>
      <trkpt lat="45.37802" lon="5.64665">
        <ele>452</ele>
        <time>2016-05-27T08:23:21Z</time>
      </trkpt>
      <trkpt lat="45.378" lon="5.64664">
        <ele>451</ele>
        <time>2016-05-27T08:25:21Z</time>
      </trkpt>
      <trkpt lat="45.37791" lon="5.64653">
        <ele>451</ele>
        <time>2016-05-27T08:27:21Z</time>
      </trkpt>
      <trkpt lat="45.37771" lon="5.64632">
        <ele>450</ele>
        <time>2016-05-27T08:29:21Z</time>
      </trkpt>
      <trkpt lat="45.3776" lon="5.6462">
        <ele>449</ele>
        <time>2016-05-27T08:31:21Z</time>
      </trkpt>
      <trkpt lat="45.3771" lon="5.64569">
        <ele>447</ele>
        <time>2016-05-27T08:33:21Z</time>
      </trkpt>
      <trkpt lat="45.37699" lon="5.64556">
        <ele>448</ele>
        <time>2016-05-27T08:35:21Z</time>
      </trkpt>
      <trkpt lat="45.37691" lon="5.64548">
        <ele>448</ele>
        <time>2016-05-27T08:37:21Z</time>
      </trkpt>
      <trkpt lat="45.37681" lon="5.64541">
        <ele>448</ele>
        <time>2016-05-27T08:39:21Z</time>
      </trkpt>
      <trkpt lat="45.37675" lon="5.64537">
        <ele>448</ele>
        <time>2016-05-27T08:41:21Z</time>
      </trkpt>
      <trkpt lat="45.3767" lon="5.64534">
        <ele>448</ele>
        <time>2016-05-27T08:43:21Z</time>
      </trkpt>
      <trkpt lat="45.37664" lon="5.64532">
        <ele>448</ele>
        <time>2016-05-27T08:45:21Z</time>
      </trkpt>
      <trkpt lat="45.37659" lon="5.6453">
        <ele>447</ele>
        <time>2016-05-27T08:47:21Z</time>
      </trkpt>
      <trkpt lat="45.37653" lon="5.64529">
        <ele>447</ele>
        <time>2016-05-27T08:49:21Z</time>
      </trkpt>
      <trkpt lat="45.37636" lon="5.64526">
        <ele>446</ele>
        <time>2016-05-27T08:51:21Z</time>
      </trkpt>
      <trkpt lat="45.37586" lon="5.64517">
        <ele>443</ele>
        <time>2016-05-27T08:53:21Z</time>
      </trkpt>
      <trkpt lat="45.37538" lon="5.64509">
        <ele>441</ele>
        <time>2016-05-27T08:55:21Z</time>
      </trkpt>
      <trkpt lat="45.37521" lon="5.64506">
        <ele>441</ele>
        <time>2016-05-27T08:57:21Z</time>
      </trkpt>
      <trkpt lat="45.37506" lon="5.64502">
        <ele>441</ele>
        <time>2016-05-27T08:59:21Z</time>
      </trkpt>
      <trkpt lat="45.3749" lon="5.64495">
        <ele>440</ele>
        <time>2016-05-27T09:01:21Z</time>
      </trkpt>
      <trkpt lat="45.37475" lon="5.64487">
        <ele>439</ele>
        <time>2016-05-27T09:03:21Z</time>
      </trkpt>
      <trkpt lat="45.37417" lon="5.64449">
        <ele>439</ele>
        <time>2016-05-27T09:05:21Z</time>
      </trkpt>
      <trkpt lat="45.37366" lon="5.64417">
        <ele>438</ele>
        <time>2016-05-27T09:07:21Z</time>
      </trkpt>
      <trkpt lat="45.37328" lon="5.6439">
        <ele>438</ele>
        <time>2016-05-27T09:09:21Z</time>
      </trkpt>
      <trkpt lat="45.37258" lon="5.64341">
        <ele>438</ele>
        <time>2016-05-27T09:11:21Z</time>
      </trkpt>
      <trkpt lat="45.37215" lon="5.64312">
        <ele>433</ele>
        <time>2016-05-27T09:13:21Z</time>
      </trkpt>
      <trkpt lat="45.37199" lon="5.64302">
        <ele>431</ele>
        <time>2016-05-27T09:15:21Z</time>
      </trkpt>
      <trkpt lat="45.37185" lon="5.64294">
        <ele>429</ele>
        <time>2016-05-27T09:17:21Z</time>
      </trkpt>
      <trkpt lat="45.37161" lon="5.64283">
        <ele>427</ele>
        <time>2016-05-27T09:19:21Z</time>
      </trkpt>
      <trkpt lat="45.37137" lon="5.6427">
        <ele>425</ele>
        <time>2016-05-27T09:21:21Z</time>
      </trkpt>
      <trkpt lat="45.3713" lon="5.64265">
        <ele>425</ele>
        <time>2016-05-27T09:23:21Z</time>
      </trkpt>
      <trkpt lat="45.37125" lon="5.6426">
        <ele>425</ele>
        <time>2016-05-27T09:25:21Z</time>
      </trkpt>
      <trkpt lat="45.3712" lon="5.64254">
        <ele>425</ele>
        <time>2016-05-27T09:27:21Z</time>
      </trkpt>
      <trkpt lat="45.37113" lon="5.64243">
        <ele>425</ele>
        <time>2016-05-27T09:29:21Z</time>
      </trkpt>
      <trkpt lat="45.37107" lon="5.64231">
        <ele>424</ele>
        <time>2016-05-27T09:31:21Z</time>
      </trkpt>
      <trkpt lat="45.37094" lon="5.642">
        <ele>423</ele>
        <time>2016-05-27T09:33:21Z</time>
      </trkpt>
      <trkpt lat="45.37079" lon="5.64161">
        <ele>423</ele>
        <time>2016-05-27T09:35:21Z</time>
      </trkpt>
      <trkpt lat="45.37077" lon="5.64157">
        <ele>422</ele>
        <time>2016-05-27T09:37:21Z</time>
      </trkpt>
      <trkpt lat="45.36988" lon="5.6393">
        <ele>420</ele>
        <time>2016-05-27T09:39:21Z</time>
      </trkpt>
      <trkpt lat="45.36953" lon="5.6384">
        <ele>418</ele>
        <time>2016-05-27T09:41:21Z</time>
      </trkpt>
      <trkpt lat="45.36889" lon="5.63674">
        <ele>415</ele>
        <time>2016-05-27T09:43:21Z</time>
      </trkpt>
      <trkpt lat="45.36856" lon="5.6359">
        <ele>414</ele>
        <time>2016-05-27T09:45:21Z</time>
      </trkpt>
      <trkpt lat="45.36852" lon="5.63579">
        <ele>414</ele>
        <time>2016-05-27T09:47:21Z</time>
      </trkpt>
      <trkpt lat="45.36842" lon="5.63554">
        <ele>414</ele>
        <time>2016-05-27T09:49:21Z</time>
      </trkpt>
      <trkpt lat="45.36824" lon="5.63508">
        <ele>414</ele>
        <time>2016-05-27T09:51:21Z</time>
      </trkpt>
      <trkpt lat="45.36783" lon="5.63402">
        <ele>411</ele>
        <time>2016-05-27T09:53:21Z</time>
      </trkpt>
      <trkpt lat="45.36768" lon="5.63363">
        <ele>410</ele>
        <time>2016-05-27T09:55:21Z</time>
      </trkpt>
      <trkpt lat="45.36765" lon="5.63353">
        <ele>410</ele>
        <time>2016-05-27T09:57:21Z</time>
      </trkpt>
      <trkpt lat="45.36761" lon="5.6334">
        <ele>410</ele>
        <time>2016-05-27T09:59:21Z</time>
      </trkpt>
      <trkpt lat="45.36756" lon="5.63325">
        <ele>409</ele>
        <time>2016-05-27T10:01:21Z</time>
      </trkpt>
      <trkpt lat="45.36752" lon="5.63307">
        <ele>409</ele>
        <time>2016-05-27T10:03:21Z</time>
      </trkpt>
      <trkpt lat="45.36748" lon="5.63289">
        <ele>408</ele>
        <time>2016-05-27T10:05:21Z</time>
      </trkpt>
      <trkpt lat="45.36746" lon="5.63276">
        <ele>408</ele>
        <time>2016-05-27T10:07:21Z</time>
      </trkpt>
      <trkpt lat="45.36743" lon="5.63258">
        <ele>407</ele>
        <time>2016-05-27T10:09:21Z</time>
      </trkpt>
      <trkpt lat="45.36742" lon="5.63246">
        <ele>407</ele>
        <time>2016-05-27T10:11:21Z</time>
      </trkpt>
      <trkpt lat="45.3674" lon="5.63223">
        <ele>407</ele>
        <time>2016-05-27T10:13:21Z</time>
      </trkpt>
      <trkpt lat="45.36738" lon="5.63189">
        <ele>407</ele>
        <time>2016-05-27T10:15:21Z</time>
      </trkpt>
      <trkpt lat="45.3672" lon="5.62966">
        <ele>398</ele>
        <time>2016-05-27T10:17:21Z</time>
      </trkpt>
      <trkpt lat="45.36715" lon="5.62904">
        <ele>396</ele>
        <time>2016-05-27T10:19:21Z</time>
      </trkpt>
      <trkpt lat="45.36714" lon="5.62896">
        <ele>395</ele>
        <time>2016-05-27T10:21:21Z</time>
      </trkpt>
      <trkpt lat="45.3671" lon="5.62843">
        <ele>395</ele>
        <time>2016-05-27T10:23:21Z</time>
      </trkpt>
      <trkpt lat="45.36698" lon="5.62712">
        <ele>393</ele>
        <time>2016-05-27T10:25:21Z</time>
      </trkpt>
      <trkpt lat="45.36697" lon="5.62699">
        <ele>393</ele>
        <time>2016-05-27T10:27:21Z</time>
      </trkpt>
      <trkpt lat="45.36687" lon="5.62583">
        <ele>395</ele>
        <time>2016-05-27T10:29:21Z</time>
      </trkpt>
      <trkpt lat="45.36686" lon="5.62571">
        <ele>395</ele>
        <time>2016-05-27T10:31:21Z</time>
      </trkpt>
      <trkpt lat="45.36685" lon="5.6256">
        <ele>396</ele>
        <time>2016-05-27T10:33:21Z</time>
      </trkpt>
      <trkpt lat="45.36682" lon="5.62522">
        <ele>397</ele>
        <time>2016-05-27T10:35:21Z</time>
      </trkpt>
      <trkpt lat="45.36682" lon="5.62522">
        <ele>397</ele>
        <time>2016-05-27T10:37:21Z</time>
      </trkpt>
      <trkpt lat="45.36687" lon="5.6252">
        <ele>397</ele>
        <time>2016-05-27T10:39:21Z</time>
      </trkpt>
      <trkpt lat="45.36688" lon="5.62518">
        <ele>397</ele>
        <time>2016-05-27T10:41:21Z</time>
      </trkpt>
      <trkpt lat="45.36688" lon="5.62517">
        <ele>397</ele>
        <time>2016-05-27T10:43:21Z</time>
      </trkpt>
      <trkpt lat="45.3669" lon="5.62515">
        <ele>397</ele>
        <time>2016-05-27T10:45:21Z</time>
      </trkpt>
      <trkpt lat="45.36693" lon="5.62505">
        <ele>397</ele>
        <time>2016-05-27T10:47:21Z</time>
      </trkpt>
      <trkpt lat="45.36697" lon="5.6248">
        <ele>398</ele>
        <time>2016-05-27T10:49:21Z</time>
      </trkpt>
      <trkpt lat="45.367" lon="5.62465">
        <ele>398</ele>
        <time>2016-05-27T10:51:21Z</time>
      </trkpt>
      <trkpt lat="45.36701" lon="5.62459">
        <ele>398</ele>
        <time>2016-05-27T10:53:21Z</time>
      </trkpt>
      <trkpt lat="45.367" lon="5.62453">
        <ele>398</ele>
        <time>2016-05-27T10:55:21Z</time>
      </trkpt>
      <trkpt lat="45.367" lon="5.62449">
        <ele>398</ele>
        <time>2016-05-27T10:57:21Z</time>
      </trkpt>
      <trkpt lat="45.36696" lon="5.6244">
        <ele>398</ele>
        <time>2016-05-27T10:59:21Z</time>
      </trkpt>
      <trkpt lat="45.36688" lon="5.62421">
        <ele>399</ele>
        <time>2016-05-27T11:01:21Z</time>
      </trkpt>
      <trkpt lat="45.36672" lon="5.62395">
        <ele>400</ele>
        <time>2016-05-27T11:03:21Z</time>
      </trkpt>
      <trkpt lat="45.36669" lon="5.62392">
        <ele>400</ele>
        <time>2016-05-27T11:05:21Z</time>
      </trkpt>
      <trkpt lat="45.36667" lon="5.6239">
        <ele>401</ele>
        <time>2016-05-27T11:07:21Z</time>
      </trkpt>
      <trkpt lat="45.36663" lon="5.62387">
        <ele>401</ele>
        <time>2016-05-27T11:09:21Z</time>
      </trkpt>
      <trkpt lat="45.36663" lon="5.62387">
        <ele>401</ele>
        <time>2016-05-27T11:11:21Z</time>
      </trkpt>
      <trkpt lat="45.36658" lon="5.62369">
        <ele>402</ele>
        <time>2016-05-27T11:13:21Z</time>
      </trkpt>
      <trkpt lat="45.36653" lon="5.62352">
        <ele>404</ele>
        <time>2016-05-27T11:15:21Z</time>
      </trkpt>
      <trkpt lat="45.36647" lon="5.62335">
        <ele>405</ele>
        <time>2016-05-27T11:17:21Z</time>
      </trkpt>
      <trkpt lat="45.36642" lon="5.62317">
        <ele>406</ele>
        <time>2016-05-27T11:19:21Z</time>
      </trkpt>
      <trkpt lat="45.36639" lon="5.62312">
        <ele>406</ele>
        <time>2016-05-27T11:21:21Z</time>
      </trkpt>
      <trkpt lat="45.36624" lon="5.62269">
        <ele>409</ele>
        <time>2016-05-27T11:23:21Z</time>
      </trkpt>
      <trkpt lat="45.3662" lon="5.62257">
        <ele>410</ele>
        <time>2016-05-27T11:25:21Z</time>
      </trkpt>
      <trkpt lat="45.36614" lon="5.62243">
        <ele>411</ele>
        <time>2016-05-27T11:27:21Z</time>
      </trkpt>
      <trkpt lat="45.36607" lon="5.62228">
        <ele>411</ele>
        <time>2016-05-27T11:29:21Z</time>
      </trkpt>
      <trkpt lat="45.36602" lon="5.62218">
        <ele>411</ele>
        <time>2016-05-27T11:31:21Z</time>
      </trkpt>
      <trkpt lat="45.36594" lon="5.62206">
        <ele>411</ele>
        <time>2016-05-27T11:33:21Z</time>
      </trkpt>
      <trkpt lat="45.36581" lon="5.62189">
        <ele>411</ele>
        <time>2016-05-27T11:35:21Z</time>
      </trkpt>
      <trkpt lat="45.36563" lon="5.62169">
        <ele>410</ele>
        <time>2016-05-27T11:37:21Z</time>
      </trkpt>
      <trkpt lat="45.36552" lon="5.62157">
        <ele>410</ele>
        <time>2016-05-27T11:39:21Z</time>
      </trkpt>
      <trkpt lat="45.36548" lon="5.62152">
        <ele>410</ele>
        <time>2016-05-27T11:41:21Z</time>
      </trkpt>
      <trkpt lat="45.36545" lon="5.62148">
        <ele>410</ele>
        <time>2016-05-27T11:43:21Z</time>
      </trkpt>
      <trkpt lat="45.36541" lon="5.62143">
        <ele>409</ele>
        <time>2016-05-27T11:45:21Z</time>
      </trkpt>
      <trkpt lat="45.3654" lon="5.62141">
        <ele>409</ele>
        <time>2016-05-27T11:47:21Z</time>
      </trkpt>
      <trkpt lat="45.36534" lon="5.62132">
        <ele>409</ele>
        <time>2016-05-27T11:49:21Z</time>
      </trkpt>
      <trkpt lat="45.36531" lon="5.62126">
        <ele>408</ele>
        <time>2016-05-27T11:51:21Z</time>
      </trkpt>
      <trkpt lat="45.36529" lon="5.6212">
        <ele>407</ele>
        <time>2016-05-27T11:53:21Z</time>
      </trkpt>
      <trkpt lat="45.36529" lon="5.6212">
        <ele>407</ele>
        <time>2016-05-27T11:55:21Z</time>
      </trkpt>
      <trkpt lat="45.36527" lon="5.6211">
        <ele>406</ele>
        <time>2016-05-27T11:57:21Z</time>
      </trkpt>
      <trkpt lat="45.36526" lon="5.62108">
        <ele>406</ele>
        <time>2016-05-27T11:59:21Z</time>
      </trkpt>
      <trkpt lat="45.3652" lon="5.62108">
        <ele>406</ele>
        <time>2016-05-27T12:01:21Z</time>
      </trkpt>
      <trkpt lat="45.36513" lon="5.62107">
        <ele>405</ele>
        <time>2016-05-27T12:03:21Z</time>
      </trkpt>
      <trkpt lat="45.36506" lon="5.62107">
        <ele>405</ele>
        <time>2016-05-27T12:05:21Z</time>
      </trkpt>
      <trkpt lat="45.36496" lon="5.62107">
        <ele>404</ele>
        <time>2016-05-27T12:07:21Z</time>
      </trkpt>
      <trkpt lat="45.36492" lon="5.6211">
        <ele>404</ele>
        <time>2016-05-27T12:09:21Z</time>
      </trkpt>
      <trkpt lat="45.36471" lon="5.62112">
        <ele>403</ele>
        <time>2016-05-27T12:11:21Z</time>
      </trkpt>
      <trkpt lat="45.36421" lon="5.62118">
        <ele>400</ele>
        <time>2016-05-27T12:13:21Z</time>
      </trkpt>
      <trkpt lat="45.36411" lon="5.62121">
        <ele>400</ele>
        <time>2016-05-27T12:15:21Z</time>
      </trkpt>
      <trkpt lat="45.36407" lon="5.62123">
        <ele>400</ele>
        <time>2016-05-27T12:17:21Z</time>
      </trkpt>
      <trkpt lat="45.36404" lon="5.62125">
        <ele>401</ele>
        <time>2016-05-27T12:19:21Z</time>
      </trkpt>
      <trkpt lat="45.364" lon="5.62128">
        <ele>401</ele>
        <time>2016-05-27T12:21:21Z</time>
      </trkpt>
      <trkpt lat="45.36387" lon="5.62138">
        <ele>402</ele>
        <time>2016-05-27T12:23:21Z</time>
      </trkpt>
      <trkpt lat="45.36371" lon="5.62147">
        <ele>402</ele>
        <time>2016-05-27T12:25:21Z</time>
      </trkpt>
      <trkpt lat="45.36355" lon="5.62154">
        <ele>401</ele>
        <time>2016-05-27T12:27:21Z</time>
      </trkpt>
      <trkpt lat="45.36332" lon="5.62158">
        <ele>399</ele>
        <time>2016-05-27T12:29:21Z</time>
      </trkpt>
      <trkpt lat="45.36315" lon="5.62158">
        <ele>397</ele>
        <time>2016-05-27T12:31:21Z</time>
      </trkpt>
      <trkpt lat="45.36287" lon="5.62158">
        <ele>395</ele>
        <time>2016-05-27T12:33:21Z</time>
      </trkpt>
      <trkpt lat="45.36276" lon="5.62159">
        <ele>394</ele>
        <time>2016-05-27T12:35:21Z</time>
      </trkpt>
      <trkpt lat="45.36261" lon="5.62165">
        <ele>393</ele>
        <time>2016-05-27T12:37:21Z</time>
      </trkpt>
      <trkpt lat="45.36237" lon="5.62176">
        <ele>393</ele>
        <time>2016-05-27T12:39:21Z</time>
      </trkpt>
      <trkpt lat="45.36219" lon="5.62182">
        <ele>393</ele>
        <time>2016-05-27T12:41:21Z</time>
      </trkpt>
      <trkpt lat="45.36203" lon="5.62184">
        <ele>391</ele>
        <time>2016-05-27T12:43:21Z</time>
      </trkpt>
      <trkpt lat="45.36185" lon="5.62184">
        <ele>389</ele>
        <time>2016-05-27T12:45:21Z</time>
      </trkpt>
      <trkpt lat="45.36164" lon="5.62187">
        <ele>387</ele>
        <time>2016-05-27T12:47:21Z</time>
      </trkpt>
      <trkpt lat="45.3615" lon="5.62193">
        <ele>387</ele>
        <time>2016-05-27T12:49:21Z</time>
      </trkpt>
      <trkpt lat="45.361" lon="5.62217">
        <ele>382</ele>
        <time>2016-05-27T12:51:21Z</time>
      </trkpt>
      <trkpt lat="45.36022" lon="5.62251">
        <ele>377</ele>
        <time>2016-05-27T12:53:21Z</time>
      </trkpt>
      <trkpt lat="45.35995" lon="5.62264">
        <ele>376</ele>
        <time>2016-05-27T12:55:21Z</time>
      </trkpt>
      <trkpt lat="45.35978" lon="5.62272">
        <ele>375</ele>
        <time>2016-05-27T12:57:21Z</time>
      </trkpt>
      <trkpt lat="45.35949" lon="5.62282">
        <ele>373</ele>
        <time>2016-05-27T12:59:21Z</time>
      </trkpt>
      <trkpt lat="45.3593" lon="5.62285">
        <ele>371</ele>
        <time>2016-05-27T13:01:21Z</time>
      </trkpt>
      <trkpt lat="45.35922" lon="5.62286">
        <ele>371</ele>
        <time>2016-05-27T13:03:21Z</time>
      </trkpt>
      <trkpt lat="45.3591" lon="5.62285">
        <ele>370</ele>
        <time>2016-05-27T13:05:21Z</time>
      </trkpt>
      <trkpt lat="45.35888" lon="5.62283">
        <ele>369</ele>
        <time>2016-05-27T13:07:21Z</time>
      </trkpt>
      <trkpt lat="45.35876" lon="5.62281">
        <ele>368</ele>
        <time>2016-05-27T13:09:21Z</time>
      </trkpt>
      <trkpt lat="45.35868" lon="5.62278">
        <ele>368</ele>
        <time>2016-05-27T13:11:21Z</time>
      </trkpt>
      <trkpt lat="45.35858" lon="5.62273">
        <ele>367</ele>
        <time>2016-05-27T13:13:21Z</time>
      </trkpt>
      <trkpt lat="45.35847" lon="5.62265">
        <ele>366</ele>
        <time>2016-05-27T13:15:21Z</time>
      </trkpt>
      <trkpt lat="45.35825" lon="5.62247">
        <ele>365</ele>
        <time>2016-05-27T13:17:21Z</time>
      </trkpt>
      <trkpt lat="45.35806" lon="5.6223">
        <ele>364</ele>
        <time>2016-05-27T13:19:21Z</time>
      </trkpt>
      <trkpt lat="45.35794" lon="5.62218">
        <ele>363</ele>
        <time>2016-05-27T13:21:21Z</time>
      </trkpt>
      <trkpt lat="45.35767" lon="5.62195">
        <ele>362</ele>
        <time>2016-05-27T13:23:21Z</time>
      </trkpt>
      <trkpt lat="45.35752" lon="5.62186">
        <ele>361</ele>
        <time>2016-05-27T13:25:21Z</time>
      </trkpt>
      <trkpt lat="45.35743" lon="5.62184">
        <ele>360</ele>
        <time>2016-05-27T13:27:21Z</time>
      </trkpt>
      <trkpt lat="45.35683" lon="5.62177">
        <ele>358</ele>
        <time>2016-05-27T13:29:21Z</time>
      </trkpt>
      <trkpt lat="45.35677" lon="5.62175">
        <ele>357</ele>
        <time>2016-05-27T13:31:21Z</time>
      </trkpt>
      <trkpt lat="45.35667" lon="5.62171">
        <ele>357</ele>
        <time>2016-05-27T13:33:21Z</time>
      </trkpt>
      <trkpt lat="45.35659" lon="5.62167">
        <ele>356</ele>
        <time>2016-05-27T13:35:21Z</time>
      </trkpt>
      <trkpt lat="45.35645" lon="5.62154">
        <ele>356</ele>
        <time>2016-05-27T13:37:21Z</time>
      </trkpt>
      <trkpt lat="45.35638" lon="5.62145">
        <ele>356</ele>
        <time>2016-05-27T13:39:21Z</time>
      </trkpt>
      <trkpt lat="45.35625" lon="5.6213">
        <ele>356</ele>
        <time>2016-05-27T13:41:21Z</time>
      </trkpt>
      <trkpt lat="45.3561" lon="5.62107">
        <ele>355</ele>
        <time>2016-05-27T13:43:21Z</time>
      </trkpt>
      <trkpt lat="45.35605" lon="5.62094">
        <ele>355</ele>
        <time>2016-05-27T13:45:21Z</time>
      </trkpt>
      <trkpt lat="45.35599" lon="5.62079">
        <ele>355</ele>
        <time>2016-05-27T13:47:21Z</time>
      </trkpt>
      <trkpt lat="45.3559" lon="5.6204">
        <ele>352</ele>
        <time>2016-05-27T13:49:21Z</time>
      </trkpt>
      <trkpt lat="45.35584" lon="5.62009">
        <ele>350</ele>
        <time>2016-05-27T13:51:21Z</time>
      </trkpt>
      <trkpt lat="45.35582" lon="5.61998">
        <ele>349</ele>
        <time>2016-05-27T13:53:21Z</time>
      </trkpt>
      <trkpt lat="45.35582" lon="5.6199">
        <ele>349</ele>
        <time>2016-05-27T13:55:21Z</time>
      </trkpt>
      <trkpt lat="45.35581" lon="5.61967">
        <ele>349</ele>
        <time>2016-05-27T13:57:21Z</time>
      </trkpt>
      <trkpt lat="45.35582" lon="5.61911">
        <ele>348</ele>
        <time>2016-05-27T13:59:21Z</time>
      </trkpt>
      <trkpt lat="45.35584" lon="5.61874">
        <ele>346</ele>
        <time>2016-05-27T14:01:21Z</time>
      </trkpt>
      <trkpt lat="45.35584" lon="5.6186">
        <ele>345</ele>
        <time>2016-05-27T14:03:21Z</time>
      </trkpt>
      <trkpt lat="45.35581" lon="5.61809">
        <ele>344</ele>
        <time>2016-05-27T14:05:21Z</time>
      </trkpt>
      <trkpt lat="45.35583" lon="5.61797">
        <ele>344</ele>
        <time>2016-05-27T14:07:21Z</time>
      </trkpt>
      <trkpt lat="45.35582" lon="5.61778">
        <ele>344</ele>
        <time>2016-05-27T14:09:21Z</time>
      </trkpt>
      <trkpt lat="45.35578" lon="5.61761">
        <ele>344</ele>
        <time>2016-05-27T14:11:21Z</time>
      </trkpt>
      <trkpt lat="45.35574" lon="5.61749">
        <ele>344</ele>
        <time>2016-05-27T14:13:21Z</time>
      </trkpt>
      <trkpt lat="45.35572" lon="5.61747">
        <ele>344</ele>
        <time>2016-05-27T14:15:21Z</time>
      </trkpt>
      <trkpt lat="45.35568" lon="5.61735">
        <ele>344</ele>
        <time>2016-05-27T14:17:21Z</time>
      </trkpt>
      <trkpt lat="45.35561" lon="5.61717">
        <ele>345</ele>
        <time>2016-05-27T14:19:21Z</time>
      </trkpt>
      <trkpt lat="45.35554" lon="5.61694">
        <ele>345</ele>
        <time>2016-05-27T14:21:21Z</time>
      </trkpt>
      <trkpt lat="45.35552" lon="5.61683">
        <ele>345</ele>
        <time>2016-05-27T14:23:21Z</time>
      </trkpt>
      <trkpt lat="45.35553" lon="5.61678">
        <ele>345</ele>
        <time>2016-05-27T14:25:21Z</time>
      </trkpt>
      <trkpt lat="45.35554" lon="5.61675">
        <ele>345</ele>
        <time>2016-05-27T14:27:21Z</time>
      </trkpt>
      <trkpt lat="45.35554" lon="5.61672">
        <ele>345</ele>
        <time>2016-05-27T14:29:21Z</time>
      </trkpt>
      <trkpt lat="45.35556" lon="5.61665">
        <ele>345</ele>
        <time>2016-05-27T14:31:21Z</time>
      </trkpt>
      <trkpt lat="45.35558" lon="5.61664">
        <ele>345</ele>
        <time>2016-05-27T14:33:21Z</time>
      </trkpt>
      <trkpt lat="45.35564" lon="5.61657">
        <ele>344</ele>
        <time>2016-05-27T14:35:21Z</time>
      </trkpt>
      <trkpt lat="45.35581" lon="5.61645">
        <ele>343</ele>
        <time>2016-05-27T14:37:21Z</time>
      </trkpt>
      <trkpt lat="45.35593" lon="5.61638">
        <ele>341</ele>
        <time>2016-05-27T14:39:21Z</time>
      </trkpt>
      <trkpt lat="45.35598" lon="5.61634">
        <ele>341</ele>
        <time>2016-05-27T14:41:21Z</time>
      </trkpt>
      <trkpt lat="45.35601" lon="5.6163">
        <ele>340</ele>
        <time>2016-05-27T14:43:21Z</time>
      </trkpt>
      <trkpt lat="45.35604" lon="5.61624">
        <ele>339</ele>
        <time>2016-05-27T14:45:21Z</time>
      </trkpt>
      <trkpt lat="45.35608" lon="5.61606">
        <ele>337</ele>
        <time>2016-05-27T14:47:21Z</time>
      </trkpt>
      <trkpt lat="45.35608" lon="5.61596">
        <ele>336</ele>
        <time>2016-05-27T14:49:21Z</time>
      </trkpt>
      <trkpt lat="45.35608" lon="5.61589">
        <ele>335</ele>
        <time>2016-05-27T14:51:21Z</time>
      </trkpt>
      <trkpt lat="45.35607" lon="5.61582">
        <ele>335</ele>
        <time>2016-05-27T14:53:21Z</time>
      </trkpt>
      <trkpt lat="45.35605" lon="5.61576">
        <ele>334</ele>
        <time>2016-05-27T14:55:21Z</time>
      </trkpt>
      <trkpt lat="45.35602" lon="5.61569">
        <ele>333</ele>
        <time>2016-05-27T14:57:21Z</time>
      </trkpt>
      <trkpt lat="45.35589" lon="5.61552">
        <ele>332</ele>
        <time>2016-05-27T14:59:21Z</time>
      </trkpt>
      <trkpt lat="45.3557" lon="5.61533">
        <ele>330</ele>
        <time>2016-05-27T15:01:21Z</time>
      </trkpt>
      <trkpt lat="45.35566" lon="5.61529">
        <ele>330</ele>
        <time>2016-05-27T15:03:21Z</time>
      </trkpt>
      <trkpt lat="45.35558" lon="5.61525">
        <ele>330</ele>
        <time>2016-05-27T15:05:21Z</time>
      </trkpt>
      <trkpt lat="45.35549" lon="5.61521">
        <ele>329</ele>
        <time>2016-05-27T15:07:21Z</time>
      </trkpt>
      <trkpt lat="45.35527" lon="5.61517">
        <ele>330</ele>
        <time>2016-05-27T15:09:21Z</time>
      </trkpt>
      <trkpt lat="45.35521" lon="5.61516">
        <ele>330</ele>
        <time>2016-05-27T15:11:21Z</time>
      </trkpt>
      <trkpt lat="45.35514" lon="5.61517">
        <ele>330</ele>
        <time>2016-05-27T15:13:21Z</time>
      </trkpt>
      <trkpt lat="45.355" lon="5.61523">
        <ele>331</ele>
        <time>2016-05-27T15:15:21Z</time>
      </trkpt>
      <trkpt lat="45.35486" lon="5.6153">
        <ele>331</ele>
        <time>2016-05-27T15:17:21Z</time>
      </trkpt>
      <trkpt lat="45.35481" lon="5.61532">
        <ele>331</ele>
        <time>2016-05-27T15:19:21Z</time>
      </trkpt>
      <trkpt lat="45.35479" lon="5.61532">
        <ele>331</ele>
        <time>2016-05-27T15:21:21Z</time>
      </trkpt>
      <trkpt lat="45.35475" lon="5.61531">
        <ele>330</ele>
        <time>2016-05-27T15:23:21Z</time>
      </trkpt>
      <trkpt lat="45.35471" lon="5.61527">
        <ele>330</ele>
        <time>2016-05-27T15:25:21Z</time>
      </trkpt>
      <trkpt lat="45.35468" lon="5.61524">
        <ele>329</ele>
        <time>2016-05-27T15:27:21Z</time>
      </trkpt>
      <trkpt lat="45.35465" lon="5.6152">
        <ele>329</ele>
        <time>2016-05-27T15:29:21Z</time>
      </trkpt>
      <trkpt lat="45.35463" lon="5.61514">
        <ele>328</ele>
        <time>2016-05-27T15:31:21Z</time>
      </trkpt>
      <trkpt lat="45.35461" lon="5.61506">
        <ele>327</ele>
        <time>2016-05-27T15:33:21Z</time>
      </trkpt>
      <trkpt lat="45.35462" lon="5.61495">
        <ele>326</ele>
        <time>2016-05-27T15:35:21Z</time>
      </trkpt>
      <trkpt lat="45.35463" lon="5.61476">
        <ele>325</ele>
        <time>2016-05-27T15:37:21Z</time>
      </trkpt>
      <trkpt lat="45.35465" lon="5.61468">
        <ele>324</ele>
        <time>2016-05-27T15:39:21Z</time>
      </trkpt>
      <trkpt lat="45.3547" lon="5.61441">
        <ele>322</ele>
        <time>2016-05-27T15:41:21Z</time>
      </trkpt>
      <trkpt lat="45.35473" lon="5.61429">
        <ele>321</ele>
        <time>2016-05-27T15:43:21Z</time>
      </trkpt>
      <trkpt lat="45.35481" lon="5.61386">
        <ele>319</ele>
        <time>2016-05-27T15:45:21Z</time>
      </trkpt>
      <trkpt lat="45.35483" lon="5.61377">
        <ele>318</ele>
        <time>2016-05-27T15:47:21Z</time>
      </trkpt>
      <trkpt lat="45.35487" lon="5.61359">
        <ele>317</ele>
        <time>2016-05-27T15:49:21Z</time>
      </trkpt>
      <trkpt lat="45.35492" lon="5.61333">
        <ele>315</ele>
        <time>2016-05-27T15:51:21Z</time>
      </trkpt>
      <trkpt lat="45.35492" lon="5.61333">
        <ele>315</ele>
        <time>2016-05-27T15:53:21Z</time>
      </trkpt>
      <trkpt lat="45.35486" lon="5.61319">
        <ele>316</ele>
        <time>2016-05-27T15:55:21Z</time>
      </trkpt>
      <trkpt lat="45.35476" lon="5.61305">
        <ele>316</ele>
        <time>2016-05-27T15:57:21Z</time>
      </trkpt>
      <trkpt lat="45.35465" lon="5.61292">
        <ele>317</ele>
        <time>2016-05-27T15:59:21Z</time>
      </trkpt>
      <trkpt lat="45.35457" lon="5.61284">
        <ele>317</ele>
        <time>2016-05-27T16:01:21Z</time>
      </trkpt>
    </trkseg>
  </trk>
</gpx>